<?xml version="1.0" encoding="UTF-8" standalone="no" ?>
<gpx xmlns="http://www.topografix.com/GPX/1/1" xmlns:xsi="http://www.w3.org/2001/XMLSchema-instance" xsi:schemaLocation="http://www.topografix.com/GPX/1/1 http://www.topografix.com/GPX/1/1/gpx.xsd" version="1.1" creator="VisuGPX - https://www.visugpx.com">
  <metadata>
    <name>O-SE-St Pazanne Machecoul St Lumine St Philbert Chevrolière Pont St Martin</name>
    <desc><![CDATA[O-SE-St Pazanne Machecoul St Lumine St Philbert Chevrolière Pont St Martin]]></desc>
  </metadata>
  <trk>
    <name><![CDATA[2020-06-20 10:27]]></name>
    <desc><![CDATA[<p>Heure de départ: 06/20/2019 10:27</p><p>Heure d'arrivée: 06/20/2019 13:59</p><p>Distance: 80,2 km (03:32)</p><p>Temps déplacement: 03:23</p><p>Vitesse moyenne: 22,66 km/h</p><p>Vitesse moyenne mouv.: 23,62 km/h</p><p>Vitesse Max.: 34,89km/h</p><p>Altitude minimale: -7 m</p><p>Altitude maximale: 48 m</p><p>Vitesse de montée: 804,6 m/h</p><p>Vitesse de descente: -824,1 m/h</p><p>Gain d'altitude: 1077 m</p><p>Perte d'altitude: -1044 m</p><p>Temps de montée: 01:20</p><p>Temps de descente: 01:16</p><hr align="center" width="480" style="height: 2px; width: 517px"/>]]></desc>
    <trkseg>
      <trkpt lat="47.1679" lon="-1.62626">
        <ele>-2.14</ele>
        <time>2020-06-20T08:27:06Z</time>
      </trkpt>
      <trkpt lat="47.16783" lon="-1.62639">
        <ele>12.71</ele>
        <time>2020-06-20T08:27:12Z</time>
      </trkpt>
      <trkpt lat="47.16774" lon="-1.62639">
        <ele>7.79</ele>
        <time>2020-06-20T08:27:16Z</time>
      </trkpt>
      <trkpt lat="47.16766" lon="-1.62645">
        <ele>-4.69</ele>
        <time>2020-06-20T08:27:23Z</time>
      </trkpt>
      <trkpt lat="47.16775" lon="-1.62651">
        <ele>-1.95</ele>
        <time>2020-06-20T08:27:58Z</time>
      </trkpt>
      <trkpt lat="47.16779" lon="-1.62663">
        <ele>-0.24</ele>
        <time>2020-06-20T08:28:02Z</time>
      </trkpt>
      <trkpt lat="47.1677" lon="-1.62671">
        <ele>8.08</ele>
        <time>2020-06-20T08:28:05Z</time>
      </trkpt>
      <trkpt lat="47.16758" lon="-1.62669">
        <ele>11.34</ele>
        <time>2020-06-20T08:28:08Z</time>
      </trkpt>
      <trkpt lat="47.16748" lon="-1.62672">
        <ele>12.27</ele>
        <time>2020-06-20T08:28:10Z</time>
      </trkpt>
      <trkpt lat="47.16736" lon="-1.62678">
        <ele>10.66</ele>
        <time>2020-06-20T08:28:12Z</time>
      </trkpt>
      <trkpt lat="47.16726" lon="-1.62683">
        <ele>8.25</ele>
        <time>2020-06-20T08:28:14Z</time>
      </trkpt>
      <trkpt lat="47.16719" lon="-1.62691">
        <ele>6.2</ele>
        <time>2020-06-20T08:28:16Z</time>
      </trkpt>
      <trkpt lat="47.16723" lon="-1.62704">
        <ele>4.81</ele>
        <time>2020-06-20T08:28:19Z</time>
      </trkpt>
      <trkpt lat="47.16728" lon="-1.62719">
        <ele>4.59</ele>
        <time>2020-06-20T08:28:21Z</time>
      </trkpt>
      <trkpt lat="47.16736" lon="-1.62731">
        <ele>5.06</ele>
        <time>2020-06-20T08:28:23Z</time>
      </trkpt>
      <trkpt lat="47.16744" lon="-1.62743">
        <ele>6.42</ele>
        <time>2020-06-20T08:28:25Z</time>
      </trkpt>
      <trkpt lat="47.16751" lon="-1.62751">
        <ele>6.42</ele>
        <time>2020-06-20T08:28:27Z</time>
      </trkpt>
      <trkpt lat="47.1676" lon="-1.62761">
        <ele>5.85</ele>
        <time>2020-06-20T08:28:29Z</time>
      </trkpt>
      <trkpt lat="47.16771" lon="-1.6277">
        <ele>6.15</ele>
        <time>2020-06-20T08:28:31Z</time>
      </trkpt>
      <trkpt lat="47.16781" lon="-1.6278">
        <ele>6.85</ele>
        <time>2020-06-20T08:28:33Z</time>
      </trkpt>
      <trkpt lat="47.16791" lon="-1.62789">
        <ele>6.63</ele>
        <time>2020-06-20T08:28:35Z</time>
      </trkpt>
      <trkpt lat="47.16801" lon="-1.62799">
        <ele>7.17</ele>
        <time>2020-06-20T08:28:37Z</time>
      </trkpt>
      <trkpt lat="47.16811" lon="-1.62807">
        <ele>8.16</ele>
        <time>2020-06-20T08:28:39Z</time>
      </trkpt>
      <trkpt lat="47.1682" lon="-1.62815">
        <ele>8.61</ele>
        <time>2020-06-20T08:28:41Z</time>
      </trkpt>
      <trkpt lat="47.16829" lon="-1.62823">
        <ele>9.49</ele>
        <time>2020-06-20T08:28:43Z</time>
      </trkpt>
      <trkpt lat="47.16837" lon="-1.62831">
        <ele>10.42</ele>
        <time>2020-06-20T08:28:45Z</time>
      </trkpt>
      <trkpt lat="47.16846" lon="-1.62839">
        <ele>10.67</ele>
        <time>2020-06-20T08:28:47Z</time>
      </trkpt>
      <trkpt lat="47.16853" lon="-1.62847">
        <ele>10.56</ele>
        <time>2020-06-20T08:28:49Z</time>
      </trkpt>
      <trkpt lat="47.16862" lon="-1.62857">
        <ele>11.45</ele>
        <time>2020-06-20T08:28:51Z</time>
      </trkpt>
      <trkpt lat="47.16869" lon="-1.62866">
        <ele>12.54</ele>
        <time>2020-06-20T08:28:53Z</time>
      </trkpt>
      <trkpt lat="47.16877" lon="-1.62879">
        <ele>13.52</ele>
        <time>2020-06-20T08:28:55Z</time>
      </trkpt>
      <trkpt lat="47.16882" lon="-1.62892">
        <ele>14.83</ele>
        <time>2020-06-20T08:28:57Z</time>
      </trkpt>
      <trkpt lat="47.16885" lon="-1.62905">
        <ele>15.92</ele>
        <time>2020-06-20T08:28:59Z</time>
      </trkpt>
      <trkpt lat="47.16888" lon="-1.6292">
        <ele>15.82</ele>
        <time>2020-06-20T08:29:01Z</time>
      </trkpt>
      <trkpt lat="47.16889" lon="-1.62934">
        <ele>15.44</ele>
        <time>2020-06-20T08:29:03Z</time>
      </trkpt>
      <trkpt lat="47.16889" lon="-1.62947">
        <ele>16.55</ele>
        <time>2020-06-20T08:29:05Z</time>
      </trkpt>
      <trkpt lat="47.16889" lon="-1.62961">
        <ele>16.9</ele>
        <time>2020-06-20T08:29:07Z</time>
      </trkpt>
      <trkpt lat="47.16888" lon="-1.62979">
        <ele>18</ele>
        <time>2020-06-20T08:29:09Z</time>
      </trkpt>
      <trkpt lat="47.16886" lon="-1.62994">
        <ele>19.04</ele>
        <time>2020-06-20T08:29:11Z</time>
      </trkpt>
      <trkpt lat="47.16886" lon="-1.63011">
        <ele>19.34</ele>
        <time>2020-06-20T08:29:13Z</time>
      </trkpt>
      <trkpt lat="47.16885" lon="-1.63026">
        <ele>20.08</ele>
        <time>2020-06-20T08:29:15Z</time>
      </trkpt>
      <trkpt lat="47.16885" lon="-1.63042">
        <ele>21.46</ele>
        <time>2020-06-20T08:29:17Z</time>
      </trkpt>
      <trkpt lat="47.16886" lon="-1.63058">
        <ele>22.1</ele>
        <time>2020-06-20T08:29:19Z</time>
      </trkpt>
      <trkpt lat="47.16887" lon="-1.63077">
        <ele>22.57</ele>
        <time>2020-06-20T08:29:22Z</time>
      </trkpt>
      <trkpt lat="47.16888" lon="-1.63091">
        <ele>23.12</ele>
        <time>2020-06-20T08:29:24Z</time>
      </trkpt>
      <trkpt lat="47.16891" lon="-1.63105">
        <ele>21.71</ele>
        <time>2020-06-20T08:29:26Z</time>
      </trkpt>
      <trkpt lat="47.16896" lon="-1.63122">
        <ele>21.06</ele>
        <time>2020-06-20T08:29:28Z</time>
      </trkpt>
      <trkpt lat="47.169" lon="-1.63135">
        <ele>20.43</ele>
        <time>2020-06-20T08:29:30Z</time>
      </trkpt>
      <trkpt lat="47.16905" lon="-1.6315">
        <ele>19.35</ele>
        <time>2020-06-20T08:29:32Z</time>
      </trkpt>
      <trkpt lat="47.16913" lon="-1.63167">
        <ele>18.58</ele>
        <time>2020-06-20T08:29:35Z</time>
      </trkpt>
      <trkpt lat="47.16919" lon="-1.6318">
        <ele>19.2</ele>
        <time>2020-06-20T08:29:37Z</time>
      </trkpt>
      <trkpt lat="47.16925" lon="-1.6319">
        <ele>18.02</ele>
        <time>2020-06-20T08:29:39Z</time>
      </trkpt>
      <trkpt lat="47.16933" lon="-1.63203">
        <ele>17.09</ele>
        <time>2020-06-20T08:29:41Z</time>
      </trkpt>
      <trkpt lat="47.1694" lon="-1.63213">
        <ele>17.61</ele>
        <time>2020-06-20T08:29:43Z</time>
      </trkpt>
      <trkpt lat="47.16948" lon="-1.63221">
        <ele>18.81</ele>
        <time>2020-06-20T08:29:45Z</time>
      </trkpt>
      <trkpt lat="47.16956" lon="-1.63233">
        <ele>19.67</ele>
        <time>2020-06-20T08:29:48Z</time>
      </trkpt>
      <trkpt lat="47.16964" lon="-1.63242">
        <ele>20.09</ele>
        <time>2020-06-20T08:29:51Z</time>
      </trkpt>
      <trkpt lat="47.16958" lon="-1.63252">
        <ele>20.05</ele>
        <time>2020-06-20T08:29:55Z</time>
      </trkpt>
      <trkpt lat="47.1695" lon="-1.63262">
        <ele>19.45</ele>
        <time>2020-06-20T08:29:57Z</time>
      </trkpt>
      <trkpt lat="47.16943" lon="-1.63278">
        <ele>19.49</ele>
        <time>2020-06-20T08:29:59Z</time>
      </trkpt>
      <trkpt lat="47.16937" lon="-1.63291">
        <ele>16.27</ele>
        <time>2020-06-20T08:30:01Z</time>
      </trkpt>
      <trkpt lat="47.16928" lon="-1.63304">
        <ele>16.61</ele>
        <time>2020-06-20T08:30:03Z</time>
      </trkpt>
      <trkpt lat="47.16919" lon="-1.63316">
        <ele>17.64</ele>
        <time>2020-06-20T08:30:05Z</time>
      </trkpt>
      <trkpt lat="47.16912" lon="-1.63327">
        <ele>18.19</ele>
        <time>2020-06-20T08:30:07Z</time>
      </trkpt>
      <trkpt lat="47.16903" lon="-1.63341">
        <ele>17.55</ele>
        <time>2020-06-20T08:30:09Z</time>
      </trkpt>
      <trkpt lat="47.16894" lon="-1.63356">
        <ele>15.62</ele>
        <time>2020-06-20T08:30:12Z</time>
      </trkpt>
      <trkpt lat="47.16888" lon="-1.63368">
        <ele>13.54</ele>
        <time>2020-06-20T08:30:14Z</time>
      </trkpt>
      <trkpt lat="47.1688" lon="-1.6338">
        <ele>11.78</ele>
        <time>2020-06-20T08:30:16Z</time>
      </trkpt>
      <trkpt lat="47.16874" lon="-1.63391">
        <ele>10.17</ele>
        <time>2020-06-20T08:30:18Z</time>
      </trkpt>
      <trkpt lat="47.16866" lon="-1.63404">
        <ele>8.97</ele>
        <time>2020-06-20T08:30:20Z</time>
      </trkpt>
      <trkpt lat="47.16857" lon="-1.6342">
        <ele>7.65</ele>
        <time>2020-06-20T08:30:22Z</time>
      </trkpt>
      <trkpt lat="47.16851" lon="-1.63434">
        <ele>6.39</ele>
        <time>2020-06-20T08:30:24Z</time>
      </trkpt>
      <trkpt lat="47.16844" lon="-1.63444">
        <ele>6.44</ele>
        <time>2020-06-20T08:30:26Z</time>
      </trkpt>
      <trkpt lat="47.16836" lon="-1.63456">
        <ele>7.09</ele>
        <time>2020-06-20T08:30:28Z</time>
      </trkpt>
      <trkpt lat="47.16829" lon="-1.63467">
        <ele>6.15</ele>
        <time>2020-06-20T08:30:30Z</time>
      </trkpt>
      <trkpt lat="47.16821" lon="-1.63478">
        <ele>5.64</ele>
        <time>2020-06-20T08:30:32Z</time>
      </trkpt>
      <trkpt lat="47.16815" lon="-1.6349">
        <ele>5.52</ele>
        <time>2020-06-20T08:30:34Z</time>
      </trkpt>
      <trkpt lat="47.16807" lon="-1.63502">
        <ele>4.2</ele>
        <time>2020-06-20T08:30:36Z</time>
      </trkpt>
      <trkpt lat="47.168" lon="-1.63514">
        <ele>3.75</ele>
        <time>2020-06-20T08:30:38Z</time>
      </trkpt>
      <trkpt lat="47.16794" lon="-1.63526">
        <ele>5.44</ele>
        <time>2020-06-20T08:30:40Z</time>
      </trkpt>
      <trkpt lat="47.16788" lon="-1.63537">
        <ele>4.2</ele>
        <time>2020-06-20T08:30:42Z</time>
      </trkpt>
      <trkpt lat="47.1678" lon="-1.63549">
        <ele>3.1</ele>
        <time>2020-06-20T08:30:44Z</time>
      </trkpt>
      <trkpt lat="47.16771" lon="-1.63563">
        <ele>5.14</ele>
        <time>2020-06-20T08:30:47Z</time>
      </trkpt>
      <trkpt lat="47.16765" lon="-1.63574">
        <ele>6.37</ele>
        <time>2020-06-20T08:30:49Z</time>
      </trkpt>
      <trkpt lat="47.16757" lon="-1.63586">
        <ele>6.13</ele>
        <time>2020-06-20T08:30:51Z</time>
      </trkpt>
      <trkpt lat="47.16752" lon="-1.63597">
        <ele>7.06</ele>
        <time>2020-06-20T08:30:53Z</time>
      </trkpt>
      <trkpt lat="47.16746" lon="-1.63611">
        <ele>7.87</ele>
        <time>2020-06-20T08:30:55Z</time>
      </trkpt>
      <trkpt lat="47.16751" lon="-1.63623">
        <ele>8.92</ele>
        <time>2020-06-20T08:30:57Z</time>
      </trkpt>
      <trkpt lat="47.1676" lon="-1.63632">
        <ele>9.44</ele>
        <time>2020-06-20T08:30:59Z</time>
      </trkpt>
      <trkpt lat="47.16771" lon="-1.6364">
        <ele>11.14</ele>
        <time>2020-06-20T08:31:01Z</time>
      </trkpt>
      <trkpt lat="47.16782" lon="-1.63646">
        <ele>12.36</ele>
        <time>2020-06-20T08:31:03Z</time>
      </trkpt>
      <trkpt lat="47.16792" lon="-1.63651">
        <ele>14.21</ele>
        <time>2020-06-20T08:31:05Z</time>
      </trkpt>
      <trkpt lat="47.16801" lon="-1.63655">
        <ele>16.48</ele>
        <time>2020-06-20T08:31:07Z</time>
      </trkpt>
      <trkpt lat="47.16811" lon="-1.63661">
        <ele>17.91</ele>
        <time>2020-06-20T08:31:09Z</time>
      </trkpt>
      <trkpt lat="47.16822" lon="-1.63664">
        <ele>17.99</ele>
        <time>2020-06-20T08:31:11Z</time>
      </trkpt>
      <trkpt lat="47.16832" lon="-1.63669">
        <ele>17.16</ele>
        <time>2020-06-20T08:31:13Z</time>
      </trkpt>
      <trkpt lat="47.16842" lon="-1.63673">
        <ele>17.1</ele>
        <time>2020-06-20T08:31:15Z</time>
      </trkpt>
      <trkpt lat="47.16853" lon="-1.63678">
        <ele>16.67</ele>
        <time>2020-06-20T08:31:17Z</time>
      </trkpt>
      <trkpt lat="47.16864" lon="-1.63682">
        <ele>16.35</ele>
        <time>2020-06-20T08:31:19Z</time>
      </trkpt>
      <trkpt lat="47.16875" lon="-1.63688">
        <ele>17.01</ele>
        <time>2020-06-20T08:31:21Z</time>
      </trkpt>
      <trkpt lat="47.16886" lon="-1.63692">
        <ele>17.93</ele>
        <time>2020-06-20T08:31:23Z</time>
      </trkpt>
      <trkpt lat="47.16898" lon="-1.63697">
        <ele>18.14</ele>
        <time>2020-06-20T08:31:25Z</time>
      </trkpt>
      <trkpt lat="47.16909" lon="-1.63702">
        <ele>17.07</ele>
        <time>2020-06-20T08:31:27Z</time>
      </trkpt>
      <trkpt lat="47.16922" lon="-1.63705">
        <ele>17.98</ele>
        <time>2020-06-20T08:31:29Z</time>
      </trkpt>
      <trkpt lat="47.16934" lon="-1.63708">
        <ele>17.91</ele>
        <time>2020-06-20T08:31:31Z</time>
      </trkpt>
      <trkpt lat="47.16944" lon="-1.63712">
        <ele>17.62</ele>
        <time>2020-06-20T08:31:33Z</time>
      </trkpt>
      <trkpt lat="47.16957" lon="-1.63716">
        <ele>18.03</ele>
        <time>2020-06-20T08:31:35Z</time>
      </trkpt>
      <trkpt lat="47.16969" lon="-1.63721">
        <ele>17.22</ele>
        <time>2020-06-20T08:31:37Z</time>
      </trkpt>
      <trkpt lat="47.16979" lon="-1.63724">
        <ele>17.53</ele>
        <time>2020-06-20T08:31:39Z</time>
      </trkpt>
      <trkpt lat="47.1699" lon="-1.63727">
        <ele>17.89</ele>
        <time>2020-06-20T08:31:41Z</time>
      </trkpt>
      <trkpt lat="47.17001" lon="-1.63732">
        <ele>19.11</ele>
        <time>2020-06-20T08:31:43Z</time>
      </trkpt>
      <trkpt lat="47.17012" lon="-1.63736">
        <ele>19.9</ele>
        <time>2020-06-20T08:31:45Z</time>
      </trkpt>
      <trkpt lat="47.17023" lon="-1.63741">
        <ele>20.29</ele>
        <time>2020-06-20T08:31:47Z</time>
      </trkpt>
      <trkpt lat="47.17036" lon="-1.63746">
        <ele>21.27</ele>
        <time>2020-06-20T08:31:49Z</time>
      </trkpt>
      <trkpt lat="47.17048" lon="-1.63754">
        <ele>22.06</ele>
        <time>2020-06-20T08:31:52Z</time>
      </trkpt>
      <trkpt lat="47.17058" lon="-1.63763">
        <ele>21.91</ele>
        <time>2020-06-20T08:31:54Z</time>
      </trkpt>
      <trkpt lat="47.17066" lon="-1.6378">
        <ele>20.83</ele>
        <time>2020-06-20T08:31:57Z</time>
      </trkpt>
      <trkpt lat="47.1707" lon="-1.63792">
        <ele>19.31</ele>
        <time>2020-06-20T08:31:59Z</time>
      </trkpt>
      <trkpt lat="47.17074" lon="-1.63805">
        <ele>18.41</ele>
        <time>2020-06-20T08:32:01Z</time>
      </trkpt>
      <trkpt lat="47.17079" lon="-1.63818">
        <ele>17.06</ele>
        <time>2020-06-20T08:32:03Z</time>
      </trkpt>
      <trkpt lat="47.17085" lon="-1.63834">
        <ele>15.86</ele>
        <time>2020-06-20T08:32:05Z</time>
      </trkpt>
      <trkpt lat="47.17089" lon="-1.63847">
        <ele>15.65</ele>
        <time>2020-06-20T08:32:07Z</time>
      </trkpt>
      <trkpt lat="47.17094" lon="-1.63861">
        <ele>16.12</ele>
        <time>2020-06-20T08:32:09Z</time>
      </trkpt>
      <trkpt lat="47.17099" lon="-1.63875">
        <ele>17.26</ele>
        <time>2020-06-20T08:32:11Z</time>
      </trkpt>
      <trkpt lat="47.17104" lon="-1.63888">
        <ele>16.88</ele>
        <time>2020-06-20T08:32:13Z</time>
      </trkpt>
      <trkpt lat="47.17108" lon="-1.63902">
        <ele>16.67</ele>
        <time>2020-06-20T08:32:15Z</time>
      </trkpt>
      <trkpt lat="47.17114" lon="-1.63916">
        <ele>15.5</ele>
        <time>2020-06-20T08:32:17Z</time>
      </trkpt>
      <trkpt lat="47.17119" lon="-1.63927">
        <ele>15.07</ele>
        <time>2020-06-20T08:32:19Z</time>
      </trkpt>
      <trkpt lat="47.17128" lon="-1.63934">
        <ele>15.54</ele>
        <time>2020-06-20T08:32:21Z</time>
      </trkpt>
      <trkpt lat="47.17135" lon="-1.63942">
        <ele>15.5</ele>
        <time>2020-06-20T08:32:24Z</time>
      </trkpt>
      <trkpt lat="47.17136" lon="-1.6396">
        <ele>15.78</ele>
        <time>2020-06-20T08:32:27Z</time>
      </trkpt>
      <trkpt lat="47.17137" lon="-1.63976">
        <ele>16.99</ele>
        <time>2020-06-20T08:32:29Z</time>
      </trkpt>
      <trkpt lat="47.17135" lon="-1.63989">
        <ele>17.89</ele>
        <time>2020-06-20T08:32:31Z</time>
      </trkpt>
      <trkpt lat="47.17133" lon="-1.64007">
        <ele>17.41</ele>
        <time>2020-06-20T08:32:33Z</time>
      </trkpt>
      <trkpt lat="47.1713" lon="-1.64026">
        <ele>17.22</ele>
        <time>2020-06-20T08:32:35Z</time>
      </trkpt>
      <trkpt lat="47.17128" lon="-1.64044">
        <ele>15.71</ele>
        <time>2020-06-20T08:32:37Z</time>
      </trkpt>
      <trkpt lat="47.17127" lon="-1.64064">
        <ele>15.82</ele>
        <time>2020-06-20T08:32:39Z</time>
      </trkpt>
      <trkpt lat="47.17125" lon="-1.64081">
        <ele>15.73</ele>
        <time>2020-06-20T08:32:41Z</time>
      </trkpt>
      <trkpt lat="47.17123" lon="-1.64098">
        <ele>16.24</ele>
        <time>2020-06-20T08:32:43Z</time>
      </trkpt>
      <trkpt lat="47.17121" lon="-1.64116">
        <ele>18.1</ele>
        <time>2020-06-20T08:32:45Z</time>
      </trkpt>
      <trkpt lat="47.17119" lon="-1.64135">
        <ele>18.86</ele>
        <time>2020-06-20T08:32:47Z</time>
      </trkpt>
      <trkpt lat="47.17117" lon="-1.64155">
        <ele>19.28</ele>
        <time>2020-06-20T08:32:49Z</time>
      </trkpt>
      <trkpt lat="47.17116" lon="-1.64175">
        <ele>20.35</ele>
        <time>2020-06-20T08:32:51Z</time>
      </trkpt>
      <trkpt lat="47.17114" lon="-1.64195">
        <ele>19.79</ele>
        <time>2020-06-20T08:32:53Z</time>
      </trkpt>
      <trkpt lat="47.17112" lon="-1.64212">
        <ele>20.44</ele>
        <time>2020-06-20T08:32:55Z</time>
      </trkpt>
      <trkpt lat="47.17109" lon="-1.64231">
        <ele>21.93</ele>
        <time>2020-06-20T08:32:57Z</time>
      </trkpt>
      <trkpt lat="47.17106" lon="-1.64249">
        <ele>23.67</ele>
        <time>2020-06-20T08:32:59Z</time>
      </trkpt>
      <trkpt lat="47.17104" lon="-1.6427">
        <ele>25.02</ele>
        <time>2020-06-20T08:33:01Z</time>
      </trkpt>
      <trkpt lat="47.17102" lon="-1.64288">
        <ele>24.81</ele>
        <time>2020-06-20T08:33:03Z</time>
      </trkpt>
      <trkpt lat="47.17099" lon="-1.64304">
        <ele>25.35</ele>
        <time>2020-06-20T08:33:05Z</time>
      </trkpt>
      <trkpt lat="47.17098" lon="-1.64321">
        <ele>25.76</ele>
        <time>2020-06-20T08:33:07Z</time>
      </trkpt>
      <trkpt lat="47.17096" lon="-1.64339">
        <ele>25.23</ele>
        <time>2020-06-20T08:33:09Z</time>
      </trkpt>
      <trkpt lat="47.17094" lon="-1.64358">
        <ele>26.29</ele>
        <time>2020-06-20T08:33:11Z</time>
      </trkpt>
      <trkpt lat="47.17093" lon="-1.64375">
        <ele>26.04</ele>
        <time>2020-06-20T08:33:13Z</time>
      </trkpt>
      <trkpt lat="47.17091" lon="-1.64395">
        <ele>25.52</ele>
        <time>2020-06-20T08:33:15Z</time>
      </trkpt>
      <trkpt lat="47.17089" lon="-1.64417">
        <ele>24.35</ele>
        <time>2020-06-20T08:33:17Z</time>
      </trkpt>
      <trkpt lat="47.17088" lon="-1.64436">
        <ele>24.47</ele>
        <time>2020-06-20T08:33:19Z</time>
      </trkpt>
      <trkpt lat="47.17087" lon="-1.64454">
        <ele>23.67</ele>
        <time>2020-06-20T08:33:21Z</time>
      </trkpt>
      <trkpt lat="47.17086" lon="-1.64469">
        <ele>22.02</ele>
        <time>2020-06-20T08:33:23Z</time>
      </trkpt>
      <trkpt lat="47.17085" lon="-1.64484">
        <ele>20.11</ele>
        <time>2020-06-20T08:33:25Z</time>
      </trkpt>
      <trkpt lat="47.17085" lon="-1.64501">
        <ele>18.99</ele>
        <time>2020-06-20T08:33:27Z</time>
      </trkpt>
      <trkpt lat="47.17084" lon="-1.64522">
        <ele>19.48</ele>
        <time>2020-06-20T08:33:29Z</time>
      </trkpt>
      <trkpt lat="47.17085" lon="-1.64544">
        <ele>21.02</ele>
        <time>2020-06-20T08:33:31Z</time>
      </trkpt>
      <trkpt lat="47.17084" lon="-1.64565">
        <ele>23.31</ele>
        <time>2020-06-20T08:33:33Z</time>
      </trkpt>
      <trkpt lat="47.17084" lon="-1.64584">
        <ele>25.5</ele>
        <time>2020-06-20T08:33:35Z</time>
      </trkpt>
      <trkpt lat="47.17084" lon="-1.64602">
        <ele>26.52</ele>
        <time>2020-06-20T08:33:37Z</time>
      </trkpt>
      <trkpt lat="47.17084" lon="-1.64616">
        <ele>27.25</ele>
        <time>2020-06-20T08:33:39Z</time>
      </trkpt>
      <trkpt lat="47.17084" lon="-1.64635">
        <ele>27.61</ele>
        <time>2020-06-20T08:33:41Z</time>
      </trkpt>
      <trkpt lat="47.17083" lon="-1.64656">
        <ele>27.58</ele>
        <time>2020-06-20T08:33:43Z</time>
      </trkpt>
      <trkpt lat="47.17083" lon="-1.64674">
        <ele>27.96</ele>
        <time>2020-06-20T08:33:45Z</time>
      </trkpt>
      <trkpt lat="47.17083" lon="-1.64693">
        <ele>27.9</ele>
        <time>2020-06-20T08:33:47Z</time>
      </trkpt>
      <trkpt lat="47.17084" lon="-1.6471">
        <ele>28.86</ele>
        <time>2020-06-20T08:33:49Z</time>
      </trkpt>
      <trkpt lat="47.17084" lon="-1.64727">
        <ele>29.14</ele>
        <time>2020-06-20T08:33:51Z</time>
      </trkpt>
      <trkpt lat="47.17084" lon="-1.64741">
        <ele>27.13</ele>
        <time>2020-06-20T08:33:53Z</time>
      </trkpt>
      <trkpt lat="47.17082" lon="-1.64758">
        <ele>26.37</ele>
        <time>2020-06-20T08:33:55Z</time>
      </trkpt>
      <trkpt lat="47.1708" lon="-1.64773">
        <ele>26.51</ele>
        <time>2020-06-20T08:33:57Z</time>
      </trkpt>
      <trkpt lat="47.17082" lon="-1.64796">
        <ele>27.75</ele>
        <time>2020-06-20T08:33:59Z</time>
      </trkpt>
      <trkpt lat="47.17084" lon="-1.64819">
        <ele>28.36</ele>
        <time>2020-06-20T08:34:01Z</time>
      </trkpt>
      <trkpt lat="47.17087" lon="-1.64837">
        <ele>27.29</ele>
        <time>2020-06-20T08:34:03Z</time>
      </trkpt>
      <trkpt lat="47.17089" lon="-1.64854">
        <ele>27.34</ele>
        <time>2020-06-20T08:34:05Z</time>
      </trkpt>
      <trkpt lat="47.17093" lon="-1.64872">
        <ele>27.27</ele>
        <time>2020-06-20T08:34:06Z</time>
      </trkpt>
      <trkpt lat="47.17095" lon="-1.64888">
        <ele>25.79</ele>
        <time>2020-06-20T08:34:08Z</time>
      </trkpt>
      <trkpt lat="47.17097" lon="-1.64907">
        <ele>26.02</ele>
        <time>2020-06-20T08:34:10Z</time>
      </trkpt>
      <trkpt lat="47.17099" lon="-1.64927">
        <ele>26.6</ele>
        <time>2020-06-20T08:34:12Z</time>
      </trkpt>
      <trkpt lat="47.17101" lon="-1.64947">
        <ele>25.99</ele>
        <time>2020-06-20T08:34:14Z</time>
      </trkpt>
      <trkpt lat="47.17103" lon="-1.64965">
        <ele>24.43</ele>
        <time>2020-06-20T08:34:16Z</time>
      </trkpt>
      <trkpt lat="47.17104" lon="-1.64982">
        <ele>25.91</ele>
        <time>2020-06-20T08:34:18Z</time>
      </trkpt>
      <trkpt lat="47.17105" lon="-1.64999">
        <ele>26.79</ele>
        <time>2020-06-20T08:34:20Z</time>
      </trkpt>
      <trkpt lat="47.17107" lon="-1.65016">
        <ele>27.58</ele>
        <time>2020-06-20T08:34:22Z</time>
      </trkpt>
      <trkpt lat="47.17108" lon="-1.65032">
        <ele>27.9</ele>
        <time>2020-06-20T08:34:24Z</time>
      </trkpt>
      <trkpt lat="47.1711" lon="-1.6505">
        <ele>27.39</ele>
        <time>2020-06-20T08:34:26Z</time>
      </trkpt>
      <trkpt lat="47.17111" lon="-1.65067">
        <ele>26.21</ele>
        <time>2020-06-20T08:34:28Z</time>
      </trkpt>
      <trkpt lat="47.17112" lon="-1.65083">
        <ele>25.41</ele>
        <time>2020-06-20T08:34:30Z</time>
      </trkpt>
      <trkpt lat="47.17114" lon="-1.65101">
        <ele>26.44</ele>
        <time>2020-06-20T08:34:32Z</time>
      </trkpt>
      <trkpt lat="47.17114" lon="-1.65118">
        <ele>25.39</ele>
        <time>2020-06-20T08:34:34Z</time>
      </trkpt>
      <trkpt lat="47.17116" lon="-1.65137">
        <ele>25.04</ele>
        <time>2020-06-20T08:34:36Z</time>
      </trkpt>
      <trkpt lat="47.17117" lon="-1.65156">
        <ele>25.81</ele>
        <time>2020-06-20T08:34:38Z</time>
      </trkpt>
      <trkpt lat="47.17119" lon="-1.65172">
        <ele>28.38</ele>
        <time>2020-06-20T08:34:40Z</time>
      </trkpt>
      <trkpt lat="47.1712" lon="-1.65188">
        <ele>29.78</ele>
        <time>2020-06-20T08:34:42Z</time>
      </trkpt>
      <trkpt lat="47.17121" lon="-1.65205">
        <ele>29.68</ele>
        <time>2020-06-20T08:34:44Z</time>
      </trkpt>
      <trkpt lat="47.17123" lon="-1.6522">
        <ele>30.34</ele>
        <time>2020-06-20T08:34:46Z</time>
      </trkpt>
      <trkpt lat="47.17124" lon="-1.65236">
        <ele>31.02</ele>
        <time>2020-06-20T08:34:48Z</time>
      </trkpt>
      <trkpt lat="47.17124" lon="-1.65251">
        <ele>32.56</ele>
        <time>2020-06-20T08:34:50Z</time>
      </trkpt>
      <trkpt lat="47.17128" lon="-1.65271">
        <ele>33.05</ele>
        <time>2020-06-20T08:34:53Z</time>
      </trkpt>
      <trkpt lat="47.17136" lon="-1.65287">
        <ele>33.63</ele>
        <time>2020-06-20T08:34:55Z</time>
      </trkpt>
      <trkpt lat="47.1714" lon="-1.65304">
        <ele>33.49</ele>
        <time>2020-06-20T08:34:57Z</time>
      </trkpt>
      <trkpt lat="47.17139" lon="-1.6532">
        <ele>32.68</ele>
        <time>2020-06-20T08:34:59Z</time>
      </trkpt>
      <trkpt lat="47.17133" lon="-1.65332">
        <ele>32.58</ele>
        <time>2020-06-20T08:35:01Z</time>
      </trkpt>
      <trkpt lat="47.17125" lon="-1.65342">
        <ele>31.09</ele>
        <time>2020-06-20T08:35:03Z</time>
      </trkpt>
      <trkpt lat="47.17118" lon="-1.65353">
        <ele>30.38</ele>
        <time>2020-06-20T08:35:05Z</time>
      </trkpt>
      <trkpt lat="47.17117" lon="-1.65367">
        <ele>28.28</ele>
        <time>2020-06-20T08:35:07Z</time>
      </trkpt>
      <trkpt lat="47.17117" lon="-1.65384">
        <ele>27.92</ele>
        <time>2020-06-20T08:35:09Z</time>
      </trkpt>
      <trkpt lat="47.17118" lon="-1.65398">
        <ele>28.31</ele>
        <time>2020-06-20T08:35:11Z</time>
      </trkpt>
      <trkpt lat="47.17117" lon="-1.65415">
        <ele>27.44</ele>
        <time>2020-06-20T08:35:14Z</time>
      </trkpt>
      <trkpt lat="47.17117" lon="-1.65435">
        <ele>27.31</ele>
        <time>2020-06-20T08:35:17Z</time>
      </trkpt>
      <trkpt lat="47.17117" lon="-1.65448">
        <ele>27.14</ele>
        <time>2020-06-20T08:35:19Z</time>
      </trkpt>
      <trkpt lat="47.17117" lon="-1.65464">
        <ele>27.35</ele>
        <time>2020-06-20T08:35:21Z</time>
      </trkpt>
      <trkpt lat="47.17117" lon="-1.65479">
        <ele>27.22</ele>
        <time>2020-06-20T08:35:23Z</time>
      </trkpt>
      <trkpt lat="47.17114" lon="-1.65492">
        <ele>27.79</ele>
        <time>2020-06-20T08:35:25Z</time>
      </trkpt>
      <trkpt lat="47.17109" lon="-1.6551">
        <ele>27.37</ele>
        <time>2020-06-20T08:35:28Z</time>
      </trkpt>
      <trkpt lat="47.17105" lon="-1.65522">
        <ele>26.77</ele>
        <time>2020-06-20T08:35:30Z</time>
      </trkpt>
      <trkpt lat="47.171" lon="-1.65533">
        <ele>27.46</ele>
        <time>2020-06-20T08:35:32Z</time>
      </trkpt>
      <trkpt lat="47.17095" lon="-1.65545">
        <ele>26.36</ele>
        <time>2020-06-20T08:35:34Z</time>
      </trkpt>
      <trkpt lat="47.17089" lon="-1.65555">
        <ele>25.65</ele>
        <time>2020-06-20T08:35:36Z</time>
      </trkpt>
      <trkpt lat="47.1708" lon="-1.65569">
        <ele>26.15</ele>
        <time>2020-06-20T08:35:39Z</time>
      </trkpt>
      <trkpt lat="47.17072" lon="-1.65583">
        <ele>24.03</ele>
        <time>2020-06-20T08:35:42Z</time>
      </trkpt>
      <trkpt lat="47.17066" lon="-1.65595">
        <ele>25.37</ele>
        <time>2020-06-20T08:35:45Z</time>
      </trkpt>
      <trkpt lat="47.17057" lon="-1.65609">
        <ele>21.37</ele>
        <time>2020-06-20T08:35:48Z</time>
      </trkpt>
      <trkpt lat="47.1705" lon="-1.65619">
        <ele>16.94</ele>
        <time>2020-06-20T08:35:50Z</time>
      </trkpt>
      <trkpt lat="47.17042" lon="-1.65631">
        <ele>14.89</ele>
        <time>2020-06-20T08:35:52Z</time>
      </trkpt>
      <trkpt lat="47.17035" lon="-1.65645">
        <ele>14.45</ele>
        <time>2020-06-20T08:35:54Z</time>
      </trkpt>
      <trkpt lat="47.17027" lon="-1.6566">
        <ele>13.96</ele>
        <time>2020-06-20T08:35:56Z</time>
      </trkpt>
      <trkpt lat="47.17019" lon="-1.65675">
        <ele>12.56</ele>
        <time>2020-06-20T08:35:58Z</time>
      </trkpt>
      <trkpt lat="47.17013" lon="-1.65692">
        <ele>11.3</ele>
        <time>2020-06-20T08:36:00Z</time>
      </trkpt>
      <trkpt lat="47.17007" lon="-1.65713">
        <ele>10.28</ele>
        <time>2020-06-20T08:36:02Z</time>
      </trkpt>
      <trkpt lat="47.17003" lon="-1.65733">
        <ele>13.72</ele>
        <time>2020-06-20T08:36:04Z</time>
      </trkpt>
      <trkpt lat="47.16996" lon="-1.65748">
        <ele>15.54</ele>
        <time>2020-06-20T08:36:06Z</time>
      </trkpt>
      <trkpt lat="47.16986" lon="-1.65758">
        <ele>16.44</ele>
        <time>2020-06-20T08:36:08Z</time>
      </trkpt>
      <trkpt lat="47.16975" lon="-1.65765">
        <ele>16.57</ele>
        <time>2020-06-20T08:36:10Z</time>
      </trkpt>
      <trkpt lat="47.16965" lon="-1.65773">
        <ele>16.81</ele>
        <time>2020-06-20T08:36:12Z</time>
      </trkpt>
      <trkpt lat="47.16956" lon="-1.65786">
        <ele>16.79</ele>
        <time>2020-06-20T08:36:14Z</time>
      </trkpt>
      <trkpt lat="47.16949" lon="-1.65802">
        <ele>16.81</ele>
        <time>2020-06-20T08:36:16Z</time>
      </trkpt>
      <trkpt lat="47.16941" lon="-1.6582">
        <ele>17.16</ele>
        <time>2020-06-20T08:36:18Z</time>
      </trkpt>
      <trkpt lat="47.16933" lon="-1.65836">
        <ele>17.32</ele>
        <time>2020-06-20T08:36:20Z</time>
      </trkpt>
      <trkpt lat="47.16924" lon="-1.65853">
        <ele>16.63</ele>
        <time>2020-06-20T08:36:22Z</time>
      </trkpt>
      <trkpt lat="47.16916" lon="-1.6587">
        <ele>16.09</ele>
        <time>2020-06-20T08:36:24Z</time>
      </trkpt>
      <trkpt lat="47.16909" lon="-1.65885">
        <ele>15.71</ele>
        <time>2020-06-20T08:36:26Z</time>
      </trkpt>
      <trkpt lat="47.16901" lon="-1.65901">
        <ele>14.86</ele>
        <time>2020-06-20T08:36:28Z</time>
      </trkpt>
      <trkpt lat="47.16894" lon="-1.65917">
        <ele>13.06</ele>
        <time>2020-06-20T08:36:30Z</time>
      </trkpt>
      <trkpt lat="47.16886" lon="-1.65932">
        <ele>12.73</ele>
        <time>2020-06-20T08:36:32Z</time>
      </trkpt>
      <trkpt lat="47.16878" lon="-1.65949">
        <ele>11.92</ele>
        <time>2020-06-20T08:36:34Z</time>
      </trkpt>
      <trkpt lat="47.16871" lon="-1.65966">
        <ele>11.37</ele>
        <time>2020-06-20T08:36:36Z</time>
      </trkpt>
      <trkpt lat="47.16864" lon="-1.65985">
        <ele>12.46</ele>
        <time>2020-06-20T08:36:38Z</time>
      </trkpt>
      <trkpt lat="47.16859" lon="-1.66005">
        <ele>13.78</ele>
        <time>2020-06-20T08:36:40Z</time>
      </trkpt>
      <trkpt lat="47.16855" lon="-1.66024">
        <ele>14.97</ele>
        <time>2020-06-20T08:36:42Z</time>
      </trkpt>
      <trkpt lat="47.16851" lon="-1.66042">
        <ele>16.69</ele>
        <time>2020-06-20T08:36:44Z</time>
      </trkpt>
      <trkpt lat="47.16849" lon="-1.66061">
        <ele>17.52</ele>
        <time>2020-06-20T08:36:46Z</time>
      </trkpt>
      <trkpt lat="47.16846" lon="-1.66077">
        <ele>18.18</ele>
        <time>2020-06-20T08:36:48Z</time>
      </trkpt>
      <trkpt lat="47.16845" lon="-1.66096">
        <ele>18.21</ele>
        <time>2020-06-20T08:36:50Z</time>
      </trkpt>
      <trkpt lat="47.16844" lon="-1.66116">
        <ele>19.24</ele>
        <time>2020-06-20T08:36:52Z</time>
      </trkpt>
      <trkpt lat="47.16844" lon="-1.66134">
        <ele>19.53</ele>
        <time>2020-06-20T08:36:54Z</time>
      </trkpt>
      <trkpt lat="47.16844" lon="-1.66152">
        <ele>19.11</ele>
        <time>2020-06-20T08:36:56Z</time>
      </trkpt>
      <trkpt lat="47.16845" lon="-1.66171">
        <ele>18.96</ele>
        <time>2020-06-20T08:36:58Z</time>
      </trkpt>
      <trkpt lat="47.16846" lon="-1.66188">
        <ele>20.22</ele>
        <time>2020-06-20T08:37:00Z</time>
      </trkpt>
      <trkpt lat="47.16848" lon="-1.66207">
        <ele>21.51</ele>
        <time>2020-06-20T08:37:03Z</time>
      </trkpt>
      <trkpt lat="47.1685" lon="-1.66223">
        <ele>22.74</ele>
        <time>2020-06-20T08:37:05Z</time>
      </trkpt>
      <trkpt lat="47.16851" lon="-1.66239">
        <ele>23.97</ele>
        <time>2020-06-20T08:37:07Z</time>
      </trkpt>
      <trkpt lat="47.16852" lon="-1.66253">
        <ele>23.48</ele>
        <time>2020-06-20T08:37:09Z</time>
      </trkpt>
      <trkpt lat="47.16855" lon="-1.66267">
        <ele>22.94</ele>
        <time>2020-06-20T08:37:11Z</time>
      </trkpt>
      <trkpt lat="47.16857" lon="-1.66284">
        <ele>20.9</ele>
        <time>2020-06-20T08:37:13Z</time>
      </trkpt>
      <trkpt lat="47.16856" lon="-1.66297">
        <ele>18.1</ele>
        <time>2020-06-20T08:37:15Z</time>
      </trkpt>
      <trkpt lat="47.16856" lon="-1.66314">
        <ele>15.82</ele>
        <time>2020-06-20T08:37:17Z</time>
      </trkpt>
      <trkpt lat="47.16857" lon="-1.66333">
        <ele>15.56</ele>
        <time>2020-06-20T08:37:19Z</time>
      </trkpt>
      <trkpt lat="47.16859" lon="-1.66352">
        <ele>16.78</ele>
        <time>2020-06-20T08:37:21Z</time>
      </trkpt>
      <trkpt lat="47.16861" lon="-1.6637">
        <ele>16.78</ele>
        <time>2020-06-20T08:37:23Z</time>
      </trkpt>
      <trkpt lat="47.16863" lon="-1.6639">
        <ele>16.35</ele>
        <time>2020-06-20T08:37:25Z</time>
      </trkpt>
      <trkpt lat="47.16865" lon="-1.66408">
        <ele>16.29</ele>
        <time>2020-06-20T08:37:27Z</time>
      </trkpt>
      <trkpt lat="47.16866" lon="-1.66427">
        <ele>14.94</ele>
        <time>2020-06-20T08:37:29Z</time>
      </trkpt>
      <trkpt lat="47.16868" lon="-1.66445">
        <ele>16.17</ele>
        <time>2020-06-20T08:37:31Z</time>
      </trkpt>
      <trkpt lat="47.1687" lon="-1.66461">
        <ele>18.35</ele>
        <time>2020-06-20T08:37:33Z</time>
      </trkpt>
      <trkpt lat="47.16871" lon="-1.66478">
        <ele>17.2</ele>
        <time>2020-06-20T08:37:35Z</time>
      </trkpt>
      <trkpt lat="47.16874" lon="-1.66499">
        <ele>17.21</ele>
        <time>2020-06-20T08:37:38Z</time>
      </trkpt>
      <trkpt lat="47.16875" lon="-1.66516">
        <ele>16.61</ele>
        <time>2020-06-20T08:37:40Z</time>
      </trkpt>
      <trkpt lat="47.16878" lon="-1.66535">
        <ele>16.11</ele>
        <time>2020-06-20T08:37:42Z</time>
      </trkpt>
      <trkpt lat="47.1688" lon="-1.66551">
        <ele>17.19</ele>
        <time>2020-06-20T08:37:44Z</time>
      </trkpt>
      <trkpt lat="47.16881" lon="-1.66564">
        <ele>18.3</ele>
        <time>2020-06-20T08:37:46Z</time>
      </trkpt>
      <trkpt lat="47.16883" lon="-1.66581">
        <ele>19.43</ele>
        <time>2020-06-20T08:37:48Z</time>
      </trkpt>
      <trkpt lat="47.16885" lon="-1.66599">
        <ele>20.24</ele>
        <time>2020-06-20T08:37:50Z</time>
      </trkpt>
      <trkpt lat="47.16888" lon="-1.6662">
        <ele>19.1</ele>
        <time>2020-06-20T08:37:52Z</time>
      </trkpt>
      <trkpt lat="47.1689" lon="-1.66638">
        <ele>17.63</ele>
        <time>2020-06-20T08:37:54Z</time>
      </trkpt>
      <trkpt lat="47.16891" lon="-1.66657">
        <ele>17.62</ele>
        <time>2020-06-20T08:37:56Z</time>
      </trkpt>
      <trkpt lat="47.16889" lon="-1.66674">
        <ele>16.85</ele>
        <time>2020-06-20T08:37:58Z</time>
      </trkpt>
      <trkpt lat="47.16887" lon="-1.66692">
        <ele>16.58</ele>
        <time>2020-06-20T08:38:00Z</time>
      </trkpt>
      <trkpt lat="47.16884" lon="-1.66708">
        <ele>15.85</ele>
        <time>2020-06-20T08:38:02Z</time>
      </trkpt>
      <trkpt lat="47.16878" lon="-1.66728">
        <ele>15.91</ele>
        <time>2020-06-20T08:38:04Z</time>
      </trkpt>
      <trkpt lat="47.16871" lon="-1.66744">
        <ele>14.31</ele>
        <time>2020-06-20T08:38:06Z</time>
      </trkpt>
      <trkpt lat="47.16864" lon="-1.6676">
        <ele>13.11</ele>
        <time>2020-06-20T08:38:08Z</time>
      </trkpt>
      <trkpt lat="47.16856" lon="-1.66775">
        <ele>12.7</ele>
        <time>2020-06-20T08:38:10Z</time>
      </trkpt>
      <trkpt lat="47.16849" lon="-1.66789">
        <ele>11.79</ele>
        <time>2020-06-20T08:38:12Z</time>
      </trkpt>
      <trkpt lat="47.16839" lon="-1.66804">
        <ele>11.54</ele>
        <time>2020-06-20T08:38:14Z</time>
      </trkpt>
      <trkpt lat="47.1683" lon="-1.66819">
        <ele>11.23</ele>
        <time>2020-06-20T08:38:16Z</time>
      </trkpt>
      <trkpt lat="47.16822" lon="-1.66835">
        <ele>12.51</ele>
        <time>2020-06-20T08:38:18Z</time>
      </trkpt>
      <trkpt lat="47.16814" lon="-1.66851">
        <ele>15.71</ele>
        <time>2020-06-20T08:38:20Z</time>
      </trkpt>
      <trkpt lat="47.16807" lon="-1.66866">
        <ele>18.41</ele>
        <time>2020-06-20T08:38:22Z</time>
      </trkpt>
      <trkpt lat="47.16798" lon="-1.66878">
        <ele>18.71</ele>
        <time>2020-06-20T08:38:24Z</time>
      </trkpt>
      <trkpt lat="47.16788" lon="-1.66886">
        <ele>17.03</ele>
        <time>2020-06-20T08:38:26Z</time>
      </trkpt>
      <trkpt lat="47.16774" lon="-1.669">
        <ele>15.92</ele>
        <time>2020-06-20T08:38:29Z</time>
      </trkpt>
      <trkpt lat="47.16762" lon="-1.6691">
        <ele>15.24</ele>
        <time>2020-06-20T08:38:31Z</time>
      </trkpt>
      <trkpt lat="47.16749" lon="-1.66918">
        <ele>14.44</ele>
        <time>2020-06-20T08:38:33Z</time>
      </trkpt>
      <trkpt lat="47.16736" lon="-1.66924">
        <ele>16.02</ele>
        <time>2020-06-20T08:38:35Z</time>
      </trkpt>
      <trkpt lat="47.16726" lon="-1.66928">
        <ele>18.76</ele>
        <time>2020-06-20T08:38:37Z</time>
      </trkpt>
      <trkpt lat="47.16714" lon="-1.66933">
        <ele>20.87</ele>
        <time>2020-06-20T08:38:39Z</time>
      </trkpt>
      <trkpt lat="47.16703" lon="-1.66937">
        <ele>20.56</ele>
        <time>2020-06-20T08:38:41Z</time>
      </trkpt>
      <trkpt lat="47.16691" lon="-1.66944">
        <ele>18.21</ele>
        <time>2020-06-20T08:38:43Z</time>
      </trkpt>
      <trkpt lat="47.16678" lon="-1.66955">
        <ele>15.49</ele>
        <time>2020-06-20T08:38:45Z</time>
      </trkpt>
      <trkpt lat="47.16669" lon="-1.66968">
        <ele>12.19</ele>
        <time>2020-06-20T08:38:47Z</time>
      </trkpt>
      <trkpt lat="47.16661" lon="-1.66984">
        <ele>10.04</ele>
        <time>2020-06-20T08:38:49Z</time>
      </trkpt>
      <trkpt lat="47.16656" lon="-1.67">
        <ele>8.15</ele>
        <time>2020-06-20T08:38:51Z</time>
      </trkpt>
      <trkpt lat="47.16652" lon="-1.67021">
        <ele>6.61</ele>
        <time>2020-06-20T08:38:54Z</time>
      </trkpt>
      <trkpt lat="47.1665" lon="-1.67037">
        <ele>5.96</ele>
        <time>2020-06-20T08:38:56Z</time>
      </trkpt>
      <trkpt lat="47.16647" lon="-1.67056">
        <ele>7.21</ele>
        <time>2020-06-20T08:38:58Z</time>
      </trkpt>
      <trkpt lat="47.16644" lon="-1.67075">
        <ele>9.06</ele>
        <time>2020-06-20T08:39:00Z</time>
      </trkpt>
      <trkpt lat="47.1664" lon="-1.67095">
        <ele>9.21</ele>
        <time>2020-06-20T08:39:02Z</time>
      </trkpt>
      <trkpt lat="47.16637" lon="-1.67113">
        <ele>9.2</ele>
        <time>2020-06-20T08:39:04Z</time>
      </trkpt>
      <trkpt lat="47.16633" lon="-1.67129">
        <ele>8.69</ele>
        <time>2020-06-20T08:39:06Z</time>
      </trkpt>
      <trkpt lat="47.16628" lon="-1.67149">
        <ele>9.52</ele>
        <time>2020-06-20T08:39:08Z</time>
      </trkpt>
      <trkpt lat="47.16624" lon="-1.67167">
        <ele>11.4</ele>
        <time>2020-06-20T08:39:10Z</time>
      </trkpt>
      <trkpt lat="47.16622" lon="-1.67186">
        <ele>12.46</ele>
        <time>2020-06-20T08:39:12Z</time>
      </trkpt>
      <trkpt lat="47.16618" lon="-1.67206">
        <ele>13.01</ele>
        <time>2020-06-20T08:39:14Z</time>
      </trkpt>
      <trkpt lat="47.16613" lon="-1.67226">
        <ele>13.3</ele>
        <time>2020-06-20T08:39:16Z</time>
      </trkpt>
      <trkpt lat="47.16609" lon="-1.67244">
        <ele>14.1</ele>
        <time>2020-06-20T08:39:18Z</time>
      </trkpt>
      <trkpt lat="47.16606" lon="-1.67258">
        <ele>13.22</ele>
        <time>2020-06-20T08:39:20Z</time>
      </trkpt>
      <trkpt lat="47.16603" lon="-1.67271">
        <ele>14.55</ele>
        <time>2020-06-20T08:39:22Z</time>
      </trkpt>
      <trkpt lat="47.16596" lon="-1.67288">
        <ele>17.02</ele>
        <time>2020-06-20T08:39:24Z</time>
      </trkpt>
      <trkpt lat="47.16589" lon="-1.67304">
        <ele>18.68</ele>
        <time>2020-06-20T08:39:26Z</time>
      </trkpt>
      <trkpt lat="47.16583" lon="-1.67317">
        <ele>20.19</ele>
        <time>2020-06-20T08:39:28Z</time>
      </trkpt>
      <trkpt lat="47.16578" lon="-1.67331">
        <ele>20.99</ele>
        <time>2020-06-20T08:39:30Z</time>
      </trkpt>
      <trkpt lat="47.16571" lon="-1.67346">
        <ele>22.5</ele>
        <time>2020-06-20T08:39:32Z</time>
      </trkpt>
      <trkpt lat="47.16566" lon="-1.67359">
        <ele>24.95</ele>
        <time>2020-06-20T08:39:34Z</time>
      </trkpt>
      <trkpt lat="47.16558" lon="-1.67374">
        <ele>26.8</ele>
        <time>2020-06-20T08:39:36Z</time>
      </trkpt>
      <trkpt lat="47.16551" lon="-1.67387">
        <ele>28.3</ele>
        <time>2020-06-20T08:39:38Z</time>
      </trkpt>
      <trkpt lat="47.16543" lon="-1.67399">
        <ele>28.57</ele>
        <time>2020-06-20T08:39:40Z</time>
      </trkpt>
      <trkpt lat="47.16536" lon="-1.6741">
        <ele>29.33</ele>
        <time>2020-06-20T08:39:42Z</time>
      </trkpt>
      <trkpt lat="47.16527" lon="-1.67424">
        <ele>29.44</ele>
        <time>2020-06-20T08:39:44Z</time>
      </trkpt>
      <trkpt lat="47.16519" lon="-1.67438">
        <ele>28.6</ele>
        <time>2020-06-20T08:39:46Z</time>
      </trkpt>
      <trkpt lat="47.1651" lon="-1.67454">
        <ele>26.23</ele>
        <time>2020-06-20T08:39:48Z</time>
      </trkpt>
      <trkpt lat="47.16502" lon="-1.67468">
        <ele>25.13</ele>
        <time>2020-06-20T08:39:50Z</time>
      </trkpt>
      <trkpt lat="47.16493" lon="-1.67483">
        <ele>24.43</ele>
        <time>2020-06-20T08:39:52Z</time>
      </trkpt>
      <trkpt lat="47.16484" lon="-1.67498">
        <ele>24.24</ele>
        <time>2020-06-20T08:39:54Z</time>
      </trkpt>
      <trkpt lat="47.16475" lon="-1.67512">
        <ele>22.62</ele>
        <time>2020-06-20T08:39:56Z</time>
      </trkpt>
      <trkpt lat="47.16468" lon="-1.67524">
        <ele>20.43</ele>
        <time>2020-06-20T08:39:58Z</time>
      </trkpt>
      <trkpt lat="47.16459" lon="-1.6754">
        <ele>17.75</ele>
        <time>2020-06-20T08:40:01Z</time>
      </trkpt>
      <trkpt lat="47.16453" lon="-1.67552">
        <ele>16.34</ele>
        <time>2020-06-20T08:40:03Z</time>
      </trkpt>
      <trkpt lat="47.16447" lon="-1.67563">
        <ele>17.74</ele>
        <time>2020-06-20T08:40:05Z</time>
      </trkpt>
      <trkpt lat="47.1644" lon="-1.67577">
        <ele>19.79</ele>
        <time>2020-06-20T08:40:07Z</time>
      </trkpt>
      <trkpt lat="47.16432" lon="-1.67591">
        <ele>22.17</ele>
        <time>2020-06-20T08:40:09Z</time>
      </trkpt>
      <trkpt lat="47.16426" lon="-1.67605">
        <ele>22.41</ele>
        <time>2020-06-20T08:40:11Z</time>
      </trkpt>
      <trkpt lat="47.1642" lon="-1.67617">
        <ele>22.56</ele>
        <time>2020-06-20T08:40:13Z</time>
      </trkpt>
      <trkpt lat="47.16412" lon="-1.67635">
        <ele>22.27</ele>
        <time>2020-06-20T08:40:15Z</time>
      </trkpt>
      <trkpt lat="47.16404" lon="-1.6765">
        <ele>19.7</ele>
        <time>2020-06-20T08:40:17Z</time>
      </trkpt>
      <trkpt lat="47.16397" lon="-1.67662">
        <ele>18.55</ele>
        <time>2020-06-20T08:40:19Z</time>
      </trkpt>
      <trkpt lat="47.16391" lon="-1.67675">
        <ele>18.12</ele>
        <time>2020-06-20T08:40:21Z</time>
      </trkpt>
      <trkpt lat="47.16384" lon="-1.67688">
        <ele>18.59</ele>
        <time>2020-06-20T08:40:23Z</time>
      </trkpt>
      <trkpt lat="47.16376" lon="-1.67702">
        <ele>17.11</ele>
        <time>2020-06-20T08:40:25Z</time>
      </trkpt>
      <trkpt lat="47.16368" lon="-1.67717">
        <ele>14.95</ele>
        <time>2020-06-20T08:40:27Z</time>
      </trkpt>
      <trkpt lat="47.16361" lon="-1.6773">
        <ele>13.23</ele>
        <time>2020-06-20T08:40:29Z</time>
      </trkpt>
      <trkpt lat="47.16353" lon="-1.67742">
        <ele>12.72</ele>
        <time>2020-06-20T08:40:31Z</time>
      </trkpt>
      <trkpt lat="47.16345" lon="-1.67755">
        <ele>11.53</ele>
        <time>2020-06-20T08:40:33Z</time>
      </trkpt>
      <trkpt lat="47.16337" lon="-1.67769">
        <ele>10.58</ele>
        <time>2020-06-20T08:40:35Z</time>
      </trkpt>
      <trkpt lat="47.16331" lon="-1.67782">
        <ele>9.97</ele>
        <time>2020-06-20T08:40:37Z</time>
      </trkpt>
      <trkpt lat="47.16323" lon="-1.67795">
        <ele>10.36</ele>
        <time>2020-06-20T08:40:39Z</time>
      </trkpt>
      <trkpt lat="47.16315" lon="-1.67809">
        <ele>11.13</ele>
        <time>2020-06-20T08:40:41Z</time>
      </trkpt>
      <trkpt lat="47.16307" lon="-1.67822">
        <ele>11.99</ele>
        <time>2020-06-20T08:40:43Z</time>
      </trkpt>
      <trkpt lat="47.16298" lon="-1.67837">
        <ele>13.73</ele>
        <time>2020-06-20T08:40:45Z</time>
      </trkpt>
      <trkpt lat="47.16288" lon="-1.67854">
        <ele>13.77</ele>
        <time>2020-06-20T08:40:47Z</time>
      </trkpt>
      <trkpt lat="47.16279" lon="-1.67868">
        <ele>15.36</ele>
        <time>2020-06-20T08:40:49Z</time>
      </trkpt>
      <trkpt lat="47.16273" lon="-1.67879">
        <ele>16.17</ele>
        <time>2020-06-20T08:40:51Z</time>
      </trkpt>
      <trkpt lat="47.16268" lon="-1.67891">
        <ele>17.27</ele>
        <time>2020-06-20T08:40:53Z</time>
      </trkpt>
      <trkpt lat="47.1626" lon="-1.67905">
        <ele>16.87</ele>
        <time>2020-06-20T08:40:55Z</time>
      </trkpt>
      <trkpt lat="47.1625" lon="-1.6792">
        <ele>15.97</ele>
        <time>2020-06-20T08:40:57Z</time>
      </trkpt>
      <trkpt lat="47.16242" lon="-1.67934">
        <ele>14.75</ele>
        <time>2020-06-20T08:40:59Z</time>
      </trkpt>
      <trkpt lat="47.16233" lon="-1.67948">
        <ele>16.14</ele>
        <time>2020-06-20T08:41:01Z</time>
      </trkpt>
      <trkpt lat="47.16224" lon="-1.67962">
        <ele>16.5</ele>
        <time>2020-06-20T08:41:03Z</time>
      </trkpt>
      <trkpt lat="47.16217" lon="-1.67981">
        <ele>16.69</ele>
        <time>2020-06-20T08:41:05Z</time>
      </trkpt>
      <trkpt lat="47.16206" lon="-1.67989">
        <ele>17.09</ele>
        <time>2020-06-20T08:41:07Z</time>
      </trkpt>
      <trkpt lat="47.16197" lon="-1.67998">
        <ele>17.53</ele>
        <time>2020-06-20T08:41:09Z</time>
      </trkpt>
      <trkpt lat="47.1619" lon="-1.68012">
        <ele>18.11</ele>
        <time>2020-06-20T08:41:11Z</time>
      </trkpt>
      <trkpt lat="47.1618" lon="-1.68027">
        <ele>18</ele>
        <time>2020-06-20T08:41:13Z</time>
      </trkpt>
      <trkpt lat="47.16173" lon="-1.6804">
        <ele>17.54</ele>
        <time>2020-06-20T08:41:15Z</time>
      </trkpt>
      <trkpt lat="47.16166" lon="-1.68051">
        <ele>18.9</ele>
        <time>2020-06-20T08:41:17Z</time>
      </trkpt>
      <trkpt lat="47.16157" lon="-1.68063">
        <ele>20.31</ele>
        <time>2020-06-20T08:41:19Z</time>
      </trkpt>
      <trkpt lat="47.16149" lon="-1.68076">
        <ele>20.47</ele>
        <time>2020-06-20T08:41:21Z</time>
      </trkpt>
      <trkpt lat="47.16142" lon="-1.68091">
        <ele>20.19</ele>
        <time>2020-06-20T08:41:23Z</time>
      </trkpt>
      <trkpt lat="47.16137" lon="-1.68106">
        <ele>18.68</ele>
        <time>2020-06-20T08:41:25Z</time>
      </trkpt>
      <trkpt lat="47.16133" lon="-1.68121">
        <ele>18.81</ele>
        <time>2020-06-20T08:41:27Z</time>
      </trkpt>
      <trkpt lat="47.16129" lon="-1.68138">
        <ele>19.71</ele>
        <time>2020-06-20T08:41:29Z</time>
      </trkpt>
      <trkpt lat="47.16126" lon="-1.68154">
        <ele>21.02</ele>
        <time>2020-06-20T08:41:31Z</time>
      </trkpt>
      <trkpt lat="47.16122" lon="-1.68172">
        <ele>20.89</ele>
        <time>2020-06-20T08:41:33Z</time>
      </trkpt>
      <trkpt lat="47.16117" lon="-1.68188">
        <ele>20.59</ele>
        <time>2020-06-20T08:41:35Z</time>
      </trkpt>
      <trkpt lat="47.16112" lon="-1.68205">
        <ele>20.39</ele>
        <time>2020-06-20T08:41:37Z</time>
      </trkpt>
      <trkpt lat="47.16108" lon="-1.68221">
        <ele>21.11</ele>
        <time>2020-06-20T08:41:39Z</time>
      </trkpt>
      <trkpt lat="47.16104" lon="-1.68235">
        <ele>21.4</ele>
        <time>2020-06-20T08:41:41Z</time>
      </trkpt>
      <trkpt lat="47.16099" lon="-1.68249">
        <ele>20.28</ele>
        <time>2020-06-20T08:41:43Z</time>
      </trkpt>
      <trkpt lat="47.16094" lon="-1.68266">
        <ele>18.15</ele>
        <time>2020-06-20T08:41:45Z</time>
      </trkpt>
      <trkpt lat="47.16091" lon="-1.68287">
        <ele>16.49</ele>
        <time>2020-06-20T08:41:47Z</time>
      </trkpt>
      <trkpt lat="47.16089" lon="-1.68309">
        <ele>15.49</ele>
        <time>2020-06-20T08:41:49Z</time>
      </trkpt>
      <trkpt lat="47.16088" lon="-1.68328">
        <ele>13.82</ele>
        <time>2020-06-20T08:41:51Z</time>
      </trkpt>
      <trkpt lat="47.16085" lon="-1.68343">
        <ele>12.07</ele>
        <time>2020-06-20T08:41:53Z</time>
      </trkpt>
      <trkpt lat="47.16083" lon="-1.68362">
        <ele>11.03</ele>
        <time>2020-06-20T08:41:56Z</time>
      </trkpt>
      <trkpt lat="47.1608" lon="-1.68381">
        <ele>9.85</ele>
        <time>2020-06-20T08:41:58Z</time>
      </trkpt>
      <trkpt lat="47.16077" lon="-1.68401">
        <ele>9.34</ele>
        <time>2020-06-20T08:42:00Z</time>
      </trkpt>
      <trkpt lat="47.16074" lon="-1.68417">
        <ele>10</ele>
        <time>2020-06-20T08:42:02Z</time>
      </trkpt>
      <trkpt lat="47.16072" lon="-1.68435">
        <ele>10.98</ele>
        <time>2020-06-20T08:42:04Z</time>
      </trkpt>
      <trkpt lat="47.16068" lon="-1.68453">
        <ele>11.82</ele>
        <time>2020-06-20T08:42:06Z</time>
      </trkpt>
      <trkpt lat="47.16065" lon="-1.68472">
        <ele>12.91</ele>
        <time>2020-06-20T08:42:08Z</time>
      </trkpt>
      <trkpt lat="47.16061" lon="-1.68491">
        <ele>13.48</ele>
        <time>2020-06-20T08:42:10Z</time>
      </trkpt>
      <trkpt lat="47.16058" lon="-1.68511">
        <ele>13.19</ele>
        <time>2020-06-20T08:42:12Z</time>
      </trkpt>
      <trkpt lat="47.16056" lon="-1.68528">
        <ele>12.84</ele>
        <time>2020-06-20T08:42:14Z</time>
      </trkpt>
      <trkpt lat="47.16053" lon="-1.68546">
        <ele>13.39</ele>
        <time>2020-06-20T08:42:16Z</time>
      </trkpt>
      <trkpt lat="47.1605" lon="-1.68563">
        <ele>15.35</ele>
        <time>2020-06-20T08:42:18Z</time>
      </trkpt>
      <trkpt lat="47.16048" lon="-1.68578">
        <ele>16.23</ele>
        <time>2020-06-20T08:42:20Z</time>
      </trkpt>
      <trkpt lat="47.16046" lon="-1.68596">
        <ele>16.02</ele>
        <time>2020-06-20T08:42:22Z</time>
      </trkpt>
      <trkpt lat="47.16044" lon="-1.68613">
        <ele>15.15</ele>
        <time>2020-06-20T08:42:24Z</time>
      </trkpt>
      <trkpt lat="47.16042" lon="-1.68629">
        <ele>15.08</ele>
        <time>2020-06-20T08:42:26Z</time>
      </trkpt>
      <trkpt lat="47.16041" lon="-1.68646">
        <ele>14.48</ele>
        <time>2020-06-20T08:42:28Z</time>
      </trkpt>
      <trkpt lat="47.1604" lon="-1.68663">
        <ele>14.53</ele>
        <time>2020-06-20T08:42:30Z</time>
      </trkpt>
      <trkpt lat="47.1604" lon="-1.6868">
        <ele>13.41</ele>
        <time>2020-06-20T08:42:32Z</time>
      </trkpt>
      <trkpt lat="47.16041" lon="-1.68698">
        <ele>15.04</ele>
        <time>2020-06-20T08:42:34Z</time>
      </trkpt>
      <trkpt lat="47.16043" lon="-1.68713">
        <ele>17.99</ele>
        <time>2020-06-20T08:42:36Z</time>
      </trkpt>
      <trkpt lat="47.16045" lon="-1.68727">
        <ele>21.52</ele>
        <time>2020-06-20T08:42:38Z</time>
      </trkpt>
      <trkpt lat="47.16049" lon="-1.68741">
        <ele>24.02</ele>
        <time>2020-06-20T08:42:40Z</time>
      </trkpt>
      <trkpt lat="47.16053" lon="-1.6876">
        <ele>26.75</ele>
        <time>2020-06-20T08:42:43Z</time>
      </trkpt>
      <trkpt lat="47.16057" lon="-1.68778">
        <ele>25.33</ele>
        <time>2020-06-20T08:42:46Z</time>
      </trkpt>
      <trkpt lat="47.1606" lon="-1.68794">
        <ele>24.67</ele>
        <time>2020-06-20T08:42:48Z</time>
      </trkpt>
      <trkpt lat="47.16063" lon="-1.68807">
        <ele>23.66</ele>
        <time>2020-06-20T08:42:50Z</time>
      </trkpt>
      <trkpt lat="47.16067" lon="-1.6882">
        <ele>21.69</ele>
        <time>2020-06-20T08:42:52Z</time>
      </trkpt>
      <trkpt lat="47.16071" lon="-1.68832">
        <ele>21.5</ele>
        <time>2020-06-20T08:42:54Z</time>
      </trkpt>
      <trkpt lat="47.16075" lon="-1.68845">
        <ele>20.51</ele>
        <time>2020-06-20T08:42:56Z</time>
      </trkpt>
      <trkpt lat="47.1608" lon="-1.68863">
        <ele>19.68</ele>
        <time>2020-06-20T08:42:58Z</time>
      </trkpt>
      <trkpt lat="47.16084" lon="-1.68879">
        <ele>18.73</ele>
        <time>2020-06-20T08:43:00Z</time>
      </trkpt>
      <trkpt lat="47.16089" lon="-1.68893">
        <ele>18.24</ele>
        <time>2020-06-20T08:43:02Z</time>
      </trkpt>
      <trkpt lat="47.16094" lon="-1.68909">
        <ele>17.95</ele>
        <time>2020-06-20T08:43:04Z</time>
      </trkpt>
      <trkpt lat="47.16099" lon="-1.68925">
        <ele>17.38</ele>
        <time>2020-06-20T08:43:06Z</time>
      </trkpt>
      <trkpt lat="47.16103" lon="-1.68942">
        <ele>18.72</ele>
        <time>2020-06-20T08:43:08Z</time>
      </trkpt>
      <trkpt lat="47.16109" lon="-1.6896">
        <ele>18.01</ele>
        <time>2020-06-20T08:43:10Z</time>
      </trkpt>
      <trkpt lat="47.16113" lon="-1.68978">
        <ele>17.21</ele>
        <time>2020-06-20T08:43:12Z</time>
      </trkpt>
      <trkpt lat="47.16118" lon="-1.68995">
        <ele>18.18</ele>
        <time>2020-06-20T08:43:14Z</time>
      </trkpt>
      <trkpt lat="47.16124" lon="-1.69013">
        <ele>20.04</ele>
        <time>2020-06-20T08:43:16Z</time>
      </trkpt>
      <trkpt lat="47.16128" lon="-1.69031">
        <ele>21.42</ele>
        <time>2020-06-20T08:43:18Z</time>
      </trkpt>
      <trkpt lat="47.16132" lon="-1.69048">
        <ele>22.58</ele>
        <time>2020-06-20T08:43:20Z</time>
      </trkpt>
      <trkpt lat="47.16135" lon="-1.69067">
        <ele>22.48</ele>
        <time>2020-06-20T08:43:22Z</time>
      </trkpt>
      <trkpt lat="47.16138" lon="-1.69086">
        <ele>22.28</ele>
        <time>2020-06-20T08:43:24Z</time>
      </trkpt>
      <trkpt lat="47.16139" lon="-1.69105">
        <ele>21.59</ele>
        <time>2020-06-20T08:43:26Z</time>
      </trkpt>
      <trkpt lat="47.16141" lon="-1.69125">
        <ele>20.88</ele>
        <time>2020-06-20T08:43:28Z</time>
      </trkpt>
      <trkpt lat="47.16141" lon="-1.69145">
        <ele>20.01</ele>
        <time>2020-06-20T08:43:30Z</time>
      </trkpt>
      <trkpt lat="47.16141" lon="-1.69165">
        <ele>18.86</ele>
        <time>2020-06-20T08:43:32Z</time>
      </trkpt>
      <trkpt lat="47.16141" lon="-1.69185">
        <ele>18.28</ele>
        <time>2020-06-20T08:43:34Z</time>
      </trkpt>
      <trkpt lat="47.16139" lon="-1.69206">
        <ele>18.44</ele>
        <time>2020-06-20T08:43:36Z</time>
      </trkpt>
      <trkpt lat="47.16138" lon="-1.69226">
        <ele>18.23</ele>
        <time>2020-06-20T08:43:38Z</time>
      </trkpt>
      <trkpt lat="47.16137" lon="-1.69245">
        <ele>18.57</ele>
        <time>2020-06-20T08:43:40Z</time>
      </trkpt>
      <trkpt lat="47.16134" lon="-1.69263">
        <ele>17.52</ele>
        <time>2020-06-20T08:43:42Z</time>
      </trkpt>
      <trkpt lat="47.16131" lon="-1.69281">
        <ele>15.58</ele>
        <time>2020-06-20T08:43:44Z</time>
      </trkpt>
      <trkpt lat="47.16129" lon="-1.693">
        <ele>13.65</ele>
        <time>2020-06-20T08:43:46Z</time>
      </trkpt>
      <trkpt lat="47.16127" lon="-1.69317">
        <ele>11.44</ele>
        <time>2020-06-20T08:43:48Z</time>
      </trkpt>
      <trkpt lat="47.16123" lon="-1.69336">
        <ele>9.53</ele>
        <time>2020-06-20T08:43:50Z</time>
      </trkpt>
      <trkpt lat="47.1612" lon="-1.69353">
        <ele>8.87</ele>
        <time>2020-06-20T08:43:52Z</time>
      </trkpt>
      <trkpt lat="47.16119" lon="-1.69366">
        <ele>9.26</ele>
        <time>2020-06-20T08:43:54Z</time>
      </trkpt>
      <trkpt lat="47.16116" lon="-1.69387">
        <ele>12.45</ele>
        <time>2020-06-20T08:43:57Z</time>
      </trkpt>
      <trkpt lat="47.16115" lon="-1.69405">
        <ele>12.72</ele>
        <time>2020-06-20T08:43:59Z</time>
      </trkpt>
      <trkpt lat="47.16113" lon="-1.6942">
        <ele>12.65</ele>
        <time>2020-06-20T08:44:01Z</time>
      </trkpt>
      <trkpt lat="47.16112" lon="-1.69437">
        <ele>12.36</ele>
        <time>2020-06-20T08:44:03Z</time>
      </trkpt>
      <trkpt lat="47.1611" lon="-1.69452">
        <ele>11.48</ele>
        <time>2020-06-20T08:44:05Z</time>
      </trkpt>
      <trkpt lat="47.16108" lon="-1.69469">
        <ele>10.64</ele>
        <time>2020-06-20T08:44:07Z</time>
      </trkpt>
      <trkpt lat="47.16107" lon="-1.69484">
        <ele>9.26</ele>
        <time>2020-06-20T08:44:09Z</time>
      </trkpt>
      <trkpt lat="47.16105" lon="-1.69501">
        <ele>7.52</ele>
        <time>2020-06-20T08:44:11Z</time>
      </trkpt>
      <trkpt lat="47.16104" lon="-1.69515">
        <ele>8</ele>
        <time>2020-06-20T08:44:13Z</time>
      </trkpt>
      <trkpt lat="47.16103" lon="-1.69531">
        <ele>10.78</ele>
        <time>2020-06-20T08:44:15Z</time>
      </trkpt>
      <trkpt lat="47.16104" lon="-1.69547">
        <ele>13.19</ele>
        <time>2020-06-20T08:44:17Z</time>
      </trkpt>
      <trkpt lat="47.16103" lon="-1.69564">
        <ele>13.42</ele>
        <time>2020-06-20T08:44:19Z</time>
      </trkpt>
      <trkpt lat="47.16102" lon="-1.6958">
        <ele>15</ele>
        <time>2020-06-20T08:44:21Z</time>
      </trkpt>
      <trkpt lat="47.161" lon="-1.69599">
        <ele>14.94</ele>
        <time>2020-06-20T08:44:24Z</time>
      </trkpt>
      <trkpt lat="47.16098" lon="-1.69612">
        <ele>14.43</ele>
        <time>2020-06-20T08:44:26Z</time>
      </trkpt>
      <trkpt lat="47.16096" lon="-1.69628">
        <ele>15.23</ele>
        <time>2020-06-20T08:44:28Z</time>
      </trkpt>
      <trkpt lat="47.16094" lon="-1.69643">
        <ele>14.88</ele>
        <time>2020-06-20T08:44:30Z</time>
      </trkpt>
      <trkpt lat="47.16092" lon="-1.6966">
        <ele>14.96</ele>
        <time>2020-06-20T08:44:32Z</time>
      </trkpt>
      <trkpt lat="47.16092" lon="-1.69674">
        <ele>15.42</ele>
        <time>2020-06-20T08:44:34Z</time>
      </trkpt>
      <trkpt lat="47.1609" lon="-1.69692">
        <ele>15.31</ele>
        <time>2020-06-20T08:44:36Z</time>
      </trkpt>
      <trkpt lat="47.16088" lon="-1.69707">
        <ele>15.1</ele>
        <time>2020-06-20T08:44:38Z</time>
      </trkpt>
      <trkpt lat="47.16088" lon="-1.69723">
        <ele>15.04</ele>
        <time>2020-06-20T08:44:40Z</time>
      </trkpt>
      <trkpt lat="47.16087" lon="-1.69739">
        <ele>15.21</ele>
        <time>2020-06-20T08:44:42Z</time>
      </trkpt>
      <trkpt lat="47.16086" lon="-1.69754">
        <ele>13.93</ele>
        <time>2020-06-20T08:44:44Z</time>
      </trkpt>
      <trkpt lat="47.16084" lon="-1.69769">
        <ele>13.2</ele>
        <time>2020-06-20T08:44:46Z</time>
      </trkpt>
      <trkpt lat="47.16083" lon="-1.69783">
        <ele>12.5</ele>
        <time>2020-06-20T08:44:48Z</time>
      </trkpt>
      <trkpt lat="47.16083" lon="-1.698">
        <ele>11.65</ele>
        <time>2020-06-20T08:44:50Z</time>
      </trkpt>
      <trkpt lat="47.16083" lon="-1.69821">
        <ele>12.67</ele>
        <time>2020-06-20T08:44:53Z</time>
      </trkpt>
      <trkpt lat="47.16081" lon="-1.69839">
        <ele>13.2</ele>
        <time>2020-06-20T08:44:55Z</time>
      </trkpt>
      <trkpt lat="47.16078" lon="-1.69854">
        <ele>13.69</ele>
        <time>2020-06-20T08:44:57Z</time>
      </trkpt>
      <trkpt lat="47.16072" lon="-1.69873">
        <ele>14.39</ele>
        <time>2020-06-20T08:44:59Z</time>
      </trkpt>
      <trkpt lat="47.1607" lon="-1.69893">
        <ele>16.09</ele>
        <time>2020-06-20T08:45:02Z</time>
      </trkpt>
      <trkpt lat="47.16069" lon="-1.6991">
        <ele>16.22</ele>
        <time>2020-06-20T08:45:04Z</time>
      </trkpt>
      <trkpt lat="47.1607" lon="-1.69932">
        <ele>16.43</ele>
        <time>2020-06-20T08:45:06Z</time>
      </trkpt>
      <trkpt lat="47.1607" lon="-1.69948">
        <ele>17.47</ele>
        <time>2020-06-20T08:45:08Z</time>
      </trkpt>
      <trkpt lat="47.16069" lon="-1.6997">
        <ele>18.04</ele>
        <time>2020-06-20T08:45:10Z</time>
      </trkpt>
      <trkpt lat="47.16067" lon="-1.69986">
        <ele>18.98</ele>
        <time>2020-06-20T08:45:12Z</time>
      </trkpt>
      <trkpt lat="47.16065" lon="-1.70002">
        <ele>19.79</ele>
        <time>2020-06-20T08:45:14Z</time>
      </trkpt>
      <trkpt lat="47.16064" lon="-1.70018">
        <ele>20.93</ele>
        <time>2020-06-20T08:45:16Z</time>
      </trkpt>
      <trkpt lat="47.16065" lon="-1.70036">
        <ele>20.95</ele>
        <time>2020-06-20T08:45:18Z</time>
      </trkpt>
      <trkpt lat="47.16065" lon="-1.70054">
        <ele>20.53</ele>
        <time>2020-06-20T08:45:20Z</time>
      </trkpt>
      <trkpt lat="47.16061" lon="-1.70072">
        <ele>19.76</ele>
        <time>2020-06-20T08:45:22Z</time>
      </trkpt>
      <trkpt lat="47.16059" lon="-1.70089">
        <ele>17.97</ele>
        <time>2020-06-20T08:45:24Z</time>
      </trkpt>
      <trkpt lat="47.16058" lon="-1.70107">
        <ele>16.83</ele>
        <time>2020-06-20T08:45:26Z</time>
      </trkpt>
      <trkpt lat="47.16056" lon="-1.70121">
        <ele>16.61</ele>
        <time>2020-06-20T08:45:28Z</time>
      </trkpt>
      <trkpt lat="47.16053" lon="-1.70138">
        <ele>15.96</ele>
        <time>2020-06-20T08:45:30Z</time>
      </trkpt>
      <trkpt lat="47.16048" lon="-1.70152">
        <ele>15.05</ele>
        <time>2020-06-20T08:45:32Z</time>
      </trkpt>
      <trkpt lat="47.16043" lon="-1.70167">
        <ele>14.31</ele>
        <time>2020-06-20T08:45:34Z</time>
      </trkpt>
      <trkpt lat="47.16037" lon="-1.70183">
        <ele>14.12</ele>
        <time>2020-06-20T08:45:36Z</time>
      </trkpt>
      <trkpt lat="47.16031" lon="-1.70196">
        <ele>14.41</ele>
        <time>2020-06-20T08:45:38Z</time>
      </trkpt>
      <trkpt lat="47.16024" lon="-1.70212">
        <ele>14.39</ele>
        <time>2020-06-20T08:45:40Z</time>
      </trkpt>
      <trkpt lat="47.16018" lon="-1.70228">
        <ele>13.77</ele>
        <time>2020-06-20T08:45:42Z</time>
      </trkpt>
      <trkpt lat="47.1601" lon="-1.70242">
        <ele>14.04</ele>
        <time>2020-06-20T08:45:44Z</time>
      </trkpt>
      <trkpt lat="47.16004" lon="-1.70255">
        <ele>14.84</ele>
        <time>2020-06-20T08:45:46Z</time>
      </trkpt>
      <trkpt lat="47.15998" lon="-1.7027">
        <ele>15.46</ele>
        <time>2020-06-20T08:45:48Z</time>
      </trkpt>
      <trkpt lat="47.15991" lon="-1.70284">
        <ele>16.89</ele>
        <time>2020-06-20T08:45:50Z</time>
      </trkpt>
      <trkpt lat="47.15985" lon="-1.703">
        <ele>18.19</ele>
        <time>2020-06-20T08:45:52Z</time>
      </trkpt>
      <trkpt lat="47.1598" lon="-1.70314">
        <ele>19.47</ele>
        <time>2020-06-20T08:45:54Z</time>
      </trkpt>
      <trkpt lat="47.15974" lon="-1.7033">
        <ele>19.18</ele>
        <time>2020-06-20T08:45:56Z</time>
      </trkpt>
      <trkpt lat="47.15966" lon="-1.70346">
        <ele>18.46</ele>
        <time>2020-06-20T08:45:58Z</time>
      </trkpt>
      <trkpt lat="47.15961" lon="-1.70359">
        <ele>18.65</ele>
        <time>2020-06-20T08:46:00Z</time>
      </trkpt>
      <trkpt lat="47.15953" lon="-1.70376">
        <ele>18.17</ele>
        <time>2020-06-20T08:46:02Z</time>
      </trkpt>
      <trkpt lat="47.15947" lon="-1.7039">
        <ele>19.52</ele>
        <time>2020-06-20T08:46:04Z</time>
      </trkpt>
      <trkpt lat="47.1594" lon="-1.70407">
        <ele>21.55</ele>
        <time>2020-06-20T08:46:06Z</time>
      </trkpt>
      <trkpt lat="47.15934" lon="-1.70421">
        <ele>22.3</ele>
        <time>2020-06-20T08:46:08Z</time>
      </trkpt>
      <trkpt lat="47.15927" lon="-1.70437">
        <ele>20.32</ele>
        <time>2020-06-20T08:46:10Z</time>
      </trkpt>
      <trkpt lat="47.1592" lon="-1.70454">
        <ele>17.43</ele>
        <time>2020-06-20T08:46:12Z</time>
      </trkpt>
      <trkpt lat="47.15914" lon="-1.7047">
        <ele>14.28</ele>
        <time>2020-06-20T08:46:14Z</time>
      </trkpt>
      <trkpt lat="47.15907" lon="-1.70486">
        <ele>13.32</ele>
        <time>2020-06-20T08:46:16Z</time>
      </trkpt>
      <trkpt lat="47.159" lon="-1.705">
        <ele>14.03</ele>
        <time>2020-06-20T08:46:18Z</time>
      </trkpt>
      <trkpt lat="47.15893" lon="-1.70517">
        <ele>12.96</ele>
        <time>2020-06-20T08:46:20Z</time>
      </trkpt>
      <trkpt lat="47.15889" lon="-1.70531">
        <ele>12.57</ele>
        <time>2020-06-20T08:46:22Z</time>
      </trkpt>
      <trkpt lat="47.15884" lon="-1.70545">
        <ele>14.42</ele>
        <time>2020-06-20T08:46:24Z</time>
      </trkpt>
      <trkpt lat="47.15881" lon="-1.7056">
        <ele>14.96</ele>
        <time>2020-06-20T08:46:26Z</time>
      </trkpt>
      <trkpt lat="47.15876" lon="-1.70579">
        <ele>15.01</ele>
        <time>2020-06-20T08:46:28Z</time>
      </trkpt>
      <trkpt lat="47.15872" lon="-1.70594">
        <ele>14.66</ele>
        <time>2020-06-20T08:46:30Z</time>
      </trkpt>
      <trkpt lat="47.15868" lon="-1.70606">
        <ele>14.77</ele>
        <time>2020-06-20T08:46:32Z</time>
      </trkpt>
      <trkpt lat="47.15864" lon="-1.70621">
        <ele>14.87</ele>
        <time>2020-06-20T08:46:34Z</time>
      </trkpt>
      <trkpt lat="47.1586" lon="-1.70636">
        <ele>14.99</ele>
        <time>2020-06-20T08:46:36Z</time>
      </trkpt>
      <trkpt lat="47.15854" lon="-1.70653">
        <ele>13.96</ele>
        <time>2020-06-20T08:46:38Z</time>
      </trkpt>
      <trkpt lat="47.15848" lon="-1.70666">
        <ele>12.08</ele>
        <time>2020-06-20T08:46:40Z</time>
      </trkpt>
      <trkpt lat="47.15843" lon="-1.7068">
        <ele>11.11</ele>
        <time>2020-06-20T08:46:42Z</time>
      </trkpt>
      <trkpt lat="47.15837" lon="-1.70691">
        <ele>11.96</ele>
        <time>2020-06-20T08:46:44Z</time>
      </trkpt>
      <trkpt lat="47.1583" lon="-1.70706">
        <ele>12.71</ele>
        <time>2020-06-20T08:46:46Z</time>
      </trkpt>
      <trkpt lat="47.15824" lon="-1.70718">
        <ele>13.46</ele>
        <time>2020-06-20T08:46:48Z</time>
      </trkpt>
      <trkpt lat="47.15819" lon="-1.7073">
        <ele>16.27</ele>
        <time>2020-06-20T08:46:50Z</time>
      </trkpt>
      <trkpt lat="47.15813" lon="-1.70744">
        <ele>17.61</ele>
        <time>2020-06-20T08:46:52Z</time>
      </trkpt>
      <trkpt lat="47.15806" lon="-1.70761">
        <ele>17.87</ele>
        <time>2020-06-20T08:46:54Z</time>
      </trkpt>
      <trkpt lat="47.15801" lon="-1.70773">
        <ele>16.93</ele>
        <time>2020-06-20T08:46:56Z</time>
      </trkpt>
      <trkpt lat="47.15795" lon="-1.70786">
        <ele>15.87</ele>
        <time>2020-06-20T08:46:58Z</time>
      </trkpt>
      <trkpt lat="47.15788" lon="-1.70799">
        <ele>15.75</ele>
        <time>2020-06-20T08:47:00Z</time>
      </trkpt>
      <trkpt lat="47.15781" lon="-1.70814">
        <ele>16.86</ele>
        <time>2020-06-20T08:47:02Z</time>
      </trkpt>
      <trkpt lat="47.15776" lon="-1.70825">
        <ele>17.02</ele>
        <time>2020-06-20T08:47:04Z</time>
      </trkpt>
      <trkpt lat="47.15768" lon="-1.70838">
        <ele>16.68</ele>
        <time>2020-06-20T08:47:06Z</time>
      </trkpt>
      <trkpt lat="47.15761" lon="-1.70852">
        <ele>15.89</ele>
        <time>2020-06-20T08:47:08Z</time>
      </trkpt>
      <trkpt lat="47.15754" lon="-1.70865">
        <ele>16.9</ele>
        <time>2020-06-20T08:47:10Z</time>
      </trkpt>
      <trkpt lat="47.15748" lon="-1.70878">
        <ele>17.91</ele>
        <time>2020-06-20T08:47:12Z</time>
      </trkpt>
      <trkpt lat="47.15741" lon="-1.70889">
        <ele>17.84</ele>
        <time>2020-06-20T08:47:14Z</time>
      </trkpt>
      <trkpt lat="47.15734" lon="-1.70901">
        <ele>18.18</ele>
        <time>2020-06-20T08:47:16Z</time>
      </trkpt>
      <trkpt lat="47.15726" lon="-1.70917">
        <ele>17.61</ele>
        <time>2020-06-20T08:47:18Z</time>
      </trkpt>
      <trkpt lat="47.1572" lon="-1.70928">
        <ele>18.51</ele>
        <time>2020-06-20T08:47:20Z</time>
      </trkpt>
      <trkpt lat="47.15713" lon="-1.70941">
        <ele>20.49</ele>
        <time>2020-06-20T08:47:22Z</time>
      </trkpt>
      <trkpt lat="47.15707" lon="-1.70955">
        <ele>20.54</ele>
        <time>2020-06-20T08:47:24Z</time>
      </trkpt>
      <trkpt lat="47.15699" lon="-1.70971">
        <ele>19.72</ele>
        <time>2020-06-20T08:47:26Z</time>
      </trkpt>
      <trkpt lat="47.15693" lon="-1.70981">
        <ele>20.16</ele>
        <time>2020-06-20T08:47:28Z</time>
      </trkpt>
      <trkpt lat="47.15685" lon="-1.70998">
        <ele>19.83</ele>
        <time>2020-06-20T08:47:30Z</time>
      </trkpt>
      <trkpt lat="47.15679" lon="-1.71012">
        <ele>18.03</ele>
        <time>2020-06-20T08:47:32Z</time>
      </trkpt>
      <trkpt lat="47.15672" lon="-1.71025">
        <ele>17.84</ele>
        <time>2020-06-20T08:47:34Z</time>
      </trkpt>
      <trkpt lat="47.15666" lon="-1.71038">
        <ele>16.46</ele>
        <time>2020-06-20T08:47:36Z</time>
      </trkpt>
      <trkpt lat="47.15661" lon="-1.71051">
        <ele>17.41</ele>
        <time>2020-06-20T08:47:39Z</time>
      </trkpt>
      <trkpt lat="47.15656" lon="-1.71063">
        <ele>17.98</ele>
        <time>2020-06-20T08:47:42Z</time>
      </trkpt>
      <trkpt lat="47.15646" lon="-1.71071">
        <ele>18.18</ele>
        <time>2020-06-20T08:47:46Z</time>
      </trkpt>
      <trkpt lat="47.15636" lon="-1.7108">
        <ele>18.67</ele>
        <time>2020-06-20T08:47:48Z</time>
      </trkpt>
      <trkpt lat="47.15627" lon="-1.71091">
        <ele>17.72</ele>
        <time>2020-06-20T08:47:50Z</time>
      </trkpt>
      <trkpt lat="47.15619" lon="-1.71106">
        <ele>17.31</ele>
        <time>2020-06-20T08:47:52Z</time>
      </trkpt>
      <trkpt lat="47.15611" lon="-1.71118">
        <ele>16.25</ele>
        <time>2020-06-20T08:47:54Z</time>
      </trkpt>
      <trkpt lat="47.15603" lon="-1.71133">
        <ele>15.15</ele>
        <time>2020-06-20T08:47:56Z</time>
      </trkpt>
      <trkpt lat="47.15594" lon="-1.71149">
        <ele>14.93</ele>
        <time>2020-06-20T08:47:58Z</time>
      </trkpt>
      <trkpt lat="47.15588" lon="-1.71159">
        <ele>15.02</ele>
        <time>2020-06-20T08:48:00Z</time>
      </trkpt>
      <trkpt lat="47.1558" lon="-1.71171">
        <ele>16.15</ele>
        <time>2020-06-20T08:48:02Z</time>
      </trkpt>
      <trkpt lat="47.15572" lon="-1.71185">
        <ele>16.6</ele>
        <time>2020-06-20T08:48:04Z</time>
      </trkpt>
      <trkpt lat="47.15563" lon="-1.712">
        <ele>16.49</ele>
        <time>2020-06-20T08:48:06Z</time>
      </trkpt>
      <trkpt lat="47.15556" lon="-1.71213">
        <ele>15.93</ele>
        <time>2020-06-20T08:48:08Z</time>
      </trkpt>
      <trkpt lat="47.15549" lon="-1.71226">
        <ele>16.49</ele>
        <time>2020-06-20T08:48:10Z</time>
      </trkpt>
      <trkpt lat="47.15542" lon="-1.71241">
        <ele>16.52</ele>
        <time>2020-06-20T08:48:12Z</time>
      </trkpt>
      <trkpt lat="47.15536" lon="-1.71255">
        <ele>17.8</ele>
        <time>2020-06-20T08:48:14Z</time>
      </trkpt>
      <trkpt lat="47.15531" lon="-1.71268">
        <ele>18.86</ele>
        <time>2020-06-20T08:48:16Z</time>
      </trkpt>
      <trkpt lat="47.15525" lon="-1.71283">
        <ele>18.22</ele>
        <time>2020-06-20T08:48:18Z</time>
      </trkpt>
      <trkpt lat="47.15519" lon="-1.71298">
        <ele>19.52</ele>
        <time>2020-06-20T08:48:20Z</time>
      </trkpt>
      <trkpt lat="47.15515" lon="-1.7131">
        <ele>20.59</ele>
        <time>2020-06-20T08:48:22Z</time>
      </trkpt>
      <trkpt lat="47.1551" lon="-1.71323">
        <ele>20.99</ele>
        <time>2020-06-20T08:48:24Z</time>
      </trkpt>
      <trkpt lat="47.15504" lon="-1.71335">
        <ele>21.36</ele>
        <time>2020-06-20T08:48:26Z</time>
      </trkpt>
      <trkpt lat="47.15498" lon="-1.71346">
        <ele>23.02</ele>
        <time>2020-06-20T08:48:28Z</time>
      </trkpt>
      <trkpt lat="47.15489" lon="-1.71359">
        <ele>22.69</ele>
        <time>2020-06-20T08:48:30Z</time>
      </trkpt>
      <trkpt lat="47.1548" lon="-1.71374">
        <ele>21.84</ele>
        <time>2020-06-20T08:48:32Z</time>
      </trkpt>
      <trkpt lat="47.15469" lon="-1.71387">
        <ele>20.28</ele>
        <time>2020-06-20T08:48:34Z</time>
      </trkpt>
      <trkpt lat="47.15457" lon="-1.714">
        <ele>18.72</ele>
        <time>2020-06-20T08:48:36Z</time>
      </trkpt>
      <trkpt lat="47.15448" lon="-1.71408">
        <ele>19.45</ele>
        <time>2020-06-20T08:48:38Z</time>
      </trkpt>
      <trkpt lat="47.15438" lon="-1.7142">
        <ele>19.58</ele>
        <time>2020-06-20T08:48:40Z</time>
      </trkpt>
      <trkpt lat="47.15427" lon="-1.7143">
        <ele>18.59</ele>
        <time>2020-06-20T08:48:42Z</time>
      </trkpt>
      <trkpt lat="47.15416" lon="-1.71439">
        <ele>17.74</ele>
        <time>2020-06-20T08:48:44Z</time>
      </trkpt>
      <trkpt lat="47.15406" lon="-1.71447">
        <ele>17.68</ele>
        <time>2020-06-20T08:48:46Z</time>
      </trkpt>
      <trkpt lat="47.15395" lon="-1.71456">
        <ele>18.36</ele>
        <time>2020-06-20T08:48:48Z</time>
      </trkpt>
      <trkpt lat="47.15384" lon="-1.71465">
        <ele>20.42</ele>
        <time>2020-06-20T08:48:50Z</time>
      </trkpt>
      <trkpt lat="47.15373" lon="-1.71475">
        <ele>19.96</ele>
        <time>2020-06-20T08:48:52Z</time>
      </trkpt>
      <trkpt lat="47.15364" lon="-1.71483">
        <ele>19.98</ele>
        <time>2020-06-20T08:48:54Z</time>
      </trkpt>
      <trkpt lat="47.15354" lon="-1.71493">
        <ele>19.36</ele>
        <time>2020-06-20T08:48:56Z</time>
      </trkpt>
      <trkpt lat="47.15344" lon="-1.71504">
        <ele>18.26</ele>
        <time>2020-06-20T08:48:58Z</time>
      </trkpt>
      <trkpt lat="47.15333" lon="-1.71515">
        <ele>17.08</ele>
        <time>2020-06-20T08:49:00Z</time>
      </trkpt>
      <trkpt lat="47.15324" lon="-1.71525">
        <ele>17.69</ele>
        <time>2020-06-20T08:49:02Z</time>
      </trkpt>
      <trkpt lat="47.15314" lon="-1.71537">
        <ele>17.86</ele>
        <time>2020-06-20T08:49:04Z</time>
      </trkpt>
      <trkpt lat="47.15304" lon="-1.71547">
        <ele>17.84</ele>
        <time>2020-06-20T08:49:06Z</time>
      </trkpt>
      <trkpt lat="47.15295" lon="-1.71558">
        <ele>17.97</ele>
        <time>2020-06-20T08:49:08Z</time>
      </trkpt>
      <trkpt lat="47.15286" lon="-1.71568">
        <ele>17.59</ele>
        <time>2020-06-20T08:49:10Z</time>
      </trkpt>
      <trkpt lat="47.15275" lon="-1.71581">
        <ele>17.26</ele>
        <time>2020-06-20T08:49:12Z</time>
      </trkpt>
      <trkpt lat="47.15265" lon="-1.71592">
        <ele>15.76</ele>
        <time>2020-06-20T08:49:14Z</time>
      </trkpt>
      <trkpt lat="47.15255" lon="-1.71603">
        <ele>14.9</ele>
        <time>2020-06-20T08:49:16Z</time>
      </trkpt>
      <trkpt lat="47.15245" lon="-1.71615">
        <ele>14.43</ele>
        <time>2020-06-20T08:49:18Z</time>
      </trkpt>
      <trkpt lat="47.15235" lon="-1.71625">
        <ele>14.08</ele>
        <time>2020-06-20T08:49:20Z</time>
      </trkpt>
      <trkpt lat="47.15226" lon="-1.71622">
        <ele>14.53</ele>
        <time>2020-06-20T08:49:22Z</time>
      </trkpt>
      <trkpt lat="47.15215" lon="-1.71614">
        <ele>14.78</ele>
        <time>2020-06-20T08:49:24Z</time>
      </trkpt>
      <trkpt lat="47.15205" lon="-1.71605">
        <ele>14.75</ele>
        <time>2020-06-20T08:49:26Z</time>
      </trkpt>
      <trkpt lat="47.15196" lon="-1.71598">
        <ele>15.86</ele>
        <time>2020-06-20T08:49:28Z</time>
      </trkpt>
      <trkpt lat="47.15187" lon="-1.71591">
        <ele>15.76</ele>
        <time>2020-06-20T08:49:30Z</time>
      </trkpt>
      <trkpt lat="47.15176" lon="-1.71584">
        <ele>14.66</ele>
        <time>2020-06-20T08:49:32Z</time>
      </trkpt>
      <trkpt lat="47.15164" lon="-1.71576">
        <ele>14.77</ele>
        <time>2020-06-20T08:49:34Z</time>
      </trkpt>
      <trkpt lat="47.15153" lon="-1.71567">
        <ele>14.9</ele>
        <time>2020-06-20T08:49:36Z</time>
      </trkpt>
      <trkpt lat="47.15142" lon="-1.71559">
        <ele>15.62</ele>
        <time>2020-06-20T08:49:38Z</time>
      </trkpt>
      <trkpt lat="47.1513" lon="-1.7155">
        <ele>15.84</ele>
        <time>2020-06-20T08:49:40Z</time>
      </trkpt>
      <trkpt lat="47.1512" lon="-1.71542">
        <ele>16.29</ele>
        <time>2020-06-20T08:49:42Z</time>
      </trkpt>
      <trkpt lat="47.15111" lon="-1.71534">
        <ele>17.61</ele>
        <time>2020-06-20T08:49:44Z</time>
      </trkpt>
      <trkpt lat="47.15103" lon="-1.71527">
        <ele>17.66</ele>
        <time>2020-06-20T08:49:46Z</time>
      </trkpt>
      <trkpt lat="47.15091" lon="-1.71515">
        <ele>16.37</ele>
        <time>2020-06-20T08:49:48Z</time>
      </trkpt>
      <trkpt lat="47.15081" lon="-1.71505">
        <ele>15.76</ele>
        <time>2020-06-20T08:49:50Z</time>
      </trkpt>
      <trkpt lat="47.15072" lon="-1.71495">
        <ele>16.24</ele>
        <time>2020-06-20T08:49:52Z</time>
      </trkpt>
      <trkpt lat="47.15063" lon="-1.71486">
        <ele>16.72</ele>
        <time>2020-06-20T08:49:54Z</time>
      </trkpt>
      <trkpt lat="47.15055" lon="-1.71477">
        <ele>16.62</ele>
        <time>2020-06-20T08:49:56Z</time>
      </trkpt>
      <trkpt lat="47.15044" lon="-1.71466">
        <ele>18.75</ele>
        <time>2020-06-20T08:49:58Z</time>
      </trkpt>
      <trkpt lat="47.15033" lon="-1.71456">
        <ele>20</ele>
        <time>2020-06-20T08:50:00Z</time>
      </trkpt>
      <trkpt lat="47.15025" lon="-1.71448">
        <ele>19.73</ele>
        <time>2020-06-20T08:50:02Z</time>
      </trkpt>
      <trkpt lat="47.15015" lon="-1.71439">
        <ele>20.05</ele>
        <time>2020-06-20T08:50:04Z</time>
      </trkpt>
      <trkpt lat="47.15004" lon="-1.71427">
        <ele>20.42</ele>
        <time>2020-06-20T08:50:06Z</time>
      </trkpt>
      <trkpt lat="47.14996" lon="-1.7142">
        <ele>19.87</ele>
        <time>2020-06-20T08:50:08Z</time>
      </trkpt>
      <trkpt lat="47.14987" lon="-1.71411">
        <ele>20.93</ele>
        <time>2020-06-20T08:50:10Z</time>
      </trkpt>
      <trkpt lat="47.14978" lon="-1.71401">
        <ele>20.96</ele>
        <time>2020-06-20T08:50:12Z</time>
      </trkpt>
      <trkpt lat="47.14968" lon="-1.71392">
        <ele>20.81</ele>
        <time>2020-06-20T08:50:14Z</time>
      </trkpt>
      <trkpt lat="47.14959" lon="-1.71383">
        <ele>19.77</ele>
        <time>2020-06-20T08:50:16Z</time>
      </trkpt>
      <trkpt lat="47.14952" lon="-1.71375">
        <ele>20.47</ele>
        <time>2020-06-20T08:50:18Z</time>
      </trkpt>
      <trkpt lat="47.14943" lon="-1.71365">
        <ele>19.74</ele>
        <time>2020-06-20T08:50:20Z</time>
      </trkpt>
      <trkpt lat="47.14934" lon="-1.71354">
        <ele>20.2</ele>
        <time>2020-06-20T08:50:22Z</time>
      </trkpt>
      <trkpt lat="47.14924" lon="-1.71342">
        <ele>21.01</ele>
        <time>2020-06-20T08:50:24Z</time>
      </trkpt>
      <trkpt lat="47.14915" lon="-1.71332">
        <ele>19.73</ele>
        <time>2020-06-20T08:50:26Z</time>
      </trkpt>
      <trkpt lat="47.14907" lon="-1.71321">
        <ele>19.86</ele>
        <time>2020-06-20T08:50:28Z</time>
      </trkpt>
      <trkpt lat="47.14899" lon="-1.7131">
        <ele>20.77</ele>
        <time>2020-06-20T08:50:30Z</time>
      </trkpt>
      <trkpt lat="47.14891" lon="-1.713">
        <ele>21.59</ele>
        <time>2020-06-20T08:50:32Z</time>
      </trkpt>
      <trkpt lat="47.14881" lon="-1.71289">
        <ele>21.5</ele>
        <time>2020-06-20T08:50:34Z</time>
      </trkpt>
      <trkpt lat="47.1487" lon="-1.71279">
        <ele>21.27</ele>
        <time>2020-06-20T08:50:36Z</time>
      </trkpt>
      <trkpt lat="47.14859" lon="-1.71268">
        <ele>21.32</ele>
        <time>2020-06-20T08:50:38Z</time>
      </trkpt>
      <trkpt lat="47.1485" lon="-1.71256">
        <ele>21.59</ele>
        <time>2020-06-20T08:50:40Z</time>
      </trkpt>
      <trkpt lat="47.14843" lon="-1.71242">
        <ele>20.77</ele>
        <time>2020-06-20T08:50:42Z</time>
      </trkpt>
      <trkpt lat="47.14836" lon="-1.71227">
        <ele>20.61</ele>
        <time>2020-06-20T08:50:44Z</time>
      </trkpt>
      <trkpt lat="47.1483" lon="-1.7121">
        <ele>20.8</ele>
        <time>2020-06-20T08:50:46Z</time>
      </trkpt>
      <trkpt lat="47.14824" lon="-1.71194">
        <ele>21.28</ele>
        <time>2020-06-20T08:50:48Z</time>
      </trkpt>
      <trkpt lat="47.14819" lon="-1.71178">
        <ele>21.29</ele>
        <time>2020-06-20T08:50:50Z</time>
      </trkpt>
      <trkpt lat="47.14813" lon="-1.71161">
        <ele>21.75</ele>
        <time>2020-06-20T08:50:52Z</time>
      </trkpt>
      <trkpt lat="47.14807" lon="-1.71145">
        <ele>21.09</ele>
        <time>2020-06-20T08:50:54Z</time>
      </trkpt>
      <trkpt lat="47.14801" lon="-1.7113">
        <ele>20.68</ele>
        <time>2020-06-20T08:50:56Z</time>
      </trkpt>
      <trkpt lat="47.14794" lon="-1.71115">
        <ele>20.75</ele>
        <time>2020-06-20T08:50:58Z</time>
      </trkpt>
      <trkpt lat="47.14786" lon="-1.71098">
        <ele>20.51</ele>
        <time>2020-06-20T08:51:00Z</time>
      </trkpt>
      <trkpt lat="47.1478" lon="-1.71081">
        <ele>20.51</ele>
        <time>2020-06-20T08:51:02Z</time>
      </trkpt>
      <trkpt lat="47.14774" lon="-1.71065">
        <ele>20.44</ele>
        <time>2020-06-20T08:51:04Z</time>
      </trkpt>
      <trkpt lat="47.14768" lon="-1.71047">
        <ele>21.05</ele>
        <time>2020-06-20T08:51:06Z</time>
      </trkpt>
      <trkpt lat="47.14763" lon="-1.7103">
        <ele>21.8</ele>
        <time>2020-06-20T08:51:08Z</time>
      </trkpt>
      <trkpt lat="47.14757" lon="-1.71011">
        <ele>22.53</ele>
        <time>2020-06-20T08:51:10Z</time>
      </trkpt>
      <trkpt lat="47.14753" lon="-1.70995">
        <ele>22.31</ele>
        <time>2020-06-20T08:51:12Z</time>
      </trkpt>
      <trkpt lat="47.14745" lon="-1.7098">
        <ele>21.35</ele>
        <time>2020-06-20T08:51:14Z</time>
      </trkpt>
      <trkpt lat="47.14731" lon="-1.70984">
        <ele>20.86</ele>
        <time>2020-06-20T08:51:16Z</time>
      </trkpt>
      <trkpt lat="47.14722" lon="-1.70995">
        <ele>20.97</ele>
        <time>2020-06-20T08:51:18Z</time>
      </trkpt>
      <trkpt lat="47.14715" lon="-1.7101">
        <ele>19.21</ele>
        <time>2020-06-20T08:51:20Z</time>
      </trkpt>
      <trkpt lat="47.1471" lon="-1.71028">
        <ele>17.91</ele>
        <time>2020-06-20T08:51:22Z</time>
      </trkpt>
      <trkpt lat="47.14707" lon="-1.71044">
        <ele>16.3</ele>
        <time>2020-06-20T08:51:24Z</time>
      </trkpt>
      <trkpt lat="47.14708" lon="-1.71063">
        <ele>16.69</ele>
        <time>2020-06-20T08:51:26Z</time>
      </trkpt>
      <trkpt lat="47.14711" lon="-1.7108">
        <ele>17.65</ele>
        <time>2020-06-20T08:51:28Z</time>
      </trkpt>
      <trkpt lat="47.14713" lon="-1.71093">
        <ele>16.56</ele>
        <time>2020-06-20T08:51:30Z</time>
      </trkpt>
      <trkpt lat="47.14716" lon="-1.71111">
        <ele>14.17</ele>
        <time>2020-06-20T08:51:32Z</time>
      </trkpt>
      <trkpt lat="47.14718" lon="-1.7113">
        <ele>12.17</ele>
        <time>2020-06-20T08:51:34Z</time>
      </trkpt>
      <trkpt lat="47.14719" lon="-1.71148">
        <ele>11.64</ele>
        <time>2020-06-20T08:51:36Z</time>
      </trkpt>
      <trkpt lat="47.14721" lon="-1.71164">
        <ele>12.69</ele>
        <time>2020-06-20T08:51:38Z</time>
      </trkpt>
      <trkpt lat="47.14724" lon="-1.7118">
        <ele>13.99</ele>
        <time>2020-06-20T08:51:40Z</time>
      </trkpt>
      <trkpt lat="47.14728" lon="-1.71197">
        <ele>15.54</ele>
        <time>2020-06-20T08:51:42Z</time>
      </trkpt>
      <trkpt lat="47.14733" lon="-1.71214">
        <ele>13.85</ele>
        <time>2020-06-20T08:51:44Z</time>
      </trkpt>
      <trkpt lat="47.14737" lon="-1.71228">
        <ele>11.09</ele>
        <time>2020-06-20T08:51:46Z</time>
      </trkpt>
      <trkpt lat="47.14741" lon="-1.71242">
        <ele>9.13</ele>
        <time>2020-06-20T08:51:48Z</time>
      </trkpt>
      <trkpt lat="47.14744" lon="-1.71255">
        <ele>8.91</ele>
        <time>2020-06-20T08:51:50Z</time>
      </trkpt>
      <trkpt lat="47.14748" lon="-1.7127">
        <ele>9.81</ele>
        <time>2020-06-20T08:51:52Z</time>
      </trkpt>
      <trkpt lat="47.14751" lon="-1.71285">
        <ele>10.08</ele>
        <time>2020-06-20T08:51:54Z</time>
      </trkpt>
      <trkpt lat="47.14754" lon="-1.71299">
        <ele>10.66</ele>
        <time>2020-06-20T08:51:56Z</time>
      </trkpt>
      <trkpt lat="47.14756" lon="-1.71314">
        <ele>10.84</ele>
        <time>2020-06-20T08:51:58Z</time>
      </trkpt>
      <trkpt lat="47.14757" lon="-1.71329">
        <ele>11.76</ele>
        <time>2020-06-20T08:52:00Z</time>
      </trkpt>
      <trkpt lat="47.14759" lon="-1.71347">
        <ele>10.94</ele>
        <time>2020-06-20T08:52:02Z</time>
      </trkpt>
      <trkpt lat="47.14763" lon="-1.71366">
        <ele>11.81</ele>
        <time>2020-06-20T08:52:04Z</time>
      </trkpt>
      <trkpt lat="47.14766" lon="-1.71381">
        <ele>13.04</ele>
        <time>2020-06-20T08:52:06Z</time>
      </trkpt>
      <trkpt lat="47.14769" lon="-1.71395">
        <ele>15.16</ele>
        <time>2020-06-20T08:52:08Z</time>
      </trkpt>
      <trkpt lat="47.14772" lon="-1.71409">
        <ele>16.96</ele>
        <time>2020-06-20T08:52:10Z</time>
      </trkpt>
      <trkpt lat="47.14776" lon="-1.71427">
        <ele>17.61</ele>
        <time>2020-06-20T08:52:12Z</time>
      </trkpt>
      <trkpt lat="47.14779" lon="-1.71444">
        <ele>18.53</ele>
        <time>2020-06-20T08:52:14Z</time>
      </trkpt>
      <trkpt lat="47.14781" lon="-1.7146">
        <ele>19.07</ele>
        <time>2020-06-20T08:52:16Z</time>
      </trkpt>
      <trkpt lat="47.14785" lon="-1.71481">
        <ele>20.68</ele>
        <time>2020-06-20T08:52:19Z</time>
      </trkpt>
      <trkpt lat="47.14787" lon="-1.71495">
        <ele>20.72</ele>
        <time>2020-06-20T08:52:21Z</time>
      </trkpt>
      <trkpt lat="47.14789" lon="-1.71508">
        <ele>21.16</ele>
        <time>2020-06-20T08:52:23Z</time>
      </trkpt>
      <trkpt lat="47.1479" lon="-1.71524">
        <ele>20.25</ele>
        <time>2020-06-20T08:52:25Z</time>
      </trkpt>
      <trkpt lat="47.14791" lon="-1.71539">
        <ele>19.73</ele>
        <time>2020-06-20T08:52:27Z</time>
      </trkpt>
      <trkpt lat="47.1479" lon="-1.71553">
        <ele>20.43</ele>
        <time>2020-06-20T08:52:29Z</time>
      </trkpt>
      <trkpt lat="47.14789" lon="-1.71569">
        <ele>19.48</ele>
        <time>2020-06-20T08:52:31Z</time>
      </trkpt>
      <trkpt lat="47.14787" lon="-1.71583">
        <ele>19.46</ele>
        <time>2020-06-20T08:52:33Z</time>
      </trkpt>
      <trkpt lat="47.14786" lon="-1.71597">
        <ele>20.96</ele>
        <time>2020-06-20T08:52:35Z</time>
      </trkpt>
      <trkpt lat="47.14783" lon="-1.71611">
        <ele>23.22</ele>
        <time>2020-06-20T08:52:37Z</time>
      </trkpt>
      <trkpt lat="47.14779" lon="-1.71629">
        <ele>25.73</ele>
        <time>2020-06-20T08:52:40Z</time>
      </trkpt>
      <trkpt lat="47.14774" lon="-1.71651">
        <ele>24</ele>
        <time>2020-06-20T08:52:43Z</time>
      </trkpt>
      <trkpt lat="47.14771" lon="-1.71669">
        <ele>22.1</ele>
        <time>2020-06-20T08:52:45Z</time>
      </trkpt>
      <trkpt lat="47.1477" lon="-1.71684">
        <ele>21.36</ele>
        <time>2020-06-20T08:52:47Z</time>
      </trkpt>
      <trkpt lat="47.14768" lon="-1.717">
        <ele>20.1</ele>
        <time>2020-06-20T08:52:49Z</time>
      </trkpt>
      <trkpt lat="47.14767" lon="-1.71716">
        <ele>19.56</ele>
        <time>2020-06-20T08:52:51Z</time>
      </trkpt>
      <trkpt lat="47.14765" lon="-1.71731">
        <ele>19.59</ele>
        <time>2020-06-20T08:52:53Z</time>
      </trkpt>
      <trkpt lat="47.14763" lon="-1.71745">
        <ele>21.86</ele>
        <time>2020-06-20T08:52:55Z</time>
      </trkpt>
      <trkpt lat="47.1476" lon="-1.71759">
        <ele>24.89</ele>
        <time>2020-06-20T08:52:57Z</time>
      </trkpt>
      <trkpt lat="47.14758" lon="-1.71772">
        <ele>24.7</ele>
        <time>2020-06-20T08:52:59Z</time>
      </trkpt>
      <trkpt lat="47.14751" lon="-1.71787">
        <ele>22.93</ele>
        <time>2020-06-20T08:53:02Z</time>
      </trkpt>
      <trkpt lat="47.14744" lon="-1.71799">
        <ele>22.34</ele>
        <time>2020-06-20T08:53:04Z</time>
      </trkpt>
      <trkpt lat="47.14735" lon="-1.71809">
        <ele>21.72</ele>
        <time>2020-06-20T08:53:06Z</time>
      </trkpt>
      <trkpt lat="47.14726" lon="-1.71818">
        <ele>21.33</ele>
        <time>2020-06-20T08:53:08Z</time>
      </trkpt>
      <trkpt lat="47.14716" lon="-1.71825">
        <ele>20.91</ele>
        <time>2020-06-20T08:53:10Z</time>
      </trkpt>
      <trkpt lat="47.14705" lon="-1.7183">
        <ele>20.24</ele>
        <time>2020-06-20T08:53:12Z</time>
      </trkpt>
      <trkpt lat="47.14694" lon="-1.71835">
        <ele>19.08</ele>
        <time>2020-06-20T08:53:14Z</time>
      </trkpt>
      <trkpt lat="47.14679" lon="-1.71841">
        <ele>18.79</ele>
        <time>2020-06-20T08:53:16Z</time>
      </trkpt>
      <trkpt lat="47.14666" lon="-1.71848">
        <ele>18.91</ele>
        <time>2020-06-20T08:53:19Z</time>
      </trkpt>
      <trkpt lat="47.14653" lon="-1.71853">
        <ele>18.77</ele>
        <time>2020-06-20T08:53:21Z</time>
      </trkpt>
      <trkpt lat="47.14642" lon="-1.71857">
        <ele>19.21</ele>
        <time>2020-06-20T08:53:23Z</time>
      </trkpt>
      <trkpt lat="47.1463" lon="-1.71858">
        <ele>18.74</ele>
        <time>2020-06-20T08:53:25Z</time>
      </trkpt>
      <trkpt lat="47.14617" lon="-1.71857">
        <ele>21.29</ele>
        <time>2020-06-20T08:53:27Z</time>
      </trkpt>
      <trkpt lat="47.14605" lon="-1.71855">
        <ele>21.83</ele>
        <time>2020-06-20T08:53:29Z</time>
      </trkpt>
      <trkpt lat="47.14593" lon="-1.71851">
        <ele>21.86</ele>
        <time>2020-06-20T08:53:31Z</time>
      </trkpt>
      <trkpt lat="47.14582" lon="-1.71846">
        <ele>21.21</ele>
        <time>2020-06-20T08:53:33Z</time>
      </trkpt>
      <trkpt lat="47.14569" lon="-1.71839">
        <ele>20.46</ele>
        <time>2020-06-20T08:53:35Z</time>
      </trkpt>
      <trkpt lat="47.14557" lon="-1.71833">
        <ele>18.68</ele>
        <time>2020-06-20T08:53:37Z</time>
      </trkpt>
      <trkpt lat="47.14544" lon="-1.71825">
        <ele>19.16</ele>
        <time>2020-06-20T08:53:39Z</time>
      </trkpt>
      <trkpt lat="47.14533" lon="-1.71819">
        <ele>19.71</ele>
        <time>2020-06-20T08:53:41Z</time>
      </trkpt>
      <trkpt lat="47.14523" lon="-1.71813">
        <ele>19.99</ele>
        <time>2020-06-20T08:53:43Z</time>
      </trkpt>
      <trkpt lat="47.1451" lon="-1.71808">
        <ele>20.15</ele>
        <time>2020-06-20T08:53:45Z</time>
      </trkpt>
      <trkpt lat="47.14497" lon="-1.71801">
        <ele>20</ele>
        <time>2020-06-20T08:53:47Z</time>
      </trkpt>
      <trkpt lat="47.14485" lon="-1.71795">
        <ele>19.6</ele>
        <time>2020-06-20T08:53:49Z</time>
      </trkpt>
      <trkpt lat="47.14473" lon="-1.7179">
        <ele>19.58</ele>
        <time>2020-06-20T08:53:51Z</time>
      </trkpt>
      <trkpt lat="47.14461" lon="-1.71784">
        <ele>19.66</ele>
        <time>2020-06-20T08:53:53Z</time>
      </trkpt>
      <trkpt lat="47.14449" lon="-1.7178">
        <ele>19.17</ele>
        <time>2020-06-20T08:53:55Z</time>
      </trkpt>
      <trkpt lat="47.14437" lon="-1.71776">
        <ele>18.51</ele>
        <time>2020-06-20T08:53:57Z</time>
      </trkpt>
      <trkpt lat="47.14424" lon="-1.71776">
        <ele>18.8</ele>
        <time>2020-06-20T08:53:59Z</time>
      </trkpt>
      <trkpt lat="47.14409" lon="-1.71776">
        <ele>18.61</ele>
        <time>2020-06-20T08:54:01Z</time>
      </trkpt>
      <trkpt lat="47.14397" lon="-1.71779">
        <ele>18.32</ele>
        <time>2020-06-20T08:54:03Z</time>
      </trkpt>
      <trkpt lat="47.14383" lon="-1.71783">
        <ele>18.11</ele>
        <time>2020-06-20T08:54:05Z</time>
      </trkpt>
      <trkpt lat="47.14368" lon="-1.71787">
        <ele>18.13</ele>
        <time>2020-06-20T08:54:07Z</time>
      </trkpt>
      <trkpt lat="47.14358" lon="-1.71792">
        <ele>17.41</ele>
        <time>2020-06-20T08:54:09Z</time>
      </trkpt>
      <trkpt lat="47.14345" lon="-1.71797">
        <ele>16.62</ele>
        <time>2020-06-20T08:54:11Z</time>
      </trkpt>
      <trkpt lat="47.14334" lon="-1.71801">
        <ele>15.83</ele>
        <time>2020-06-20T08:54:13Z</time>
      </trkpt>
      <trkpt lat="47.14321" lon="-1.71807">
        <ele>14.29</ele>
        <time>2020-06-20T08:54:15Z</time>
      </trkpt>
      <trkpt lat="47.14308" lon="-1.7181">
        <ele>13.22</ele>
        <time>2020-06-20T08:54:17Z</time>
      </trkpt>
      <trkpt lat="47.14296" lon="-1.71814">
        <ele>13.74</ele>
        <time>2020-06-20T08:54:19Z</time>
      </trkpt>
      <trkpt lat="47.14284" lon="-1.71818">
        <ele>15.1</ele>
        <time>2020-06-20T08:54:21Z</time>
      </trkpt>
      <trkpt lat="47.1427" lon="-1.71824">
        <ele>16.94</ele>
        <time>2020-06-20T08:54:23Z</time>
      </trkpt>
      <trkpt lat="47.14258" lon="-1.71827">
        <ele>17.65</ele>
        <time>2020-06-20T08:54:25Z</time>
      </trkpt>
      <trkpt lat="47.14244" lon="-1.71833">
        <ele>18.69</ele>
        <time>2020-06-20T08:54:27Z</time>
      </trkpt>
      <trkpt lat="47.14232" lon="-1.71836">
        <ele>18.04</ele>
        <time>2020-06-20T08:54:29Z</time>
      </trkpt>
      <trkpt lat="47.14218" lon="-1.71841">
        <ele>16.93</ele>
        <time>2020-06-20T08:54:31Z</time>
      </trkpt>
      <trkpt lat="47.14205" lon="-1.71845">
        <ele>16.57</ele>
        <time>2020-06-20T08:54:33Z</time>
      </trkpt>
      <trkpt lat="47.14191" lon="-1.71849">
        <ele>15.87</ele>
        <time>2020-06-20T08:54:35Z</time>
      </trkpt>
      <trkpt lat="47.14177" lon="-1.71854">
        <ele>15.34</ele>
        <time>2020-06-20T08:54:37Z</time>
      </trkpt>
      <trkpt lat="47.14165" lon="-1.71858">
        <ele>14.07</ele>
        <time>2020-06-20T08:54:39Z</time>
      </trkpt>
      <trkpt lat="47.14152" lon="-1.71862">
        <ele>14.29</ele>
        <time>2020-06-20T08:54:41Z</time>
      </trkpt>
      <trkpt lat="47.14137" lon="-1.71867">
        <ele>14.19</ele>
        <time>2020-06-20T08:54:43Z</time>
      </trkpt>
      <trkpt lat="47.14122" lon="-1.71872">
        <ele>14.14</ele>
        <time>2020-06-20T08:54:45Z</time>
      </trkpt>
      <trkpt lat="47.14113" lon="-1.71876">
        <ele>13.88</ele>
        <time>2020-06-20T08:54:46Z</time>
      </trkpt>
      <trkpt lat="47.14099" lon="-1.71881">
        <ele>13.46</ele>
        <time>2020-06-20T08:54:48Z</time>
      </trkpt>
      <trkpt lat="47.14081" lon="-1.71886">
        <ele>11.84</ele>
        <time>2020-06-20T08:54:50Z</time>
      </trkpt>
      <trkpt lat="47.14071" lon="-1.7189">
        <ele>11.36</ele>
        <time>2020-06-20T08:54:51Z</time>
      </trkpt>
      <trkpt lat="47.14054" lon="-1.71896">
        <ele>9.93</ele>
        <time>2020-06-20T08:54:53Z</time>
      </trkpt>
      <trkpt lat="47.14038" lon="-1.71901">
        <ele>8.36</ele>
        <time>2020-06-20T08:54:55Z</time>
      </trkpt>
      <trkpt lat="47.14022" lon="-1.71906">
        <ele>6.76</ele>
        <time>2020-06-20T08:54:57Z</time>
      </trkpt>
      <trkpt lat="47.14012" lon="-1.71905">
        <ele>6.02</ele>
        <time>2020-06-20T08:54:58Z</time>
      </trkpt>
      <trkpt lat="47.14003" lon="-1.71903">
        <ele>5.36</ele>
        <time>2020-06-20T08:54:59Z</time>
      </trkpt>
      <trkpt lat="47.13987" lon="-1.71898">
        <ele>3.8</ele>
        <time>2020-06-20T08:55:01Z</time>
      </trkpt>
      <trkpt lat="47.13977" lon="-1.71897">
        <ele>3.89</ele>
        <time>2020-06-20T08:55:02Z</time>
      </trkpt>
      <trkpt lat="47.13969" lon="-1.71905">
        <ele>4.48</ele>
        <time>2020-06-20T08:55:03Z</time>
      </trkpt>
      <trkpt lat="47.13962" lon="-1.71928">
        <ele>5.09</ele>
        <time>2020-06-20T08:55:05Z</time>
      </trkpt>
      <trkpt lat="47.13962" lon="-1.71942">
        <ele>5.66</ele>
        <time>2020-06-20T08:55:06Z</time>
      </trkpt>
      <trkpt lat="47.1396" lon="-1.7196">
        <ele>5.03</ele>
        <time>2020-06-20T08:55:08Z</time>
      </trkpt>
      <trkpt lat="47.13951" lon="-1.71973">
        <ele>3.84</ele>
        <time>2020-06-20T08:55:10Z</time>
      </trkpt>
      <trkpt lat="47.13939" lon="-1.71981">
        <ele>2.59</ele>
        <time>2020-06-20T08:55:12Z</time>
      </trkpt>
      <trkpt lat="47.13926" lon="-1.71987">
        <ele>2.15</ele>
        <time>2020-06-20T08:55:14Z</time>
      </trkpt>
      <trkpt lat="47.13915" lon="-1.71992">
        <ele>3.8</ele>
        <time>2020-06-20T08:55:16Z</time>
      </trkpt>
      <trkpt lat="47.13904" lon="-1.71999">
        <ele>5.4</ele>
        <time>2020-06-20T08:55:18Z</time>
      </trkpt>
      <trkpt lat="47.13893" lon="-1.72003">
        <ele>6.3</ele>
        <time>2020-06-20T08:55:20Z</time>
      </trkpt>
      <trkpt lat="47.13884" lon="-1.72009">
        <ele>6.32</ele>
        <time>2020-06-20T08:55:22Z</time>
      </trkpt>
      <trkpt lat="47.13872" lon="-1.72018">
        <ele>6.39</ele>
        <time>2020-06-20T08:55:24Z</time>
      </trkpt>
      <trkpt lat="47.13865" lon="-1.72027">
        <ele>5.77</ele>
        <time>2020-06-20T08:55:26Z</time>
      </trkpt>
      <trkpt lat="47.13855" lon="-1.7204">
        <ele>4.67</ele>
        <time>2020-06-20T08:55:28Z</time>
      </trkpt>
      <trkpt lat="47.13848" lon="-1.72053">
        <ele>3.56</ele>
        <time>2020-06-20T08:55:30Z</time>
      </trkpt>
      <trkpt lat="47.13841" lon="-1.72064">
        <ele>2.75</ele>
        <time>2020-06-20T08:55:32Z</time>
      </trkpt>
      <trkpt lat="47.13834" lon="-1.72075">
        <ele>3.31</ele>
        <time>2020-06-20T08:55:34Z</time>
      </trkpt>
      <trkpt lat="47.13825" lon="-1.72089">
        <ele>1.82</ele>
        <time>2020-06-20T08:55:36Z</time>
      </trkpt>
      <trkpt lat="47.13819" lon="-1.721">
        <ele>1.19</ele>
        <time>2020-06-20T08:55:38Z</time>
      </trkpt>
      <trkpt lat="47.13813" lon="-1.72113">
        <ele>2.94</ele>
        <time>2020-06-20T08:55:40Z</time>
      </trkpt>
      <trkpt lat="47.13808" lon="-1.72124">
        <ele>3.86</ele>
        <time>2020-06-20T08:55:42Z</time>
      </trkpt>
      <trkpt lat="47.13801" lon="-1.72136">
        <ele>5.11</ele>
        <time>2020-06-20T08:55:45Z</time>
      </trkpt>
      <trkpt lat="47.13791" lon="-1.72149">
        <ele>5.82</ele>
        <time>2020-06-20T08:55:47Z</time>
      </trkpt>
      <trkpt lat="47.13782" lon="-1.72163">
        <ele>8.68</ele>
        <time>2020-06-20T08:55:50Z</time>
      </trkpt>
      <trkpt lat="47.13775" lon="-1.72175">
        <ele>8.02</ele>
        <time>2020-06-20T08:55:52Z</time>
      </trkpt>
      <trkpt lat="47.13768" lon="-1.72186">
        <ele>6.99</ele>
        <time>2020-06-20T08:55:54Z</time>
      </trkpt>
      <trkpt lat="47.13762" lon="-1.72197">
        <ele>6.86</ele>
        <time>2020-06-20T08:55:56Z</time>
      </trkpt>
      <trkpt lat="47.13755" lon="-1.72209">
        <ele>7.58</ele>
        <time>2020-06-20T08:55:58Z</time>
      </trkpt>
      <trkpt lat="47.13748" lon="-1.72224">
        <ele>7.7</ele>
        <time>2020-06-20T08:56:00Z</time>
      </trkpt>
      <trkpt lat="47.13743" lon="-1.72235">
        <ele>8.45</ele>
        <time>2020-06-20T08:56:02Z</time>
      </trkpt>
      <trkpt lat="47.13738" lon="-1.72253">
        <ele>11.02</ele>
        <time>2020-06-20T08:56:05Z</time>
      </trkpt>
      <trkpt lat="47.13735" lon="-1.72266">
        <ele>11.01</ele>
        <time>2020-06-20T08:56:07Z</time>
      </trkpt>
      <trkpt lat="47.1373" lon="-1.72286">
        <ele>10.28</ele>
        <time>2020-06-20T08:56:10Z</time>
      </trkpt>
      <trkpt lat="47.13727" lon="-1.72308">
        <ele>7.53</ele>
        <time>2020-06-20T08:56:13Z</time>
      </trkpt>
      <trkpt lat="47.13725" lon="-1.72322">
        <ele>7.97</ele>
        <time>2020-06-20T08:56:15Z</time>
      </trkpt>
      <trkpt lat="47.13725" lon="-1.7234">
        <ele>10.17</ele>
        <time>2020-06-20T08:56:18Z</time>
      </trkpt>
      <trkpt lat="47.13721" lon="-1.72359">
        <ele>11.2</ele>
        <time>2020-06-20T08:56:21Z</time>
      </trkpt>
      <trkpt lat="47.13719" lon="-1.72372">
        <ele>11.71</ele>
        <time>2020-06-20T08:56:23Z</time>
      </trkpt>
      <trkpt lat="47.13713" lon="-1.7239">
        <ele>9.69</ele>
        <time>2020-06-20T08:56:26Z</time>
      </trkpt>
      <trkpt lat="47.13711" lon="-1.72406">
        <ele>10.32</ele>
        <time>2020-06-20T08:56:28Z</time>
      </trkpt>
      <trkpt lat="47.13706" lon="-1.72425">
        <ele>12.95</ele>
        <time>2020-06-20T08:56:31Z</time>
      </trkpt>
      <trkpt lat="47.13702" lon="-1.72444">
        <ele>15.18</ele>
        <time>2020-06-20T08:56:34Z</time>
      </trkpt>
      <trkpt lat="47.13697" lon="-1.72456">
        <ele>15.67</ele>
        <time>2020-06-20T08:56:36Z</time>
      </trkpt>
      <trkpt lat="47.13693" lon="-1.72472">
        <ele>17.22</ele>
        <time>2020-06-20T08:56:38Z</time>
      </trkpt>
      <trkpt lat="47.1369" lon="-1.72484">
        <ele>18.18</ele>
        <time>2020-06-20T08:56:40Z</time>
      </trkpt>
      <trkpt lat="47.13685" lon="-1.72503">
        <ele>19.17</ele>
        <time>2020-06-20T08:56:43Z</time>
      </trkpt>
      <trkpt lat="47.13682" lon="-1.72519">
        <ele>19.04</ele>
        <time>2020-06-20T08:56:45Z</time>
      </trkpt>
      <trkpt lat="47.1368" lon="-1.72535">
        <ele>20.05</ele>
        <time>2020-06-20T08:56:47Z</time>
      </trkpt>
      <trkpt lat="47.13678" lon="-1.72549">
        <ele>19.14</ele>
        <time>2020-06-20T08:56:49Z</time>
      </trkpt>
      <trkpt lat="47.13677" lon="-1.72565">
        <ele>19.39</ele>
        <time>2020-06-20T08:56:51Z</time>
      </trkpt>
      <trkpt lat="47.13677" lon="-1.7258">
        <ele>20.02</ele>
        <time>2020-06-20T08:56:53Z</time>
      </trkpt>
      <trkpt lat="47.13677" lon="-1.72596">
        <ele>21.5</ele>
        <time>2020-06-20T08:56:55Z</time>
      </trkpt>
      <trkpt lat="47.13675" lon="-1.72616">
        <ele>22.23</ele>
        <time>2020-06-20T08:56:58Z</time>
      </trkpt>
      <trkpt lat="47.13674" lon="-1.72632">
        <ele>22.64</ele>
        <time>2020-06-20T08:57:00Z</time>
      </trkpt>
      <trkpt lat="47.13672" lon="-1.72646">
        <ele>21.4</ele>
        <time>2020-06-20T08:57:02Z</time>
      </trkpt>
      <trkpt lat="47.1367" lon="-1.72664">
        <ele>20.37</ele>
        <time>2020-06-20T08:57:04Z</time>
      </trkpt>
      <trkpt lat="47.13666" lon="-1.72679">
        <ele>19.23</ele>
        <time>2020-06-20T08:57:06Z</time>
      </trkpt>
      <trkpt lat="47.13664" lon="-1.72693">
        <ele>19.72</ele>
        <time>2020-06-20T08:57:08Z</time>
      </trkpt>
      <trkpt lat="47.13661" lon="-1.7271">
        <ele>20.75</ele>
        <time>2020-06-20T08:57:11Z</time>
      </trkpt>
      <trkpt lat="47.1366" lon="-1.72724">
        <ele>20.24</ele>
        <time>2020-06-20T08:57:13Z</time>
      </trkpt>
      <trkpt lat="47.13658" lon="-1.72739">
        <ele>19.99</ele>
        <time>2020-06-20T08:57:15Z</time>
      </trkpt>
      <trkpt lat="47.13657" lon="-1.72753">
        <ele>19.09</ele>
        <time>2020-06-20T08:57:17Z</time>
      </trkpt>
      <trkpt lat="47.13657" lon="-1.72769">
        <ele>18.13</ele>
        <time>2020-06-20T08:57:19Z</time>
      </trkpt>
      <trkpt lat="47.13656" lon="-1.72787">
        <ele>18.89</ele>
        <time>2020-06-20T08:57:21Z</time>
      </trkpt>
      <trkpt lat="47.13655" lon="-1.72802">
        <ele>18.8</ele>
        <time>2020-06-20T08:57:23Z</time>
      </trkpt>
      <trkpt lat="47.13654" lon="-1.72822">
        <ele>19.21</ele>
        <time>2020-06-20T08:57:26Z</time>
      </trkpt>
      <trkpt lat="47.13652" lon="-1.7284">
        <ele>19.23</ele>
        <time>2020-06-20T08:57:28Z</time>
      </trkpt>
      <trkpt lat="47.1365" lon="-1.72856">
        <ele>17.99</ele>
        <time>2020-06-20T08:57:30Z</time>
      </trkpt>
      <trkpt lat="47.13648" lon="-1.72872">
        <ele>17.32</ele>
        <time>2020-06-20T08:57:32Z</time>
      </trkpt>
      <trkpt lat="47.13647" lon="-1.72892">
        <ele>15.99</ele>
        <time>2020-06-20T08:57:34Z</time>
      </trkpt>
      <trkpt lat="47.13646" lon="-1.72913">
        <ele>14.4</ele>
        <time>2020-06-20T08:57:36Z</time>
      </trkpt>
      <trkpt lat="47.13643" lon="-1.72938">
        <ele>12.35</ele>
        <time>2020-06-20T08:57:38Z</time>
      </trkpt>
      <trkpt lat="47.13642" lon="-1.72963">
        <ele>11.89</ele>
        <time>2020-06-20T08:57:40Z</time>
      </trkpt>
      <trkpt lat="47.13641" lon="-1.72976">
        <ele>12.14</ele>
        <time>2020-06-20T08:57:41Z</time>
      </trkpt>
      <trkpt lat="47.13639" lon="-1.72999">
        <ele>9.98</ele>
        <time>2020-06-20T08:57:43Z</time>
      </trkpt>
      <trkpt lat="47.13637" lon="-1.73021">
        <ele>6.26</ele>
        <time>2020-06-20T08:57:45Z</time>
      </trkpt>
      <trkpt lat="47.13632" lon="-1.73033">
        <ele>5.08</ele>
        <time>2020-06-20T08:57:46Z</time>
      </trkpt>
      <trkpt lat="47.1362" lon="-1.73051">
        <ele>3.85</ele>
        <time>2020-06-20T08:57:48Z</time>
      </trkpt>
      <trkpt lat="47.13607" lon="-1.73066">
        <ele>3.54</ele>
        <time>2020-06-20T08:57:50Z</time>
      </trkpt>
      <trkpt lat="47.13593" lon="-1.73077">
        <ele>4.36</ele>
        <time>2020-06-20T08:57:52Z</time>
      </trkpt>
      <trkpt lat="47.1358" lon="-1.73088">
        <ele>5.46</ele>
        <time>2020-06-20T08:57:54Z</time>
      </trkpt>
      <trkpt lat="47.13566" lon="-1.73099">
        <ele>7.09</ele>
        <time>2020-06-20T08:57:56Z</time>
      </trkpt>
      <trkpt lat="47.13555" lon="-1.7311">
        <ele>7.62</ele>
        <time>2020-06-20T08:57:58Z</time>
      </trkpt>
      <trkpt lat="47.13544" lon="-1.7312">
        <ele>8.08</ele>
        <time>2020-06-20T08:58:00Z</time>
      </trkpt>
      <trkpt lat="47.13534" lon="-1.73131">
        <ele>8.8</ele>
        <time>2020-06-20T08:58:02Z</time>
      </trkpt>
      <trkpt lat="47.13523" lon="-1.73143">
        <ele>9.71</ele>
        <time>2020-06-20T08:58:04Z</time>
      </trkpt>
      <trkpt lat="47.13514" lon="-1.73161">
        <ele>10.18</ele>
        <time>2020-06-20T08:58:06Z</time>
      </trkpt>
      <trkpt lat="47.1351" lon="-1.7318">
        <ele>9.17</ele>
        <time>2020-06-20T08:58:08Z</time>
      </trkpt>
      <trkpt lat="47.13507" lon="-1.73198">
        <ele>6.69</ele>
        <time>2020-06-20T08:58:10Z</time>
      </trkpt>
      <trkpt lat="47.13505" lon="-1.73217">
        <ele>6.56</ele>
        <time>2020-06-20T08:58:12Z</time>
      </trkpt>
      <trkpt lat="47.13503" lon="-1.73235">
        <ele>7.22</ele>
        <time>2020-06-20T08:58:14Z</time>
      </trkpt>
      <trkpt lat="47.13501" lon="-1.73257">
        <ele>5.52</ele>
        <time>2020-06-20T08:58:16Z</time>
      </trkpt>
      <trkpt lat="47.13502" lon="-1.73277">
        <ele>3.85</ele>
        <time>2020-06-20T08:58:18Z</time>
      </trkpt>
      <trkpt lat="47.13503" lon="-1.733">
        <ele>2.71</ele>
        <time>2020-06-20T08:58:20Z</time>
      </trkpt>
      <trkpt lat="47.13506" lon="-1.73322">
        <ele>1.64</ele>
        <time>2020-06-20T08:58:22Z</time>
      </trkpt>
      <trkpt lat="47.1351" lon="-1.73338">
        <ele>1.88</ele>
        <time>2020-06-20T08:58:24Z</time>
      </trkpt>
      <trkpt lat="47.13515" lon="-1.73354">
        <ele>1.92</ele>
        <time>2020-06-20T08:58:26Z</time>
      </trkpt>
      <trkpt lat="47.13519" lon="-1.73366">
        <ele>2.38</ele>
        <time>2020-06-20T08:58:28Z</time>
      </trkpt>
      <trkpt lat="47.13524" lon="-1.73382">
        <ele>3.55</ele>
        <time>2020-06-20T08:58:30Z</time>
      </trkpt>
      <trkpt lat="47.13529" lon="-1.73398">
        <ele>4.44</ele>
        <time>2020-06-20T08:58:32Z</time>
      </trkpt>
      <trkpt lat="47.13533" lon="-1.73411">
        <ele>4.27</ele>
        <time>2020-06-20T08:58:34Z</time>
      </trkpt>
      <trkpt lat="47.13538" lon="-1.73431">
        <ele>4.48</ele>
        <time>2020-06-20T08:58:37Z</time>
      </trkpt>
      <trkpt lat="47.13543" lon="-1.73448">
        <ele>5.54</ele>
        <time>2020-06-20T08:58:39Z</time>
      </trkpt>
      <trkpt lat="47.13547" lon="-1.73461">
        <ele>5.09</ele>
        <time>2020-06-20T08:58:41Z</time>
      </trkpt>
      <trkpt lat="47.13551" lon="-1.73477">
        <ele>4.23</ele>
        <time>2020-06-20T08:58:43Z</time>
      </trkpt>
      <trkpt lat="47.13554" lon="-1.73492">
        <ele>3.72</ele>
        <time>2020-06-20T08:58:45Z</time>
      </trkpt>
      <trkpt lat="47.13558" lon="-1.73505">
        <ele>5.12</ele>
        <time>2020-06-20T08:58:47Z</time>
      </trkpt>
      <trkpt lat="47.13564" lon="-1.7352">
        <ele>5.88</ele>
        <time>2020-06-20T08:58:49Z</time>
      </trkpt>
      <trkpt lat="47.13568" lon="-1.73537">
        <ele>4.82</ele>
        <time>2020-06-20T08:58:51Z</time>
      </trkpt>
      <trkpt lat="47.13572" lon="-1.73554">
        <ele>4.78</ele>
        <time>2020-06-20T08:58:53Z</time>
      </trkpt>
      <trkpt lat="47.13577" lon="-1.73568">
        <ele>5.86</ele>
        <time>2020-06-20T08:58:55Z</time>
      </trkpt>
      <trkpt lat="47.13582" lon="-1.73583">
        <ele>4.66</ele>
        <time>2020-06-20T08:58:57Z</time>
      </trkpt>
      <trkpt lat="47.13589" lon="-1.73596">
        <ele>4.02</ele>
        <time>2020-06-20T08:58:59Z</time>
      </trkpt>
      <trkpt lat="47.13596" lon="-1.73611">
        <ele>4.82</ele>
        <time>2020-06-20T08:59:01Z</time>
      </trkpt>
      <trkpt lat="47.13602" lon="-1.73626">
        <ele>5.31</ele>
        <time>2020-06-20T08:59:03Z</time>
      </trkpt>
      <trkpt lat="47.13609" lon="-1.73642">
        <ele>4.61</ele>
        <time>2020-06-20T08:59:05Z</time>
      </trkpt>
      <trkpt lat="47.13614" lon="-1.73655">
        <ele>5.73</ele>
        <time>2020-06-20T08:59:07Z</time>
      </trkpt>
      <trkpt lat="47.1362" lon="-1.73669">
        <ele>6.45</ele>
        <time>2020-06-20T08:59:09Z</time>
      </trkpt>
      <trkpt lat="47.13624" lon="-1.73681">
        <ele>7.41</ele>
        <time>2020-06-20T08:59:11Z</time>
      </trkpt>
      <trkpt lat="47.1363" lon="-1.73698">
        <ele>9.52</ele>
        <time>2020-06-20T08:59:13Z</time>
      </trkpt>
      <trkpt lat="47.13633" lon="-1.73712">
        <ele>10.57</ele>
        <time>2020-06-20T08:59:15Z</time>
      </trkpt>
      <trkpt lat="47.13635" lon="-1.73728">
        <ele>10.34</ele>
        <time>2020-06-20T08:59:17Z</time>
      </trkpt>
      <trkpt lat="47.13636" lon="-1.73744">
        <ele>9.52</ele>
        <time>2020-06-20T08:59:19Z</time>
      </trkpt>
      <trkpt lat="47.13638" lon="-1.73764">
        <ele>9.06</ele>
        <time>2020-06-20T08:59:21Z</time>
      </trkpt>
      <trkpt lat="47.1364" lon="-1.73782">
        <ele>8.12</ele>
        <time>2020-06-20T08:59:23Z</time>
      </trkpt>
      <trkpt lat="47.13641" lon="-1.73804">
        <ele>7.73</ele>
        <time>2020-06-20T08:59:25Z</time>
      </trkpt>
      <trkpt lat="47.13643" lon="-1.73827">
        <ele>6.68</ele>
        <time>2020-06-20T08:59:27Z</time>
      </trkpt>
      <trkpt lat="47.13644" lon="-1.73847">
        <ele>5.7</ele>
        <time>2020-06-20T08:59:29Z</time>
      </trkpt>
      <trkpt lat="47.13645" lon="-1.73869">
        <ele>3.58</ele>
        <time>2020-06-20T08:59:31Z</time>
      </trkpt>
      <trkpt lat="47.13645" lon="-1.73887">
        <ele>0.98</ele>
        <time>2020-06-20T08:59:33Z</time>
      </trkpt>
      <trkpt lat="47.13646" lon="-1.73903">
        <ele>-0.11</ele>
        <time>2020-06-20T08:59:35Z</time>
      </trkpt>
      <trkpt lat="47.13647" lon="-1.73918">
        <ele>0.11</ele>
        <time>2020-06-20T08:59:37Z</time>
      </trkpt>
      <trkpt lat="47.13648" lon="-1.73938">
        <ele>2.49</ele>
        <time>2020-06-20T08:59:40Z</time>
      </trkpt>
      <trkpt lat="47.13648" lon="-1.73954">
        <ele>2.38</ele>
        <time>2020-06-20T08:59:43Z</time>
      </trkpt>
      <trkpt lat="47.13648" lon="-1.73972">
        <ele>2.31</ele>
        <time>2020-06-20T08:59:46Z</time>
      </trkpt>
      <trkpt lat="47.13647" lon="-1.73986">
        <ele>2.78</ele>
        <time>2020-06-20T08:59:48Z</time>
      </trkpt>
      <trkpt lat="47.13646" lon="-1.74004">
        <ele>3.11</ele>
        <time>2020-06-20T08:59:51Z</time>
      </trkpt>
      <trkpt lat="47.13645" lon="-1.74017">
        <ele>2.75</ele>
        <time>2020-06-20T08:59:53Z</time>
      </trkpt>
      <trkpt lat="47.13642" lon="-1.74036">
        <ele>2.58</ele>
        <time>2020-06-20T08:59:56Z</time>
      </trkpt>
      <trkpt lat="47.13641" lon="-1.74054">
        <ele>2.53</ele>
        <time>2020-06-20T08:59:59Z</time>
      </trkpt>
      <trkpt lat="47.13641" lon="-1.74072">
        <ele>5.55</ele>
        <time>2020-06-20T09:00:02Z</time>
      </trkpt>
      <trkpt lat="47.13642" lon="-1.74088">
        <ele>5.39</ele>
        <time>2020-06-20T09:00:05Z</time>
      </trkpt>
      <trkpt lat="47.13643" lon="-1.7411">
        <ele>6.97</ele>
        <time>2020-06-20T09:00:08Z</time>
      </trkpt>
      <trkpt lat="47.13643" lon="-1.74125">
        <ele>9.62</ele>
        <time>2020-06-20T09:00:11Z</time>
      </trkpt>
      <trkpt lat="47.13645" lon="-1.74142">
        <ele>12.34</ele>
        <time>2020-06-20T09:00:14Z</time>
      </trkpt>
      <trkpt lat="47.13647" lon="-1.74155">
        <ele>13.03</ele>
        <time>2020-06-20T09:00:16Z</time>
      </trkpt>
      <trkpt lat="47.13651" lon="-1.74171">
        <ele>13.09</ele>
        <time>2020-06-20T09:00:19Z</time>
      </trkpt>
      <trkpt lat="47.13653" lon="-1.74184">
        <ele>12.13</ele>
        <time>2020-06-20T09:00:21Z</time>
      </trkpt>
      <trkpt lat="47.13656" lon="-1.74197">
        <ele>11.53</ele>
        <time>2020-06-20T09:00:23Z</time>
      </trkpt>
      <trkpt lat="47.13661" lon="-1.74215">
        <ele>11.38</ele>
        <time>2020-06-20T09:00:26Z</time>
      </trkpt>
      <trkpt lat="47.13665" lon="-1.74233">
        <ele>11.21</ele>
        <time>2020-06-20T09:00:29Z</time>
      </trkpt>
      <trkpt lat="47.13668" lon="-1.74246">
        <ele>10.52</ele>
        <time>2020-06-20T09:00:31Z</time>
      </trkpt>
      <trkpt lat="47.13673" lon="-1.74263">
        <ele>10.09</ele>
        <time>2020-06-20T09:00:34Z</time>
      </trkpt>
      <trkpt lat="47.13679" lon="-1.74281">
        <ele>9.66</ele>
        <time>2020-06-20T09:00:36Z</time>
      </trkpt>
      <trkpt lat="47.13685" lon="-1.74296">
        <ele>10.25</ele>
        <time>2020-06-20T09:00:38Z</time>
      </trkpt>
      <trkpt lat="47.1369" lon="-1.74312">
        <ele>10.06</ele>
        <time>2020-06-20T09:00:40Z</time>
      </trkpt>
      <trkpt lat="47.13693" lon="-1.7433">
        <ele>10.22</ele>
        <time>2020-06-20T09:00:42Z</time>
      </trkpt>
      <trkpt lat="47.13696" lon="-1.74348">
        <ele>9.67</ele>
        <time>2020-06-20T09:00:44Z</time>
      </trkpt>
      <trkpt lat="47.13697" lon="-1.74368">
        <ele>8.26</ele>
        <time>2020-06-20T09:00:46Z</time>
      </trkpt>
      <trkpt lat="47.13697" lon="-1.7439">
        <ele>8.23</ele>
        <time>2020-06-20T09:00:48Z</time>
      </trkpt>
      <trkpt lat="47.13697" lon="-1.74412">
        <ele>8.1</ele>
        <time>2020-06-20T09:00:50Z</time>
      </trkpt>
      <trkpt lat="47.13696" lon="-1.74436">
        <ele>6.95</ele>
        <time>2020-06-20T09:00:52Z</time>
      </trkpt>
      <trkpt lat="47.13691" lon="-1.74459">
        <ele>6.48</ele>
        <time>2020-06-20T09:00:54Z</time>
      </trkpt>
      <trkpt lat="47.13681" lon="-1.74475">
        <ele>7.89</ele>
        <time>2020-06-20T09:00:56Z</time>
      </trkpt>
      <trkpt lat="47.13669" lon="-1.7449">
        <ele>7.5</ele>
        <time>2020-06-20T09:00:58Z</time>
      </trkpt>
      <trkpt lat="47.13655" lon="-1.74505">
        <ele>7.37</ele>
        <time>2020-06-20T09:01:00Z</time>
      </trkpt>
      <trkpt lat="47.13644" lon="-1.74516">
        <ele>7.46</ele>
        <time>2020-06-20T09:01:02Z</time>
      </trkpt>
      <trkpt lat="47.13634" lon="-1.74524">
        <ele>5.82</ele>
        <time>2020-06-20T09:01:04Z</time>
      </trkpt>
      <trkpt lat="47.13624" lon="-1.74533">
        <ele>4.87</ele>
        <time>2020-06-20T09:01:06Z</time>
      </trkpt>
      <trkpt lat="47.13616" lon="-1.74542">
        <ele>4.92</ele>
        <time>2020-06-20T09:01:07Z</time>
      </trkpt>
      <trkpt lat="47.13605" lon="-1.74554">
        <ele>4.77</ele>
        <time>2020-06-20T09:01:09Z</time>
      </trkpt>
      <trkpt lat="47.13597" lon="-1.74565">
        <ele>5.18</ele>
        <time>2020-06-20T09:01:11Z</time>
      </trkpt>
      <trkpt lat="47.13584" lon="-1.74579">
        <ele>5.7</ele>
        <time>2020-06-20T09:01:13Z</time>
      </trkpt>
      <trkpt lat="47.1357" lon="-1.74592">
        <ele>6.05</ele>
        <time>2020-06-20T09:01:15Z</time>
      </trkpt>
      <trkpt lat="47.13558" lon="-1.74603">
        <ele>4.84</ele>
        <time>2020-06-20T09:01:17Z</time>
      </trkpt>
      <trkpt lat="47.13545" lon="-1.74616">
        <ele>2.38</ele>
        <time>2020-06-20T09:01:19Z</time>
      </trkpt>
      <trkpt lat="47.13532" lon="-1.74628">
        <ele>1.37</ele>
        <time>2020-06-20T09:01:21Z</time>
      </trkpt>
      <trkpt lat="47.13522" lon="-1.74636">
        <ele>1.83</ele>
        <time>2020-06-20T09:01:23Z</time>
      </trkpt>
      <trkpt lat="47.13512" lon="-1.74645">
        <ele>2.34</ele>
        <time>2020-06-20T09:01:25Z</time>
      </trkpt>
      <trkpt lat="47.13504" lon="-1.74652">
        <ele>3.19</ele>
        <time>2020-06-20T09:01:27Z</time>
      </trkpt>
      <trkpt lat="47.13497" lon="-1.74661">
        <ele>5.02</ele>
        <time>2020-06-20T09:01:29Z</time>
      </trkpt>
      <trkpt lat="47.1349" lon="-1.74673">
        <ele>5.79</ele>
        <time>2020-06-20T09:01:31Z</time>
      </trkpt>
      <trkpt lat="47.13483" lon="-1.74691">
        <ele>7.84</ele>
        <time>2020-06-20T09:01:34Z</time>
      </trkpt>
      <trkpt lat="47.1348" lon="-1.74705">
        <ele>7.68</ele>
        <time>2020-06-20T09:01:36Z</time>
      </trkpt>
      <trkpt lat="47.13478" lon="-1.74718">
        <ele>7.69</ele>
        <time>2020-06-20T09:01:39Z</time>
      </trkpt>
      <trkpt lat="47.13472" lon="-1.74731">
        <ele>8.74</ele>
        <time>2020-06-20T09:01:42Z</time>
      </trkpt>
      <trkpt lat="47.13464" lon="-1.74739">
        <ele>10.69</ele>
        <time>2020-06-20T09:01:44Z</time>
      </trkpt>
      <trkpt lat="47.13456" lon="-1.7475">
        <ele>10.53</ele>
        <time>2020-06-20T09:01:47Z</time>
      </trkpt>
      <trkpt lat="47.13446" lon="-1.74755">
        <ele>10.9</ele>
        <time>2020-06-20T09:01:49Z</time>
      </trkpt>
      <trkpt lat="47.13437" lon="-1.7476">
        <ele>11.02</ele>
        <time>2020-06-20T09:01:51Z</time>
      </trkpt>
      <trkpt lat="47.13425" lon="-1.74764">
        <ele>10.86</ele>
        <time>2020-06-20T09:01:54Z</time>
      </trkpt>
      <trkpt lat="47.13417" lon="-1.74772">
        <ele>10.43</ele>
        <time>2020-06-20T09:01:56Z</time>
      </trkpt>
      <trkpt lat="47.13409" lon="-1.74781">
        <ele>9.46</ele>
        <time>2020-06-20T09:01:58Z</time>
      </trkpt>
      <trkpt lat="47.134" lon="-1.74788">
        <ele>9.89</ele>
        <time>2020-06-20T09:02:01Z</time>
      </trkpt>
      <trkpt lat="47.13389" lon="-1.74796">
        <ele>13.4</ele>
        <time>2020-06-20T09:02:04Z</time>
      </trkpt>
      <trkpt lat="47.1338" lon="-1.74813">
        <ele>17.65</ele>
        <time>2020-06-20T09:02:07Z</time>
      </trkpt>
      <trkpt lat="47.13376" lon="-1.74827">
        <ele>18.84</ele>
        <time>2020-06-20T09:02:09Z</time>
      </trkpt>
      <trkpt lat="47.13372" lon="-1.74839">
        <ele>19.11</ele>
        <time>2020-06-20T09:02:11Z</time>
      </trkpt>
      <trkpt lat="47.13367" lon="-1.74857">
        <ele>20.12</ele>
        <time>2020-06-20T09:02:14Z</time>
      </trkpt>
      <trkpt lat="47.13364" lon="-1.7487">
        <ele>20.37</ele>
        <time>2020-06-20T09:02:16Z</time>
      </trkpt>
      <trkpt lat="47.1336" lon="-1.74885">
        <ele>19.13</ele>
        <time>2020-06-20T09:02:19Z</time>
      </trkpt>
      <trkpt lat="47.13355" lon="-1.74903">
        <ele>19.43</ele>
        <time>2020-06-20T09:02:22Z</time>
      </trkpt>
      <trkpt lat="47.1335" lon="-1.74916">
        <ele>19.01</ele>
        <time>2020-06-20T09:02:24Z</time>
      </trkpt>
      <trkpt lat="47.13345" lon="-1.74929">
        <ele>18.09</ele>
        <time>2020-06-20T09:02:26Z</time>
      </trkpt>
      <trkpt lat="47.1334" lon="-1.74943">
        <ele>15.52</ele>
        <time>2020-06-20T09:02:28Z</time>
      </trkpt>
      <trkpt lat="47.13334" lon="-1.74957">
        <ele>13.36</ele>
        <time>2020-06-20T09:02:30Z</time>
      </trkpt>
      <trkpt lat="47.13329" lon="-1.74969">
        <ele>12.55</ele>
        <time>2020-06-20T09:02:32Z</time>
      </trkpt>
      <trkpt lat="47.1332" lon="-1.74985">
        <ele>10.74</ele>
        <time>2020-06-20T09:02:35Z</time>
      </trkpt>
      <trkpt lat="47.13314" lon="-1.74995">
        <ele>10.6</ele>
        <time>2020-06-20T09:02:37Z</time>
      </trkpt>
      <trkpt lat="47.13304" lon="-1.75007">
        <ele>11.54</ele>
        <time>2020-06-20T09:02:40Z</time>
      </trkpt>
      <trkpt lat="47.13294" lon="-1.75016">
        <ele>13.21</ele>
        <time>2020-06-20T09:02:43Z</time>
      </trkpt>
      <trkpt lat="47.13286" lon="-1.75023">
        <ele>13.9</ele>
        <time>2020-06-20T09:02:45Z</time>
      </trkpt>
      <trkpt lat="47.13278" lon="-1.7503">
        <ele>12.78</ele>
        <time>2020-06-20T09:02:47Z</time>
      </trkpt>
      <trkpt lat="47.1327" lon="-1.75039">
        <ele>12.3</ele>
        <time>2020-06-20T09:02:49Z</time>
      </trkpt>
      <trkpt lat="47.1326" lon="-1.75044">
        <ele>11.92</ele>
        <time>2020-06-20T09:02:51Z</time>
      </trkpt>
      <trkpt lat="47.13249" lon="-1.75054">
        <ele>12.01</ele>
        <time>2020-06-20T09:02:54Z</time>
      </trkpt>
      <trkpt lat="47.13237" lon="-1.75064">
        <ele>13.11</ele>
        <time>2020-06-20T09:02:57Z</time>
      </trkpt>
      <trkpt lat="47.13227" lon="-1.75073">
        <ele>13.36</ele>
        <time>2020-06-20T09:02:59Z</time>
      </trkpt>
      <trkpt lat="47.13218" lon="-1.75083">
        <ele>15.47</ele>
        <time>2020-06-20T09:03:02Z</time>
      </trkpt>
      <trkpt lat="47.13212" lon="-1.75092">
        <ele>18.41</ele>
        <time>2020-06-20T09:03:04Z</time>
      </trkpt>
      <trkpt lat="47.13205" lon="-1.75104">
        <ele>20.21</ele>
        <time>2020-06-20T09:03:07Z</time>
      </trkpt>
      <trkpt lat="47.13198" lon="-1.75114">
        <ele>19.64</ele>
        <time>2020-06-20T09:03:09Z</time>
      </trkpt>
      <trkpt lat="47.13192" lon="-1.75127">
        <ele>20.76</ele>
        <time>2020-06-20T09:03:11Z</time>
      </trkpt>
      <trkpt lat="47.13187" lon="-1.75138">
        <ele>20.14</ele>
        <time>2020-06-20T09:03:13Z</time>
      </trkpt>
      <trkpt lat="47.13179" lon="-1.75153">
        <ele>17.72</ele>
        <time>2020-06-20T09:03:16Z</time>
      </trkpt>
      <trkpt lat="47.13173" lon="-1.75167">
        <ele>16.78</ele>
        <time>2020-06-20T09:03:18Z</time>
      </trkpt>
      <trkpt lat="47.13166" lon="-1.75183">
        <ele>16.26</ele>
        <time>2020-06-20T09:03:21Z</time>
      </trkpt>
      <trkpt lat="47.1316" lon="-1.75202">
        <ele>16</ele>
        <time>2020-06-20T09:03:24Z</time>
      </trkpt>
      <trkpt lat="47.13157" lon="-1.75216">
        <ele>15.88</ele>
        <time>2020-06-20T09:03:26Z</time>
      </trkpt>
      <trkpt lat="47.13154" lon="-1.75232">
        <ele>16.6</ele>
        <time>2020-06-20T09:03:28Z</time>
      </trkpt>
      <trkpt lat="47.1315" lon="-1.75249">
        <ele>18.24</ele>
        <time>2020-06-20T09:03:31Z</time>
      </trkpt>
      <trkpt lat="47.13147" lon="-1.75267">
        <ele>19.15</ele>
        <time>2020-06-20T09:03:34Z</time>
      </trkpt>
      <trkpt lat="47.13147" lon="-1.75282">
        <ele>19.07</ele>
        <time>2020-06-20T09:03:36Z</time>
      </trkpt>
      <trkpt lat="47.13143" lon="-1.75298">
        <ele>17.62</ele>
        <time>2020-06-20T09:03:39Z</time>
      </trkpt>
      <trkpt lat="47.13138" lon="-1.75317">
        <ele>14.47</ele>
        <time>2020-06-20T09:03:42Z</time>
      </trkpt>
      <trkpt lat="47.13135" lon="-1.7533">
        <ele>15.74</ele>
        <time>2020-06-20T09:03:44Z</time>
      </trkpt>
      <trkpt lat="47.13131" lon="-1.75345">
        <ele>15.41</ele>
        <time>2020-06-20T09:03:46Z</time>
      </trkpt>
      <trkpt lat="47.13128" lon="-1.7536">
        <ele>14.95</ele>
        <time>2020-06-20T09:03:48Z</time>
      </trkpt>
      <trkpt lat="47.13126" lon="-1.75373">
        <ele>13.79</ele>
        <time>2020-06-20T09:03:50Z</time>
      </trkpt>
      <trkpt lat="47.13122" lon="-1.7539">
        <ele>14.01</ele>
        <time>2020-06-20T09:03:53Z</time>
      </trkpt>
      <trkpt lat="47.13117" lon="-1.75405">
        <ele>15.57</ele>
        <time>2020-06-20T09:03:56Z</time>
      </trkpt>
      <trkpt lat="47.13113" lon="-1.75419">
        <ele>15.92</ele>
        <time>2020-06-20T09:03:59Z</time>
      </trkpt>
      <trkpt lat="47.13114" lon="-1.75437">
        <ele>16.99</ele>
        <time>2020-06-20T09:04:05Z</time>
      </trkpt>
      <trkpt lat="47.13108" lon="-1.75456">
        <ele>18.58</ele>
        <time>2020-06-20T09:04:08Z</time>
      </trkpt>
      <trkpt lat="47.13106" lon="-1.75474">
        <ele>18.82</ele>
        <time>2020-06-20T09:04:10Z</time>
      </trkpt>
      <trkpt lat="47.13105" lon="-1.75489">
        <ele>17.67</ele>
        <time>2020-06-20T09:04:12Z</time>
      </trkpt>
      <trkpt lat="47.13104" lon="-1.75503">
        <ele>17.95</ele>
        <time>2020-06-20T09:04:14Z</time>
      </trkpt>
      <trkpt lat="47.13103" lon="-1.75518">
        <ele>17.53</ele>
        <time>2020-06-20T09:04:16Z</time>
      </trkpt>
      <trkpt lat="47.131" lon="-1.75532">
        <ele>18.75</ele>
        <time>2020-06-20T09:04:18Z</time>
      </trkpt>
      <trkpt lat="47.13097" lon="-1.75546">
        <ele>20.27</ele>
        <time>2020-06-20T09:04:20Z</time>
      </trkpt>
      <trkpt lat="47.13093" lon="-1.75565">
        <ele>22.29</ele>
        <time>2020-06-20T09:04:23Z</time>
      </trkpt>
      <trkpt lat="47.13092" lon="-1.75579">
        <ele>22.81</ele>
        <time>2020-06-20T09:04:25Z</time>
      </trkpt>
      <trkpt lat="47.13089" lon="-1.75595">
        <ele>21.96</ele>
        <time>2020-06-20T09:04:27Z</time>
      </trkpt>
      <trkpt lat="47.13086" lon="-1.75612">
        <ele>20.89</ele>
        <time>2020-06-20T09:04:29Z</time>
      </trkpt>
      <trkpt lat="47.13084" lon="-1.75625">
        <ele>18.85</ele>
        <time>2020-06-20T09:04:31Z</time>
      </trkpt>
      <trkpt lat="47.13082" lon="-1.75637">
        <ele>18.57</ele>
        <time>2020-06-20T09:04:33Z</time>
      </trkpt>
      <trkpt lat="47.13079" lon="-1.75653">
        <ele>20.51</ele>
        <time>2020-06-20T09:04:35Z</time>
      </trkpt>
      <trkpt lat="47.13076" lon="-1.75669">
        <ele>21.15</ele>
        <time>2020-06-20T09:04:37Z</time>
      </trkpt>
      <trkpt lat="47.13073" lon="-1.75684">
        <ele>22.18</ele>
        <time>2020-06-20T09:04:39Z</time>
      </trkpt>
      <trkpt lat="47.13069" lon="-1.75701">
        <ele>23.55</ele>
        <time>2020-06-20T09:04:42Z</time>
      </trkpt>
      <trkpt lat="47.13065" lon="-1.75715">
        <ele>23.89</ele>
        <time>2020-06-20T09:04:44Z</time>
      </trkpt>
      <trkpt lat="47.13059" lon="-1.7573">
        <ele>24.67</ele>
        <time>2020-06-20T09:04:47Z</time>
      </trkpt>
      <trkpt lat="47.13053" lon="-1.75744">
        <ele>24.03</ele>
        <time>2020-06-20T09:04:49Z</time>
      </trkpt>
      <trkpt lat="47.13046" lon="-1.75757">
        <ele>24.65</ele>
        <time>2020-06-20T09:04:51Z</time>
      </trkpt>
      <trkpt lat="47.13039" lon="-1.75767">
        <ele>24.2</ele>
        <time>2020-06-20T09:04:53Z</time>
      </trkpt>
      <trkpt lat="47.13029" lon="-1.75782">
        <ele>24.7</ele>
        <time>2020-06-20T09:04:56Z</time>
      </trkpt>
      <trkpt lat="47.13023" lon="-1.75793">
        <ele>26.22</ele>
        <time>2020-06-20T09:04:58Z</time>
      </trkpt>
      <trkpt lat="47.13016" lon="-1.75807">
        <ele>28.31</ele>
        <time>2020-06-20T09:05:00Z</time>
      </trkpt>
      <trkpt lat="47.13009" lon="-1.7582">
        <ele>27.67</ele>
        <time>2020-06-20T09:05:02Z</time>
      </trkpt>
      <trkpt lat="47.13005" lon="-1.75833">
        <ele>26.96</ele>
        <time>2020-06-20T09:05:04Z</time>
      </trkpt>
      <trkpt lat="47.13006" lon="-1.75847">
        <ele>26.01</ele>
        <time>2020-06-20T09:05:06Z</time>
      </trkpt>
      <trkpt lat="47.13008" lon="-1.75861">
        <ele>25.55</ele>
        <time>2020-06-20T09:05:08Z</time>
      </trkpt>
      <trkpt lat="47.13007" lon="-1.75875">
        <ele>25.52</ele>
        <time>2020-06-20T09:05:10Z</time>
      </trkpt>
      <trkpt lat="47.13006" lon="-1.75888">
        <ele>24.98</ele>
        <time>2020-06-20T09:05:12Z</time>
      </trkpt>
      <trkpt lat="47.13003" lon="-1.75902">
        <ele>25.7</ele>
        <time>2020-06-20T09:05:14Z</time>
      </trkpt>
      <trkpt lat="47.13" lon="-1.75915">
        <ele>26.82</ele>
        <time>2020-06-20T09:05:16Z</time>
      </trkpt>
      <trkpt lat="47.12997" lon="-1.75933">
        <ele>26.99</ele>
        <time>2020-06-20T09:05:19Z</time>
      </trkpt>
      <trkpt lat="47.12994" lon="-1.75951">
        <ele>27.14</ele>
        <time>2020-06-20T09:05:21Z</time>
      </trkpt>
      <trkpt lat="47.1299" lon="-1.75968">
        <ele>27.01</ele>
        <time>2020-06-20T09:05:23Z</time>
      </trkpt>
      <trkpt lat="47.12988" lon="-1.75982">
        <ele>26.69</ele>
        <time>2020-06-20T09:05:25Z</time>
      </trkpt>
      <trkpt lat="47.12986" lon="-1.75997">
        <ele>26.44</ele>
        <time>2020-06-20T09:05:27Z</time>
      </trkpt>
      <trkpt lat="47.12986" lon="-1.76012">
        <ele>25.08</ele>
        <time>2020-06-20T09:05:29Z</time>
      </trkpt>
      <trkpt lat="47.12985" lon="-1.7603">
        <ele>24.31</ele>
        <time>2020-06-20T09:05:31Z</time>
      </trkpt>
      <trkpt lat="47.12984" lon="-1.76045">
        <ele>23.62</ele>
        <time>2020-06-20T09:05:33Z</time>
      </trkpt>
      <trkpt lat="47.12984" lon="-1.76061">
        <ele>23.64</ele>
        <time>2020-06-20T09:05:35Z</time>
      </trkpt>
      <trkpt lat="47.12985" lon="-1.76081">
        <ele>24.72</ele>
        <time>2020-06-20T09:05:38Z</time>
      </trkpt>
      <trkpt lat="47.12987" lon="-1.76095">
        <ele>26.12</ele>
        <time>2020-06-20T09:05:40Z</time>
      </trkpt>
      <trkpt lat="47.1299" lon="-1.76114">
        <ele>26.07</ele>
        <time>2020-06-20T09:05:43Z</time>
      </trkpt>
      <trkpt lat="47.12991" lon="-1.76129">
        <ele>25.91</ele>
        <time>2020-06-20T09:05:45Z</time>
      </trkpt>
      <trkpt lat="47.12994" lon="-1.76145">
        <ele>27.46</ele>
        <time>2020-06-20T09:05:48Z</time>
      </trkpt>
      <trkpt lat="47.12998" lon="-1.76159">
        <ele>29.35</ele>
        <time>2020-06-20T09:05:50Z</time>
      </trkpt>
      <trkpt lat="47.13002" lon="-1.76174">
        <ele>29.25</ele>
        <time>2020-06-20T09:05:52Z</time>
      </trkpt>
      <trkpt lat="47.13006" lon="-1.7619">
        <ele>29.26</ele>
        <time>2020-06-20T09:05:54Z</time>
      </trkpt>
      <trkpt lat="47.1301" lon="-1.76203">
        <ele>28.76</ele>
        <time>2020-06-20T09:05:56Z</time>
      </trkpt>
      <trkpt lat="47.13013" lon="-1.76219">
        <ele>28.5</ele>
        <time>2020-06-20T09:05:59Z</time>
      </trkpt>
      <trkpt lat="47.13016" lon="-1.76234">
        <ele>28.56</ele>
        <time>2020-06-20T09:06:01Z</time>
      </trkpt>
      <trkpt lat="47.13021" lon="-1.76249">
        <ele>27.92</ele>
        <time>2020-06-20T09:06:03Z</time>
      </trkpt>
      <trkpt lat="47.13025" lon="-1.76265">
        <ele>27.86</ele>
        <time>2020-06-20T09:06:06Z</time>
      </trkpt>
      <trkpt lat="47.13028" lon="-1.76282">
        <ele>29.79</ele>
        <time>2020-06-20T09:06:09Z</time>
      </trkpt>
      <trkpt lat="47.13032" lon="-1.76303">
        <ele>30.14</ele>
        <time>2020-06-20T09:06:12Z</time>
      </trkpt>
      <trkpt lat="47.13035" lon="-1.76321">
        <ele>29.84</ele>
        <time>2020-06-20T09:06:14Z</time>
      </trkpt>
      <trkpt lat="47.13039" lon="-1.76339">
        <ele>28.36</ele>
        <time>2020-06-20T09:06:17Z</time>
      </trkpt>
      <trkpt lat="47.13043" lon="-1.76361">
        <ele>29.48</ele>
        <time>2020-06-20T09:06:20Z</time>
      </trkpt>
      <trkpt lat="47.13046" lon="-1.76376">
        <ele>28.19</ele>
        <time>2020-06-20T09:06:22Z</time>
      </trkpt>
      <trkpt lat="47.13049" lon="-1.76391">
        <ele>27.82</ele>
        <time>2020-06-20T09:06:24Z</time>
      </trkpt>
      <trkpt lat="47.1305" lon="-1.76409">
        <ele>27.43</ele>
        <time>2020-06-20T09:06:27Z</time>
      </trkpt>
      <trkpt lat="47.13051" lon="-1.76425">
        <ele>27.65</ele>
        <time>2020-06-20T09:06:29Z</time>
      </trkpt>
      <trkpt lat="47.13052" lon="-1.76447">
        <ele>26.84</ele>
        <time>2020-06-20T09:06:32Z</time>
      </trkpt>
      <trkpt lat="47.13053" lon="-1.76464">
        <ele>25.85</ele>
        <time>2020-06-20T09:06:34Z</time>
      </trkpt>
      <trkpt lat="47.13055" lon="-1.76484">
        <ele>24.47</ele>
        <time>2020-06-20T09:06:37Z</time>
      </trkpt>
      <trkpt lat="47.13056" lon="-1.76499">
        <ele>24.23</ele>
        <time>2020-06-20T09:06:39Z</time>
      </trkpt>
      <trkpt lat="47.13057" lon="-1.76513">
        <ele>23.94</ele>
        <time>2020-06-20T09:06:41Z</time>
      </trkpt>
      <trkpt lat="47.13057" lon="-1.76528">
        <ele>23.66</ele>
        <time>2020-06-20T09:06:43Z</time>
      </trkpt>
      <trkpt lat="47.13058" lon="-1.76543">
        <ele>24.2</ele>
        <time>2020-06-20T09:06:45Z</time>
      </trkpt>
      <trkpt lat="47.13059" lon="-1.76557">
        <ele>25.31</ele>
        <time>2020-06-20T09:06:47Z</time>
      </trkpt>
      <trkpt lat="47.1306" lon="-1.7657">
        <ele>26.6</ele>
        <time>2020-06-20T09:06:49Z</time>
      </trkpt>
      <trkpt lat="47.13061" lon="-1.76584">
        <ele>26.6</ele>
        <time>2020-06-20T09:06:51Z</time>
      </trkpt>
      <trkpt lat="47.13062" lon="-1.76598">
        <ele>27.12</ele>
        <time>2020-06-20T09:06:53Z</time>
      </trkpt>
      <trkpt lat="47.13062" lon="-1.76612">
        <ele>27.03</ele>
        <time>2020-06-20T09:06:55Z</time>
      </trkpt>
      <trkpt lat="47.13065" lon="-1.76632">
        <ele>26.6</ele>
        <time>2020-06-20T09:06:58Z</time>
      </trkpt>
      <trkpt lat="47.13068" lon="-1.7665">
        <ele>26.11</ele>
        <time>2020-06-20T09:07:00Z</time>
      </trkpt>
      <trkpt lat="47.13069" lon="-1.76665">
        <ele>25.44</ele>
        <time>2020-06-20T09:07:02Z</time>
      </trkpt>
      <trkpt lat="47.1307" lon="-1.76682">
        <ele>24.07</ele>
        <time>2020-06-20T09:07:05Z</time>
      </trkpt>
      <trkpt lat="47.13068" lon="-1.76697">
        <ele>25.49</ele>
        <time>2020-06-20T09:07:07Z</time>
      </trkpt>
      <trkpt lat="47.13066" lon="-1.76711">
        <ele>25.96</ele>
        <time>2020-06-20T09:07:09Z</time>
      </trkpt>
      <trkpt lat="47.13064" lon="-1.76727">
        <ele>27.77</ele>
        <time>2020-06-20T09:07:11Z</time>
      </trkpt>
      <trkpt lat="47.13063" lon="-1.76744">
        <ele>27.6</ele>
        <time>2020-06-20T09:07:13Z</time>
      </trkpt>
      <trkpt lat="47.13062" lon="-1.76758">
        <ele>27.41</ele>
        <time>2020-06-20T09:07:15Z</time>
      </trkpt>
      <trkpt lat="47.1306" lon="-1.76775">
        <ele>26.32</ele>
        <time>2020-06-20T09:07:17Z</time>
      </trkpt>
      <trkpt lat="47.13057" lon="-1.7679">
        <ele>27.55</ele>
        <time>2020-06-20T09:07:19Z</time>
      </trkpt>
      <trkpt lat="47.13056" lon="-1.76804">
        <ele>28.59</ele>
        <time>2020-06-20T09:07:21Z</time>
      </trkpt>
      <trkpt lat="47.13054" lon="-1.76817">
        <ele>26.83</ele>
        <time>2020-06-20T09:07:23Z</time>
      </trkpt>
      <trkpt lat="47.13053" lon="-1.76832">
        <ele>26.21</ele>
        <time>2020-06-20T09:07:25Z</time>
      </trkpt>
      <trkpt lat="47.13051" lon="-1.76847">
        <ele>25.61</ele>
        <time>2020-06-20T09:07:27Z</time>
      </trkpt>
      <trkpt lat="47.1305" lon="-1.76866">
        <ele>25.06</ele>
        <time>2020-06-20T09:07:29Z</time>
      </trkpt>
      <trkpt lat="47.13048" lon="-1.76881">
        <ele>24.11</ele>
        <time>2020-06-20T09:07:31Z</time>
      </trkpt>
      <trkpt lat="47.13047" lon="-1.76896">
        <ele>24.21</ele>
        <time>2020-06-20T09:07:33Z</time>
      </trkpt>
      <trkpt lat="47.13045" lon="-1.76909">
        <ele>25.6</ele>
        <time>2020-06-20T09:07:35Z</time>
      </trkpt>
      <trkpt lat="47.13043" lon="-1.76929">
        <ele>27.69</ele>
        <time>2020-06-20T09:07:38Z</time>
      </trkpt>
      <trkpt lat="47.13041" lon="-1.76945">
        <ele>29.14</ele>
        <time>2020-06-20T09:07:40Z</time>
      </trkpt>
      <trkpt lat="47.1304" lon="-1.7696">
        <ele>30.32</ele>
        <time>2020-06-20T09:07:42Z</time>
      </trkpt>
      <trkpt lat="47.13038" lon="-1.76981">
        <ele>29.8</ele>
        <time>2020-06-20T09:07:45Z</time>
      </trkpt>
      <trkpt lat="47.13038" lon="-1.76994">
        <ele>30.62</ele>
        <time>2020-06-20T09:07:47Z</time>
      </trkpt>
      <trkpt lat="47.13038" lon="-1.77008">
        <ele>30.25</ele>
        <time>2020-06-20T09:07:49Z</time>
      </trkpt>
      <trkpt lat="47.13038" lon="-1.77028">
        <ele>31.11</ele>
        <time>2020-06-20T09:07:52Z</time>
      </trkpt>
      <trkpt lat="47.13036" lon="-1.77044">
        <ele>31.01</ele>
        <time>2020-06-20T09:07:54Z</time>
      </trkpt>
      <trkpt lat="47.13033" lon="-1.77065">
        <ele>30.12</ele>
        <time>2020-06-20T09:07:57Z</time>
      </trkpt>
      <trkpt lat="47.13033" lon="-1.77079">
        <ele>29.71</ele>
        <time>2020-06-20T09:07:59Z</time>
      </trkpt>
      <trkpt lat="47.13031" lon="-1.77093">
        <ele>29.49</ele>
        <time>2020-06-20T09:08:01Z</time>
      </trkpt>
      <trkpt lat="47.13029" lon="-1.77107">
        <ele>28.18</ele>
        <time>2020-06-20T09:08:03Z</time>
      </trkpt>
      <trkpt lat="47.13027" lon="-1.77122">
        <ele>27.86</ele>
        <time>2020-06-20T09:08:05Z</time>
      </trkpt>
      <trkpt lat="47.13025" lon="-1.77139">
        <ele>28.46</ele>
        <time>2020-06-20T09:08:07Z</time>
      </trkpt>
      <trkpt lat="47.13023" lon="-1.77158">
        <ele>27.94</ele>
        <time>2020-06-20T09:08:10Z</time>
      </trkpt>
      <trkpt lat="47.13019" lon="-1.77178">
        <ele>28.48</ele>
        <time>2020-06-20T09:08:13Z</time>
      </trkpt>
      <trkpt lat="47.13015" lon="-1.77193">
        <ele>29.03</ele>
        <time>2020-06-20T09:08:15Z</time>
      </trkpt>
      <trkpt lat="47.13011" lon="-1.77212">
        <ele>29.61</ele>
        <time>2020-06-20T09:08:18Z</time>
      </trkpt>
      <trkpt lat="47.13007" lon="-1.77224">
        <ele>28.84</ele>
        <time>2020-06-20T09:08:20Z</time>
      </trkpt>
      <trkpt lat="47.13004" lon="-1.77238">
        <ele>27.92</ele>
        <time>2020-06-20T09:08:22Z</time>
      </trkpt>
      <trkpt lat="47.13" lon="-1.7725">
        <ele>28.41</ele>
        <time>2020-06-20T09:08:24Z</time>
      </trkpt>
      <trkpt lat="47.12996" lon="-1.77264">
        <ele>27.8</ele>
        <time>2020-06-20T09:08:26Z</time>
      </trkpt>
      <trkpt lat="47.12991" lon="-1.77279">
        <ele>28.01</ele>
        <time>2020-06-20T09:08:28Z</time>
      </trkpt>
      <trkpt lat="47.12987" lon="-1.77293">
        <ele>28.35</ele>
        <time>2020-06-20T09:08:30Z</time>
      </trkpt>
      <trkpt lat="47.12981" lon="-1.77308">
        <ele>28.26</ele>
        <time>2020-06-20T09:08:32Z</time>
      </trkpt>
      <trkpt lat="47.12975" lon="-1.77323">
        <ele>28.72</ele>
        <time>2020-06-20T09:08:34Z</time>
      </trkpt>
      <trkpt lat="47.12969" lon="-1.77336">
        <ele>31.08</ele>
        <time>2020-06-20T09:08:36Z</time>
      </trkpt>
      <trkpt lat="47.12964" lon="-1.7735">
        <ele>31.78</ele>
        <time>2020-06-20T09:08:38Z</time>
      </trkpt>
      <trkpt lat="47.12958" lon="-1.77364">
        <ele>31.9</ele>
        <time>2020-06-20T09:08:40Z</time>
      </trkpt>
      <trkpt lat="47.12952" lon="-1.77378">
        <ele>30.18</ele>
        <time>2020-06-20T09:08:42Z</time>
      </trkpt>
      <trkpt lat="47.12945" lon="-1.77392">
        <ele>30.16</ele>
        <time>2020-06-20T09:08:44Z</time>
      </trkpt>
      <trkpt lat="47.1294" lon="-1.77405">
        <ele>31.51</ele>
        <time>2020-06-20T09:08:46Z</time>
      </trkpt>
      <trkpt lat="47.12935" lon="-1.7742">
        <ele>32.26</ele>
        <time>2020-06-20T09:08:48Z</time>
      </trkpt>
      <trkpt lat="47.1293" lon="-1.77432">
        <ele>32.51</ele>
        <time>2020-06-20T09:08:50Z</time>
      </trkpt>
      <trkpt lat="47.12924" lon="-1.77449">
        <ele>32.29</ele>
        <time>2020-06-20T09:08:52Z</time>
      </trkpt>
      <trkpt lat="47.12918" lon="-1.77468">
        <ele>31.2</ele>
        <time>2020-06-20T09:08:54Z</time>
      </trkpt>
      <trkpt lat="47.12915" lon="-1.7748">
        <ele>30.37</ele>
        <time>2020-06-20T09:08:56Z</time>
      </trkpt>
      <trkpt lat="47.12912" lon="-1.77496">
        <ele>28.92</ele>
        <time>2020-06-20T09:08:58Z</time>
      </trkpt>
      <trkpt lat="47.12908" lon="-1.77513">
        <ele>27.64</ele>
        <time>2020-06-20T09:09:00Z</time>
      </trkpt>
      <trkpt lat="47.12904" lon="-1.77531">
        <ele>27.91</ele>
        <time>2020-06-20T09:09:03Z</time>
      </trkpt>
      <trkpt lat="47.12901" lon="-1.77545">
        <ele>27.14</ele>
        <time>2020-06-20T09:09:05Z</time>
      </trkpt>
      <trkpt lat="47.12897" lon="-1.77559">
        <ele>26.63</ele>
        <time>2020-06-20T09:09:07Z</time>
      </trkpt>
      <trkpt lat="47.12894" lon="-1.77573">
        <ele>25.81</ele>
        <time>2020-06-20T09:09:09Z</time>
      </trkpt>
      <trkpt lat="47.12888" lon="-1.7759">
        <ele>29.69</ele>
        <time>2020-06-20T09:09:12Z</time>
      </trkpt>
      <trkpt lat="47.12882" lon="-1.77609">
        <ele>33</ele>
        <time>2020-06-20T09:09:15Z</time>
      </trkpt>
      <trkpt lat="47.12879" lon="-1.77622">
        <ele>34.29</ele>
        <time>2020-06-20T09:09:17Z</time>
      </trkpt>
      <trkpt lat="47.12874" lon="-1.77634">
        <ele>36</ele>
        <time>2020-06-20T09:09:19Z</time>
      </trkpt>
      <trkpt lat="47.1287" lon="-1.77647">
        <ele>36.29</ele>
        <time>2020-06-20T09:09:21Z</time>
      </trkpt>
      <trkpt lat="47.12865" lon="-1.77664">
        <ele>36.65</ele>
        <time>2020-06-20T09:09:24Z</time>
      </trkpt>
      <trkpt lat="47.1286" lon="-1.7768">
        <ele>36.81</ele>
        <time>2020-06-20T09:09:26Z</time>
      </trkpt>
      <trkpt lat="47.12855" lon="-1.77696">
        <ele>38.37</ele>
        <time>2020-06-20T09:09:28Z</time>
      </trkpt>
      <trkpt lat="47.12852" lon="-1.77712">
        <ele>41.67</ele>
        <time>2020-06-20T09:09:30Z</time>
      </trkpt>
      <trkpt lat="47.12848" lon="-1.77728">
        <ele>43.67</ele>
        <time>2020-06-20T09:09:32Z</time>
      </trkpt>
      <trkpt lat="47.12843" lon="-1.77744">
        <ele>43.9</ele>
        <time>2020-06-20T09:09:34Z</time>
      </trkpt>
      <trkpt lat="47.12839" lon="-1.77759">
        <ele>42.66</ele>
        <time>2020-06-20T09:09:36Z</time>
      </trkpt>
      <trkpt lat="47.12832" lon="-1.7778">
        <ele>39.57</ele>
        <time>2020-06-20T09:09:39Z</time>
      </trkpt>
      <trkpt lat="47.12827" lon="-1.77795">
        <ele>37.52</ele>
        <time>2020-06-20T09:09:41Z</time>
      </trkpt>
      <trkpt lat="47.12821" lon="-1.77812">
        <ele>35.64</ele>
        <time>2020-06-20T09:09:43Z</time>
      </trkpt>
      <trkpt lat="47.12816" lon="-1.77826">
        <ele>34.57</ele>
        <time>2020-06-20T09:09:45Z</time>
      </trkpt>
      <trkpt lat="47.12811" lon="-1.77839">
        <ele>33.8</ele>
        <time>2020-06-20T09:09:47Z</time>
      </trkpt>
      <trkpt lat="47.12806" lon="-1.77854">
        <ele>34.2</ele>
        <time>2020-06-20T09:09:49Z</time>
      </trkpt>
      <trkpt lat="47.12801" lon="-1.7787">
        <ele>33.95</ele>
        <time>2020-06-20T09:09:51Z</time>
      </trkpt>
      <trkpt lat="47.12797" lon="-1.77886">
        <ele>32.94</ele>
        <time>2020-06-20T09:09:53Z</time>
      </trkpt>
      <trkpt lat="47.12793" lon="-1.77901">
        <ele>31.6</ele>
        <time>2020-06-20T09:09:55Z</time>
      </trkpt>
      <trkpt lat="47.12789" lon="-1.77914">
        <ele>30.13</ele>
        <time>2020-06-20T09:09:57Z</time>
      </trkpt>
      <trkpt lat="47.12785" lon="-1.77929">
        <ele>30.03</ele>
        <time>2020-06-20T09:09:59Z</time>
      </trkpt>
      <trkpt lat="47.12781" lon="-1.77944">
        <ele>30.23</ele>
        <time>2020-06-20T09:10:01Z</time>
      </trkpt>
      <trkpt lat="47.12777" lon="-1.77959">
        <ele>29.86</ele>
        <time>2020-06-20T09:10:03Z</time>
      </trkpt>
      <trkpt lat="47.12773" lon="-1.77973">
        <ele>28.84</ele>
        <time>2020-06-20T09:10:05Z</time>
      </trkpt>
      <trkpt lat="47.12769" lon="-1.77988">
        <ele>28.16</ele>
        <time>2020-06-20T09:10:07Z</time>
      </trkpt>
      <trkpt lat="47.12765" lon="-1.78002">
        <ele>28.36</ele>
        <time>2020-06-20T09:10:09Z</time>
      </trkpt>
      <trkpt lat="47.1276" lon="-1.78019">
        <ele>27.35</ele>
        <time>2020-06-20T09:10:11Z</time>
      </trkpt>
      <trkpt lat="47.12756" lon="-1.78034">
        <ele>27.22</ele>
        <time>2020-06-20T09:10:13Z</time>
      </trkpt>
      <trkpt lat="47.12751" lon="-1.78049">
        <ele>26.74</ele>
        <time>2020-06-20T09:10:15Z</time>
      </trkpt>
      <trkpt lat="47.12744" lon="-1.7806">
        <ele>26.35</ele>
        <time>2020-06-20T09:10:17Z</time>
      </trkpt>
      <trkpt lat="47.12735" lon="-1.78072">
        <ele>27.1</ele>
        <time>2020-06-20T09:10:19Z</time>
      </trkpt>
      <trkpt lat="47.12727" lon="-1.78084">
        <ele>27.38</ele>
        <time>2020-06-20T09:10:21Z</time>
      </trkpt>
      <trkpt lat="47.12719" lon="-1.78096">
        <ele>28.46</ele>
        <time>2020-06-20T09:10:23Z</time>
      </trkpt>
      <trkpt lat="47.12711" lon="-1.78106">
        <ele>27.92</ele>
        <time>2020-06-20T09:10:25Z</time>
      </trkpt>
      <trkpt lat="47.12703" lon="-1.78118">
        <ele>28.04</ele>
        <time>2020-06-20T09:10:27Z</time>
      </trkpt>
      <trkpt lat="47.12694" lon="-1.7813">
        <ele>28.78</ele>
        <time>2020-06-20T09:10:29Z</time>
      </trkpt>
      <trkpt lat="47.12684" lon="-1.78144">
        <ele>30.99</ele>
        <time>2020-06-20T09:10:32Z</time>
      </trkpt>
      <trkpt lat="47.12676" lon="-1.78155">
        <ele>32.13</ele>
        <time>2020-06-20T09:10:34Z</time>
      </trkpt>
      <trkpt lat="47.12667" lon="-1.78169">
        <ele>32.05</ele>
        <time>2020-06-20T09:10:36Z</time>
      </trkpt>
      <trkpt lat="47.1266" lon="-1.78179">
        <ele>31.74</ele>
        <time>2020-06-20T09:10:38Z</time>
      </trkpt>
      <trkpt lat="47.12652" lon="-1.78192">
        <ele>31.41</ele>
        <time>2020-06-20T09:10:40Z</time>
      </trkpt>
      <trkpt lat="47.12643" lon="-1.78204">
        <ele>31.03</ele>
        <time>2020-06-20T09:10:42Z</time>
      </trkpt>
      <trkpt lat="47.12636" lon="-1.78214">
        <ele>32.16</ele>
        <time>2020-06-20T09:10:44Z</time>
      </trkpt>
      <trkpt lat="47.12628" lon="-1.78231">
        <ele>31.25</ele>
        <time>2020-06-20T09:10:46Z</time>
      </trkpt>
      <trkpt lat="47.12622" lon="-1.78246">
        <ele>30.02</ele>
        <time>2020-06-20T09:10:48Z</time>
      </trkpt>
      <trkpt lat="47.12618" lon="-1.78262">
        <ele>29.05</ele>
        <time>2020-06-20T09:10:50Z</time>
      </trkpt>
      <trkpt lat="47.12614" lon="-1.78278">
        <ele>28.73</ele>
        <time>2020-06-20T09:10:52Z</time>
      </trkpt>
      <trkpt lat="47.12611" lon="-1.78293">
        <ele>29.13</ele>
        <time>2020-06-20T09:10:54Z</time>
      </trkpt>
      <trkpt lat="47.12607" lon="-1.78308">
        <ele>30.42</ele>
        <time>2020-06-20T09:10:56Z</time>
      </trkpt>
      <trkpt lat="47.12603" lon="-1.78327">
        <ele>31.52</ele>
        <time>2020-06-20T09:10:58Z</time>
      </trkpt>
      <trkpt lat="47.12599" lon="-1.78344">
        <ele>33.21</ele>
        <time>2020-06-20T09:11:00Z</time>
      </trkpt>
      <trkpt lat="47.12593" lon="-1.78362">
        <ele>34.44</ele>
        <time>2020-06-20T09:11:02Z</time>
      </trkpt>
      <trkpt lat="47.12589" lon="-1.78379">
        <ele>35.64</ele>
        <time>2020-06-20T09:11:04Z</time>
      </trkpt>
      <trkpt lat="47.12584" lon="-1.78399">
        <ele>35.55</ele>
        <time>2020-06-20T09:11:06Z</time>
      </trkpt>
      <trkpt lat="47.1258" lon="-1.78417">
        <ele>35.19</ele>
        <time>2020-06-20T09:11:08Z</time>
      </trkpt>
      <trkpt lat="47.12575" lon="-1.78437">
        <ele>34.4</ele>
        <time>2020-06-20T09:11:10Z</time>
      </trkpt>
      <trkpt lat="47.12571" lon="-1.78457">
        <ele>33.18</ele>
        <time>2020-06-20T09:11:12Z</time>
      </trkpt>
      <trkpt lat="47.12567" lon="-1.78476">
        <ele>31.03</ele>
        <time>2020-06-20T09:11:14Z</time>
      </trkpt>
      <trkpt lat="47.12563" lon="-1.78495">
        <ele>29.15</ele>
        <time>2020-06-20T09:11:16Z</time>
      </trkpt>
      <trkpt lat="47.12559" lon="-1.78512">
        <ele>27.9</ele>
        <time>2020-06-20T09:11:18Z</time>
      </trkpt>
      <trkpt lat="47.12555" lon="-1.78532">
        <ele>26.38</ele>
        <time>2020-06-20T09:11:20Z</time>
      </trkpt>
      <trkpt lat="47.1255" lon="-1.78553">
        <ele>25.52</ele>
        <time>2020-06-20T09:11:22Z</time>
      </trkpt>
      <trkpt lat="47.12546" lon="-1.78572">
        <ele>24.81</ele>
        <time>2020-06-20T09:11:24Z</time>
      </trkpt>
      <trkpt lat="47.12541" lon="-1.7859">
        <ele>23.81</ele>
        <time>2020-06-20T09:11:26Z</time>
      </trkpt>
      <trkpt lat="47.12537" lon="-1.7861">
        <ele>23.26</ele>
        <time>2020-06-20T09:11:28Z</time>
      </trkpt>
      <trkpt lat="47.12532" lon="-1.78626">
        <ele>22.51</ele>
        <time>2020-06-20T09:11:30Z</time>
      </trkpt>
      <trkpt lat="47.12527" lon="-1.78644">
        <ele>22.82</ele>
        <time>2020-06-20T09:11:32Z</time>
      </trkpt>
      <trkpt lat="47.12522" lon="-1.78661">
        <ele>22.87</ele>
        <time>2020-06-20T09:11:34Z</time>
      </trkpt>
      <trkpt lat="47.12515" lon="-1.78679">
        <ele>23.46</ele>
        <time>2020-06-20T09:11:36Z</time>
      </trkpt>
      <trkpt lat="47.1251" lon="-1.78693">
        <ele>23.83</ele>
        <time>2020-06-20T09:11:38Z</time>
      </trkpt>
      <trkpt lat="47.12504" lon="-1.7871">
        <ele>24.16</ele>
        <time>2020-06-20T09:11:40Z</time>
      </trkpt>
      <trkpt lat="47.12498" lon="-1.78728">
        <ele>24.29</ele>
        <time>2020-06-20T09:11:42Z</time>
      </trkpt>
      <trkpt lat="47.12493" lon="-1.78744">
        <ele>25.11</ele>
        <time>2020-06-20T09:11:44Z</time>
      </trkpt>
      <trkpt lat="47.12489" lon="-1.78762">
        <ele>25.83</ele>
        <time>2020-06-20T09:11:46Z</time>
      </trkpt>
      <trkpt lat="47.12484" lon="-1.78779">
        <ele>26.07</ele>
        <time>2020-06-20T09:11:48Z</time>
      </trkpt>
      <trkpt lat="47.12481" lon="-1.78796">
        <ele>25.41</ele>
        <time>2020-06-20T09:11:50Z</time>
      </trkpt>
      <trkpt lat="47.12477" lon="-1.78814">
        <ele>24.29</ele>
        <time>2020-06-20T09:11:52Z</time>
      </trkpt>
      <trkpt lat="47.12474" lon="-1.78834">
        <ele>24.01</ele>
        <time>2020-06-20T09:11:54Z</time>
      </trkpt>
      <trkpt lat="47.12471" lon="-1.78852">
        <ele>23.48</ele>
        <time>2020-06-20T09:11:56Z</time>
      </trkpt>
      <trkpt lat="47.12469" lon="-1.78869">
        <ele>23.6</ele>
        <time>2020-06-20T09:11:58Z</time>
      </trkpt>
      <trkpt lat="47.12467" lon="-1.78884">
        <ele>25.04</ele>
        <time>2020-06-20T09:12:00Z</time>
      </trkpt>
      <trkpt lat="47.12467" lon="-1.78904">
        <ele>25.96</ele>
        <time>2020-06-20T09:12:02Z</time>
      </trkpt>
      <trkpt lat="47.12464" lon="-1.78923">
        <ele>26.42</ele>
        <time>2020-06-20T09:12:04Z</time>
      </trkpt>
      <trkpt lat="47.1246" lon="-1.78942">
        <ele>25.24</ele>
        <time>2020-06-20T09:12:06Z</time>
      </trkpt>
      <trkpt lat="47.12456" lon="-1.78961">
        <ele>24.34</ele>
        <time>2020-06-20T09:12:08Z</time>
      </trkpt>
      <trkpt lat="47.12452" lon="-1.78977">
        <ele>25</ele>
        <time>2020-06-20T09:12:10Z</time>
      </trkpt>
      <trkpt lat="47.12447" lon="-1.78994">
        <ele>25.71</ele>
        <time>2020-06-20T09:12:12Z</time>
      </trkpt>
      <trkpt lat="47.12443" lon="-1.79009">
        <ele>26.46</ele>
        <time>2020-06-20T09:12:14Z</time>
      </trkpt>
      <trkpt lat="47.1244" lon="-1.79026">
        <ele>27.16</ele>
        <time>2020-06-20T09:12:16Z</time>
      </trkpt>
      <trkpt lat="47.12436" lon="-1.79043">
        <ele>25.65</ele>
        <time>2020-06-20T09:12:18Z</time>
      </trkpt>
      <trkpt lat="47.12432" lon="-1.7906">
        <ele>24.8</ele>
        <time>2020-06-20T09:12:20Z</time>
      </trkpt>
      <trkpt lat="47.12428" lon="-1.7908">
        <ele>24.2</ele>
        <time>2020-06-20T09:12:22Z</time>
      </trkpt>
      <trkpt lat="47.12425" lon="-1.79096">
        <ele>23.27</ele>
        <time>2020-06-20T09:12:24Z</time>
      </trkpt>
      <trkpt lat="47.12422" lon="-1.79112">
        <ele>24.19</ele>
        <time>2020-06-20T09:12:26Z</time>
      </trkpt>
      <trkpt lat="47.12419" lon="-1.79129">
        <ele>24.33</ele>
        <time>2020-06-20T09:12:28Z</time>
      </trkpt>
      <trkpt lat="47.12417" lon="-1.79145">
        <ele>24.63</ele>
        <time>2020-06-20T09:12:30Z</time>
      </trkpt>
      <trkpt lat="47.12417" lon="-1.79163">
        <ele>24.8</ele>
        <time>2020-06-20T09:12:32Z</time>
      </trkpt>
      <trkpt lat="47.12418" lon="-1.79179">
        <ele>24.32</ele>
        <time>2020-06-20T09:12:34Z</time>
      </trkpt>
      <trkpt lat="47.12419" lon="-1.79193">
        <ele>24.79</ele>
        <time>2020-06-20T09:12:36Z</time>
      </trkpt>
      <trkpt lat="47.12421" lon="-1.79211">
        <ele>26.27</ele>
        <time>2020-06-20T09:12:38Z</time>
      </trkpt>
      <trkpt lat="47.12423" lon="-1.79229">
        <ele>27.3</ele>
        <time>2020-06-20T09:12:40Z</time>
      </trkpt>
      <trkpt lat="47.12424" lon="-1.79246">
        <ele>26.91</ele>
        <time>2020-06-20T09:12:42Z</time>
      </trkpt>
      <trkpt lat="47.12424" lon="-1.79263">
        <ele>24.8</ele>
        <time>2020-06-20T09:12:44Z</time>
      </trkpt>
      <trkpt lat="47.12421" lon="-1.79279">
        <ele>22.56</ele>
        <time>2020-06-20T09:12:46Z</time>
      </trkpt>
      <trkpt lat="47.12416" lon="-1.79296">
        <ele>20.94</ele>
        <time>2020-06-20T09:12:48Z</time>
      </trkpt>
      <trkpt lat="47.12409" lon="-1.7931">
        <ele>20.71</ele>
        <time>2020-06-20T09:12:50Z</time>
      </trkpt>
      <trkpt lat="47.12403" lon="-1.79322">
        <ele>22.56</ele>
        <time>2020-06-20T09:12:52Z</time>
      </trkpt>
      <trkpt lat="47.12396" lon="-1.79334">
        <ele>24.31</ele>
        <time>2020-06-20T09:12:54Z</time>
      </trkpt>
      <trkpt lat="47.1239" lon="-1.79348">
        <ele>24.84</ele>
        <time>2020-06-20T09:12:56Z</time>
      </trkpt>
      <trkpt lat="47.12384" lon="-1.79361">
        <ele>26.52</ele>
        <time>2020-06-20T09:12:58Z</time>
      </trkpt>
      <trkpt lat="47.12377" lon="-1.79375">
        <ele>27.75</ele>
        <time>2020-06-20T09:13:00Z</time>
      </trkpt>
      <trkpt lat="47.1237" lon="-1.79389">
        <ele>27.94</ele>
        <time>2020-06-20T09:13:02Z</time>
      </trkpt>
      <trkpt lat="47.12365" lon="-1.79405">
        <ele>27.02</ele>
        <time>2020-06-20T09:13:04Z</time>
      </trkpt>
      <trkpt lat="47.1236" lon="-1.79419">
        <ele>25.43</ele>
        <time>2020-06-20T09:13:06Z</time>
      </trkpt>
      <trkpt lat="47.12356" lon="-1.79432">
        <ele>26.24</ele>
        <time>2020-06-20T09:13:08Z</time>
      </trkpt>
      <trkpt lat="47.12351" lon="-1.79449">
        <ele>26.48</ele>
        <time>2020-06-20T09:13:10Z</time>
      </trkpt>
      <trkpt lat="47.12347" lon="-1.79462">
        <ele>26.79</ele>
        <time>2020-06-20T09:13:12Z</time>
      </trkpt>
      <trkpt lat="47.12344" lon="-1.79482">
        <ele>26.88</ele>
        <time>2020-06-20T09:13:14Z</time>
      </trkpt>
      <trkpt lat="47.12342" lon="-1.79498">
        <ele>26.14</ele>
        <time>2020-06-20T09:13:16Z</time>
      </trkpt>
      <trkpt lat="47.1234" lon="-1.79512">
        <ele>28.24</ele>
        <time>2020-06-20T09:13:18Z</time>
      </trkpt>
      <trkpt lat="47.12338" lon="-1.79528">
        <ele>30.69</ele>
        <time>2020-06-20T09:13:20Z</time>
      </trkpt>
      <trkpt lat="47.12335" lon="-1.79549">
        <ele>31.32</ele>
        <time>2020-06-20T09:13:22Z</time>
      </trkpt>
      <trkpt lat="47.12333" lon="-1.79566">
        <ele>31.41</ele>
        <time>2020-06-20T09:13:24Z</time>
      </trkpt>
      <trkpt lat="47.1233" lon="-1.79581">
        <ele>31.2</ele>
        <time>2020-06-20T09:13:26Z</time>
      </trkpt>
      <trkpt lat="47.12327" lon="-1.79597">
        <ele>31.21</ele>
        <time>2020-06-20T09:13:28Z</time>
      </trkpt>
      <trkpt lat="47.12323" lon="-1.79612">
        <ele>31.38</ele>
        <time>2020-06-20T09:13:30Z</time>
      </trkpt>
      <trkpt lat="47.12318" lon="-1.79629">
        <ele>30.96</ele>
        <time>2020-06-20T09:13:32Z</time>
      </trkpt>
      <trkpt lat="47.12312" lon="-1.79648">
        <ele>30.43</ele>
        <time>2020-06-20T09:13:34Z</time>
      </trkpt>
      <trkpt lat="47.12307" lon="-1.79665">
        <ele>30.19</ele>
        <time>2020-06-20T09:13:36Z</time>
      </trkpt>
      <trkpt lat="47.12303" lon="-1.7968">
        <ele>29.43</ele>
        <time>2020-06-20T09:13:38Z</time>
      </trkpt>
      <trkpt lat="47.123" lon="-1.79695">
        <ele>28.48</ele>
        <time>2020-06-20T09:13:40Z</time>
      </trkpt>
      <trkpt lat="47.12297" lon="-1.79712">
        <ele>28.72</ele>
        <time>2020-06-20T09:13:42Z</time>
      </trkpt>
      <trkpt lat="47.12294" lon="-1.79729">
        <ele>29.05</ele>
        <time>2020-06-20T09:13:44Z</time>
      </trkpt>
      <trkpt lat="47.12292" lon="-1.79745">
        <ele>29.28</ele>
        <time>2020-06-20T09:13:46Z</time>
      </trkpt>
      <trkpt lat="47.12291" lon="-1.79763">
        <ele>28.77</ele>
        <time>2020-06-20T09:13:48Z</time>
      </trkpt>
      <trkpt lat="47.1229" lon="-1.79779">
        <ele>27</ele>
        <time>2020-06-20T09:13:50Z</time>
      </trkpt>
      <trkpt lat="47.12288" lon="-1.79798">
        <ele>25.34</ele>
        <time>2020-06-20T09:13:52Z</time>
      </trkpt>
      <trkpt lat="47.12286" lon="-1.79817">
        <ele>24.18</ele>
        <time>2020-06-20T09:13:54Z</time>
      </trkpt>
      <trkpt lat="47.12283" lon="-1.79836">
        <ele>24.22</ele>
        <time>2020-06-20T09:13:56Z</time>
      </trkpt>
      <trkpt lat="47.12281" lon="-1.79854">
        <ele>23.45</ele>
        <time>2020-06-20T09:13:58Z</time>
      </trkpt>
      <trkpt lat="47.12278" lon="-1.7987">
        <ele>22.8</ele>
        <time>2020-06-20T09:14:00Z</time>
      </trkpt>
      <trkpt lat="47.12275" lon="-1.79888">
        <ele>23.01</ele>
        <time>2020-06-20T09:14:02Z</time>
      </trkpt>
      <trkpt lat="47.1227" lon="-1.79906">
        <ele>22.57</ele>
        <time>2020-06-20T09:14:04Z</time>
      </trkpt>
      <trkpt lat="47.12266" lon="-1.79923">
        <ele>22.17</ele>
        <time>2020-06-20T09:14:06Z</time>
      </trkpt>
      <trkpt lat="47.12262" lon="-1.79937">
        <ele>21.79</ele>
        <time>2020-06-20T09:14:08Z</time>
      </trkpt>
      <trkpt lat="47.12257" lon="-1.79955">
        <ele>20.47</ele>
        <time>2020-06-20T09:14:10Z</time>
      </trkpt>
      <trkpt lat="47.12253" lon="-1.79972">
        <ele>19.08</ele>
        <time>2020-06-20T09:14:12Z</time>
      </trkpt>
      <trkpt lat="47.12249" lon="-1.79989">
        <ele>18.47</ele>
        <time>2020-06-20T09:14:14Z</time>
      </trkpt>
      <trkpt lat="47.12244" lon="-1.80005">
        <ele>18.17</ele>
        <time>2020-06-20T09:14:16Z</time>
      </trkpt>
      <trkpt lat="47.1224" lon="-1.80019">
        <ele>18.51</ele>
        <time>2020-06-20T09:14:18Z</time>
      </trkpt>
      <trkpt lat="47.12237" lon="-1.80032">
        <ele>18.87</ele>
        <time>2020-06-20T09:14:20Z</time>
      </trkpt>
      <trkpt lat="47.12228" lon="-1.80038">
        <ele>19.5</ele>
        <time>2020-06-20T09:14:22Z</time>
      </trkpt>
      <trkpt lat="47.12214" lon="-1.80041">
        <ele>19.15</ele>
        <time>2020-06-20T09:14:24Z</time>
      </trkpt>
      <trkpt lat="47.12201" lon="-1.80042">
        <ele>19.44</ele>
        <time>2020-06-20T09:14:26Z</time>
      </trkpt>
      <trkpt lat="47.12188" lon="-1.80045">
        <ele>20.32</ele>
        <time>2020-06-20T09:14:28Z</time>
      </trkpt>
      <trkpt lat="47.12175" lon="-1.80047">
        <ele>21.21</ele>
        <time>2020-06-20T09:14:30Z</time>
      </trkpt>
      <trkpt lat="47.12162" lon="-1.80049">
        <ele>21.43</ele>
        <time>2020-06-20T09:14:32Z</time>
      </trkpt>
      <trkpt lat="47.1215" lon="-1.80051">
        <ele>21.51</ele>
        <time>2020-06-20T09:14:34Z</time>
      </trkpt>
      <trkpt lat="47.12136" lon="-1.80053">
        <ele>20.74</ele>
        <time>2020-06-20T09:14:36Z</time>
      </trkpt>
      <trkpt lat="47.12122" lon="-1.80056">
        <ele>20.63</ele>
        <time>2020-06-20T09:14:38Z</time>
      </trkpt>
      <trkpt lat="47.1211" lon="-1.80058">
        <ele>20.54</ele>
        <time>2020-06-20T09:14:40Z</time>
      </trkpt>
      <trkpt lat="47.12096" lon="-1.80059">
        <ele>20.3</ele>
        <time>2020-06-20T09:14:42Z</time>
      </trkpt>
      <trkpt lat="47.12084" lon="-1.8006">
        <ele>20.5</ele>
        <time>2020-06-20T09:14:44Z</time>
      </trkpt>
      <trkpt lat="47.12071" lon="-1.80059">
        <ele>20.57</ele>
        <time>2020-06-20T09:14:46Z</time>
      </trkpt>
      <trkpt lat="47.12058" lon="-1.80058">
        <ele>20.87</ele>
        <time>2020-06-20T09:14:48Z</time>
      </trkpt>
      <trkpt lat="47.12046" lon="-1.80057">
        <ele>20.2</ele>
        <time>2020-06-20T09:14:50Z</time>
      </trkpt>
      <trkpt lat="47.12032" lon="-1.80055">
        <ele>20.04</ele>
        <time>2020-06-20T09:14:52Z</time>
      </trkpt>
      <trkpt lat="47.12018" lon="-1.80052">
        <ele>20.06</ele>
        <time>2020-06-20T09:14:54Z</time>
      </trkpt>
      <trkpt lat="47.12005" lon="-1.80049">
        <ele>21.56</ele>
        <time>2020-06-20T09:14:56Z</time>
      </trkpt>
      <trkpt lat="47.11993" lon="-1.80046">
        <ele>22</ele>
        <time>2020-06-20T09:14:58Z</time>
      </trkpt>
      <trkpt lat="47.11982" lon="-1.80042">
        <ele>22.52</ele>
        <time>2020-06-20T09:15:00Z</time>
      </trkpt>
      <trkpt lat="47.1197" lon="-1.80039">
        <ele>22.3</ele>
        <time>2020-06-20T09:15:02Z</time>
      </trkpt>
      <trkpt lat="47.11956" lon="-1.80035">
        <ele>22.18</ele>
        <time>2020-06-20T09:15:04Z</time>
      </trkpt>
      <trkpt lat="47.11945" lon="-1.80031">
        <ele>22.17</ele>
        <time>2020-06-20T09:15:06Z</time>
      </trkpt>
      <trkpt lat="47.11933" lon="-1.80028">
        <ele>22.03</ele>
        <time>2020-06-20T09:15:08Z</time>
      </trkpt>
      <trkpt lat="47.11921" lon="-1.80025">
        <ele>20.84</ele>
        <time>2020-06-20T09:15:10Z</time>
      </trkpt>
      <trkpt lat="47.1191" lon="-1.80021">
        <ele>19.42</ele>
        <time>2020-06-20T09:15:13Z</time>
      </trkpt>
      <trkpt lat="47.11899" lon="-1.80017">
        <ele>19.1</ele>
        <time>2020-06-20T09:15:15Z</time>
      </trkpt>
      <trkpt lat="47.11887" lon="-1.80012">
        <ele>19.6</ele>
        <time>2020-06-20T09:15:17Z</time>
      </trkpt>
      <trkpt lat="47.11875" lon="-1.80009">
        <ele>19.94</ele>
        <time>2020-06-20T09:15:19Z</time>
      </trkpt>
      <trkpt lat="47.11863" lon="-1.80006">
        <ele>19.68</ele>
        <time>2020-06-20T09:15:21Z</time>
      </trkpt>
      <trkpt lat="47.11849" lon="-1.80003">
        <ele>19.89</ele>
        <time>2020-06-20T09:15:23Z</time>
      </trkpt>
      <trkpt lat="47.11838" lon="-1.79999">
        <ele>20.95</ele>
        <time>2020-06-20T09:15:25Z</time>
      </trkpt>
      <trkpt lat="47.11828" lon="-1.79995">
        <ele>21.71</ele>
        <time>2020-06-20T09:15:27Z</time>
      </trkpt>
      <trkpt lat="47.11815" lon="-1.79991">
        <ele>22.24</ele>
        <time>2020-06-20T09:15:29Z</time>
      </trkpt>
      <trkpt lat="47.11802" lon="-1.79987">
        <ele>20.7</ele>
        <time>2020-06-20T09:15:31Z</time>
      </trkpt>
      <trkpt lat="47.11792" lon="-1.79986">
        <ele>20.21</ele>
        <time>2020-06-20T09:15:33Z</time>
      </trkpt>
      <trkpt lat="47.11781" lon="-1.79984">
        <ele>19.81</ele>
        <time>2020-06-20T09:15:35Z</time>
      </trkpt>
      <trkpt lat="47.11768" lon="-1.79979">
        <ele>19.92</ele>
        <time>2020-06-20T09:15:37Z</time>
      </trkpt>
      <trkpt lat="47.11754" lon="-1.79976">
        <ele>20.13</ele>
        <time>2020-06-20T09:15:39Z</time>
      </trkpt>
      <trkpt lat="47.11742" lon="-1.79973">
        <ele>21.6</ele>
        <time>2020-06-20T09:15:41Z</time>
      </trkpt>
      <trkpt lat="47.11731" lon="-1.7997">
        <ele>22.44</ele>
        <time>2020-06-20T09:15:43Z</time>
      </trkpt>
      <trkpt lat="47.11717" lon="-1.79967">
        <ele>22.73</ele>
        <time>2020-06-20T09:15:45Z</time>
      </trkpt>
      <trkpt lat="47.11707" lon="-1.79967">
        <ele>23.25</ele>
        <time>2020-06-20T09:15:47Z</time>
      </trkpt>
      <trkpt lat="47.11696" lon="-1.79966">
        <ele>22.55</ele>
        <time>2020-06-20T09:15:49Z</time>
      </trkpt>
      <trkpt lat="47.11684" lon="-1.79965">
        <ele>22.08</ele>
        <time>2020-06-20T09:15:51Z</time>
      </trkpt>
      <trkpt lat="47.11671" lon="-1.79963">
        <ele>22.12</ele>
        <time>2020-06-20T09:15:53Z</time>
      </trkpt>
      <trkpt lat="47.11659" lon="-1.79961">
        <ele>20.99</ele>
        <time>2020-06-20T09:15:55Z</time>
      </trkpt>
      <trkpt lat="47.11645" lon="-1.79959">
        <ele>21.53</ele>
        <time>2020-06-20T09:15:57Z</time>
      </trkpt>
      <trkpt lat="47.11633" lon="-1.79957">
        <ele>22.05</ele>
        <time>2020-06-20T09:15:59Z</time>
      </trkpt>
      <trkpt lat="47.1162" lon="-1.79956">
        <ele>21.45</ele>
        <time>2020-06-20T09:16:01Z</time>
      </trkpt>
      <trkpt lat="47.11605" lon="-1.79953">
        <ele>21</ele>
        <time>2020-06-20T09:16:03Z</time>
      </trkpt>
      <trkpt lat="47.11592" lon="-1.79952">
        <ele>20.83</ele>
        <time>2020-06-20T09:16:05Z</time>
      </trkpt>
      <trkpt lat="47.11579" lon="-1.7995">
        <ele>20.8</ele>
        <time>2020-06-20T09:16:07Z</time>
      </trkpt>
      <trkpt lat="47.11568" lon="-1.79951">
        <ele>20.79</ele>
        <time>2020-06-20T09:16:09Z</time>
      </trkpt>
      <trkpt lat="47.11556" lon="-1.79956">
        <ele>21.22</ele>
        <time>2020-06-20T09:16:11Z</time>
      </trkpt>
      <trkpt lat="47.11543" lon="-1.79963">
        <ele>20.53</ele>
        <time>2020-06-20T09:16:13Z</time>
      </trkpt>
      <trkpt lat="47.11532" lon="-1.79973">
        <ele>20.52</ele>
        <time>2020-06-20T09:16:15Z</time>
      </trkpt>
      <trkpt lat="47.11523" lon="-1.79984">
        <ele>21.76</ele>
        <time>2020-06-20T09:16:17Z</time>
      </trkpt>
      <trkpt lat="47.11512" lon="-1.79998">
        <ele>21.57</ele>
        <time>2020-06-20T09:16:19Z</time>
      </trkpt>
      <trkpt lat="47.11503" lon="-1.8001">
        <ele>20.61</ele>
        <time>2020-06-20T09:16:21Z</time>
      </trkpt>
      <trkpt lat="47.11492" lon="-1.80023">
        <ele>19.36</ele>
        <time>2020-06-20T09:16:23Z</time>
      </trkpt>
      <trkpt lat="47.11482" lon="-1.80035">
        <ele>19.16</ele>
        <time>2020-06-20T09:16:25Z</time>
      </trkpt>
      <trkpt lat="47.11474" lon="-1.80047">
        <ele>18.7</ele>
        <time>2020-06-20T09:16:27Z</time>
      </trkpt>
      <trkpt lat="47.11466" lon="-1.80057">
        <ele>17.42</ele>
        <time>2020-06-20T09:16:29Z</time>
      </trkpt>
      <trkpt lat="47.11455" lon="-1.80072">
        <ele>17.19</ele>
        <time>2020-06-20T09:16:31Z</time>
      </trkpt>
      <trkpt lat="47.11444" lon="-1.80085">
        <ele>17.94</ele>
        <time>2020-06-20T09:16:33Z</time>
      </trkpt>
      <trkpt lat="47.11434" lon="-1.80098">
        <ele>17.82</ele>
        <time>2020-06-20T09:16:35Z</time>
      </trkpt>
      <trkpt lat="47.11426" lon="-1.80111">
        <ele>18.31</ele>
        <time>2020-06-20T09:16:37Z</time>
      </trkpt>
      <trkpt lat="47.11417" lon="-1.80124">
        <ele>18.45</ele>
        <time>2020-06-20T09:16:39Z</time>
      </trkpt>
      <trkpt lat="47.11407" lon="-1.80138">
        <ele>17.55</ele>
        <time>2020-06-20T09:16:41Z</time>
      </trkpt>
      <trkpt lat="47.11398" lon="-1.80151">
        <ele>16.89</ele>
        <time>2020-06-20T09:16:43Z</time>
      </trkpt>
      <trkpt lat="47.11388" lon="-1.80164">
        <ele>16.77</ele>
        <time>2020-06-20T09:16:45Z</time>
      </trkpt>
      <trkpt lat="47.11379" lon="-1.80176">
        <ele>16.68</ele>
        <time>2020-06-20T09:16:47Z</time>
      </trkpt>
      <trkpt lat="47.11371" lon="-1.80185">
        <ele>16.3</ele>
        <time>2020-06-20T09:16:49Z</time>
      </trkpt>
      <trkpt lat="47.11361" lon="-1.80197">
        <ele>16.12</ele>
        <time>2020-06-20T09:16:51Z</time>
      </trkpt>
      <trkpt lat="47.11352" lon="-1.80212">
        <ele>16.55</ele>
        <time>2020-06-20T09:16:53Z</time>
      </trkpt>
      <trkpt lat="47.11342" lon="-1.80224">
        <ele>16.02</ele>
        <time>2020-06-20T09:16:55Z</time>
      </trkpt>
      <trkpt lat="47.11332" lon="-1.80239">
        <ele>16.21</ele>
        <time>2020-06-20T09:16:57Z</time>
      </trkpt>
      <trkpt lat="47.11322" lon="-1.80252">
        <ele>17.07</ele>
        <time>2020-06-20T09:16:59Z</time>
      </trkpt>
      <trkpt lat="47.11313" lon="-1.80262">
        <ele>17.99</ele>
        <time>2020-06-20T09:17:01Z</time>
      </trkpt>
      <trkpt lat="47.11302" lon="-1.80277">
        <ele>18.52</ele>
        <time>2020-06-20T09:17:03Z</time>
      </trkpt>
      <trkpt lat="47.11293" lon="-1.80288">
        <ele>19.1</ele>
        <time>2020-06-20T09:17:05Z</time>
      </trkpt>
      <trkpt lat="47.11286" lon="-1.80297">
        <ele>17.52</ele>
        <time>2020-06-20T09:17:07Z</time>
      </trkpt>
      <trkpt lat="47.11278" lon="-1.8031">
        <ele>16.18</ele>
        <time>2020-06-20T09:17:09Z</time>
      </trkpt>
      <trkpt lat="47.1127" lon="-1.80319">
        <ele>16.28</ele>
        <time>2020-06-20T09:17:11Z</time>
      </trkpt>
      <trkpt lat="47.11261" lon="-1.8033">
        <ele>16.58</ele>
        <time>2020-06-20T09:17:13Z</time>
      </trkpt>
      <trkpt lat="47.11255" lon="-1.80339">
        <ele>16.54</ele>
        <time>2020-06-20T09:17:15Z</time>
      </trkpt>
      <trkpt lat="47.11244" lon="-1.80354">
        <ele>16.57</ele>
        <time>2020-06-20T09:17:17Z</time>
      </trkpt>
      <trkpt lat="47.11235" lon="-1.80366">
        <ele>16.16</ele>
        <time>2020-06-20T09:17:19Z</time>
      </trkpt>
      <trkpt lat="47.11225" lon="-1.80377">
        <ele>16</ele>
        <time>2020-06-20T09:17:21Z</time>
      </trkpt>
      <trkpt lat="47.11216" lon="-1.80387">
        <ele>16.1</ele>
        <time>2020-06-20T09:17:23Z</time>
      </trkpt>
      <trkpt lat="47.11206" lon="-1.80399">
        <ele>15.53</ele>
        <time>2020-06-20T09:17:25Z</time>
      </trkpt>
      <trkpt lat="47.11194" lon="-1.80409">
        <ele>15.45</ele>
        <time>2020-06-20T09:17:27Z</time>
      </trkpt>
      <trkpt lat="47.11184" lon="-1.80418">
        <ele>15.91</ele>
        <time>2020-06-20T09:17:29Z</time>
      </trkpt>
      <trkpt lat="47.11174" lon="-1.80426">
        <ele>16.24</ele>
        <time>2020-06-20T09:17:31Z</time>
      </trkpt>
      <trkpt lat="47.11163" lon="-1.80435">
        <ele>15.93</ele>
        <time>2020-06-20T09:17:33Z</time>
      </trkpt>
      <trkpt lat="47.11152" lon="-1.80444">
        <ele>15.88</ele>
        <time>2020-06-20T09:17:35Z</time>
      </trkpt>
      <trkpt lat="47.1114" lon="-1.80453">
        <ele>14.56</ele>
        <time>2020-06-20T09:17:37Z</time>
      </trkpt>
      <trkpt lat="47.11129" lon="-1.80461">
        <ele>15.02</ele>
        <time>2020-06-20T09:17:39Z</time>
      </trkpt>
      <trkpt lat="47.11118" lon="-1.80467">
        <ele>16.29</ele>
        <time>2020-06-20T09:17:41Z</time>
      </trkpt>
      <trkpt lat="47.11109" lon="-1.80472">
        <ele>17.5</ele>
        <time>2020-06-20T09:17:43Z</time>
      </trkpt>
      <trkpt lat="47.11095" lon="-1.8048">
        <ele>17.93</ele>
        <time>2020-06-20T09:17:45Z</time>
      </trkpt>
      <trkpt lat="47.11084" lon="-1.80486">
        <ele>18.07</ele>
        <time>2020-06-20T09:17:47Z</time>
      </trkpt>
      <trkpt lat="47.11073" lon="-1.80493">
        <ele>18.75</ele>
        <time>2020-06-20T09:17:49Z</time>
      </trkpt>
      <trkpt lat="47.11061" lon="-1.805">
        <ele>20.35</ele>
        <time>2020-06-20T09:17:51Z</time>
      </trkpt>
      <trkpt lat="47.1105" lon="-1.80507">
        <ele>19.84</ele>
        <time>2020-06-20T09:17:53Z</time>
      </trkpt>
      <trkpt lat="47.11039" lon="-1.80514">
        <ele>18.05</ele>
        <time>2020-06-20T09:17:55Z</time>
      </trkpt>
      <trkpt lat="47.11029" lon="-1.80522">
        <ele>17.35</ele>
        <time>2020-06-20T09:17:57Z</time>
      </trkpt>
      <trkpt lat="47.11018" lon="-1.8053">
        <ele>16.73</ele>
        <time>2020-06-20T09:17:59Z</time>
      </trkpt>
      <trkpt lat="47.11007" lon="-1.8054">
        <ele>16.74</ele>
        <time>2020-06-20T09:18:01Z</time>
      </trkpt>
      <trkpt lat="47.10996" lon="-1.80549">
        <ele>16.67</ele>
        <time>2020-06-20T09:18:03Z</time>
      </trkpt>
      <trkpt lat="47.10986" lon="-1.80557">
        <ele>16.88</ele>
        <time>2020-06-20T09:18:05Z</time>
      </trkpt>
      <trkpt lat="47.10974" lon="-1.80565">
        <ele>16.26</ele>
        <time>2020-06-20T09:18:07Z</time>
      </trkpt>
      <trkpt lat="47.10961" lon="-1.80574">
        <ele>15.72</ele>
        <time>2020-06-20T09:18:09Z</time>
      </trkpt>
      <trkpt lat="47.1095" lon="-1.80581">
        <ele>15.99</ele>
        <time>2020-06-20T09:18:11Z</time>
      </trkpt>
      <trkpt lat="47.1094" lon="-1.80587">
        <ele>16.2</ele>
        <time>2020-06-20T09:18:13Z</time>
      </trkpt>
      <trkpt lat="47.10929" lon="-1.80593">
        <ele>15.76</ele>
        <time>2020-06-20T09:18:15Z</time>
      </trkpt>
      <trkpt lat="47.10917" lon="-1.80601">
        <ele>15.69</ele>
        <time>2020-06-20T09:18:17Z</time>
      </trkpt>
      <trkpt lat="47.10904" lon="-1.80609">
        <ele>15.63</ele>
        <time>2020-06-20T09:18:19Z</time>
      </trkpt>
      <trkpt lat="47.10893" lon="-1.80616">
        <ele>15.06</ele>
        <time>2020-06-20T09:18:21Z</time>
      </trkpt>
      <trkpt lat="47.10881" lon="-1.80624">
        <ele>14.59</ele>
        <time>2020-06-20T09:18:23Z</time>
      </trkpt>
      <trkpt lat="47.1087" lon="-1.80632">
        <ele>13.82</ele>
        <time>2020-06-20T09:18:25Z</time>
      </trkpt>
      <trkpt lat="47.1086" lon="-1.80638">
        <ele>13.68</ele>
        <time>2020-06-20T09:18:27Z</time>
      </trkpt>
      <trkpt lat="47.10849" lon="-1.80643">
        <ele>12.8</ele>
        <time>2020-06-20T09:18:29Z</time>
      </trkpt>
      <trkpt lat="47.10837" lon="-1.80649">
        <ele>13.89</ele>
        <time>2020-06-20T09:18:31Z</time>
      </trkpt>
      <trkpt lat="47.10824" lon="-1.80653">
        <ele>15.28</ele>
        <time>2020-06-20T09:18:33Z</time>
      </trkpt>
      <trkpt lat="47.1081" lon="-1.80658">
        <ele>15.32</ele>
        <time>2020-06-20T09:18:35Z</time>
      </trkpt>
      <trkpt lat="47.10798" lon="-1.80663">
        <ele>15.4</ele>
        <time>2020-06-20T09:18:37Z</time>
      </trkpt>
      <trkpt lat="47.10786" lon="-1.80667">
        <ele>13.81</ele>
        <time>2020-06-20T09:18:39Z</time>
      </trkpt>
      <trkpt lat="47.10772" lon="-1.80673">
        <ele>12.97</ele>
        <time>2020-06-20T09:18:41Z</time>
      </trkpt>
      <trkpt lat="47.1076" lon="-1.80677">
        <ele>11.78</ele>
        <time>2020-06-20T09:18:43Z</time>
      </trkpt>
      <trkpt lat="47.10747" lon="-1.8068">
        <ele>10.59</ele>
        <time>2020-06-20T09:18:45Z</time>
      </trkpt>
      <trkpt lat="47.10733" lon="-1.80682">
        <ele>10.69</ele>
        <time>2020-06-20T09:18:47Z</time>
      </trkpt>
      <trkpt lat="47.1072" lon="-1.80683">
        <ele>11.39</ele>
        <time>2020-06-20T09:18:49Z</time>
      </trkpt>
      <trkpt lat="47.10708" lon="-1.80684">
        <ele>12.32</ele>
        <time>2020-06-20T09:18:51Z</time>
      </trkpt>
      <trkpt lat="47.10695" lon="-1.80685">
        <ele>13.18</ele>
        <time>2020-06-20T09:18:53Z</time>
      </trkpt>
      <trkpt lat="47.10682" lon="-1.80685">
        <ele>13.48</ele>
        <time>2020-06-20T09:18:55Z</time>
      </trkpt>
      <trkpt lat="47.10671" lon="-1.80687">
        <ele>13.28</ele>
        <time>2020-06-20T09:18:57Z</time>
      </trkpt>
      <trkpt lat="47.10659" lon="-1.80688">
        <ele>13.16</ele>
        <time>2020-06-20T09:18:59Z</time>
      </trkpt>
      <trkpt lat="47.10645" lon="-1.80691">
        <ele>13.46</ele>
        <time>2020-06-20T09:19:01Z</time>
      </trkpt>
      <trkpt lat="47.10633" lon="-1.80692">
        <ele>12.61</ele>
        <time>2020-06-20T09:19:03Z</time>
      </trkpt>
      <trkpt lat="47.10619" lon="-1.80694">
        <ele>12.1</ele>
        <time>2020-06-20T09:19:05Z</time>
      </trkpt>
      <trkpt lat="47.10606" lon="-1.807">
        <ele>12.52</ele>
        <time>2020-06-20T09:19:07Z</time>
      </trkpt>
      <trkpt lat="47.10593" lon="-1.80708">
        <ele>12.18</ele>
        <time>2020-06-20T09:19:09Z</time>
      </trkpt>
      <trkpt lat="47.10582" lon="-1.80717">
        <ele>11.43</ele>
        <time>2020-06-20T09:19:11Z</time>
      </trkpt>
      <trkpt lat="47.10572" lon="-1.80726">
        <ele>12.34</ele>
        <time>2020-06-20T09:19:13Z</time>
      </trkpt>
      <trkpt lat="47.10561" lon="-1.80737">
        <ele>13.56</ele>
        <time>2020-06-20T09:19:15Z</time>
      </trkpt>
      <trkpt lat="47.10554" lon="-1.80747">
        <ele>14.72</ele>
        <time>2020-06-20T09:19:17Z</time>
      </trkpt>
      <trkpt lat="47.10543" lon="-1.8076">
        <ele>16</ele>
        <time>2020-06-20T09:19:19Z</time>
      </trkpt>
      <trkpt lat="47.10533" lon="-1.80772">
        <ele>15.89</ele>
        <time>2020-06-20T09:19:21Z</time>
      </trkpt>
      <trkpt lat="47.10523" lon="-1.80786">
        <ele>14.94</ele>
        <time>2020-06-20T09:19:23Z</time>
      </trkpt>
      <trkpt lat="47.10515" lon="-1.808">
        <ele>13.57</ele>
        <time>2020-06-20T09:19:25Z</time>
      </trkpt>
      <trkpt lat="47.10506" lon="-1.8081">
        <ele>13.33</ele>
        <time>2020-06-20T09:19:27Z</time>
      </trkpt>
      <trkpt lat="47.10494" lon="-1.80819">
        <ele>12.57</ele>
        <time>2020-06-20T09:19:29Z</time>
      </trkpt>
      <trkpt lat="47.10481" lon="-1.80829">
        <ele>12.99</ele>
        <time>2020-06-20T09:19:31Z</time>
      </trkpt>
      <trkpt lat="47.10472" lon="-1.80839">
        <ele>13.39</ele>
        <time>2020-06-20T09:19:33Z</time>
      </trkpt>
      <trkpt lat="47.10464" lon="-1.80853">
        <ele>14.46</ele>
        <time>2020-06-20T09:19:35Z</time>
      </trkpt>
      <trkpt lat="47.10454" lon="-1.80869">
        <ele>13.96</ele>
        <time>2020-06-20T09:19:37Z</time>
      </trkpt>
      <trkpt lat="47.10446" lon="-1.80882">
        <ele>13.12</ele>
        <time>2020-06-20T09:19:39Z</time>
      </trkpt>
      <trkpt lat="47.10438" lon="-1.80894">
        <ele>13.43</ele>
        <time>2020-06-20T09:19:41Z</time>
      </trkpt>
      <trkpt lat="47.10431" lon="-1.80908">
        <ele>13.65</ele>
        <time>2020-06-20T09:19:43Z</time>
      </trkpt>
      <trkpt lat="47.1042" lon="-1.80922">
        <ele>13.53</ele>
        <time>2020-06-20T09:19:46Z</time>
      </trkpt>
      <trkpt lat="47.10411" lon="-1.80932">
        <ele>14.4</ele>
        <time>2020-06-20T09:19:48Z</time>
      </trkpt>
      <trkpt lat="47.10401" lon="-1.80946">
        <ele>14.59</ele>
        <time>2020-06-20T09:19:50Z</time>
      </trkpt>
      <trkpt lat="47.10394" lon="-1.80956">
        <ele>15.14</ele>
        <time>2020-06-20T09:19:52Z</time>
      </trkpt>
      <trkpt lat="47.10386" lon="-1.80964">
        <ele>16.17</ele>
        <time>2020-06-20T09:19:54Z</time>
      </trkpt>
      <trkpt lat="47.10379" lon="-1.80975">
        <ele>17.03</ele>
        <time>2020-06-20T09:19:58Z</time>
      </trkpt>
      <trkpt lat="47.10375" lon="-1.80988">
        <ele>17.67</ele>
        <time>2020-06-20T09:20:01Z</time>
      </trkpt>
      <trkpt lat="47.10372" lon="-1.81002">
        <ele>18.09</ele>
        <time>2020-06-20T09:20:04Z</time>
      </trkpt>
      <trkpt lat="47.10367" lon="-1.81014">
        <ele>18.49</ele>
        <time>2020-06-20T09:20:09Z</time>
      </trkpt>
      <trkpt lat="47.1036" lon="-1.81025">
        <ele>19.24</ele>
        <time>2020-06-20T09:20:11Z</time>
      </trkpt>
      <trkpt lat="47.1035" lon="-1.81034">
        <ele>18.9</ele>
        <time>2020-06-20T09:20:16Z</time>
      </trkpt>
      <trkpt lat="47.10343" lon="-1.81022">
        <ele>17.88</ele>
        <time>2020-06-20T09:20:19Z</time>
      </trkpt>
      <trkpt lat="47.10329" lon="-1.81014">
        <ele>16.82</ele>
        <time>2020-06-20T09:20:22Z</time>
      </trkpt>
      <trkpt lat="47.10318" lon="-1.81005">
        <ele>16.24</ele>
        <time>2020-06-20T09:20:23Z</time>
      </trkpt>
      <trkpt lat="47.10306" lon="-1.81001">
        <ele>18.69</ele>
        <time>2020-06-20T09:20:25Z</time>
      </trkpt>
      <trkpt lat="47.10295" lon="-1.81004">
        <ele>20.39</ele>
        <time>2020-06-20T09:20:27Z</time>
      </trkpt>
      <trkpt lat="47.10286" lon="-1.81008">
        <ele>21.17</ele>
        <time>2020-06-20T09:20:29Z</time>
      </trkpt>
      <trkpt lat="47.10273" lon="-1.81012">
        <ele>22.02</ele>
        <time>2020-06-20T09:20:31Z</time>
      </trkpt>
      <trkpt lat="47.10259" lon="-1.81015">
        <ele>21.86</ele>
        <time>2020-06-20T09:20:33Z</time>
      </trkpt>
      <trkpt lat="47.10247" lon="-1.81014">
        <ele>20.87</ele>
        <time>2020-06-20T09:20:35Z</time>
      </trkpt>
      <trkpt lat="47.10233" lon="-1.81014">
        <ele>18.69</ele>
        <time>2020-06-20T09:20:37Z</time>
      </trkpt>
      <trkpt lat="47.10223" lon="-1.81008">
        <ele>17.72</ele>
        <time>2020-06-20T09:20:41Z</time>
      </trkpt>
      <trkpt lat="47.10211" lon="-1.81003">
        <ele>16.53</ele>
        <time>2020-06-20T09:20:43Z</time>
      </trkpt>
      <trkpt lat="47.102" lon="-1.80999">
        <ele>15.17</ele>
        <time>2020-06-20T09:20:45Z</time>
      </trkpt>
      <trkpt lat="47.10189" lon="-1.80994">
        <ele>13.98</ele>
        <time>2020-06-20T09:20:47Z</time>
      </trkpt>
      <trkpt lat="47.10181" lon="-1.8099">
        <ele>12.7</ele>
        <time>2020-06-20T09:20:48Z</time>
      </trkpt>
      <trkpt lat="47.10168" lon="-1.80982">
        <ele>12.3</ele>
        <time>2020-06-20T09:20:50Z</time>
      </trkpt>
      <trkpt lat="47.10158" lon="-1.80976">
        <ele>12.62</ele>
        <time>2020-06-20T09:20:52Z</time>
      </trkpt>
      <trkpt lat="47.10149" lon="-1.80969">
        <ele>11.83</ele>
        <time>2020-06-20T09:20:54Z</time>
      </trkpt>
      <trkpt lat="47.1014" lon="-1.80964">
        <ele>12.35</ele>
        <time>2020-06-20T09:20:56Z</time>
      </trkpt>
      <trkpt lat="47.10128" lon="-1.80962">
        <ele>11.7</ele>
        <time>2020-06-20T09:20:58Z</time>
      </trkpt>
      <trkpt lat="47.10115" lon="-1.80964">
        <ele>9.56</ele>
        <time>2020-06-20T09:21:00Z</time>
      </trkpt>
      <trkpt lat="47.10101" lon="-1.80966">
        <ele>8.16</ele>
        <time>2020-06-20T09:21:02Z</time>
      </trkpt>
      <trkpt lat="47.10089" lon="-1.80967">
        <ele>7.64</ele>
        <time>2020-06-20T09:21:04Z</time>
      </trkpt>
      <trkpt lat="47.10077" lon="-1.80969">
        <ele>7.57</ele>
        <time>2020-06-20T09:21:06Z</time>
      </trkpt>
      <trkpt lat="47.10066" lon="-1.80969">
        <ele>8.33</ele>
        <time>2020-06-20T09:21:08Z</time>
      </trkpt>
      <trkpt lat="47.10055" lon="-1.80968">
        <ele>9.73</ele>
        <time>2020-06-20T09:21:10Z</time>
      </trkpt>
      <trkpt lat="47.10043" lon="-1.80969">
        <ele>11.66</ele>
        <time>2020-06-20T09:21:12Z</time>
      </trkpt>
      <trkpt lat="47.10027" lon="-1.8097">
        <ele>12.38</ele>
        <time>2020-06-20T09:21:14Z</time>
      </trkpt>
      <trkpt lat="47.10014" lon="-1.80972">
        <ele>11.83</ele>
        <time>2020-06-20T09:21:16Z</time>
      </trkpt>
      <trkpt lat="47.10002" lon="-1.80973">
        <ele>11.83</ele>
        <time>2020-06-20T09:21:18Z</time>
      </trkpt>
      <trkpt lat="47.0999" lon="-1.80975">
        <ele>11.37</ele>
        <time>2020-06-20T09:21:20Z</time>
      </trkpt>
      <trkpt lat="47.09979" lon="-1.80975">
        <ele>11.52</ele>
        <time>2020-06-20T09:21:22Z</time>
      </trkpt>
      <trkpt lat="47.09967" lon="-1.80975">
        <ele>12.05</ele>
        <time>2020-06-20T09:21:24Z</time>
      </trkpt>
      <trkpt lat="47.09956" lon="-1.80976">
        <ele>11.39</ele>
        <time>2020-06-20T09:21:26Z</time>
      </trkpt>
      <trkpt lat="47.09943" lon="-1.80978">
        <ele>9.97</ele>
        <time>2020-06-20T09:21:28Z</time>
      </trkpt>
      <trkpt lat="47.09929" lon="-1.8098">
        <ele>8.34</ele>
        <time>2020-06-20T09:21:30Z</time>
      </trkpt>
      <trkpt lat="47.09917" lon="-1.80981">
        <ele>9.28</ele>
        <time>2020-06-20T09:21:32Z</time>
      </trkpt>
      <trkpt lat="47.09906" lon="-1.80983">
        <ele>11.04</ele>
        <time>2020-06-20T09:21:34Z</time>
      </trkpt>
      <trkpt lat="47.09894" lon="-1.80984">
        <ele>10.47</ele>
        <time>2020-06-20T09:21:36Z</time>
      </trkpt>
      <trkpt lat="47.09884" lon="-1.80985">
        <ele>9.92</ele>
        <time>2020-06-20T09:21:38Z</time>
      </trkpt>
      <trkpt lat="47.09871" lon="-1.80986">
        <ele>9.82</ele>
        <time>2020-06-20T09:21:40Z</time>
      </trkpt>
      <trkpt lat="47.09859" lon="-1.80985">
        <ele>10.73</ele>
        <time>2020-06-20T09:21:42Z</time>
      </trkpt>
      <trkpt lat="47.09849" lon="-1.80988">
        <ele>11.47</ele>
        <time>2020-06-20T09:21:44Z</time>
      </trkpt>
      <trkpt lat="47.09837" lon="-1.80989">
        <ele>11.67</ele>
        <time>2020-06-20T09:21:46Z</time>
      </trkpt>
      <trkpt lat="47.09825" lon="-1.80989">
        <ele>11.49</ele>
        <time>2020-06-20T09:21:48Z</time>
      </trkpt>
      <trkpt lat="47.09813" lon="-1.80991">
        <ele>11.04</ele>
        <time>2020-06-20T09:21:51Z</time>
      </trkpt>
      <trkpt lat="47.098" lon="-1.80993">
        <ele>11.74</ele>
        <time>2020-06-20T09:21:53Z</time>
      </trkpt>
      <trkpt lat="47.09786" lon="-1.8099">
        <ele>12.03</ele>
        <time>2020-06-20T09:21:55Z</time>
      </trkpt>
      <trkpt lat="47.09773" lon="-1.80988">
        <ele>13.07</ele>
        <time>2020-06-20T09:21:57Z</time>
      </trkpt>
      <trkpt lat="47.09763" lon="-1.80987">
        <ele>13.73</ele>
        <time>2020-06-20T09:21:59Z</time>
      </trkpt>
      <trkpt lat="47.09752" lon="-1.80985">
        <ele>13.64</ele>
        <time>2020-06-20T09:22:01Z</time>
      </trkpt>
      <trkpt lat="47.09742" lon="-1.80982">
        <ele>13.18</ele>
        <time>2020-06-20T09:22:03Z</time>
      </trkpt>
      <trkpt lat="47.09728" lon="-1.80979">
        <ele>11.34</ele>
        <time>2020-06-20T09:22:05Z</time>
      </trkpt>
      <trkpt lat="47.09715" lon="-1.80975">
        <ele>10.77</ele>
        <time>2020-06-20T09:22:07Z</time>
      </trkpt>
      <trkpt lat="47.09702" lon="-1.80971">
        <ele>10.39</ele>
        <time>2020-06-20T09:22:09Z</time>
      </trkpt>
      <trkpt lat="47.09688" lon="-1.80968">
        <ele>10.06</ele>
        <time>2020-06-20T09:22:11Z</time>
      </trkpt>
      <trkpt lat="47.09676" lon="-1.80965">
        <ele>9.47</ele>
        <time>2020-06-20T09:22:13Z</time>
      </trkpt>
      <trkpt lat="47.09661" lon="-1.80961">
        <ele>9.89</ele>
        <time>2020-06-20T09:22:15Z</time>
      </trkpt>
      <trkpt lat="47.09649" lon="-1.80957">
        <ele>10.98</ele>
        <time>2020-06-20T09:22:17Z</time>
      </trkpt>
      <trkpt lat="47.09635" lon="-1.80954">
        <ele>10.53</ele>
        <time>2020-06-20T09:22:19Z</time>
      </trkpt>
      <trkpt lat="47.09622" lon="-1.80952">
        <ele>10.95</ele>
        <time>2020-06-20T09:22:21Z</time>
      </trkpt>
      <trkpt lat="47.09611" lon="-1.8095">
        <ele>11.35</ele>
        <time>2020-06-20T09:22:23Z</time>
      </trkpt>
      <trkpt lat="47.096" lon="-1.80949">
        <ele>10.33</ele>
        <time>2020-06-20T09:22:25Z</time>
      </trkpt>
      <trkpt lat="47.09589" lon="-1.80942">
        <ele>9.7</ele>
        <time>2020-06-20T09:22:27Z</time>
      </trkpt>
      <trkpt lat="47.09575" lon="-1.80939">
        <ele>9.04</ele>
        <time>2020-06-20T09:22:29Z</time>
      </trkpt>
      <trkpt lat="47.09561" lon="-1.80935">
        <ele>9.27</ele>
        <time>2020-06-20T09:22:31Z</time>
      </trkpt>
      <trkpt lat="47.09548" lon="-1.80932">
        <ele>9.76</ele>
        <time>2020-06-20T09:22:33Z</time>
      </trkpt>
      <trkpt lat="47.09536" lon="-1.80929">
        <ele>9.98</ele>
        <time>2020-06-20T09:22:35Z</time>
      </trkpt>
      <trkpt lat="47.09521" lon="-1.80926">
        <ele>10.8</ele>
        <time>2020-06-20T09:22:37Z</time>
      </trkpt>
      <trkpt lat="47.09508" lon="-1.80923">
        <ele>11.16</ele>
        <time>2020-06-20T09:22:39Z</time>
      </trkpt>
      <trkpt lat="47.09494" lon="-1.80921">
        <ele>11.6</ele>
        <time>2020-06-20T09:22:41Z</time>
      </trkpt>
      <trkpt lat="47.09482" lon="-1.80925">
        <ele>12.26</ele>
        <time>2020-06-20T09:22:43Z</time>
      </trkpt>
      <trkpt lat="47.0947" lon="-1.80929">
        <ele>11.55</ele>
        <time>2020-06-20T09:22:45Z</time>
      </trkpt>
      <trkpt lat="47.09457" lon="-1.80937">
        <ele>11.53</ele>
        <time>2020-06-20T09:22:47Z</time>
      </trkpt>
      <trkpt lat="47.09447" lon="-1.80943">
        <ele>11.46</ele>
        <time>2020-06-20T09:22:49Z</time>
      </trkpt>
      <trkpt lat="47.09434" lon="-1.8095">
        <ele>11.08</ele>
        <time>2020-06-20T09:22:51Z</time>
      </trkpt>
      <trkpt lat="47.09422" lon="-1.80958">
        <ele>10.2</ele>
        <time>2020-06-20T09:22:53Z</time>
      </trkpt>
      <trkpt lat="47.09411" lon="-1.80965">
        <ele>9.55</ele>
        <time>2020-06-20T09:22:55Z</time>
      </trkpt>
      <trkpt lat="47.09399" lon="-1.80972">
        <ele>8.51</ele>
        <time>2020-06-20T09:22:57Z</time>
      </trkpt>
      <trkpt lat="47.09387" lon="-1.80981">
        <ele>7.53</ele>
        <time>2020-06-20T09:22:59Z</time>
      </trkpt>
      <trkpt lat="47.09373" lon="-1.8099">
        <ele>7.14</ele>
        <time>2020-06-20T09:23:01Z</time>
      </trkpt>
      <trkpt lat="47.0936" lon="-1.80998">
        <ele>7.19</ele>
        <time>2020-06-20T09:23:03Z</time>
      </trkpt>
      <trkpt lat="47.09347" lon="-1.81005">
        <ele>7.01</ele>
        <time>2020-06-20T09:23:05Z</time>
      </trkpt>
      <trkpt lat="47.09335" lon="-1.81012">
        <ele>6.25</ele>
        <time>2020-06-20T09:23:07Z</time>
      </trkpt>
      <trkpt lat="47.09322" lon="-1.81021">
        <ele>5.85</ele>
        <time>2020-06-20T09:23:09Z</time>
      </trkpt>
      <trkpt lat="47.09308" lon="-1.81029">
        <ele>5.43</ele>
        <time>2020-06-20T09:23:11Z</time>
      </trkpt>
      <trkpt lat="47.09295" lon="-1.81038">
        <ele>4.53</ele>
        <time>2020-06-20T09:23:13Z</time>
      </trkpt>
      <trkpt lat="47.09281" lon="-1.81046">
        <ele>4.49</ele>
        <time>2020-06-20T09:23:15Z</time>
      </trkpt>
      <trkpt lat="47.09268" lon="-1.81053">
        <ele>4.25</ele>
        <time>2020-06-20T09:23:17Z</time>
      </trkpt>
      <trkpt lat="47.09257" lon="-1.8106">
        <ele>3.59</ele>
        <time>2020-06-20T09:23:19Z</time>
      </trkpt>
      <trkpt lat="47.09244" lon="-1.81068">
        <ele>3.05</ele>
        <time>2020-06-20T09:23:21Z</time>
      </trkpt>
      <trkpt lat="47.09234" lon="-1.81077">
        <ele>3.06</ele>
        <time>2020-06-20T09:23:23Z</time>
      </trkpt>
      <trkpt lat="47.09224" lon="-1.81085">
        <ele>3.7</ele>
        <time>2020-06-20T09:23:26Z</time>
      </trkpt>
      <trkpt lat="47.09212" lon="-1.81082">
        <ele>4.52</ele>
        <time>2020-06-20T09:23:29Z</time>
      </trkpt>
      <trkpt lat="47.092" lon="-1.81075">
        <ele>5.13</ele>
        <time>2020-06-20T09:23:31Z</time>
      </trkpt>
      <trkpt lat="47.0919" lon="-1.81068">
        <ele>5.41</ele>
        <time>2020-06-20T09:23:33Z</time>
      </trkpt>
      <trkpt lat="47.09178" lon="-1.81059">
        <ele>5.52</ele>
        <time>2020-06-20T09:23:35Z</time>
      </trkpt>
      <trkpt lat="47.09168" lon="-1.8105">
        <ele>7.01</ele>
        <time>2020-06-20T09:23:37Z</time>
      </trkpt>
      <trkpt lat="47.09158" lon="-1.81063">
        <ele>7.78</ele>
        <time>2020-06-20T09:23:40Z</time>
      </trkpt>
      <trkpt lat="47.09149" lon="-1.8108">
        <ele>8.28</ele>
        <time>2020-06-20T09:23:42Z</time>
      </trkpt>
      <trkpt lat="47.09138" lon="-1.81096">
        <ele>8.15</ele>
        <time>2020-06-20T09:23:44Z</time>
      </trkpt>
      <trkpt lat="47.09127" lon="-1.81109">
        <ele>7.68</ele>
        <time>2020-06-20T09:23:46Z</time>
      </trkpt>
      <trkpt lat="47.09114" lon="-1.81115">
        <ele>6.06</ele>
        <time>2020-06-20T09:23:48Z</time>
      </trkpt>
      <trkpt lat="47.09104" lon="-1.81118">
        <ele>4.91</ele>
        <time>2020-06-20T09:23:50Z</time>
      </trkpt>
      <trkpt lat="47.0909" lon="-1.81121">
        <ele>4.59</ele>
        <time>2020-06-20T09:23:52Z</time>
      </trkpt>
      <trkpt lat="47.09077" lon="-1.81126">
        <ele>4.59</ele>
        <time>2020-06-20T09:23:54Z</time>
      </trkpt>
      <trkpt lat="47.09066" lon="-1.81132">
        <ele>4.65</ele>
        <time>2020-06-20T09:23:56Z</time>
      </trkpt>
      <trkpt lat="47.09056" lon="-1.81148">
        <ele>3.83</ele>
        <time>2020-06-20T09:23:58Z</time>
      </trkpt>
      <trkpt lat="47.0905" lon="-1.81164">
        <ele>3.6</ele>
        <time>2020-06-20T09:24:00Z</time>
      </trkpt>
      <trkpt lat="47.09044" lon="-1.8118">
        <ele>3.97</ele>
        <time>2020-06-20T09:24:02Z</time>
      </trkpt>
      <trkpt lat="47.09038" lon="-1.81195">
        <ele>4.99</ele>
        <time>2020-06-20T09:24:05Z</time>
      </trkpt>
      <trkpt lat="47.09033" lon="-1.81208">
        <ele>5.58</ele>
        <time>2020-06-20T09:24:07Z</time>
      </trkpt>
      <trkpt lat="47.09028" lon="-1.81222">
        <ele>6.96</ele>
        <time>2020-06-20T09:24:09Z</time>
      </trkpt>
      <trkpt lat="47.09023" lon="-1.81235">
        <ele>8.5</ele>
        <time>2020-06-20T09:24:11Z</time>
      </trkpt>
      <trkpt lat="47.09017" lon="-1.81246">
        <ele>9.42</ele>
        <time>2020-06-20T09:24:13Z</time>
      </trkpt>
      <trkpt lat="47.09009" lon="-1.81259">
        <ele>9.21</ele>
        <time>2020-06-20T09:24:15Z</time>
      </trkpt>
      <trkpt lat="47.09001" lon="-1.81273">
        <ele>8.3</ele>
        <time>2020-06-20T09:24:17Z</time>
      </trkpt>
      <trkpt lat="47.08993" lon="-1.81285">
        <ele>6.84</ele>
        <time>2020-06-20T09:24:20Z</time>
      </trkpt>
      <trkpt lat="47.08985" lon="-1.81297">
        <ele>6.1</ele>
        <time>2020-06-20T09:24:22Z</time>
      </trkpt>
      <trkpt lat="47.08975" lon="-1.81308">
        <ele>6.93</ele>
        <time>2020-06-20T09:24:24Z</time>
      </trkpt>
      <trkpt lat="47.08967" lon="-1.81317">
        <ele>7.34</ele>
        <time>2020-06-20T09:24:26Z</time>
      </trkpt>
      <trkpt lat="47.0896" lon="-1.81328">
        <ele>7.83</ele>
        <time>2020-06-20T09:24:28Z</time>
      </trkpt>
      <trkpt lat="47.08952" lon="-1.81339">
        <ele>7.37</ele>
        <time>2020-06-20T09:24:30Z</time>
      </trkpt>
      <trkpt lat="47.08945" lon="-1.81348">
        <ele>7.44</ele>
        <time>2020-06-20T09:24:32Z</time>
      </trkpt>
      <trkpt lat="47.08936" lon="-1.81359">
        <ele>7.73</ele>
        <time>2020-06-20T09:24:34Z</time>
      </trkpt>
      <trkpt lat="47.08928" lon="-1.81368">
        <ele>8.59</ele>
        <time>2020-06-20T09:24:36Z</time>
      </trkpt>
      <trkpt lat="47.08919" lon="-1.81376">
        <ele>8.72</ele>
        <time>2020-06-20T09:24:38Z</time>
      </trkpt>
      <trkpt lat="47.0891" lon="-1.81385">
        <ele>8.6</ele>
        <time>2020-06-20T09:24:40Z</time>
      </trkpt>
      <trkpt lat="47.08901" lon="-1.81394">
        <ele>8.56</ele>
        <time>2020-06-20T09:24:42Z</time>
      </trkpt>
      <trkpt lat="47.08893" lon="-1.81401">
        <ele>8.99</ele>
        <time>2020-06-20T09:24:44Z</time>
      </trkpt>
      <trkpt lat="47.08885" lon="-1.81411">
        <ele>10.18</ele>
        <time>2020-06-20T09:24:46Z</time>
      </trkpt>
      <trkpt lat="47.08877" lon="-1.8142">
        <ele>11.2</ele>
        <time>2020-06-20T09:24:48Z</time>
      </trkpt>
      <trkpt lat="47.0887" lon="-1.81428">
        <ele>11.82</ele>
        <time>2020-06-20T09:24:50Z</time>
      </trkpt>
      <trkpt lat="47.08861" lon="-1.81438">
        <ele>12.38</ele>
        <time>2020-06-20T09:24:52Z</time>
      </trkpt>
      <trkpt lat="47.08852" lon="-1.8145">
        <ele>11.51</ele>
        <time>2020-06-20T09:24:54Z</time>
      </trkpt>
      <trkpt lat="47.08842" lon="-1.81462">
        <ele>10.51</ele>
        <time>2020-06-20T09:24:57Z</time>
      </trkpt>
      <trkpt lat="47.08835" lon="-1.8147">
        <ele>10.49</ele>
        <time>2020-06-20T09:24:59Z</time>
      </trkpt>
      <trkpt lat="47.08825" lon="-1.81479">
        <ele>10.36</ele>
        <time>2020-06-20T09:25:01Z</time>
      </trkpt>
      <trkpt lat="47.08815" lon="-1.81488">
        <ele>10.57</ele>
        <time>2020-06-20T09:25:03Z</time>
      </trkpt>
      <trkpt lat="47.08804" lon="-1.81496">
        <ele>11.08</ele>
        <time>2020-06-20T09:25:06Z</time>
      </trkpt>
      <trkpt lat="47.08794" lon="-1.81504">
        <ele>12.49</ele>
        <time>2020-06-20T09:25:08Z</time>
      </trkpt>
      <trkpt lat="47.08785" lon="-1.8151">
        <ele>13.67</ele>
        <time>2020-06-20T09:25:10Z</time>
      </trkpt>
      <trkpt lat="47.08776" lon="-1.81516">
        <ele>13.98</ele>
        <time>2020-06-20T09:25:12Z</time>
      </trkpt>
      <trkpt lat="47.08768" lon="-1.81523">
        <ele>14.2</ele>
        <time>2020-06-20T09:25:14Z</time>
      </trkpt>
      <trkpt lat="47.0876" lon="-1.81529">
        <ele>15.19</ele>
        <time>2020-06-20T09:25:16Z</time>
      </trkpt>
      <trkpt lat="47.08751" lon="-1.81535">
        <ele>15.44</ele>
        <time>2020-06-20T09:25:18Z</time>
      </trkpt>
      <trkpt lat="47.08744" lon="-1.81545">
        <ele>15.63</ele>
        <time>2020-06-20T09:25:20Z</time>
      </trkpt>
      <trkpt lat="47.08737" lon="-1.81555">
        <ele>15.27</ele>
        <time>2020-06-20T09:25:22Z</time>
      </trkpt>
      <trkpt lat="47.08728" lon="-1.81569">
        <ele>14.71</ele>
        <time>2020-06-20T09:25:25Z</time>
      </trkpt>
      <trkpt lat="47.08723" lon="-1.8158">
        <ele>14.91</ele>
        <time>2020-06-20T09:25:27Z</time>
      </trkpt>
      <trkpt lat="47.08717" lon="-1.81598">
        <ele>17.24</ele>
        <time>2020-06-20T09:25:30Z</time>
      </trkpt>
      <trkpt lat="47.08711" lon="-1.81612">
        <ele>18.39</ele>
        <time>2020-06-20T09:25:32Z</time>
      </trkpt>
      <trkpt lat="47.08706" lon="-1.81625">
        <ele>19.21</ele>
        <time>2020-06-20T09:25:34Z</time>
      </trkpt>
      <trkpt lat="47.08701" lon="-1.81637">
        <ele>19.11</ele>
        <time>2020-06-20T09:25:36Z</time>
      </trkpt>
      <trkpt lat="47.08697" lon="-1.81649">
        <ele>18.4</ele>
        <time>2020-06-20T09:25:38Z</time>
      </trkpt>
      <trkpt lat="47.08692" lon="-1.81663">
        <ele>17.4</ele>
        <time>2020-06-20T09:25:40Z</time>
      </trkpt>
      <trkpt lat="47.08686" lon="-1.81677">
        <ele>15.81</ele>
        <time>2020-06-20T09:25:42Z</time>
      </trkpt>
      <trkpt lat="47.08678" lon="-1.81686">
        <ele>14.92</ele>
        <time>2020-06-20T09:25:44Z</time>
      </trkpt>
      <trkpt lat="47.08669" lon="-1.81691">
        <ele>14.24</ele>
        <time>2020-06-20T09:25:46Z</time>
      </trkpt>
      <trkpt lat="47.0866" lon="-1.81696">
        <ele>14.78</ele>
        <time>2020-06-20T09:25:48Z</time>
      </trkpt>
      <trkpt lat="47.08646" lon="-1.81696">
        <ele>15.58</ele>
        <time>2020-06-20T09:25:51Z</time>
      </trkpt>
      <trkpt lat="47.08636" lon="-1.81694">
        <ele>16.55</ele>
        <time>2020-06-20T09:25:53Z</time>
      </trkpt>
      <trkpt lat="47.08626" lon="-1.81691">
        <ele>16.35</ele>
        <time>2020-06-20T09:25:55Z</time>
      </trkpt>
      <trkpt lat="47.08613" lon="-1.81687">
        <ele>17.16</ele>
        <time>2020-06-20T09:25:58Z</time>
      </trkpt>
      <trkpt lat="47.08603" lon="-1.81683">
        <ele>18.6</ele>
        <time>2020-06-20T09:26:00Z</time>
      </trkpt>
      <trkpt lat="47.08592" lon="-1.81679">
        <ele>19.2</ele>
        <time>2020-06-20T09:26:02Z</time>
      </trkpt>
      <trkpt lat="47.08581" lon="-1.81676">
        <ele>19.98</ele>
        <time>2020-06-20T09:26:04Z</time>
      </trkpt>
      <trkpt lat="47.08571" lon="-1.81674">
        <ele>20.77</ele>
        <time>2020-06-20T09:26:06Z</time>
      </trkpt>
      <trkpt lat="47.08561" lon="-1.81672">
        <ele>21.67</ele>
        <time>2020-06-20T09:26:08Z</time>
      </trkpt>
      <trkpt lat="47.08549" lon="-1.8167">
        <ele>22.39</ele>
        <time>2020-06-20T09:26:10Z</time>
      </trkpt>
      <trkpt lat="47.0854" lon="-1.81667">
        <ele>21.86</ele>
        <time>2020-06-20T09:26:12Z</time>
      </trkpt>
      <trkpt lat="47.08529" lon="-1.81665">
        <ele>20.69</ele>
        <time>2020-06-20T09:26:14Z</time>
      </trkpt>
      <trkpt lat="47.08519" lon="-1.81663">
        <ele>20.66</ele>
        <time>2020-06-20T09:26:16Z</time>
      </trkpt>
      <trkpt lat="47.08506" lon="-1.81662">
        <ele>20.63</ele>
        <time>2020-06-20T09:26:19Z</time>
      </trkpt>
      <trkpt lat="47.08493" lon="-1.81659">
        <ele>21.8</ele>
        <time>2020-06-20T09:26:21Z</time>
      </trkpt>
      <trkpt lat="47.08483" lon="-1.81657">
        <ele>22.42</ele>
        <time>2020-06-20T09:26:23Z</time>
      </trkpt>
      <trkpt lat="47.08472" lon="-1.81655">
        <ele>22.45</ele>
        <time>2020-06-20T09:26:25Z</time>
      </trkpt>
      <trkpt lat="47.08462" lon="-1.81654">
        <ele>22.39</ele>
        <time>2020-06-20T09:26:27Z</time>
      </trkpt>
      <trkpt lat="47.0845" lon="-1.81651">
        <ele>22.49</ele>
        <time>2020-06-20T09:26:29Z</time>
      </trkpt>
      <trkpt lat="47.0844" lon="-1.81649">
        <ele>22.66</ele>
        <time>2020-06-20T09:26:31Z</time>
      </trkpt>
      <trkpt lat="47.08426" lon="-1.81647">
        <ele>23.64</ele>
        <time>2020-06-20T09:26:33Z</time>
      </trkpt>
      <trkpt lat="47.08414" lon="-1.81646">
        <ele>24.38</ele>
        <time>2020-06-20T09:26:35Z</time>
      </trkpt>
      <trkpt lat="47.08403" lon="-1.81645">
        <ele>24.34</ele>
        <time>2020-06-20T09:26:37Z</time>
      </trkpt>
      <trkpt lat="47.08391" lon="-1.81644">
        <ele>23.22</ele>
        <time>2020-06-20T09:26:39Z</time>
      </trkpt>
      <trkpt lat="47.08381" lon="-1.81643">
        <ele>22.57</ele>
        <time>2020-06-20T09:26:41Z</time>
      </trkpt>
      <trkpt lat="47.08368" lon="-1.81641">
        <ele>22.27</ele>
        <time>2020-06-20T09:26:43Z</time>
      </trkpt>
      <trkpt lat="47.08357" lon="-1.8164">
        <ele>21.54</ele>
        <time>2020-06-20T09:26:45Z</time>
      </trkpt>
      <trkpt lat="47.08346" lon="-1.81638">
        <ele>20.95</ele>
        <time>2020-06-20T09:26:47Z</time>
      </trkpt>
      <trkpt lat="47.08334" lon="-1.81639">
        <ele>19.64</ele>
        <time>2020-06-20T09:26:49Z</time>
      </trkpt>
      <trkpt lat="47.08321" lon="-1.81635">
        <ele>19.04</ele>
        <time>2020-06-20T09:26:51Z</time>
      </trkpt>
      <trkpt lat="47.08311" lon="-1.81635">
        <ele>18.16</ele>
        <time>2020-06-20T09:26:53Z</time>
      </trkpt>
      <trkpt lat="47.08301" lon="-1.81635">
        <ele>18.02</ele>
        <time>2020-06-20T09:26:55Z</time>
      </trkpt>
      <trkpt lat="47.08289" lon="-1.81635">
        <ele>17.36</ele>
        <time>2020-06-20T09:26:57Z</time>
      </trkpt>
      <trkpt lat="47.08274" lon="-1.81633">
        <ele>18</ele>
        <time>2020-06-20T09:26:59Z</time>
      </trkpt>
      <trkpt lat="47.08262" lon="-1.81632">
        <ele>17.64</ele>
        <time>2020-06-20T09:27:01Z</time>
      </trkpt>
      <trkpt lat="47.08249" lon="-1.81631">
        <ele>16.74</ele>
        <time>2020-06-20T09:27:03Z</time>
      </trkpt>
      <trkpt lat="47.08236" lon="-1.8163">
        <ele>16.04</ele>
        <time>2020-06-20T09:27:05Z</time>
      </trkpt>
      <trkpt lat="47.08223" lon="-1.81631">
        <ele>15.16</ele>
        <time>2020-06-20T09:27:07Z</time>
      </trkpt>
      <trkpt lat="47.0821" lon="-1.81631">
        <ele>15.37</ele>
        <time>2020-06-20T09:27:09Z</time>
      </trkpt>
      <trkpt lat="47.08196" lon="-1.81631">
        <ele>16.99</ele>
        <time>2020-06-20T09:27:11Z</time>
      </trkpt>
      <trkpt lat="47.08184" lon="-1.8163">
        <ele>18.06</ele>
        <time>2020-06-20T09:27:13Z</time>
      </trkpt>
      <trkpt lat="47.08172" lon="-1.81629">
        <ele>18.06</ele>
        <time>2020-06-20T09:27:15Z</time>
      </trkpt>
      <trkpt lat="47.08161" lon="-1.81628">
        <ele>18.02</ele>
        <time>2020-06-20T09:27:17Z</time>
      </trkpt>
      <trkpt lat="47.08148" lon="-1.81627">
        <ele>17.63</ele>
        <time>2020-06-20T09:27:19Z</time>
      </trkpt>
      <trkpt lat="47.08135" lon="-1.81626">
        <ele>17.46</ele>
        <time>2020-06-20T09:27:21Z</time>
      </trkpt>
      <trkpt lat="47.08122" lon="-1.81624">
        <ele>17.68</ele>
        <time>2020-06-20T09:27:23Z</time>
      </trkpt>
      <trkpt lat="47.08109" lon="-1.81623">
        <ele>17.19</ele>
        <time>2020-06-20T09:27:25Z</time>
      </trkpt>
      <trkpt lat="47.08096" lon="-1.8162">
        <ele>16.94</ele>
        <time>2020-06-20T09:27:27Z</time>
      </trkpt>
      <trkpt lat="47.08086" lon="-1.81616">
        <ele>16.91</ele>
        <time>2020-06-20T09:27:29Z</time>
      </trkpt>
      <trkpt lat="47.08073" lon="-1.81611">
        <ele>17.68</ele>
        <time>2020-06-20T09:27:31Z</time>
      </trkpt>
      <trkpt lat="47.08061" lon="-1.81605">
        <ele>19.56</ele>
        <time>2020-06-20T09:27:33Z</time>
      </trkpt>
      <trkpt lat="47.08051" lon="-1.81599">
        <ele>20.05</ele>
        <time>2020-06-20T09:27:35Z</time>
      </trkpt>
      <trkpt lat="47.0804" lon="-1.81593">
        <ele>19.09</ele>
        <time>2020-06-20T09:27:37Z</time>
      </trkpt>
      <trkpt lat="47.0803" lon="-1.81586">
        <ele>18.53</ele>
        <time>2020-06-20T09:27:39Z</time>
      </trkpt>
      <trkpt lat="47.08018" lon="-1.8158">
        <ele>18.5</ele>
        <time>2020-06-20T09:27:41Z</time>
      </trkpt>
      <trkpt lat="47.08007" lon="-1.81573">
        <ele>19.73</ele>
        <time>2020-06-20T09:27:43Z</time>
      </trkpt>
      <trkpt lat="47.07996" lon="-1.81567">
        <ele>19.54</ele>
        <time>2020-06-20T09:27:45Z</time>
      </trkpt>
      <trkpt lat="47.07984" lon="-1.81563">
        <ele>19.03</ele>
        <time>2020-06-20T09:27:47Z</time>
      </trkpt>
      <trkpt lat="47.07971" lon="-1.81558">
        <ele>19.21</ele>
        <time>2020-06-20T09:27:49Z</time>
      </trkpt>
      <trkpt lat="47.07959" lon="-1.81555">
        <ele>19.18</ele>
        <time>2020-06-20T09:27:51Z</time>
      </trkpt>
      <trkpt lat="47.07948" lon="-1.81554">
        <ele>18.49</ele>
        <time>2020-06-20T09:27:53Z</time>
      </trkpt>
      <trkpt lat="47.07936" lon="-1.81555">
        <ele>18.6</ele>
        <time>2020-06-20T09:27:55Z</time>
      </trkpt>
      <trkpt lat="47.07924" lon="-1.81556">
        <ele>17.8</ele>
        <time>2020-06-20T09:27:57Z</time>
      </trkpt>
      <trkpt lat="47.07912" lon="-1.81558">
        <ele>18.45</ele>
        <time>2020-06-20T09:27:59Z</time>
      </trkpt>
      <trkpt lat="47.07901" lon="-1.81559">
        <ele>18.16</ele>
        <time>2020-06-20T09:28:01Z</time>
      </trkpt>
      <trkpt lat="47.07888" lon="-1.81561">
        <ele>17.29</ele>
        <time>2020-06-20T09:28:03Z</time>
      </trkpt>
      <trkpt lat="47.07876" lon="-1.81562">
        <ele>16.93</ele>
        <time>2020-06-20T09:28:05Z</time>
      </trkpt>
      <trkpt lat="47.07864" lon="-1.81562">
        <ele>16.7</ele>
        <time>2020-06-20T09:28:07Z</time>
      </trkpt>
      <trkpt lat="47.07853" lon="-1.81562">
        <ele>17.22</ele>
        <time>2020-06-20T09:28:08Z</time>
      </trkpt>
      <trkpt lat="47.07843" lon="-1.81562">
        <ele>17.32</ele>
        <time>2020-06-20T09:28:10Z</time>
      </trkpt>
      <trkpt lat="47.07829" lon="-1.81559">
        <ele>17.63</ele>
        <time>2020-06-20T09:28:12Z</time>
      </trkpt>
      <trkpt lat="47.07817" lon="-1.81557">
        <ele>18.4</ele>
        <time>2020-06-20T09:28:14Z</time>
      </trkpt>
      <trkpt lat="47.07805" lon="-1.81554">
        <ele>17.8</ele>
        <time>2020-06-20T09:28:16Z</time>
      </trkpt>
      <trkpt lat="47.07793" lon="-1.81551">
        <ele>18.52</ele>
        <time>2020-06-20T09:28:18Z</time>
      </trkpt>
      <trkpt lat="47.07784" lon="-1.8155">
        <ele>17.53</ele>
        <time>2020-06-20T09:28:20Z</time>
      </trkpt>
      <trkpt lat="47.07772" lon="-1.81549">
        <ele>16.87</ele>
        <time>2020-06-20T09:28:22Z</time>
      </trkpt>
      <trkpt lat="47.07758" lon="-1.81547">
        <ele>16.58</ele>
        <time>2020-06-20T09:28:24Z</time>
      </trkpt>
      <trkpt lat="47.07747" lon="-1.81548">
        <ele>16.41</ele>
        <time>2020-06-20T09:28:26Z</time>
      </trkpt>
      <trkpt lat="47.07736" lon="-1.81547">
        <ele>17.34</ele>
        <time>2020-06-20T09:28:28Z</time>
      </trkpt>
      <trkpt lat="47.07726" lon="-1.81547">
        <ele>17.52</ele>
        <time>2020-06-20T09:28:30Z</time>
      </trkpt>
      <trkpt lat="47.07713" lon="-1.81547">
        <ele>17.19</ele>
        <time>2020-06-20T09:28:32Z</time>
      </trkpt>
      <trkpt lat="47.07701" lon="-1.81545">
        <ele>17.13</ele>
        <time>2020-06-20T09:28:34Z</time>
      </trkpt>
      <trkpt lat="47.07691" lon="-1.81545">
        <ele>18.15</ele>
        <time>2020-06-20T09:28:36Z</time>
      </trkpt>
      <trkpt lat="47.07677" lon="-1.81545">
        <ele>17.82</ele>
        <time>2020-06-20T09:28:38Z</time>
      </trkpt>
      <trkpt lat="47.07666" lon="-1.81543">
        <ele>17.33</ele>
        <time>2020-06-20T09:28:40Z</time>
      </trkpt>
      <trkpt lat="47.07655" lon="-1.81541">
        <ele>17.53</ele>
        <time>2020-06-20T09:28:42Z</time>
      </trkpt>
      <trkpt lat="47.07643" lon="-1.81537">
        <ele>17.93</ele>
        <time>2020-06-20T09:28:44Z</time>
      </trkpt>
      <trkpt lat="47.07631" lon="-1.81532">
        <ele>17.77</ele>
        <time>2020-06-20T09:28:46Z</time>
      </trkpt>
      <trkpt lat="47.07621" lon="-1.81525">
        <ele>17.78</ele>
        <time>2020-06-20T09:28:48Z</time>
      </trkpt>
      <trkpt lat="47.07612" lon="-1.81517">
        <ele>18.41</ele>
        <time>2020-06-20T09:28:50Z</time>
      </trkpt>
      <trkpt lat="47.07602" lon="-1.81508">
        <ele>18.97</ele>
        <time>2020-06-20T09:28:52Z</time>
      </trkpt>
      <trkpt lat="47.07593" lon="-1.81499">
        <ele>19.55</ele>
        <time>2020-06-20T09:28:54Z</time>
      </trkpt>
      <trkpt lat="47.07583" lon="-1.81489">
        <ele>19.63</ele>
        <time>2020-06-20T09:28:56Z</time>
      </trkpt>
      <trkpt lat="47.07574" lon="-1.81479">
        <ele>19.73</ele>
        <time>2020-06-20T09:28:58Z</time>
      </trkpt>
      <trkpt lat="47.07564" lon="-1.81468">
        <ele>20.39</ele>
        <time>2020-06-20T09:29:00Z</time>
      </trkpt>
      <trkpt lat="47.07555" lon="-1.81457">
        <ele>20.34</ele>
        <time>2020-06-20T09:29:02Z</time>
      </trkpt>
      <trkpt lat="47.07545" lon="-1.81448">
        <ele>19.89</ele>
        <time>2020-06-20T09:29:04Z</time>
      </trkpt>
      <trkpt lat="47.07535" lon="-1.81442">
        <ele>19.15</ele>
        <time>2020-06-20T09:29:06Z</time>
      </trkpt>
      <trkpt lat="47.07522" lon="-1.81442">
        <ele>19.31</ele>
        <time>2020-06-20T09:29:08Z</time>
      </trkpt>
      <trkpt lat="47.07511" lon="-1.81447">
        <ele>19.59</ele>
        <time>2020-06-20T09:29:10Z</time>
      </trkpt>
      <trkpt lat="47.07499" lon="-1.81453">
        <ele>20.53</ele>
        <time>2020-06-20T09:29:12Z</time>
      </trkpt>
      <trkpt lat="47.0749" lon="-1.8146">
        <ele>20.66</ele>
        <time>2020-06-20T09:29:14Z</time>
      </trkpt>
      <trkpt lat="47.0748" lon="-1.81467">
        <ele>19.48</ele>
        <time>2020-06-20T09:29:16Z</time>
      </trkpt>
      <trkpt lat="47.07467" lon="-1.81475">
        <ele>19.35</ele>
        <time>2020-06-20T09:29:18Z</time>
      </trkpt>
      <trkpt lat="47.07456" lon="-1.81478">
        <ele>19.7</ele>
        <time>2020-06-20T09:29:20Z</time>
      </trkpt>
      <trkpt lat="47.07443" lon="-1.81478">
        <ele>19.64</ele>
        <time>2020-06-20T09:29:22Z</time>
      </trkpt>
      <trkpt lat="47.07431" lon="-1.8148">
        <ele>19.04</ele>
        <time>2020-06-20T09:29:24Z</time>
      </trkpt>
      <trkpt lat="47.07422" lon="-1.81481">
        <ele>19.87</ele>
        <time>2020-06-20T09:29:26Z</time>
      </trkpt>
      <trkpt lat="47.07409" lon="-1.81482">
        <ele>21.2</ele>
        <time>2020-06-20T09:29:28Z</time>
      </trkpt>
      <trkpt lat="47.07398" lon="-1.81484">
        <ele>21.87</ele>
        <time>2020-06-20T09:29:30Z</time>
      </trkpt>
      <trkpt lat="47.07383" lon="-1.81484">
        <ele>22.06</ele>
        <time>2020-06-20T09:29:32Z</time>
      </trkpt>
      <trkpt lat="47.07371" lon="-1.81484">
        <ele>20.78</ele>
        <time>2020-06-20T09:29:34Z</time>
      </trkpt>
      <trkpt lat="47.07361" lon="-1.81482">
        <ele>21.84</ele>
        <time>2020-06-20T09:29:36Z</time>
      </trkpt>
      <trkpt lat="47.0735" lon="-1.81478">
        <ele>23.51</ele>
        <time>2020-06-20T09:29:38Z</time>
      </trkpt>
      <trkpt lat="47.07339" lon="-1.81473">
        <ele>24.05</ele>
        <time>2020-06-20T09:29:40Z</time>
      </trkpt>
      <trkpt lat="47.07327" lon="-1.81468">
        <ele>23.23</ele>
        <time>2020-06-20T09:29:42Z</time>
      </trkpt>
      <trkpt lat="47.07317" lon="-1.81462">
        <ele>23.01</ele>
        <time>2020-06-20T09:29:44Z</time>
      </trkpt>
      <trkpt lat="47.07308" lon="-1.81457">
        <ele>23.16</ele>
        <time>2020-06-20T09:29:46Z</time>
      </trkpt>
      <trkpt lat="47.073" lon="-1.81451">
        <ele>21.77</ele>
        <time>2020-06-20T09:29:48Z</time>
      </trkpt>
      <trkpt lat="47.07291" lon="-1.81445">
        <ele>21.71</ele>
        <time>2020-06-20T09:29:50Z</time>
      </trkpt>
      <trkpt lat="47.07282" lon="-1.81439">
        <ele>21.95</ele>
        <time>2020-06-20T09:29:52Z</time>
      </trkpt>
      <trkpt lat="47.07271" lon="-1.81428">
        <ele>21.39</ele>
        <time>2020-06-20T09:29:55Z</time>
      </trkpt>
      <trkpt lat="47.07262" lon="-1.81419">
        <ele>21.14</ele>
        <time>2020-06-20T09:29:57Z</time>
      </trkpt>
      <trkpt lat="47.07253" lon="-1.81411">
        <ele>20.94</ele>
        <time>2020-06-20T09:29:59Z</time>
      </trkpt>
      <trkpt lat="47.07246" lon="-1.81403">
        <ele>20.94</ele>
        <time>2020-06-20T09:30:01Z</time>
      </trkpt>
      <trkpt lat="47.07235" lon="-1.81393">
        <ele>22.47</ele>
        <time>2020-06-20T09:30:03Z</time>
      </trkpt>
      <trkpt lat="47.07222" lon="-1.81381">
        <ele>24.86</ele>
        <time>2020-06-20T09:30:05Z</time>
      </trkpt>
      <trkpt lat="47.07208" lon="-1.81369">
        <ele>25.57</ele>
        <time>2020-06-20T09:30:07Z</time>
      </trkpt>
      <trkpt lat="47.07196" lon="-1.81357">
        <ele>25.62</ele>
        <time>2020-06-20T09:30:09Z</time>
      </trkpt>
      <trkpt lat="47.07182" lon="-1.81349">
        <ele>25.27</ele>
        <time>2020-06-20T09:30:11Z</time>
      </trkpt>
      <trkpt lat="47.07169" lon="-1.81352">
        <ele>24.68</ele>
        <time>2020-06-20T09:30:13Z</time>
      </trkpt>
      <trkpt lat="47.07158" lon="-1.81361">
        <ele>24.24</ele>
        <time>2020-06-20T09:30:15Z</time>
      </trkpt>
      <trkpt lat="47.07149" lon="-1.81369">
        <ele>23.46</ele>
        <time>2020-06-20T09:30:17Z</time>
      </trkpt>
      <trkpt lat="47.07138" lon="-1.8138">
        <ele>22.19</ele>
        <time>2020-06-20T09:30:19Z</time>
      </trkpt>
      <trkpt lat="47.07129" lon="-1.81388">
        <ele>22.21</ele>
        <time>2020-06-20T09:30:21Z</time>
      </trkpt>
      <trkpt lat="47.0712" lon="-1.81399">
        <ele>22.04</ele>
        <time>2020-06-20T09:30:23Z</time>
      </trkpt>
      <trkpt lat="47.07112" lon="-1.81407">
        <ele>22.88</ele>
        <time>2020-06-20T09:30:25Z</time>
      </trkpt>
      <trkpt lat="47.07103" lon="-1.81415">
        <ele>23.58</ele>
        <time>2020-06-20T09:30:27Z</time>
      </trkpt>
      <trkpt lat="47.07095" lon="-1.81425">
        <ele>24.63</ele>
        <time>2020-06-20T09:30:29Z</time>
      </trkpt>
      <trkpt lat="47.07086" lon="-1.81437">
        <ele>25.33</ele>
        <time>2020-06-20T09:30:31Z</time>
      </trkpt>
      <trkpt lat="47.0708" lon="-1.81452">
        <ele>25.89</ele>
        <time>2020-06-20T09:30:33Z</time>
      </trkpt>
      <trkpt lat="47.07072" lon="-1.81465">
        <ele>26.38</ele>
        <time>2020-06-20T09:30:35Z</time>
      </trkpt>
      <trkpt lat="47.07064" lon="-1.81476">
        <ele>26.33</ele>
        <time>2020-06-20T09:30:37Z</time>
      </trkpt>
      <trkpt lat="47.07057" lon="-1.8149">
        <ele>26.09</ele>
        <time>2020-06-20T09:30:39Z</time>
      </trkpt>
      <trkpt lat="47.07052" lon="-1.81504">
        <ele>25.06</ele>
        <time>2020-06-20T09:30:41Z</time>
      </trkpt>
      <trkpt lat="47.07046" lon="-1.81517">
        <ele>24.14</ele>
        <time>2020-06-20T09:30:43Z</time>
      </trkpt>
      <trkpt lat="47.0704" lon="-1.81527">
        <ele>24.13</ele>
        <time>2020-06-20T09:30:45Z</time>
      </trkpt>
      <trkpt lat="47.07035" lon="-1.8154">
        <ele>25.43</ele>
        <time>2020-06-20T09:30:47Z</time>
      </trkpt>
      <trkpt lat="47.07029" lon="-1.81555">
        <ele>27.26</ele>
        <time>2020-06-20T09:30:49Z</time>
      </trkpt>
      <trkpt lat="47.07025" lon="-1.81571">
        <ele>27.87</ele>
        <time>2020-06-20T09:30:51Z</time>
      </trkpt>
      <trkpt lat="47.07019" lon="-1.81586">
        <ele>28.5</ele>
        <time>2020-06-20T09:30:53Z</time>
      </trkpt>
      <trkpt lat="47.07016" lon="-1.81599">
        <ele>29.14</ele>
        <time>2020-06-20T09:30:55Z</time>
      </trkpt>
      <trkpt lat="47.07012" lon="-1.81614">
        <ele>29.36</ele>
        <time>2020-06-20T09:30:57Z</time>
      </trkpt>
      <trkpt lat="47.07008" lon="-1.81628">
        <ele>29.07</ele>
        <time>2020-06-20T09:30:59Z</time>
      </trkpt>
      <trkpt lat="47.07" lon="-1.81644">
        <ele>29.24</ele>
        <time>2020-06-20T09:31:02Z</time>
      </trkpt>
      <trkpt lat="47.06997" lon="-1.8166">
        <ele>29.1</ele>
        <time>2020-06-20T09:31:04Z</time>
      </trkpt>
      <trkpt lat="47.06993" lon="-1.81675">
        <ele>28.73</ele>
        <time>2020-06-20T09:31:06Z</time>
      </trkpt>
      <trkpt lat="47.06988" lon="-1.8169">
        <ele>29.03</ele>
        <time>2020-06-20T09:31:08Z</time>
      </trkpt>
      <trkpt lat="47.06982" lon="-1.81703">
        <ele>28.32</ele>
        <time>2020-06-20T09:31:10Z</time>
      </trkpt>
      <trkpt lat="47.06975" lon="-1.8172">
        <ele>28.13</ele>
        <time>2020-06-20T09:31:13Z</time>
      </trkpt>
      <trkpt lat="47.06969" lon="-1.81733">
        <ele>29.33</ele>
        <time>2020-06-20T09:31:15Z</time>
      </trkpt>
      <trkpt lat="47.06962" lon="-1.8175">
        <ele>30.76</ele>
        <time>2020-06-20T09:31:18Z</time>
      </trkpt>
      <trkpt lat="47.06956" lon="-1.81766">
        <ele>29.23</ele>
        <time>2020-06-20T09:31:21Z</time>
      </trkpt>
      <trkpt lat="47.0695" lon="-1.81781">
        <ele>28.81</ele>
        <time>2020-06-20T09:31:23Z</time>
      </trkpt>
      <trkpt lat="47.06943" lon="-1.81798">
        <ele>29.02</ele>
        <time>2020-06-20T09:31:26Z</time>
      </trkpt>
      <trkpt lat="47.06937" lon="-1.81814">
        <ele>29.52</ele>
        <time>2020-06-20T09:31:28Z</time>
      </trkpt>
      <trkpt lat="47.06932" lon="-1.81831">
        <ele>30.51</ele>
        <time>2020-06-20T09:31:30Z</time>
      </trkpt>
      <trkpt lat="47.06927" lon="-1.81844">
        <ele>29.69</ele>
        <time>2020-06-20T09:31:32Z</time>
      </trkpt>
      <trkpt lat="47.06922" lon="-1.81857">
        <ele>29.48</ele>
        <time>2020-06-20T09:31:34Z</time>
      </trkpt>
      <trkpt lat="47.06915" lon="-1.81871">
        <ele>28.98</ele>
        <time>2020-06-20T09:31:36Z</time>
      </trkpt>
      <trkpt lat="47.06909" lon="-1.81885">
        <ele>30.28</ele>
        <time>2020-06-20T09:31:38Z</time>
      </trkpt>
      <trkpt lat="47.06904" lon="-1.81897">
        <ele>30.02</ele>
        <time>2020-06-20T09:31:40Z</time>
      </trkpt>
      <trkpt lat="47.06899" lon="-1.81912">
        <ele>30.24</ele>
        <time>2020-06-20T09:31:42Z</time>
      </trkpt>
      <trkpt lat="47.06895" lon="-1.81926">
        <ele>30.53</ele>
        <time>2020-06-20T09:31:44Z</time>
      </trkpt>
      <trkpt lat="47.06891" lon="-1.81947">
        <ele>31.98</ele>
        <time>2020-06-20T09:31:47Z</time>
      </trkpt>
      <trkpt lat="47.06891" lon="-1.81962">
        <ele>32.49</ele>
        <time>2020-06-20T09:31:49Z</time>
      </trkpt>
      <trkpt lat="47.06892" lon="-1.81978">
        <ele>32.17</ele>
        <time>2020-06-20T09:31:51Z</time>
      </trkpt>
      <trkpt lat="47.06894" lon="-1.81994">
        <ele>32.02</ele>
        <time>2020-06-20T09:31:53Z</time>
      </trkpt>
      <trkpt lat="47.06895" lon="-1.82008">
        <ele>31.31</ele>
        <time>2020-06-20T09:31:55Z</time>
      </trkpt>
      <trkpt lat="47.06896" lon="-1.82022">
        <ele>32</ele>
        <time>2020-06-20T09:31:57Z</time>
      </trkpt>
      <trkpt lat="47.06898" lon="-1.82038">
        <ele>34.13</ele>
        <time>2020-06-20T09:31:59Z</time>
      </trkpt>
      <trkpt lat="47.069" lon="-1.82056">
        <ele>34.9</ele>
        <time>2020-06-20T09:32:01Z</time>
      </trkpt>
      <trkpt lat="47.06901" lon="-1.82071">
        <ele>35.69</ele>
        <time>2020-06-20T09:32:03Z</time>
      </trkpt>
      <trkpt lat="47.06902" lon="-1.82084">
        <ele>36.85</ele>
        <time>2020-06-20T09:32:05Z</time>
      </trkpt>
      <trkpt lat="47.06905" lon="-1.82099">
        <ele>37.3</ele>
        <time>2020-06-20T09:32:07Z</time>
      </trkpt>
      <trkpt lat="47.06905" lon="-1.82116">
        <ele>36.73</ele>
        <time>2020-06-20T09:32:09Z</time>
      </trkpt>
      <trkpt lat="47.06905" lon="-1.82131">
        <ele>36.91</ele>
        <time>2020-06-20T09:32:11Z</time>
      </trkpt>
      <trkpt lat="47.06904" lon="-1.82147">
        <ele>38.13</ele>
        <time>2020-06-20T09:32:13Z</time>
      </trkpt>
      <trkpt lat="47.06905" lon="-1.8216">
        <ele>37.84</ele>
        <time>2020-06-20T09:32:15Z</time>
      </trkpt>
      <trkpt lat="47.06904" lon="-1.82174">
        <ele>37.94</ele>
        <time>2020-06-20T09:32:17Z</time>
      </trkpt>
      <trkpt lat="47.06904" lon="-1.82189">
        <ele>37.25</ele>
        <time>2020-06-20T09:32:19Z</time>
      </trkpt>
      <trkpt lat="47.06904" lon="-1.82203">
        <ele>37.44</ele>
        <time>2020-06-20T09:32:21Z</time>
      </trkpt>
      <trkpt lat="47.06904" lon="-1.82223">
        <ele>38.07</ele>
        <time>2020-06-20T09:32:23Z</time>
      </trkpt>
      <trkpt lat="47.06902" lon="-1.82241">
        <ele>37.56</ele>
        <time>2020-06-20T09:32:25Z</time>
      </trkpt>
      <trkpt lat="47.06902" lon="-1.82258">
        <ele>36.6</ele>
        <time>2020-06-20T09:32:27Z</time>
      </trkpt>
      <trkpt lat="47.06903" lon="-1.82275">
        <ele>35.99</ele>
        <time>2020-06-20T09:32:29Z</time>
      </trkpt>
      <trkpt lat="47.06903" lon="-1.82292">
        <ele>35.99</ele>
        <time>2020-06-20T09:32:31Z</time>
      </trkpt>
      <trkpt lat="47.06902" lon="-1.82307">
        <ele>36.45</ele>
        <time>2020-06-20T09:32:33Z</time>
      </trkpt>
      <trkpt lat="47.069" lon="-1.82323">
        <ele>35.6</ele>
        <time>2020-06-20T09:32:35Z</time>
      </trkpt>
      <trkpt lat="47.06898" lon="-1.8234">
        <ele>35.48</ele>
        <time>2020-06-20T09:32:37Z</time>
      </trkpt>
      <trkpt lat="47.06897" lon="-1.82357">
        <ele>35.23</ele>
        <time>2020-06-20T09:32:39Z</time>
      </trkpt>
      <trkpt lat="47.06895" lon="-1.82372">
        <ele>34.66</ele>
        <time>2020-06-20T09:32:41Z</time>
      </trkpt>
      <trkpt lat="47.06892" lon="-1.82385">
        <ele>33.93</ele>
        <time>2020-06-20T09:32:43Z</time>
      </trkpt>
      <trkpt lat="47.0689" lon="-1.82401">
        <ele>34.74</ele>
        <time>2020-06-20T09:32:45Z</time>
      </trkpt>
      <trkpt lat="47.06887" lon="-1.82417">
        <ele>35.24</ele>
        <time>2020-06-20T09:32:47Z</time>
      </trkpt>
      <trkpt lat="47.06885" lon="-1.82433">
        <ele>34.61</ele>
        <time>2020-06-20T09:32:49Z</time>
      </trkpt>
      <trkpt lat="47.06884" lon="-1.82452">
        <ele>35.6</ele>
        <time>2020-06-20T09:32:51Z</time>
      </trkpt>
      <trkpt lat="47.06884" lon="-1.82467">
        <ele>36.58</ele>
        <time>2020-06-20T09:32:53Z</time>
      </trkpt>
      <trkpt lat="47.06883" lon="-1.82481">
        <ele>35.61</ele>
        <time>2020-06-20T09:32:55Z</time>
      </trkpt>
      <trkpt lat="47.06883" lon="-1.825">
        <ele>35.03</ele>
        <time>2020-06-20T09:32:57Z</time>
      </trkpt>
      <trkpt lat="47.06885" lon="-1.8252">
        <ele>34.77</ele>
        <time>2020-06-20T09:32:59Z</time>
      </trkpt>
      <trkpt lat="47.06886" lon="-1.82538">
        <ele>35.38</ele>
        <time>2020-06-20T09:33:01Z</time>
      </trkpt>
      <trkpt lat="47.06888" lon="-1.82555">
        <ele>36.61</ele>
        <time>2020-06-20T09:33:03Z</time>
      </trkpt>
      <trkpt lat="47.0689" lon="-1.82571">
        <ele>35.89</ele>
        <time>2020-06-20T09:33:05Z</time>
      </trkpt>
      <trkpt lat="47.06892" lon="-1.82588">
        <ele>34.67</ele>
        <time>2020-06-20T09:33:07Z</time>
      </trkpt>
      <trkpt lat="47.06893" lon="-1.82603">
        <ele>34.32</ele>
        <time>2020-06-20T09:33:09Z</time>
      </trkpt>
      <trkpt lat="47.06895" lon="-1.8262">
        <ele>34.55</ele>
        <time>2020-06-20T09:33:11Z</time>
      </trkpt>
      <trkpt lat="47.06897" lon="-1.82636">
        <ele>35.33</ele>
        <time>2020-06-20T09:33:13Z</time>
      </trkpt>
      <trkpt lat="47.06897" lon="-1.82652">
        <ele>34.73</ele>
        <time>2020-06-20T09:33:15Z</time>
      </trkpt>
      <trkpt lat="47.06897" lon="-1.82668">
        <ele>34.28</ele>
        <time>2020-06-20T09:33:17Z</time>
      </trkpt>
      <trkpt lat="47.06896" lon="-1.82683">
        <ele>34.41</ele>
        <time>2020-06-20T09:33:19Z</time>
      </trkpt>
      <trkpt lat="47.06895" lon="-1.82703">
        <ele>34.43</ele>
        <time>2020-06-20T09:33:21Z</time>
      </trkpt>
      <trkpt lat="47.06896" lon="-1.82719">
        <ele>34.75</ele>
        <time>2020-06-20T09:33:23Z</time>
      </trkpt>
      <trkpt lat="47.06896" lon="-1.82737">
        <ele>33.76</ele>
        <time>2020-06-20T09:33:25Z</time>
      </trkpt>
      <trkpt lat="47.06896" lon="-1.82754">
        <ele>32.77</ele>
        <time>2020-06-20T09:33:27Z</time>
      </trkpt>
      <trkpt lat="47.06896" lon="-1.82774">
        <ele>33.72</ele>
        <time>2020-06-20T09:33:29Z</time>
      </trkpt>
      <trkpt lat="47.06897" lon="-1.82792">
        <ele>33.68</ele>
        <time>2020-06-20T09:33:31Z</time>
      </trkpt>
      <trkpt lat="47.06897" lon="-1.82809">
        <ele>33.92</ele>
        <time>2020-06-20T09:33:33Z</time>
      </trkpt>
      <trkpt lat="47.06899" lon="-1.82827">
        <ele>34.7</ele>
        <time>2020-06-20T09:33:35Z</time>
      </trkpt>
      <trkpt lat="47.06899" lon="-1.82844">
        <ele>35.2</ele>
        <time>2020-06-20T09:33:37Z</time>
      </trkpt>
      <trkpt lat="47.069" lon="-1.82862">
        <ele>36.09</ele>
        <time>2020-06-20T09:33:39Z</time>
      </trkpt>
      <trkpt lat="47.06901" lon="-1.82882">
        <ele>35.95</ele>
        <time>2020-06-20T09:33:41Z</time>
      </trkpt>
      <trkpt lat="47.06901" lon="-1.82901">
        <ele>35.42</ele>
        <time>2020-06-20T09:33:43Z</time>
      </trkpt>
      <trkpt lat="47.06902" lon="-1.82918">
        <ele>35.13</ele>
        <time>2020-06-20T09:33:45Z</time>
      </trkpt>
      <trkpt lat="47.06903" lon="-1.82934">
        <ele>34.94</ele>
        <time>2020-06-20T09:33:47Z</time>
      </trkpt>
      <trkpt lat="47.06904" lon="-1.82954">
        <ele>35.4</ele>
        <time>2020-06-20T09:33:49Z</time>
      </trkpt>
      <trkpt lat="47.06905" lon="-1.82973">
        <ele>36.59</ele>
        <time>2020-06-20T09:33:51Z</time>
      </trkpt>
      <trkpt lat="47.06906" lon="-1.82988">
        <ele>37.72</ele>
        <time>2020-06-20T09:33:53Z</time>
      </trkpt>
      <trkpt lat="47.06908" lon="-1.83007">
        <ele>37.37</ele>
        <time>2020-06-20T09:33:55Z</time>
      </trkpt>
      <trkpt lat="47.06911" lon="-1.83024">
        <ele>37.84</ele>
        <time>2020-06-20T09:33:57Z</time>
      </trkpt>
      <trkpt lat="47.06915" lon="-1.8304">
        <ele>37.1</ele>
        <time>2020-06-20T09:34:00Z</time>
      </trkpt>
      <trkpt lat="47.06906" lon="-1.83045">
        <ele>36.34</ele>
        <time>2020-06-20T09:34:02Z</time>
      </trkpt>
      <trkpt lat="47.06889" lon="-1.83045">
        <ele>34.68</ele>
        <time>2020-06-20T09:34:05Z</time>
      </trkpt>
      <trkpt lat="47.06875" lon="-1.8304">
        <ele>34.26</ele>
        <time>2020-06-20T09:34:07Z</time>
      </trkpt>
      <trkpt lat="47.06862" lon="-1.83038">
        <ele>33.59</ele>
        <time>2020-06-20T09:34:09Z</time>
      </trkpt>
      <trkpt lat="47.0685" lon="-1.83036">
        <ele>33.46</ele>
        <time>2020-06-20T09:34:11Z</time>
      </trkpt>
      <trkpt lat="47.06838" lon="-1.83035">
        <ele>33.11</ele>
        <time>2020-06-20T09:34:13Z</time>
      </trkpt>
      <trkpt lat="47.06825" lon="-1.83034">
        <ele>33.79</ele>
        <time>2020-06-20T09:34:15Z</time>
      </trkpt>
      <trkpt lat="47.06811" lon="-1.83034">
        <ele>34.61</ele>
        <time>2020-06-20T09:34:17Z</time>
      </trkpt>
      <trkpt lat="47.06797" lon="-1.83036">
        <ele>34.76</ele>
        <time>2020-06-20T09:34:19Z</time>
      </trkpt>
      <trkpt lat="47.06784" lon="-1.83038">
        <ele>34.03</ele>
        <time>2020-06-20T09:34:21Z</time>
      </trkpt>
      <trkpt lat="47.06772" lon="-1.8304">
        <ele>33.91</ele>
        <time>2020-06-20T09:34:23Z</time>
      </trkpt>
      <trkpt lat="47.0676" lon="-1.83042">
        <ele>32.56</ele>
        <time>2020-06-20T09:34:25Z</time>
      </trkpt>
      <trkpt lat="47.06747" lon="-1.83044">
        <ele>32.29</ele>
        <time>2020-06-20T09:34:27Z</time>
      </trkpt>
      <trkpt lat="47.06735" lon="-1.83046">
        <ele>32.12</ele>
        <time>2020-06-20T09:34:29Z</time>
      </trkpt>
      <trkpt lat="47.06722" lon="-1.83049">
        <ele>30.66</ele>
        <time>2020-06-20T09:34:31Z</time>
      </trkpt>
      <trkpt lat="47.06709" lon="-1.83051">
        <ele>30.42</ele>
        <time>2020-06-20T09:34:33Z</time>
      </trkpt>
      <trkpt lat="47.06696" lon="-1.83053">
        <ele>31.4</ele>
        <time>2020-06-20T09:34:35Z</time>
      </trkpt>
      <trkpt lat="47.06683" lon="-1.83056">
        <ele>32.46</ele>
        <time>2020-06-20T09:34:37Z</time>
      </trkpt>
      <trkpt lat="47.06669" lon="-1.83059">
        <ele>32.28</ele>
        <time>2020-06-20T09:34:39Z</time>
      </trkpt>
      <trkpt lat="47.06659" lon="-1.83062">
        <ele>32.4</ele>
        <time>2020-06-20T09:34:41Z</time>
      </trkpt>
      <trkpt lat="47.06646" lon="-1.83066">
        <ele>32.57</ele>
        <time>2020-06-20T09:34:43Z</time>
      </trkpt>
      <trkpt lat="47.06635" lon="-1.83069">
        <ele>32.23</ele>
        <time>2020-06-20T09:34:45Z</time>
      </trkpt>
      <trkpt lat="47.06623" lon="-1.83073">
        <ele>31.73</ele>
        <time>2020-06-20T09:34:47Z</time>
      </trkpt>
      <trkpt lat="47.06609" lon="-1.83076">
        <ele>32.11</ele>
        <time>2020-06-20T09:34:49Z</time>
      </trkpt>
      <trkpt lat="47.06596" lon="-1.83079">
        <ele>31.93</ele>
        <time>2020-06-20T09:34:51Z</time>
      </trkpt>
      <trkpt lat="47.06583" lon="-1.83082">
        <ele>32.82</ele>
        <time>2020-06-20T09:34:53Z</time>
      </trkpt>
      <trkpt lat="47.06571" lon="-1.83084">
        <ele>32.53</ele>
        <time>2020-06-20T09:34:55Z</time>
      </trkpt>
      <trkpt lat="47.0656" lon="-1.83087">
        <ele>32.25</ele>
        <time>2020-06-20T09:34:57Z</time>
      </trkpt>
      <trkpt lat="47.06549" lon="-1.83092">
        <ele>31.67</ele>
        <time>2020-06-20T09:34:59Z</time>
      </trkpt>
      <trkpt lat="47.06537" lon="-1.83096">
        <ele>32.15</ele>
        <time>2020-06-20T09:35:01Z</time>
      </trkpt>
      <trkpt lat="47.06526" lon="-1.831">
        <ele>32.67</ele>
        <time>2020-06-20T09:35:03Z</time>
      </trkpt>
      <trkpt lat="47.06515" lon="-1.83105">
        <ele>32.4</ele>
        <time>2020-06-20T09:35:05Z</time>
      </trkpt>
      <trkpt lat="47.06504" lon="-1.8311">
        <ele>31.74</ele>
        <time>2020-06-20T09:35:07Z</time>
      </trkpt>
      <trkpt lat="47.06491" lon="-1.83115">
        <ele>30.52</ele>
        <time>2020-06-20T09:35:09Z</time>
      </trkpt>
      <trkpt lat="47.06481" lon="-1.8312">
        <ele>29.82</ele>
        <time>2020-06-20T09:35:11Z</time>
      </trkpt>
      <trkpt lat="47.0647" lon="-1.83125">
        <ele>30.06</ele>
        <time>2020-06-20T09:35:13Z</time>
      </trkpt>
      <trkpt lat="47.06459" lon="-1.8313">
        <ele>29.56</ele>
        <time>2020-06-20T09:35:15Z</time>
      </trkpt>
      <trkpt lat="47.06448" lon="-1.83135">
        <ele>29.49</ele>
        <time>2020-06-20T09:35:17Z</time>
      </trkpt>
      <trkpt lat="47.06437" lon="-1.83139">
        <ele>30</ele>
        <time>2020-06-20T09:35:19Z</time>
      </trkpt>
      <trkpt lat="47.06427" lon="-1.83144">
        <ele>31.36</ele>
        <time>2020-06-20T09:35:21Z</time>
      </trkpt>
      <trkpt lat="47.06417" lon="-1.83148">
        <ele>32.36</ele>
        <time>2020-06-20T09:35:23Z</time>
      </trkpt>
      <trkpt lat="47.06405" lon="-1.83154">
        <ele>32.15</ele>
        <time>2020-06-20T09:35:25Z</time>
      </trkpt>
      <trkpt lat="47.06394" lon="-1.83158">
        <ele>31.54</ele>
        <time>2020-06-20T09:35:27Z</time>
      </trkpt>
      <trkpt lat="47.06383" lon="-1.83162">
        <ele>31.73</ele>
        <time>2020-06-20T09:35:29Z</time>
      </trkpt>
      <trkpt lat="47.06372" lon="-1.83167">
        <ele>32.62</ele>
        <time>2020-06-20T09:35:31Z</time>
      </trkpt>
      <trkpt lat="47.06362" lon="-1.8317">
        <ele>32.54</ele>
        <time>2020-06-20T09:35:33Z</time>
      </trkpt>
      <trkpt lat="47.0635" lon="-1.83175">
        <ele>32.61</ele>
        <time>2020-06-20T09:35:35Z</time>
      </trkpt>
      <trkpt lat="47.06339" lon="-1.83179">
        <ele>33.29</ele>
        <time>2020-06-20T09:35:37Z</time>
      </trkpt>
      <trkpt lat="47.06329" lon="-1.83184">
        <ele>33.21</ele>
        <time>2020-06-20T09:35:39Z</time>
      </trkpt>
      <trkpt lat="47.06319" lon="-1.83188">
        <ele>34.07</ele>
        <time>2020-06-20T09:35:41Z</time>
      </trkpt>
      <trkpt lat="47.06308" lon="-1.83194">
        <ele>34.34</ele>
        <time>2020-06-20T09:35:43Z</time>
      </trkpt>
      <trkpt lat="47.06298" lon="-1.83197">
        <ele>33.53</ele>
        <time>2020-06-20T09:35:45Z</time>
      </trkpt>
      <trkpt lat="47.06287" lon="-1.832">
        <ele>32.05</ele>
        <time>2020-06-20T09:35:47Z</time>
      </trkpt>
      <trkpt lat="47.06274" lon="-1.83203">
        <ele>32.28</ele>
        <time>2020-06-20T09:35:49Z</time>
      </trkpt>
      <trkpt lat="47.06264" lon="-1.83205">
        <ele>33.02</ele>
        <time>2020-06-20T09:35:51Z</time>
      </trkpt>
      <trkpt lat="47.06253" lon="-1.83206">
        <ele>33.95</ele>
        <time>2020-06-20T09:35:53Z</time>
      </trkpt>
      <trkpt lat="47.06241" lon="-1.83207">
        <ele>34.58</ele>
        <time>2020-06-20T09:35:55Z</time>
      </trkpt>
      <trkpt lat="47.0623" lon="-1.83207">
        <ele>34.15</ele>
        <time>2020-06-20T09:35:57Z</time>
      </trkpt>
      <trkpt lat="47.06218" lon="-1.83207">
        <ele>34.54</ele>
        <time>2020-06-20T09:35:59Z</time>
      </trkpt>
      <trkpt lat="47.06206" lon="-1.83207">
        <ele>35.81</ele>
        <time>2020-06-20T09:36:01Z</time>
      </trkpt>
      <trkpt lat="47.06196" lon="-1.83207">
        <ele>36.27</ele>
        <time>2020-06-20T09:36:03Z</time>
      </trkpt>
      <trkpt lat="47.06184" lon="-1.83207">
        <ele>35.35</ele>
        <time>2020-06-20T09:36:05Z</time>
      </trkpt>
      <trkpt lat="47.06174" lon="-1.83207">
        <ele>34.13</ele>
        <time>2020-06-20T09:36:07Z</time>
      </trkpt>
      <trkpt lat="47.06162" lon="-1.83209">
        <ele>34.39</ele>
        <time>2020-06-20T09:36:09Z</time>
      </trkpt>
      <trkpt lat="47.06151" lon="-1.83209">
        <ele>35.53</ele>
        <time>2020-06-20T09:36:11Z</time>
      </trkpt>
      <trkpt lat="47.06139" lon="-1.8321">
        <ele>34.66</ele>
        <time>2020-06-20T09:36:13Z</time>
      </trkpt>
      <trkpt lat="47.06129" lon="-1.83211">
        <ele>34.63</ele>
        <time>2020-06-20T09:36:15Z</time>
      </trkpt>
      <trkpt lat="47.06116" lon="-1.83211">
        <ele>35.21</ele>
        <time>2020-06-20T09:36:17Z</time>
      </trkpt>
      <trkpt lat="47.06104" lon="-1.83211">
        <ele>35.65</ele>
        <time>2020-06-20T09:36:19Z</time>
      </trkpt>
      <trkpt lat="47.06094" lon="-1.83212">
        <ele>36.08</ele>
        <time>2020-06-20T09:36:21Z</time>
      </trkpt>
      <trkpt lat="47.06084" lon="-1.83213">
        <ele>36.46</ele>
        <time>2020-06-20T09:36:23Z</time>
      </trkpt>
      <trkpt lat="47.06071" lon="-1.83214">
        <ele>36.57</ele>
        <time>2020-06-20T09:36:25Z</time>
      </trkpt>
      <trkpt lat="47.06059" lon="-1.83215">
        <ele>36.83</ele>
        <time>2020-06-20T09:36:27Z</time>
      </trkpt>
      <trkpt lat="47.06048" lon="-1.83214">
        <ele>36.74</ele>
        <time>2020-06-20T09:36:29Z</time>
      </trkpt>
      <trkpt lat="47.06037" lon="-1.83215">
        <ele>37.12</ele>
        <time>2020-06-20T09:36:31Z</time>
      </trkpt>
      <trkpt lat="47.06025" lon="-1.83216">
        <ele>37.04</ele>
        <time>2020-06-20T09:36:33Z</time>
      </trkpt>
      <trkpt lat="47.06014" lon="-1.83216">
        <ele>37.04</ele>
        <time>2020-06-20T09:36:35Z</time>
      </trkpt>
      <trkpt lat="47.06" lon="-1.83217">
        <ele>37.18</ele>
        <time>2020-06-20T09:36:37Z</time>
      </trkpt>
      <trkpt lat="47.0599" lon="-1.83218">
        <ele>37.5</ele>
        <time>2020-06-20T09:36:39Z</time>
      </trkpt>
      <trkpt lat="47.05977" lon="-1.83221">
        <ele>36.51</ele>
        <time>2020-06-20T09:36:41Z</time>
      </trkpt>
      <trkpt lat="47.05967" lon="-1.83228">
        <ele>35.91</ele>
        <time>2020-06-20T09:36:43Z</time>
      </trkpt>
      <trkpt lat="47.05958" lon="-1.8324">
        <ele>35.25</ele>
        <time>2020-06-20T09:36:45Z</time>
      </trkpt>
      <trkpt lat="47.05948" lon="-1.83255">
        <ele>34.67</ele>
        <time>2020-06-20T09:36:47Z</time>
      </trkpt>
      <trkpt lat="47.05939" lon="-1.83268">
        <ele>34.85</ele>
        <time>2020-06-20T09:36:49Z</time>
      </trkpt>
      <trkpt lat="47.05931" lon="-1.83281">
        <ele>35.15</ele>
        <time>2020-06-20T09:36:51Z</time>
      </trkpt>
      <trkpt lat="47.05924" lon="-1.83293">
        <ele>35.07</ele>
        <time>2020-06-20T09:36:53Z</time>
      </trkpt>
      <trkpt lat="47.05916" lon="-1.83305">
        <ele>34.78</ele>
        <time>2020-06-20T09:36:55Z</time>
      </trkpt>
      <trkpt lat="47.05908" lon="-1.83317">
        <ele>34.39</ele>
        <time>2020-06-20T09:36:57Z</time>
      </trkpt>
      <trkpt lat="47.059" lon="-1.83329">
        <ele>35.15</ele>
        <time>2020-06-20T09:36:59Z</time>
      </trkpt>
      <trkpt lat="47.05892" lon="-1.83341">
        <ele>35.98</ele>
        <time>2020-06-20T09:37:01Z</time>
      </trkpt>
      <trkpt lat="47.05883" lon="-1.83354">
        <ele>36.01</ele>
        <time>2020-06-20T09:37:03Z</time>
      </trkpt>
      <trkpt lat="47.05875" lon="-1.83364">
        <ele>36.48</ele>
        <time>2020-06-20T09:37:05Z</time>
      </trkpt>
      <trkpt lat="47.05867" lon="-1.83377">
        <ele>37.13</ele>
        <time>2020-06-20T09:37:07Z</time>
      </trkpt>
      <trkpt lat="47.05858" lon="-1.83392">
        <ele>37.17</ele>
        <time>2020-06-20T09:37:09Z</time>
      </trkpt>
      <trkpt lat="47.0585" lon="-1.83406">
        <ele>37.3</ele>
        <time>2020-06-20T09:37:11Z</time>
      </trkpt>
      <trkpt lat="47.05842" lon="-1.8342">
        <ele>36.32</ele>
        <time>2020-06-20T09:37:13Z</time>
      </trkpt>
      <trkpt lat="47.05835" lon="-1.83432">
        <ele>35.59</ele>
        <time>2020-06-20T09:37:15Z</time>
      </trkpt>
      <trkpt lat="47.05827" lon="-1.83444">
        <ele>35.7</ele>
        <time>2020-06-20T09:37:17Z</time>
      </trkpt>
      <trkpt lat="47.05819" lon="-1.83454">
        <ele>35.88</ele>
        <time>2020-06-20T09:37:19Z</time>
      </trkpt>
      <trkpt lat="47.0581" lon="-1.83465">
        <ele>35.99</ele>
        <time>2020-06-20T09:37:21Z</time>
      </trkpt>
      <trkpt lat="47.05801" lon="-1.83478">
        <ele>36.56</ele>
        <time>2020-06-20T09:37:23Z</time>
      </trkpt>
      <trkpt lat="47.05792" lon="-1.83491">
        <ele>35.56</ele>
        <time>2020-06-20T09:37:25Z</time>
      </trkpt>
      <trkpt lat="47.05782" lon="-1.83502">
        <ele>35.17</ele>
        <time>2020-06-20T09:37:27Z</time>
      </trkpt>
      <trkpt lat="47.05774" lon="-1.83512">
        <ele>34.7</ele>
        <time>2020-06-20T09:37:29Z</time>
      </trkpt>
      <trkpt lat="47.05764" lon="-1.83524">
        <ele>34.97</ele>
        <time>2020-06-20T09:37:31Z</time>
      </trkpt>
      <trkpt lat="47.05754" lon="-1.83535">
        <ele>36.12</ele>
        <time>2020-06-20T09:37:33Z</time>
      </trkpt>
      <trkpt lat="47.05745" lon="-1.83546">
        <ele>35.83</ele>
        <time>2020-06-20T09:37:35Z</time>
      </trkpt>
      <trkpt lat="47.05735" lon="-1.83558">
        <ele>35.88</ele>
        <time>2020-06-20T09:37:37Z</time>
      </trkpt>
      <trkpt lat="47.05727" lon="-1.8357">
        <ele>36.29</ele>
        <time>2020-06-20T09:37:39Z</time>
      </trkpt>
      <trkpt lat="47.05719" lon="-1.83582">
        <ele>36.61</ele>
        <time>2020-06-20T09:37:41Z</time>
      </trkpt>
      <trkpt lat="47.05711" lon="-1.83597">
        <ele>36.98</ele>
        <time>2020-06-20T09:37:43Z</time>
      </trkpt>
      <trkpt lat="47.05704" lon="-1.83608">
        <ele>36.37</ele>
        <time>2020-06-20T09:37:45Z</time>
      </trkpt>
      <trkpt lat="47.05696" lon="-1.8362">
        <ele>37.24</ele>
        <time>2020-06-20T09:37:47Z</time>
      </trkpt>
      <trkpt lat="47.05688" lon="-1.83631">
        <ele>38.1</ele>
        <time>2020-06-20T09:37:49Z</time>
      </trkpt>
      <trkpt lat="47.05681" lon="-1.83641">
        <ele>38.83</ele>
        <time>2020-06-20T09:37:51Z</time>
      </trkpt>
      <trkpt lat="47.05672" lon="-1.83652">
        <ele>40.34</ele>
        <time>2020-06-20T09:37:53Z</time>
      </trkpt>
      <trkpt lat="47.05663" lon="-1.83665">
        <ele>41.59</ele>
        <time>2020-06-20T09:37:55Z</time>
      </trkpt>
      <trkpt lat="47.05655" lon="-1.83678">
        <ele>40.86</ele>
        <time>2020-06-20T09:37:57Z</time>
      </trkpt>
      <trkpt lat="47.05648" lon="-1.8369">
        <ele>39.57</ele>
        <time>2020-06-20T09:37:59Z</time>
      </trkpt>
      <trkpt lat="47.05639" lon="-1.83709">
        <ele>38.63</ele>
        <time>2020-06-20T09:38:01Z</time>
      </trkpt>
      <trkpt lat="47.0563" lon="-1.83724">
        <ele>37.51</ele>
        <time>2020-06-20T09:38:03Z</time>
      </trkpt>
      <trkpt lat="47.05623" lon="-1.83737">
        <ele>36.54</ele>
        <time>2020-06-20T09:38:05Z</time>
      </trkpt>
      <trkpt lat="47.05616" lon="-1.83753">
        <ele>36.14</ele>
        <time>2020-06-20T09:38:07Z</time>
      </trkpt>
      <trkpt lat="47.05609" lon="-1.83768">
        <ele>36.18</ele>
        <time>2020-06-20T09:38:09Z</time>
      </trkpt>
      <trkpt lat="47.05601" lon="-1.83782">
        <ele>36.23</ele>
        <time>2020-06-20T09:38:11Z</time>
      </trkpt>
      <trkpt lat="47.05595" lon="-1.83795">
        <ele>36.27</ele>
        <time>2020-06-20T09:38:13Z</time>
      </trkpt>
      <trkpt lat="47.05587" lon="-1.83812">
        <ele>36.18</ele>
        <time>2020-06-20T09:38:15Z</time>
      </trkpt>
      <trkpt lat="47.05579" lon="-1.83827">
        <ele>35.6</ele>
        <time>2020-06-20T09:38:17Z</time>
      </trkpt>
      <trkpt lat="47.05571" lon="-1.83842">
        <ele>35.11</ele>
        <time>2020-06-20T09:38:19Z</time>
      </trkpt>
      <trkpt lat="47.05564" lon="-1.83856">
        <ele>34.81</ele>
        <time>2020-06-20T09:38:21Z</time>
      </trkpt>
      <trkpt lat="47.05557" lon="-1.8387">
        <ele>34.09</ele>
        <time>2020-06-20T09:38:23Z</time>
      </trkpt>
      <trkpt lat="47.0555" lon="-1.83884">
        <ele>34.53</ele>
        <time>2020-06-20T09:38:25Z</time>
      </trkpt>
      <trkpt lat="47.05543" lon="-1.83899">
        <ele>35.77</ele>
        <time>2020-06-20T09:38:27Z</time>
      </trkpt>
      <trkpt lat="47.05534" lon="-1.83913">
        <ele>35.67</ele>
        <time>2020-06-20T09:38:29Z</time>
      </trkpt>
      <trkpt lat="47.05527" lon="-1.83924">
        <ele>35.19</ele>
        <time>2020-06-20T09:38:31Z</time>
      </trkpt>
      <trkpt lat="47.05519" lon="-1.83937">
        <ele>35.24</ele>
        <time>2020-06-20T09:38:33Z</time>
      </trkpt>
      <trkpt lat="47.05512" lon="-1.83949">
        <ele>35.96</ele>
        <time>2020-06-20T09:38:35Z</time>
      </trkpt>
      <trkpt lat="47.05503" lon="-1.83964">
        <ele>36.38</ele>
        <time>2020-06-20T09:38:37Z</time>
      </trkpt>
      <trkpt lat="47.05496" lon="-1.83978">
        <ele>36.11</ele>
        <time>2020-06-20T09:38:39Z</time>
      </trkpt>
      <trkpt lat="47.05489" lon="-1.83992">
        <ele>35.97</ele>
        <time>2020-06-20T09:38:41Z</time>
      </trkpt>
      <trkpt lat="47.05482" lon="-1.84005">
        <ele>36.39</ele>
        <time>2020-06-20T09:38:43Z</time>
      </trkpt>
      <trkpt lat="47.05475" lon="-1.84019">
        <ele>37.08</ele>
        <time>2020-06-20T09:38:45Z</time>
      </trkpt>
      <trkpt lat="47.05468" lon="-1.84032">
        <ele>36.57</ele>
        <time>2020-06-20T09:38:47Z</time>
      </trkpt>
      <trkpt lat="47.0546" lon="-1.84046">
        <ele>36.91</ele>
        <time>2020-06-20T09:38:49Z</time>
      </trkpt>
      <trkpt lat="47.05453" lon="-1.84059">
        <ele>37.62</ele>
        <time>2020-06-20T09:38:51Z</time>
      </trkpt>
      <trkpt lat="47.05446" lon="-1.84075">
        <ele>38.26</ele>
        <time>2020-06-20T09:38:53Z</time>
      </trkpt>
      <trkpt lat="47.05439" lon="-1.84088">
        <ele>37.82</ele>
        <time>2020-06-20T09:38:55Z</time>
      </trkpt>
      <trkpt lat="47.05432" lon="-1.84102">
        <ele>37.82</ele>
        <time>2020-06-20T09:38:57Z</time>
      </trkpt>
      <trkpt lat="47.05425" lon="-1.84115">
        <ele>38.58</ele>
        <time>2020-06-20T09:38:59Z</time>
      </trkpt>
      <trkpt lat="47.05417" lon="-1.84132">
        <ele>38.88</ele>
        <time>2020-06-20T09:39:01Z</time>
      </trkpt>
      <trkpt lat="47.0541" lon="-1.84144">
        <ele>38.65</ele>
        <time>2020-06-20T09:39:03Z</time>
      </trkpt>
      <trkpt lat="47.05403" lon="-1.8416">
        <ele>38.12</ele>
        <time>2020-06-20T09:39:05Z</time>
      </trkpt>
      <trkpt lat="47.05396" lon="-1.84175">
        <ele>38.6</ele>
        <time>2020-06-20T09:39:07Z</time>
      </trkpt>
      <trkpt lat="47.05389" lon="-1.84188">
        <ele>39.24</ele>
        <time>2020-06-20T09:39:09Z</time>
      </trkpt>
      <trkpt lat="47.05381" lon="-1.84203">
        <ele>39.72</ele>
        <time>2020-06-20T09:39:11Z</time>
      </trkpt>
      <trkpt lat="47.05374" lon="-1.84217">
        <ele>39.61</ele>
        <time>2020-06-20T09:39:13Z</time>
      </trkpt>
      <trkpt lat="47.05367" lon="-1.84231">
        <ele>40.47</ele>
        <time>2020-06-20T09:39:15Z</time>
      </trkpt>
      <trkpt lat="47.05358" lon="-1.84247">
        <ele>40.65</ele>
        <time>2020-06-20T09:39:17Z</time>
      </trkpt>
      <trkpt lat="47.0535" lon="-1.84261">
        <ele>39.69</ele>
        <time>2020-06-20T09:39:19Z</time>
      </trkpt>
      <trkpt lat="47.05343" lon="-1.84274">
        <ele>39.45</ele>
        <time>2020-06-20T09:39:21Z</time>
      </trkpt>
      <trkpt lat="47.05335" lon="-1.8429">
        <ele>39.73</ele>
        <time>2020-06-20T09:39:23Z</time>
      </trkpt>
      <trkpt lat="47.05329" lon="-1.84307">
        <ele>39.85</ele>
        <time>2020-06-20T09:39:25Z</time>
      </trkpt>
      <trkpt lat="47.05322" lon="-1.84321">
        <ele>38.62</ele>
        <time>2020-06-20T09:39:27Z</time>
      </trkpt>
      <trkpt lat="47.05315" lon="-1.84335">
        <ele>38.41</ele>
        <time>2020-06-20T09:39:29Z</time>
      </trkpt>
      <trkpt lat="47.05307" lon="-1.84351">
        <ele>37.89</ele>
        <time>2020-06-20T09:39:31Z</time>
      </trkpt>
      <trkpt lat="47.053" lon="-1.84365">
        <ele>37.18</ele>
        <time>2020-06-20T09:39:33Z</time>
      </trkpt>
      <trkpt lat="47.05293" lon="-1.84379">
        <ele>37.66</ele>
        <time>2020-06-20T09:39:35Z</time>
      </trkpt>
      <trkpt lat="47.05286" lon="-1.84394">
        <ele>39.2</ele>
        <time>2020-06-20T09:39:37Z</time>
      </trkpt>
      <trkpt lat="47.05279" lon="-1.84409">
        <ele>39.61</ele>
        <time>2020-06-20T09:39:39Z</time>
      </trkpt>
      <trkpt lat="47.05272" lon="-1.84424">
        <ele>39.69</ele>
        <time>2020-06-20T09:39:41Z</time>
      </trkpt>
      <trkpt lat="47.05264" lon="-1.84438">
        <ele>39.91</ele>
        <time>2020-06-20T09:39:43Z</time>
      </trkpt>
      <trkpt lat="47.05257" lon="-1.84453">
        <ele>39.69</ele>
        <time>2020-06-20T09:39:45Z</time>
      </trkpt>
      <trkpt lat="47.05252" lon="-1.84465">
        <ele>39.3</ele>
        <time>2020-06-20T09:39:47Z</time>
      </trkpt>
      <trkpt lat="47.05244" lon="-1.84481">
        <ele>39.97</ele>
        <time>2020-06-20T09:39:49Z</time>
      </trkpt>
      <trkpt lat="47.05237" lon="-1.84495">
        <ele>39.85</ele>
        <time>2020-06-20T09:39:51Z</time>
      </trkpt>
      <trkpt lat="47.0523" lon="-1.84511">
        <ele>39.35</ele>
        <time>2020-06-20T09:39:53Z</time>
      </trkpt>
      <trkpt lat="47.05224" lon="-1.84524">
        <ele>39.56</ele>
        <time>2020-06-20T09:39:55Z</time>
      </trkpt>
      <trkpt lat="47.05217" lon="-1.84538">
        <ele>39.56</ele>
        <time>2020-06-20T09:39:57Z</time>
      </trkpt>
      <trkpt lat="47.05208" lon="-1.84547">
        <ele>39.34</ele>
        <time>2020-06-20T09:40:00Z</time>
      </trkpt>
      <trkpt lat="47.05199" lon="-1.84539">
        <ele>39.59</ele>
        <time>2020-06-20T09:40:03Z</time>
      </trkpt>
      <trkpt lat="47.0519" lon="-1.84529">
        <ele>40.58</ele>
        <time>2020-06-20T09:40:05Z</time>
      </trkpt>
      <trkpt lat="47.05182" lon="-1.84518">
        <ele>41.48</ele>
        <time>2020-06-20T09:40:07Z</time>
      </trkpt>
      <trkpt lat="47.05172" lon="-1.84505">
        <ele>40.23</ele>
        <time>2020-06-20T09:40:09Z</time>
      </trkpt>
      <trkpt lat="47.05163" lon="-1.84492">
        <ele>39.93</ele>
        <time>2020-06-20T09:40:11Z</time>
      </trkpt>
      <trkpt lat="47.05155" lon="-1.84478">
        <ele>40.42</ele>
        <time>2020-06-20T09:40:13Z</time>
      </trkpt>
      <trkpt lat="47.05148" lon="-1.84467">
        <ele>42.34</ele>
        <time>2020-06-20T09:40:15Z</time>
      </trkpt>
      <trkpt lat="47.05139" lon="-1.84454">
        <ele>43.58</ele>
        <time>2020-06-20T09:40:17Z</time>
      </trkpt>
      <trkpt lat="47.0513" lon="-1.8444">
        <ele>44.43</ele>
        <time>2020-06-20T09:40:19Z</time>
      </trkpt>
      <trkpt lat="47.05123" lon="-1.84429">
        <ele>44.34</ele>
        <time>2020-06-20T09:40:21Z</time>
      </trkpt>
      <trkpt lat="47.05114" lon="-1.84416">
        <ele>43.41</ele>
        <time>2020-06-20T09:40:23Z</time>
      </trkpt>
      <trkpt lat="47.05104" lon="-1.84403">
        <ele>42.98</ele>
        <time>2020-06-20T09:40:25Z</time>
      </trkpt>
      <trkpt lat="47.05094" lon="-1.84393">
        <ele>43.59</ele>
        <time>2020-06-20T09:40:27Z</time>
      </trkpt>
      <trkpt lat="47.05087" lon="-1.84384">
        <ele>43.55</ele>
        <time>2020-06-20T09:40:29Z</time>
      </trkpt>
      <trkpt lat="47.05075" lon="-1.8437">
        <ele>44.02</ele>
        <time>2020-06-20T09:40:31Z</time>
      </trkpt>
      <trkpt lat="47.05065" lon="-1.84359">
        <ele>45.67</ele>
        <time>2020-06-20T09:40:33Z</time>
      </trkpt>
      <trkpt lat="47.05056" lon="-1.84349">
        <ele>46.96</ele>
        <time>2020-06-20T09:40:35Z</time>
      </trkpt>
      <trkpt lat="47.05047" lon="-1.84339">
        <ele>48.56</ele>
        <time>2020-06-20T09:40:37Z</time>
      </trkpt>
      <trkpt lat="47.05037" lon="-1.8433">
        <ele>48.16</ele>
        <time>2020-06-20T09:40:39Z</time>
      </trkpt>
      <trkpt lat="47.05024" lon="-1.84319">
        <ele>46.42</ele>
        <time>2020-06-20T09:40:41Z</time>
      </trkpt>
      <trkpt lat="47.0501" lon="-1.84309">
        <ele>44.21</ele>
        <time>2020-06-20T09:40:43Z</time>
      </trkpt>
      <trkpt lat="47.04995" lon="-1.84296">
        <ele>42.98</ele>
        <time>2020-06-20T09:40:45Z</time>
      </trkpt>
      <trkpt lat="47.04981" lon="-1.84284">
        <ele>42.48</ele>
        <time>2020-06-20T09:40:47Z</time>
      </trkpt>
      <trkpt lat="47.0497" lon="-1.84272">
        <ele>42.87</ele>
        <time>2020-06-20T09:40:49Z</time>
      </trkpt>
      <trkpt lat="47.04962" lon="-1.84264">
        <ele>43.69</ele>
        <time>2020-06-20T09:40:51Z</time>
      </trkpt>
      <trkpt lat="47.04951" lon="-1.84254">
        <ele>44.77</ele>
        <time>2020-06-20T09:40:53Z</time>
      </trkpt>
      <trkpt lat="47.04939" lon="-1.84243">
        <ele>44.37</ele>
        <time>2020-06-20T09:40:55Z</time>
      </trkpt>
      <trkpt lat="47.04926" lon="-1.84231">
        <ele>43.65</ele>
        <time>2020-06-20T09:40:57Z</time>
      </trkpt>
      <trkpt lat="47.04916" lon="-1.84221">
        <ele>42.96</ele>
        <time>2020-06-20T09:40:59Z</time>
      </trkpt>
      <trkpt lat="47.04905" lon="-1.84211">
        <ele>43.39</ele>
        <time>2020-06-20T09:41:01Z</time>
      </trkpt>
      <trkpt lat="47.04894" lon="-1.84199">
        <ele>43.01</ele>
        <time>2020-06-20T09:41:03Z</time>
      </trkpt>
      <trkpt lat="47.04881" lon="-1.84185">
        <ele>41.96</ele>
        <time>2020-06-20T09:41:05Z</time>
      </trkpt>
      <trkpt lat="47.0487" lon="-1.84174">
        <ele>42.34</ele>
        <time>2020-06-20T09:41:07Z</time>
      </trkpt>
      <trkpt lat="47.04859" lon="-1.84161">
        <ele>42.65</ele>
        <time>2020-06-20T09:41:09Z</time>
      </trkpt>
      <trkpt lat="47.04847" lon="-1.84148">
        <ele>42.14</ele>
        <time>2020-06-20T09:41:11Z</time>
      </trkpt>
      <trkpt lat="47.04836" lon="-1.84136">
        <ele>41.69</ele>
        <time>2020-06-20T09:41:13Z</time>
      </trkpt>
      <trkpt lat="47.04826" lon="-1.84124">
        <ele>41.22</ele>
        <time>2020-06-20T09:41:15Z</time>
      </trkpt>
      <trkpt lat="47.04815" lon="-1.84111">
        <ele>40.09</ele>
        <time>2020-06-20T09:41:17Z</time>
      </trkpt>
      <trkpt lat="47.04806" lon="-1.84099">
        <ele>39.32</ele>
        <time>2020-06-20T09:41:19Z</time>
      </trkpt>
      <trkpt lat="47.04799" lon="-1.8409">
        <ele>38.9</ele>
        <time>2020-06-20T09:41:21Z</time>
      </trkpt>
      <trkpt lat="47.0479" lon="-1.84078">
        <ele>38.79</ele>
        <time>2020-06-20T09:41:23Z</time>
      </trkpt>
      <trkpt lat="47.0478" lon="-1.84065">
        <ele>37.79</ele>
        <time>2020-06-20T09:41:25Z</time>
      </trkpt>
      <trkpt lat="47.04771" lon="-1.84052">
        <ele>37.86</ele>
        <time>2020-06-20T09:41:27Z</time>
      </trkpt>
      <trkpt lat="47.04763" lon="-1.8404">
        <ele>38.42</ele>
        <time>2020-06-20T09:41:29Z</time>
      </trkpt>
      <trkpt lat="47.04753" lon="-1.84027">
        <ele>39.1</ele>
        <time>2020-06-20T09:41:31Z</time>
      </trkpt>
      <trkpt lat="47.04744" lon="-1.84015">
        <ele>39.06</ele>
        <time>2020-06-20T09:41:33Z</time>
      </trkpt>
      <trkpt lat="47.04733" lon="-1.84001">
        <ele>39.42</ele>
        <time>2020-06-20T09:41:35Z</time>
      </trkpt>
      <trkpt lat="47.04719" lon="-1.83985">
        <ele>39.76</ele>
        <time>2020-06-20T09:41:38Z</time>
      </trkpt>
      <trkpt lat="47.04708" lon="-1.83972">
        <ele>40.96</ele>
        <time>2020-06-20T09:41:39Z</time>
      </trkpt>
      <trkpt lat="47.04698" lon="-1.83961">
        <ele>41.68</ele>
        <time>2020-06-20T09:41:41Z</time>
      </trkpt>
      <trkpt lat="47.04686" lon="-1.83948">
        <ele>41.05</ele>
        <time>2020-06-20T09:41:44Z</time>
      </trkpt>
      <trkpt lat="47.04674" lon="-1.83934">
        <ele>39.95</ele>
        <time>2020-06-20T09:41:46Z</time>
      </trkpt>
      <trkpt lat="47.04664" lon="-1.83922">
        <ele>39.08</ele>
        <time>2020-06-20T09:41:48Z</time>
      </trkpt>
      <trkpt lat="47.04655" lon="-1.83909">
        <ele>38.35</ele>
        <time>2020-06-20T09:41:50Z</time>
      </trkpt>
      <trkpt lat="47.04645" lon="-1.83894">
        <ele>38.55</ele>
        <time>2020-06-20T09:41:52Z</time>
      </trkpt>
      <trkpt lat="47.04636" lon="-1.8388">
        <ele>38.91</ele>
        <time>2020-06-20T09:41:54Z</time>
      </trkpt>
      <trkpt lat="47.04627" lon="-1.83866">
        <ele>38.38</ele>
        <time>2020-06-20T09:41:56Z</time>
      </trkpt>
      <trkpt lat="47.04618" lon="-1.83853">
        <ele>38.61</ele>
        <time>2020-06-20T09:41:58Z</time>
      </trkpt>
      <trkpt lat="47.0461" lon="-1.83842">
        <ele>40.14</ele>
        <time>2020-06-20T09:42:00Z</time>
      </trkpt>
      <trkpt lat="47.04601" lon="-1.83834">
        <ele>42.32</ele>
        <time>2020-06-20T09:42:02Z</time>
      </trkpt>
      <trkpt lat="47.04589" lon="-1.83826">
        <ele>43.05</ele>
        <time>2020-06-20T09:42:04Z</time>
      </trkpt>
      <trkpt lat="47.04575" lon="-1.83817">
        <ele>40.96</ele>
        <time>2020-06-20T09:42:06Z</time>
      </trkpt>
      <trkpt lat="47.04562" lon="-1.83807">
        <ele>39.52</ele>
        <time>2020-06-20T09:42:08Z</time>
      </trkpt>
      <trkpt lat="47.04549" lon="-1.83798">
        <ele>39.8</ele>
        <time>2020-06-20T09:42:10Z</time>
      </trkpt>
      <trkpt lat="47.04537" lon="-1.8379">
        <ele>39.41</ele>
        <time>2020-06-20T09:42:12Z</time>
      </trkpt>
      <trkpt lat="47.04527" lon="-1.83782">
        <ele>38.31</ele>
        <time>2020-06-20T09:42:14Z</time>
      </trkpt>
      <trkpt lat="47.04515" lon="-1.83774">
        <ele>38.1</ele>
        <time>2020-06-20T09:42:16Z</time>
      </trkpt>
      <trkpt lat="47.04504" lon="-1.83767">
        <ele>37.95</ele>
        <time>2020-06-20T09:42:18Z</time>
      </trkpt>
      <trkpt lat="47.04493" lon="-1.83758">
        <ele>37.24</ele>
        <time>2020-06-20T09:42:20Z</time>
      </trkpt>
      <trkpt lat="47.04481" lon="-1.8375">
        <ele>37.51</ele>
        <time>2020-06-20T09:42:22Z</time>
      </trkpt>
      <trkpt lat="47.04469" lon="-1.8374">
        <ele>37.32</ele>
        <time>2020-06-20T09:42:24Z</time>
      </trkpt>
      <trkpt lat="47.04457" lon="-1.83731">
        <ele>37.53</ele>
        <time>2020-06-20T09:42:26Z</time>
      </trkpt>
      <trkpt lat="47.04445" lon="-1.8372">
        <ele>37.74</ele>
        <time>2020-06-20T09:42:28Z</time>
      </trkpt>
      <trkpt lat="47.04435" lon="-1.83711">
        <ele>39.09</ele>
        <time>2020-06-20T09:42:30Z</time>
      </trkpt>
      <trkpt lat="47.04425" lon="-1.83701">
        <ele>39.35</ele>
        <time>2020-06-20T09:42:32Z</time>
      </trkpt>
      <trkpt lat="47.04414" lon="-1.83693">
        <ele>40.26</ele>
        <time>2020-06-20T09:42:34Z</time>
      </trkpt>
      <trkpt lat="47.04402" lon="-1.83685">
        <ele>40.25</ele>
        <time>2020-06-20T09:42:36Z</time>
      </trkpt>
      <trkpt lat="47.04391" lon="-1.83678">
        <ele>38.73</ele>
        <time>2020-06-20T09:42:38Z</time>
      </trkpt>
      <trkpt lat="47.04376" lon="-1.83671">
        <ele>37.47</ele>
        <time>2020-06-20T09:42:40Z</time>
      </trkpt>
      <trkpt lat="47.04364" lon="-1.83666">
        <ele>36.59</ele>
        <time>2020-06-20T09:42:42Z</time>
      </trkpt>
      <trkpt lat="47.04351" lon="-1.83661">
        <ele>37.03</ele>
        <time>2020-06-20T09:42:44Z</time>
      </trkpt>
      <trkpt lat="47.04337" lon="-1.83657">
        <ele>36.28</ele>
        <time>2020-06-20T09:42:46Z</time>
      </trkpt>
      <trkpt lat="47.04325" lon="-1.83655">
        <ele>35.39</ele>
        <time>2020-06-20T09:42:48Z</time>
      </trkpt>
      <trkpt lat="47.04315" lon="-1.83653">
        <ele>35</ele>
        <time>2020-06-20T09:42:50Z</time>
      </trkpt>
      <trkpt lat="47.04302" lon="-1.83652">
        <ele>35.87</ele>
        <time>2020-06-20T09:42:52Z</time>
      </trkpt>
      <trkpt lat="47.04292" lon="-1.8365">
        <ele>36.35</ele>
        <time>2020-06-20T09:42:54Z</time>
      </trkpt>
      <trkpt lat="47.04279" lon="-1.83648">
        <ele>35.82</ele>
        <time>2020-06-20T09:42:56Z</time>
      </trkpt>
      <trkpt lat="47.04264" lon="-1.83644">
        <ele>35.32</ele>
        <time>2020-06-20T09:42:58Z</time>
      </trkpt>
      <trkpt lat="47.04251" lon="-1.8364">
        <ele>34.62</ele>
        <time>2020-06-20T09:43:00Z</time>
      </trkpt>
      <trkpt lat="47.04237" lon="-1.83636">
        <ele>35.69</ele>
        <time>2020-06-20T09:43:02Z</time>
      </trkpt>
      <trkpt lat="47.04225" lon="-1.83632">
        <ele>35.73</ele>
        <time>2020-06-20T09:43:04Z</time>
      </trkpt>
      <trkpt lat="47.04216" lon="-1.83621">
        <ele>35.55</ele>
        <time>2020-06-20T09:43:06Z</time>
      </trkpt>
      <trkpt lat="47.04202" lon="-1.83615">
        <ele>35.84</ele>
        <time>2020-06-20T09:43:08Z</time>
      </trkpt>
      <trkpt lat="47.04189" lon="-1.83615">
        <ele>35.13</ele>
        <time>2020-06-20T09:43:10Z</time>
      </trkpt>
      <trkpt lat="47.04179" lon="-1.83615">
        <ele>34.87</ele>
        <time>2020-06-20T09:43:12Z</time>
      </trkpt>
      <trkpt lat="47.04169" lon="-1.83613">
        <ele>35.48</ele>
        <time>2020-06-20T09:43:14Z</time>
      </trkpt>
      <trkpt lat="47.04158" lon="-1.83608">
        <ele>35.25</ele>
        <time>2020-06-20T09:43:16Z</time>
      </trkpt>
      <trkpt lat="47.04147" lon="-1.83603">
        <ele>35.84</ele>
        <time>2020-06-20T09:43:18Z</time>
      </trkpt>
      <trkpt lat="47.04134" lon="-1.83597">
        <ele>35.65</ele>
        <time>2020-06-20T09:43:20Z</time>
      </trkpt>
      <trkpt lat="47.04123" lon="-1.83591">
        <ele>36.05</ele>
        <time>2020-06-20T09:43:22Z</time>
      </trkpt>
      <trkpt lat="47.04112" lon="-1.83585">
        <ele>35.72</ele>
        <time>2020-06-20T09:43:24Z</time>
      </trkpt>
      <trkpt lat="47.04101" lon="-1.83579">
        <ele>36.07</ele>
        <time>2020-06-20T09:43:26Z</time>
      </trkpt>
      <trkpt lat="47.0409" lon="-1.83575">
        <ele>36.05</ele>
        <time>2020-06-20T09:43:28Z</time>
      </trkpt>
      <trkpt lat="47.04077" lon="-1.83573">
        <ele>36.76</ele>
        <time>2020-06-20T09:43:30Z</time>
      </trkpt>
      <trkpt lat="47.04064" lon="-1.83571">
        <ele>36.48</ele>
        <time>2020-06-20T09:43:32Z</time>
      </trkpt>
      <trkpt lat="47.04052" lon="-1.83569">
        <ele>36.16</ele>
        <time>2020-06-20T09:43:34Z</time>
      </trkpt>
      <trkpt lat="47.04039" lon="-1.83567">
        <ele>35.28</ele>
        <time>2020-06-20T09:43:36Z</time>
      </trkpt>
      <trkpt lat="47.04026" lon="-1.83565">
        <ele>35.23</ele>
        <time>2020-06-20T09:43:38Z</time>
      </trkpt>
      <trkpt lat="47.04015" lon="-1.83564">
        <ele>35.46</ele>
        <time>2020-06-20T09:43:40Z</time>
      </trkpt>
      <trkpt lat="47.04003" lon="-1.83563">
        <ele>35.51</ele>
        <time>2020-06-20T09:43:42Z</time>
      </trkpt>
      <trkpt lat="47.03991" lon="-1.8356">
        <ele>35.91</ele>
        <time>2020-06-20T09:43:44Z</time>
      </trkpt>
      <trkpt lat="47.03979" lon="-1.83558">
        <ele>35.85</ele>
        <time>2020-06-20T09:43:46Z</time>
      </trkpt>
      <trkpt lat="47.03967" lon="-1.83556">
        <ele>36.16</ele>
        <time>2020-06-20T09:43:48Z</time>
      </trkpt>
      <trkpt lat="47.03958" lon="-1.83555">
        <ele>35.29</ele>
        <time>2020-06-20T09:43:50Z</time>
      </trkpt>
      <trkpt lat="47.03946" lon="-1.83553">
        <ele>35.77</ele>
        <time>2020-06-20T09:43:52Z</time>
      </trkpt>
      <trkpt lat="47.03933" lon="-1.83551">
        <ele>35.85</ele>
        <time>2020-06-20T09:43:54Z</time>
      </trkpt>
      <trkpt lat="47.03922" lon="-1.83551">
        <ele>36.97</ele>
        <time>2020-06-20T09:43:56Z</time>
      </trkpt>
      <trkpt lat="47.0391" lon="-1.8355">
        <ele>37.16</ele>
        <time>2020-06-20T09:43:58Z</time>
      </trkpt>
      <trkpt lat="47.03897" lon="-1.83549">
        <ele>35.11</ele>
        <time>2020-06-20T09:44:00Z</time>
      </trkpt>
      <trkpt lat="47.03883" lon="-1.83547">
        <ele>34.43</ele>
        <time>2020-06-20T09:44:02Z</time>
      </trkpt>
      <trkpt lat="47.03872" lon="-1.83545">
        <ele>34.64</ele>
        <time>2020-06-20T09:44:04Z</time>
      </trkpt>
      <trkpt lat="47.03861" lon="-1.83542">
        <ele>34.55</ele>
        <time>2020-06-20T09:44:06Z</time>
      </trkpt>
      <trkpt lat="47.03849" lon="-1.83541">
        <ele>34.74</ele>
        <time>2020-06-20T09:44:08Z</time>
      </trkpt>
      <trkpt lat="47.03837" lon="-1.8354">
        <ele>35.03</ele>
        <time>2020-06-20T09:44:10Z</time>
      </trkpt>
      <trkpt lat="47.03826" lon="-1.83539">
        <ele>35.18</ele>
        <time>2020-06-20T09:44:12Z</time>
      </trkpt>
      <trkpt lat="47.03814" lon="-1.83537">
        <ele>35.15</ele>
        <time>2020-06-20T09:44:14Z</time>
      </trkpt>
      <trkpt lat="47.03801" lon="-1.83535">
        <ele>36.03</ele>
        <time>2020-06-20T09:44:16Z</time>
      </trkpt>
      <trkpt lat="47.0379" lon="-1.83534">
        <ele>36.16</ele>
        <time>2020-06-20T09:44:18Z</time>
      </trkpt>
      <trkpt lat="47.03776" lon="-1.83535">
        <ele>36.3</ele>
        <time>2020-06-20T09:44:20Z</time>
      </trkpt>
      <trkpt lat="47.03765" lon="-1.83536">
        <ele>36.11</ele>
        <time>2020-06-20T09:44:22Z</time>
      </trkpt>
      <trkpt lat="47.03752" lon="-1.83536">
        <ele>35.42</ele>
        <time>2020-06-20T09:44:24Z</time>
      </trkpt>
      <trkpt lat="47.0374" lon="-1.83536">
        <ele>34.99</ele>
        <time>2020-06-20T09:44:26Z</time>
      </trkpt>
      <trkpt lat="47.03727" lon="-1.83537">
        <ele>34.12</ele>
        <time>2020-06-20T09:44:28Z</time>
      </trkpt>
      <trkpt lat="47.03715" lon="-1.83538">
        <ele>34.59</ele>
        <time>2020-06-20T09:44:30Z</time>
      </trkpt>
      <trkpt lat="47.03702" lon="-1.83538">
        <ele>34.56</ele>
        <time>2020-06-20T09:44:32Z</time>
      </trkpt>
      <trkpt lat="47.03691" lon="-1.83538">
        <ele>35.71</ele>
        <time>2020-06-20T09:44:34Z</time>
      </trkpt>
      <trkpt lat="47.0368" lon="-1.83539">
        <ele>36.43</ele>
        <time>2020-06-20T09:44:36Z</time>
      </trkpt>
      <trkpt lat="47.03667" lon="-1.83539">
        <ele>37.08</ele>
        <time>2020-06-20T09:44:38Z</time>
      </trkpt>
      <trkpt lat="47.03653" lon="-1.8354">
        <ele>36.76</ele>
        <time>2020-06-20T09:44:40Z</time>
      </trkpt>
      <trkpt lat="47.0364" lon="-1.8354">
        <ele>37.4</ele>
        <time>2020-06-20T09:44:42Z</time>
      </trkpt>
      <trkpt lat="47.03627" lon="-1.8354">
        <ele>37.63</ele>
        <time>2020-06-20T09:44:44Z</time>
      </trkpt>
      <trkpt lat="47.03614" lon="-1.8354">
        <ele>36.5</ele>
        <time>2020-06-20T09:44:46Z</time>
      </trkpt>
      <trkpt lat="47.036" lon="-1.83539">
        <ele>35.09</ele>
        <time>2020-06-20T09:44:48Z</time>
      </trkpt>
      <trkpt lat="47.03587" lon="-1.83539">
        <ele>33.86</ele>
        <time>2020-06-20T09:44:50Z</time>
      </trkpt>
      <trkpt lat="47.03574" lon="-1.83539">
        <ele>33.39</ele>
        <time>2020-06-20T09:44:52Z</time>
      </trkpt>
      <trkpt lat="47.03562" lon="-1.8354">
        <ele>32.62</ele>
        <time>2020-06-20T09:44:54Z</time>
      </trkpt>
      <trkpt lat="47.0355" lon="-1.83541">
        <ele>33.41</ele>
        <time>2020-06-20T09:44:56Z</time>
      </trkpt>
      <trkpt lat="47.03538" lon="-1.8354">
        <ele>34.08</ele>
        <time>2020-06-20T09:44:58Z</time>
      </trkpt>
      <trkpt lat="47.03525" lon="-1.83539">
        <ele>34.18</ele>
        <time>2020-06-20T09:45:00Z</time>
      </trkpt>
      <trkpt lat="47.0351" lon="-1.83538">
        <ele>33.79</ele>
        <time>2020-06-20T09:45:02Z</time>
      </trkpt>
      <trkpt lat="47.03496" lon="-1.83536">
        <ele>33.77</ele>
        <time>2020-06-20T09:45:04Z</time>
      </trkpt>
      <trkpt lat="47.03482" lon="-1.83534">
        <ele>33.78</ele>
        <time>2020-06-20T09:45:06Z</time>
      </trkpt>
      <trkpt lat="47.03469" lon="-1.83531">
        <ele>32.24</ele>
        <time>2020-06-20T09:45:08Z</time>
      </trkpt>
      <trkpt lat="47.03457" lon="-1.83528">
        <ele>31.62</ele>
        <time>2020-06-20T09:45:10Z</time>
      </trkpt>
      <trkpt lat="47.03443" lon="-1.83524">
        <ele>31.31</ele>
        <time>2020-06-20T09:45:12Z</time>
      </trkpt>
      <trkpt lat="47.03428" lon="-1.83519">
        <ele>31.43</ele>
        <time>2020-06-20T09:45:14Z</time>
      </trkpt>
      <trkpt lat="47.03415" lon="-1.83516">
        <ele>30.37</ele>
        <time>2020-06-20T09:45:16Z</time>
      </trkpt>
      <trkpt lat="47.03401" lon="-1.83511">
        <ele>28.74</ele>
        <time>2020-06-20T09:45:18Z</time>
      </trkpt>
      <trkpt lat="47.03388" lon="-1.83507">
        <ele>28.48</ele>
        <time>2020-06-20T09:45:20Z</time>
      </trkpt>
      <trkpt lat="47.03375" lon="-1.83503">
        <ele>28.87</ele>
        <time>2020-06-20T09:45:22Z</time>
      </trkpt>
      <trkpt lat="47.0336" lon="-1.835">
        <ele>28.77</ele>
        <time>2020-06-20T09:45:24Z</time>
      </trkpt>
      <trkpt lat="47.03347" lon="-1.83497">
        <ele>29.21</ele>
        <time>2020-06-20T09:45:26Z</time>
      </trkpt>
      <trkpt lat="47.03334" lon="-1.83493">
        <ele>29.31</ele>
        <time>2020-06-20T09:45:28Z</time>
      </trkpt>
      <trkpt lat="47.03323" lon="-1.8349">
        <ele>29.22</ele>
        <time>2020-06-20T09:45:30Z</time>
      </trkpt>
      <trkpt lat="47.03309" lon="-1.83486">
        <ele>29.27</ele>
        <time>2020-06-20T09:45:32Z</time>
      </trkpt>
      <trkpt lat="47.03296" lon="-1.83482">
        <ele>29.9</ele>
        <time>2020-06-20T09:45:34Z</time>
      </trkpt>
      <trkpt lat="47.03282" lon="-1.83478">
        <ele>30.38</ele>
        <time>2020-06-20T09:45:36Z</time>
      </trkpt>
      <trkpt lat="47.03269" lon="-1.83474">
        <ele>30.48</ele>
        <time>2020-06-20T09:45:38Z</time>
      </trkpt>
      <trkpt lat="47.03257" lon="-1.83472">
        <ele>31.2</ele>
        <time>2020-06-20T09:45:40Z</time>
      </trkpt>
      <trkpt lat="47.03245" lon="-1.83468">
        <ele>32.09</ele>
        <time>2020-06-20T09:45:42Z</time>
      </trkpt>
      <trkpt lat="47.03231" lon="-1.83464">
        <ele>31.63</ele>
        <time>2020-06-20T09:45:44Z</time>
      </trkpt>
      <trkpt lat="47.03218" lon="-1.8346">
        <ele>31.22</ele>
        <time>2020-06-20T09:45:46Z</time>
      </trkpt>
      <trkpt lat="47.03206" lon="-1.83457">
        <ele>29.46</ele>
        <time>2020-06-20T09:45:48Z</time>
      </trkpt>
      <trkpt lat="47.03194" lon="-1.83454">
        <ele>29.61</ele>
        <time>2020-06-20T09:45:50Z</time>
      </trkpt>
      <trkpt lat="47.03181" lon="-1.83451">
        <ele>29.92</ele>
        <time>2020-06-20T09:45:52Z</time>
      </trkpt>
      <trkpt lat="47.03168" lon="-1.8345">
        <ele>29.74</ele>
        <time>2020-06-20T09:45:54Z</time>
      </trkpt>
      <trkpt lat="47.03162" lon="-1.8346">
        <ele>28.82</ele>
        <time>2020-06-20T09:45:56Z</time>
      </trkpt>
      <trkpt lat="47.03156" lon="-1.83475">
        <ele>29.44</ele>
        <time>2020-06-20T09:45:58Z</time>
      </trkpt>
      <trkpt lat="47.03147" lon="-1.83485">
        <ele>29.74</ele>
        <time>2020-06-20T09:46:00Z</time>
      </trkpt>
      <trkpt lat="47.03135" lon="-1.8349">
        <ele>31.08</ele>
        <time>2020-06-20T09:46:02Z</time>
      </trkpt>
      <trkpt lat="47.03124" lon="-1.83492">
        <ele>31.5</ele>
        <time>2020-06-20T09:46:04Z</time>
      </trkpt>
      <trkpt lat="47.03111" lon="-1.83493">
        <ele>31.04</ele>
        <time>2020-06-20T09:46:06Z</time>
      </trkpt>
      <trkpt lat="47.03097" lon="-1.83494">
        <ele>30.38</ele>
        <time>2020-06-20T09:46:08Z</time>
      </trkpt>
      <trkpt lat="47.03085" lon="-1.83496">
        <ele>30.53</ele>
        <time>2020-06-20T09:46:10Z</time>
      </trkpt>
      <trkpt lat="47.03071" lon="-1.83498">
        <ele>30.54</ele>
        <time>2020-06-20T09:46:12Z</time>
      </trkpt>
      <trkpt lat="47.03056" lon="-1.83499">
        <ele>30.27</ele>
        <time>2020-06-20T09:46:14Z</time>
      </trkpt>
      <trkpt lat="47.03045" lon="-1.835">
        <ele>29.44</ele>
        <time>2020-06-20T09:46:16Z</time>
      </trkpt>
      <trkpt lat="47.03031" lon="-1.83502">
        <ele>29.12</ele>
        <time>2020-06-20T09:46:18Z</time>
      </trkpt>
      <trkpt lat="47.03017" lon="-1.83504">
        <ele>28.49</ele>
        <time>2020-06-20T09:46:20Z</time>
      </trkpt>
      <trkpt lat="47.03004" lon="-1.83506">
        <ele>28.36</ele>
        <time>2020-06-20T09:46:22Z</time>
      </trkpt>
      <trkpt lat="47.0299" lon="-1.83508">
        <ele>28.18</ele>
        <time>2020-06-20T09:46:24Z</time>
      </trkpt>
      <trkpt lat="47.02975" lon="-1.83509">
        <ele>28.22</ele>
        <time>2020-06-20T09:46:26Z</time>
      </trkpt>
      <trkpt lat="47.02961" lon="-1.83511">
        <ele>28.34</ele>
        <time>2020-06-20T09:46:28Z</time>
      </trkpt>
      <trkpt lat="47.02946" lon="-1.83512">
        <ele>27.81</ele>
        <time>2020-06-20T09:46:30Z</time>
      </trkpt>
      <trkpt lat="47.02931" lon="-1.83514">
        <ele>26.99</ele>
        <time>2020-06-20T09:46:32Z</time>
      </trkpt>
      <trkpt lat="47.02916" lon="-1.83517">
        <ele>26.93</ele>
        <time>2020-06-20T09:46:34Z</time>
      </trkpt>
      <trkpt lat="47.02903" lon="-1.8352">
        <ele>26.9</ele>
        <time>2020-06-20T09:46:36Z</time>
      </trkpt>
      <trkpt lat="47.02891" lon="-1.83523">
        <ele>26.94</ele>
        <time>2020-06-20T09:46:38Z</time>
      </trkpt>
      <trkpt lat="47.02877" lon="-1.83526">
        <ele>26.93</ele>
        <time>2020-06-20T09:46:40Z</time>
      </trkpt>
      <trkpt lat="47.02865" lon="-1.8353">
        <ele>27.4</ele>
        <time>2020-06-20T09:46:42Z</time>
      </trkpt>
      <trkpt lat="47.02852" lon="-1.83535">
        <ele>28.35</ele>
        <time>2020-06-20T09:46:44Z</time>
      </trkpt>
      <trkpt lat="47.0284" lon="-1.83542">
        <ele>28.51</ele>
        <time>2020-06-20T09:46:46Z</time>
      </trkpt>
      <trkpt lat="47.0283" lon="-1.8355">
        <ele>27.69</ele>
        <time>2020-06-20T09:46:48Z</time>
      </trkpt>
      <trkpt lat="47.02818" lon="-1.83559">
        <ele>27.54</ele>
        <time>2020-06-20T09:46:50Z</time>
      </trkpt>
      <trkpt lat="47.02808" lon="-1.83569">
        <ele>27.22</ele>
        <time>2020-06-20T09:46:52Z</time>
      </trkpt>
      <trkpt lat="47.02798" lon="-1.83579">
        <ele>27.13</ele>
        <time>2020-06-20T09:46:54Z</time>
      </trkpt>
      <trkpt lat="47.02789" lon="-1.83589">
        <ele>27.42</ele>
        <time>2020-06-20T09:46:56Z</time>
      </trkpt>
      <trkpt lat="47.02779" lon="-1.83598">
        <ele>27.51</ele>
        <time>2020-06-20T09:46:58Z</time>
      </trkpt>
      <trkpt lat="47.02767" lon="-1.83606">
        <ele>27.4</ele>
        <time>2020-06-20T09:47:00Z</time>
      </trkpt>
      <trkpt lat="47.02756" lon="-1.8361">
        <ele>27.84</ele>
        <time>2020-06-20T09:47:02Z</time>
      </trkpt>
      <trkpt lat="47.02744" lon="-1.83614">
        <ele>28.93</ele>
        <time>2020-06-20T09:47:04Z</time>
      </trkpt>
      <trkpt lat="47.02733" lon="-1.83617">
        <ele>29.6</ele>
        <time>2020-06-20T09:47:06Z</time>
      </trkpt>
      <trkpt lat="47.0272" lon="-1.83619">
        <ele>28.85</ele>
        <time>2020-06-20T09:47:08Z</time>
      </trkpt>
      <trkpt lat="47.02708" lon="-1.83621">
        <ele>28.19</ele>
        <time>2020-06-20T09:47:10Z</time>
      </trkpt>
      <trkpt lat="47.02694" lon="-1.83621">
        <ele>29.55</ele>
        <time>2020-06-20T09:47:12Z</time>
      </trkpt>
      <trkpt lat="47.0268" lon="-1.83621">
        <ele>30.29</ele>
        <time>2020-06-20T09:47:14Z</time>
      </trkpt>
      <trkpt lat="47.02668" lon="-1.83623">
        <ele>28.13</ele>
        <time>2020-06-20T09:47:16Z</time>
      </trkpt>
      <trkpt lat="47.02654" lon="-1.83623">
        <ele>27.07</ele>
        <time>2020-06-20T09:47:18Z</time>
      </trkpt>
      <trkpt lat="47.02641" lon="-1.83624">
        <ele>26.11</ele>
        <time>2020-06-20T09:47:20Z</time>
      </trkpt>
      <trkpt lat="47.02627" lon="-1.83626">
        <ele>26.76</ele>
        <time>2020-06-20T09:47:22Z</time>
      </trkpt>
      <trkpt lat="47.02614" lon="-1.83627">
        <ele>27.46</ele>
        <time>2020-06-20T09:47:24Z</time>
      </trkpt>
      <trkpt lat="47.026" lon="-1.83628">
        <ele>26.6</ele>
        <time>2020-06-20T09:47:26Z</time>
      </trkpt>
      <trkpt lat="47.02588" lon="-1.83628">
        <ele>25.81</ele>
        <time>2020-06-20T09:47:28Z</time>
      </trkpt>
      <trkpt lat="47.02576" lon="-1.83628">
        <ele>25.62</ele>
        <time>2020-06-20T09:47:30Z</time>
      </trkpt>
      <trkpt lat="47.02564" lon="-1.83629">
        <ele>25.32</ele>
        <time>2020-06-20T09:47:32Z</time>
      </trkpt>
      <trkpt lat="47.02549" lon="-1.8363">
        <ele>24.35</ele>
        <time>2020-06-20T09:47:34Z</time>
      </trkpt>
      <trkpt lat="47.02536" lon="-1.83631">
        <ele>22.62</ele>
        <time>2020-06-20T09:47:36Z</time>
      </trkpt>
      <trkpt lat="47.02523" lon="-1.83633">
        <ele>22.65</ele>
        <time>2020-06-20T09:47:38Z</time>
      </trkpt>
      <trkpt lat="47.02511" lon="-1.83635">
        <ele>23.19</ele>
        <time>2020-06-20T09:47:40Z</time>
      </trkpt>
      <trkpt lat="47.02498" lon="-1.83638">
        <ele>22.76</ele>
        <time>2020-06-20T09:47:42Z</time>
      </trkpt>
      <trkpt lat="47.02486" lon="-1.83641">
        <ele>22.66</ele>
        <time>2020-06-20T09:47:44Z</time>
      </trkpt>
      <trkpt lat="47.02473" lon="-1.83643">
        <ele>23.14</ele>
        <time>2020-06-20T09:47:46Z</time>
      </trkpt>
      <trkpt lat="47.0246" lon="-1.83646">
        <ele>23.07</ele>
        <time>2020-06-20T09:47:48Z</time>
      </trkpt>
      <trkpt lat="47.02449" lon="-1.83649">
        <ele>23.58</ele>
        <time>2020-06-20T09:47:50Z</time>
      </trkpt>
      <trkpt lat="47.02436" lon="-1.83652">
        <ele>24.63</ele>
        <time>2020-06-20T09:47:52Z</time>
      </trkpt>
      <trkpt lat="47.02423" lon="-1.83654">
        <ele>25.22</ele>
        <time>2020-06-20T09:47:54Z</time>
      </trkpt>
      <trkpt lat="47.02411" lon="-1.83656">
        <ele>25.34</ele>
        <time>2020-06-20T09:47:56Z</time>
      </trkpt>
      <trkpt lat="47.02399" lon="-1.83657">
        <ele>25.23</ele>
        <time>2020-06-20T09:47:58Z</time>
      </trkpt>
      <trkpt lat="47.02388" lon="-1.83658">
        <ele>27.06</ele>
        <time>2020-06-20T09:48:00Z</time>
      </trkpt>
      <trkpt lat="47.02375" lon="-1.83659">
        <ele>27.89</ele>
        <time>2020-06-20T09:48:02Z</time>
      </trkpt>
      <trkpt lat="47.02361" lon="-1.8366">
        <ele>28.56</ele>
        <time>2020-06-20T09:48:04Z</time>
      </trkpt>
      <trkpt lat="47.02349" lon="-1.83659">
        <ele>29</ele>
        <time>2020-06-20T09:48:06Z</time>
      </trkpt>
      <trkpt lat="47.02337" lon="-1.83659">
        <ele>28.06</ele>
        <time>2020-06-20T09:48:08Z</time>
      </trkpt>
      <trkpt lat="47.02323" lon="-1.83658">
        <ele>27.31</ele>
        <time>2020-06-20T09:48:10Z</time>
      </trkpt>
      <trkpt lat="47.02311" lon="-1.83657">
        <ele>26.71</ele>
        <time>2020-06-20T09:48:12Z</time>
      </trkpt>
      <trkpt lat="47.02297" lon="-1.83656">
        <ele>26.03</ele>
        <time>2020-06-20T09:48:14Z</time>
      </trkpt>
      <trkpt lat="47.02285" lon="-1.83655">
        <ele>26.37</ele>
        <time>2020-06-20T09:48:16Z</time>
      </trkpt>
      <trkpt lat="47.02274" lon="-1.83654">
        <ele>26.64</ele>
        <time>2020-06-20T09:48:18Z</time>
      </trkpt>
      <trkpt lat="47.0226" lon="-1.83653">
        <ele>25.78</ele>
        <time>2020-06-20T09:48:20Z</time>
      </trkpt>
      <trkpt lat="47.02247" lon="-1.83652">
        <ele>25.27</ele>
        <time>2020-06-20T09:48:22Z</time>
      </trkpt>
      <trkpt lat="47.02233" lon="-1.83651">
        <ele>24.74</ele>
        <time>2020-06-20T09:48:24Z</time>
      </trkpt>
      <trkpt lat="47.0222" lon="-1.83649">
        <ele>24.6</ele>
        <time>2020-06-20T09:48:26Z</time>
      </trkpt>
      <trkpt lat="47.02207" lon="-1.83647">
        <ele>23.5</ele>
        <time>2020-06-20T09:48:28Z</time>
      </trkpt>
      <trkpt lat="47.02195" lon="-1.83644">
        <ele>23.66</ele>
        <time>2020-06-20T09:48:30Z</time>
      </trkpt>
      <trkpt lat="47.02182" lon="-1.8364">
        <ele>25.39</ele>
        <time>2020-06-20T09:48:32Z</time>
      </trkpt>
      <trkpt lat="47.02172" lon="-1.83636">
        <ele>26.49</ele>
        <time>2020-06-20T09:48:34Z</time>
      </trkpt>
      <trkpt lat="47.0216" lon="-1.83628">
        <ele>26.35</ele>
        <time>2020-06-20T09:48:36Z</time>
      </trkpt>
      <trkpt lat="47.02146" lon="-1.83619">
        <ele>25.64</ele>
        <time>2020-06-20T09:48:38Z</time>
      </trkpt>
      <trkpt lat="47.02133" lon="-1.8361">
        <ele>24.87</ele>
        <time>2020-06-20T09:48:40Z</time>
      </trkpt>
      <trkpt lat="47.0212" lon="-1.83601">
        <ele>23.9</ele>
        <time>2020-06-20T09:48:42Z</time>
      </trkpt>
      <trkpt lat="47.02108" lon="-1.83592">
        <ele>24.01</ele>
        <time>2020-06-20T09:48:44Z</time>
      </trkpt>
      <trkpt lat="47.02095" lon="-1.83584">
        <ele>23.97</ele>
        <time>2020-06-20T09:48:46Z</time>
      </trkpt>
      <trkpt lat="47.02084" lon="-1.83577">
        <ele>23.58</ele>
        <time>2020-06-20T09:48:48Z</time>
      </trkpt>
      <trkpt lat="47.02071" lon="-1.83569">
        <ele>22.68</ele>
        <time>2020-06-20T09:48:50Z</time>
      </trkpt>
      <trkpt lat="47.02058" lon="-1.83563">
        <ele>21.31</ele>
        <time>2020-06-20T09:48:52Z</time>
      </trkpt>
      <trkpt lat="47.02046" lon="-1.83556">
        <ele>21.04</ele>
        <time>2020-06-20T09:48:54Z</time>
      </trkpt>
      <trkpt lat="47.02035" lon="-1.83549">
        <ele>21.24</ele>
        <time>2020-06-20T09:48:56Z</time>
      </trkpt>
      <trkpt lat="47.02023" lon="-1.83542">
        <ele>20.71</ele>
        <time>2020-06-20T09:48:58Z</time>
      </trkpt>
      <trkpt lat="47.02011" lon="-1.83534">
        <ele>20.84</ele>
        <time>2020-06-20T09:49:00Z</time>
      </trkpt>
      <trkpt lat="47.01998" lon="-1.83526">
        <ele>21.11</ele>
        <time>2020-06-20T09:49:02Z</time>
      </trkpt>
      <trkpt lat="47.01985" lon="-1.83517">
        <ele>20.26</ele>
        <time>2020-06-20T09:49:04Z</time>
      </trkpt>
      <trkpt lat="47.01972" lon="-1.8351">
        <ele>20.46</ele>
        <time>2020-06-20T09:49:06Z</time>
      </trkpt>
      <trkpt lat="47.01958" lon="-1.83503">
        <ele>20.79</ele>
        <time>2020-06-20T09:49:08Z</time>
      </trkpt>
      <trkpt lat="47.01944" lon="-1.83497">
        <ele>20.3</ele>
        <time>2020-06-20T09:49:10Z</time>
      </trkpt>
      <trkpt lat="47.01927" lon="-1.83496">
        <ele>20.5</ele>
        <time>2020-06-20T09:49:12Z</time>
      </trkpt>
      <trkpt lat="47.01913" lon="-1.83498">
        <ele>20.63</ele>
        <time>2020-06-20T09:49:14Z</time>
      </trkpt>
      <trkpt lat="47.01897" lon="-1.83502">
        <ele>20.13</ele>
        <time>2020-06-20T09:49:16Z</time>
      </trkpt>
      <trkpt lat="47.01881" lon="-1.83507">
        <ele>19.66</ele>
        <time>2020-06-20T09:49:18Z</time>
      </trkpt>
      <trkpt lat="47.01866" lon="-1.83511">
        <ele>18.63</ele>
        <time>2020-06-20T09:49:20Z</time>
      </trkpt>
      <trkpt lat="47.01857" lon="-1.83514">
        <ele>17.84</ele>
        <time>2020-06-20T09:49:21Z</time>
      </trkpt>
      <trkpt lat="47.01841" lon="-1.83518">
        <ele>16.8</ele>
        <time>2020-06-20T09:49:23Z</time>
      </trkpt>
      <trkpt lat="47.01825" lon="-1.83522">
        <ele>16.33</ele>
        <time>2020-06-20T09:49:25Z</time>
      </trkpt>
      <trkpt lat="47.01809" lon="-1.83525">
        <ele>16.07</ele>
        <time>2020-06-20T09:49:27Z</time>
      </trkpt>
      <trkpt lat="47.01796" lon="-1.83528">
        <ele>15.59</ele>
        <time>2020-06-20T09:49:29Z</time>
      </trkpt>
      <trkpt lat="47.01781" lon="-1.83532">
        <ele>15.03</ele>
        <time>2020-06-20T09:49:31Z</time>
      </trkpt>
      <trkpt lat="47.01766" lon="-1.83536">
        <ele>14.58</ele>
        <time>2020-06-20T09:49:33Z</time>
      </trkpt>
      <trkpt lat="47.01752" lon="-1.83542">
        <ele>14.62</ele>
        <time>2020-06-20T09:49:35Z</time>
      </trkpt>
      <trkpt lat="47.01739" lon="-1.83554">
        <ele>15.23</ele>
        <time>2020-06-20T09:49:37Z</time>
      </trkpt>
      <trkpt lat="47.01729" lon="-1.83568">
        <ele>14.88</ele>
        <time>2020-06-20T09:49:39Z</time>
      </trkpt>
      <trkpt lat="47.0172" lon="-1.83586">
        <ele>14.22</ele>
        <time>2020-06-20T09:49:41Z</time>
      </trkpt>
      <trkpt lat="47.01714" lon="-1.83602">
        <ele>13.95</ele>
        <time>2020-06-20T09:49:43Z</time>
      </trkpt>
      <trkpt lat="47.01706" lon="-1.83621">
        <ele>14.02</ele>
        <time>2020-06-20T09:49:45Z</time>
      </trkpt>
      <trkpt lat="47.01699" lon="-1.83636">
        <ele>14.99</ele>
        <time>2020-06-20T09:49:47Z</time>
      </trkpt>
      <trkpt lat="47.0169" lon="-1.83651">
        <ele>16.39</ele>
        <time>2020-06-20T09:49:49Z</time>
      </trkpt>
      <trkpt lat="47.0168" lon="-1.83666">
        <ele>16.38</ele>
        <time>2020-06-20T09:49:51Z</time>
      </trkpt>
      <trkpt lat="47.01672" lon="-1.83678">
        <ele>16.68</ele>
        <time>2020-06-20T09:49:53Z</time>
      </trkpt>
      <trkpt lat="47.01663" lon="-1.83691">
        <ele>16.08</ele>
        <time>2020-06-20T09:49:55Z</time>
      </trkpt>
      <trkpt lat="47.01652" lon="-1.83704">
        <ele>16.47</ele>
        <time>2020-06-20T09:49:57Z</time>
      </trkpt>
      <trkpt lat="47.0164" lon="-1.83717">
        <ele>15.61</ele>
        <time>2020-06-20T09:49:59Z</time>
      </trkpt>
      <trkpt lat="47.0163" lon="-1.83728">
        <ele>14.46</ele>
        <time>2020-06-20T09:50:01Z</time>
      </trkpt>
      <trkpt lat="47.01618" lon="-1.8374">
        <ele>14.5</ele>
        <time>2020-06-20T09:50:03Z</time>
      </trkpt>
      <trkpt lat="47.01608" lon="-1.8375">
        <ele>14.34</ele>
        <time>2020-06-20T09:50:05Z</time>
      </trkpt>
      <trkpt lat="47.01597" lon="-1.83764">
        <ele>13.47</ele>
        <time>2020-06-20T09:50:07Z</time>
      </trkpt>
      <trkpt lat="47.01587" lon="-1.83776">
        <ele>12.74</ele>
        <time>2020-06-20T09:50:09Z</time>
      </trkpt>
      <trkpt lat="47.01577" lon="-1.8379">
        <ele>12.21</ele>
        <time>2020-06-20T09:50:11Z</time>
      </trkpt>
      <trkpt lat="47.01567" lon="-1.83803">
        <ele>12.78</ele>
        <time>2020-06-20T09:50:13Z</time>
      </trkpt>
      <trkpt lat="47.01555" lon="-1.83817">
        <ele>12.29</ele>
        <time>2020-06-20T09:50:15Z</time>
      </trkpt>
      <trkpt lat="47.01544" lon="-1.83832">
        <ele>11.59</ele>
        <time>2020-06-20T09:50:17Z</time>
      </trkpt>
      <trkpt lat="47.01533" lon="-1.83846">
        <ele>11.76</ele>
        <time>2020-06-20T09:50:19Z</time>
      </trkpt>
      <trkpt lat="47.01523" lon="-1.83859">
        <ele>11.42</ele>
        <time>2020-06-20T09:50:21Z</time>
      </trkpt>
      <trkpt lat="47.01513" lon="-1.83874">
        <ele>10.85</ele>
        <time>2020-06-20T09:50:23Z</time>
      </trkpt>
      <trkpt lat="47.01504" lon="-1.8389">
        <ele>10.2</ele>
        <time>2020-06-20T09:50:25Z</time>
      </trkpt>
      <trkpt lat="47.01494" lon="-1.83906">
        <ele>9.94</ele>
        <time>2020-06-20T09:50:27Z</time>
      </trkpt>
      <trkpt lat="47.01484" lon="-1.83922">
        <ele>10.18</ele>
        <time>2020-06-20T09:50:29Z</time>
      </trkpt>
      <trkpt lat="47.01474" lon="-1.83937">
        <ele>10.2</ele>
        <time>2020-06-20T09:50:31Z</time>
      </trkpt>
      <trkpt lat="47.01464" lon="-1.83953">
        <ele>10.35</ele>
        <time>2020-06-20T09:50:33Z</time>
      </trkpt>
      <trkpt lat="47.01453" lon="-1.83969">
        <ele>10.55</ele>
        <time>2020-06-20T09:50:35Z</time>
      </trkpt>
      <trkpt lat="47.01444" lon="-1.83984">
        <ele>10.95</ele>
        <time>2020-06-20T09:50:37Z</time>
      </trkpt>
      <trkpt lat="47.01434" lon="-1.84">
        <ele>11.58</ele>
        <time>2020-06-20T09:50:39Z</time>
      </trkpt>
      <trkpt lat="47.01423" lon="-1.84015">
        <ele>11.82</ele>
        <time>2020-06-20T09:50:41Z</time>
      </trkpt>
      <trkpt lat="47.01412" lon="-1.84032">
        <ele>11.28</ele>
        <time>2020-06-20T09:50:43Z</time>
      </trkpt>
      <trkpt lat="47.014" lon="-1.84049">
        <ele>9.78</ele>
        <time>2020-06-20T09:50:45Z</time>
      </trkpt>
      <trkpt lat="47.01391" lon="-1.84063">
        <ele>8.89</ele>
        <time>2020-06-20T09:50:47Z</time>
      </trkpt>
      <trkpt lat="47.0138" lon="-1.84078">
        <ele>8.09</ele>
        <time>2020-06-20T09:50:49Z</time>
      </trkpt>
      <trkpt lat="47.01368" lon="-1.84094">
        <ele>7.66</ele>
        <time>2020-06-20T09:50:51Z</time>
      </trkpt>
      <trkpt lat="47.01356" lon="-1.84108">
        <ele>7.38</ele>
        <time>2020-06-20T09:50:53Z</time>
      </trkpt>
      <trkpt lat="47.01344" lon="-1.84121">
        <ele>7.17</ele>
        <time>2020-06-20T09:50:55Z</time>
      </trkpt>
      <trkpt lat="47.01334" lon="-1.84133">
        <ele>6.41</ele>
        <time>2020-06-20T09:50:57Z</time>
      </trkpt>
      <trkpt lat="47.01323" lon="-1.84145">
        <ele>6.7</ele>
        <time>2020-06-20T09:50:59Z</time>
      </trkpt>
      <trkpt lat="47.01311" lon="-1.84158">
        <ele>7.59</ele>
        <time>2020-06-20T09:51:01Z</time>
      </trkpt>
      <trkpt lat="47.01301" lon="-1.84169">
        <ele>7.81</ele>
        <time>2020-06-20T09:51:03Z</time>
      </trkpt>
      <trkpt lat="47.01289" lon="-1.84182">
        <ele>6.62</ele>
        <time>2020-06-20T09:51:05Z</time>
      </trkpt>
      <trkpt lat="47.01278" lon="-1.84193">
        <ele>5.58</ele>
        <time>2020-06-20T09:51:07Z</time>
      </trkpt>
      <trkpt lat="47.01268" lon="-1.84203">
        <ele>4.91</ele>
        <time>2020-06-20T09:51:09Z</time>
      </trkpt>
      <trkpt lat="47.01257" lon="-1.84214">
        <ele>6.06</ele>
        <time>2020-06-20T09:51:11Z</time>
      </trkpt>
      <trkpt lat="47.01246" lon="-1.84225">
        <ele>7.21</ele>
        <time>2020-06-20T09:51:13Z</time>
      </trkpt>
      <trkpt lat="47.01235" lon="-1.84235">
        <ele>7.08</ele>
        <time>2020-06-20T09:51:15Z</time>
      </trkpt>
      <trkpt lat="47.01224" lon="-1.84247">
        <ele>7.65</ele>
        <time>2020-06-20T09:51:17Z</time>
      </trkpt>
      <trkpt lat="47.01212" lon="-1.8426">
        <ele>7.99</ele>
        <time>2020-06-20T09:51:19Z</time>
      </trkpt>
      <trkpt lat="47.01201" lon="-1.84273">
        <ele>7.6</ele>
        <time>2020-06-20T09:51:21Z</time>
      </trkpt>
      <trkpt lat="47.01192" lon="-1.84285">
        <ele>7.31</ele>
        <time>2020-06-20T09:51:23Z</time>
      </trkpt>
      <trkpt lat="47.01184" lon="-1.84301">
        <ele>6.76</ele>
        <time>2020-06-20T09:51:25Z</time>
      </trkpt>
      <trkpt lat="47.01179" lon="-1.84315">
        <ele>7.17</ele>
        <time>2020-06-20T09:51:27Z</time>
      </trkpt>
      <trkpt lat="47.01173" lon="-1.84333">
        <ele>7.62</ele>
        <time>2020-06-20T09:51:29Z</time>
      </trkpt>
      <trkpt lat="47.01169" lon="-1.84351">
        <ele>7.55</ele>
        <time>2020-06-20T09:51:31Z</time>
      </trkpt>
      <trkpt lat="47.01164" lon="-1.84369">
        <ele>7.37</ele>
        <time>2020-06-20T09:51:33Z</time>
      </trkpt>
      <trkpt lat="47.01159" lon="-1.84387">
        <ele>6.72</ele>
        <time>2020-06-20T09:51:35Z</time>
      </trkpt>
      <trkpt lat="47.01155" lon="-1.84404">
        <ele>6.74</ele>
        <time>2020-06-20T09:51:37Z</time>
      </trkpt>
      <trkpt lat="47.01151" lon="-1.84423">
        <ele>7.06</ele>
        <time>2020-06-20T09:51:39Z</time>
      </trkpt>
      <trkpt lat="47.01146" lon="-1.84441">
        <ele>7.53</ele>
        <time>2020-06-20T09:51:41Z</time>
      </trkpt>
      <trkpt lat="47.01142" lon="-1.8446">
        <ele>7.88</ele>
        <time>2020-06-20T09:51:43Z</time>
      </trkpt>
      <trkpt lat="47.01137" lon="-1.84478">
        <ele>6.94</ele>
        <time>2020-06-20T09:51:45Z</time>
      </trkpt>
      <trkpt lat="47.01133" lon="-1.84497">
        <ele>6.81</ele>
        <time>2020-06-20T09:51:47Z</time>
      </trkpt>
      <trkpt lat="47.01129" lon="-1.84514">
        <ele>7.07</ele>
        <time>2020-06-20T09:51:49Z</time>
      </trkpt>
      <trkpt lat="47.01123" lon="-1.84531">
        <ele>8.39</ele>
        <time>2020-06-20T09:51:51Z</time>
      </trkpt>
      <trkpt lat="47.01116" lon="-1.84548">
        <ele>8.11</ele>
        <time>2020-06-20T09:51:53Z</time>
      </trkpt>
      <trkpt lat="47.01108" lon="-1.84563">
        <ele>7.21</ele>
        <time>2020-06-20T09:51:55Z</time>
      </trkpt>
      <trkpt lat="47.01099" lon="-1.84576">
        <ele>6.54</ele>
        <time>2020-06-20T09:51:57Z</time>
      </trkpt>
      <trkpt lat="47.01089" lon="-1.84588">
        <ele>6.54</ele>
        <time>2020-06-20T09:51:59Z</time>
      </trkpt>
      <trkpt lat="47.01079" lon="-1.84597">
        <ele>5.89</ele>
        <time>2020-06-20T09:52:01Z</time>
      </trkpt>
      <trkpt lat="47.01068" lon="-1.84607">
        <ele>5.16</ele>
        <time>2020-06-20T09:52:03Z</time>
      </trkpt>
      <trkpt lat="47.01058" lon="-1.84617">
        <ele>5.66</ele>
        <time>2020-06-20T09:52:05Z</time>
      </trkpt>
      <trkpt lat="47.01048" lon="-1.84627">
        <ele>6.37</ele>
        <time>2020-06-20T09:52:07Z</time>
      </trkpt>
      <trkpt lat="47.01038" lon="-1.84638">
        <ele>5.27</ele>
        <time>2020-06-20T09:52:09Z</time>
      </trkpt>
      <trkpt lat="47.01026" lon="-1.84649">
        <ele>4.72</ele>
        <time>2020-06-20T09:52:11Z</time>
      </trkpt>
      <trkpt lat="47.01014" lon="-1.84658">
        <ele>4.28</ele>
        <time>2020-06-20T09:52:13Z</time>
      </trkpt>
      <trkpt lat="47.01004" lon="-1.84665">
        <ele>4.39</ele>
        <time>2020-06-20T09:52:15Z</time>
      </trkpt>
      <trkpt lat="47.00992" lon="-1.84674">
        <ele>4.71</ele>
        <time>2020-06-20T09:52:17Z</time>
      </trkpt>
      <trkpt lat="47.0098" lon="-1.84681">
        <ele>4.45</ele>
        <time>2020-06-20T09:52:19Z</time>
      </trkpt>
      <trkpt lat="47.00969" lon="-1.84687">
        <ele>3.62</ele>
        <time>2020-06-20T09:52:21Z</time>
      </trkpt>
      <trkpt lat="47.00958" lon="-1.84693">
        <ele>4.33</ele>
        <time>2020-06-20T09:52:23Z</time>
      </trkpt>
      <trkpt lat="47.00946" lon="-1.847">
        <ele>4.3</ele>
        <time>2020-06-20T09:52:25Z</time>
      </trkpt>
      <trkpt lat="47.00936" lon="-1.84706">
        <ele>4.77</ele>
        <time>2020-06-20T09:52:27Z</time>
      </trkpt>
      <trkpt lat="47.00924" lon="-1.84712">
        <ele>5.33</ele>
        <time>2020-06-20T09:52:29Z</time>
      </trkpt>
      <trkpt lat="47.00914" lon="-1.84718">
        <ele>4.42</ele>
        <time>2020-06-20T09:52:31Z</time>
      </trkpt>
      <trkpt lat="47.00905" lon="-1.84723">
        <ele>5.17</ele>
        <time>2020-06-20T09:52:33Z</time>
      </trkpt>
      <trkpt lat="47.00896" lon="-1.84729">
        <ele>5.49</ele>
        <time>2020-06-20T09:52:35Z</time>
      </trkpt>
      <trkpt lat="47.00887" lon="-1.84737">
        <ele>5.67</ele>
        <time>2020-06-20T09:52:39Z</time>
      </trkpt>
      <trkpt lat="47.00879" lon="-1.84746">
        <ele>5.82</ele>
        <time>2020-06-20T09:52:41Z</time>
      </trkpt>
      <trkpt lat="47.00868" lon="-1.84756">
        <ele>6.38</ele>
        <time>2020-06-20T09:52:43Z</time>
      </trkpt>
      <trkpt lat="47.00857" lon="-1.84765">
        <ele>6.69</ele>
        <time>2020-06-20T09:52:45Z</time>
      </trkpt>
      <trkpt lat="47.00845" lon="-1.84772">
        <ele>6.45</ele>
        <time>2020-06-20T09:52:47Z</time>
      </trkpt>
      <trkpt lat="47.00833" lon="-1.84779">
        <ele>5.88</ele>
        <time>2020-06-20T09:52:49Z</time>
      </trkpt>
      <trkpt lat="47.00822" lon="-1.84786">
        <ele>5.83</ele>
        <time>2020-06-20T09:52:51Z</time>
      </trkpt>
      <trkpt lat="47.0081" lon="-1.84793">
        <ele>5.71</ele>
        <time>2020-06-20T09:52:53Z</time>
      </trkpt>
      <trkpt lat="47.00798" lon="-1.848">
        <ele>5.62</ele>
        <time>2020-06-20T09:52:55Z</time>
      </trkpt>
      <trkpt lat="47.00786" lon="-1.84806">
        <ele>6.09</ele>
        <time>2020-06-20T09:52:57Z</time>
      </trkpt>
      <trkpt lat="47.00773" lon="-1.84812">
        <ele>6.69</ele>
        <time>2020-06-20T09:52:59Z</time>
      </trkpt>
      <trkpt lat="47.00762" lon="-1.84817">
        <ele>6.19</ele>
        <time>2020-06-20T09:53:01Z</time>
      </trkpt>
      <trkpt lat="47.00751" lon="-1.84823">
        <ele>5.88</ele>
        <time>2020-06-20T09:53:03Z</time>
      </trkpt>
      <trkpt lat="47.00739" lon="-1.8483">
        <ele>5.47</ele>
        <time>2020-06-20T09:53:05Z</time>
      </trkpt>
      <trkpt lat="47.0073" lon="-1.84835">
        <ele>5.18</ele>
        <time>2020-06-20T09:53:07Z</time>
      </trkpt>
      <trkpt lat="47.00717" lon="-1.84841">
        <ele>4.89</ele>
        <time>2020-06-20T09:53:09Z</time>
      </trkpt>
      <trkpt lat="47.00706" lon="-1.84847">
        <ele>5.09</ele>
        <time>2020-06-20T09:53:11Z</time>
      </trkpt>
      <trkpt lat="47.00695" lon="-1.84853">
        <ele>5.62</ele>
        <time>2020-06-20T09:53:13Z</time>
      </trkpt>
      <trkpt lat="47.00684" lon="-1.84858">
        <ele>6.23</ele>
        <time>2020-06-20T09:53:15Z</time>
      </trkpt>
      <trkpt lat="47.00673" lon="-1.84864">
        <ele>6.53</ele>
        <time>2020-06-20T09:53:17Z</time>
      </trkpt>
      <trkpt lat="47.0066" lon="-1.8487">
        <ele>6.1</ele>
        <time>2020-06-20T09:53:19Z</time>
      </trkpt>
      <trkpt lat="47.00649" lon="-1.84876">
        <ele>5.67</ele>
        <time>2020-06-20T09:53:21Z</time>
      </trkpt>
      <trkpt lat="47.00637" lon="-1.84883">
        <ele>4.45</ele>
        <time>2020-06-20T09:53:23Z</time>
      </trkpt>
      <trkpt lat="47.00626" lon="-1.84889">
        <ele>4.34</ele>
        <time>2020-06-20T09:53:25Z</time>
      </trkpt>
      <trkpt lat="47.00614" lon="-1.84896">
        <ele>4.32</ele>
        <time>2020-06-20T09:53:27Z</time>
      </trkpt>
      <trkpt lat="47.00604" lon="-1.84906">
        <ele>3.88</ele>
        <time>2020-06-20T09:53:29Z</time>
      </trkpt>
      <trkpt lat="47.00595" lon="-1.84916">
        <ele>3.52</ele>
        <time>2020-06-20T09:53:31Z</time>
      </trkpt>
      <trkpt lat="47.00586" lon="-1.84927">
        <ele>3.53</ele>
        <time>2020-06-20T09:53:33Z</time>
      </trkpt>
      <trkpt lat="47.00575" lon="-1.8494">
        <ele>4.63</ele>
        <time>2020-06-20T09:53:35Z</time>
      </trkpt>
      <trkpt lat="47.00567" lon="-1.84953">
        <ele>5.59</ele>
        <time>2020-06-20T09:53:37Z</time>
      </trkpt>
      <trkpt lat="47.00559" lon="-1.84966">
        <ele>5.53</ele>
        <time>2020-06-20T09:53:39Z</time>
      </trkpt>
      <trkpt lat="47.00549" lon="-1.84978">
        <ele>5.01</ele>
        <time>2020-06-20T09:53:41Z</time>
      </trkpt>
      <trkpt lat="47.0054" lon="-1.84989">
        <ele>4.74</ele>
        <time>2020-06-20T09:53:43Z</time>
      </trkpt>
      <trkpt lat="47.0053" lon="-1.85001">
        <ele>3.89</ele>
        <time>2020-06-20T09:53:45Z</time>
      </trkpt>
      <trkpt lat="47.00521" lon="-1.85013">
        <ele>4.44</ele>
        <time>2020-06-20T09:53:47Z</time>
      </trkpt>
      <trkpt lat="47.00511" lon="-1.85023">
        <ele>4.98</ele>
        <time>2020-06-20T09:53:49Z</time>
      </trkpt>
      <trkpt lat="47.00501" lon="-1.85035">
        <ele>5.63</ele>
        <time>2020-06-20T09:53:51Z</time>
      </trkpt>
      <trkpt lat="47.00491" lon="-1.85047">
        <ele>6.21</ele>
        <time>2020-06-20T09:53:53Z</time>
      </trkpt>
      <trkpt lat="47.00482" lon="-1.85058">
        <ele>6.21</ele>
        <time>2020-06-20T09:53:55Z</time>
      </trkpt>
      <trkpt lat="47.00471" lon="-1.8507">
        <ele>5.98</ele>
        <time>2020-06-20T09:53:57Z</time>
      </trkpt>
      <trkpt lat="47.00461" lon="-1.85079">
        <ele>6.12</ele>
        <time>2020-06-20T09:53:59Z</time>
      </trkpt>
      <trkpt lat="47.00451" lon="-1.85088">
        <ele>6.08</ele>
        <time>2020-06-20T09:54:01Z</time>
      </trkpt>
      <trkpt lat="47.0044" lon="-1.85096">
        <ele>4.89</ele>
        <time>2020-06-20T09:54:03Z</time>
      </trkpt>
      <trkpt lat="47.00429" lon="-1.85104">
        <ele>4.04</ele>
        <time>2020-06-20T09:54:05Z</time>
      </trkpt>
      <trkpt lat="47.00418" lon="-1.85113">
        <ele>4.34</ele>
        <time>2020-06-20T09:54:07Z</time>
      </trkpt>
      <trkpt lat="47.00408" lon="-1.85123">
        <ele>5.54</ele>
        <time>2020-06-20T09:54:09Z</time>
      </trkpt>
      <trkpt lat="47.00399" lon="-1.8513">
        <ele>5.86</ele>
        <time>2020-06-20T09:54:11Z</time>
      </trkpt>
      <trkpt lat="47.00388" lon="-1.8514">
        <ele>5.93</ele>
        <time>2020-06-20T09:54:13Z</time>
      </trkpt>
      <trkpt lat="47.0038" lon="-1.85148">
        <ele>5.04</ele>
        <time>2020-06-20T09:54:15Z</time>
      </trkpt>
      <trkpt lat="47.00369" lon="-1.85159">
        <ele>4.88</ele>
        <time>2020-06-20T09:54:17Z</time>
      </trkpt>
      <trkpt lat="47.00359" lon="-1.85167">
        <ele>4.7</ele>
        <time>2020-06-20T09:54:19Z</time>
      </trkpt>
      <trkpt lat="47.00349" lon="-1.85175">
        <ele>4.18</ele>
        <time>2020-06-20T09:54:21Z</time>
      </trkpt>
      <trkpt lat="47.00339" lon="-1.85184">
        <ele>3.3</ele>
        <time>2020-06-20T09:54:23Z</time>
      </trkpt>
      <trkpt lat="47.00329" lon="-1.85193">
        <ele>4.39</ele>
        <time>2020-06-20T09:54:25Z</time>
      </trkpt>
      <trkpt lat="47.0032" lon="-1.85201">
        <ele>5.23</ele>
        <time>2020-06-20T09:54:27Z</time>
      </trkpt>
      <trkpt lat="47.00308" lon="-1.85211">
        <ele>5.36</ele>
        <time>2020-06-20T09:54:29Z</time>
      </trkpt>
      <trkpt lat="47.00299" lon="-1.85218">
        <ele>5.24</ele>
        <time>2020-06-20T09:54:31Z</time>
      </trkpt>
      <trkpt lat="47.00289" lon="-1.85225">
        <ele>5.61</ele>
        <time>2020-06-20T09:54:33Z</time>
      </trkpt>
      <trkpt lat="47.00279" lon="-1.85234">
        <ele>4.86</ele>
        <time>2020-06-20T09:54:35Z</time>
      </trkpt>
      <trkpt lat="47.0027" lon="-1.85241">
        <ele>3.8</ele>
        <time>2020-06-20T09:54:37Z</time>
      </trkpt>
      <trkpt lat="47.0026" lon="-1.8525">
        <ele>3.2</ele>
        <time>2020-06-20T09:54:39Z</time>
      </trkpt>
      <trkpt lat="47.00249" lon="-1.8526">
        <ele>3.78</ele>
        <time>2020-06-20T09:54:41Z</time>
      </trkpt>
      <trkpt lat="47.00239" lon="-1.85268">
        <ele>4.25</ele>
        <time>2020-06-20T09:54:43Z</time>
      </trkpt>
      <trkpt lat="47.00231" lon="-1.85276">
        <ele>3.7</ele>
        <time>2020-06-20T09:54:45Z</time>
      </trkpt>
      <trkpt lat="47.00221" lon="-1.85287">
        <ele>3.82</ele>
        <time>2020-06-20T09:54:47Z</time>
      </trkpt>
      <trkpt lat="47.00213" lon="-1.85298">
        <ele>4.49</ele>
        <time>2020-06-20T09:54:49Z</time>
      </trkpt>
      <trkpt lat="47.00206" lon="-1.85309">
        <ele>5.19</ele>
        <time>2020-06-20T09:54:51Z</time>
      </trkpt>
      <trkpt lat="47.00198" lon="-1.85324">
        <ele>5.1</ele>
        <time>2020-06-20T09:54:53Z</time>
      </trkpt>
      <trkpt lat="47.0019" lon="-1.85341">
        <ele>4.22</ele>
        <time>2020-06-20T09:54:55Z</time>
      </trkpt>
      <trkpt lat="47.00184" lon="-1.85356">
        <ele>4.05</ele>
        <time>2020-06-20T09:54:57Z</time>
      </trkpt>
      <trkpt lat="47.00178" lon="-1.85371">
        <ele>4.97</ele>
        <time>2020-06-20T09:54:59Z</time>
      </trkpt>
      <trkpt lat="47.00173" lon="-1.85385">
        <ele>4.56</ele>
        <time>2020-06-20T09:55:01Z</time>
      </trkpt>
      <trkpt lat="47.00167" lon="-1.85398">
        <ele>4.2</ele>
        <time>2020-06-20T09:55:03Z</time>
      </trkpt>
      <trkpt lat="47.00158" lon="-1.85416">
        <ele>4.02</ele>
        <time>2020-06-20T09:55:06Z</time>
      </trkpt>
      <trkpt lat="47.00148" lon="-1.85431">
        <ele>4.49</ele>
        <time>2020-06-20T09:55:08Z</time>
      </trkpt>
      <trkpt lat="47.00139" lon="-1.8544">
        <ele>4.88</ele>
        <time>2020-06-20T09:55:09Z</time>
      </trkpt>
      <trkpt lat="47.00127" lon="-1.85448">
        <ele>3.65</ele>
        <time>2020-06-20T09:55:11Z</time>
      </trkpt>
      <trkpt lat="47.00116" lon="-1.85452">
        <ele>2.73</ele>
        <time>2020-06-20T09:55:13Z</time>
      </trkpt>
      <trkpt lat="47.00104" lon="-1.85449">
        <ele>2.76</ele>
        <time>2020-06-20T09:55:15Z</time>
      </trkpt>
      <trkpt lat="47.00093" lon="-1.85441">
        <ele>3.05</ele>
        <time>2020-06-20T09:55:17Z</time>
      </trkpt>
      <trkpt lat="47.00084" lon="-1.85432">
        <ele>3.65</ele>
        <time>2020-06-20T09:55:19Z</time>
      </trkpt>
      <trkpt lat="47.00074" lon="-1.85419">
        <ele>3.48</ele>
        <time>2020-06-20T09:55:21Z</time>
      </trkpt>
      <trkpt lat="47.00064" lon="-1.85406">
        <ele>3.89</ele>
        <time>2020-06-20T09:55:23Z</time>
      </trkpt>
      <trkpt lat="47.00055" lon="-1.85393">
        <ele>4.77</ele>
        <time>2020-06-20T09:55:25Z</time>
      </trkpt>
      <trkpt lat="47.00045" lon="-1.8538">
        <ele>5.15</ele>
        <time>2020-06-20T09:55:27Z</time>
      </trkpt>
      <trkpt lat="47.00035" lon="-1.85371">
        <ele>5.47</ele>
        <time>2020-06-20T09:55:29Z</time>
      </trkpt>
      <trkpt lat="47.00025" lon="-1.85366">
        <ele>5.36</ele>
        <time>2020-06-20T09:55:31Z</time>
      </trkpt>
      <trkpt lat="47.00013" lon="-1.85364">
        <ele>5.08</ele>
        <time>2020-06-20T09:55:33Z</time>
      </trkpt>
      <trkpt lat="46.99998" lon="-1.85361">
        <ele>4.44</ele>
        <time>2020-06-20T09:55:35Z</time>
      </trkpt>
      <trkpt lat="46.99985" lon="-1.85353">
        <ele>3.96</ele>
        <time>2020-06-20T09:55:37Z</time>
      </trkpt>
      <trkpt lat="46.99975" lon="-1.85341">
        <ele>4.37</ele>
        <time>2020-06-20T09:55:39Z</time>
      </trkpt>
      <trkpt lat="46.99966" lon="-1.85326">
        <ele>3.27</ele>
        <time>2020-06-20T09:55:41Z</time>
      </trkpt>
      <trkpt lat="46.9996" lon="-1.85314">
        <ele>3</ele>
        <time>2020-06-20T09:55:43Z</time>
      </trkpt>
      <trkpt lat="46.99955" lon="-1.85301">
        <ele>3.3</ele>
        <time>2020-06-20T09:55:45Z</time>
      </trkpt>
      <trkpt lat="46.99949" lon="-1.85287">
        <ele>3.36</ele>
        <time>2020-06-20T09:55:47Z</time>
      </trkpt>
      <trkpt lat="46.99942" lon="-1.85271">
        <ele>3.91</ele>
        <time>2020-06-20T09:55:49Z</time>
      </trkpt>
      <trkpt lat="46.99934" lon="-1.85257">
        <ele>4.41</ele>
        <time>2020-06-20T09:55:51Z</time>
      </trkpt>
      <trkpt lat="46.99924" lon="-1.85238">
        <ele>5.65</ele>
        <time>2020-06-20T09:55:53Z</time>
      </trkpt>
      <trkpt lat="46.9992" lon="-1.85218">
        <ele>5.61</ele>
        <time>2020-06-20T09:55:55Z</time>
      </trkpt>
      <trkpt lat="46.99916" lon="-1.852">
        <ele>4.87</ele>
        <time>2020-06-20T09:55:57Z</time>
      </trkpt>
      <trkpt lat="46.99912" lon="-1.85182">
        <ele>3.82</ele>
        <time>2020-06-20T09:55:59Z</time>
      </trkpt>
      <trkpt lat="46.99911" lon="-1.85167">
        <ele>3.32</ele>
        <time>2020-06-20T09:56:01Z</time>
      </trkpt>
      <trkpt lat="46.99909" lon="-1.85148">
        <ele>3.3</ele>
        <time>2020-06-20T09:56:03Z</time>
      </trkpt>
      <trkpt lat="46.99907" lon="-1.85132">
        <ele>2.89</ele>
        <time>2020-06-20T09:56:05Z</time>
      </trkpt>
      <trkpt lat="46.99905" lon="-1.85118">
        <ele>2.5</ele>
        <time>2020-06-20T09:56:07Z</time>
      </trkpt>
      <trkpt lat="46.99904" lon="-1.85101">
        <ele>1.46</ele>
        <time>2020-06-20T09:56:09Z</time>
      </trkpt>
      <trkpt lat="46.99902" lon="-1.85083">
        <ele>1.58</ele>
        <time>2020-06-20T09:56:11Z</time>
      </trkpt>
      <trkpt lat="46.999" lon="-1.85067">
        <ele>0.66</ele>
        <time>2020-06-20T09:56:13Z</time>
      </trkpt>
      <trkpt lat="46.99899" lon="-1.85052">
        <ele>1.91</ele>
        <time>2020-06-20T09:56:15Z</time>
      </trkpt>
      <trkpt lat="46.99898" lon="-1.85034">
        <ele>2.93</ele>
        <time>2020-06-20T09:56:17Z</time>
      </trkpt>
      <trkpt lat="46.99897" lon="-1.85016">
        <ele>3.51</ele>
        <time>2020-06-20T09:56:19Z</time>
      </trkpt>
      <trkpt lat="46.99896" lon="-1.85001">
        <ele>4.08</ele>
        <time>2020-06-20T09:56:21Z</time>
      </trkpt>
      <trkpt lat="46.99896" lon="-1.84987">
        <ele>3.87</ele>
        <time>2020-06-20T09:56:23Z</time>
      </trkpt>
      <trkpt lat="46.99895" lon="-1.84968">
        <ele>5.02</ele>
        <time>2020-06-20T09:56:25Z</time>
      </trkpt>
      <trkpt lat="46.99894" lon="-1.84953">
        <ele>5.51</ele>
        <time>2020-06-20T09:56:27Z</time>
      </trkpt>
      <trkpt lat="46.99893" lon="-1.84936">
        <ele>5.95</ele>
        <time>2020-06-20T09:56:29Z</time>
      </trkpt>
      <trkpt lat="46.99892" lon="-1.8492">
        <ele>5.84</ele>
        <time>2020-06-20T09:56:31Z</time>
      </trkpt>
      <trkpt lat="46.99891" lon="-1.84903">
        <ele>6.31</ele>
        <time>2020-06-20T09:56:33Z</time>
      </trkpt>
      <trkpt lat="46.99891" lon="-1.84885">
        <ele>6.22</ele>
        <time>2020-06-20T09:56:35Z</time>
      </trkpt>
      <trkpt lat="46.9989" lon="-1.8487">
        <ele>6.83</ele>
        <time>2020-06-20T09:56:37Z</time>
      </trkpt>
      <trkpt lat="46.99888" lon="-1.84854">
        <ele>6.61</ele>
        <time>2020-06-20T09:56:39Z</time>
      </trkpt>
      <trkpt lat="46.99885" lon="-1.84838">
        <ele>6.93</ele>
        <time>2020-06-20T09:56:41Z</time>
      </trkpt>
      <trkpt lat="46.99883" lon="-1.84822">
        <ele>7.7</ele>
        <time>2020-06-20T09:56:43Z</time>
      </trkpt>
      <trkpt lat="46.9988" lon="-1.84805">
        <ele>8.28</ele>
        <time>2020-06-20T09:56:45Z</time>
      </trkpt>
      <trkpt lat="46.99876" lon="-1.8479">
        <ele>7.87</ele>
        <time>2020-06-20T09:56:47Z</time>
      </trkpt>
      <trkpt lat="46.99872" lon="-1.84774">
        <ele>7.03</ele>
        <time>2020-06-20T09:56:49Z</time>
      </trkpt>
      <trkpt lat="46.99866" lon="-1.84759">
        <ele>7.8</ele>
        <time>2020-06-20T09:56:51Z</time>
      </trkpt>
      <trkpt lat="46.9986" lon="-1.84743">
        <ele>8.07</ele>
        <time>2020-06-20T09:56:53Z</time>
      </trkpt>
      <trkpt lat="46.99855" lon="-1.84729">
        <ele>7.33</ele>
        <time>2020-06-20T09:56:55Z</time>
      </trkpt>
      <trkpt lat="46.99848" lon="-1.84712">
        <ele>6.56</ele>
        <time>2020-06-20T09:56:57Z</time>
      </trkpt>
      <trkpt lat="46.99841" lon="-1.84697">
        <ele>5.68</ele>
        <time>2020-06-20T09:56:59Z</time>
      </trkpt>
      <trkpt lat="46.99833" lon="-1.8468">
        <ele>5.4</ele>
        <time>2020-06-20T09:57:01Z</time>
      </trkpt>
      <trkpt lat="46.99827" lon="-1.84665">
        <ele>4.24</ele>
        <time>2020-06-20T09:57:03Z</time>
      </trkpt>
      <trkpt lat="46.9982" lon="-1.84647">
        <ele>2.96</ele>
        <time>2020-06-20T09:57:05Z</time>
      </trkpt>
      <trkpt lat="46.99816" lon="-1.84633">
        <ele>4.68</ele>
        <time>2020-06-20T09:57:07Z</time>
      </trkpt>
      <trkpt lat="46.99811" lon="-1.84615">
        <ele>5.25</ele>
        <time>2020-06-20T09:57:09Z</time>
      </trkpt>
      <trkpt lat="46.99807" lon="-1.84599">
        <ele>5.25</ele>
        <time>2020-06-20T09:57:11Z</time>
      </trkpt>
      <trkpt lat="46.99802" lon="-1.8458">
        <ele>4.51</ele>
        <time>2020-06-20T09:57:13Z</time>
      </trkpt>
      <trkpt lat="46.99798" lon="-1.84563">
        <ele>4.12</ele>
        <time>2020-06-20T09:57:15Z</time>
      </trkpt>
      <trkpt lat="46.99795" lon="-1.84545">
        <ele>4.71</ele>
        <time>2020-06-20T09:57:17Z</time>
      </trkpt>
      <trkpt lat="46.99792" lon="-1.84527">
        <ele>6.24</ele>
        <time>2020-06-20T09:57:19Z</time>
      </trkpt>
      <trkpt lat="46.9979" lon="-1.84508">
        <ele>6.62</ele>
        <time>2020-06-20T09:57:21Z</time>
      </trkpt>
      <trkpt lat="46.99786" lon="-1.84491">
        <ele>6.1</ele>
        <time>2020-06-20T09:57:23Z</time>
      </trkpt>
      <trkpt lat="46.99782" lon="-1.84472">
        <ele>6.16</ele>
        <time>2020-06-20T09:57:25Z</time>
      </trkpt>
      <trkpt lat="46.99778" lon="-1.84452">
        <ele>6.78</ele>
        <time>2020-06-20T09:57:27Z</time>
      </trkpt>
      <trkpt lat="46.99774" lon="-1.84432">
        <ele>6.64</ele>
        <time>2020-06-20T09:57:29Z</time>
      </trkpt>
      <trkpt lat="46.99771" lon="-1.84413">
        <ele>7.01</ele>
        <time>2020-06-20T09:57:31Z</time>
      </trkpt>
      <trkpt lat="46.99768" lon="-1.84397">
        <ele>6.29</ele>
        <time>2020-06-20T09:57:33Z</time>
      </trkpt>
      <trkpt lat="46.99765" lon="-1.84378">
        <ele>6.07</ele>
        <time>2020-06-20T09:57:35Z</time>
      </trkpt>
      <trkpt lat="46.99763" lon="-1.84359">
        <ele>5.55</ele>
        <time>2020-06-20T09:57:37Z</time>
      </trkpt>
      <trkpt lat="46.9976" lon="-1.84342">
        <ele>6.66</ele>
        <time>2020-06-20T09:57:39Z</time>
      </trkpt>
      <trkpt lat="46.99756" lon="-1.84321">
        <ele>6.71</ele>
        <time>2020-06-20T09:57:41Z</time>
      </trkpt>
      <trkpt lat="46.99754" lon="-1.84301">
        <ele>5.6</ele>
        <time>2020-06-20T09:57:43Z</time>
      </trkpt>
      <trkpt lat="46.99752" lon="-1.84282">
        <ele>5.69</ele>
        <time>2020-06-20T09:57:45Z</time>
      </trkpt>
      <trkpt lat="46.9975" lon="-1.84263">
        <ele>5.06</ele>
        <time>2020-06-20T09:57:47Z</time>
      </trkpt>
      <trkpt lat="46.99748" lon="-1.84243">
        <ele>5.54</ele>
        <time>2020-06-20T09:57:49Z</time>
      </trkpt>
      <trkpt lat="46.99746" lon="-1.84224">
        <ele>5.34</ele>
        <time>2020-06-20T09:57:51Z</time>
      </trkpt>
      <trkpt lat="46.99743" lon="-1.84206">
        <ele>5.24</ele>
        <time>2020-06-20T09:57:53Z</time>
      </trkpt>
      <trkpt lat="46.99737" lon="-1.84191">
        <ele>5</ele>
        <time>2020-06-20T09:57:55Z</time>
      </trkpt>
      <trkpt lat="46.99728" lon="-1.8418">
        <ele>4.7</ele>
        <time>2020-06-20T09:57:57Z</time>
      </trkpt>
      <trkpt lat="46.99715" lon="-1.84172">
        <ele>4.38</ele>
        <time>2020-06-20T09:57:59Z</time>
      </trkpt>
      <trkpt lat="46.99702" lon="-1.84166">
        <ele>4.8</ele>
        <time>2020-06-20T09:58:01Z</time>
      </trkpt>
      <trkpt lat="46.99691" lon="-1.84161">
        <ele>5.77</ele>
        <time>2020-06-20T09:58:03Z</time>
      </trkpt>
      <trkpt lat="46.9968" lon="-1.84154">
        <ele>6.72</ele>
        <time>2020-06-20T09:58:05Z</time>
      </trkpt>
      <trkpt lat="46.9967" lon="-1.84145">
        <ele>7.67</ele>
        <time>2020-06-20T09:58:07Z</time>
      </trkpt>
      <trkpt lat="46.99659" lon="-1.84133">
        <ele>8.79</ele>
        <time>2020-06-20T09:58:09Z</time>
      </trkpt>
      <trkpt lat="46.99649" lon="-1.84119">
        <ele>8.46</ele>
        <time>2020-06-20T09:58:11Z</time>
      </trkpt>
      <trkpt lat="46.99639" lon="-1.84104">
        <ele>8.79</ele>
        <time>2020-06-20T09:58:13Z</time>
      </trkpt>
      <trkpt lat="46.99632" lon="-1.84088">
        <ele>7.86</ele>
        <time>2020-06-20T09:58:15Z</time>
      </trkpt>
      <trkpt lat="46.99625" lon="-1.84071">
        <ele>7.25</ele>
        <time>2020-06-20T09:58:17Z</time>
      </trkpt>
      <trkpt lat="46.99619" lon="-1.84054">
        <ele>6.54</ele>
        <time>2020-06-20T09:58:19Z</time>
      </trkpt>
      <trkpt lat="46.99614" lon="-1.84035">
        <ele>6.26</ele>
        <time>2020-06-20T09:58:21Z</time>
      </trkpt>
      <trkpt lat="46.99609" lon="-1.84016">
        <ele>6.92</ele>
        <time>2020-06-20T09:58:23Z</time>
      </trkpt>
      <trkpt lat="46.99606" lon="-1.83999">
        <ele>5.85</ele>
        <time>2020-06-20T09:58:25Z</time>
      </trkpt>
      <trkpt lat="46.99606" lon="-1.83986">
        <ele>5.8</ele>
        <time>2020-06-20T09:58:27Z</time>
      </trkpt>
      <trkpt lat="46.99604" lon="-1.83969">
        <ele>6.55</ele>
        <time>2020-06-20T09:58:29Z</time>
      </trkpt>
      <trkpt lat="46.99601" lon="-1.83952">
        <ele>7.41</ele>
        <time>2020-06-20T09:58:31Z</time>
      </trkpt>
      <trkpt lat="46.99596" lon="-1.83937">
        <ele>7.3</ele>
        <time>2020-06-20T09:58:33Z</time>
      </trkpt>
      <trkpt lat="46.99587" lon="-1.83924">
        <ele>7.18</ele>
        <time>2020-06-20T09:58:35Z</time>
      </trkpt>
      <trkpt lat="46.99575" lon="-1.83914">
        <ele>7.84</ele>
        <time>2020-06-20T09:58:37Z</time>
      </trkpt>
      <trkpt lat="46.99562" lon="-1.83907">
        <ele>7.6</ele>
        <time>2020-06-20T09:58:39Z</time>
      </trkpt>
      <trkpt lat="46.99549" lon="-1.83899">
        <ele>8.02</ele>
        <time>2020-06-20T09:58:41Z</time>
      </trkpt>
      <trkpt lat="46.99537" lon="-1.83892">
        <ele>9.03</ele>
        <time>2020-06-20T09:58:43Z</time>
      </trkpt>
      <trkpt lat="46.99524" lon="-1.83885">
        <ele>9.99</ele>
        <time>2020-06-20T09:58:46Z</time>
      </trkpt>
      <trkpt lat="46.99511" lon="-1.83877">
        <ele>10.09</ele>
        <time>2020-06-20T09:58:48Z</time>
      </trkpt>
      <trkpt lat="46.99499" lon="-1.83869">
        <ele>10.56</ele>
        <time>2020-06-20T09:58:50Z</time>
      </trkpt>
      <trkpt lat="46.99489" lon="-1.83861">
        <ele>11.56</ele>
        <time>2020-06-20T09:58:52Z</time>
      </trkpt>
      <trkpt lat="46.99482" lon="-1.83851">
        <ele>11.99</ele>
        <time>2020-06-20T09:58:54Z</time>
      </trkpt>
      <trkpt lat="46.99474" lon="-1.83837">
        <ele>12.86</ele>
        <time>2020-06-20T09:58:56Z</time>
      </trkpt>
      <trkpt lat="46.99466" lon="-1.83822">
        <ele>12.74</ele>
        <time>2020-06-20T09:58:58Z</time>
      </trkpt>
      <trkpt lat="46.9946" lon="-1.83806">
        <ele>11.75</ele>
        <time>2020-06-20T09:59:00Z</time>
      </trkpt>
      <trkpt lat="46.99453" lon="-1.83788">
        <ele>11.73</ele>
        <time>2020-06-20T09:59:02Z</time>
      </trkpt>
      <trkpt lat="46.99445" lon="-1.83776">
        <ele>10.95</ele>
        <time>2020-06-20T09:59:04Z</time>
      </trkpt>
      <trkpt lat="46.99433" lon="-1.83767">
        <ele>9.67</ele>
        <time>2020-06-20T09:59:06Z</time>
      </trkpt>
      <trkpt lat="46.99419" lon="-1.83759">
        <ele>9.12</ele>
        <time>2020-06-20T09:59:08Z</time>
      </trkpt>
      <trkpt lat="46.99407" lon="-1.83752">
        <ele>9.32</ele>
        <time>2020-06-20T09:59:10Z</time>
      </trkpt>
      <trkpt lat="46.99397" lon="-1.83747">
        <ele>9.7</ele>
        <time>2020-06-20T09:59:12Z</time>
      </trkpt>
      <trkpt lat="46.99386" lon="-1.83742">
        <ele>10.02</ele>
        <time>2020-06-20T09:59:14Z</time>
      </trkpt>
      <trkpt lat="46.99374" lon="-1.83734">
        <ele>9.5</ele>
        <time>2020-06-20T09:59:16Z</time>
      </trkpt>
      <trkpt lat="46.99362" lon="-1.83728">
        <ele>9.63</ele>
        <time>2020-06-20T09:59:18Z</time>
      </trkpt>
      <trkpt lat="46.99351" lon="-1.83721">
        <ele>10.13</ele>
        <time>2020-06-20T09:59:20Z</time>
      </trkpt>
      <trkpt lat="46.9934" lon="-1.83715">
        <ele>8.55</ele>
        <time>2020-06-20T09:59:22Z</time>
      </trkpt>
      <trkpt lat="46.99329" lon="-1.83708">
        <ele>8.59</ele>
        <time>2020-06-20T09:59:24Z</time>
      </trkpt>
      <trkpt lat="46.99317" lon="-1.837">
        <ele>9.17</ele>
        <time>2020-06-20T09:59:26Z</time>
      </trkpt>
      <trkpt lat="46.99307" lon="-1.83692">
        <ele>9.49</ele>
        <time>2020-06-20T09:59:28Z</time>
      </trkpt>
      <trkpt lat="46.99296" lon="-1.83683">
        <ele>10.72</ele>
        <time>2020-06-20T09:59:30Z</time>
      </trkpt>
      <trkpt lat="46.99287" lon="-1.83674">
        <ele>10.77</ele>
        <time>2020-06-20T09:59:32Z</time>
      </trkpt>
      <trkpt lat="46.99277" lon="-1.83664">
        <ele>11.24</ele>
        <time>2020-06-20T09:59:34Z</time>
      </trkpt>
      <trkpt lat="46.99268" lon="-1.83653">
        <ele>10.73</ele>
        <time>2020-06-20T09:59:36Z</time>
      </trkpt>
      <trkpt lat="46.99258" lon="-1.83642">
        <ele>10.03</ele>
        <time>2020-06-20T09:59:38Z</time>
      </trkpt>
      <trkpt lat="46.99249" lon="-1.83631">
        <ele>10.05</ele>
        <time>2020-06-20T09:59:40Z</time>
      </trkpt>
      <trkpt lat="46.9924" lon="-1.8362">
        <ele>9.96</ele>
        <time>2020-06-20T09:59:42Z</time>
      </trkpt>
      <trkpt lat="46.99233" lon="-1.83609">
        <ele>9.92</ele>
        <time>2020-06-20T09:59:44Z</time>
      </trkpt>
      <trkpt lat="46.99223" lon="-1.83597">
        <ele>8.82</ele>
        <time>2020-06-20T09:59:46Z</time>
      </trkpt>
      <trkpt lat="46.99214" lon="-1.83585">
        <ele>8.62</ele>
        <time>2020-06-20T09:59:48Z</time>
      </trkpt>
      <trkpt lat="46.99205" lon="-1.83573">
        <ele>7.18</ele>
        <time>2020-06-20T09:59:50Z</time>
      </trkpt>
      <trkpt lat="46.99197" lon="-1.83562">
        <ele>6.57</ele>
        <time>2020-06-20T09:59:52Z</time>
      </trkpt>
      <trkpt lat="46.99188" lon="-1.83551">
        <ele>6.21</ele>
        <time>2020-06-20T09:59:54Z</time>
      </trkpt>
      <trkpt lat="46.99177" lon="-1.83539">
        <ele>6.08</ele>
        <time>2020-06-20T09:59:56Z</time>
      </trkpt>
      <trkpt lat="46.99167" lon="-1.83527">
        <ele>5.64</ele>
        <time>2020-06-20T09:59:58Z</time>
      </trkpt>
      <trkpt lat="46.99157" lon="-1.83521">
        <ele>6.02</ele>
        <time>2020-06-20T10:00:00Z</time>
      </trkpt>
      <trkpt lat="46.99147" lon="-1.83513">
        <ele>6.15</ele>
        <time>2020-06-20T10:00:02Z</time>
      </trkpt>
      <trkpt lat="46.99146" lon="-1.83494">
        <ele>5.55</ele>
        <time>2020-06-20T10:00:04Z</time>
      </trkpt>
      <trkpt lat="46.99151" lon="-1.83478">
        <ele>5.86</ele>
        <time>2020-06-20T10:00:06Z</time>
      </trkpt>
      <trkpt lat="46.99157" lon="-1.83461">
        <ele>7.06</ele>
        <time>2020-06-20T10:00:08Z</time>
      </trkpt>
      <trkpt lat="46.99163" lon="-1.83441">
        <ele>6.85</ele>
        <time>2020-06-20T10:00:10Z</time>
      </trkpt>
      <trkpt lat="46.99168" lon="-1.83421">
        <ele>6.02</ele>
        <time>2020-06-20T10:00:12Z</time>
      </trkpt>
      <trkpt lat="46.99172" lon="-1.834">
        <ele>5.27</ele>
        <time>2020-06-20T10:00:14Z</time>
      </trkpt>
      <trkpt lat="46.99176" lon="-1.83383">
        <ele>4.3</ele>
        <time>2020-06-20T10:00:16Z</time>
      </trkpt>
      <trkpt lat="46.9918" lon="-1.83361">
        <ele>3.53</ele>
        <time>2020-06-20T10:00:18Z</time>
      </trkpt>
      <trkpt lat="46.99185" lon="-1.83343">
        <ele>2.83</ele>
        <time>2020-06-20T10:00:20Z</time>
      </trkpt>
      <trkpt lat="46.99188" lon="-1.83325">
        <ele>3.24</ele>
        <time>2020-06-20T10:00:22Z</time>
      </trkpt>
      <trkpt lat="46.99193" lon="-1.83306">
        <ele>3.44</ele>
        <time>2020-06-20T10:00:24Z</time>
      </trkpt>
      <trkpt lat="46.99197" lon="-1.83289">
        <ele>3.57</ele>
        <time>2020-06-20T10:00:26Z</time>
      </trkpt>
      <trkpt lat="46.99202" lon="-1.8327">
        <ele>3.68</ele>
        <time>2020-06-20T10:00:28Z</time>
      </trkpt>
      <trkpt lat="46.99206" lon="-1.83252">
        <ele>4.01</ele>
        <time>2020-06-20T10:00:30Z</time>
      </trkpt>
      <trkpt lat="46.99211" lon="-1.83234">
        <ele>5.14</ele>
        <time>2020-06-20T10:00:32Z</time>
      </trkpt>
      <trkpt lat="46.99215" lon="-1.83216">
        <ele>4.89</ele>
        <time>2020-06-20T10:00:34Z</time>
      </trkpt>
      <trkpt lat="46.99219" lon="-1.83199">
        <ele>4.62</ele>
        <time>2020-06-20T10:00:36Z</time>
      </trkpt>
      <trkpt lat="46.99223" lon="-1.8318">
        <ele>4.55</ele>
        <time>2020-06-20T10:00:38Z</time>
      </trkpt>
      <trkpt lat="46.99227" lon="-1.83161">
        <ele>4.81</ele>
        <time>2020-06-20T10:00:40Z</time>
      </trkpt>
      <trkpt lat="46.99231" lon="-1.83144">
        <ele>4.39</ele>
        <time>2020-06-20T10:00:42Z</time>
      </trkpt>
      <trkpt lat="46.99235" lon="-1.83126">
        <ele>4.67</ele>
        <time>2020-06-20T10:00:44Z</time>
      </trkpt>
      <trkpt lat="46.99239" lon="-1.83108">
        <ele>4.83</ele>
        <time>2020-06-20T10:00:46Z</time>
      </trkpt>
      <trkpt lat="46.99243" lon="-1.8309">
        <ele>4.78</ele>
        <time>2020-06-20T10:00:48Z</time>
      </trkpt>
      <trkpt lat="46.99247" lon="-1.83073">
        <ele>5.32</ele>
        <time>2020-06-20T10:00:50Z</time>
      </trkpt>
      <trkpt lat="46.99251" lon="-1.83054">
        <ele>4.71</ele>
        <time>2020-06-20T10:00:52Z</time>
      </trkpt>
      <trkpt lat="46.99254" lon="-1.83035">
        <ele>4.21</ele>
        <time>2020-06-20T10:00:54Z</time>
      </trkpt>
      <trkpt lat="46.99259" lon="-1.83017">
        <ele>4.23</ele>
        <time>2020-06-20T10:00:56Z</time>
      </trkpt>
      <trkpt lat="46.99262" lon="-1.83">
        <ele>5.35</ele>
        <time>2020-06-20T10:00:58Z</time>
      </trkpt>
      <trkpt lat="46.99266" lon="-1.82982">
        <ele>5.73</ele>
        <time>2020-06-20T10:01:00Z</time>
      </trkpt>
      <trkpt lat="46.9927" lon="-1.82966">
        <ele>5.71</ele>
        <time>2020-06-20T10:01:02Z</time>
      </trkpt>
      <trkpt lat="46.99274" lon="-1.82947">
        <ele>5.8</ele>
        <time>2020-06-20T10:01:04Z</time>
      </trkpt>
      <trkpt lat="46.99277" lon="-1.82929">
        <ele>6.12</ele>
        <time>2020-06-20T10:01:06Z</time>
      </trkpt>
      <trkpt lat="46.99283" lon="-1.82913">
        <ele>6.07</ele>
        <time>2020-06-20T10:01:08Z</time>
      </trkpt>
      <trkpt lat="46.99287" lon="-1.82896">
        <ele>6.33</ele>
        <time>2020-06-20T10:01:10Z</time>
      </trkpt>
      <trkpt lat="46.99292" lon="-1.82877">
        <ele>7.36</ele>
        <time>2020-06-20T10:01:12Z</time>
      </trkpt>
      <trkpt lat="46.99295" lon="-1.82858">
        <ele>7.1</ele>
        <time>2020-06-20T10:01:14Z</time>
      </trkpt>
      <trkpt lat="46.99298" lon="-1.82841">
        <ele>6.42</ele>
        <time>2020-06-20T10:01:16Z</time>
      </trkpt>
      <trkpt lat="46.99302" lon="-1.82823">
        <ele>5.69</ele>
        <time>2020-06-20T10:01:18Z</time>
      </trkpt>
      <trkpt lat="46.99305" lon="-1.82805">
        <ele>5.5</ele>
        <time>2020-06-20T10:01:20Z</time>
      </trkpt>
      <trkpt lat="46.99308" lon="-1.82787">
        <ele>4.45</ele>
        <time>2020-06-20T10:01:22Z</time>
      </trkpt>
      <trkpt lat="46.99312" lon="-1.82769">
        <ele>4.06</ele>
        <time>2020-06-20T10:01:24Z</time>
      </trkpt>
      <trkpt lat="46.99316" lon="-1.8275">
        <ele>4.75</ele>
        <time>2020-06-20T10:01:26Z</time>
      </trkpt>
      <trkpt lat="46.9932" lon="-1.82732">
        <ele>4.8</ele>
        <time>2020-06-20T10:01:28Z</time>
      </trkpt>
      <trkpt lat="46.99325" lon="-1.82713">
        <ele>5.3</ele>
        <time>2020-06-20T10:01:30Z</time>
      </trkpt>
      <trkpt lat="46.99329" lon="-1.82694">
        <ele>5.19</ele>
        <time>2020-06-20T10:01:32Z</time>
      </trkpt>
      <trkpt lat="46.99333" lon="-1.82676">
        <ele>4.53</ele>
        <time>2020-06-20T10:01:34Z</time>
      </trkpt>
      <trkpt lat="46.99337" lon="-1.82659">
        <ele>3.98</ele>
        <time>2020-06-20T10:01:36Z</time>
      </trkpt>
      <trkpt lat="46.99342" lon="-1.8264">
        <ele>5.15</ele>
        <time>2020-06-20T10:01:38Z</time>
      </trkpt>
      <trkpt lat="46.99348" lon="-1.82621">
        <ele>7.03</ele>
        <time>2020-06-20T10:01:40Z</time>
      </trkpt>
      <trkpt lat="46.99356" lon="-1.8261">
        <ele>7.99</ele>
        <time>2020-06-20T10:01:42Z</time>
      </trkpt>
      <trkpt lat="46.99363" lon="-1.82594">
        <ele>8.58</ele>
        <time>2020-06-20T10:01:44Z</time>
      </trkpt>
      <trkpt lat="46.99368" lon="-1.82576">
        <ele>8.26</ele>
        <time>2020-06-20T10:01:46Z</time>
      </trkpt>
      <trkpt lat="46.99368" lon="-1.8256">
        <ele>7.22</ele>
        <time>2020-06-20T10:01:48Z</time>
      </trkpt>
      <trkpt lat="46.99363" lon="-1.8254">
        <ele>6.84</ele>
        <time>2020-06-20T10:01:50Z</time>
      </trkpt>
      <trkpt lat="46.99359" lon="-1.82521">
        <ele>7.1</ele>
        <time>2020-06-20T10:01:52Z</time>
      </trkpt>
      <trkpt lat="46.99353" lon="-1.82501">
        <ele>7.32</ele>
        <time>2020-06-20T10:01:54Z</time>
      </trkpt>
      <trkpt lat="46.99347" lon="-1.82482">
        <ele>7.58</ele>
        <time>2020-06-20T10:01:56Z</time>
      </trkpt>
      <trkpt lat="46.99345" lon="-1.82464">
        <ele>8.19</ele>
        <time>2020-06-20T10:01:58Z</time>
      </trkpt>
      <trkpt lat="46.99339" lon="-1.82445">
        <ele>7.66</ele>
        <time>2020-06-20T10:02:00Z</time>
      </trkpt>
      <trkpt lat="46.99334" lon="-1.82428">
        <ele>6.77</ele>
        <time>2020-06-20T10:02:02Z</time>
      </trkpt>
      <trkpt lat="46.9933" lon="-1.8241">
        <ele>6.54</ele>
        <time>2020-06-20T10:02:04Z</time>
      </trkpt>
      <trkpt lat="46.99326" lon="-1.82393">
        <ele>6.6</ele>
        <time>2020-06-20T10:02:06Z</time>
      </trkpt>
      <trkpt lat="46.99322" lon="-1.82374">
        <ele>6.84</ele>
        <time>2020-06-20T10:02:08Z</time>
      </trkpt>
      <trkpt lat="46.9932" lon="-1.82353">
        <ele>7.31</ele>
        <time>2020-06-20T10:02:10Z</time>
      </trkpt>
      <trkpt lat="46.99318" lon="-1.82334">
        <ele>7.8</ele>
        <time>2020-06-20T10:02:12Z</time>
      </trkpt>
      <trkpt lat="46.99317" lon="-1.82321">
        <ele>7.84</ele>
        <time>2020-06-20T10:02:14Z</time>
      </trkpt>
      <trkpt lat="46.99315" lon="-1.82302">
        <ele>9</ele>
        <time>2020-06-20T10:02:16Z</time>
      </trkpt>
      <trkpt lat="46.99311" lon="-1.82283">
        <ele>10.6</ele>
        <time>2020-06-20T10:02:18Z</time>
      </trkpt>
      <trkpt lat="46.99304" lon="-1.82266">
        <ele>11.69</ele>
        <time>2020-06-20T10:02:20Z</time>
      </trkpt>
      <trkpt lat="46.99299" lon="-1.82251">
        <ele>11.26</ele>
        <time>2020-06-20T10:02:22Z</time>
      </trkpt>
      <trkpt lat="46.99294" lon="-1.82237">
        <ele>11.74</ele>
        <time>2020-06-20T10:02:24Z</time>
      </trkpt>
      <trkpt lat="46.99288" lon="-1.82218">
        <ele>11.5</ele>
        <time>2020-06-20T10:02:26Z</time>
      </trkpt>
      <trkpt lat="46.99286" lon="-1.82203">
        <ele>11.56</ele>
        <time>2020-06-20T10:02:28Z</time>
      </trkpt>
      <trkpt lat="46.99283" lon="-1.82181">
        <ele>11.02</ele>
        <time>2020-06-20T10:02:30Z</time>
      </trkpt>
      <trkpt lat="46.9928" lon="-1.8216">
        <ele>10.92</ele>
        <time>2020-06-20T10:02:32Z</time>
      </trkpt>
      <trkpt lat="46.99279" lon="-1.82141">
        <ele>11.37</ele>
        <time>2020-06-20T10:02:34Z</time>
      </trkpt>
      <trkpt lat="46.99276" lon="-1.82121">
        <ele>10.83</ele>
        <time>2020-06-20T10:02:36Z</time>
      </trkpt>
      <trkpt lat="46.99275" lon="-1.82105">
        <ele>10.92</ele>
        <time>2020-06-20T10:02:38Z</time>
      </trkpt>
      <trkpt lat="46.99274" lon="-1.82087">
        <ele>11.76</ele>
        <time>2020-06-20T10:02:40Z</time>
      </trkpt>
      <trkpt lat="46.99273" lon="-1.8207">
        <ele>12.12</ele>
        <time>2020-06-20T10:02:42Z</time>
      </trkpt>
      <trkpt lat="46.99272" lon="-1.82051">
        <ele>13.04</ele>
        <time>2020-06-20T10:02:44Z</time>
      </trkpt>
      <trkpt lat="46.99267" lon="-1.82031">
        <ele>12.92</ele>
        <time>2020-06-20T10:02:46Z</time>
      </trkpt>
      <trkpt lat="46.99258" lon="-1.82011">
        <ele>11.74</ele>
        <time>2020-06-20T10:02:48Z</time>
      </trkpt>
      <trkpt lat="46.99254" lon="-1.81993">
        <ele>11.2</ele>
        <time>2020-06-20T10:02:50Z</time>
      </trkpt>
      <trkpt lat="46.99252" lon="-1.81978">
        <ele>11.05</ele>
        <time>2020-06-20T10:02:52Z</time>
      </trkpt>
      <trkpt lat="46.99249" lon="-1.81965">
        <ele>10.23</ele>
        <time>2020-06-20T10:02:54Z</time>
      </trkpt>
      <trkpt lat="46.99247" lon="-1.81947">
        <ele>9.04</ele>
        <time>2020-06-20T10:02:56Z</time>
      </trkpt>
      <trkpt lat="46.99245" lon="-1.81931">
        <ele>9.45</ele>
        <time>2020-06-20T10:02:58Z</time>
      </trkpt>
      <trkpt lat="46.99243" lon="-1.81917">
        <ele>10.29</ele>
        <time>2020-06-20T10:03:00Z</time>
      </trkpt>
      <trkpt lat="46.9924" lon="-1.81904">
        <ele>10.61</ele>
        <time>2020-06-20T10:03:02Z</time>
      </trkpt>
      <trkpt lat="46.99234" lon="-1.81886">
        <ele>11.17</ele>
        <time>2020-06-20T10:03:04Z</time>
      </trkpt>
      <trkpt lat="46.99226" lon="-1.81872">
        <ele>12.32</ele>
        <time>2020-06-20T10:03:06Z</time>
      </trkpt>
      <trkpt lat="46.99228" lon="-1.81853">
        <ele>13.16</ele>
        <time>2020-06-20T10:03:10Z</time>
      </trkpt>
      <trkpt lat="46.99234" lon="-1.81838">
        <ele>12.63</ele>
        <time>2020-06-20T10:03:12Z</time>
      </trkpt>
      <trkpt lat="46.99241" lon="-1.81821">
        <ele>12.67</ele>
        <time>2020-06-20T10:03:15Z</time>
      </trkpt>
      <trkpt lat="46.99248" lon="-1.8181">
        <ele>13.59</ele>
        <time>2020-06-20T10:03:19Z</time>
      </trkpt>
      <trkpt lat="46.99256" lon="-1.81795">
        <ele>15.28</ele>
        <time>2020-06-20T10:03:25Z</time>
      </trkpt>
      <trkpt lat="46.99255" lon="-1.81781">
        <ele>17.41</ele>
        <time>2020-06-20T10:03:29Z</time>
      </trkpt>
      <trkpt lat="46.99247" lon="-1.81769">
        <ele>20.66</ele>
        <time>2020-06-20T10:03:31Z</time>
      </trkpt>
      <trkpt lat="46.99238" lon="-1.81755">
        <ele>21.43</ele>
        <time>2020-06-20T10:03:33Z</time>
      </trkpt>
      <trkpt lat="46.9923" lon="-1.81744">
        <ele>20.88</ele>
        <time>2020-06-20T10:03:35Z</time>
      </trkpt>
      <trkpt lat="46.9922" lon="-1.81732">
        <ele>20.77</ele>
        <time>2020-06-20T10:03:38Z</time>
      </trkpt>
      <trkpt lat="46.99213" lon="-1.81724">
        <ele>20.58</ele>
        <time>2020-06-20T10:03:40Z</time>
      </trkpt>
      <trkpt lat="46.99205" lon="-1.81714">
        <ele>19.96</ele>
        <time>2020-06-20T10:03:43Z</time>
      </trkpt>
      <trkpt lat="46.99212" lon="-1.81701">
        <ele>15.91</ele>
        <time>2020-06-20T10:03:48Z</time>
      </trkpt>
      <trkpt lat="46.99225" lon="-1.81692">
        <ele>13.28</ele>
        <time>2020-06-20T10:03:50Z</time>
      </trkpt>
      <trkpt lat="46.99232" lon="-1.8168">
        <ele>11.34</ele>
        <time>2020-06-20T10:03:52Z</time>
      </trkpt>
      <trkpt lat="46.99239" lon="-1.8167">
        <ele>10.7</ele>
        <time>2020-06-20T10:03:54Z</time>
      </trkpt>
      <trkpt lat="46.99248" lon="-1.81656">
        <ele>10.4</ele>
        <time>2020-06-20T10:03:57Z</time>
      </trkpt>
      <trkpt lat="46.99257" lon="-1.81651">
        <ele>10.18</ele>
        <time>2020-06-20T10:04:01Z</time>
      </trkpt>
      <trkpt lat="46.99267" lon="-1.81651">
        <ele>10.05</ele>
        <time>2020-06-20T10:04:04Z</time>
      </trkpt>
      <trkpt lat="46.99266" lon="-1.81637">
        <ele>9.95</ele>
        <time>2020-06-20T10:04:07Z</time>
      </trkpt>
      <trkpt lat="46.99262" lon="-1.81623">
        <ele>9.27</ele>
        <time>2020-06-20T10:04:09Z</time>
      </trkpt>
      <trkpt lat="46.9926" lon="-1.81609">
        <ele>8.4</ele>
        <time>2020-06-20T10:04:11Z</time>
      </trkpt>
      <trkpt lat="46.99263" lon="-1.81594">
        <ele>7.5</ele>
        <time>2020-06-20T10:04:13Z</time>
      </trkpt>
      <trkpt lat="46.99262" lon="-1.81579">
        <ele>7.81</ele>
        <time>2020-06-20T10:04:15Z</time>
      </trkpt>
      <trkpt lat="46.99259" lon="-1.81564">
        <ele>7.19</ele>
        <time>2020-06-20T10:04:17Z</time>
      </trkpt>
      <trkpt lat="46.99255" lon="-1.81546">
        <ele>7.75</ele>
        <time>2020-06-20T10:04:19Z</time>
      </trkpt>
      <trkpt lat="46.99252" lon="-1.81526">
        <ele>6.15</ele>
        <time>2020-06-20T10:04:21Z</time>
      </trkpt>
      <trkpt lat="46.99249" lon="-1.81507">
        <ele>6.22</ele>
        <time>2020-06-20T10:04:23Z</time>
      </trkpt>
      <trkpt lat="46.99247" lon="-1.81489">
        <ele>7.14</ele>
        <time>2020-06-20T10:04:25Z</time>
      </trkpt>
      <trkpt lat="46.99243" lon="-1.81476">
        <ele>5.99</ele>
        <time>2020-06-20T10:04:27Z</time>
      </trkpt>
      <trkpt lat="46.99242" lon="-1.81457">
        <ele>5.77</ele>
        <time>2020-06-20T10:04:29Z</time>
      </trkpt>
      <trkpt lat="46.99242" lon="-1.81436">
        <ele>4.22</ele>
        <time>2020-06-20T10:04:31Z</time>
      </trkpt>
      <trkpt lat="46.99239" lon="-1.81414">
        <ele>2.26</ele>
        <time>2020-06-20T10:04:33Z</time>
      </trkpt>
      <trkpt lat="46.99235" lon="-1.81394">
        <ele>0.56</ele>
        <time>2020-06-20T10:04:35Z</time>
      </trkpt>
      <trkpt lat="46.99231" lon="-1.81376">
        <ele>0.02</ele>
        <time>2020-06-20T10:04:37Z</time>
      </trkpt>
      <trkpt lat="46.99228" lon="-1.81356">
        <ele>-0.45</ele>
        <time>2020-06-20T10:04:39Z</time>
      </trkpt>
      <trkpt lat="46.99224" lon="-1.81333">
        <ele>-0.59</ele>
        <time>2020-06-20T10:04:41Z</time>
      </trkpt>
      <trkpt lat="46.99221" lon="-1.81314">
        <ele>0.81</ele>
        <time>2020-06-20T10:04:43Z</time>
      </trkpt>
      <trkpt lat="46.99218" lon="-1.81295">
        <ele>0.78</ele>
        <time>2020-06-20T10:04:45Z</time>
      </trkpt>
      <trkpt lat="46.99216" lon="-1.81277">
        <ele>0.07</ele>
        <time>2020-06-20T10:04:47Z</time>
      </trkpt>
      <trkpt lat="46.99214" lon="-1.81257">
        <ele>1.42</ele>
        <time>2020-06-20T10:04:49Z</time>
      </trkpt>
      <trkpt lat="46.99212" lon="-1.81237">
        <ele>2.21</ele>
        <time>2020-06-20T10:04:51Z</time>
      </trkpt>
      <trkpt lat="46.99209" lon="-1.81218">
        <ele>1.61</ele>
        <time>2020-06-20T10:04:53Z</time>
      </trkpt>
      <trkpt lat="46.99207" lon="-1.81196">
        <ele>0.86</ele>
        <time>2020-06-20T10:04:55Z</time>
      </trkpt>
      <trkpt lat="46.99204" lon="-1.81171">
        <ele>2.66</ele>
        <time>2020-06-20T10:04:57Z</time>
      </trkpt>
      <trkpt lat="46.99199" lon="-1.81148">
        <ele>4.14</ele>
        <time>2020-06-20T10:04:59Z</time>
      </trkpt>
      <trkpt lat="46.99194" lon="-1.81126">
        <ele>4.92</ele>
        <time>2020-06-20T10:05:01Z</time>
      </trkpt>
      <trkpt lat="46.99191" lon="-1.81105">
        <ele>5.8</ele>
        <time>2020-06-20T10:05:03Z</time>
      </trkpt>
      <trkpt lat="46.99189" lon="-1.81085">
        <ele>6.5</ele>
        <time>2020-06-20T10:05:05Z</time>
      </trkpt>
      <trkpt lat="46.99186" lon="-1.81066">
        <ele>6.97</ele>
        <time>2020-06-20T10:05:07Z</time>
      </trkpt>
      <trkpt lat="46.99183" lon="-1.81047">
        <ele>7.16</ele>
        <time>2020-06-20T10:05:09Z</time>
      </trkpt>
      <trkpt lat="46.99181" lon="-1.81027">
        <ele>6.79</ele>
        <time>2020-06-20T10:05:11Z</time>
      </trkpt>
      <trkpt lat="46.99179" lon="-1.81009">
        <ele>7</ele>
        <time>2020-06-20T10:05:13Z</time>
      </trkpt>
      <trkpt lat="46.99176" lon="-1.80991">
        <ele>7.61</ele>
        <time>2020-06-20T10:05:15Z</time>
      </trkpt>
      <trkpt lat="46.99173" lon="-1.80973">
        <ele>9.1</ele>
        <time>2020-06-20T10:05:17Z</time>
      </trkpt>
      <trkpt lat="46.9917" lon="-1.80953">
        <ele>9.61</ele>
        <time>2020-06-20T10:05:19Z</time>
      </trkpt>
      <trkpt lat="46.99168" lon="-1.80937">
        <ele>7.57</ele>
        <time>2020-06-20T10:05:21Z</time>
      </trkpt>
      <trkpt lat="46.99166" lon="-1.80919">
        <ele>6.32</ele>
        <time>2020-06-20T10:05:23Z</time>
      </trkpt>
      <trkpt lat="46.99169" lon="-1.80903">
        <ele>5.34</ele>
        <time>2020-06-20T10:05:25Z</time>
      </trkpt>
      <trkpt lat="46.99179" lon="-1.80891">
        <ele>5.48</ele>
        <time>2020-06-20T10:05:27Z</time>
      </trkpt>
      <trkpt lat="46.99189" lon="-1.80882">
        <ele>5.78</ele>
        <time>2020-06-20T10:05:29Z</time>
      </trkpt>
      <trkpt lat="46.992" lon="-1.80874">
        <ele>6.26</ele>
        <time>2020-06-20T10:05:31Z</time>
      </trkpt>
      <trkpt lat="46.99213" lon="-1.80866">
        <ele>5.57</ele>
        <time>2020-06-20T10:05:33Z</time>
      </trkpt>
      <trkpt lat="46.99225" lon="-1.80856">
        <ele>4.23</ele>
        <time>2020-06-20T10:05:35Z</time>
      </trkpt>
      <trkpt lat="46.99237" lon="-1.80848">
        <ele>3.55</ele>
        <time>2020-06-20T10:05:37Z</time>
      </trkpt>
      <trkpt lat="46.9925" lon="-1.8084">
        <ele>3.76</ele>
        <time>2020-06-20T10:05:39Z</time>
      </trkpt>
      <trkpt lat="46.99263" lon="-1.80832">
        <ele>3.61</ele>
        <time>2020-06-20T10:05:41Z</time>
      </trkpt>
      <trkpt lat="46.99276" lon="-1.80824">
        <ele>4.72</ele>
        <time>2020-06-20T10:05:43Z</time>
      </trkpt>
      <trkpt lat="46.99286" lon="-1.80818">
        <ele>5.52</ele>
        <time>2020-06-20T10:05:45Z</time>
      </trkpt>
      <trkpt lat="46.99297" lon="-1.80812">
        <ele>6.5</ele>
        <time>2020-06-20T10:05:47Z</time>
      </trkpt>
      <trkpt lat="46.9931" lon="-1.80804">
        <ele>6.83</ele>
        <time>2020-06-20T10:05:49Z</time>
      </trkpt>
      <trkpt lat="46.99322" lon="-1.80796">
        <ele>6.73</ele>
        <time>2020-06-20T10:05:51Z</time>
      </trkpt>
      <trkpt lat="46.99332" lon="-1.80789">
        <ele>6.34</ele>
        <time>2020-06-20T10:05:53Z</time>
      </trkpt>
      <trkpt lat="46.99344" lon="-1.80782">
        <ele>5.82</ele>
        <time>2020-06-20T10:05:55Z</time>
      </trkpt>
      <trkpt lat="46.99355" lon="-1.80775">
        <ele>6.31</ele>
        <time>2020-06-20T10:05:57Z</time>
      </trkpt>
      <trkpt lat="46.99365" lon="-1.80768">
        <ele>6.01</ele>
        <time>2020-06-20T10:05:59Z</time>
      </trkpt>
      <trkpt lat="46.99379" lon="-1.80759">
        <ele>4.36</ele>
        <time>2020-06-20T10:06:01Z</time>
      </trkpt>
      <trkpt lat="46.9939" lon="-1.8075">
        <ele>4.71</ele>
        <time>2020-06-20T10:06:03Z</time>
      </trkpt>
      <trkpt lat="46.99403" lon="-1.80742">
        <ele>5.35</ele>
        <time>2020-06-20T10:06:05Z</time>
      </trkpt>
      <trkpt lat="46.99414" lon="-1.80735">
        <ele>6.05</ele>
        <time>2020-06-20T10:06:07Z</time>
      </trkpt>
      <trkpt lat="46.99427" lon="-1.80728">
        <ele>5.72</ele>
        <time>2020-06-20T10:06:09Z</time>
      </trkpt>
      <trkpt lat="46.99438" lon="-1.80722">
        <ele>4.76</ele>
        <time>2020-06-20T10:06:11Z</time>
      </trkpt>
      <trkpt lat="46.9945" lon="-1.80714">
        <ele>4.39</ele>
        <time>2020-06-20T10:06:13Z</time>
      </trkpt>
      <trkpt lat="46.99461" lon="-1.80706">
        <ele>5.41</ele>
        <time>2020-06-20T10:06:15Z</time>
      </trkpt>
      <trkpt lat="46.99472" lon="-1.80698">
        <ele>5.36</ele>
        <time>2020-06-20T10:06:17Z</time>
      </trkpt>
      <trkpt lat="46.99475" lon="-1.80684">
        <ele>4.92</ele>
        <time>2020-06-20T10:06:27Z</time>
      </trkpt>
      <trkpt lat="46.99474" lon="-1.8067">
        <ele>5.25</ele>
        <time>2020-06-20T10:06:29Z</time>
      </trkpt>
      <trkpt lat="46.99484" lon="-1.80659">
        <ele>5.29</ele>
        <time>2020-06-20T10:06:31Z</time>
      </trkpt>
      <trkpt lat="46.99494" lon="-1.80657">
        <ele>5.47</ele>
        <time>2020-06-20T10:06:32Z</time>
      </trkpt>
      <trkpt lat="46.9951" lon="-1.80652">
        <ele>5.13</ele>
        <time>2020-06-20T10:06:34Z</time>
      </trkpt>
      <trkpt lat="46.99523" lon="-1.80642">
        <ele>4.82</ele>
        <time>2020-06-20T10:06:36Z</time>
      </trkpt>
      <trkpt lat="46.99531" lon="-1.80635">
        <ele>4.83</ele>
        <time>2020-06-20T10:06:37Z</time>
      </trkpt>
      <trkpt lat="46.99544" lon="-1.80622">
        <ele>4.8</ele>
        <time>2020-06-20T10:06:39Z</time>
      </trkpt>
      <trkpt lat="46.99555" lon="-1.80609">
        <ele>5</ele>
        <time>2020-06-20T10:06:41Z</time>
      </trkpt>
      <trkpt lat="46.99567" lon="-1.80595">
        <ele>4.84</ele>
        <time>2020-06-20T10:06:43Z</time>
      </trkpt>
      <trkpt lat="46.99577" lon="-1.80582">
        <ele>4.97</ele>
        <time>2020-06-20T10:06:45Z</time>
      </trkpt>
      <trkpt lat="46.99589" lon="-1.80568">
        <ele>4.87</ele>
        <time>2020-06-20T10:06:47Z</time>
      </trkpt>
      <trkpt lat="46.99597" lon="-1.80556">
        <ele>5.16</ele>
        <time>2020-06-20T10:06:49Z</time>
      </trkpt>
      <trkpt lat="46.99606" lon="-1.80543">
        <ele>4.64</ele>
        <time>2020-06-20T10:06:51Z</time>
      </trkpt>
      <trkpt lat="46.99616" lon="-1.8053">
        <ele>3.92</ele>
        <time>2020-06-20T10:06:53Z</time>
      </trkpt>
      <trkpt lat="46.99626" lon="-1.80518">
        <ele>4.33</ele>
        <time>2020-06-20T10:06:55Z</time>
      </trkpt>
      <trkpt lat="46.99636" lon="-1.80505">
        <ele>4.87</ele>
        <time>2020-06-20T10:06:57Z</time>
      </trkpt>
      <trkpt lat="46.99645" lon="-1.80492">
        <ele>4.89</ele>
        <time>2020-06-20T10:06:59Z</time>
      </trkpt>
      <trkpt lat="46.99654" lon="-1.8048">
        <ele>4.54</ele>
        <time>2020-06-20T10:07:01Z</time>
      </trkpt>
      <trkpt lat="46.99666" lon="-1.80466">
        <ele>5.03</ele>
        <time>2020-06-20T10:07:03Z</time>
      </trkpt>
      <trkpt lat="46.99676" lon="-1.80453">
        <ele>4.75</ele>
        <time>2020-06-20T10:07:05Z</time>
      </trkpt>
      <trkpt lat="46.99684" lon="-1.80443">
        <ele>5.06</ele>
        <time>2020-06-20T10:07:07Z</time>
      </trkpt>
      <trkpt lat="46.99695" lon="-1.8043">
        <ele>5.46</ele>
        <time>2020-06-20T10:07:09Z</time>
      </trkpt>
      <trkpt lat="46.99704" lon="-1.80418">
        <ele>5.53</ele>
        <time>2020-06-20T10:07:11Z</time>
      </trkpt>
      <trkpt lat="46.99713" lon="-1.80404">
        <ele>5.25</ele>
        <time>2020-06-20T10:07:13Z</time>
      </trkpt>
      <trkpt lat="46.99722" lon="-1.80393">
        <ele>5.34</ele>
        <time>2020-06-20T10:07:15Z</time>
      </trkpt>
      <trkpt lat="46.99731" lon="-1.80381">
        <ele>6.1</ele>
        <time>2020-06-20T10:07:17Z</time>
      </trkpt>
      <trkpt lat="46.99741" lon="-1.80369">
        <ele>6.51</ele>
        <time>2020-06-20T10:07:19Z</time>
      </trkpt>
      <trkpt lat="46.99749" lon="-1.80359">
        <ele>6.09</ele>
        <time>2020-06-20T10:07:21Z</time>
      </trkpt>
      <trkpt lat="46.99759" lon="-1.80347">
        <ele>5.44</ele>
        <time>2020-06-20T10:07:23Z</time>
      </trkpt>
      <trkpt lat="46.99768" lon="-1.80336">
        <ele>5.63</ele>
        <time>2020-06-20T10:07:25Z</time>
      </trkpt>
      <trkpt lat="46.99778" lon="-1.80323">
        <ele>6.26</ele>
        <time>2020-06-20T10:07:27Z</time>
      </trkpt>
      <trkpt lat="46.99786" lon="-1.80314">
        <ele>6.44</ele>
        <time>2020-06-20T10:07:29Z</time>
      </trkpt>
      <trkpt lat="46.99796" lon="-1.803">
        <ele>6.58</ele>
        <time>2020-06-20T10:07:31Z</time>
      </trkpt>
      <trkpt lat="46.99805" lon="-1.80289">
        <ele>6.58</ele>
        <time>2020-06-20T10:07:33Z</time>
      </trkpt>
      <trkpt lat="46.99812" lon="-1.80279">
        <ele>5.59</ele>
        <time>2020-06-20T10:07:35Z</time>
      </trkpt>
      <trkpt lat="46.99822" lon="-1.80265">
        <ele>5.13</ele>
        <time>2020-06-20T10:07:37Z</time>
      </trkpt>
      <trkpt lat="46.99832" lon="-1.80253">
        <ele>5.96</ele>
        <time>2020-06-20T10:07:39Z</time>
      </trkpt>
      <trkpt lat="46.99841" lon="-1.80239">
        <ele>7.05</ele>
        <time>2020-06-20T10:07:41Z</time>
      </trkpt>
      <trkpt lat="46.99848" lon="-1.80227">
        <ele>6.97</ele>
        <time>2020-06-20T10:07:43Z</time>
      </trkpt>
      <trkpt lat="46.99856" lon="-1.80214">
        <ele>6.24</ele>
        <time>2020-06-20T10:07:45Z</time>
      </trkpt>
      <trkpt lat="46.99864" lon="-1.802">
        <ele>5.79</ele>
        <time>2020-06-20T10:07:47Z</time>
      </trkpt>
      <trkpt lat="46.99871" lon="-1.80184">
        <ele>5.24</ele>
        <time>2020-06-20T10:07:49Z</time>
      </trkpt>
      <trkpt lat="46.99878" lon="-1.8017">
        <ele>5.2</ele>
        <time>2020-06-20T10:07:51Z</time>
      </trkpt>
      <trkpt lat="46.99885" lon="-1.80155">
        <ele>4.69</ele>
        <time>2020-06-20T10:07:53Z</time>
      </trkpt>
      <trkpt lat="46.99892" lon="-1.80141">
        <ele>4.5</ele>
        <time>2020-06-20T10:07:55Z</time>
      </trkpt>
      <trkpt lat="46.99899" lon="-1.80125">
        <ele>4.42</ele>
        <time>2020-06-20T10:07:57Z</time>
      </trkpt>
      <trkpt lat="46.99906" lon="-1.80111">
        <ele>5.53</ele>
        <time>2020-06-20T10:07:59Z</time>
      </trkpt>
      <trkpt lat="46.99913" lon="-1.80096">
        <ele>6.26</ele>
        <time>2020-06-20T10:08:01Z</time>
      </trkpt>
      <trkpt lat="46.99919" lon="-1.80082">
        <ele>5.97</ele>
        <time>2020-06-20T10:08:03Z</time>
      </trkpt>
      <trkpt lat="46.99926" lon="-1.80067">
        <ele>6.48</ele>
        <time>2020-06-20T10:08:05Z</time>
      </trkpt>
      <trkpt lat="46.99934" lon="-1.80051">
        <ele>6.21</ele>
        <time>2020-06-20T10:08:07Z</time>
      </trkpt>
      <trkpt lat="46.99942" lon="-1.80037">
        <ele>6.48</ele>
        <time>2020-06-20T10:08:09Z</time>
      </trkpt>
      <trkpt lat="46.99949" lon="-1.80022">
        <ele>6.14</ele>
        <time>2020-06-20T10:08:11Z</time>
      </trkpt>
      <trkpt lat="46.99957" lon="-1.80011">
        <ele>6.27</ele>
        <time>2020-06-20T10:08:13Z</time>
      </trkpt>
      <trkpt lat="46.99964" lon="-1.79999">
        <ele>6.67</ele>
        <time>2020-06-20T10:08:15Z</time>
      </trkpt>
      <trkpt lat="46.99973" lon="-1.79988">
        <ele>6.73</ele>
        <time>2020-06-20T10:08:17Z</time>
      </trkpt>
      <trkpt lat="46.99983" lon="-1.79979">
        <ele>5.88</ele>
        <time>2020-06-20T10:08:19Z</time>
      </trkpt>
      <trkpt lat="46.99994" lon="-1.79969">
        <ele>4.88</ele>
        <time>2020-06-20T10:08:21Z</time>
      </trkpt>
      <trkpt lat="47.00006" lon="-1.79961">
        <ele>5.44</ele>
        <time>2020-06-20T10:08:23Z</time>
      </trkpt>
      <trkpt lat="47.00017" lon="-1.79953">
        <ele>4.91</ele>
        <time>2020-06-20T10:08:25Z</time>
      </trkpt>
      <trkpt lat="47.00029" lon="-1.79944">
        <ele>5.32</ele>
        <time>2020-06-20T10:08:27Z</time>
      </trkpt>
      <trkpt lat="47.00039" lon="-1.79937">
        <ele>5.66</ele>
        <time>2020-06-20T10:08:29Z</time>
      </trkpt>
      <trkpt lat="47.0005" lon="-1.7993">
        <ele>5.63</ele>
        <time>2020-06-20T10:08:31Z</time>
      </trkpt>
      <trkpt lat="47.00061" lon="-1.79921">
        <ele>6.06</ele>
        <time>2020-06-20T10:08:33Z</time>
      </trkpt>
      <trkpt lat="47.00073" lon="-1.79913">
        <ele>7.01</ele>
        <time>2020-06-20T10:08:35Z</time>
      </trkpt>
      <trkpt lat="47.00085" lon="-1.79904">
        <ele>5.99</ele>
        <time>2020-06-20T10:08:37Z</time>
      </trkpt>
      <trkpt lat="47.00096" lon="-1.79895">
        <ele>6.62</ele>
        <time>2020-06-20T10:08:39Z</time>
      </trkpt>
      <trkpt lat="47.00106" lon="-1.79885">
        <ele>7.55</ele>
        <time>2020-06-20T10:08:41Z</time>
      </trkpt>
      <trkpt lat="47.00117" lon="-1.79872">
        <ele>7.43</ele>
        <time>2020-06-20T10:08:43Z</time>
      </trkpt>
      <trkpt lat="47.00128" lon="-1.79858">
        <ele>6.86</ele>
        <time>2020-06-20T10:08:45Z</time>
      </trkpt>
      <trkpt lat="47.00135" lon="-1.79846">
        <ele>5.72</ele>
        <time>2020-06-20T10:08:47Z</time>
      </trkpt>
      <trkpt lat="47.00141" lon="-1.7983">
        <ele>5.24</ele>
        <time>2020-06-20T10:08:49Z</time>
      </trkpt>
      <trkpt lat="47.00147" lon="-1.79814">
        <ele>5.36</ele>
        <time>2020-06-20T10:08:51Z</time>
      </trkpt>
      <trkpt lat="47.00152" lon="-1.79797">
        <ele>6.01</ele>
        <time>2020-06-20T10:08:54Z</time>
      </trkpt>
      <trkpt lat="47.00158" lon="-1.7978">
        <ele>6.07</ele>
        <time>2020-06-20T10:08:56Z</time>
      </trkpt>
      <trkpt lat="47.00163" lon="-1.79763">
        <ele>6.96</ele>
        <time>2020-06-20T10:08:58Z</time>
      </trkpt>
      <trkpt lat="47.00168" lon="-1.79746">
        <ele>6.44</ele>
        <time>2020-06-20T10:09:00Z</time>
      </trkpt>
      <trkpt lat="47.00173" lon="-1.79727">
        <ele>7.12</ele>
        <time>2020-06-20T10:09:02Z</time>
      </trkpt>
      <trkpt lat="47.00178" lon="-1.7971">
        <ele>6.65</ele>
        <time>2020-06-20T10:09:04Z</time>
      </trkpt>
      <trkpt lat="47.00182" lon="-1.79695">
        <ele>5.92</ele>
        <time>2020-06-20T10:09:06Z</time>
      </trkpt>
      <trkpt lat="47.00187" lon="-1.79678">
        <ele>6.15</ele>
        <time>2020-06-20T10:09:08Z</time>
      </trkpt>
      <trkpt lat="47.00192" lon="-1.79659">
        <ele>6.15</ele>
        <time>2020-06-20T10:09:10Z</time>
      </trkpt>
      <trkpt lat="47.00199" lon="-1.79641">
        <ele>6.18</ele>
        <time>2020-06-20T10:09:12Z</time>
      </trkpt>
      <trkpt lat="47.00205" lon="-1.79625">
        <ele>5.9</ele>
        <time>2020-06-20T10:09:14Z</time>
      </trkpt>
      <trkpt lat="47.0021" lon="-1.79606">
        <ele>5.68</ele>
        <time>2020-06-20T10:09:16Z</time>
      </trkpt>
      <trkpt lat="47.00215" lon="-1.79589">
        <ele>6.09</ele>
        <time>2020-06-20T10:09:18Z</time>
      </trkpt>
      <trkpt lat="47.00219" lon="-1.79572">
        <ele>6.22</ele>
        <time>2020-06-20T10:09:20Z</time>
      </trkpt>
      <trkpt lat="47.00224" lon="-1.79555">
        <ele>5.95</ele>
        <time>2020-06-20T10:09:22Z</time>
      </trkpt>
      <trkpt lat="47.00229" lon="-1.79537">
        <ele>5.54</ele>
        <time>2020-06-20T10:09:24Z</time>
      </trkpt>
      <trkpt lat="47.00234" lon="-1.79519">
        <ele>5.23</ele>
        <time>2020-06-20T10:09:26Z</time>
      </trkpt>
      <trkpt lat="47.00239" lon="-1.79503">
        <ele>5.94</ele>
        <time>2020-06-20T10:09:28Z</time>
      </trkpt>
      <trkpt lat="47.00244" lon="-1.79486">
        <ele>6.07</ele>
        <time>2020-06-20T10:09:30Z</time>
      </trkpt>
      <trkpt lat="47.00249" lon="-1.79469">
        <ele>5.79</ele>
        <time>2020-06-20T10:09:32Z</time>
      </trkpt>
      <trkpt lat="47.00255" lon="-1.7945">
        <ele>5.64</ele>
        <time>2020-06-20T10:09:34Z</time>
      </trkpt>
      <trkpt lat="47.0026" lon="-1.79434">
        <ele>5.72</ele>
        <time>2020-06-20T10:09:36Z</time>
      </trkpt>
      <trkpt lat="47.00265" lon="-1.79417">
        <ele>6.66</ele>
        <time>2020-06-20T10:09:38Z</time>
      </trkpt>
      <trkpt lat="47.0027" lon="-1.79401">
        <ele>7.24</ele>
        <time>2020-06-20T10:09:40Z</time>
      </trkpt>
      <trkpt lat="47.00275" lon="-1.79383">
        <ele>7.16</ele>
        <time>2020-06-20T10:09:42Z</time>
      </trkpt>
      <trkpt lat="47.00279" lon="-1.79365">
        <ele>7.72</ele>
        <time>2020-06-20T10:09:44Z</time>
      </trkpt>
      <trkpt lat="47.00283" lon="-1.79348">
        <ele>7.88</ele>
        <time>2020-06-20T10:09:46Z</time>
      </trkpt>
      <trkpt lat="47.00287" lon="-1.79331">
        <ele>8.13</ele>
        <time>2020-06-20T10:09:48Z</time>
      </trkpt>
      <trkpt lat="47.00289" lon="-1.79314">
        <ele>7.27</ele>
        <time>2020-06-20T10:09:50Z</time>
      </trkpt>
      <trkpt lat="47.00293" lon="-1.79295">
        <ele>6.98</ele>
        <time>2020-06-20T10:09:52Z</time>
      </trkpt>
      <trkpt lat="47.00295" lon="-1.79279">
        <ele>6.63</ele>
        <time>2020-06-20T10:09:54Z</time>
      </trkpt>
      <trkpt lat="47.00298" lon="-1.79259">
        <ele>6.15</ele>
        <time>2020-06-20T10:09:56Z</time>
      </trkpt>
      <trkpt lat="47.003" lon="-1.79242">
        <ele>5.54</ele>
        <time>2020-06-20T10:09:58Z</time>
      </trkpt>
      <trkpt lat="47.00303" lon="-1.79223">
        <ele>4.88</ele>
        <time>2020-06-20T10:10:00Z</time>
      </trkpt>
      <trkpt lat="47.00305" lon="-1.79207">
        <ele>4.76</ele>
        <time>2020-06-20T10:10:02Z</time>
      </trkpt>
      <trkpt lat="47.00308" lon="-1.79188">
        <ele>5.77</ele>
        <time>2020-06-20T10:10:04Z</time>
      </trkpt>
      <trkpt lat="47.00311" lon="-1.7917">
        <ele>6.32</ele>
        <time>2020-06-20T10:10:06Z</time>
      </trkpt>
      <trkpt lat="47.00316" lon="-1.79152">
        <ele>6.11</ele>
        <time>2020-06-20T10:10:08Z</time>
      </trkpt>
      <trkpt lat="47.0032" lon="-1.79134">
        <ele>5.25</ele>
        <time>2020-06-20T10:10:10Z</time>
      </trkpt>
      <trkpt lat="47.00325" lon="-1.79116">
        <ele>5.46</ele>
        <time>2020-06-20T10:10:12Z</time>
      </trkpt>
      <trkpt lat="47.00329" lon="-1.79099">
        <ele>5.34</ele>
        <time>2020-06-20T10:10:14Z</time>
      </trkpt>
      <trkpt lat="47.00334" lon="-1.79081">
        <ele>4.67</ele>
        <time>2020-06-20T10:10:16Z</time>
      </trkpt>
      <trkpt lat="47.00339" lon="-1.79065">
        <ele>5.23</ele>
        <time>2020-06-20T10:10:18Z</time>
      </trkpt>
      <trkpt lat="47.00344" lon="-1.79048">
        <ele>5.82</ele>
        <time>2020-06-20T10:10:20Z</time>
      </trkpt>
      <trkpt lat="47.0035" lon="-1.7903">
        <ele>5.61</ele>
        <time>2020-06-20T10:10:22Z</time>
      </trkpt>
      <trkpt lat="47.00354" lon="-1.79012">
        <ele>5.28</ele>
        <time>2020-06-20T10:10:24Z</time>
      </trkpt>
      <trkpt lat="47.00358" lon="-1.78994">
        <ele>3.83</ele>
        <time>2020-06-20T10:10:26Z</time>
      </trkpt>
      <trkpt lat="47.00362" lon="-1.78977">
        <ele>4.07</ele>
        <time>2020-06-20T10:10:28Z</time>
      </trkpt>
      <trkpt lat="47.00366" lon="-1.78958">
        <ele>3.92</ele>
        <time>2020-06-20T10:10:30Z</time>
      </trkpt>
      <trkpt lat="47.00371" lon="-1.7894">
        <ele>4.73</ele>
        <time>2020-06-20T10:10:32Z</time>
      </trkpt>
      <trkpt lat="47.00375" lon="-1.78924">
        <ele>5.37</ele>
        <time>2020-06-20T10:10:34Z</time>
      </trkpt>
      <trkpt lat="47.0038" lon="-1.78905">
        <ele>6.76</ele>
        <time>2020-06-20T10:10:36Z</time>
      </trkpt>
      <trkpt lat="47.00384" lon="-1.78885">
        <ele>7.22</ele>
        <time>2020-06-20T10:10:38Z</time>
      </trkpt>
      <trkpt lat="47.00388" lon="-1.78867">
        <ele>6.92</ele>
        <time>2020-06-20T10:10:40Z</time>
      </trkpt>
      <trkpt lat="47.00392" lon="-1.78849">
        <ele>6.72</ele>
        <time>2020-06-20T10:10:42Z</time>
      </trkpt>
      <trkpt lat="47.00395" lon="-1.78832">
        <ele>5.63</ele>
        <time>2020-06-20T10:10:44Z</time>
      </trkpt>
      <trkpt lat="47.00398" lon="-1.78811">
        <ele>5.75</ele>
        <time>2020-06-20T10:10:46Z</time>
      </trkpt>
      <trkpt lat="47.00401" lon="-1.78792">
        <ele>5.67</ele>
        <time>2020-06-20T10:10:48Z</time>
      </trkpt>
      <trkpt lat="47.00405" lon="-1.78773">
        <ele>4.94</ele>
        <time>2020-06-20T10:10:50Z</time>
      </trkpt>
      <trkpt lat="47.00407" lon="-1.78753">
        <ele>4.6</ele>
        <time>2020-06-20T10:10:52Z</time>
      </trkpt>
      <trkpt lat="47.0041" lon="-1.78736">
        <ele>4.63</ele>
        <time>2020-06-20T10:10:54Z</time>
      </trkpt>
      <trkpt lat="47.00413" lon="-1.78717">
        <ele>4.62</ele>
        <time>2020-06-20T10:10:56Z</time>
      </trkpt>
      <trkpt lat="47.00415" lon="-1.78695">
        <ele>4.44</ele>
        <time>2020-06-20T10:10:58Z</time>
      </trkpt>
      <trkpt lat="47.00417" lon="-1.78676">
        <ele>4.05</ele>
        <time>2020-06-20T10:11:00Z</time>
      </trkpt>
      <trkpt lat="47.0042" lon="-1.78657">
        <ele>4.08</ele>
        <time>2020-06-20T10:11:02Z</time>
      </trkpt>
      <trkpt lat="47.00423" lon="-1.78639">
        <ele>4.32</ele>
        <time>2020-06-20T10:11:04Z</time>
      </trkpt>
      <trkpt lat="47.00426" lon="-1.78621">
        <ele>5.19</ele>
        <time>2020-06-20T10:11:06Z</time>
      </trkpt>
      <trkpt lat="47.00428" lon="-1.78601">
        <ele>6.28</ele>
        <time>2020-06-20T10:11:08Z</time>
      </trkpt>
      <trkpt lat="47.00431" lon="-1.7858">
        <ele>5.29</ele>
        <time>2020-06-20T10:11:10Z</time>
      </trkpt>
      <trkpt lat="47.00432" lon="-1.78561">
        <ele>4.72</ele>
        <time>2020-06-20T10:11:12Z</time>
      </trkpt>
      <trkpt lat="47.00434" lon="-1.7854">
        <ele>4.8</ele>
        <time>2020-06-20T10:11:14Z</time>
      </trkpt>
      <trkpt lat="47.00437" lon="-1.78521">
        <ele>4.47</ele>
        <time>2020-06-20T10:11:16Z</time>
      </trkpt>
      <trkpt lat="47.0044" lon="-1.78501">
        <ele>5.02</ele>
        <time>2020-06-20T10:11:18Z</time>
      </trkpt>
      <trkpt lat="47.00443" lon="-1.78484">
        <ele>5.29</ele>
        <time>2020-06-20T10:11:20Z</time>
      </trkpt>
      <trkpt lat="47.00446" lon="-1.78465">
        <ele>4.13</ele>
        <time>2020-06-20T10:11:22Z</time>
      </trkpt>
      <trkpt lat="47.00449" lon="-1.78446">
        <ele>3.93</ele>
        <time>2020-06-20T10:11:24Z</time>
      </trkpt>
      <trkpt lat="47.00454" lon="-1.78427">
        <ele>3.93</ele>
        <time>2020-06-20T10:11:26Z</time>
      </trkpt>
      <trkpt lat="47.00458" lon="-1.78411">
        <ele>4.07</ele>
        <time>2020-06-20T10:11:28Z</time>
      </trkpt>
      <trkpt lat="47.00463" lon="-1.78392">
        <ele>4.12</ele>
        <time>2020-06-20T10:11:30Z</time>
      </trkpt>
      <trkpt lat="47.00467" lon="-1.78374">
        <ele>3.93</ele>
        <time>2020-06-20T10:11:32Z</time>
      </trkpt>
      <trkpt lat="47.00471" lon="-1.78356">
        <ele>3.04</ele>
        <time>2020-06-20T10:11:34Z</time>
      </trkpt>
      <trkpt lat="47.00475" lon="-1.78338">
        <ele>3.24</ele>
        <time>2020-06-20T10:11:36Z</time>
      </trkpt>
      <trkpt lat="47.0048" lon="-1.78318">
        <ele>3.31</ele>
        <time>2020-06-20T10:11:38Z</time>
      </trkpt>
      <trkpt lat="47.00486" lon="-1.783">
        <ele>3.31</ele>
        <time>2020-06-20T10:11:40Z</time>
      </trkpt>
      <trkpt lat="47.00491" lon="-1.78283">
        <ele>3.3</ele>
        <time>2020-06-20T10:11:42Z</time>
      </trkpt>
      <trkpt lat="47.00496" lon="-1.78263">
        <ele>3.55</ele>
        <time>2020-06-20T10:11:44Z</time>
      </trkpt>
      <trkpt lat="47.005" lon="-1.78244">
        <ele>2.59</ele>
        <time>2020-06-20T10:11:46Z</time>
      </trkpt>
      <trkpt lat="47.00504" lon="-1.78226">
        <ele>2.36</ele>
        <time>2020-06-20T10:11:48Z</time>
      </trkpt>
      <trkpt lat="47.00508" lon="-1.78209">
        <ele>2.9</ele>
        <time>2020-06-20T10:11:50Z</time>
      </trkpt>
      <trkpt lat="47.00512" lon="-1.78193">
        <ele>4.2</ele>
        <time>2020-06-20T10:11:52Z</time>
      </trkpt>
      <trkpt lat="47.00517" lon="-1.78175">
        <ele>4.94</ele>
        <time>2020-06-20T10:11:54Z</time>
      </trkpt>
      <trkpt lat="47.00521" lon="-1.78159">
        <ele>4.98</ele>
        <time>2020-06-20T10:11:56Z</time>
      </trkpt>
      <trkpt lat="47.00525" lon="-1.78142">
        <ele>5.58</ele>
        <time>2020-06-20T10:11:58Z</time>
      </trkpt>
      <trkpt lat="47.00529" lon="-1.78124">
        <ele>5.61</ele>
        <time>2020-06-20T10:12:00Z</time>
      </trkpt>
      <trkpt lat="47.00534" lon="-1.78105">
        <ele>4.48</ele>
        <time>2020-06-20T10:12:02Z</time>
      </trkpt>
      <trkpt lat="47.00538" lon="-1.78087">
        <ele>4.2</ele>
        <time>2020-06-20T10:12:04Z</time>
      </trkpt>
      <trkpt lat="47.00543" lon="-1.7807">
        <ele>4</ele>
        <time>2020-06-20T10:12:06Z</time>
      </trkpt>
      <trkpt lat="47.00547" lon="-1.78055">
        <ele>4.01</ele>
        <time>2020-06-20T10:12:08Z</time>
      </trkpt>
      <trkpt lat="47.00552" lon="-1.78034">
        <ele>3.81</ele>
        <time>2020-06-20T10:12:10Z</time>
      </trkpt>
      <trkpt lat="47.00556" lon="-1.78017">
        <ele>3.4</ele>
        <time>2020-06-20T10:12:12Z</time>
      </trkpt>
      <trkpt lat="47.00559" lon="-1.78">
        <ele>3.56</ele>
        <time>2020-06-20T10:12:14Z</time>
      </trkpt>
      <trkpt lat="47.00563" lon="-1.77982">
        <ele>3.93</ele>
        <time>2020-06-20T10:12:16Z</time>
      </trkpt>
      <trkpt lat="47.00567" lon="-1.77964">
        <ele>3.99</ele>
        <time>2020-06-20T10:12:18Z</time>
      </trkpt>
      <trkpt lat="47.00571" lon="-1.77946">
        <ele>4.35</ele>
        <time>2020-06-20T10:12:20Z</time>
      </trkpt>
      <trkpt lat="47.00576" lon="-1.77927">
        <ele>4.13</ele>
        <time>2020-06-20T10:12:22Z</time>
      </trkpt>
      <trkpt lat="47.00581" lon="-1.77912">
        <ele>4.41</ele>
        <time>2020-06-20T10:12:24Z</time>
      </trkpt>
      <trkpt lat="47.00585" lon="-1.77896">
        <ele>4.41</ele>
        <time>2020-06-20T10:12:26Z</time>
      </trkpt>
      <trkpt lat="47.0059" lon="-1.7788">
        <ele>4.39</ele>
        <time>2020-06-20T10:12:28Z</time>
      </trkpt>
      <trkpt lat="47.00594" lon="-1.77865">
        <ele>4.65</ele>
        <time>2020-06-20T10:12:30Z</time>
      </trkpt>
      <trkpt lat="47.00598" lon="-1.77845">
        <ele>4.16</ele>
        <time>2020-06-20T10:12:32Z</time>
      </trkpt>
      <trkpt lat="47.00603" lon="-1.7783">
        <ele>3.47</ele>
        <time>2020-06-20T10:12:34Z</time>
      </trkpt>
      <trkpt lat="47.00606" lon="-1.77817">
        <ele>3.17</ele>
        <time>2020-06-20T10:12:36Z</time>
      </trkpt>
      <trkpt lat="47.0061" lon="-1.77799">
        <ele>2.64</ele>
        <time>2020-06-20T10:12:38Z</time>
      </trkpt>
      <trkpt lat="47.00615" lon="-1.77779">
        <ele>3.14</ele>
        <time>2020-06-20T10:12:40Z</time>
      </trkpt>
      <trkpt lat="47.0062" lon="-1.77762">
        <ele>4.2</ele>
        <time>2020-06-20T10:12:42Z</time>
      </trkpt>
      <trkpt lat="47.00623" lon="-1.77747">
        <ele>5.09</ele>
        <time>2020-06-20T10:12:44Z</time>
      </trkpt>
      <trkpt lat="47.00628" lon="-1.77729">
        <ele>5.21</ele>
        <time>2020-06-20T10:12:46Z</time>
      </trkpt>
      <trkpt lat="47.00632" lon="-1.77715">
        <ele>4.84</ele>
        <time>2020-06-20T10:12:48Z</time>
      </trkpt>
      <trkpt lat="47.00636" lon="-1.77697">
        <ele>5.66</ele>
        <time>2020-06-20T10:12:50Z</time>
      </trkpt>
      <trkpt lat="47.00641" lon="-1.77678">
        <ele>6.2</ele>
        <time>2020-06-20T10:12:52Z</time>
      </trkpt>
      <trkpt lat="47.00644" lon="-1.77662">
        <ele>6.42</ele>
        <time>2020-06-20T10:12:54Z</time>
      </trkpt>
      <trkpt lat="47.00648" lon="-1.77647">
        <ele>6.23</ele>
        <time>2020-06-20T10:12:56Z</time>
      </trkpt>
      <trkpt lat="47.00653" lon="-1.77633">
        <ele>6.33</ele>
        <time>2020-06-20T10:12:58Z</time>
      </trkpt>
      <trkpt lat="47.00658" lon="-1.77617">
        <ele>6.14</ele>
        <time>2020-06-20T10:13:00Z</time>
      </trkpt>
      <trkpt lat="47.00663" lon="-1.77604">
        <ele>6.51</ele>
        <time>2020-06-20T10:13:02Z</time>
      </trkpt>
      <trkpt lat="47.00668" lon="-1.77588">
        <ele>8</ele>
        <time>2020-06-20T10:13:04Z</time>
      </trkpt>
      <trkpt lat="47.00672" lon="-1.77572">
        <ele>8.56</ele>
        <time>2020-06-20T10:13:06Z</time>
      </trkpt>
      <trkpt lat="47.00676" lon="-1.77556">
        <ele>9.29</ele>
        <time>2020-06-20T10:13:08Z</time>
      </trkpt>
      <trkpt lat="47.00678" lon="-1.77541">
        <ele>10.25</ele>
        <time>2020-06-20T10:13:10Z</time>
      </trkpt>
      <trkpt lat="47.00682" lon="-1.77528">
        <ele>9.65</ele>
        <time>2020-06-20T10:13:12Z</time>
      </trkpt>
      <trkpt lat="47.00686" lon="-1.77513">
        <ele>9.35</ele>
        <time>2020-06-20T10:13:14Z</time>
      </trkpt>
      <trkpt lat="47.0069" lon="-1.77498">
        <ele>8.86</ele>
        <time>2020-06-20T10:13:16Z</time>
      </trkpt>
      <trkpt lat="47.00694" lon="-1.77483">
        <ele>8.32</ele>
        <time>2020-06-20T10:13:18Z</time>
      </trkpt>
      <trkpt lat="47.00699" lon="-1.77471">
        <ele>8.18</ele>
        <time>2020-06-20T10:13:20Z</time>
      </trkpt>
      <trkpt lat="47.00706" lon="-1.77455">
        <ele>7.97</ele>
        <time>2020-06-20T10:13:22Z</time>
      </trkpt>
      <trkpt lat="47.00713" lon="-1.77439">
        <ele>8.63</ele>
        <time>2020-06-20T10:13:25Z</time>
      </trkpt>
      <trkpt lat="47.00718" lon="-1.77426">
        <ele>9.73</ele>
        <time>2020-06-20T10:13:27Z</time>
      </trkpt>
      <trkpt lat="47.00724" lon="-1.77408">
        <ele>10.96</ele>
        <time>2020-06-20T10:13:30Z</time>
      </trkpt>
      <trkpt lat="47.00728" lon="-1.77395">
        <ele>12.89</ele>
        <time>2020-06-20T10:13:32Z</time>
      </trkpt>
      <trkpt lat="47.00732" lon="-1.7738">
        <ele>13.81</ele>
        <time>2020-06-20T10:13:35Z</time>
      </trkpt>
      <trkpt lat="47.00738" lon="-1.77367">
        <ele>13.78</ele>
        <time>2020-06-20T10:13:37Z</time>
      </trkpt>
      <trkpt lat="47.00744" lon="-1.77357">
        <ele>13.5</ele>
        <time>2020-06-20T10:13:39Z</time>
      </trkpt>
      <trkpt lat="47.00753" lon="-1.77343">
        <ele>12.74</ele>
        <time>2020-06-20T10:13:42Z</time>
      </trkpt>
      <trkpt lat="47.00761" lon="-1.77331">
        <ele>13.07</ele>
        <time>2020-06-20T10:13:45Z</time>
      </trkpt>
      <trkpt lat="47.0077" lon="-1.77321">
        <ele>13.23</ele>
        <time>2020-06-20T10:13:48Z</time>
      </trkpt>
      <trkpt lat="47.00779" lon="-1.77317">
        <ele>14.33</ele>
        <time>2020-06-20T10:13:50Z</time>
      </trkpt>
      <trkpt lat="47.0079" lon="-1.77314">
        <ele>14.14</ele>
        <time>2020-06-20T10:13:52Z</time>
      </trkpt>
      <trkpt lat="47.008" lon="-1.7731">
        <ele>13.7</ele>
        <time>2020-06-20T10:13:54Z</time>
      </trkpt>
      <trkpt lat="47.00811" lon="-1.77307">
        <ele>12.58</ele>
        <time>2020-06-20T10:13:56Z</time>
      </trkpt>
      <trkpt lat="47.00823" lon="-1.77303">
        <ele>11.76</ele>
        <time>2020-06-20T10:13:58Z</time>
      </trkpt>
      <trkpt lat="47.00834" lon="-1.77297">
        <ele>10.31</ele>
        <time>2020-06-20T10:14:00Z</time>
      </trkpt>
      <trkpt lat="47.00844" lon="-1.77292">
        <ele>8.63</ele>
        <time>2020-06-20T10:14:02Z</time>
      </trkpt>
      <trkpt lat="47.00853" lon="-1.77286">
        <ele>8.38</ele>
        <time>2020-06-20T10:14:04Z</time>
      </trkpt>
      <trkpt lat="47.00863" lon="-1.77279">
        <ele>7.57</ele>
        <time>2020-06-20T10:14:06Z</time>
      </trkpt>
      <trkpt lat="47.00873" lon="-1.77272">
        <ele>7.35</ele>
        <time>2020-06-20T10:14:08Z</time>
      </trkpt>
      <trkpt lat="47.00881" lon="-1.77265">
        <ele>7.95</ele>
        <time>2020-06-20T10:14:10Z</time>
      </trkpt>
      <trkpt lat="47.00891" lon="-1.77256">
        <ele>8.26</ele>
        <time>2020-06-20T10:14:12Z</time>
      </trkpt>
      <trkpt lat="47.00901" lon="-1.77246">
        <ele>8.76</ele>
        <time>2020-06-20T10:14:14Z</time>
      </trkpt>
      <trkpt lat="47.00911" lon="-1.77236">
        <ele>9.43</ele>
        <time>2020-06-20T10:14:16Z</time>
      </trkpt>
      <trkpt lat="47.0092" lon="-1.77225">
        <ele>10.13</ele>
        <time>2020-06-20T10:14:18Z</time>
      </trkpt>
      <trkpt lat="47.0093" lon="-1.77216">
        <ele>10.24</ele>
        <time>2020-06-20T10:14:20Z</time>
      </trkpt>
      <trkpt lat="47.00939" lon="-1.77206">
        <ele>10.4</ele>
        <time>2020-06-20T10:14:22Z</time>
      </trkpt>
      <trkpt lat="47.00948" lon="-1.77195">
        <ele>11.4</ele>
        <time>2020-06-20T10:14:24Z</time>
      </trkpt>
      <trkpt lat="47.00955" lon="-1.77185">
        <ele>12.25</ele>
        <time>2020-06-20T10:14:26Z</time>
      </trkpt>
      <trkpt lat="47.00962" lon="-1.77175">
        <ele>13.58</ele>
        <time>2020-06-20T10:14:28Z</time>
      </trkpt>
      <trkpt lat="47.00971" lon="-1.77164">
        <ele>13.82</ele>
        <time>2020-06-20T10:14:31Z</time>
      </trkpt>
      <trkpt lat="47.00978" lon="-1.77153">
        <ele>14.44</ele>
        <time>2020-06-20T10:14:33Z</time>
      </trkpt>
      <trkpt lat="47.00985" lon="-1.77144">
        <ele>15.5</ele>
        <time>2020-06-20T10:14:35Z</time>
      </trkpt>
      <trkpt lat="47.00994" lon="-1.77134">
        <ele>16.05</ele>
        <time>2020-06-20T10:14:37Z</time>
      </trkpt>
      <trkpt lat="47.01002" lon="-1.77123">
        <ele>16.13</ele>
        <time>2020-06-20T10:14:39Z</time>
      </trkpt>
      <trkpt lat="47.01012" lon="-1.77113">
        <ele>16.1</ele>
        <time>2020-06-20T10:14:41Z</time>
      </trkpt>
      <trkpt lat="47.01023" lon="-1.77103">
        <ele>16.59</ele>
        <time>2020-06-20T10:14:43Z</time>
      </trkpt>
      <trkpt lat="47.01034" lon="-1.77095">
        <ele>16.68</ele>
        <time>2020-06-20T10:14:45Z</time>
      </trkpt>
      <trkpt lat="47.01042" lon="-1.77084">
        <ele>16.75</ele>
        <time>2020-06-20T10:14:47Z</time>
      </trkpt>
      <trkpt lat="47.01052" lon="-1.77075">
        <ele>16.99</ele>
        <time>2020-06-20T10:14:49Z</time>
      </trkpt>
      <trkpt lat="47.01061" lon="-1.77064">
        <ele>17.22</ele>
        <time>2020-06-20T10:14:51Z</time>
      </trkpt>
      <trkpt lat="47.0107" lon="-1.77055">
        <ele>16.82</ele>
        <time>2020-06-20T10:14:53Z</time>
      </trkpt>
      <trkpt lat="47.01079" lon="-1.77046">
        <ele>17.07</ele>
        <time>2020-06-20T10:14:55Z</time>
      </trkpt>
      <trkpt lat="47.01086" lon="-1.77037">
        <ele>17.04</ele>
        <time>2020-06-20T10:14:57Z</time>
      </trkpt>
      <trkpt lat="47.01095" lon="-1.77029">
        <ele>17.12</ele>
        <time>2020-06-20T10:14:59Z</time>
      </trkpt>
      <trkpt lat="47.01102" lon="-1.77019">
        <ele>16.73</ele>
        <time>2020-06-20T10:15:01Z</time>
      </trkpt>
      <trkpt lat="47.01111" lon="-1.7701">
        <ele>16.07</ele>
        <time>2020-06-20T10:15:03Z</time>
      </trkpt>
      <trkpt lat="47.0112" lon="-1.77002">
        <ele>16.08</ele>
        <time>2020-06-20T10:15:05Z</time>
      </trkpt>
      <trkpt lat="47.01128" lon="-1.76994">
        <ele>16.23</ele>
        <time>2020-06-20T10:15:07Z</time>
      </trkpt>
      <trkpt lat="47.01135" lon="-1.76984">
        <ele>16.85</ele>
        <time>2020-06-20T10:15:09Z</time>
      </trkpt>
      <trkpt lat="47.01143" lon="-1.76975">
        <ele>16.66</ele>
        <time>2020-06-20T10:15:11Z</time>
      </trkpt>
      <trkpt lat="47.01151" lon="-1.76965">
        <ele>16.39</ele>
        <time>2020-06-20T10:15:13Z</time>
      </trkpt>
      <trkpt lat="47.01159" lon="-1.76955">
        <ele>16.27</ele>
        <time>2020-06-20T10:15:15Z</time>
      </trkpt>
      <trkpt lat="47.01167" lon="-1.76944">
        <ele>17.22</ele>
        <time>2020-06-20T10:15:17Z</time>
      </trkpt>
      <trkpt lat="47.01176" lon="-1.76933">
        <ele>17.53</ele>
        <time>2020-06-20T10:15:19Z</time>
      </trkpt>
      <trkpt lat="47.01184" lon="-1.76922">
        <ele>17.91</ele>
        <time>2020-06-20T10:15:21Z</time>
      </trkpt>
      <trkpt lat="47.01192" lon="-1.76911">
        <ele>17.79</ele>
        <time>2020-06-20T10:15:23Z</time>
      </trkpt>
      <trkpt lat="47.01199" lon="-1.76902">
        <ele>17.83</ele>
        <time>2020-06-20T10:15:25Z</time>
      </trkpt>
      <trkpt lat="47.01207" lon="-1.76893">
        <ele>17.78</ele>
        <time>2020-06-20T10:15:27Z</time>
      </trkpt>
      <trkpt lat="47.01218" lon="-1.76882">
        <ele>17.45</ele>
        <time>2020-06-20T10:15:30Z</time>
      </trkpt>
      <trkpt lat="47.01227" lon="-1.76875">
        <ele>17.08</ele>
        <time>2020-06-20T10:15:32Z</time>
      </trkpt>
      <trkpt lat="47.01236" lon="-1.76869">
        <ele>17.06</ele>
        <time>2020-06-20T10:15:34Z</time>
      </trkpt>
      <trkpt lat="47.01245" lon="-1.76863">
        <ele>17.39</ele>
        <time>2020-06-20T10:15:36Z</time>
      </trkpt>
      <trkpt lat="47.01255" lon="-1.76856">
        <ele>17.24</ele>
        <time>2020-06-20T10:15:38Z</time>
      </trkpt>
      <trkpt lat="47.01264" lon="-1.76847">
        <ele>17.53</ele>
        <time>2020-06-20T10:15:40Z</time>
      </trkpt>
      <trkpt lat="47.01272" lon="-1.76838">
        <ele>17.76</ele>
        <time>2020-06-20T10:15:42Z</time>
      </trkpt>
      <trkpt lat="47.0128" lon="-1.76828">
        <ele>18.11</ele>
        <time>2020-06-20T10:15:44Z</time>
      </trkpt>
      <trkpt lat="47.01287" lon="-1.76819">
        <ele>19.03</ele>
        <time>2020-06-20T10:15:46Z</time>
      </trkpt>
      <trkpt lat="47.01294" lon="-1.7681">
        <ele>19.6</ele>
        <time>2020-06-20T10:15:48Z</time>
      </trkpt>
      <trkpt lat="47.01302" lon="-1.76799">
        <ele>19.86</ele>
        <time>2020-06-20T10:15:50Z</time>
      </trkpt>
      <trkpt lat="47.01308" lon="-1.76788">
        <ele>20.32</ele>
        <time>2020-06-20T10:15:52Z</time>
      </trkpt>
      <trkpt lat="47.01314" lon="-1.76776">
        <ele>20.85</ele>
        <time>2020-06-20T10:15:54Z</time>
      </trkpt>
      <trkpt lat="47.01321" lon="-1.76765">
        <ele>21.12</ele>
        <time>2020-06-20T10:15:56Z</time>
      </trkpt>
      <trkpt lat="47.01328" lon="-1.76753">
        <ele>21.36</ele>
        <time>2020-06-20T10:15:58Z</time>
      </trkpt>
      <trkpt lat="47.01335" lon="-1.76742">
        <ele>21.19</ele>
        <time>2020-06-20T10:16:00Z</time>
      </trkpt>
      <trkpt lat="47.0134" lon="-1.76729">
        <ele>21.12</ele>
        <time>2020-06-20T10:16:02Z</time>
      </trkpt>
      <trkpt lat="47.01347" lon="-1.76715">
        <ele>20.85</ele>
        <time>2020-06-20T10:16:04Z</time>
      </trkpt>
      <trkpt lat="47.01354" lon="-1.76701">
        <ele>21</ele>
        <time>2020-06-20T10:16:06Z</time>
      </trkpt>
      <trkpt lat="47.01359" lon="-1.76686">
        <ele>20.99</ele>
        <time>2020-06-20T10:16:08Z</time>
      </trkpt>
      <trkpt lat="47.01364" lon="-1.76672">
        <ele>21.14</ele>
        <time>2020-06-20T10:16:10Z</time>
      </trkpt>
      <trkpt lat="47.01368" lon="-1.76657">
        <ele>21.29</ele>
        <time>2020-06-20T10:16:12Z</time>
      </trkpt>
      <trkpt lat="47.01371" lon="-1.76642">
        <ele>20.62</ele>
        <time>2020-06-20T10:16:14Z</time>
      </trkpt>
      <trkpt lat="47.01375" lon="-1.76623">
        <ele>19.89</ele>
        <time>2020-06-20T10:16:16Z</time>
      </trkpt>
      <trkpt lat="47.01379" lon="-1.76608">
        <ele>18.84</ele>
        <time>2020-06-20T10:16:18Z</time>
      </trkpt>
      <trkpt lat="47.01382" lon="-1.76591">
        <ele>18.35</ele>
        <time>2020-06-20T10:16:20Z</time>
      </trkpt>
      <trkpt lat="47.01385" lon="-1.76575">
        <ele>17.83</ele>
        <time>2020-06-20T10:16:22Z</time>
      </trkpt>
      <trkpt lat="47.01388" lon="-1.76558">
        <ele>18</ele>
        <time>2020-06-20T10:16:24Z</time>
      </trkpt>
      <trkpt lat="47.01391" lon="-1.7654">
        <ele>18.05</ele>
        <time>2020-06-20T10:16:26Z</time>
      </trkpt>
      <trkpt lat="47.01395" lon="-1.76521">
        <ele>16.84</ele>
        <time>2020-06-20T10:16:28Z</time>
      </trkpt>
      <trkpt lat="47.014" lon="-1.76502">
        <ele>16.48</ele>
        <time>2020-06-20T10:16:30Z</time>
      </trkpt>
      <trkpt lat="47.01404" lon="-1.76487">
        <ele>16.18</ele>
        <time>2020-06-20T10:16:32Z</time>
      </trkpt>
      <trkpt lat="47.0141" lon="-1.76472">
        <ele>17.09</ele>
        <time>2020-06-20T10:16:34Z</time>
      </trkpt>
      <trkpt lat="47.01416" lon="-1.76457">
        <ele>17.97</ele>
        <time>2020-06-20T10:16:36Z</time>
      </trkpt>
      <trkpt lat="47.01424" lon="-1.76443">
        <ele>17.39</ele>
        <time>2020-06-20T10:16:38Z</time>
      </trkpt>
      <trkpt lat="47.01433" lon="-1.76429">
        <ele>17.48</ele>
        <time>2020-06-20T10:16:40Z</time>
      </trkpt>
      <trkpt lat="47.01443" lon="-1.76413">
        <ele>18.43</ele>
        <time>2020-06-20T10:16:42Z</time>
      </trkpt>
      <trkpt lat="47.01454" lon="-1.76398">
        <ele>19.38</ele>
        <time>2020-06-20T10:16:44Z</time>
      </trkpt>
      <trkpt lat="47.01465" lon="-1.76384">
        <ele>20.4</ele>
        <time>2020-06-20T10:16:46Z</time>
      </trkpt>
      <trkpt lat="47.01474" lon="-1.76369">
        <ele>21.27</ele>
        <time>2020-06-20T10:16:48Z</time>
      </trkpt>
      <trkpt lat="47.01481" lon="-1.76354">
        <ele>21.35</ele>
        <time>2020-06-20T10:16:50Z</time>
      </trkpt>
      <trkpt lat="47.01488" lon="-1.76337">
        <ele>21.28</ele>
        <time>2020-06-20T10:16:52Z</time>
      </trkpt>
      <trkpt lat="47.01495" lon="-1.76319">
        <ele>21.11</ele>
        <time>2020-06-20T10:16:54Z</time>
      </trkpt>
      <trkpt lat="47.01503" lon="-1.763">
        <ele>22.01</ele>
        <time>2020-06-20T10:16:56Z</time>
      </trkpt>
      <trkpt lat="47.01507" lon="-1.76285">
        <ele>22.8</ele>
        <time>2020-06-20T10:16:58Z</time>
      </trkpt>
      <trkpt lat="47.01514" lon="-1.76268">
        <ele>22.81</ele>
        <time>2020-06-20T10:17:00Z</time>
      </trkpt>
      <trkpt lat="47.0152" lon="-1.76249">
        <ele>21.98</ele>
        <time>2020-06-20T10:17:02Z</time>
      </trkpt>
      <trkpt lat="47.01526" lon="-1.76232">
        <ele>21.99</ele>
        <time>2020-06-20T10:17:04Z</time>
      </trkpt>
      <trkpt lat="47.01533" lon="-1.76214">
        <ele>21.38</ele>
        <time>2020-06-20T10:17:06Z</time>
      </trkpt>
      <trkpt lat="47.01541" lon="-1.76195">
        <ele>21.34</ele>
        <time>2020-06-20T10:17:08Z</time>
      </trkpt>
      <trkpt lat="47.01547" lon="-1.76183">
        <ele>20.54</ele>
        <time>2020-06-20T10:17:10Z</time>
      </trkpt>
      <trkpt lat="47.01555" lon="-1.76168">
        <ele>19.77</ele>
        <time>2020-06-20T10:17:12Z</time>
      </trkpt>
      <trkpt lat="47.01568" lon="-1.76159">
        <ele>20.19</ele>
        <time>2020-06-20T10:17:14Z</time>
      </trkpt>
      <trkpt lat="47.01579" lon="-1.76149">
        <ele>20.52</ele>
        <time>2020-06-20T10:17:16Z</time>
      </trkpt>
      <trkpt lat="47.0159" lon="-1.76139">
        <ele>20.54</ele>
        <time>2020-06-20T10:17:18Z</time>
      </trkpt>
      <trkpt lat="47.01599" lon="-1.7613">
        <ele>20.82</ele>
        <time>2020-06-20T10:17:20Z</time>
      </trkpt>
      <trkpt lat="47.01611" lon="-1.7612">
        <ele>20.52</ele>
        <time>2020-06-20T10:17:22Z</time>
      </trkpt>
      <trkpt lat="47.0162" lon="-1.76111">
        <ele>20.4</ele>
        <time>2020-06-20T10:17:24Z</time>
      </trkpt>
      <trkpt lat="47.0163" lon="-1.76102">
        <ele>20.84</ele>
        <time>2020-06-20T10:17:26Z</time>
      </trkpt>
      <trkpt lat="47.0164" lon="-1.76092">
        <ele>21.24</ele>
        <time>2020-06-20T10:17:28Z</time>
      </trkpt>
      <trkpt lat="47.01653" lon="-1.7608">
        <ele>21.26</ele>
        <time>2020-06-20T10:17:31Z</time>
      </trkpt>
      <trkpt lat="47.01663" lon="-1.76071">
        <ele>22.39</ele>
        <time>2020-06-20T10:17:33Z</time>
      </trkpt>
      <trkpt lat="47.01674" lon="-1.7606">
        <ele>23.04</ele>
        <time>2020-06-20T10:17:35Z</time>
      </trkpt>
      <trkpt lat="47.01683" lon="-1.76053">
        <ele>22.54</ele>
        <time>2020-06-20T10:17:37Z</time>
      </trkpt>
      <trkpt lat="47.01693" lon="-1.76044">
        <ele>21.87</ele>
        <time>2020-06-20T10:17:39Z</time>
      </trkpt>
      <trkpt lat="47.01704" lon="-1.76035">
        <ele>22.71</ele>
        <time>2020-06-20T10:17:41Z</time>
      </trkpt>
      <trkpt lat="47.01711" lon="-1.76027">
        <ele>22.5</ele>
        <time>2020-06-20T10:17:43Z</time>
      </trkpt>
      <trkpt lat="47.01718" lon="-1.76014">
        <ele>23.6</ele>
        <time>2020-06-20T10:17:45Z</time>
      </trkpt>
      <trkpt lat="47.01725" lon="-1.76">
        <ele>24.72</ele>
        <time>2020-06-20T10:17:48Z</time>
      </trkpt>
      <trkpt lat="47.01732" lon="-1.75989">
        <ele>24.01</ele>
        <time>2020-06-20T10:17:50Z</time>
      </trkpt>
      <trkpt lat="47.01741" lon="-1.75975">
        <ele>22.58</ele>
        <time>2020-06-20T10:17:52Z</time>
      </trkpt>
      <trkpt lat="47.01748" lon="-1.75964">
        <ele>21.99</ele>
        <time>2020-06-20T10:17:54Z</time>
      </trkpt>
      <trkpt lat="47.01756" lon="-1.75949">
        <ele>22.92</ele>
        <time>2020-06-20T10:17:56Z</time>
      </trkpt>
      <trkpt lat="47.01762" lon="-1.75936">
        <ele>24.58</ele>
        <time>2020-06-20T10:17:58Z</time>
      </trkpt>
      <trkpt lat="47.0177" lon="-1.75922">
        <ele>26.01</ele>
        <time>2020-06-20T10:18:01Z</time>
      </trkpt>
      <trkpt lat="47.01777" lon="-1.75909">
        <ele>26.84</ele>
        <time>2020-06-20T10:18:03Z</time>
      </trkpt>
      <trkpt lat="47.01783" lon="-1.75898">
        <ele>27.43</ele>
        <time>2020-06-20T10:18:05Z</time>
      </trkpt>
      <trkpt lat="47.0179" lon="-1.75885">
        <ele>26.64</ele>
        <time>2020-06-20T10:18:07Z</time>
      </trkpt>
      <trkpt lat="47.01799" lon="-1.75871">
        <ele>25.78</ele>
        <time>2020-06-20T10:18:09Z</time>
      </trkpt>
      <trkpt lat="47.01807" lon="-1.75858">
        <ele>25.6</ele>
        <time>2020-06-20T10:18:11Z</time>
      </trkpt>
      <trkpt lat="47.01815" lon="-1.75845">
        <ele>24.86</ele>
        <time>2020-06-20T10:18:13Z</time>
      </trkpt>
      <trkpt lat="47.01823" lon="-1.75834">
        <ele>24.02</ele>
        <time>2020-06-20T10:18:15Z</time>
      </trkpt>
      <trkpt lat="47.01829" lon="-1.75823">
        <ele>23.53</ele>
        <time>2020-06-20T10:18:17Z</time>
      </trkpt>
      <trkpt lat="47.01836" lon="-1.75811">
        <ele>24.09</ele>
        <time>2020-06-20T10:18:19Z</time>
      </trkpt>
      <trkpt lat="47.01842" lon="-1.75799">
        <ele>25.81</ele>
        <time>2020-06-20T10:18:21Z</time>
      </trkpt>
      <trkpt lat="47.01849" lon="-1.75786">
        <ele>26.73</ele>
        <time>2020-06-20T10:18:23Z</time>
      </trkpt>
      <trkpt lat="47.01856" lon="-1.75772">
        <ele>26.59</ele>
        <time>2020-06-20T10:18:25Z</time>
      </trkpt>
      <trkpt lat="47.01862" lon="-1.75761">
        <ele>25.99</ele>
        <time>2020-06-20T10:18:27Z</time>
      </trkpt>
      <trkpt lat="47.0187" lon="-1.75752">
        <ele>25.23</ele>
        <time>2020-06-20T10:18:29Z</time>
      </trkpt>
      <trkpt lat="47.01875" lon="-1.75742">
        <ele>25.02</ele>
        <time>2020-06-20T10:18:31Z</time>
      </trkpt>
      <trkpt lat="47.0188" lon="-1.75729">
        <ele>25.13</ele>
        <time>2020-06-20T10:18:33Z</time>
      </trkpt>
      <trkpt lat="47.01888" lon="-1.75716">
        <ele>25.87</ele>
        <time>2020-06-20T10:18:35Z</time>
      </trkpt>
      <trkpt lat="47.01895" lon="-1.75705">
        <ele>26.23</ele>
        <time>2020-06-20T10:18:37Z</time>
      </trkpt>
      <trkpt lat="47.01901" lon="-1.75692">
        <ele>26.42</ele>
        <time>2020-06-20T10:18:39Z</time>
      </trkpt>
      <trkpt lat="47.01908" lon="-1.75681">
        <ele>26.98</ele>
        <time>2020-06-20T10:18:41Z</time>
      </trkpt>
      <trkpt lat="47.01914" lon="-1.75671">
        <ele>26.62</ele>
        <time>2020-06-20T10:18:43Z</time>
      </trkpt>
      <trkpt lat="47.01922" lon="-1.75658">
        <ele>26.35</ele>
        <time>2020-06-20T10:18:45Z</time>
      </trkpt>
      <trkpt lat="47.0193" lon="-1.75645">
        <ele>25.36</ele>
        <time>2020-06-20T10:18:47Z</time>
      </trkpt>
      <trkpt lat="47.01937" lon="-1.75633">
        <ele>25.2</ele>
        <time>2020-06-20T10:18:49Z</time>
      </trkpt>
      <trkpt lat="47.01944" lon="-1.75621">
        <ele>23.82</ele>
        <time>2020-06-20T10:18:51Z</time>
      </trkpt>
      <trkpt lat="47.01951" lon="-1.75608">
        <ele>23.55</ele>
        <time>2020-06-20T10:18:53Z</time>
      </trkpt>
      <trkpt lat="47.0196" lon="-1.75595">
        <ele>22.78</ele>
        <time>2020-06-20T10:18:55Z</time>
      </trkpt>
      <trkpt lat="47.01969" lon="-1.7558">
        <ele>22.12</ele>
        <time>2020-06-20T10:18:57Z</time>
      </trkpt>
      <trkpt lat="47.01978" lon="-1.75567">
        <ele>21.76</ele>
        <time>2020-06-20T10:18:59Z</time>
      </trkpt>
      <trkpt lat="47.01987" lon="-1.75553">
        <ele>21.42</ele>
        <time>2020-06-20T10:19:01Z</time>
      </trkpt>
      <trkpt lat="47.01995" lon="-1.75539">
        <ele>21.04</ele>
        <time>2020-06-20T10:19:03Z</time>
      </trkpt>
      <trkpt lat="47.02003" lon="-1.75525">
        <ele>20.3</ele>
        <time>2020-06-20T10:19:05Z</time>
      </trkpt>
      <trkpt lat="47.0201" lon="-1.75513">
        <ele>19.84</ele>
        <time>2020-06-20T10:19:07Z</time>
      </trkpt>
      <trkpt lat="47.02018" lon="-1.75499">
        <ele>19.93</ele>
        <time>2020-06-20T10:19:09Z</time>
      </trkpt>
      <trkpt lat="47.02025" lon="-1.75486">
        <ele>19.52</ele>
        <time>2020-06-20T10:19:11Z</time>
      </trkpt>
      <trkpt lat="47.02032" lon="-1.75474">
        <ele>19.35</ele>
        <time>2020-06-20T10:19:13Z</time>
      </trkpt>
      <trkpt lat="47.0204" lon="-1.75461">
        <ele>18.82</ele>
        <time>2020-06-20T10:19:15Z</time>
      </trkpt>
      <trkpt lat="47.02046" lon="-1.75447">
        <ele>18.37</ele>
        <time>2020-06-20T10:19:17Z</time>
      </trkpt>
      <trkpt lat="47.02053" lon="-1.75431">
        <ele>18.3</ele>
        <time>2020-06-20T10:19:19Z</time>
      </trkpt>
      <trkpt lat="47.02058" lon="-1.75415">
        <ele>18.62</ele>
        <time>2020-06-20T10:19:21Z</time>
      </trkpt>
      <trkpt lat="47.02062" lon="-1.75398">
        <ele>18.67</ele>
        <time>2020-06-20T10:19:23Z</time>
      </trkpt>
      <trkpt lat="47.02065" lon="-1.75384">
        <ele>19.89</ele>
        <time>2020-06-20T10:19:25Z</time>
      </trkpt>
      <trkpt lat="47.02068" lon="-1.75367">
        <ele>20.49</ele>
        <time>2020-06-20T10:19:27Z</time>
      </trkpt>
      <trkpt lat="47.02071" lon="-1.7535">
        <ele>21.39</ele>
        <time>2020-06-20T10:19:29Z</time>
      </trkpt>
      <trkpt lat="47.02074" lon="-1.75334">
        <ele>21.29</ele>
        <time>2020-06-20T10:19:31Z</time>
      </trkpt>
      <trkpt lat="47.02077" lon="-1.75318">
        <ele>20.81</ele>
        <time>2020-06-20T10:19:33Z</time>
      </trkpt>
      <trkpt lat="47.0208" lon="-1.75302">
        <ele>20.32</ele>
        <time>2020-06-20T10:19:35Z</time>
      </trkpt>
      <trkpt lat="47.02083" lon="-1.75287">
        <ele>19.77</ele>
        <time>2020-06-20T10:19:37Z</time>
      </trkpt>
      <trkpt lat="47.02086" lon="-1.75271">
        <ele>18.46</ele>
        <time>2020-06-20T10:19:39Z</time>
      </trkpt>
      <trkpt lat="47.0209" lon="-1.75254">
        <ele>18.01</ele>
        <time>2020-06-20T10:19:41Z</time>
      </trkpt>
      <trkpt lat="47.02093" lon="-1.75237">
        <ele>17.25</ele>
        <time>2020-06-20T10:19:43Z</time>
      </trkpt>
      <trkpt lat="47.02096" lon="-1.7522">
        <ele>17.52</ele>
        <time>2020-06-20T10:19:45Z</time>
      </trkpt>
      <trkpt lat="47.02099" lon="-1.75202">
        <ele>17.51</ele>
        <time>2020-06-20T10:19:47Z</time>
      </trkpt>
      <trkpt lat="47.02102" lon="-1.75184">
        <ele>17.94</ele>
        <time>2020-06-20T10:19:49Z</time>
      </trkpt>
      <trkpt lat="47.02104" lon="-1.75169">
        <ele>18.49</ele>
        <time>2020-06-20T10:19:51Z</time>
      </trkpt>
      <trkpt lat="47.02108" lon="-1.75148">
        <ele>19.24</ele>
        <time>2020-06-20T10:19:54Z</time>
      </trkpt>
      <trkpt lat="47.02111" lon="-1.7513">
        <ele>19.21</ele>
        <time>2020-06-20T10:19:56Z</time>
      </trkpt>
      <trkpt lat="47.02115" lon="-1.7511">
        <ele>19.41</ele>
        <time>2020-06-20T10:19:58Z</time>
      </trkpt>
      <trkpt lat="47.02118" lon="-1.75095">
        <ele>19.46</ele>
        <time>2020-06-20T10:20:00Z</time>
      </trkpt>
      <trkpt lat="47.02122" lon="-1.75076">
        <ele>19.66</ele>
        <time>2020-06-20T10:20:02Z</time>
      </trkpt>
      <trkpt lat="47.02125" lon="-1.75061">
        <ele>19.86</ele>
        <time>2020-06-20T10:20:04Z</time>
      </trkpt>
      <trkpt lat="47.02128" lon="-1.75045">
        <ele>20.29</ele>
        <time>2020-06-20T10:20:06Z</time>
      </trkpt>
      <trkpt lat="47.0213" lon="-1.75031">
        <ele>20.63</ele>
        <time>2020-06-20T10:20:08Z</time>
      </trkpt>
      <trkpt lat="47.02133" lon="-1.75017">
        <ele>20.72</ele>
        <time>2020-06-20T10:20:10Z</time>
      </trkpt>
      <trkpt lat="47.02136" lon="-1.75001">
        <ele>21.41</ele>
        <time>2020-06-20T10:20:12Z</time>
      </trkpt>
      <trkpt lat="47.02139" lon="-1.7498">
        <ele>20.93</ele>
        <time>2020-06-20T10:20:14Z</time>
      </trkpt>
      <trkpt lat="47.02142" lon="-1.74961">
        <ele>20.77</ele>
        <time>2020-06-20T10:20:16Z</time>
      </trkpt>
      <trkpt lat="47.02143" lon="-1.74948">
        <ele>21.53</ele>
        <time>2020-06-20T10:20:18Z</time>
      </trkpt>
      <trkpt lat="47.02145" lon="-1.74931">
        <ele>22.14</ele>
        <time>2020-06-20T10:20:20Z</time>
      </trkpt>
      <trkpt lat="47.02148" lon="-1.74912">
        <ele>22.96</ele>
        <time>2020-06-20T10:20:22Z</time>
      </trkpt>
      <trkpt lat="47.0215" lon="-1.74897">
        <ele>23.01</ele>
        <time>2020-06-20T10:20:24Z</time>
      </trkpt>
      <trkpt lat="47.02153" lon="-1.74881">
        <ele>24.15</ele>
        <time>2020-06-20T10:20:26Z</time>
      </trkpt>
      <trkpt lat="47.02156" lon="-1.74867">
        <ele>23.62</ele>
        <time>2020-06-20T10:20:28Z</time>
      </trkpt>
      <trkpt lat="47.02162" lon="-1.74851">
        <ele>23.43</ele>
        <time>2020-06-20T10:20:30Z</time>
      </trkpt>
      <trkpt lat="47.02166" lon="-1.74836">
        <ele>23.12</ele>
        <time>2020-06-20T10:20:32Z</time>
      </trkpt>
      <trkpt lat="47.02171" lon="-1.74819">
        <ele>22.88</ele>
        <time>2020-06-20T10:20:34Z</time>
      </trkpt>
      <trkpt lat="47.02177" lon="-1.74803">
        <ele>22.44</ele>
        <time>2020-06-20T10:20:36Z</time>
      </trkpt>
      <trkpt lat="47.02179" lon="-1.74789">
        <ele>21.56</ele>
        <time>2020-06-20T10:20:38Z</time>
      </trkpt>
      <trkpt lat="47.02178" lon="-1.74771">
        <ele>20.44</ele>
        <time>2020-06-20T10:20:40Z</time>
      </trkpt>
      <trkpt lat="47.02181" lon="-1.74754">
        <ele>19.37</ele>
        <time>2020-06-20T10:20:42Z</time>
      </trkpt>
      <trkpt lat="47.02187" lon="-1.74736">
        <ele>18.39</ele>
        <time>2020-06-20T10:20:44Z</time>
      </trkpt>
      <trkpt lat="47.02188" lon="-1.74719">
        <ele>19.12</ele>
        <time>2020-06-20T10:20:46Z</time>
      </trkpt>
      <trkpt lat="47.02192" lon="-1.74702">
        <ele>20.64</ele>
        <time>2020-06-20T10:20:48Z</time>
      </trkpt>
      <trkpt lat="47.02195" lon="-1.74686">
        <ele>21.56</ele>
        <time>2020-06-20T10:20:50Z</time>
      </trkpt>
      <trkpt lat="47.02198" lon="-1.7467">
        <ele>22.73</ele>
        <time>2020-06-20T10:20:52Z</time>
      </trkpt>
      <trkpt lat="47.02203" lon="-1.74654">
        <ele>22.78</ele>
        <time>2020-06-20T10:20:54Z</time>
      </trkpt>
      <trkpt lat="47.02204" lon="-1.74637">
        <ele>22.96</ele>
        <time>2020-06-20T10:20:56Z</time>
      </trkpt>
      <trkpt lat="47.02206" lon="-1.74619">
        <ele>23.67</ele>
        <time>2020-06-20T10:20:58Z</time>
      </trkpt>
      <trkpt lat="47.02209" lon="-1.74601">
        <ele>24.42</ele>
        <time>2020-06-20T10:21:00Z</time>
      </trkpt>
      <trkpt lat="47.02217" lon="-1.74584">
        <ele>23.27</ele>
        <time>2020-06-20T10:21:02Z</time>
      </trkpt>
      <trkpt lat="47.02221" lon="-1.74567">
        <ele>22.06</ele>
        <time>2020-06-20T10:21:04Z</time>
      </trkpt>
      <trkpt lat="47.02226" lon="-1.74548">
        <ele>21.18</ele>
        <time>2020-06-20T10:21:06Z</time>
      </trkpt>
      <trkpt lat="47.02229" lon="-1.7453">
        <ele>21.96</ele>
        <time>2020-06-20T10:21:08Z</time>
      </trkpt>
      <trkpt lat="47.02235" lon="-1.74515">
        <ele>22.51</ele>
        <time>2020-06-20T10:21:10Z</time>
      </trkpt>
      <trkpt lat="47.02241" lon="-1.74498">
        <ele>21.96</ele>
        <time>2020-06-20T10:21:12Z</time>
      </trkpt>
      <trkpt lat="47.02244" lon="-1.74477">
        <ele>22.44</ele>
        <time>2020-06-20T10:21:14Z</time>
      </trkpt>
      <trkpt lat="47.02247" lon="-1.74461">
        <ele>22.58</ele>
        <time>2020-06-20T10:21:16Z</time>
      </trkpt>
      <trkpt lat="47.02251" lon="-1.74447">
        <ele>21.38</ele>
        <time>2020-06-20T10:21:18Z</time>
      </trkpt>
      <trkpt lat="47.02254" lon="-1.74431">
        <ele>20.73</ele>
        <time>2020-06-20T10:21:20Z</time>
      </trkpt>
      <trkpt lat="47.02257" lon="-1.74413">
        <ele>21.19</ele>
        <time>2020-06-20T10:21:22Z</time>
      </trkpt>
      <trkpt lat="47.0226" lon="-1.74392">
        <ele>21.54</ele>
        <time>2020-06-20T10:21:24Z</time>
      </trkpt>
      <trkpt lat="47.02262" lon="-1.74378">
        <ele>21.84</ele>
        <time>2020-06-20T10:21:26Z</time>
      </trkpt>
      <trkpt lat="47.02265" lon="-1.74361">
        <ele>22.58</ele>
        <time>2020-06-20T10:21:28Z</time>
      </trkpt>
      <trkpt lat="47.02268" lon="-1.74345">
        <ele>22.63</ele>
        <time>2020-06-20T10:21:30Z</time>
      </trkpt>
      <trkpt lat="47.02271" lon="-1.74331">
        <ele>21.86</ele>
        <time>2020-06-20T10:21:32Z</time>
      </trkpt>
      <trkpt lat="47.02273" lon="-1.74313">
        <ele>21.77</ele>
        <time>2020-06-20T10:21:34Z</time>
      </trkpt>
      <trkpt lat="47.02274" lon="-1.74298">
        <ele>22.25</ele>
        <time>2020-06-20T10:21:36Z</time>
      </trkpt>
      <trkpt lat="47.02277" lon="-1.7428">
        <ele>21.98</ele>
        <time>2020-06-20T10:21:38Z</time>
      </trkpt>
      <trkpt lat="47.02279" lon="-1.74264">
        <ele>22.4</ele>
        <time>2020-06-20T10:21:40Z</time>
      </trkpt>
      <trkpt lat="47.02282" lon="-1.74247">
        <ele>23.7</ele>
        <time>2020-06-20T10:21:42Z</time>
      </trkpt>
      <trkpt lat="47.02286" lon="-1.74231">
        <ele>24.56</ele>
        <time>2020-06-20T10:21:44Z</time>
      </trkpt>
      <trkpt lat="47.02285" lon="-1.74211">
        <ele>24.3</ele>
        <time>2020-06-20T10:21:46Z</time>
      </trkpt>
      <trkpt lat="47.02285" lon="-1.74194">
        <ele>24.1</ele>
        <time>2020-06-20T10:21:48Z</time>
      </trkpt>
      <trkpt lat="47.02286" lon="-1.74178">
        <ele>24.51</ele>
        <time>2020-06-20T10:21:50Z</time>
      </trkpt>
      <trkpt lat="47.02287" lon="-1.74161">
        <ele>25.09</ele>
        <time>2020-06-20T10:21:52Z</time>
      </trkpt>
      <trkpt lat="47.02287" lon="-1.74141">
        <ele>25.44</ele>
        <time>2020-06-20T10:21:54Z</time>
      </trkpt>
      <trkpt lat="47.02291" lon="-1.74125">
        <ele>24.62</ele>
        <time>2020-06-20T10:21:56Z</time>
      </trkpt>
      <trkpt lat="47.02293" lon="-1.74105">
        <ele>23.99</ele>
        <time>2020-06-20T10:21:58Z</time>
      </trkpt>
      <trkpt lat="47.02294" lon="-1.74088">
        <ele>23.58</ele>
        <time>2020-06-20T10:22:00Z</time>
      </trkpt>
      <trkpt lat="47.02296" lon="-1.74068">
        <ele>23.62</ele>
        <time>2020-06-20T10:22:02Z</time>
      </trkpt>
      <trkpt lat="47.02298" lon="-1.7405">
        <ele>23.84</ele>
        <time>2020-06-20T10:22:04Z</time>
      </trkpt>
      <trkpt lat="47.02303" lon="-1.74032">
        <ele>23.53</ele>
        <time>2020-06-20T10:22:06Z</time>
      </trkpt>
      <trkpt lat="47.02304" lon="-1.74014">
        <ele>22.15</ele>
        <time>2020-06-20T10:22:09Z</time>
      </trkpt>
      <trkpt lat="47.02303" lon="-1.74001">
        <ele>20.95</ele>
        <time>2020-06-20T10:22:11Z</time>
      </trkpt>
      <trkpt lat="47.02305" lon="-1.73986">
        <ele>19.94</ele>
        <time>2020-06-20T10:22:13Z</time>
      </trkpt>
      <trkpt lat="47.02305" lon="-1.73969">
        <ele>18.81</ele>
        <time>2020-06-20T10:22:15Z</time>
      </trkpt>
      <trkpt lat="47.02303" lon="-1.73948">
        <ele>19.18</ele>
        <time>2020-06-20T10:22:17Z</time>
      </trkpt>
      <trkpt lat="47.023" lon="-1.73929">
        <ele>18.85</ele>
        <time>2020-06-20T10:22:19Z</time>
      </trkpt>
      <trkpt lat="47.02296" lon="-1.73909">
        <ele>18.97</ele>
        <time>2020-06-20T10:22:20Z</time>
      </trkpt>
      <trkpt lat="47.02294" lon="-1.73891">
        <ele>18.73</ele>
        <time>2020-06-20T10:22:22Z</time>
      </trkpt>
      <trkpt lat="47.02292" lon="-1.73871">
        <ele>18.74</ele>
        <time>2020-06-20T10:22:24Z</time>
      </trkpt>
      <trkpt lat="47.0229" lon="-1.73851">
        <ele>20.07</ele>
        <time>2020-06-20T10:22:26Z</time>
      </trkpt>
      <trkpt lat="47.02288" lon="-1.73835">
        <ele>20.42</ele>
        <time>2020-06-20T10:22:28Z</time>
      </trkpt>
      <trkpt lat="47.02286" lon="-1.7382">
        <ele>20.01</ele>
        <time>2020-06-20T10:22:30Z</time>
      </trkpt>
      <trkpt lat="47.02284" lon="-1.73804">
        <ele>19.12</ele>
        <time>2020-06-20T10:22:32Z</time>
      </trkpt>
      <trkpt lat="47.02283" lon="-1.73789">
        <ele>18.31</ele>
        <time>2020-06-20T10:22:34Z</time>
      </trkpt>
      <trkpt lat="47.02281" lon="-1.73772">
        <ele>17.96</ele>
        <time>2020-06-20T10:22:36Z</time>
      </trkpt>
      <trkpt lat="47.02281" lon="-1.73754">
        <ele>18.35</ele>
        <time>2020-06-20T10:22:39Z</time>
      </trkpt>
      <trkpt lat="47.02294" lon="-1.7375">
        <ele>19.04</ele>
        <time>2020-06-20T10:22:42Z</time>
      </trkpt>
      <trkpt lat="47.02305" lon="-1.7375">
        <ele>18.13</ele>
        <time>2020-06-20T10:22:44Z</time>
      </trkpt>
      <trkpt lat="47.02314" lon="-1.73748">
        <ele>17.7</ele>
        <time>2020-06-20T10:22:46Z</time>
      </trkpt>
      <trkpt lat="47.02324" lon="-1.73746">
        <ele>16.88</ele>
        <time>2020-06-20T10:22:48Z</time>
      </trkpt>
      <trkpt lat="47.02337" lon="-1.73743">
        <ele>16.25</ele>
        <time>2020-06-20T10:22:51Z</time>
      </trkpt>
      <trkpt lat="47.02348" lon="-1.73741">
        <ele>15.1</ele>
        <time>2020-06-20T10:22:53Z</time>
      </trkpt>
      <trkpt lat="47.02358" lon="-1.73738">
        <ele>15.41</ele>
        <time>2020-06-20T10:22:55Z</time>
      </trkpt>
      <trkpt lat="47.0237" lon="-1.73735">
        <ele>17.25</ele>
        <time>2020-06-20T10:22:57Z</time>
      </trkpt>
      <trkpt lat="47.02382" lon="-1.73734">
        <ele>19.38</ele>
        <time>2020-06-20T10:22:59Z</time>
      </trkpt>
      <trkpt lat="47.02394" lon="-1.73732">
        <ele>20.98</ele>
        <time>2020-06-20T10:23:01Z</time>
      </trkpt>
      <trkpt lat="47.02402" lon="-1.73728">
        <ele>21.69</ele>
        <time>2020-06-20T10:23:03Z</time>
      </trkpt>
      <trkpt lat="47.02415" lon="-1.73728">
        <ele>21.2</ele>
        <time>2020-06-20T10:23:05Z</time>
      </trkpt>
      <trkpt lat="47.02427" lon="-1.73725">
        <ele>21.03</ele>
        <time>2020-06-20T10:23:08Z</time>
      </trkpt>
      <trkpt lat="47.02438" lon="-1.73722">
        <ele>20.94</ele>
        <time>2020-06-20T10:23:10Z</time>
      </trkpt>
      <trkpt lat="47.02451" lon="-1.7372">
        <ele>21.27</ele>
        <time>2020-06-20T10:23:12Z</time>
      </trkpt>
      <trkpt lat="47.02462" lon="-1.73718">
        <ele>22.16</ele>
        <time>2020-06-20T10:23:14Z</time>
      </trkpt>
      <trkpt lat="47.02474" lon="-1.73718">
        <ele>24.09</ele>
        <time>2020-06-20T10:23:16Z</time>
      </trkpt>
      <trkpt lat="47.02486" lon="-1.73719">
        <ele>24.72</ele>
        <time>2020-06-20T10:23:18Z</time>
      </trkpt>
      <trkpt lat="47.02498" lon="-1.73719">
        <ele>24.81</ele>
        <time>2020-06-20T10:23:20Z</time>
      </trkpt>
      <trkpt lat="47.0251" lon="-1.73716">
        <ele>24.52</ele>
        <time>2020-06-20T10:23:22Z</time>
      </trkpt>
      <trkpt lat="47.02522" lon="-1.73713">
        <ele>25.09</ele>
        <time>2020-06-20T10:23:24Z</time>
      </trkpt>
      <trkpt lat="47.02532" lon="-1.73711">
        <ele>26.61</ele>
        <time>2020-06-20T10:23:26Z</time>
      </trkpt>
      <trkpt lat="47.02543" lon="-1.73708">
        <ele>27.54</ele>
        <time>2020-06-20T10:23:28Z</time>
      </trkpt>
      <trkpt lat="47.02556" lon="-1.73706">
        <ele>27.29</ele>
        <time>2020-06-20T10:23:30Z</time>
      </trkpt>
      <trkpt lat="47.02568" lon="-1.73703">
        <ele>28.4</ele>
        <time>2020-06-20T10:23:32Z</time>
      </trkpt>
      <trkpt lat="47.02579" lon="-1.73701">
        <ele>27.92</ele>
        <time>2020-06-20T10:23:34Z</time>
      </trkpt>
      <trkpt lat="47.02589" lon="-1.73698">
        <ele>27.96</ele>
        <time>2020-06-20T10:23:36Z</time>
      </trkpt>
      <trkpt lat="47.02598" lon="-1.73695">
        <ele>29.2</ele>
        <time>2020-06-20T10:23:38Z</time>
      </trkpt>
      <trkpt lat="47.02611" lon="-1.7369">
        <ele>30.44</ele>
        <time>2020-06-20T10:23:41Z</time>
      </trkpt>
      <trkpt lat="47.0262" lon="-1.73688">
        <ele>30.27</ele>
        <time>2020-06-20T10:23:43Z</time>
      </trkpt>
      <trkpt lat="47.0263" lon="-1.73686">
        <ele>30.23</ele>
        <time>2020-06-20T10:23:45Z</time>
      </trkpt>
      <trkpt lat="47.0264" lon="-1.73685">
        <ele>30.65</ele>
        <time>2020-06-20T10:23:47Z</time>
      </trkpt>
      <trkpt lat="47.02649" lon="-1.73684">
        <ele>32.41</ele>
        <time>2020-06-20T10:23:49Z</time>
      </trkpt>
      <trkpt lat="47.02662" lon="-1.73681">
        <ele>33.74</ele>
        <time>2020-06-20T10:23:52Z</time>
      </trkpt>
      <trkpt lat="47.02672" lon="-1.73679">
        <ele>33.76</ele>
        <time>2020-06-20T10:23:55Z</time>
      </trkpt>
      <trkpt lat="47.02685" lon="-1.73676">
        <ele>34.05</ele>
        <time>2020-06-20T10:23:58Z</time>
      </trkpt>
      <trkpt lat="47.02697" lon="-1.73675">
        <ele>35.16</ele>
        <time>2020-06-20T10:24:00Z</time>
      </trkpt>
      <trkpt lat="47.02709" lon="-1.73674">
        <ele>36.62</ele>
        <time>2020-06-20T10:24:02Z</time>
      </trkpt>
      <trkpt lat="47.02719" lon="-1.73671">
        <ele>36.75</ele>
        <time>2020-06-20T10:24:04Z</time>
      </trkpt>
      <trkpt lat="47.02731" lon="-1.7367">
        <ele>35.94</ele>
        <time>2020-06-20T10:24:06Z</time>
      </trkpt>
      <trkpt lat="47.0274" lon="-1.73668">
        <ele>35.68</ele>
        <time>2020-06-20T10:24:08Z</time>
      </trkpt>
      <trkpt lat="47.02749" lon="-1.73666">
        <ele>35.46</ele>
        <time>2020-06-20T10:24:10Z</time>
      </trkpt>
      <trkpt lat="47.0276" lon="-1.73663">
        <ele>34.79</ele>
        <time>2020-06-20T10:24:12Z</time>
      </trkpt>
      <trkpt lat="47.02775" lon="-1.73663">
        <ele>33.48</ele>
        <time>2020-06-20T10:24:14Z</time>
      </trkpt>
      <trkpt lat="47.0279" lon="-1.73664">
        <ele>33.04</ele>
        <time>2020-06-20T10:24:16Z</time>
      </trkpt>
      <trkpt lat="47.02804" lon="-1.73662">
        <ele>32.68</ele>
        <time>2020-06-20T10:24:18Z</time>
      </trkpt>
      <trkpt lat="47.02817" lon="-1.7366">
        <ele>32.47</ele>
        <time>2020-06-20T10:24:20Z</time>
      </trkpt>
      <trkpt lat="47.02831" lon="-1.73658">
        <ele>32.05</ele>
        <time>2020-06-20T10:24:22Z</time>
      </trkpt>
      <trkpt lat="47.02842" lon="-1.73655">
        <ele>32.18</ele>
        <time>2020-06-20T10:24:24Z</time>
      </trkpt>
      <trkpt lat="47.02852" lon="-1.73652">
        <ele>32.41</ele>
        <time>2020-06-20T10:24:26Z</time>
      </trkpt>
      <trkpt lat="47.02862" lon="-1.7365">
        <ele>32.43</ele>
        <time>2020-06-20T10:24:28Z</time>
      </trkpt>
      <trkpt lat="47.02871" lon="-1.73647">
        <ele>32.29</ele>
        <time>2020-06-20T10:24:30Z</time>
      </trkpt>
      <trkpt lat="47.0288" lon="-1.73644">
        <ele>32.84</ele>
        <time>2020-06-20T10:24:32Z</time>
      </trkpt>
      <trkpt lat="47.0289" lon="-1.7364">
        <ele>33.89</ele>
        <time>2020-06-20T10:24:34Z</time>
      </trkpt>
      <trkpt lat="47.02904" lon="-1.73638">
        <ele>34.01</ele>
        <time>2020-06-20T10:24:37Z</time>
      </trkpt>
      <trkpt lat="47.02914" lon="-1.73636">
        <ele>33.71</ele>
        <time>2020-06-20T10:24:39Z</time>
      </trkpt>
      <trkpt lat="47.02923" lon="-1.73634">
        <ele>32.92</ele>
        <time>2020-06-20T10:24:41Z</time>
      </trkpt>
      <trkpt lat="47.02933" lon="-1.73631">
        <ele>32.71</ele>
        <time>2020-06-20T10:24:43Z</time>
      </trkpt>
      <trkpt lat="47.02942" lon="-1.73629">
        <ele>32.11</ele>
        <time>2020-06-20T10:24:45Z</time>
      </trkpt>
      <trkpt lat="47.02951" lon="-1.73626">
        <ele>32.05</ele>
        <time>2020-06-20T10:24:47Z</time>
      </trkpt>
      <trkpt lat="47.02961" lon="-1.73624">
        <ele>31.24</ele>
        <time>2020-06-20T10:24:49Z</time>
      </trkpt>
      <trkpt lat="47.02971" lon="-1.73621">
        <ele>31.14</ele>
        <time>2020-06-20T10:24:51Z</time>
      </trkpt>
      <trkpt lat="47.02981" lon="-1.73618">
        <ele>31.92</ele>
        <time>2020-06-20T10:24:53Z</time>
      </trkpt>
      <trkpt lat="47.02992" lon="-1.73615">
        <ele>31.53</ele>
        <time>2020-06-20T10:24:55Z</time>
      </trkpt>
      <trkpt lat="47.03002" lon="-1.73613">
        <ele>31.56</ele>
        <time>2020-06-20T10:24:57Z</time>
      </trkpt>
      <trkpt lat="47.03012" lon="-1.73611">
        <ele>30.8</ele>
        <time>2020-06-20T10:24:59Z</time>
      </trkpt>
      <trkpt lat="47.03022" lon="-1.73608">
        <ele>29.61</ele>
        <time>2020-06-20T10:25:01Z</time>
      </trkpt>
      <trkpt lat="47.03033" lon="-1.73606">
        <ele>28.17</ele>
        <time>2020-06-20T10:25:03Z</time>
      </trkpt>
      <trkpt lat="47.03044" lon="-1.73603">
        <ele>27.83</ele>
        <time>2020-06-20T10:25:05Z</time>
      </trkpt>
      <trkpt lat="47.03056" lon="-1.736">
        <ele>27.19</ele>
        <time>2020-06-20T10:25:07Z</time>
      </trkpt>
      <trkpt lat="47.03067" lon="-1.73598">
        <ele>26.25</ele>
        <time>2020-06-20T10:25:09Z</time>
      </trkpt>
      <trkpt lat="47.03077" lon="-1.73595">
        <ele>25.71</ele>
        <time>2020-06-20T10:25:11Z</time>
      </trkpt>
      <trkpt lat="47.03083" lon="-1.73583">
        <ele>25.95</ele>
        <time>2020-06-20T10:25:13Z</time>
      </trkpt>
      <trkpt lat="47.03088" lon="-1.73569">
        <ele>26.97</ele>
        <time>2020-06-20T10:25:15Z</time>
      </trkpt>
      <trkpt lat="47.03094" lon="-1.73555">
        <ele>28.7</ele>
        <time>2020-06-20T10:25:17Z</time>
      </trkpt>
      <trkpt lat="47.03099" lon="-1.73537">
        <ele>29.6</ele>
        <time>2020-06-20T10:25:19Z</time>
      </trkpt>
      <trkpt lat="47.03106" lon="-1.73522">
        <ele>29.87</ele>
        <time>2020-06-20T10:25:21Z</time>
      </trkpt>
      <trkpt lat="47.03112" lon="-1.73507">
        <ele>30.24</ele>
        <time>2020-06-20T10:25:23Z</time>
      </trkpt>
      <trkpt lat="47.03117" lon="-1.73493">
        <ele>30.48</ele>
        <time>2020-06-20T10:25:25Z</time>
      </trkpt>
      <trkpt lat="47.03122" lon="-1.73477">
        <ele>30.12</ele>
        <time>2020-06-20T10:25:27Z</time>
      </trkpt>
      <trkpt lat="47.03129" lon="-1.73461">
        <ele>29.54</ele>
        <time>2020-06-20T10:25:29Z</time>
      </trkpt>
      <trkpt lat="47.03135" lon="-1.73447">
        <ele>28.67</ele>
        <time>2020-06-20T10:25:31Z</time>
      </trkpt>
      <trkpt lat="47.03142" lon="-1.73432">
        <ele>28.18</ele>
        <time>2020-06-20T10:25:33Z</time>
      </trkpt>
      <trkpt lat="47.03147" lon="-1.73417">
        <ele>28.41</ele>
        <time>2020-06-20T10:25:35Z</time>
      </trkpt>
      <trkpt lat="47.03151" lon="-1.73402">
        <ele>28.58</ele>
        <time>2020-06-20T10:25:37Z</time>
      </trkpt>
      <trkpt lat="47.03156" lon="-1.73385">
        <ele>28.68</ele>
        <time>2020-06-20T10:25:39Z</time>
      </trkpt>
      <trkpt lat="47.0316" lon="-1.7337">
        <ele>28.72</ele>
        <time>2020-06-20T10:25:41Z</time>
      </trkpt>
      <trkpt lat="47.03164" lon="-1.73354">
        <ele>28.54</ele>
        <time>2020-06-20T10:25:43Z</time>
      </trkpt>
      <trkpt lat="47.03169" lon="-1.7334">
        <ele>28.77</ele>
        <time>2020-06-20T10:25:45Z</time>
      </trkpt>
      <trkpt lat="47.03173" lon="-1.73325">
        <ele>29.35</ele>
        <time>2020-06-20T10:25:47Z</time>
      </trkpt>
      <trkpt lat="47.03179" lon="-1.73312">
        <ele>30.63</ele>
        <time>2020-06-20T10:25:49Z</time>
      </trkpt>
      <trkpt lat="47.03187" lon="-1.73299">
        <ele>31.44</ele>
        <time>2020-06-20T10:25:51Z</time>
      </trkpt>
      <trkpt lat="47.03194" lon="-1.73283">
        <ele>32.85</ele>
        <time>2020-06-20T10:25:53Z</time>
      </trkpt>
      <trkpt lat="47.032" lon="-1.73268">
        <ele>33.44</ele>
        <time>2020-06-20T10:25:55Z</time>
      </trkpt>
      <trkpt lat="47.03205" lon="-1.73253">
        <ele>33.39</ele>
        <time>2020-06-20T10:25:57Z</time>
      </trkpt>
      <trkpt lat="47.0321" lon="-1.73242">
        <ele>33.79</ele>
        <time>2020-06-20T10:25:58Z</time>
      </trkpt>
      <trkpt lat="47.03213" lon="-1.73225">
        <ele>34.34</ele>
        <time>2020-06-20T10:26:00Z</time>
      </trkpt>
      <trkpt lat="47.03217" lon="-1.73209">
        <ele>35.55</ele>
        <time>2020-06-20T10:26:02Z</time>
      </trkpt>
      <trkpt lat="47.03223" lon="-1.73194">
        <ele>36.26</ele>
        <time>2020-06-20T10:26:04Z</time>
      </trkpt>
      <trkpt lat="47.03228" lon="-1.73182">
        <ele>36.78</ele>
        <time>2020-06-20T10:26:06Z</time>
      </trkpt>
      <trkpt lat="47.03234" lon="-1.73167">
        <ele>37.82</ele>
        <time>2020-06-20T10:26:08Z</time>
      </trkpt>
      <trkpt lat="47.03239" lon="-1.73151">
        <ele>38.07</ele>
        <time>2020-06-20T10:26:10Z</time>
      </trkpt>
      <trkpt lat="47.03244" lon="-1.73132">
        <ele>37.17</ele>
        <time>2020-06-20T10:26:12Z</time>
      </trkpt>
      <trkpt lat="47.03246" lon="-1.73116">
        <ele>36.58</ele>
        <time>2020-06-20T10:26:14Z</time>
      </trkpt>
      <trkpt lat="47.03247" lon="-1.73101">
        <ele>36.08</ele>
        <time>2020-06-20T10:26:16Z</time>
      </trkpt>
      <trkpt lat="47.03246" lon="-1.73086">
        <ele>36.24</ele>
        <time>2020-06-20T10:26:18Z</time>
      </trkpt>
      <trkpt lat="47.03246" lon="-1.7307">
        <ele>36.44</ele>
        <time>2020-06-20T10:26:20Z</time>
      </trkpt>
      <trkpt lat="47.03244" lon="-1.73052">
        <ele>35.74</ele>
        <time>2020-06-20T10:26:22Z</time>
      </trkpt>
      <trkpt lat="47.03242" lon="-1.73032">
        <ele>34.93</ele>
        <time>2020-06-20T10:26:24Z</time>
      </trkpt>
      <trkpt lat="47.0324" lon="-1.73014">
        <ele>34.74</ele>
        <time>2020-06-20T10:26:26Z</time>
      </trkpt>
      <trkpt lat="47.03239" lon="-1.72997">
        <ele>34.49</ele>
        <time>2020-06-20T10:26:28Z</time>
      </trkpt>
      <trkpt lat="47.03237" lon="-1.72983">
        <ele>34.38</ele>
        <time>2020-06-20T10:26:30Z</time>
      </trkpt>
      <trkpt lat="47.03237" lon="-1.72967">
        <ele>33.13</ele>
        <time>2020-06-20T10:26:32Z</time>
      </trkpt>
      <trkpt lat="47.0324" lon="-1.72951">
        <ele>31.92</ele>
        <time>2020-06-20T10:26:34Z</time>
      </trkpt>
      <trkpt lat="47.03246" lon="-1.72931">
        <ele>32.18</ele>
        <time>2020-06-20T10:26:36Z</time>
      </trkpt>
      <trkpt lat="47.03247" lon="-1.72913">
        <ele>33.59</ele>
        <time>2020-06-20T10:26:38Z</time>
      </trkpt>
      <trkpt lat="47.03247" lon="-1.72898">
        <ele>34.28</ele>
        <time>2020-06-20T10:26:40Z</time>
      </trkpt>
      <trkpt lat="47.03247" lon="-1.72882">
        <ele>34.11</ele>
        <time>2020-06-20T10:26:42Z</time>
      </trkpt>
      <trkpt lat="47.03247" lon="-1.72864">
        <ele>34.22</ele>
        <time>2020-06-20T10:26:44Z</time>
      </trkpt>
      <trkpt lat="47.03248" lon="-1.72847">
        <ele>34.55</ele>
        <time>2020-06-20T10:26:46Z</time>
      </trkpt>
      <trkpt lat="47.03249" lon="-1.72829">
        <ele>34.3</ele>
        <time>2020-06-20T10:26:48Z</time>
      </trkpt>
      <trkpt lat="47.03249" lon="-1.72813">
        <ele>34.89</ele>
        <time>2020-06-20T10:26:50Z</time>
      </trkpt>
      <trkpt lat="47.03248" lon="-1.72798">
        <ele>34.59</ele>
        <time>2020-06-20T10:26:52Z</time>
      </trkpt>
      <trkpt lat="47.03249" lon="-1.72782">
        <ele>34.41</ele>
        <time>2020-06-20T10:26:54Z</time>
      </trkpt>
      <trkpt lat="47.03249" lon="-1.72766">
        <ele>33.78</ele>
        <time>2020-06-20T10:26:56Z</time>
      </trkpt>
      <trkpt lat="47.03248" lon="-1.72749">
        <ele>33.68</ele>
        <time>2020-06-20T10:26:58Z</time>
      </trkpt>
      <trkpt lat="47.03249" lon="-1.7273">
        <ele>33.94</ele>
        <time>2020-06-20T10:27:00Z</time>
      </trkpt>
      <trkpt lat="47.0325" lon="-1.72717">
        <ele>33.92</ele>
        <time>2020-06-20T10:27:02Z</time>
      </trkpt>
      <trkpt lat="47.03254" lon="-1.72703">
        <ele>33.64</ele>
        <time>2020-06-20T10:27:04Z</time>
      </trkpt>
      <trkpt lat="47.0326" lon="-1.72692">
        <ele>33.77</ele>
        <time>2020-06-20T10:27:06Z</time>
      </trkpt>
      <trkpt lat="47.03271" lon="-1.72677">
        <ele>34.7</ele>
        <time>2020-06-20T10:27:09Z</time>
      </trkpt>
      <trkpt lat="47.03279" lon="-1.72667">
        <ele>34.62</ele>
        <time>2020-06-20T10:27:11Z</time>
      </trkpt>
      <trkpt lat="47.03287" lon="-1.72656">
        <ele>35.34</ele>
        <time>2020-06-20T10:27:13Z</time>
      </trkpt>
      <trkpt lat="47.03296" lon="-1.72645">
        <ele>37.1</ele>
        <time>2020-06-20T10:27:15Z</time>
      </trkpt>
      <trkpt lat="47.03306" lon="-1.72633">
        <ele>36.66</ele>
        <time>2020-06-20T10:27:17Z</time>
      </trkpt>
      <trkpt lat="47.03316" lon="-1.72623">
        <ele>35.98</ele>
        <time>2020-06-20T10:27:19Z</time>
      </trkpt>
      <trkpt lat="47.03327" lon="-1.72613">
        <ele>35.49</ele>
        <time>2020-06-20T10:27:21Z</time>
      </trkpt>
      <trkpt lat="47.03339" lon="-1.72602">
        <ele>34.65</ele>
        <time>2020-06-20T10:27:23Z</time>
      </trkpt>
      <trkpt lat="47.03348" lon="-1.72592">
        <ele>34.8</ele>
        <time>2020-06-20T10:27:25Z</time>
      </trkpt>
      <trkpt lat="47.03357" lon="-1.72583">
        <ele>34.7</ele>
        <time>2020-06-20T10:27:27Z</time>
      </trkpt>
      <trkpt lat="47.03366" lon="-1.72572">
        <ele>34.84</ele>
        <time>2020-06-20T10:27:29Z</time>
      </trkpt>
      <trkpt lat="47.03375" lon="-1.72561">
        <ele>35.52</ele>
        <time>2020-06-20T10:27:31Z</time>
      </trkpt>
      <trkpt lat="47.03383" lon="-1.7255">
        <ele>35.27</ele>
        <time>2020-06-20T10:27:33Z</time>
      </trkpt>
      <trkpt lat="47.03392" lon="-1.72538">
        <ele>34.51</ele>
        <time>2020-06-20T10:27:35Z</time>
      </trkpt>
      <trkpt lat="47.03399" lon="-1.72527">
        <ele>34.33</ele>
        <time>2020-06-20T10:27:37Z</time>
      </trkpt>
      <trkpt lat="47.03407" lon="-1.72516">
        <ele>34.17</ele>
        <time>2020-06-20T10:27:39Z</time>
      </trkpt>
      <trkpt lat="47.03416" lon="-1.72503">
        <ele>34.64</ele>
        <time>2020-06-20T10:27:41Z</time>
      </trkpt>
      <trkpt lat="47.03426" lon="-1.7249">
        <ele>34.9</ele>
        <time>2020-06-20T10:27:43Z</time>
      </trkpt>
      <trkpt lat="47.03436" lon="-1.72478">
        <ele>34.66</ele>
        <time>2020-06-20T10:27:45Z</time>
      </trkpt>
      <trkpt lat="47.03445" lon="-1.72467">
        <ele>34.06</ele>
        <time>2020-06-20T10:27:47Z</time>
      </trkpt>
      <trkpt lat="47.03452" lon="-1.72456">
        <ele>33.52</ele>
        <time>2020-06-20T10:27:49Z</time>
      </trkpt>
      <trkpt lat="47.03461" lon="-1.7244">
        <ele>33.65</ele>
        <time>2020-06-20T10:27:52Z</time>
      </trkpt>
      <trkpt lat="47.03469" lon="-1.72428">
        <ele>34.93</ele>
        <time>2020-06-20T10:27:54Z</time>
      </trkpt>
      <trkpt lat="47.03477" lon="-1.72414">
        <ele>34.86</ele>
        <time>2020-06-20T10:27:56Z</time>
      </trkpt>
      <trkpt lat="47.03485" lon="-1.72404">
        <ele>34.35</ele>
        <time>2020-06-20T10:27:58Z</time>
      </trkpt>
      <trkpt lat="47.03496" lon="-1.72393">
        <ele>34.44</ele>
        <time>2020-06-20T10:28:00Z</time>
      </trkpt>
      <trkpt lat="47.03507" lon="-1.72382">
        <ele>34.53</ele>
        <time>2020-06-20T10:28:02Z</time>
      </trkpt>
      <trkpt lat="47.03517" lon="-1.72372">
        <ele>33.97</ele>
        <time>2020-06-20T10:28:04Z</time>
      </trkpt>
      <trkpt lat="47.03528" lon="-1.72363">
        <ele>34.12</ele>
        <time>2020-06-20T10:28:06Z</time>
      </trkpt>
      <trkpt lat="47.03538" lon="-1.72354">
        <ele>33.66</ele>
        <time>2020-06-20T10:28:08Z</time>
      </trkpt>
      <trkpt lat="47.03547" lon="-1.72345">
        <ele>33.77</ele>
        <time>2020-06-20T10:28:10Z</time>
      </trkpt>
      <trkpt lat="47.03557" lon="-1.72338">
        <ele>33.99</ele>
        <time>2020-06-20T10:28:12Z</time>
      </trkpt>
      <trkpt lat="47.03567" lon="-1.72327">
        <ele>33.67</ele>
        <time>2020-06-20T10:28:14Z</time>
      </trkpt>
      <trkpt lat="47.03576" lon="-1.72318">
        <ele>34.02</ele>
        <time>2020-06-20T10:28:16Z</time>
      </trkpt>
      <trkpt lat="47.03585" lon="-1.7231">
        <ele>33.65</ele>
        <time>2020-06-20T10:28:18Z</time>
      </trkpt>
      <trkpt lat="47.03594" lon="-1.72301">
        <ele>33.44</ele>
        <time>2020-06-20T10:28:20Z</time>
      </trkpt>
      <trkpt lat="47.03603" lon="-1.72293">
        <ele>33.56</ele>
        <time>2020-06-20T10:28:22Z</time>
      </trkpt>
      <trkpt lat="47.03613" lon="-1.72286">
        <ele>33.34</ele>
        <time>2020-06-20T10:28:24Z</time>
      </trkpt>
      <trkpt lat="47.03624" lon="-1.72276">
        <ele>33.94</ele>
        <time>2020-06-20T10:28:26Z</time>
      </trkpt>
      <trkpt lat="47.03635" lon="-1.72267">
        <ele>34.77</ele>
        <time>2020-06-20T10:28:28Z</time>
      </trkpt>
      <trkpt lat="47.03645" lon="-1.72257">
        <ele>36.44</ele>
        <time>2020-06-20T10:28:30Z</time>
      </trkpt>
      <trkpt lat="47.03654" lon="-1.72249">
        <ele>36.56</ele>
        <time>2020-06-20T10:28:32Z</time>
      </trkpt>
      <trkpt lat="47.03663" lon="-1.72241">
        <ele>36.51</ele>
        <time>2020-06-20T10:28:34Z</time>
      </trkpt>
      <trkpt lat="47.03674" lon="-1.72235">
        <ele>36.02</ele>
        <time>2020-06-20T10:28:36Z</time>
      </trkpt>
      <trkpt lat="47.03684" lon="-1.72227">
        <ele>35.88</ele>
        <time>2020-06-20T10:28:38Z</time>
      </trkpt>
      <trkpt lat="47.03693" lon="-1.72218">
        <ele>36.1</ele>
        <time>2020-06-20T10:28:40Z</time>
      </trkpt>
      <trkpt lat="47.03703" lon="-1.7221">
        <ele>35.26</ele>
        <time>2020-06-20T10:28:42Z</time>
      </trkpt>
      <trkpt lat="47.03713" lon="-1.72201">
        <ele>35.46</ele>
        <time>2020-06-20T10:28:44Z</time>
      </trkpt>
      <trkpt lat="47.03723" lon="-1.72193">
        <ele>35.81</ele>
        <time>2020-06-20T10:28:46Z</time>
      </trkpt>
      <trkpt lat="47.03735" lon="-1.72185">
        <ele>35.79</ele>
        <time>2020-06-20T10:28:48Z</time>
      </trkpt>
      <trkpt lat="47.03747" lon="-1.72179">
        <ele>34.97</ele>
        <time>2020-06-20T10:28:50Z</time>
      </trkpt>
      <trkpt lat="47.0376" lon="-1.72179">
        <ele>34.17</ele>
        <time>2020-06-20T10:28:52Z</time>
      </trkpt>
      <trkpt lat="47.03772" lon="-1.72183">
        <ele>33.03</ele>
        <time>2020-06-20T10:28:54Z</time>
      </trkpt>
      <trkpt lat="47.03782" lon="-1.72193">
        <ele>31.75</ele>
        <time>2020-06-20T10:28:56Z</time>
      </trkpt>
      <trkpt lat="47.03789" lon="-1.72206">
        <ele>31.41</ele>
        <time>2020-06-20T10:28:58Z</time>
      </trkpt>
      <trkpt lat="47.03798" lon="-1.72218">
        <ele>30.88</ele>
        <time>2020-06-20T10:29:00Z</time>
      </trkpt>
      <trkpt lat="47.03809" lon="-1.72229">
        <ele>30.59</ele>
        <time>2020-06-20T10:29:02Z</time>
      </trkpt>
      <trkpt lat="47.0382" lon="-1.72231">
        <ele>30.03</ele>
        <time>2020-06-20T10:29:04Z</time>
      </trkpt>
      <trkpt lat="47.03832" lon="-1.72228">
        <ele>29.79</ele>
        <time>2020-06-20T10:29:06Z</time>
      </trkpt>
      <trkpt lat="47.03844" lon="-1.72224">
        <ele>30.01</ele>
        <time>2020-06-20T10:29:08Z</time>
      </trkpt>
      <trkpt lat="47.03855" lon="-1.7222">
        <ele>29.82</ele>
        <time>2020-06-20T10:29:10Z</time>
      </trkpt>
      <trkpt lat="47.03865" lon="-1.72218">
        <ele>29.31</ele>
        <time>2020-06-20T10:29:12Z</time>
      </trkpt>
      <trkpt lat="47.03876" lon="-1.72214">
        <ele>29.88</ele>
        <time>2020-06-20T10:29:14Z</time>
      </trkpt>
      <trkpt lat="47.03887" lon="-1.7221">
        <ele>29.42</ele>
        <time>2020-06-20T10:29:16Z</time>
      </trkpt>
      <trkpt lat="47.03897" lon="-1.72206">
        <ele>29.83</ele>
        <time>2020-06-20T10:29:18Z</time>
      </trkpt>
      <trkpt lat="47.03907" lon="-1.72203">
        <ele>30.76</ele>
        <time>2020-06-20T10:29:20Z</time>
      </trkpt>
      <trkpt lat="47.03919" lon="-1.72202">
        <ele>31.82</ele>
        <time>2020-06-20T10:29:22Z</time>
      </trkpt>
      <trkpt lat="47.03932" lon="-1.722">
        <ele>32.49</ele>
        <time>2020-06-20T10:29:24Z</time>
      </trkpt>
      <trkpt lat="47.03943" lon="-1.72199">
        <ele>32.59</ele>
        <time>2020-06-20T10:29:26Z</time>
      </trkpt>
      <trkpt lat="47.03955" lon="-1.72198">
        <ele>32.58</ele>
        <time>2020-06-20T10:29:28Z</time>
      </trkpt>
      <trkpt lat="47.03967" lon="-1.72199">
        <ele>31.78</ele>
        <time>2020-06-20T10:29:30Z</time>
      </trkpt>
      <trkpt lat="47.03979" lon="-1.722">
        <ele>30.84</ele>
        <time>2020-06-20T10:29:32Z</time>
      </trkpt>
      <trkpt lat="47.03988" lon="-1.72195">
        <ele>30.74</ele>
        <time>2020-06-20T10:29:35Z</time>
      </trkpt>
      <trkpt lat="47.0399" lon="-1.72178">
        <ele>30.92</ele>
        <time>2020-06-20T10:29:38Z</time>
      </trkpt>
      <trkpt lat="47.03991" lon="-1.72162">
        <ele>30.52</ele>
        <time>2020-06-20T10:29:40Z</time>
      </trkpt>
      <trkpt lat="47.03995" lon="-1.72145">
        <ele>30.12</ele>
        <time>2020-06-20T10:29:42Z</time>
      </trkpt>
      <trkpt lat="47.04002" lon="-1.72132">
        <ele>29.43</ele>
        <time>2020-06-20T10:29:44Z</time>
      </trkpt>
      <trkpt lat="47.0401" lon="-1.72122">
        <ele>29.58</ele>
        <time>2020-06-20T10:29:46Z</time>
      </trkpt>
      <trkpt lat="47.04019" lon="-1.72112">
        <ele>30.09</ele>
        <time>2020-06-20T10:29:48Z</time>
      </trkpt>
      <trkpt lat="47.04029" lon="-1.72104">
        <ele>31.51</ele>
        <time>2020-06-20T10:29:50Z</time>
      </trkpt>
      <trkpt lat="47.04038" lon="-1.72098">
        <ele>32.89</ele>
        <time>2020-06-20T10:29:52Z</time>
      </trkpt>
      <trkpt lat="47.04046" lon="-1.72092">
        <ele>32.32</ele>
        <time>2020-06-20T10:29:54Z</time>
      </trkpt>
      <trkpt lat="47.04057" lon="-1.72083">
        <ele>33.25</ele>
        <time>2020-06-20T10:29:56Z</time>
      </trkpt>
      <trkpt lat="47.04067" lon="-1.72075">
        <ele>34.55</ele>
        <time>2020-06-20T10:29:58Z</time>
      </trkpt>
      <trkpt lat="47.04078" lon="-1.72067">
        <ele>34.46</ele>
        <time>2020-06-20T10:30:00Z</time>
      </trkpt>
      <trkpt lat="47.04089" lon="-1.7206">
        <ele>34.37</ele>
        <time>2020-06-20T10:30:02Z</time>
      </trkpt>
      <trkpt lat="47.041" lon="-1.72052">
        <ele>33.23</ele>
        <time>2020-06-20T10:30:04Z</time>
      </trkpt>
      <trkpt lat="47.04111" lon="-1.72045">
        <ele>31.27</ele>
        <time>2020-06-20T10:30:06Z</time>
      </trkpt>
      <trkpt lat="47.04121" lon="-1.72038">
        <ele>30.58</ele>
        <time>2020-06-20T10:30:08Z</time>
      </trkpt>
      <trkpt lat="47.04131" lon="-1.7203">
        <ele>30.08</ele>
        <time>2020-06-20T10:30:10Z</time>
      </trkpt>
      <trkpt lat="47.04142" lon="-1.72023">
        <ele>30.72</ele>
        <time>2020-06-20T10:30:12Z</time>
      </trkpt>
      <trkpt lat="47.04151" lon="-1.72016">
        <ele>31.67</ele>
        <time>2020-06-20T10:30:14Z</time>
      </trkpt>
      <trkpt lat="47.04162" lon="-1.72008">
        <ele>32.32</ele>
        <time>2020-06-20T10:30:16Z</time>
      </trkpt>
      <trkpt lat="47.04172" lon="-1.72002">
        <ele>32.31</ele>
        <time>2020-06-20T10:30:18Z</time>
      </trkpt>
      <trkpt lat="47.04181" lon="-1.71994">
        <ele>32.22</ele>
        <time>2020-06-20T10:30:20Z</time>
      </trkpt>
      <trkpt lat="47.04192" lon="-1.71986">
        <ele>32.54</ele>
        <time>2020-06-20T10:30:22Z</time>
      </trkpt>
      <trkpt lat="47.04201" lon="-1.71979">
        <ele>33.03</ele>
        <time>2020-06-20T10:30:24Z</time>
      </trkpt>
      <trkpt lat="47.0421" lon="-1.71971">
        <ele>33.5</ele>
        <time>2020-06-20T10:30:26Z</time>
      </trkpt>
      <trkpt lat="47.04218" lon="-1.71965">
        <ele>33.77</ele>
        <time>2020-06-20T10:30:28Z</time>
      </trkpt>
      <trkpt lat="47.04228" lon="-1.71957">
        <ele>34.12</ele>
        <time>2020-06-20T10:30:30Z</time>
      </trkpt>
      <trkpt lat="47.04237" lon="-1.71952">
        <ele>35.01</ele>
        <time>2020-06-20T10:30:32Z</time>
      </trkpt>
      <trkpt lat="47.04248" lon="-1.71946">
        <ele>35.28</ele>
        <time>2020-06-20T10:30:34Z</time>
      </trkpt>
      <trkpt lat="47.04259" lon="-1.71942">
        <ele>35.77</ele>
        <time>2020-06-20T10:30:36Z</time>
      </trkpt>
      <trkpt lat="47.04269" lon="-1.71938">
        <ele>36.51</ele>
        <time>2020-06-20T10:30:38Z</time>
      </trkpt>
      <trkpt lat="47.04279" lon="-1.71935">
        <ele>37.97</ele>
        <time>2020-06-20T10:30:40Z</time>
      </trkpt>
      <trkpt lat="47.0429" lon="-1.71931">
        <ele>39.74</ele>
        <time>2020-06-20T10:30:42Z</time>
      </trkpt>
      <trkpt lat="47.043" lon="-1.71927">
        <ele>39.46</ele>
        <time>2020-06-20T10:30:44Z</time>
      </trkpt>
      <trkpt lat="47.0431" lon="-1.71924">
        <ele>38.23</ele>
        <time>2020-06-20T10:30:46Z</time>
      </trkpt>
      <trkpt lat="47.0432" lon="-1.71921">
        <ele>37.73</ele>
        <time>2020-06-20T10:30:48Z</time>
      </trkpt>
      <trkpt lat="47.04331" lon="-1.71917">
        <ele>37.84</ele>
        <time>2020-06-20T10:30:50Z</time>
      </trkpt>
      <trkpt lat="47.04342" lon="-1.71913">
        <ele>37.66</ele>
        <time>2020-06-20T10:30:52Z</time>
      </trkpt>
      <trkpt lat="47.04352" lon="-1.71909">
        <ele>38.33</ele>
        <time>2020-06-20T10:30:54Z</time>
      </trkpt>
      <trkpt lat="47.04362" lon="-1.71904">
        <ele>39.43</ele>
        <time>2020-06-20T10:30:56Z</time>
      </trkpt>
      <trkpt lat="47.04373" lon="-1.71898">
        <ele>39.93</ele>
        <time>2020-06-20T10:30:58Z</time>
      </trkpt>
      <trkpt lat="47.04382" lon="-1.71891">
        <ele>41.13</ele>
        <time>2020-06-20T10:31:00Z</time>
      </trkpt>
      <trkpt lat="47.04391" lon="-1.71881">
        <ele>41.2</ele>
        <time>2020-06-20T10:31:02Z</time>
      </trkpt>
      <trkpt lat="47.044" lon="-1.71867">
        <ele>40.3</ele>
        <time>2020-06-20T10:31:04Z</time>
      </trkpt>
      <trkpt lat="47.04409" lon="-1.71854">
        <ele>40.66</ele>
        <time>2020-06-20T10:31:06Z</time>
      </trkpt>
      <trkpt lat="47.04418" lon="-1.71841">
        <ele>40.04</ele>
        <time>2020-06-20T10:31:08Z</time>
      </trkpt>
      <trkpt lat="47.04426" lon="-1.71831">
        <ele>39.15</ele>
        <time>2020-06-20T10:31:10Z</time>
      </trkpt>
      <trkpt lat="47.04436" lon="-1.71818">
        <ele>38.78</ele>
        <time>2020-06-20T10:31:12Z</time>
      </trkpt>
      <trkpt lat="47.04445" lon="-1.71807">
        <ele>39.42</ele>
        <time>2020-06-20T10:31:14Z</time>
      </trkpt>
      <trkpt lat="47.04454" lon="-1.71796">
        <ele>39.45</ele>
        <time>2020-06-20T10:31:17Z</time>
      </trkpt>
      <trkpt lat="47.04459" lon="-1.71778">
        <ele>39.53</ele>
        <time>2020-06-20T10:31:21Z</time>
      </trkpt>
      <trkpt lat="47.04466" lon="-1.71766">
        <ele>39.25</ele>
        <time>2020-06-20T10:31:23Z</time>
      </trkpt>
      <trkpt lat="47.04475" lon="-1.71755">
        <ele>38.88</ele>
        <time>2020-06-20T10:31:25Z</time>
      </trkpt>
      <trkpt lat="47.04487" lon="-1.71741">
        <ele>37.79</ele>
        <time>2020-06-20T10:31:27Z</time>
      </trkpt>
      <trkpt lat="47.04498" lon="-1.71728">
        <ele>36.49</ele>
        <time>2020-06-20T10:31:29Z</time>
      </trkpt>
      <trkpt lat="47.04509" lon="-1.71713">
        <ele>34.6</ele>
        <time>2020-06-20T10:31:31Z</time>
      </trkpt>
      <trkpt lat="47.04521" lon="-1.71697">
        <ele>33.02</ele>
        <time>2020-06-20T10:31:33Z</time>
      </trkpt>
      <trkpt lat="47.04532" lon="-1.71681">
        <ele>31.62</ele>
        <time>2020-06-20T10:31:35Z</time>
      </trkpt>
      <trkpt lat="47.04544" lon="-1.71665">
        <ele>31.03</ele>
        <time>2020-06-20T10:31:37Z</time>
      </trkpt>
      <trkpt lat="47.04551" lon="-1.71656">
        <ele>30.3</ele>
        <time>2020-06-20T10:31:38Z</time>
      </trkpt>
      <trkpt lat="47.04565" lon="-1.71639">
        <ele>29.7</ele>
        <time>2020-06-20T10:31:40Z</time>
      </trkpt>
      <trkpt lat="47.04579" lon="-1.71624">
        <ele>28.4</ele>
        <time>2020-06-20T10:31:42Z</time>
      </trkpt>
      <trkpt lat="47.04593" lon="-1.71608">
        <ele>27.94</ele>
        <time>2020-06-20T10:31:44Z</time>
      </trkpt>
      <trkpt lat="47.04606" lon="-1.71593">
        <ele>27.3</ele>
        <time>2020-06-20T10:31:46Z</time>
      </trkpt>
      <trkpt lat="47.04618" lon="-1.71578">
        <ele>27.79</ele>
        <time>2020-06-20T10:31:48Z</time>
      </trkpt>
      <trkpt lat="47.04631" lon="-1.71562">
        <ele>27.69</ele>
        <time>2020-06-20T10:31:50Z</time>
      </trkpt>
      <trkpt lat="47.04642" lon="-1.71547">
        <ele>27.32</ele>
        <time>2020-06-20T10:31:52Z</time>
      </trkpt>
      <trkpt lat="47.04654" lon="-1.71532">
        <ele>26.88</ele>
        <time>2020-06-20T10:31:54Z</time>
      </trkpt>
      <trkpt lat="47.04664" lon="-1.71515">
        <ele>26.3</ele>
        <time>2020-06-20T10:31:56Z</time>
      </trkpt>
      <trkpt lat="47.04676" lon="-1.71498">
        <ele>26.17</ele>
        <time>2020-06-20T10:31:58Z</time>
      </trkpt>
      <trkpt lat="47.04685" lon="-1.71481">
        <ele>26.24</ele>
        <time>2020-06-20T10:32:00Z</time>
      </trkpt>
      <trkpt lat="47.04694" lon="-1.71465">
        <ele>25.85</ele>
        <time>2020-06-20T10:32:02Z</time>
      </trkpt>
      <trkpt lat="47.04702" lon="-1.7145">
        <ele>25.31</ele>
        <time>2020-06-20T10:32:04Z</time>
      </trkpt>
      <trkpt lat="47.04711" lon="-1.71435">
        <ele>25.82</ele>
        <time>2020-06-20T10:32:06Z</time>
      </trkpt>
      <trkpt lat="47.0472" lon="-1.7142">
        <ele>26.13</ele>
        <time>2020-06-20T10:32:08Z</time>
      </trkpt>
      <trkpt lat="47.04729" lon="-1.71405">
        <ele>26.18</ele>
        <time>2020-06-20T10:32:10Z</time>
      </trkpt>
      <trkpt lat="47.0474" lon="-1.71388">
        <ele>25.63</ele>
        <time>2020-06-20T10:32:12Z</time>
      </trkpt>
      <trkpt lat="47.04751" lon="-1.71371">
        <ele>24.76</ele>
        <time>2020-06-20T10:32:14Z</time>
      </trkpt>
      <trkpt lat="47.04761" lon="-1.71354">
        <ele>24.08</ele>
        <time>2020-06-20T10:32:16Z</time>
      </trkpt>
      <trkpt lat="47.0477" lon="-1.71336">
        <ele>23.41</ele>
        <time>2020-06-20T10:32:18Z</time>
      </trkpt>
      <trkpt lat="47.04779" lon="-1.71318">
        <ele>22.86</ele>
        <time>2020-06-20T10:32:20Z</time>
      </trkpt>
      <trkpt lat="47.04788" lon="-1.71299">
        <ele>22.16</ele>
        <time>2020-06-20T10:32:22Z</time>
      </trkpt>
      <trkpt lat="47.04797" lon="-1.71279">
        <ele>21.64</ele>
        <time>2020-06-20T10:32:24Z</time>
      </trkpt>
      <trkpt lat="47.04805" lon="-1.71259">
        <ele>21.45</ele>
        <time>2020-06-20T10:32:26Z</time>
      </trkpt>
      <trkpt lat="47.04814" lon="-1.71238">
        <ele>21.66</ele>
        <time>2020-06-20T10:32:28Z</time>
      </trkpt>
      <trkpt lat="47.04821" lon="-1.71216">
        <ele>21.58</ele>
        <time>2020-06-20T10:32:30Z</time>
      </trkpt>
      <trkpt lat="47.04829" lon="-1.71195">
        <ele>21.8</ele>
        <time>2020-06-20T10:32:32Z</time>
      </trkpt>
      <trkpt lat="47.04836" lon="-1.71176">
        <ele>22.25</ele>
        <time>2020-06-20T10:32:34Z</time>
      </trkpt>
      <trkpt lat="47.04843" lon="-1.71155">
        <ele>21.69</ele>
        <time>2020-06-20T10:32:36Z</time>
      </trkpt>
      <trkpt lat="47.0485" lon="-1.71137">
        <ele>20.9</ele>
        <time>2020-06-20T10:32:38Z</time>
      </trkpt>
      <trkpt lat="47.04857" lon="-1.71116">
        <ele>19.96</ele>
        <time>2020-06-20T10:32:40Z</time>
      </trkpt>
      <trkpt lat="47.04862" lon="-1.71097">
        <ele>18.24</ele>
        <time>2020-06-20T10:32:42Z</time>
      </trkpt>
      <trkpt lat="47.04868" lon="-1.71073">
        <ele>16.71</ele>
        <time>2020-06-20T10:32:44Z</time>
      </trkpt>
      <trkpt lat="47.04873" lon="-1.71049">
        <ele>16.15</ele>
        <time>2020-06-20T10:32:46Z</time>
      </trkpt>
      <trkpt lat="47.04878" lon="-1.71026">
        <ele>15.75</ele>
        <time>2020-06-20T10:32:48Z</time>
      </trkpt>
      <trkpt lat="47.04883" lon="-1.71005">
        <ele>15.68</ele>
        <time>2020-06-20T10:32:50Z</time>
      </trkpt>
      <trkpt lat="47.04889" lon="-1.70986">
        <ele>14.37</ele>
        <time>2020-06-20T10:32:52Z</time>
      </trkpt>
      <trkpt lat="47.04894" lon="-1.70963">
        <ele>12.31</ele>
        <time>2020-06-20T10:32:54Z</time>
      </trkpt>
      <trkpt lat="47.049" lon="-1.7094">
        <ele>11.5</ele>
        <time>2020-06-20T10:32:56Z</time>
      </trkpt>
      <trkpt lat="47.04903" lon="-1.70927">
        <ele>11.29</ele>
        <time>2020-06-20T10:32:57Z</time>
      </trkpt>
      <trkpt lat="47.04909" lon="-1.70907">
        <ele>10.54</ele>
        <time>2020-06-20T10:32:59Z</time>
      </trkpt>
      <trkpt lat="47.04914" lon="-1.70886">
        <ele>11.09</ele>
        <time>2020-06-20T10:33:01Z</time>
      </trkpt>
      <trkpt lat="47.04919" lon="-1.70863">
        <ele>11.19</ele>
        <time>2020-06-20T10:33:03Z</time>
      </trkpt>
      <trkpt lat="47.04928" lon="-1.70842">
        <ele>11.34</ele>
        <time>2020-06-20T10:33:05Z</time>
      </trkpt>
      <trkpt lat="47.04932" lon="-1.7082">
        <ele>11.05</ele>
        <time>2020-06-20T10:33:07Z</time>
      </trkpt>
      <trkpt lat="47.04937" lon="-1.70801">
        <ele>10.69</ele>
        <time>2020-06-20T10:33:09Z</time>
      </trkpt>
      <trkpt lat="47.04942" lon="-1.70781">
        <ele>10.74</ele>
        <time>2020-06-20T10:33:11Z</time>
      </trkpt>
      <trkpt lat="47.04948" lon="-1.7076">
        <ele>11.05</ele>
        <time>2020-06-20T10:33:13Z</time>
      </trkpt>
      <trkpt lat="47.04952" lon="-1.70741">
        <ele>10.79</ele>
        <time>2020-06-20T10:33:15Z</time>
      </trkpt>
      <trkpt lat="47.04955" lon="-1.70724">
        <ele>10.53</ele>
        <time>2020-06-20T10:33:17Z</time>
      </trkpt>
      <trkpt lat="47.04958" lon="-1.70704">
        <ele>10.08</ele>
        <time>2020-06-20T10:33:19Z</time>
      </trkpt>
      <trkpt lat="47.04961" lon="-1.70683">
        <ele>9.56</ele>
        <time>2020-06-20T10:33:21Z</time>
      </trkpt>
      <trkpt lat="47.04964" lon="-1.70662">
        <ele>8.32</ele>
        <time>2020-06-20T10:33:23Z</time>
      </trkpt>
      <trkpt lat="47.04967" lon="-1.70641">
        <ele>7.81</ele>
        <time>2020-06-20T10:33:25Z</time>
      </trkpt>
      <trkpt lat="47.04971" lon="-1.70622">
        <ele>6.52</ele>
        <time>2020-06-20T10:33:27Z</time>
      </trkpt>
      <trkpt lat="47.04975" lon="-1.70603">
        <ele>5.95</ele>
        <time>2020-06-20T10:33:29Z</time>
      </trkpt>
      <trkpt lat="47.04981" lon="-1.70586">
        <ele>6.53</ele>
        <time>2020-06-20T10:33:31Z</time>
      </trkpt>
      <trkpt lat="47.04987" lon="-1.70569">
        <ele>6.29</ele>
        <time>2020-06-20T10:33:33Z</time>
      </trkpt>
      <trkpt lat="47.04994" lon="-1.70551">
        <ele>6.28</ele>
        <time>2020-06-20T10:33:35Z</time>
      </trkpt>
      <trkpt lat="47.05001" lon="-1.70532">
        <ele>5.84</ele>
        <time>2020-06-20T10:33:37Z</time>
      </trkpt>
      <trkpt lat="47.05008" lon="-1.70515">
        <ele>6.27</ele>
        <time>2020-06-20T10:33:39Z</time>
      </trkpt>
      <trkpt lat="47.05015" lon="-1.70497">
        <ele>6.67</ele>
        <time>2020-06-20T10:33:41Z</time>
      </trkpt>
      <trkpt lat="47.05022" lon="-1.70479">
        <ele>6.73</ele>
        <time>2020-06-20T10:33:43Z</time>
      </trkpt>
      <trkpt lat="47.05029" lon="-1.70462">
        <ele>6.66</ele>
        <time>2020-06-20T10:33:45Z</time>
      </trkpt>
      <trkpt lat="47.05036" lon="-1.70447">
        <ele>7.33</ele>
        <time>2020-06-20T10:33:47Z</time>
      </trkpt>
      <trkpt lat="47.05043" lon="-1.7043">
        <ele>8.12</ele>
        <time>2020-06-20T10:33:49Z</time>
      </trkpt>
      <trkpt lat="47.05051" lon="-1.70415">
        <ele>8.53</ele>
        <time>2020-06-20T10:33:51Z</time>
      </trkpt>
      <trkpt lat="47.0506" lon="-1.70399">
        <ele>9.34</ele>
        <time>2020-06-20T10:33:53Z</time>
      </trkpt>
      <trkpt lat="47.05069" lon="-1.70382">
        <ele>9.77</ele>
        <time>2020-06-20T10:33:55Z</time>
      </trkpt>
      <trkpt lat="47.05077" lon="-1.70366">
        <ele>9.4</ele>
        <time>2020-06-20T10:33:57Z</time>
      </trkpt>
      <trkpt lat="47.05085" lon="-1.70352">
        <ele>9.54</ele>
        <time>2020-06-20T10:33:59Z</time>
      </trkpt>
      <trkpt lat="47.05096" lon="-1.70336">
        <ele>10.12</ele>
        <time>2020-06-20T10:34:01Z</time>
      </trkpt>
      <trkpt lat="47.05106" lon="-1.70322">
        <ele>10.88</ele>
        <time>2020-06-20T10:34:03Z</time>
      </trkpt>
      <trkpt lat="47.05116" lon="-1.70309">
        <ele>10.98</ele>
        <time>2020-06-20T10:34:05Z</time>
      </trkpt>
      <trkpt lat="47.05126" lon="-1.70296">
        <ele>10.24</ele>
        <time>2020-06-20T10:34:07Z</time>
      </trkpt>
      <trkpt lat="47.05132" lon="-1.70282">
        <ele>10.18</ele>
        <time>2020-06-20T10:34:09Z</time>
      </trkpt>
      <trkpt lat="47.05145" lon="-1.7027">
        <ele>9.83</ele>
        <time>2020-06-20T10:34:11Z</time>
      </trkpt>
      <trkpt lat="47.05157" lon="-1.70258">
        <ele>9.93</ele>
        <time>2020-06-20T10:34:13Z</time>
      </trkpt>
      <trkpt lat="47.05168" lon="-1.70248">
        <ele>9.16</ele>
        <time>2020-06-20T10:34:15Z</time>
      </trkpt>
      <trkpt lat="47.05178" lon="-1.70236">
        <ele>8.49</ele>
        <time>2020-06-20T10:34:17Z</time>
      </trkpt>
      <trkpt lat="47.05188" lon="-1.70223">
        <ele>8.01</ele>
        <time>2020-06-20T10:34:19Z</time>
      </trkpt>
      <trkpt lat="47.05198" lon="-1.70212">
        <ele>7.99</ele>
        <time>2020-06-20T10:34:21Z</time>
      </trkpt>
      <trkpt lat="47.05208" lon="-1.70202">
        <ele>8.44</ele>
        <time>2020-06-20T10:34:23Z</time>
      </trkpt>
      <trkpt lat="47.05217" lon="-1.70191">
        <ele>8.61</ele>
        <time>2020-06-20T10:34:25Z</time>
      </trkpt>
      <trkpt lat="47.05226" lon="-1.7018">
        <ele>7.65</ele>
        <time>2020-06-20T10:34:27Z</time>
      </trkpt>
      <trkpt lat="47.05235" lon="-1.7017">
        <ele>6.65</ele>
        <time>2020-06-20T10:34:29Z</time>
      </trkpt>
      <trkpt lat="47.05243" lon="-1.70162">
        <ele>5.66</ele>
        <time>2020-06-20T10:34:31Z</time>
      </trkpt>
      <trkpt lat="47.05248" lon="-1.7015">
        <ele>5.25</ele>
        <time>2020-06-20T10:34:33Z</time>
      </trkpt>
      <trkpt lat="47.05244" lon="-1.70135">
        <ele>5.49</ele>
        <time>2020-06-20T10:34:35Z</time>
      </trkpt>
      <trkpt lat="47.05239" lon="-1.70121">
        <ele>5.94</ele>
        <time>2020-06-20T10:34:37Z</time>
      </trkpt>
      <trkpt lat="47.05232" lon="-1.70104">
        <ele>6</ele>
        <time>2020-06-20T10:34:39Z</time>
      </trkpt>
      <trkpt lat="47.05225" lon="-1.70084">
        <ele>5.86</ele>
        <time>2020-06-20T10:34:41Z</time>
      </trkpt>
      <trkpt lat="47.05218" lon="-1.70067">
        <ele>6.03</ele>
        <time>2020-06-20T10:34:43Z</time>
      </trkpt>
      <trkpt lat="47.05213" lon="-1.70051">
        <ele>5.9</ele>
        <time>2020-06-20T10:34:45Z</time>
      </trkpt>
      <trkpt lat="47.05207" lon="-1.70036">
        <ele>5.87</ele>
        <time>2020-06-20T10:34:47Z</time>
      </trkpt>
      <trkpt lat="47.052" lon="-1.70017">
        <ele>5.54</ele>
        <time>2020-06-20T10:34:49Z</time>
      </trkpt>
      <trkpt lat="47.05193" lon="-1.69999">
        <ele>5.06</ele>
        <time>2020-06-20T10:34:51Z</time>
      </trkpt>
      <trkpt lat="47.05186" lon="-1.69981">
        <ele>5.36</ele>
        <time>2020-06-20T10:34:53Z</time>
      </trkpt>
      <trkpt lat="47.05179" lon="-1.69965">
        <ele>5.48</ele>
        <time>2020-06-20T10:34:55Z</time>
      </trkpt>
      <trkpt lat="47.05171" lon="-1.69945">
        <ele>5.61</ele>
        <time>2020-06-20T10:34:57Z</time>
      </trkpt>
      <trkpt lat="47.05164" lon="-1.69922">
        <ele>6.1</ele>
        <time>2020-06-20T10:34:59Z</time>
      </trkpt>
      <trkpt lat="47.0516" lon="-1.699">
        <ele>5.23</ele>
        <time>2020-06-20T10:35:01Z</time>
      </trkpt>
      <trkpt lat="47.05158" lon="-1.69881">
        <ele>4.46</ele>
        <time>2020-06-20T10:35:03Z</time>
      </trkpt>
      <trkpt lat="47.05155" lon="-1.69863">
        <ele>4.37</ele>
        <time>2020-06-20T10:35:05Z</time>
      </trkpt>
      <trkpt lat="47.0515" lon="-1.69845">
        <ele>3.63</ele>
        <time>2020-06-20T10:35:07Z</time>
      </trkpt>
      <trkpt lat="47.05144" lon="-1.69828">
        <ele>4.45</ele>
        <time>2020-06-20T10:35:09Z</time>
      </trkpt>
      <trkpt lat="47.05138" lon="-1.69813">
        <ele>4.94</ele>
        <time>2020-06-20T10:35:11Z</time>
      </trkpt>
      <trkpt lat="47.0513" lon="-1.69799">
        <ele>5.4</ele>
        <time>2020-06-20T10:35:13Z</time>
      </trkpt>
      <trkpt lat="47.0512" lon="-1.69784">
        <ele>6.13</ele>
        <time>2020-06-20T10:35:15Z</time>
      </trkpt>
      <trkpt lat="47.0511" lon="-1.69773">
        <ele>6.9</ele>
        <time>2020-06-20T10:35:17Z</time>
      </trkpt>
      <trkpt lat="47.051" lon="-1.69761">
        <ele>7.74</ele>
        <time>2020-06-20T10:35:19Z</time>
      </trkpt>
      <trkpt lat="47.0509" lon="-1.69751">
        <ele>8.2</ele>
        <time>2020-06-20T10:35:21Z</time>
      </trkpt>
      <trkpt lat="47.0508" lon="-1.69738">
        <ele>8.6</ele>
        <time>2020-06-20T10:35:23Z</time>
      </trkpt>
      <trkpt lat="47.05069" lon="-1.69726">
        <ele>8.62</ele>
        <time>2020-06-20T10:35:25Z</time>
      </trkpt>
      <trkpt lat="47.0506" lon="-1.69714">
        <ele>8.41</ele>
        <time>2020-06-20T10:35:27Z</time>
      </trkpt>
      <trkpt lat="47.05051" lon="-1.69703">
        <ele>8.34</ele>
        <time>2020-06-20T10:35:29Z</time>
      </trkpt>
      <trkpt lat="47.05043" lon="-1.69693">
        <ele>8.07</ele>
        <time>2020-06-20T10:35:31Z</time>
      </trkpt>
      <trkpt lat="47.05035" lon="-1.69682">
        <ele>7.16</ele>
        <time>2020-06-20T10:35:33Z</time>
      </trkpt>
      <trkpt lat="47.05027" lon="-1.69671">
        <ele>5.99</ele>
        <time>2020-06-20T10:35:35Z</time>
      </trkpt>
      <trkpt lat="47.05019" lon="-1.69659">
        <ele>5.05</ele>
        <time>2020-06-20T10:35:37Z</time>
      </trkpt>
      <trkpt lat="47.05012" lon="-1.69646">
        <ele>4.13</ele>
        <time>2020-06-20T10:35:39Z</time>
      </trkpt>
      <trkpt lat="47.05014" lon="-1.69633">
        <ele>3.8</ele>
        <time>2020-06-20T10:35:41Z</time>
      </trkpt>
      <trkpt lat="47.05019" lon="-1.69617">
        <ele>3.16</ele>
        <time>2020-06-20T10:35:43Z</time>
      </trkpt>
      <trkpt lat="47.05018" lon="-1.69599">
        <ele>2.1</ele>
        <time>2020-06-20T10:35:45Z</time>
      </trkpt>
      <trkpt lat="47.0501" lon="-1.69579">
        <ele>1.16</ele>
        <time>2020-06-20T10:35:47Z</time>
      </trkpt>
      <trkpt lat="47.05002" lon="-1.69559">
        <ele>0.83</ele>
        <time>2020-06-20T10:35:49Z</time>
      </trkpt>
      <trkpt lat="47.04996" lon="-1.69539">
        <ele>-0.44</ele>
        <time>2020-06-20T10:35:51Z</time>
      </trkpt>
      <trkpt lat="47.04991" lon="-1.69526">
        <ele>-1.52</ele>
        <time>2020-06-20T10:35:53Z</time>
      </trkpt>
      <trkpt lat="47.04986" lon="-1.69508">
        <ele>-0.56</ele>
        <time>2020-06-20T10:35:56Z</time>
      </trkpt>
      <trkpt lat="47.0498" lon="-1.69486">
        <ele>-0.53</ele>
        <time>2020-06-20T10:35:57Z</time>
      </trkpt>
      <trkpt lat="47.04974" lon="-1.69467">
        <ele>-0.02</ele>
        <time>2020-06-20T10:36:00Z</time>
      </trkpt>
      <trkpt lat="47.04967" lon="-1.69448">
        <ele>-0.26</ele>
        <time>2020-06-20T10:36:02Z</time>
      </trkpt>
      <trkpt lat="47.04962" lon="-1.69429">
        <ele>-0.13</ele>
        <time>2020-06-20T10:36:04Z</time>
      </trkpt>
      <trkpt lat="47.04956" lon="-1.69413">
        <ele>0.48</ele>
        <time>2020-06-20T10:36:06Z</time>
      </trkpt>
      <trkpt lat="47.04951" lon="-1.69396">
        <ele>1.27</ele>
        <time>2020-06-20T10:36:08Z</time>
      </trkpt>
      <trkpt lat="47.04946" lon="-1.6938">
        <ele>2.71</ele>
        <time>2020-06-20T10:36:10Z</time>
      </trkpt>
      <trkpt lat="47.04941" lon="-1.69365">
        <ele>3.61</ele>
        <time>2020-06-20T10:36:12Z</time>
      </trkpt>
      <trkpt lat="47.04936" lon="-1.69348">
        <ele>4.68</ele>
        <time>2020-06-20T10:36:14Z</time>
      </trkpt>
      <trkpt lat="47.0493" lon="-1.69329">
        <ele>3.89</ele>
        <time>2020-06-20T10:36:16Z</time>
      </trkpt>
      <trkpt lat="47.04924" lon="-1.69311">
        <ele>3.42</ele>
        <time>2020-06-20T10:36:18Z</time>
      </trkpt>
      <trkpt lat="47.04919" lon="-1.69292">
        <ele>2.58</ele>
        <time>2020-06-20T10:36:20Z</time>
      </trkpt>
      <trkpt lat="47.04912" lon="-1.69271">
        <ele>2.42</ele>
        <time>2020-06-20T10:36:22Z</time>
      </trkpt>
      <trkpt lat="47.04906" lon="-1.6925">
        <ele>2.13</ele>
        <time>2020-06-20T10:36:24Z</time>
      </trkpt>
      <trkpt lat="47.049" lon="-1.69233">
        <ele>1.73</ele>
        <time>2020-06-20T10:36:26Z</time>
      </trkpt>
      <trkpt lat="47.04895" lon="-1.69214">
        <ele>3.33</ele>
        <time>2020-06-20T10:36:28Z</time>
      </trkpt>
      <trkpt lat="47.04889" lon="-1.69197">
        <ele>4.44</ele>
        <time>2020-06-20T10:36:30Z</time>
      </trkpt>
      <trkpt lat="47.04884" lon="-1.69179">
        <ele>4.53</ele>
        <time>2020-06-20T10:36:32Z</time>
      </trkpt>
      <trkpt lat="47.04878" lon="-1.69161">
        <ele>4.84</ele>
        <time>2020-06-20T10:36:34Z</time>
      </trkpt>
      <trkpt lat="47.04873" lon="-1.69143">
        <ele>5.35</ele>
        <time>2020-06-20T10:36:36Z</time>
      </trkpt>
      <trkpt lat="47.04868" lon="-1.69125">
        <ele>4.82</ele>
        <time>2020-06-20T10:36:38Z</time>
      </trkpt>
      <trkpt lat="47.04863" lon="-1.69108">
        <ele>4.56</ele>
        <time>2020-06-20T10:36:40Z</time>
      </trkpt>
      <trkpt lat="47.04858" lon="-1.69091">
        <ele>4.58</ele>
        <time>2020-06-20T10:36:42Z</time>
      </trkpt>
      <trkpt lat="47.04854" lon="-1.69074">
        <ele>5.45</ele>
        <time>2020-06-20T10:36:44Z</time>
      </trkpt>
      <trkpt lat="47.0485" lon="-1.69061">
        <ele>5.4</ele>
        <time>2020-06-20T10:36:46Z</time>
      </trkpt>
      <trkpt lat="47.04846" lon="-1.69044">
        <ele>4.95</ele>
        <time>2020-06-20T10:36:48Z</time>
      </trkpt>
      <trkpt lat="47.04842" lon="-1.69029">
        <ele>5.41</ele>
        <time>2020-06-20T10:36:50Z</time>
      </trkpt>
      <trkpt lat="47.04838" lon="-1.69014">
        <ele>6.47</ele>
        <time>2020-06-20T10:36:52Z</time>
      </trkpt>
      <trkpt lat="47.04833" lon="-1.68997">
        <ele>6.95</ele>
        <time>2020-06-20T10:36:54Z</time>
      </trkpt>
      <trkpt lat="47.04829" lon="-1.68981">
        <ele>6.76</ele>
        <time>2020-06-20T10:36:56Z</time>
      </trkpt>
      <trkpt lat="47.04825" lon="-1.68965">
        <ele>7.29</ele>
        <time>2020-06-20T10:36:58Z</time>
      </trkpt>
      <trkpt lat="47.04821" lon="-1.68949">
        <ele>7.58</ele>
        <time>2020-06-20T10:37:00Z</time>
      </trkpt>
      <trkpt lat="47.04817" lon="-1.68934">
        <ele>8.11</ele>
        <time>2020-06-20T10:37:02Z</time>
      </trkpt>
      <trkpt lat="47.04814" lon="-1.68918">
        <ele>8.45</ele>
        <time>2020-06-20T10:37:04Z</time>
      </trkpt>
      <trkpt lat="47.04809" lon="-1.68901">
        <ele>8.66</ele>
        <time>2020-06-20T10:37:06Z</time>
      </trkpt>
      <trkpt lat="47.04805" lon="-1.68885">
        <ele>8.57</ele>
        <time>2020-06-20T10:37:08Z</time>
      </trkpt>
      <trkpt lat="47.048" lon="-1.68868">
        <ele>8.15</ele>
        <time>2020-06-20T10:37:10Z</time>
      </trkpt>
      <trkpt lat="47.04795" lon="-1.6885">
        <ele>7.49</ele>
        <time>2020-06-20T10:37:12Z</time>
      </trkpt>
      <trkpt lat="47.0479" lon="-1.68834">
        <ele>6.94</ele>
        <time>2020-06-20T10:37:14Z</time>
      </trkpt>
      <trkpt lat="47.04785" lon="-1.68818">
        <ele>6.54</ele>
        <time>2020-06-20T10:37:16Z</time>
      </trkpt>
      <trkpt lat="47.0478" lon="-1.68801">
        <ele>6.08</ele>
        <time>2020-06-20T10:37:18Z</time>
      </trkpt>
      <trkpt lat="47.04775" lon="-1.68782">
        <ele>5.68</ele>
        <time>2020-06-20T10:37:20Z</time>
      </trkpt>
      <trkpt lat="47.04771" lon="-1.68767">
        <ele>5.18</ele>
        <time>2020-06-20T10:37:22Z</time>
      </trkpt>
      <trkpt lat="47.04767" lon="-1.68753">
        <ele>5.94</ele>
        <time>2020-06-20T10:37:24Z</time>
      </trkpt>
      <trkpt lat="47.04763" lon="-1.68736">
        <ele>5.83</ele>
        <time>2020-06-20T10:37:26Z</time>
      </trkpt>
      <trkpt lat="47.04758" lon="-1.68718">
        <ele>7.11</ele>
        <time>2020-06-20T10:37:28Z</time>
      </trkpt>
      <trkpt lat="47.04753" lon="-1.68701">
        <ele>8.53</ele>
        <time>2020-06-20T10:37:30Z</time>
      </trkpt>
      <trkpt lat="47.04749" lon="-1.68685">
        <ele>9.67</ele>
        <time>2020-06-20T10:37:32Z</time>
      </trkpt>
      <trkpt lat="47.04744" lon="-1.68668">
        <ele>9.33</ele>
        <time>2020-06-20T10:37:34Z</time>
      </trkpt>
      <trkpt lat="47.0474" lon="-1.68652">
        <ele>9.11</ele>
        <time>2020-06-20T10:37:36Z</time>
      </trkpt>
      <trkpt lat="47.04736" lon="-1.68635">
        <ele>8.03</ele>
        <time>2020-06-20T10:37:38Z</time>
      </trkpt>
      <trkpt lat="47.04731" lon="-1.68618">
        <ele>8.23</ele>
        <time>2020-06-20T10:37:40Z</time>
      </trkpt>
      <trkpt lat="47.04727" lon="-1.68601">
        <ele>8.06</ele>
        <time>2020-06-20T10:37:42Z</time>
      </trkpt>
      <trkpt lat="47.04722" lon="-1.68583">
        <ele>8.72</ele>
        <time>2020-06-20T10:37:44Z</time>
      </trkpt>
      <trkpt lat="47.04717" lon="-1.68566">
        <ele>8.95</ele>
        <time>2020-06-20T10:37:46Z</time>
      </trkpt>
      <trkpt lat="47.04713" lon="-1.68548">
        <ele>9.31</ele>
        <time>2020-06-20T10:37:48Z</time>
      </trkpt>
      <trkpt lat="47.04708" lon="-1.6853">
        <ele>9.37</ele>
        <time>2020-06-20T10:37:50Z</time>
      </trkpt>
      <trkpt lat="47.04704" lon="-1.68513">
        <ele>8.83</ele>
        <time>2020-06-20T10:37:52Z</time>
      </trkpt>
      <trkpt lat="47.047" lon="-1.68497">
        <ele>9.04</ele>
        <time>2020-06-20T10:37:54Z</time>
      </trkpt>
      <trkpt lat="47.04696" lon="-1.68482">
        <ele>9.29</ele>
        <time>2020-06-20T10:37:56Z</time>
      </trkpt>
      <trkpt lat="47.04692" lon="-1.68468">
        <ele>9.79</ele>
        <time>2020-06-20T10:37:58Z</time>
      </trkpt>
      <trkpt lat="47.04689" lon="-1.68454">
        <ele>9.73</ele>
        <time>2020-06-20T10:38:00Z</time>
      </trkpt>
      <trkpt lat="47.04685" lon="-1.68437">
        <ele>9.18</ele>
        <time>2020-06-20T10:38:02Z</time>
      </trkpt>
      <trkpt lat="47.04681" lon="-1.68419">
        <ele>8.43</ele>
        <time>2020-06-20T10:38:04Z</time>
      </trkpt>
      <trkpt lat="47.04676" lon="-1.68401">
        <ele>8.04</ele>
        <time>2020-06-20T10:38:06Z</time>
      </trkpt>
      <trkpt lat="47.04672" lon="-1.68383">
        <ele>8.23</ele>
        <time>2020-06-20T10:38:08Z</time>
      </trkpt>
      <trkpt lat="47.04668" lon="-1.68366">
        <ele>8.59</ele>
        <time>2020-06-20T10:38:10Z</time>
      </trkpt>
      <trkpt lat="47.04663" lon="-1.68348">
        <ele>7.99</ele>
        <time>2020-06-20T10:38:12Z</time>
      </trkpt>
      <trkpt lat="47.04659" lon="-1.6833">
        <ele>7.41</ele>
        <time>2020-06-20T10:38:14Z</time>
      </trkpt>
      <trkpt lat="47.04654" lon="-1.68311">
        <ele>7.04</ele>
        <time>2020-06-20T10:38:16Z</time>
      </trkpt>
      <trkpt lat="47.04649" lon="-1.68292">
        <ele>6.77</ele>
        <time>2020-06-20T10:38:18Z</time>
      </trkpt>
      <trkpt lat="47.04645" lon="-1.68274">
        <ele>6.51</ele>
        <time>2020-06-20T10:38:20Z</time>
      </trkpt>
      <trkpt lat="47.0464" lon="-1.68257">
        <ele>6.45</ele>
        <time>2020-06-20T10:38:22Z</time>
      </trkpt>
      <trkpt lat="47.04635" lon="-1.68239">
        <ele>6.52</ele>
        <time>2020-06-20T10:38:24Z</time>
      </trkpt>
      <trkpt lat="47.0463" lon="-1.68221">
        <ele>6.4</ele>
        <time>2020-06-20T10:38:26Z</time>
      </trkpt>
      <trkpt lat="47.04625" lon="-1.68202">
        <ele>6.54</ele>
        <time>2020-06-20T10:38:28Z</time>
      </trkpt>
      <trkpt lat="47.04621" lon="-1.68186">
        <ele>6.33</ele>
        <time>2020-06-20T10:38:30Z</time>
      </trkpt>
      <trkpt lat="47.04616" lon="-1.6817">
        <ele>6.79</ele>
        <time>2020-06-20T10:38:32Z</time>
      </trkpt>
      <trkpt lat="47.04611" lon="-1.6815">
        <ele>6.89</ele>
        <time>2020-06-20T10:38:34Z</time>
      </trkpt>
      <trkpt lat="47.04606" lon="-1.68132">
        <ele>6.95</ele>
        <time>2020-06-20T10:38:36Z</time>
      </trkpt>
      <trkpt lat="47.04602" lon="-1.68113">
        <ele>7.3</ele>
        <time>2020-06-20T10:38:38Z</time>
      </trkpt>
      <trkpt lat="47.04597" lon="-1.68095">
        <ele>8.12</ele>
        <time>2020-06-20T10:38:40Z</time>
      </trkpt>
      <trkpt lat="47.04593" lon="-1.6808">
        <ele>9.01</ele>
        <time>2020-06-20T10:38:42Z</time>
      </trkpt>
      <trkpt lat="47.04589" lon="-1.68061">
        <ele>9.94</ele>
        <time>2020-06-20T10:38:44Z</time>
      </trkpt>
      <trkpt lat="47.04585" lon="-1.68044">
        <ele>10.14</ele>
        <time>2020-06-20T10:38:46Z</time>
      </trkpt>
      <trkpt lat="47.04581" lon="-1.68027">
        <ele>10.67</ele>
        <time>2020-06-20T10:38:48Z</time>
      </trkpt>
      <trkpt lat="47.04576" lon="-1.68009">
        <ele>10.79</ele>
        <time>2020-06-20T10:38:50Z</time>
      </trkpt>
      <trkpt lat="47.04571" lon="-1.67989">
        <ele>11.25</ele>
        <time>2020-06-20T10:38:52Z</time>
      </trkpt>
      <trkpt lat="47.04566" lon="-1.67973">
        <ele>10.68</ele>
        <time>2020-06-20T10:38:54Z</time>
      </trkpt>
      <trkpt lat="47.04562" lon="-1.67959">
        <ele>10.06</ele>
        <time>2020-06-20T10:38:56Z</time>
      </trkpt>
      <trkpt lat="47.04558" lon="-1.67943">
        <ele>9.9</ele>
        <time>2020-06-20T10:38:58Z</time>
      </trkpt>
      <trkpt lat="47.04555" lon="-1.67927">
        <ele>9.54</ele>
        <time>2020-06-20T10:39:00Z</time>
      </trkpt>
      <trkpt lat="47.04551" lon="-1.6791">
        <ele>7.95</ele>
        <time>2020-06-20T10:39:02Z</time>
      </trkpt>
      <trkpt lat="47.04547" lon="-1.67894">
        <ele>6.26</ele>
        <time>2020-06-20T10:39:04Z</time>
      </trkpt>
      <trkpt lat="47.04543" lon="-1.67879">
        <ele>5.54</ele>
        <time>2020-06-20T10:39:06Z</time>
      </trkpt>
      <trkpt lat="47.0454" lon="-1.67865">
        <ele>4.69</ele>
        <time>2020-06-20T10:39:08Z</time>
      </trkpt>
      <trkpt lat="47.04536" lon="-1.67849">
        <ele>4.88</ele>
        <time>2020-06-20T10:39:10Z</time>
      </trkpt>
      <trkpt lat="47.04532" lon="-1.67833">
        <ele>5.62</ele>
        <time>2020-06-20T10:39:12Z</time>
      </trkpt>
      <trkpt lat="47.04528" lon="-1.67816">
        <ele>6.45</ele>
        <time>2020-06-20T10:39:14Z</time>
      </trkpt>
      <trkpt lat="47.04524" lon="-1.678">
        <ele>6.95</ele>
        <time>2020-06-20T10:39:16Z</time>
      </trkpt>
      <trkpt lat="47.04521" lon="-1.67786">
        <ele>7.25</ele>
        <time>2020-06-20T10:39:18Z</time>
      </trkpt>
      <trkpt lat="47.04517" lon="-1.6777">
        <ele>7.25</ele>
        <time>2020-06-20T10:39:20Z</time>
      </trkpt>
      <trkpt lat="47.04512" lon="-1.67752">
        <ele>6.91</ele>
        <time>2020-06-20T10:39:22Z</time>
      </trkpt>
      <trkpt lat="47.04508" lon="-1.67735">
        <ele>7.5</ele>
        <time>2020-06-20T10:39:24Z</time>
      </trkpt>
      <trkpt lat="47.04503" lon="-1.67717">
        <ele>9.04</ele>
        <time>2020-06-20T10:39:26Z</time>
      </trkpt>
      <trkpt lat="47.04499" lon="-1.67701">
        <ele>9.76</ele>
        <time>2020-06-20T10:39:28Z</time>
      </trkpt>
      <trkpt lat="47.04495" lon="-1.67686">
        <ele>10.28</ele>
        <time>2020-06-20T10:39:30Z</time>
      </trkpt>
      <trkpt lat="47.04491" lon="-1.67668">
        <ele>10.49</ele>
        <time>2020-06-20T10:39:32Z</time>
      </trkpt>
      <trkpt lat="47.04487" lon="-1.6765">
        <ele>10.61</ele>
        <time>2020-06-20T10:39:34Z</time>
      </trkpt>
      <trkpt lat="47.04482" lon="-1.67634">
        <ele>10.7</ele>
        <time>2020-06-20T10:39:36Z</time>
      </trkpt>
      <trkpt lat="47.04476" lon="-1.67615">
        <ele>10.42</ele>
        <time>2020-06-20T10:39:38Z</time>
      </trkpt>
      <trkpt lat="47.04471" lon="-1.67596">
        <ele>10.31</ele>
        <time>2020-06-20T10:39:40Z</time>
      </trkpt>
      <trkpt lat="47.04465" lon="-1.67576">
        <ele>9.94</ele>
        <time>2020-06-20T10:39:42Z</time>
      </trkpt>
      <trkpt lat="47.0446" lon="-1.67553">
        <ele>9.37</ele>
        <time>2020-06-20T10:39:44Z</time>
      </trkpt>
      <trkpt lat="47.04454" lon="-1.67533">
        <ele>9.18</ele>
        <time>2020-06-20T10:39:46Z</time>
      </trkpt>
      <trkpt lat="47.04449" lon="-1.67514">
        <ele>9.4</ele>
        <time>2020-06-20T10:39:48Z</time>
      </trkpt>
      <trkpt lat="47.04445" lon="-1.67496">
        <ele>9.88</ele>
        <time>2020-06-20T10:39:50Z</time>
      </trkpt>
      <trkpt lat="47.04441" lon="-1.67477">
        <ele>10.46</ele>
        <time>2020-06-20T10:39:52Z</time>
      </trkpt>
      <trkpt lat="47.04437" lon="-1.67459">
        <ele>10.21</ele>
        <time>2020-06-20T10:39:54Z</time>
      </trkpt>
      <trkpt lat="47.04432" lon="-1.67441">
        <ele>9.6</ele>
        <time>2020-06-20T10:39:56Z</time>
      </trkpt>
      <trkpt lat="47.04432" lon="-1.67424">
        <ele>9.56</ele>
        <time>2020-06-20T10:39:58Z</time>
      </trkpt>
      <trkpt lat="47.0443" lon="-1.67407">
        <ele>9.93</ele>
        <time>2020-06-20T10:40:00Z</time>
      </trkpt>
      <trkpt lat="47.04426" lon="-1.67388">
        <ele>9.23</ele>
        <time>2020-06-20T10:40:02Z</time>
      </trkpt>
      <trkpt lat="47.04421" lon="-1.67368">
        <ele>8.1</ele>
        <time>2020-06-20T10:40:04Z</time>
      </trkpt>
      <trkpt lat="47.04418" lon="-1.67349">
        <ele>6.88</ele>
        <time>2020-06-20T10:40:06Z</time>
      </trkpt>
      <trkpt lat="47.04416" lon="-1.67334">
        <ele>6.64</ele>
        <time>2020-06-20T10:40:08Z</time>
      </trkpt>
      <trkpt lat="47.04413" lon="-1.67315">
        <ele>6.63</ele>
        <time>2020-06-20T10:40:10Z</time>
      </trkpt>
      <trkpt lat="47.04409" lon="-1.67297">
        <ele>7.23</ele>
        <time>2020-06-20T10:40:12Z</time>
      </trkpt>
      <trkpt lat="47.04408" lon="-1.67283">
        <ele>8.5</ele>
        <time>2020-06-20T10:40:14Z</time>
      </trkpt>
      <trkpt lat="47.04403" lon="-1.67265">
        <ele>10.01</ele>
        <time>2020-06-20T10:40:16Z</time>
      </trkpt>
      <trkpt lat="47.04396" lon="-1.67245">
        <ele>10.67</ele>
        <time>2020-06-20T10:40:18Z</time>
      </trkpt>
      <trkpt lat="47.04389" lon="-1.67223">
        <ele>11.26</ele>
        <time>2020-06-20T10:40:20Z</time>
      </trkpt>
      <trkpt lat="47.04386" lon="-1.67209">
        <ele>11.36</ele>
        <time>2020-06-20T10:40:22Z</time>
      </trkpt>
      <trkpt lat="47.04379" lon="-1.67191">
        <ele>11.13</ele>
        <time>2020-06-20T10:40:24Z</time>
      </trkpt>
      <trkpt lat="47.04373" lon="-1.67174">
        <ele>9.7</ele>
        <time>2020-06-20T10:40:26Z</time>
      </trkpt>
      <trkpt lat="47.04369" lon="-1.67155">
        <ele>8.04</ele>
        <time>2020-06-20T10:40:28Z</time>
      </trkpt>
      <trkpt lat="47.04363" lon="-1.67131">
        <ele>6.75</ele>
        <time>2020-06-20T10:40:30Z</time>
      </trkpt>
      <trkpt lat="47.04358" lon="-1.67112">
        <ele>6.17</ele>
        <time>2020-06-20T10:40:32Z</time>
      </trkpt>
      <trkpt lat="47.04355" lon="-1.67097">
        <ele>6.14</ele>
        <time>2020-06-20T10:40:34Z</time>
      </trkpt>
      <trkpt lat="47.04349" lon="-1.67078">
        <ele>6.06</ele>
        <time>2020-06-20T10:40:36Z</time>
      </trkpt>
      <trkpt lat="47.04344" lon="-1.6706">
        <ele>6.39</ele>
        <time>2020-06-20T10:40:38Z</time>
      </trkpt>
      <trkpt lat="47.04338" lon="-1.67041">
        <ele>6.47</ele>
        <time>2020-06-20T10:40:40Z</time>
      </trkpt>
      <trkpt lat="47.04333" lon="-1.67021">
        <ele>6.1</ele>
        <time>2020-06-20T10:40:42Z</time>
      </trkpt>
      <trkpt lat="47.04328" lon="-1.67002">
        <ele>5.4</ele>
        <time>2020-06-20T10:40:44Z</time>
      </trkpt>
      <trkpt lat="47.04323" lon="-1.66985">
        <ele>5.61</ele>
        <time>2020-06-20T10:40:46Z</time>
      </trkpt>
      <trkpt lat="47.04319" lon="-1.66967">
        <ele>5.06</ele>
        <time>2020-06-20T10:40:48Z</time>
      </trkpt>
      <trkpt lat="47.04313" lon="-1.66947">
        <ele>4.78</ele>
        <time>2020-06-20T10:40:50Z</time>
      </trkpt>
      <trkpt lat="47.04308" lon="-1.66927">
        <ele>3.31</ele>
        <time>2020-06-20T10:40:52Z</time>
      </trkpt>
      <trkpt lat="47.04303" lon="-1.66909">
        <ele>3.1</ele>
        <time>2020-06-20T10:40:54Z</time>
      </trkpt>
      <trkpt lat="47.04298" lon="-1.66891">
        <ele>3.46</ele>
        <time>2020-06-20T10:40:56Z</time>
      </trkpt>
      <trkpt lat="47.04293" lon="-1.66873">
        <ele>3.91</ele>
        <time>2020-06-20T10:40:58Z</time>
      </trkpt>
      <trkpt lat="47.04288" lon="-1.66854">
        <ele>3.99</ele>
        <time>2020-06-20T10:41:00Z</time>
      </trkpt>
      <trkpt lat="47.04282" lon="-1.66836">
        <ele>4.41</ele>
        <time>2020-06-20T10:41:02Z</time>
      </trkpt>
      <trkpt lat="47.04277" lon="-1.66817">
        <ele>4.66</ele>
        <time>2020-06-20T10:41:04Z</time>
      </trkpt>
      <trkpt lat="47.04272" lon="-1.668">
        <ele>4.73</ele>
        <time>2020-06-20T10:41:06Z</time>
      </trkpt>
      <trkpt lat="47.04267" lon="-1.66786">
        <ele>4.63</ele>
        <time>2020-06-20T10:41:08Z</time>
      </trkpt>
      <trkpt lat="47.04263" lon="-1.66771">
        <ele>3.96</ele>
        <time>2020-06-20T10:41:10Z</time>
      </trkpt>
      <trkpt lat="47.04259" lon="-1.66753">
        <ele>2.28</ele>
        <time>2020-06-20T10:41:12Z</time>
      </trkpt>
      <trkpt lat="47.04256" lon="-1.66739">
        <ele>1.26</ele>
        <time>2020-06-20T10:41:14Z</time>
      </trkpt>
      <trkpt lat="47.04252" lon="-1.66721">
        <ele>1.33</ele>
        <time>2020-06-20T10:41:16Z</time>
      </trkpt>
      <trkpt lat="47.04246" lon="-1.667">
        <ele>2.02</ele>
        <time>2020-06-20T10:41:18Z</time>
      </trkpt>
      <trkpt lat="47.04239" lon="-1.66685">
        <ele>1.6</ele>
        <time>2020-06-20T10:41:20Z</time>
      </trkpt>
      <trkpt lat="47.04232" lon="-1.66667">
        <ele>1.13</ele>
        <time>2020-06-20T10:41:22Z</time>
      </trkpt>
      <trkpt lat="47.04227" lon="-1.66649">
        <ele>0.42</ele>
        <time>2020-06-20T10:41:24Z</time>
      </trkpt>
      <trkpt lat="47.04223" lon="-1.6663">
        <ele>-0.2</ele>
        <time>2020-06-20T10:41:26Z</time>
      </trkpt>
      <trkpt lat="47.04218" lon="-1.66611">
        <ele>-0.58</ele>
        <time>2020-06-20T10:41:28Z</time>
      </trkpt>
      <trkpt lat="47.04214" lon="-1.66592">
        <ele>-1.51</ele>
        <time>2020-06-20T10:41:30Z</time>
      </trkpt>
      <trkpt lat="47.0421" lon="-1.66573">
        <ele>-1.85</ele>
        <time>2020-06-20T10:41:32Z</time>
      </trkpt>
      <trkpt lat="47.04204" lon="-1.66552">
        <ele>-1.55</ele>
        <time>2020-06-20T10:41:34Z</time>
      </trkpt>
      <trkpt lat="47.042" lon="-1.66536">
        <ele>-0.88</ele>
        <time>2020-06-20T10:41:36Z</time>
      </trkpt>
      <trkpt lat="47.04197" lon="-1.6652">
        <ele>-0.77</ele>
        <time>2020-06-20T10:41:38Z</time>
      </trkpt>
      <trkpt lat="47.04193" lon="-1.66503">
        <ele>-0.62</ele>
        <time>2020-06-20T10:41:40Z</time>
      </trkpt>
      <trkpt lat="47.04188" lon="-1.66484">
        <ele>1.59</ele>
        <time>2020-06-20T10:41:42Z</time>
      </trkpt>
      <trkpt lat="47.04183" lon="-1.66466">
        <ele>2.11</ele>
        <time>2020-06-20T10:41:44Z</time>
      </trkpt>
      <trkpt lat="47.0418" lon="-1.66448">
        <ele>2.16</ele>
        <time>2020-06-20T10:41:46Z</time>
      </trkpt>
      <trkpt lat="47.04174" lon="-1.6643">
        <ele>2.45</ele>
        <time>2020-06-20T10:41:48Z</time>
      </trkpt>
      <trkpt lat="47.0417" lon="-1.66413">
        <ele>3.67</ele>
        <time>2020-06-20T10:41:50Z</time>
      </trkpt>
      <trkpt lat="47.04166" lon="-1.66396">
        <ele>4.37</ele>
        <time>2020-06-20T10:41:52Z</time>
      </trkpt>
      <trkpt lat="47.04161" lon="-1.66377">
        <ele>4.44</ele>
        <time>2020-06-20T10:41:54Z</time>
      </trkpt>
      <trkpt lat="47.04157" lon="-1.66358">
        <ele>4.77</ele>
        <time>2020-06-20T10:41:56Z</time>
      </trkpt>
      <trkpt lat="47.04152" lon="-1.66345">
        <ele>6.03</ele>
        <time>2020-06-20T10:41:58Z</time>
      </trkpt>
      <trkpt lat="47.04147" lon="-1.66331">
        <ele>6.42</ele>
        <time>2020-06-20T10:42:00Z</time>
      </trkpt>
      <trkpt lat="47.04141" lon="-1.66315">
        <ele>6.08</ele>
        <time>2020-06-20T10:42:02Z</time>
      </trkpt>
      <trkpt lat="47.04136" lon="-1.66297">
        <ele>5.37</ele>
        <time>2020-06-20T10:42:04Z</time>
      </trkpt>
      <trkpt lat="47.04131" lon="-1.66281">
        <ele>4.49</ele>
        <time>2020-06-20T10:42:06Z</time>
      </trkpt>
      <trkpt lat="47.04127" lon="-1.66265">
        <ele>3.9</ele>
        <time>2020-06-20T10:42:08Z</time>
      </trkpt>
      <trkpt lat="47.04123" lon="-1.66248">
        <ele>3.56</ele>
        <time>2020-06-20T10:42:10Z</time>
      </trkpt>
      <trkpt lat="47.04119" lon="-1.66232">
        <ele>4.01</ele>
        <time>2020-06-20T10:42:12Z</time>
      </trkpt>
      <trkpt lat="47.04114" lon="-1.66211">
        <ele>3.53</ele>
        <time>2020-06-20T10:42:14Z</time>
      </trkpt>
      <trkpt lat="47.04111" lon="-1.66193">
        <ele>3.31</ele>
        <time>2020-06-20T10:42:16Z</time>
      </trkpt>
      <trkpt lat="47.04108" lon="-1.66177">
        <ele>2.56</ele>
        <time>2020-06-20T10:42:18Z</time>
      </trkpt>
      <trkpt lat="47.04106" lon="-1.6616">
        <ele>1.77</ele>
        <time>2020-06-20T10:42:20Z</time>
      </trkpt>
      <trkpt lat="47.04102" lon="-1.66144">
        <ele>0.79</ele>
        <time>2020-06-20T10:42:22Z</time>
      </trkpt>
      <trkpt lat="47.04098" lon="-1.6613">
        <ele>0.37</ele>
        <time>2020-06-20T10:42:24Z</time>
      </trkpt>
      <trkpt lat="47.04094" lon="-1.66113">
        <ele>0.58</ele>
        <time>2020-06-20T10:42:26Z</time>
      </trkpt>
      <trkpt lat="47.0409" lon="-1.66098">
        <ele>1.16</ele>
        <time>2020-06-20T10:42:28Z</time>
      </trkpt>
      <trkpt lat="47.04086" lon="-1.66082">
        <ele>2.49</ele>
        <time>2020-06-20T10:42:30Z</time>
      </trkpt>
      <trkpt lat="47.04082" lon="-1.66065">
        <ele>2.44</ele>
        <time>2020-06-20T10:42:32Z</time>
      </trkpt>
      <trkpt lat="47.04078" lon="-1.66048">
        <ele>1.53</ele>
        <time>2020-06-20T10:42:34Z</time>
      </trkpt>
      <trkpt lat="47.04074" lon="-1.6603">
        <ele>0.65</ele>
        <time>2020-06-20T10:42:36Z</time>
      </trkpt>
      <trkpt lat="47.0407" lon="-1.66011">
        <ele>0.36</ele>
        <time>2020-06-20T10:42:38Z</time>
      </trkpt>
      <trkpt lat="47.04065" lon="-1.65992">
        <ele>0.3</ele>
        <time>2020-06-20T10:42:40Z</time>
      </trkpt>
      <trkpt lat="47.0406" lon="-1.65975">
        <ele>0.85</ele>
        <time>2020-06-20T10:42:42Z</time>
      </trkpt>
      <trkpt lat="47.04057" lon="-1.65959">
        <ele>1.82</ele>
        <time>2020-06-20T10:42:44Z</time>
      </trkpt>
      <trkpt lat="47.04052" lon="-1.6594">
        <ele>3.26</ele>
        <time>2020-06-20T10:42:46Z</time>
      </trkpt>
      <trkpt lat="47.04047" lon="-1.65923">
        <ele>4.34</ele>
        <time>2020-06-20T10:42:48Z</time>
      </trkpt>
      <trkpt lat="47.04041" lon="-1.65906">
        <ele>5.59</ele>
        <time>2020-06-20T10:42:50Z</time>
      </trkpt>
      <trkpt lat="47.04036" lon="-1.65888">
        <ele>6.83</ele>
        <time>2020-06-20T10:42:52Z</time>
      </trkpt>
      <trkpt lat="47.04031" lon="-1.65872">
        <ele>8.57</ele>
        <time>2020-06-20T10:42:54Z</time>
      </trkpt>
      <trkpt lat="47.04028" lon="-1.65854">
        <ele>9.3</ele>
        <time>2020-06-20T10:42:56Z</time>
      </trkpt>
      <trkpt lat="47.04023" lon="-1.65835">
        <ele>9.23</ele>
        <time>2020-06-20T10:42:58Z</time>
      </trkpt>
      <trkpt lat="47.04018" lon="-1.65815">
        <ele>9.14</ele>
        <time>2020-06-20T10:43:00Z</time>
      </trkpt>
      <trkpt lat="47.04011" lon="-1.65795">
        <ele>9.07</ele>
        <time>2020-06-20T10:43:02Z</time>
      </trkpt>
      <trkpt lat="47.04004" lon="-1.65779">
        <ele>8.69</ele>
        <time>2020-06-20T10:43:04Z</time>
      </trkpt>
      <trkpt lat="47.03998" lon="-1.65763">
        <ele>8.65</ele>
        <time>2020-06-20T10:43:06Z</time>
      </trkpt>
      <trkpt lat="47.03991" lon="-1.65744">
        <ele>7.43</ele>
        <time>2020-06-20T10:43:08Z</time>
      </trkpt>
      <trkpt lat="47.03985" lon="-1.65724">
        <ele>7.53</ele>
        <time>2020-06-20T10:43:10Z</time>
      </trkpt>
      <trkpt lat="47.03979" lon="-1.65705">
        <ele>7.14</ele>
        <time>2020-06-20T10:43:12Z</time>
      </trkpt>
      <trkpt lat="47.03973" lon="-1.65688">
        <ele>7.57</ele>
        <time>2020-06-20T10:43:14Z</time>
      </trkpt>
      <trkpt lat="47.03967" lon="-1.6567">
        <ele>8.82</ele>
        <time>2020-06-20T10:43:16Z</time>
      </trkpt>
      <trkpt lat="47.03962" lon="-1.65652">
        <ele>9.85</ele>
        <time>2020-06-20T10:43:18Z</time>
      </trkpt>
      <trkpt lat="47.03956" lon="-1.65634">
        <ele>10.81</ele>
        <time>2020-06-20T10:43:20Z</time>
      </trkpt>
      <trkpt lat="47.03951" lon="-1.65615">
        <ele>11.96</ele>
        <time>2020-06-20T10:43:22Z</time>
      </trkpt>
      <trkpt lat="47.03945" lon="-1.65596">
        <ele>12.31</ele>
        <time>2020-06-20T10:43:24Z</time>
      </trkpt>
      <trkpt lat="47.03939" lon="-1.65577">
        <ele>12.15</ele>
        <time>2020-06-20T10:43:26Z</time>
      </trkpt>
      <trkpt lat="47.03934" lon="-1.65559">
        <ele>11.48</ele>
        <time>2020-06-20T10:43:28Z</time>
      </trkpt>
      <trkpt lat="47.03929" lon="-1.65541">
        <ele>10.74</ele>
        <time>2020-06-20T10:43:30Z</time>
      </trkpt>
      <trkpt lat="47.03925" lon="-1.65526">
        <ele>10.15</ele>
        <time>2020-06-20T10:43:32Z</time>
      </trkpt>
      <trkpt lat="47.03921" lon="-1.65511">
        <ele>9.86</ele>
        <time>2020-06-20T10:43:34Z</time>
      </trkpt>
      <trkpt lat="47.03916" lon="-1.65493">
        <ele>8.99</ele>
        <time>2020-06-20T10:43:36Z</time>
      </trkpt>
      <trkpt lat="47.03911" lon="-1.65474">
        <ele>8.21</ele>
        <time>2020-06-20T10:43:38Z</time>
      </trkpt>
      <trkpt lat="47.03906" lon="-1.65454">
        <ele>7.18</ele>
        <time>2020-06-20T10:43:40Z</time>
      </trkpt>
      <trkpt lat="47.039" lon="-1.65434">
        <ele>6.43</ele>
        <time>2020-06-20T10:43:42Z</time>
      </trkpt>
      <trkpt lat="47.03894" lon="-1.65413">
        <ele>5.81</ele>
        <time>2020-06-20T10:43:44Z</time>
      </trkpt>
      <trkpt lat="47.03889" lon="-1.65393">
        <ele>5.87</ele>
        <time>2020-06-20T10:43:46Z</time>
      </trkpt>
      <trkpt lat="47.03884" lon="-1.65377">
        <ele>5.93</ele>
        <time>2020-06-20T10:43:48Z</time>
      </trkpt>
      <trkpt lat="47.03878" lon="-1.6536">
        <ele>7.39</ele>
        <time>2020-06-20T10:43:50Z</time>
      </trkpt>
      <trkpt lat="47.03871" lon="-1.6535">
        <ele>8.54</ele>
        <time>2020-06-20T10:43:52Z</time>
      </trkpt>
      <trkpt lat="47.03863" lon="-1.65339">
        <ele>9.76</ele>
        <time>2020-06-20T10:43:54Z</time>
      </trkpt>
      <trkpt lat="47.03862" lon="-1.65323">
        <ele>9.2</ele>
        <time>2020-06-20T10:43:56Z</time>
      </trkpt>
      <trkpt lat="47.03866" lon="-1.6531">
        <ele>8.84</ele>
        <time>2020-06-20T10:43:58Z</time>
      </trkpt>
      <trkpt lat="47.0387" lon="-1.65296">
        <ele>8.66</ele>
        <time>2020-06-20T10:44:51Z</time>
      </trkpt>
      <trkpt lat="47.03879" lon="-1.65288">
        <ele>8.67</ele>
        <time>2020-06-20T10:47:28Z</time>
      </trkpt>
      <trkpt lat="47.03888" lon="-1.6528">
        <ele>9.27</ele>
        <time>2020-06-20T10:47:31Z</time>
      </trkpt>
      <trkpt lat="47.03897" lon="-1.65274">
        <ele>8.58</ele>
        <time>2020-06-20T10:47:33Z</time>
      </trkpt>
      <trkpt lat="47.03908" lon="-1.65267">
        <ele>6.45</ele>
        <time>2020-06-20T10:47:35Z</time>
      </trkpt>
      <trkpt lat="47.03919" lon="-1.65259">
        <ele>4.14</ele>
        <time>2020-06-20T10:47:37Z</time>
      </trkpt>
      <trkpt lat="47.03929" lon="-1.65252">
        <ele>3.49</ele>
        <time>2020-06-20T10:47:39Z</time>
      </trkpt>
      <trkpt lat="47.03938" lon="-1.65246">
        <ele>3.88</ele>
        <time>2020-06-20T10:47:41Z</time>
      </trkpt>
      <trkpt lat="47.03948" lon="-1.65239">
        <ele>4.3</ele>
        <time>2020-06-20T10:47:43Z</time>
      </trkpt>
      <trkpt lat="47.0396" lon="-1.65231">
        <ele>5.18</ele>
        <time>2020-06-20T10:47:45Z</time>
      </trkpt>
      <trkpt lat="47.03973" lon="-1.65222">
        <ele>5.43</ele>
        <time>2020-06-20T10:47:47Z</time>
      </trkpt>
      <trkpt lat="47.03986" lon="-1.65213">
        <ele>5.3</ele>
        <time>2020-06-20T10:47:49Z</time>
      </trkpt>
      <trkpt lat="47.03997" lon="-1.65205">
        <ele>4.58</ele>
        <time>2020-06-20T10:47:51Z</time>
      </trkpt>
      <trkpt lat="47.04008" lon="-1.65197">
        <ele>4.07</ele>
        <time>2020-06-20T10:47:53Z</time>
      </trkpt>
      <trkpt lat="47.04021" lon="-1.65188">
        <ele>3.64</ele>
        <time>2020-06-20T10:47:55Z</time>
      </trkpt>
      <trkpt lat="47.04033" lon="-1.65178">
        <ele>3.77</ele>
        <time>2020-06-20T10:47:57Z</time>
      </trkpt>
      <trkpt lat="47.04047" lon="-1.65168">
        <ele>4.03</ele>
        <time>2020-06-20T10:47:59Z</time>
      </trkpt>
      <trkpt lat="47.04059" lon="-1.6516">
        <ele>3.69</ele>
        <time>2020-06-20T10:48:01Z</time>
      </trkpt>
      <trkpt lat="47.04072" lon="-1.65152">
        <ele>2.22</ele>
        <time>2020-06-20T10:48:03Z</time>
      </trkpt>
      <trkpt lat="47.04083" lon="-1.65143">
        <ele>1.63</ele>
        <time>2020-06-20T10:48:05Z</time>
      </trkpt>
      <trkpt lat="47.04096" lon="-1.65135">
        <ele>1.75</ele>
        <time>2020-06-20T10:48:07Z</time>
      </trkpt>
      <trkpt lat="47.04108" lon="-1.65127">
        <ele>2.31</ele>
        <time>2020-06-20T10:48:09Z</time>
      </trkpt>
      <trkpt lat="47.04121" lon="-1.65118">
        <ele>2.73</ele>
        <time>2020-06-20T10:48:11Z</time>
      </trkpt>
      <trkpt lat="47.04133" lon="-1.6511">
        <ele>4.72</ele>
        <time>2020-06-20T10:48:13Z</time>
      </trkpt>
      <trkpt lat="47.04145" lon="-1.65102">
        <ele>5.42</ele>
        <time>2020-06-20T10:48:15Z</time>
      </trkpt>
      <trkpt lat="47.04158" lon="-1.65095">
        <ele>5.15</ele>
        <time>2020-06-20T10:48:17Z</time>
      </trkpt>
      <trkpt lat="47.04171" lon="-1.65085">
        <ele>4.28</ele>
        <time>2020-06-20T10:48:19Z</time>
      </trkpt>
      <trkpt lat="47.04184" lon="-1.65076">
        <ele>4.59</ele>
        <time>2020-06-20T10:48:21Z</time>
      </trkpt>
      <trkpt lat="47.04198" lon="-1.65066">
        <ele>3.67</ele>
        <time>2020-06-20T10:48:23Z</time>
      </trkpt>
      <trkpt lat="47.04211" lon="-1.65056">
        <ele>3.28</ele>
        <time>2020-06-20T10:48:25Z</time>
      </trkpt>
      <trkpt lat="47.04224" lon="-1.65047">
        <ele>3.18</ele>
        <time>2020-06-20T10:48:27Z</time>
      </trkpt>
      <trkpt lat="47.04238" lon="-1.65038">
        <ele>3.62</ele>
        <time>2020-06-20T10:48:29Z</time>
      </trkpt>
      <trkpt lat="47.04251" lon="-1.65029">
        <ele>4.26</ele>
        <time>2020-06-20T10:48:31Z</time>
      </trkpt>
      <trkpt lat="47.04264" lon="-1.65019">
        <ele>4.48</ele>
        <time>2020-06-20T10:48:33Z</time>
      </trkpt>
      <trkpt lat="47.04276" lon="-1.6501">
        <ele>4.01</ele>
        <time>2020-06-20T10:48:35Z</time>
      </trkpt>
      <trkpt lat="47.04289" lon="-1.65">
        <ele>2.89</ele>
        <time>2020-06-20T10:48:37Z</time>
      </trkpt>
      <trkpt lat="47.04302" lon="-1.6499">
        <ele>2.42</ele>
        <time>2020-06-20T10:48:39Z</time>
      </trkpt>
      <trkpt lat="47.04314" lon="-1.64979">
        <ele>1.7</ele>
        <time>2020-06-20T10:48:41Z</time>
      </trkpt>
      <trkpt lat="47.04326" lon="-1.64971">
        <ele>1.49</ele>
        <time>2020-06-20T10:48:43Z</time>
      </trkpt>
      <trkpt lat="47.04338" lon="-1.64961">
        <ele>1.31</ele>
        <time>2020-06-20T10:48:45Z</time>
      </trkpt>
      <trkpt lat="47.04349" lon="-1.64952">
        <ele>0.97</ele>
        <time>2020-06-20T10:48:47Z</time>
      </trkpt>
      <trkpt lat="47.04359" lon="-1.64943">
        <ele>0.78</ele>
        <time>2020-06-20T10:48:49Z</time>
      </trkpt>
      <trkpt lat="47.0437" lon="-1.64934">
        <ele>0.68</ele>
        <time>2020-06-20T10:48:51Z</time>
      </trkpt>
      <trkpt lat="47.0438" lon="-1.64924">
        <ele>0.68</ele>
        <time>2020-06-20T10:48:53Z</time>
      </trkpt>
      <trkpt lat="47.0439" lon="-1.64916">
        <ele>0.69</ele>
        <time>2020-06-20T10:48:55Z</time>
      </trkpt>
      <trkpt lat="47.044" lon="-1.6491">
        <ele>0.77</ele>
        <time>2020-06-20T10:48:57Z</time>
      </trkpt>
      <trkpt lat="47.04409" lon="-1.64902">
        <ele>0.3</ele>
        <time>2020-06-20T10:48:59Z</time>
      </trkpt>
      <trkpt lat="47.04419" lon="-1.64896">
        <ele>0.37</ele>
        <time>2020-06-20T10:49:01Z</time>
      </trkpt>
      <trkpt lat="47.0443" lon="-1.64895">
        <ele>-0.23</ele>
        <time>2020-06-20T10:49:03Z</time>
      </trkpt>
      <trkpt lat="47.0444" lon="-1.64898">
        <ele>-0.67</ele>
        <time>2020-06-20T10:49:05Z</time>
      </trkpt>
      <trkpt lat="47.0445" lon="-1.64902">
        <ele>-0.69</ele>
        <time>2020-06-20T10:49:07Z</time>
      </trkpt>
      <trkpt lat="47.04459" lon="-1.64907">
        <ele>-0.13</ele>
        <time>2020-06-20T10:49:09Z</time>
      </trkpt>
      <trkpt lat="47.04471" lon="-1.6491">
        <ele>-0.59</ele>
        <time>2020-06-20T10:49:12Z</time>
      </trkpt>
      <trkpt lat="47.04473" lon="-1.64894">
        <ele>-0.12</ele>
        <time>2020-06-20T10:49:15Z</time>
      </trkpt>
      <trkpt lat="47.04464" lon="-1.64883">
        <ele>-0.13</ele>
        <time>2020-06-20T10:49:19Z</time>
      </trkpt>
      <trkpt lat="47.04457" lon="-1.64873">
        <ele>-0.07</ele>
        <time>2020-06-20T10:49:21Z</time>
      </trkpt>
      <trkpt lat="47.04455" lon="-1.64854">
        <ele>-0.03</ele>
        <time>2020-06-20T10:49:23Z</time>
      </trkpt>
      <trkpt lat="47.04463" lon="-1.64848">
        <ele>-0.28</ele>
        <time>2020-06-20T10:49:25Z</time>
      </trkpt>
      <trkpt lat="47.04471" lon="-1.6484">
        <ele>1.34</ele>
        <time>2020-06-20T10:49:28Z</time>
      </trkpt>
      <trkpt lat="47.04481" lon="-1.64828">
        <ele>3.61</ele>
        <time>2020-06-20T10:49:31Z</time>
      </trkpt>
      <trkpt lat="47.0449" lon="-1.64817">
        <ele>4.77</ele>
        <time>2020-06-20T10:49:33Z</time>
      </trkpt>
      <trkpt lat="47.04497" lon="-1.64807">
        <ele>5.72</ele>
        <time>2020-06-20T10:49:34Z</time>
      </trkpt>
      <trkpt lat="47.04504" lon="-1.64798">
        <ele>6.09</ele>
        <time>2020-06-20T10:49:36Z</time>
      </trkpt>
      <trkpt lat="47.04511" lon="-1.64786">
        <ele>5.06</ele>
        <time>2020-06-20T10:49:38Z</time>
      </trkpt>
      <trkpt lat="47.04517" lon="-1.64774">
        <ele>4.46</ele>
        <time>2020-06-20T10:49:40Z</time>
      </trkpt>
      <trkpt lat="47.0452" lon="-1.64761">
        <ele>5.06</ele>
        <time>2020-06-20T10:49:42Z</time>
      </trkpt>
      <trkpt lat="47.04527" lon="-1.64747">
        <ele>6.84</ele>
        <time>2020-06-20T10:49:45Z</time>
      </trkpt>
      <trkpt lat="47.04533" lon="-1.64737">
        <ele>7.87</ele>
        <time>2020-06-20T10:49:47Z</time>
      </trkpt>
      <trkpt lat="47.04541" lon="-1.64726">
        <ele>8.06</ele>
        <time>2020-06-20T10:49:49Z</time>
      </trkpt>
      <trkpt lat="47.04549" lon="-1.64714">
        <ele>7.31</ele>
        <time>2020-06-20T10:49:51Z</time>
      </trkpt>
      <trkpt lat="47.04556" lon="-1.64704">
        <ele>7.37</ele>
        <time>2020-06-20T10:49:53Z</time>
      </trkpt>
      <trkpt lat="47.04568" lon="-1.64697">
        <ele>7.22</ele>
        <time>2020-06-20T10:49:56Z</time>
      </trkpt>
      <trkpt lat="47.04574" lon="-1.64686">
        <ele>6.7</ele>
        <time>2020-06-20T10:49:58Z</time>
      </trkpt>
      <trkpt lat="47.04582" lon="-1.64672">
        <ele>6.54</ele>
        <time>2020-06-20T10:50:00Z</time>
      </trkpt>
      <trkpt lat="47.0459" lon="-1.64657">
        <ele>5.4</ele>
        <time>2020-06-20T10:50:02Z</time>
      </trkpt>
      <trkpt lat="47.04598" lon="-1.64642">
        <ele>6.3</ele>
        <time>2020-06-20T10:50:04Z</time>
      </trkpt>
      <trkpt lat="47.04607" lon="-1.64629">
        <ele>5.74</ele>
        <time>2020-06-20T10:50:06Z</time>
      </trkpt>
      <trkpt lat="47.04615" lon="-1.64615">
        <ele>3.36</ele>
        <time>2020-06-20T10:50:08Z</time>
      </trkpt>
      <trkpt lat="47.04621" lon="-1.64603">
        <ele>2.32</ele>
        <time>2020-06-20T10:50:10Z</time>
      </trkpt>
      <trkpt lat="47.04626" lon="-1.64591">
        <ele>1.51</ele>
        <time>2020-06-20T10:50:12Z</time>
      </trkpt>
      <trkpt lat="47.04633" lon="-1.64575">
        <ele>1.7</ele>
        <time>2020-06-20T10:50:14Z</time>
      </trkpt>
      <trkpt lat="47.04641" lon="-1.64561">
        <ele>1.89</ele>
        <time>2020-06-20T10:50:16Z</time>
      </trkpt>
      <trkpt lat="47.04648" lon="-1.64544">
        <ele>2.35</ele>
        <time>2020-06-20T10:50:18Z</time>
      </trkpt>
      <trkpt lat="47.04654" lon="-1.64531">
        <ele>2.64</ele>
        <time>2020-06-20T10:50:20Z</time>
      </trkpt>
      <trkpt lat="47.04662" lon="-1.64513">
        <ele>3.4</ele>
        <time>2020-06-20T10:50:22Z</time>
      </trkpt>
      <trkpt lat="47.04668" lon="-1.64499">
        <ele>3.35</ele>
        <time>2020-06-20T10:50:24Z</time>
      </trkpt>
      <trkpt lat="47.04675" lon="-1.64483">
        <ele>4.35</ele>
        <time>2020-06-20T10:50:26Z</time>
      </trkpt>
      <trkpt lat="47.04682" lon="-1.64469">
        <ele>4.88</ele>
        <time>2020-06-20T10:50:28Z</time>
      </trkpt>
      <trkpt lat="47.04689" lon="-1.64455">
        <ele>4.17</ele>
        <time>2020-06-20T10:50:30Z</time>
      </trkpt>
      <trkpt lat="47.04696" lon="-1.64442">
        <ele>3.15</ele>
        <time>2020-06-20T10:50:32Z</time>
      </trkpt>
      <trkpt lat="47.04704" lon="-1.64428">
        <ele>3.32</ele>
        <time>2020-06-20T10:50:34Z</time>
      </trkpt>
      <trkpt lat="47.04711" lon="-1.64416">
        <ele>2.16</ele>
        <time>2020-06-20T10:50:36Z</time>
      </trkpt>
      <trkpt lat="47.04719" lon="-1.64402">
        <ele>1.63</ele>
        <time>2020-06-20T10:50:38Z</time>
      </trkpt>
      <trkpt lat="47.04725" lon="-1.64388">
        <ele>2.4</ele>
        <time>2020-06-20T10:50:40Z</time>
      </trkpt>
      <trkpt lat="47.0473" lon="-1.64377">
        <ele>4.28</ele>
        <time>2020-06-20T10:50:42Z</time>
      </trkpt>
      <trkpt lat="47.04734" lon="-1.64363">
        <ele>4.75</ele>
        <time>2020-06-20T10:50:44Z</time>
      </trkpt>
      <trkpt lat="47.04731" lon="-1.64347">
        <ele>4.84</ele>
        <time>2020-06-20T10:50:46Z</time>
      </trkpt>
      <trkpt lat="47.04731" lon="-1.64332">
        <ele>4.03</ele>
        <time>2020-06-20T10:50:48Z</time>
      </trkpt>
      <trkpt lat="47.04734" lon="-1.64315">
        <ele>3.15</ele>
        <time>2020-06-20T10:50:50Z</time>
      </trkpt>
      <trkpt lat="47.04737" lon="-1.64297">
        <ele>2.98</ele>
        <time>2020-06-20T10:50:52Z</time>
      </trkpt>
      <trkpt lat="47.04741" lon="-1.64279">
        <ele>2.87</ele>
        <time>2020-06-20T10:50:54Z</time>
      </trkpt>
      <trkpt lat="47.04745" lon="-1.64263">
        <ele>2.42</ele>
        <time>2020-06-20T10:50:56Z</time>
      </trkpt>
      <trkpt lat="47.04749" lon="-1.64245">
        <ele>2.21</ele>
        <time>2020-06-20T10:50:58Z</time>
      </trkpt>
      <trkpt lat="47.04753" lon="-1.64229">
        <ele>2.21</ele>
        <time>2020-06-20T10:51:00Z</time>
      </trkpt>
      <trkpt lat="47.04757" lon="-1.64214">
        <ele>0.71</ele>
        <time>2020-06-20T10:51:02Z</time>
      </trkpt>
      <trkpt lat="47.04762" lon="-1.64196">
        <ele>1.42</ele>
        <time>2020-06-20T10:51:04Z</time>
      </trkpt>
      <trkpt lat="47.04767" lon="-1.64178">
        <ele>3.06</ele>
        <time>2020-06-20T10:51:06Z</time>
      </trkpt>
      <trkpt lat="47.04771" lon="-1.6416">
        <ele>3.75</ele>
        <time>2020-06-20T10:51:08Z</time>
      </trkpt>
      <trkpt lat="47.04774" lon="-1.64146">
        <ele>4.91</ele>
        <time>2020-06-20T10:51:10Z</time>
      </trkpt>
      <trkpt lat="47.04778" lon="-1.64129">
        <ele>5.02</ele>
        <time>2020-06-20T10:51:12Z</time>
      </trkpt>
      <trkpt lat="47.04782" lon="-1.64111">
        <ele>4.65</ele>
        <time>2020-06-20T10:51:14Z</time>
      </trkpt>
      <trkpt lat="47.04786" lon="-1.64093">
        <ele>3.91</ele>
        <time>2020-06-20T10:51:16Z</time>
      </trkpt>
      <trkpt lat="47.0479" lon="-1.64076">
        <ele>3.09</ele>
        <time>2020-06-20T10:51:18Z</time>
      </trkpt>
      <trkpt lat="47.04794" lon="-1.64059">
        <ele>2.28</ele>
        <time>2020-06-20T10:51:20Z</time>
      </trkpt>
      <trkpt lat="47.04798" lon="-1.64043">
        <ele>1.88</ele>
        <time>2020-06-20T10:51:22Z</time>
      </trkpt>
      <trkpt lat="47.04802" lon="-1.64027">
        <ele>2.07</ele>
        <time>2020-06-20T10:51:24Z</time>
      </trkpt>
      <trkpt lat="47.04807" lon="-1.64009">
        <ele>3.71</ele>
        <time>2020-06-20T10:51:26Z</time>
      </trkpt>
      <trkpt lat="47.04812" lon="-1.63992">
        <ele>5.13</ele>
        <time>2020-06-20T10:51:28Z</time>
      </trkpt>
      <trkpt lat="47.0482" lon="-1.63978">
        <ele>5.09</ele>
        <time>2020-06-20T10:51:30Z</time>
      </trkpt>
      <trkpt lat="47.0483" lon="-1.63968">
        <ele>4.49</ele>
        <time>2020-06-20T10:51:32Z</time>
      </trkpt>
      <trkpt lat="47.04839" lon="-1.63958">
        <ele>5.21</ele>
        <time>2020-06-20T10:51:34Z</time>
      </trkpt>
      <trkpt lat="47.0485" lon="-1.63949">
        <ele>5.24</ele>
        <time>2020-06-20T10:51:36Z</time>
      </trkpt>
      <trkpt lat="47.04861" lon="-1.6394">
        <ele>5.14</ele>
        <time>2020-06-20T10:51:38Z</time>
      </trkpt>
      <trkpt lat="47.04872" lon="-1.63931">
        <ele>5.87</ele>
        <time>2020-06-20T10:51:40Z</time>
      </trkpt>
      <trkpt lat="47.04881" lon="-1.63922">
        <ele>5.73</ele>
        <time>2020-06-20T10:51:42Z</time>
      </trkpt>
      <trkpt lat="47.04891" lon="-1.63914">
        <ele>5.31</ele>
        <time>2020-06-20T10:51:44Z</time>
      </trkpt>
      <trkpt lat="47.04902" lon="-1.63905">
        <ele>4.99</ele>
        <time>2020-06-20T10:51:46Z</time>
      </trkpt>
      <trkpt lat="47.04912" lon="-1.63896">
        <ele>5.02</ele>
        <time>2020-06-20T10:51:48Z</time>
      </trkpt>
      <trkpt lat="47.04921" lon="-1.63888">
        <ele>4.45</ele>
        <time>2020-06-20T10:51:50Z</time>
      </trkpt>
      <trkpt lat="47.0493" lon="-1.6388">
        <ele>4.08</ele>
        <time>2020-06-20T10:51:52Z</time>
      </trkpt>
      <trkpt lat="47.04939" lon="-1.63872">
        <ele>3.04</ele>
        <time>2020-06-20T10:51:54Z</time>
      </trkpt>
      <trkpt lat="47.04949" lon="-1.63863">
        <ele>3.15</ele>
        <time>2020-06-20T10:51:56Z</time>
      </trkpt>
      <trkpt lat="47.04959" lon="-1.63853">
        <ele>3.38</ele>
        <time>2020-06-20T10:51:58Z</time>
      </trkpt>
      <trkpt lat="47.04968" lon="-1.63844">
        <ele>2.92</ele>
        <time>2020-06-20T10:52:00Z</time>
      </trkpt>
      <trkpt lat="47.04978" lon="-1.63833">
        <ele>2.87</ele>
        <time>2020-06-20T10:52:02Z</time>
      </trkpt>
      <trkpt lat="47.04988" lon="-1.63825">
        <ele>2.42</ele>
        <time>2020-06-20T10:52:04Z</time>
      </trkpt>
      <trkpt lat="47.04999" lon="-1.63813">
        <ele>4.03</ele>
        <time>2020-06-20T10:52:07Z</time>
      </trkpt>
      <trkpt lat="47.05004" lon="-1.63802">
        <ele>5.28</ele>
        <time>2020-06-20T10:52:09Z</time>
      </trkpt>
      <trkpt lat="47.05004" lon="-1.63786">
        <ele>5.91</ele>
        <time>2020-06-20T10:52:11Z</time>
      </trkpt>
      <trkpt lat="47.05002" lon="-1.6377">
        <ele>6.42</ele>
        <time>2020-06-20T10:52:14Z</time>
      </trkpt>
      <trkpt lat="47.05008" lon="-1.63752">
        <ele>6.42</ele>
        <time>2020-06-20T10:52:17Z</time>
      </trkpt>
      <trkpt lat="47.05007" lon="-1.63735">
        <ele>6.14</ele>
        <time>2020-06-20T10:52:19Z</time>
      </trkpt>
      <trkpt lat="47.05004" lon="-1.63716">
        <ele>5.12</ele>
        <time>2020-06-20T10:52:21Z</time>
      </trkpt>
      <trkpt lat="47.05001" lon="-1.63698">
        <ele>5.18</ele>
        <time>2020-06-20T10:52:23Z</time>
      </trkpt>
      <trkpt lat="47.04996" lon="-1.6368">
        <ele>5.03</ele>
        <time>2020-06-20T10:52:25Z</time>
      </trkpt>
      <trkpt lat="47.04992" lon="-1.63664">
        <ele>4.35</ele>
        <time>2020-06-20T10:52:27Z</time>
      </trkpt>
      <trkpt lat="47.04988" lon="-1.63649">
        <ele>3.69</ele>
        <time>2020-06-20T10:52:29Z</time>
      </trkpt>
      <trkpt lat="47.04984" lon="-1.63629">
        <ele>4.35</ele>
        <time>2020-06-20T10:52:32Z</time>
      </trkpt>
      <trkpt lat="47.04982" lon="-1.63616">
        <ele>4.65</ele>
        <time>2020-06-20T10:52:34Z</time>
      </trkpt>
      <trkpt lat="47.0498" lon="-1.63603">
        <ele>4.75</ele>
        <time>2020-06-20T10:52:36Z</time>
      </trkpt>
      <trkpt lat="47.04986" lon="-1.63588">
        <ele>5.76</ele>
        <time>2020-06-20T10:52:39Z</time>
      </trkpt>
      <trkpt lat="47.04994" lon="-1.6358">
        <ele>6.59</ele>
        <time>2020-06-20T10:52:41Z</time>
      </trkpt>
      <trkpt lat="47.05003" lon="-1.63573">
        <ele>6.66</ele>
        <time>2020-06-20T10:52:43Z</time>
      </trkpt>
      <trkpt lat="47.05013" lon="-1.63565">
        <ele>7.32</ele>
        <time>2020-06-20T10:52:45Z</time>
      </trkpt>
      <trkpt lat="47.05021" lon="-1.63559">
        <ele>6.8</ele>
        <time>2020-06-20T10:52:47Z</time>
      </trkpt>
      <trkpt lat="47.05031" lon="-1.63555">
        <ele>6.73</ele>
        <time>2020-06-20T10:52:49Z</time>
      </trkpt>
      <trkpt lat="47.05042" lon="-1.6355">
        <ele>5.69</ele>
        <time>2020-06-20T10:52:51Z</time>
      </trkpt>
      <trkpt lat="47.05051" lon="-1.63546">
        <ele>4.49</ele>
        <time>2020-06-20T10:52:53Z</time>
      </trkpt>
      <trkpt lat="47.0506" lon="-1.63541">
        <ele>3.45</ele>
        <time>2020-06-20T10:52:55Z</time>
      </trkpt>
      <trkpt lat="47.05072" lon="-1.63529">
        <ele>3.74</ele>
        <time>2020-06-20T10:52:58Z</time>
      </trkpt>
      <trkpt lat="47.05082" lon="-1.63523">
        <ele>4.69</ele>
        <time>2020-06-20T10:53:00Z</time>
      </trkpt>
      <trkpt lat="47.05092" lon="-1.63518">
        <ele>5.24</ele>
        <time>2020-06-20T10:53:02Z</time>
      </trkpt>
      <trkpt lat="47.05104" lon="-1.63514">
        <ele>4.92</ele>
        <time>2020-06-20T10:53:04Z</time>
      </trkpt>
      <trkpt lat="47.05118" lon="-1.63509">
        <ele>5.31</ele>
        <time>2020-06-20T10:53:06Z</time>
      </trkpt>
      <trkpt lat="47.0513" lon="-1.63505">
        <ele>5.6</ele>
        <time>2020-06-20T10:53:08Z</time>
      </trkpt>
      <trkpt lat="47.05141" lon="-1.63501">
        <ele>5.33</ele>
        <time>2020-06-20T10:53:10Z</time>
      </trkpt>
      <trkpt lat="47.05154" lon="-1.63496">
        <ele>5.13</ele>
        <time>2020-06-20T10:53:12Z</time>
      </trkpt>
      <trkpt lat="47.05163" lon="-1.63492">
        <ele>5.34</ele>
        <time>2020-06-20T10:53:14Z</time>
      </trkpt>
      <trkpt lat="47.05174" lon="-1.63486">
        <ele>5.95</ele>
        <time>2020-06-20T10:53:16Z</time>
      </trkpt>
      <trkpt lat="47.05185" lon="-1.63482">
        <ele>5.87</ele>
        <time>2020-06-20T10:53:18Z</time>
      </trkpt>
      <trkpt lat="47.05197" lon="-1.63478">
        <ele>5.99</ele>
        <time>2020-06-20T10:53:20Z</time>
      </trkpt>
      <trkpt lat="47.0521" lon="-1.63473">
        <ele>6.37</ele>
        <time>2020-06-20T10:53:22Z</time>
      </trkpt>
      <trkpt lat="47.05222" lon="-1.63469">
        <ele>6.19</ele>
        <time>2020-06-20T10:53:24Z</time>
      </trkpt>
      <trkpt lat="47.05234" lon="-1.63466">
        <ele>6.35</ele>
        <time>2020-06-20T10:53:26Z</time>
      </trkpt>
      <trkpt lat="47.05246" lon="-1.63462">
        <ele>6.83</ele>
        <time>2020-06-20T10:53:28Z</time>
      </trkpt>
      <trkpt lat="47.05257" lon="-1.63459">
        <ele>7.2</ele>
        <time>2020-06-20T10:53:30Z</time>
      </trkpt>
      <trkpt lat="47.05269" lon="-1.63456">
        <ele>6.57</ele>
        <time>2020-06-20T10:53:32Z</time>
      </trkpt>
      <trkpt lat="47.05282" lon="-1.63454">
        <ele>5.88</ele>
        <time>2020-06-20T10:53:34Z</time>
      </trkpt>
      <trkpt lat="47.05295" lon="-1.63452">
        <ele>4.65</ele>
        <time>2020-06-20T10:53:36Z</time>
      </trkpt>
      <trkpt lat="47.05307" lon="-1.6345">
        <ele>3.37</ele>
        <time>2020-06-20T10:53:38Z</time>
      </trkpt>
      <trkpt lat="47.05319" lon="-1.63448">
        <ele>2.69</ele>
        <time>2020-06-20T10:53:40Z</time>
      </trkpt>
      <trkpt lat="47.05331" lon="-1.63447">
        <ele>0.99</ele>
        <time>2020-06-20T10:53:42Z</time>
      </trkpt>
      <trkpt lat="47.05342" lon="-1.63446">
        <ele>0.44</ele>
        <time>2020-06-20T10:53:44Z</time>
      </trkpt>
      <trkpt lat="47.05355" lon="-1.63444">
        <ele>1.46</ele>
        <time>2020-06-20T10:53:46Z</time>
      </trkpt>
      <trkpt lat="47.05364" lon="-1.63438">
        <ele>1.5</ele>
        <time>2020-06-20T10:53:48Z</time>
      </trkpt>
      <trkpt lat="47.05376" lon="-1.63433">
        <ele>1.81</ele>
        <time>2020-06-20T10:53:50Z</time>
      </trkpt>
      <trkpt lat="47.05386" lon="-1.63434">
        <ele>2.29</ele>
        <time>2020-06-20T10:53:52Z</time>
      </trkpt>
      <trkpt lat="47.05399" lon="-1.63435">
        <ele>3.15</ele>
        <time>2020-06-20T10:53:54Z</time>
      </trkpt>
      <trkpt lat="47.0541" lon="-1.63435">
        <ele>3.78</ele>
        <time>2020-06-20T10:53:56Z</time>
      </trkpt>
      <trkpt lat="47.05421" lon="-1.63435">
        <ele>2.59</ele>
        <time>2020-06-20T10:53:58Z</time>
      </trkpt>
      <trkpt lat="47.05432" lon="-1.63433">
        <ele>2.64</ele>
        <time>2020-06-20T10:54:00Z</time>
      </trkpt>
      <trkpt lat="47.05444" lon="-1.6343">
        <ele>2.37</ele>
        <time>2020-06-20T10:54:02Z</time>
      </trkpt>
      <trkpt lat="47.05455" lon="-1.63427">
        <ele>2.64</ele>
        <time>2020-06-20T10:54:04Z</time>
      </trkpt>
      <trkpt lat="47.05467" lon="-1.63426">
        <ele>2.79</ele>
        <time>2020-06-20T10:54:06Z</time>
      </trkpt>
      <trkpt lat="47.0548" lon="-1.63423">
        <ele>2.41</ele>
        <time>2020-06-20T10:54:08Z</time>
      </trkpt>
      <trkpt lat="47.05493" lon="-1.63422">
        <ele>2.97</ele>
        <time>2020-06-20T10:54:10Z</time>
      </trkpt>
      <trkpt lat="47.05504" lon="-1.6342">
        <ele>2.71</ele>
        <time>2020-06-20T10:54:12Z</time>
      </trkpt>
      <trkpt lat="47.05516" lon="-1.63418">
        <ele>1.74</ele>
        <time>2020-06-20T10:54:14Z</time>
      </trkpt>
      <trkpt lat="47.05528" lon="-1.63416">
        <ele>2.14</ele>
        <time>2020-06-20T10:54:16Z</time>
      </trkpt>
      <trkpt lat="47.05539" lon="-1.63412">
        <ele>2.55</ele>
        <time>2020-06-20T10:54:18Z</time>
      </trkpt>
      <trkpt lat="47.0555" lon="-1.63408">
        <ele>2.98</ele>
        <time>2020-06-20T10:54:20Z</time>
      </trkpt>
      <trkpt lat="47.05562" lon="-1.63404">
        <ele>2.75</ele>
        <time>2020-06-20T10:54:22Z</time>
      </trkpt>
      <trkpt lat="47.05575" lon="-1.63398">
        <ele>3.05</ele>
        <time>2020-06-20T10:54:24Z</time>
      </trkpt>
      <trkpt lat="47.05586" lon="-1.63392">
        <ele>2.89</ele>
        <time>2020-06-20T10:54:26Z</time>
      </trkpt>
      <trkpt lat="47.05598" lon="-1.63386">
        <ele>2.45</ele>
        <time>2020-06-20T10:54:28Z</time>
      </trkpt>
      <trkpt lat="47.05609" lon="-1.63381">
        <ele>2.48</ele>
        <time>2020-06-20T10:54:30Z</time>
      </trkpt>
      <trkpt lat="47.0562" lon="-1.63376">
        <ele>2.88</ele>
        <time>2020-06-20T10:54:32Z</time>
      </trkpt>
      <trkpt lat="47.05632" lon="-1.6337">
        <ele>2.92</ele>
        <time>2020-06-20T10:54:34Z</time>
      </trkpt>
      <trkpt lat="47.05644" lon="-1.63366">
        <ele>3.44</ele>
        <time>2020-06-20T10:54:36Z</time>
      </trkpt>
      <trkpt lat="47.05655" lon="-1.63361">
        <ele>4.78</ele>
        <time>2020-06-20T10:54:38Z</time>
      </trkpt>
      <trkpt lat="47.05666" lon="-1.63356">
        <ele>5.1</ele>
        <time>2020-06-20T10:54:40Z</time>
      </trkpt>
      <trkpt lat="47.05678" lon="-1.6335">
        <ele>6.19</ele>
        <time>2020-06-20T10:54:42Z</time>
      </trkpt>
      <trkpt lat="47.05687" lon="-1.63346">
        <ele>6.42</ele>
        <time>2020-06-20T10:54:44Z</time>
      </trkpt>
      <trkpt lat="47.05698" lon="-1.63341">
        <ele>7.08</ele>
        <time>2020-06-20T10:54:46Z</time>
      </trkpt>
      <trkpt lat="47.05709" lon="-1.63336">
        <ele>6.8</ele>
        <time>2020-06-20T10:54:48Z</time>
      </trkpt>
      <trkpt lat="47.05719" lon="-1.63331">
        <ele>7.3</ele>
        <time>2020-06-20T10:54:50Z</time>
      </trkpt>
      <trkpt lat="47.05729" lon="-1.63326">
        <ele>7.34</ele>
        <time>2020-06-20T10:54:52Z</time>
      </trkpt>
      <trkpt lat="47.05739" lon="-1.63321">
        <ele>7.47</ele>
        <time>2020-06-20T10:54:54Z</time>
      </trkpt>
      <trkpt lat="47.05751" lon="-1.63316">
        <ele>8.94</ele>
        <time>2020-06-20T10:54:56Z</time>
      </trkpt>
      <trkpt lat="47.05762" lon="-1.63311">
        <ele>10.12</ele>
        <time>2020-06-20T10:54:58Z</time>
      </trkpt>
      <trkpt lat="47.05774" lon="-1.63306">
        <ele>10.58</ele>
        <time>2020-06-20T10:55:00Z</time>
      </trkpt>
      <trkpt lat="47.05785" lon="-1.63301">
        <ele>10.02</ele>
        <time>2020-06-20T10:55:02Z</time>
      </trkpt>
      <trkpt lat="47.05795" lon="-1.63295">
        <ele>8.99</ele>
        <time>2020-06-20T10:55:04Z</time>
      </trkpt>
      <trkpt lat="47.05806" lon="-1.6329">
        <ele>7.84</ele>
        <time>2020-06-20T10:55:06Z</time>
      </trkpt>
      <trkpt lat="47.05815" lon="-1.63285">
        <ele>7.12</ele>
        <time>2020-06-20T10:55:08Z</time>
      </trkpt>
      <trkpt lat="47.05825" lon="-1.6328">
        <ele>6.42</ele>
        <time>2020-06-20T10:55:10Z</time>
      </trkpt>
      <trkpt lat="47.05836" lon="-1.63276">
        <ele>4.95</ele>
        <time>2020-06-20T10:55:12Z</time>
      </trkpt>
      <trkpt lat="47.05847" lon="-1.6327">
        <ele>4.22</ele>
        <time>2020-06-20T10:55:14Z</time>
      </trkpt>
      <trkpt lat="47.05859" lon="-1.63263">
        <ele>4.62</ele>
        <time>2020-06-20T10:55:16Z</time>
      </trkpt>
      <trkpt lat="47.0587" lon="-1.63257">
        <ele>4.37</ele>
        <time>2020-06-20T10:55:18Z</time>
      </trkpt>
      <trkpt lat="47.0588" lon="-1.63253">
        <ele>3.16</ele>
        <time>2020-06-20T10:55:20Z</time>
      </trkpt>
      <trkpt lat="47.0589" lon="-1.63248">
        <ele>2.84</ele>
        <time>2020-06-20T10:55:22Z</time>
      </trkpt>
      <trkpt lat="47.059" lon="-1.63243">
        <ele>2.18</ele>
        <time>2020-06-20T10:55:24Z</time>
      </trkpt>
      <trkpt lat="47.05911" lon="-1.63238">
        <ele>1.27</ele>
        <time>2020-06-20T10:55:26Z</time>
      </trkpt>
      <trkpt lat="47.05922" lon="-1.63233">
        <ele>0.31</ele>
        <time>2020-06-20T10:55:28Z</time>
      </trkpt>
      <trkpt lat="47.05934" lon="-1.63228">
        <ele>1.1</ele>
        <time>2020-06-20T10:55:30Z</time>
      </trkpt>
      <trkpt lat="47.05945" lon="-1.63225">
        <ele>0.49</ele>
        <time>2020-06-20T10:55:32Z</time>
      </trkpt>
      <trkpt lat="47.05955" lon="-1.63219">
        <ele>1.64</ele>
        <time>2020-06-20T10:55:34Z</time>
      </trkpt>
      <trkpt lat="47.05966" lon="-1.63215">
        <ele>2.88</ele>
        <time>2020-06-20T10:55:36Z</time>
      </trkpt>
      <trkpt lat="47.05978" lon="-1.6321">
        <ele>3.61</ele>
        <time>2020-06-20T10:55:38Z</time>
      </trkpt>
      <trkpt lat="47.0599" lon="-1.63205">
        <ele>4.61</ele>
        <time>2020-06-20T10:55:40Z</time>
      </trkpt>
      <trkpt lat="47.06001" lon="-1.63202">
        <ele>5.08</ele>
        <time>2020-06-20T10:55:42Z</time>
      </trkpt>
      <trkpt lat="47.06012" lon="-1.63197">
        <ele>4.42</ele>
        <time>2020-06-20T10:55:44Z</time>
      </trkpt>
      <trkpt lat="47.06027" lon="-1.63193">
        <ele>4.76</ele>
        <time>2020-06-20T10:55:46Z</time>
      </trkpt>
      <trkpt lat="47.0604" lon="-1.63187">
        <ele>6.15</ele>
        <time>2020-06-20T10:55:48Z</time>
      </trkpt>
      <trkpt lat="47.06051" lon="-1.63185">
        <ele>6.33</ele>
        <time>2020-06-20T10:55:50Z</time>
      </trkpt>
      <trkpt lat="47.06052" lon="-1.63206">
        <ele>5.28</ele>
        <time>2020-06-20T10:55:53Z</time>
      </trkpt>
      <trkpt lat="47.06051" lon="-1.63222">
        <ele>4.61</ele>
        <time>2020-06-20T10:55:55Z</time>
      </trkpt>
      <trkpt lat="47.0605" lon="-1.6324">
        <ele>4.25</ele>
        <time>2020-06-20T10:55:57Z</time>
      </trkpt>
      <trkpt lat="47.06048" lon="-1.63256">
        <ele>3.85</ele>
        <time>2020-06-20T10:55:59Z</time>
      </trkpt>
      <trkpt lat="47.06045" lon="-1.63272">
        <ele>2.83</ele>
        <time>2020-06-20T10:56:01Z</time>
      </trkpt>
      <trkpt lat="47.06042" lon="-1.63291">
        <ele>1.02</ele>
        <time>2020-06-20T10:56:03Z</time>
      </trkpt>
      <trkpt lat="47.0604" lon="-1.63309">
        <ele>-0.02</ele>
        <time>2020-06-20T10:56:05Z</time>
      </trkpt>
      <trkpt lat="47.06045" lon="-1.63324">
        <ele>-1.08</ele>
        <time>2020-06-20T10:56:07Z</time>
      </trkpt>
      <trkpt lat="47.06057" lon="-1.63328">
        <ele>-0.52</ele>
        <time>2020-06-20T10:56:09Z</time>
      </trkpt>
      <trkpt lat="47.06069" lon="-1.63332">
        <ele>0.31</ele>
        <time>2020-06-20T10:56:11Z</time>
      </trkpt>
      <trkpt lat="47.06079" lon="-1.63336">
        <ele>1</ele>
        <time>2020-06-20T10:56:13Z</time>
      </trkpt>
      <trkpt lat="47.06089" lon="-1.63341">
        <ele>2.8</ele>
        <time>2020-06-20T10:56:15Z</time>
      </trkpt>
      <trkpt lat="47.06101" lon="-1.63346">
        <ele>4.1</ele>
        <time>2020-06-20T10:56:17Z</time>
      </trkpt>
      <trkpt lat="47.06113" lon="-1.63351">
        <ele>4.44</ele>
        <time>2020-06-20T10:56:19Z</time>
      </trkpt>
      <trkpt lat="47.06124" lon="-1.63355">
        <ele>4.47</ele>
        <time>2020-06-20T10:56:21Z</time>
      </trkpt>
      <trkpt lat="47.06135" lon="-1.63359">
        <ele>4.68</ele>
        <time>2020-06-20T10:56:23Z</time>
      </trkpt>
      <trkpt lat="47.06146" lon="-1.63363">
        <ele>3.82</ele>
        <time>2020-06-20T10:56:25Z</time>
      </trkpt>
      <trkpt lat="47.06156" lon="-1.63367">
        <ele>2.94</ele>
        <time>2020-06-20T10:56:27Z</time>
      </trkpt>
      <trkpt lat="47.0617" lon="-1.63373">
        <ele>1.93</ele>
        <time>2020-06-20T10:56:29Z</time>
      </trkpt>
      <trkpt lat="47.0618" lon="-1.63377">
        <ele>1.23</ele>
        <time>2020-06-20T10:56:31Z</time>
      </trkpt>
      <trkpt lat="47.06189" lon="-1.63381">
        <ele>1.22</ele>
        <time>2020-06-20T10:56:33Z</time>
      </trkpt>
      <trkpt lat="47.062" lon="-1.63386">
        <ele>0.95</ele>
        <time>2020-06-20T10:56:35Z</time>
      </trkpt>
      <trkpt lat="47.06213" lon="-1.6339">
        <ele>1.44</ele>
        <time>2020-06-20T10:56:37Z</time>
      </trkpt>
      <trkpt lat="47.06225" lon="-1.63395">
        <ele>2.63</ele>
        <time>2020-06-20T10:56:39Z</time>
      </trkpt>
      <trkpt lat="47.06235" lon="-1.63397">
        <ele>3.49</ele>
        <time>2020-06-20T10:56:41Z</time>
      </trkpt>
      <trkpt lat="47.06245" lon="-1.63401">
        <ele>2.81</ele>
        <time>2020-06-20T10:56:43Z</time>
      </trkpt>
      <trkpt lat="47.06258" lon="-1.63405">
        <ele>2.02</ele>
        <time>2020-06-20T10:56:45Z</time>
      </trkpt>
      <trkpt lat="47.06268" lon="-1.63409">
        <ele>1.04</ele>
        <time>2020-06-20T10:56:47Z</time>
      </trkpt>
      <trkpt lat="47.06279" lon="-1.63413">
        <ele>1.43</ele>
        <time>2020-06-20T10:56:49Z</time>
      </trkpt>
      <trkpt lat="47.0629" lon="-1.63417">
        <ele>2.33</ele>
        <time>2020-06-20T10:56:51Z</time>
      </trkpt>
      <trkpt lat="47.063" lon="-1.6342">
        <ele>3.16</ele>
        <time>2020-06-20T10:56:53Z</time>
      </trkpt>
      <trkpt lat="47.06311" lon="-1.63426">
        <ele>3.34</ele>
        <time>2020-06-20T10:56:55Z</time>
      </trkpt>
      <trkpt lat="47.06322" lon="-1.63433">
        <ele>3.77</ele>
        <time>2020-06-20T10:56:57Z</time>
      </trkpt>
      <trkpt lat="47.06334" lon="-1.63443">
        <ele>3.65</ele>
        <time>2020-06-20T10:56:59Z</time>
      </trkpt>
      <trkpt lat="47.06344" lon="-1.63451">
        <ele>4.01</ele>
        <time>2020-06-20T10:57:01Z</time>
      </trkpt>
      <trkpt lat="47.06354" lon="-1.63462">
        <ele>4.39</ele>
        <time>2020-06-20T10:57:03Z</time>
      </trkpt>
      <trkpt lat="47.06363" lon="-1.63474">
        <ele>4.33</ele>
        <time>2020-06-20T10:57:05Z</time>
      </trkpt>
      <trkpt lat="47.06371" lon="-1.63487">
        <ele>5.47</ele>
        <time>2020-06-20T10:57:07Z</time>
      </trkpt>
      <trkpt lat="47.06378" lon="-1.63504">
        <ele>6.26</ele>
        <time>2020-06-20T10:57:09Z</time>
      </trkpt>
      <trkpt lat="47.06385" lon="-1.6352">
        <ele>5.8</ele>
        <time>2020-06-20T10:57:11Z</time>
      </trkpt>
      <trkpt lat="47.06392" lon="-1.63531">
        <ele>4.41</ele>
        <time>2020-06-20T10:57:13Z</time>
      </trkpt>
      <trkpt lat="47.064" lon="-1.63539">
        <ele>4.01</ele>
        <time>2020-06-20T10:57:15Z</time>
      </trkpt>
      <trkpt lat="47.06409" lon="-1.63548">
        <ele>4.52</ele>
        <time>2020-06-20T10:57:17Z</time>
      </trkpt>
      <trkpt lat="47.06419" lon="-1.63556">
        <ele>4.32</ele>
        <time>2020-06-20T10:57:19Z</time>
      </trkpt>
      <trkpt lat="47.06429" lon="-1.63565">
        <ele>2.88</ele>
        <time>2020-06-20T10:57:21Z</time>
      </trkpt>
      <trkpt lat="47.0644" lon="-1.63574">
        <ele>2.08</ele>
        <time>2020-06-20T10:57:23Z</time>
      </trkpt>
      <trkpt lat="47.06448" lon="-1.63582">
        <ele>2</ele>
        <time>2020-06-20T10:57:25Z</time>
      </trkpt>
      <trkpt lat="47.06458" lon="-1.6359">
        <ele>1.63</ele>
        <time>2020-06-20T10:57:27Z</time>
      </trkpt>
      <trkpt lat="47.06467" lon="-1.63598">
        <ele>1.25</ele>
        <time>2020-06-20T10:57:29Z</time>
      </trkpt>
      <trkpt lat="47.06476" lon="-1.63605">
        <ele>0.98</ele>
        <time>2020-06-20T10:57:31Z</time>
      </trkpt>
      <trkpt lat="47.06485" lon="-1.63613">
        <ele>1.21</ele>
        <time>2020-06-20T10:57:33Z</time>
      </trkpt>
      <trkpt lat="47.06495" lon="-1.6362">
        <ele>1.08</ele>
        <time>2020-06-20T10:57:35Z</time>
      </trkpt>
      <trkpt lat="47.06506" lon="-1.63628">
        <ele>0.9</ele>
        <time>2020-06-20T10:57:37Z</time>
      </trkpt>
      <trkpt lat="47.06517" lon="-1.63636">
        <ele>-0.27</ele>
        <time>2020-06-20T10:57:39Z</time>
      </trkpt>
      <trkpt lat="47.06528" lon="-1.63643">
        <ele>1.2</ele>
        <time>2020-06-20T10:57:41Z</time>
      </trkpt>
      <trkpt lat="47.06538" lon="-1.63651">
        <ele>1.82</ele>
        <time>2020-06-20T10:57:43Z</time>
      </trkpt>
      <trkpt lat="47.06549" lon="-1.63658">
        <ele>2.99</ele>
        <time>2020-06-20T10:57:45Z</time>
      </trkpt>
      <trkpt lat="47.06559" lon="-1.63665">
        <ele>3.63</ele>
        <time>2020-06-20T10:57:47Z</time>
      </trkpt>
      <trkpt lat="47.06571" lon="-1.63676">
        <ele>4.33</ele>
        <time>2020-06-20T10:57:50Z</time>
      </trkpt>
      <trkpt lat="47.0658" lon="-1.63685">
        <ele>4.07</ele>
        <time>2020-06-20T10:57:52Z</time>
      </trkpt>
      <trkpt lat="47.06589" lon="-1.63694">
        <ele>3.58</ele>
        <time>2020-06-20T10:57:54Z</time>
      </trkpt>
      <trkpt lat="47.06598" lon="-1.63705">
        <ele>3.69</ele>
        <time>2020-06-20T10:57:56Z</time>
      </trkpt>
      <trkpt lat="47.06607" lon="-1.63715">
        <ele>3.82</ele>
        <time>2020-06-20T10:57:58Z</time>
      </trkpt>
      <trkpt lat="47.06615" lon="-1.63725">
        <ele>3.15</ele>
        <time>2020-06-20T10:58:00Z</time>
      </trkpt>
      <trkpt lat="47.06623" lon="-1.63735">
        <ele>3.3</ele>
        <time>2020-06-20T10:58:02Z</time>
      </trkpt>
      <trkpt lat="47.06631" lon="-1.63745">
        <ele>3.22</ele>
        <time>2020-06-20T10:58:04Z</time>
      </trkpt>
      <trkpt lat="47.06639" lon="-1.63756">
        <ele>3.71</ele>
        <time>2020-06-20T10:58:06Z</time>
      </trkpt>
      <trkpt lat="47.06647" lon="-1.63766">
        <ele>3.5</ele>
        <time>2020-06-20T10:58:08Z</time>
      </trkpt>
      <trkpt lat="47.06654" lon="-1.63775">
        <ele>2.97</ele>
        <time>2020-06-20T10:58:10Z</time>
      </trkpt>
      <trkpt lat="47.06663" lon="-1.63786">
        <ele>3.37</ele>
        <time>2020-06-20T10:58:12Z</time>
      </trkpt>
      <trkpt lat="47.06672" lon="-1.63797">
        <ele>3.72</ele>
        <time>2020-06-20T10:58:14Z</time>
      </trkpt>
      <trkpt lat="47.0668" lon="-1.63807">
        <ele>2.95</ele>
        <time>2020-06-20T10:58:16Z</time>
      </trkpt>
      <trkpt lat="47.06689" lon="-1.6382">
        <ele>2.99</ele>
        <time>2020-06-20T10:58:18Z</time>
      </trkpt>
      <trkpt lat="47.06698" lon="-1.63832">
        <ele>2.62</ele>
        <time>2020-06-20T10:58:20Z</time>
      </trkpt>
      <trkpt lat="47.06706" lon="-1.63839">
        <ele>1.97</ele>
        <time>2020-06-20T10:58:22Z</time>
      </trkpt>
      <trkpt lat="47.06716" lon="-1.63841">
        <ele>1.28</ele>
        <time>2020-06-20T10:58:24Z</time>
      </trkpt>
      <trkpt lat="47.06729" lon="-1.63836">
        <ele>0.46</ele>
        <time>2020-06-20T10:58:26Z</time>
      </trkpt>
      <trkpt lat="47.06739" lon="-1.63828">
        <ele>1.08</ele>
        <time>2020-06-20T10:58:28Z</time>
      </trkpt>
      <trkpt lat="47.06749" lon="-1.63818">
        <ele>2.24</ele>
        <time>2020-06-20T10:58:30Z</time>
      </trkpt>
      <trkpt lat="47.06759" lon="-1.63809">
        <ele>2.54</ele>
        <time>2020-06-20T10:58:32Z</time>
      </trkpt>
      <trkpt lat="47.06767" lon="-1.638">
        <ele>3.05</ele>
        <time>2020-06-20T10:58:34Z</time>
      </trkpt>
      <trkpt lat="47.06776" lon="-1.63791">
        <ele>3.77</ele>
        <time>2020-06-20T10:58:36Z</time>
      </trkpt>
      <trkpt lat="47.06783" lon="-1.63782">
        <ele>3.06</ele>
        <time>2020-06-20T10:58:38Z</time>
      </trkpt>
      <trkpt lat="47.06792" lon="-1.63774">
        <ele>2.15</ele>
        <time>2020-06-20T10:58:40Z</time>
      </trkpt>
      <trkpt lat="47.06801" lon="-1.63765">
        <ele>1.85</ele>
        <time>2020-06-20T10:58:42Z</time>
      </trkpt>
      <trkpt lat="47.06811" lon="-1.63755">
        <ele>1.76</ele>
        <time>2020-06-20T10:58:44Z</time>
      </trkpt>
      <trkpt lat="47.0682" lon="-1.63745">
        <ele>1.88</ele>
        <time>2020-06-20T10:58:46Z</time>
      </trkpt>
      <trkpt lat="47.06829" lon="-1.63733">
        <ele>2.53</ele>
        <time>2020-06-20T10:58:48Z</time>
      </trkpt>
      <trkpt lat="47.06837" lon="-1.63719">
        <ele>3.08</ele>
        <time>2020-06-20T10:58:50Z</time>
      </trkpt>
      <trkpt lat="47.06844" lon="-1.63705">
        <ele>3.62</ele>
        <time>2020-06-20T10:58:52Z</time>
      </trkpt>
      <trkpt lat="47.0685" lon="-1.63688">
        <ele>3.76</ele>
        <time>2020-06-20T10:58:54Z</time>
      </trkpt>
      <trkpt lat="47.06852" lon="-1.63673">
        <ele>4.74</ele>
        <time>2020-06-20T10:58:56Z</time>
      </trkpt>
      <trkpt lat="47.06856" lon="-1.63658">
        <ele>5.31</ele>
        <time>2020-06-20T10:58:58Z</time>
      </trkpt>
      <trkpt lat="47.06858" lon="-1.6364">
        <ele>5.33</ele>
        <time>2020-06-20T10:59:00Z</time>
      </trkpt>
      <trkpt lat="47.0686" lon="-1.63624">
        <ele>5.61</ele>
        <time>2020-06-20T10:59:02Z</time>
      </trkpt>
      <trkpt lat="47.06862" lon="-1.63606">
        <ele>6.48</ele>
        <time>2020-06-20T10:59:04Z</time>
      </trkpt>
      <trkpt lat="47.06863" lon="-1.63589">
        <ele>6.75</ele>
        <time>2020-06-20T10:59:06Z</time>
      </trkpt>
      <trkpt lat="47.06865" lon="-1.63574">
        <ele>5.73</ele>
        <time>2020-06-20T10:59:08Z</time>
      </trkpt>
      <trkpt lat="47.06867" lon="-1.63556">
        <ele>4.03</ele>
        <time>2020-06-20T10:59:10Z</time>
      </trkpt>
      <trkpt lat="47.0687" lon="-1.63537">
        <ele>4.73</ele>
        <time>2020-06-20T10:59:12Z</time>
      </trkpt>
      <trkpt lat="47.06874" lon="-1.63518">
        <ele>4.91</ele>
        <time>2020-06-20T10:59:14Z</time>
      </trkpt>
      <trkpt lat="47.06879" lon="-1.63502">
        <ele>4.29</ele>
        <time>2020-06-20T10:59:16Z</time>
      </trkpt>
      <trkpt lat="47.06884" lon="-1.63488">
        <ele>3.32</ele>
        <time>2020-06-20T10:59:18Z</time>
      </trkpt>
      <trkpt lat="47.06892" lon="-1.63477">
        <ele>3.67</ele>
        <time>2020-06-20T10:59:20Z</time>
      </trkpt>
      <trkpt lat="47.069" lon="-1.63469">
        <ele>4.15</ele>
        <time>2020-06-20T10:59:22Z</time>
      </trkpt>
      <trkpt lat="47.06909" lon="-1.63461">
        <ele>4.68</ele>
        <time>2020-06-20T10:59:24Z</time>
      </trkpt>
      <trkpt lat="47.06919" lon="-1.63453">
        <ele>5.32</ele>
        <time>2020-06-20T10:59:26Z</time>
      </trkpt>
      <trkpt lat="47.06928" lon="-1.63447">
        <ele>5.72</ele>
        <time>2020-06-20T10:59:28Z</time>
      </trkpt>
      <trkpt lat="47.06938" lon="-1.63443">
        <ele>4.61</ele>
        <time>2020-06-20T10:59:30Z</time>
      </trkpt>
      <trkpt lat="47.06948" lon="-1.63436">
        <ele>3.54</ele>
        <time>2020-06-20T10:59:32Z</time>
      </trkpt>
      <trkpt lat="47.06959" lon="-1.63426">
        <ele>4.02</ele>
        <time>2020-06-20T10:59:34Z</time>
      </trkpt>
      <trkpt lat="47.06971" lon="-1.63415">
        <ele>4.4</ele>
        <time>2020-06-20T10:59:36Z</time>
      </trkpt>
      <trkpt lat="47.06983" lon="-1.63403">
        <ele>4.53</ele>
        <time>2020-06-20T10:59:38Z</time>
      </trkpt>
      <trkpt lat="47.06994" lon="-1.63392">
        <ele>3.94</ele>
        <time>2020-06-20T10:59:40Z</time>
      </trkpt>
      <trkpt lat="47.07004" lon="-1.63381">
        <ele>4.55</ele>
        <time>2020-06-20T10:59:42Z</time>
      </trkpt>
      <trkpt lat="47.07013" lon="-1.63372">
        <ele>3.05</ele>
        <time>2020-06-20T10:59:44Z</time>
      </trkpt>
      <trkpt lat="47.07023" lon="-1.63362">
        <ele>2.45</ele>
        <time>2020-06-20T10:59:46Z</time>
      </trkpt>
      <trkpt lat="47.07033" lon="-1.63352">
        <ele>2.3</ele>
        <time>2020-06-20T10:59:48Z</time>
      </trkpt>
      <trkpt lat="47.07043" lon="-1.63342">
        <ele>3.26</ele>
        <time>2020-06-20T10:59:50Z</time>
      </trkpt>
      <trkpt lat="47.07054" lon="-1.63329">
        <ele>4.3</ele>
        <time>2020-06-20T10:59:52Z</time>
      </trkpt>
      <trkpt lat="47.07064" lon="-1.63316">
        <ele>4.3</ele>
        <time>2020-06-20T10:59:54Z</time>
      </trkpt>
      <trkpt lat="47.0707" lon="-1.63302">
        <ele>4.6</ele>
        <time>2020-06-20T10:59:56Z</time>
      </trkpt>
      <trkpt lat="47.07075" lon="-1.63286">
        <ele>5.16</ele>
        <time>2020-06-20T10:59:58Z</time>
      </trkpt>
      <trkpt lat="47.07082" lon="-1.63268">
        <ele>4.88</ele>
        <time>2020-06-20T11:00:00Z</time>
      </trkpt>
      <trkpt lat="47.07088" lon="-1.6325">
        <ele>4.12</ele>
        <time>2020-06-20T11:00:02Z</time>
      </trkpt>
      <trkpt lat="47.07091" lon="-1.63233">
        <ele>3.58</ele>
        <time>2020-06-20T11:00:04Z</time>
      </trkpt>
      <trkpt lat="47.07094" lon="-1.63213">
        <ele>2.61</ele>
        <time>2020-06-20T11:00:06Z</time>
      </trkpt>
      <trkpt lat="47.07096" lon="-1.63198">
        <ele>1.91</ele>
        <time>2020-06-20T11:00:08Z</time>
      </trkpt>
      <trkpt lat="47.071" lon="-1.63181">
        <ele>1.03</ele>
        <time>2020-06-20T11:00:10Z</time>
      </trkpt>
      <trkpt lat="47.07107" lon="-1.63167">
        <ele>1.29</ele>
        <time>2020-06-20T11:00:12Z</time>
      </trkpt>
      <trkpt lat="47.07115" lon="-1.63156">
        <ele>1.94</ele>
        <time>2020-06-20T11:00:14Z</time>
      </trkpt>
      <trkpt lat="47.07126" lon="-1.63146">
        <ele>3.79</ele>
        <time>2020-06-20T11:00:17Z</time>
      </trkpt>
      <trkpt lat="47.07135" lon="-1.63138">
        <ele>6.5</ele>
        <time>2020-06-20T11:00:19Z</time>
      </trkpt>
      <trkpt lat="47.07145" lon="-1.63133">
        <ele>7.46</ele>
        <time>2020-06-20T11:00:21Z</time>
      </trkpt>
      <trkpt lat="47.07158" lon="-1.6313">
        <ele>7.44</ele>
        <time>2020-06-20T11:00:24Z</time>
      </trkpt>
      <trkpt lat="47.07172" lon="-1.63128">
        <ele>7.54</ele>
        <time>2020-06-20T11:00:26Z</time>
      </trkpt>
      <trkpt lat="47.07184" lon="-1.63128">
        <ele>8.27</ele>
        <time>2020-06-20T11:00:28Z</time>
      </trkpt>
      <trkpt lat="47.07194" lon="-1.63128">
        <ele>8.11</ele>
        <time>2020-06-20T11:00:30Z</time>
      </trkpt>
      <trkpt lat="47.07207" lon="-1.63134">
        <ele>6.84</ele>
        <time>2020-06-20T11:00:32Z</time>
      </trkpt>
      <trkpt lat="47.07218" lon="-1.63142">
        <ele>4.68</ele>
        <time>2020-06-20T11:00:34Z</time>
      </trkpt>
      <trkpt lat="47.07228" lon="-1.6315">
        <ele>1.66</ele>
        <time>2020-06-20T11:00:36Z</time>
      </trkpt>
      <trkpt lat="47.07238" lon="-1.6316">
        <ele>-0.47</ele>
        <time>2020-06-20T11:00:38Z</time>
      </trkpt>
      <trkpt lat="47.07247" lon="-1.63168">
        <ele>-0.62</ele>
        <time>2020-06-20T11:00:40Z</time>
      </trkpt>
      <trkpt lat="47.07256" lon="-1.63177">
        <ele>0.26</ele>
        <time>2020-06-20T11:00:42Z</time>
      </trkpt>
      <trkpt lat="47.07265" lon="-1.63187">
        <ele>0.85</ele>
        <time>2020-06-20T11:00:44Z</time>
      </trkpt>
      <trkpt lat="47.07274" lon="-1.63197">
        <ele>1.06</ele>
        <time>2020-06-20T11:00:46Z</time>
      </trkpt>
      <trkpt lat="47.07282" lon="-1.63209">
        <ele>0.03</ele>
        <time>2020-06-20T11:00:48Z</time>
      </trkpt>
      <trkpt lat="47.0729" lon="-1.63219">
        <ele>-0.33</ele>
        <time>2020-06-20T11:00:50Z</time>
      </trkpt>
      <trkpt lat="47.07298" lon="-1.63228">
        <ele>0.07</ele>
        <time>2020-06-20T11:00:52Z</time>
      </trkpt>
      <trkpt lat="47.07307" lon="-1.63239">
        <ele>-0.19</ele>
        <time>2020-06-20T11:00:54Z</time>
      </trkpt>
      <trkpt lat="47.07316" lon="-1.63251">
        <ele>-0.19</ele>
        <time>2020-06-20T11:00:56Z</time>
      </trkpt>
      <trkpt lat="47.07325" lon="-1.63263">
        <ele>1.29</ele>
        <time>2020-06-20T11:00:58Z</time>
      </trkpt>
      <trkpt lat="47.07334" lon="-1.63273">
        <ele>1.81</ele>
        <time>2020-06-20T11:01:00Z</time>
      </trkpt>
      <trkpt lat="47.07345" lon="-1.63284">
        <ele>2.67</ele>
        <time>2020-06-20T11:01:02Z</time>
      </trkpt>
      <trkpt lat="47.07353" lon="-1.63291">
        <ele>3.24</ele>
        <time>2020-06-20T11:01:04Z</time>
      </trkpt>
      <trkpt lat="47.07362" lon="-1.63298">
        <ele>2.97</ele>
        <time>2020-06-20T11:01:06Z</time>
      </trkpt>
      <trkpt lat="47.07372" lon="-1.63306">
        <ele>2.22</ele>
        <time>2020-06-20T11:01:08Z</time>
      </trkpt>
      <trkpt lat="47.07382" lon="-1.63313">
        <ele>1.98</ele>
        <time>2020-06-20T11:01:10Z</time>
      </trkpt>
      <trkpt lat="47.07391" lon="-1.6332">
        <ele>2.07</ele>
        <time>2020-06-20T11:01:12Z</time>
      </trkpt>
      <trkpt lat="47.07401" lon="-1.63327">
        <ele>2.59</ele>
        <time>2020-06-20T11:01:14Z</time>
      </trkpt>
      <trkpt lat="47.07412" lon="-1.63336">
        <ele>1.68</ele>
        <time>2020-06-20T11:01:16Z</time>
      </trkpt>
      <trkpt lat="47.07425" lon="-1.63344">
        <ele>2.66</ele>
        <time>2020-06-20T11:01:18Z</time>
      </trkpt>
      <trkpt lat="47.07434" lon="-1.63349">
        <ele>1.87</ele>
        <time>2020-06-20T11:01:20Z</time>
      </trkpt>
      <trkpt lat="47.07445" lon="-1.63356">
        <ele>1.4</ele>
        <time>2020-06-20T11:01:22Z</time>
      </trkpt>
      <trkpt lat="47.07457" lon="-1.63363">
        <ele>0.32</ele>
        <time>2020-06-20T11:01:24Z</time>
      </trkpt>
      <trkpt lat="47.07467" lon="-1.63369">
        <ele>-0.07</ele>
        <time>2020-06-20T11:01:26Z</time>
      </trkpt>
      <trkpt lat="47.07477" lon="-1.63375">
        <ele>-0.13</ele>
        <time>2020-06-20T11:01:28Z</time>
      </trkpt>
      <trkpt lat="47.07489" lon="-1.63382">
        <ele>0.12</ele>
        <time>2020-06-20T11:01:30Z</time>
      </trkpt>
      <trkpt lat="47.07501" lon="-1.63389">
        <ele>0.57</ele>
        <time>2020-06-20T11:01:32Z</time>
      </trkpt>
      <trkpt lat="47.07509" lon="-1.63395">
        <ele>2.11</ele>
        <time>2020-06-20T11:01:34Z</time>
      </trkpt>
      <trkpt lat="47.0752" lon="-1.63401">
        <ele>2.5</ele>
        <time>2020-06-20T11:01:36Z</time>
      </trkpt>
      <trkpt lat="47.07531" lon="-1.63409">
        <ele>2.21</ele>
        <time>2020-06-20T11:01:38Z</time>
      </trkpt>
      <trkpt lat="47.07541" lon="-1.63415">
        <ele>1.56</ele>
        <time>2020-06-20T11:01:40Z</time>
      </trkpt>
      <trkpt lat="47.0755" lon="-1.63419">
        <ele>0.35</ele>
        <time>2020-06-20T11:01:42Z</time>
      </trkpt>
      <trkpt lat="47.07562" lon="-1.63424">
        <ele>1.51</ele>
        <time>2020-06-20T11:01:44Z</time>
      </trkpt>
      <trkpt lat="47.07574" lon="-1.6343">
        <ele>2.13</ele>
        <time>2020-06-20T11:01:46Z</time>
      </trkpt>
      <trkpt lat="47.07585" lon="-1.63434">
        <ele>2.76</ele>
        <time>2020-06-20T11:01:48Z</time>
      </trkpt>
      <trkpt lat="47.07595" lon="-1.63436">
        <ele>3.32</ele>
        <time>2020-06-20T11:01:50Z</time>
      </trkpt>
      <trkpt lat="47.07604" lon="-1.63437">
        <ele>2.81</ele>
        <time>2020-06-20T11:01:52Z</time>
      </trkpt>
      <trkpt lat="47.07614" lon="-1.63435">
        <ele>2.75</ele>
        <time>2020-06-20T11:01:54Z</time>
      </trkpt>
      <trkpt lat="47.07624" lon="-1.63432">
        <ele>2.94</ele>
        <time>2020-06-20T11:01:56Z</time>
      </trkpt>
      <trkpt lat="47.07635" lon="-1.63428">
        <ele>2.27</ele>
        <time>2020-06-20T11:01:58Z</time>
      </trkpt>
      <trkpt lat="47.07647" lon="-1.63423">
        <ele>3.15</ele>
        <time>2020-06-20T11:02:00Z</time>
      </trkpt>
      <trkpt lat="47.07658" lon="-1.63419">
        <ele>3.8</ele>
        <time>2020-06-20T11:02:02Z</time>
      </trkpt>
      <trkpt lat="47.07669" lon="-1.63416">
        <ele>3.91</ele>
        <time>2020-06-20T11:02:04Z</time>
      </trkpt>
      <trkpt lat="47.07679" lon="-1.63413">
        <ele>4.02</ele>
        <time>2020-06-20T11:02:06Z</time>
      </trkpt>
      <trkpt lat="47.07693" lon="-1.63408">
        <ele>3.88</ele>
        <time>2020-06-20T11:02:09Z</time>
      </trkpt>
      <trkpt lat="47.07703" lon="-1.63399">
        <ele>4.9</ele>
        <time>2020-06-20T11:02:11Z</time>
      </trkpt>
      <trkpt lat="47.07714" lon="-1.63386">
        <ele>6.86</ele>
        <time>2020-06-20T11:02:13Z</time>
      </trkpt>
      <trkpt lat="47.07723" lon="-1.63376">
        <ele>7.94</ele>
        <time>2020-06-20T11:02:15Z</time>
      </trkpt>
      <trkpt lat="47.07734" lon="-1.63365">
        <ele>8.51</ele>
        <time>2020-06-20T11:02:17Z</time>
      </trkpt>
      <trkpt lat="47.07743" lon="-1.63355">
        <ele>9.14</ele>
        <time>2020-06-20T11:02:19Z</time>
      </trkpt>
      <trkpt lat="47.07753" lon="-1.63343">
        <ele>9.54</ele>
        <time>2020-06-20T11:02:21Z</time>
      </trkpt>
      <trkpt lat="47.07763" lon="-1.63333">
        <ele>9.27</ele>
        <time>2020-06-20T11:02:23Z</time>
      </trkpt>
      <trkpt lat="47.07773" lon="-1.63323">
        <ele>9.32</ele>
        <time>2020-06-20T11:02:25Z</time>
      </trkpt>
      <trkpt lat="47.07783" lon="-1.63311">
        <ele>9.54</ele>
        <time>2020-06-20T11:02:27Z</time>
      </trkpt>
      <trkpt lat="47.07792" lon="-1.63301">
        <ele>9.28</ele>
        <time>2020-06-20T11:02:29Z</time>
      </trkpt>
      <trkpt lat="47.07801" lon="-1.63289">
        <ele>9.23</ele>
        <time>2020-06-20T11:02:31Z</time>
      </trkpt>
      <trkpt lat="47.07811" lon="-1.63277">
        <ele>9.39</ele>
        <time>2020-06-20T11:02:33Z</time>
      </trkpt>
      <trkpt lat="47.07818" lon="-1.63265">
        <ele>10.14</ele>
        <time>2020-06-20T11:02:35Z</time>
      </trkpt>
      <trkpt lat="47.07826" lon="-1.63251">
        <ele>9.95</ele>
        <time>2020-06-20T11:02:37Z</time>
      </trkpt>
      <trkpt lat="47.07829" lon="-1.63232">
        <ele>8.67</ele>
        <time>2020-06-20T11:02:39Z</time>
      </trkpt>
      <trkpt lat="47.07827" lon="-1.63216">
        <ele>7.17</ele>
        <time>2020-06-20T11:02:41Z</time>
      </trkpt>
      <trkpt lat="47.0782" lon="-1.63199">
        <ele>5.82</ele>
        <time>2020-06-20T11:02:43Z</time>
      </trkpt>
      <trkpt lat="47.07814" lon="-1.63185">
        <ele>5.27</ele>
        <time>2020-06-20T11:02:45Z</time>
      </trkpt>
      <trkpt lat="47.07809" lon="-1.63172">
        <ele>4.87</ele>
        <time>2020-06-20T11:02:47Z</time>
      </trkpt>
      <trkpt lat="47.07802" lon="-1.63158">
        <ele>4.47</ele>
        <time>2020-06-20T11:02:49Z</time>
      </trkpt>
      <trkpt lat="47.07799" lon="-1.63143">
        <ele>3.23</ele>
        <time>2020-06-20T11:02:51Z</time>
      </trkpt>
      <trkpt lat="47.07805" lon="-1.63128">
        <ele>2.72</ele>
        <time>2020-06-20T11:02:53Z</time>
      </trkpt>
      <trkpt lat="47.07818" lon="-1.63129">
        <ele>3.15</ele>
        <time>2020-06-20T11:02:56Z</time>
      </trkpt>
      <trkpt lat="47.07829" lon="-1.63129">
        <ele>2.98</ele>
        <time>2020-06-20T11:02:58Z</time>
      </trkpt>
      <trkpt lat="47.0784" lon="-1.63127">
        <ele>2.49</ele>
        <time>2020-06-20T11:03:00Z</time>
      </trkpt>
      <trkpt lat="47.07852" lon="-1.63127">
        <ele>1.27</ele>
        <time>2020-06-20T11:03:02Z</time>
      </trkpt>
      <trkpt lat="47.07863" lon="-1.63126">
        <ele>0.93</ele>
        <time>2020-06-20T11:03:04Z</time>
      </trkpt>
      <trkpt lat="47.07873" lon="-1.63125">
        <ele>0.88</ele>
        <time>2020-06-20T11:03:06Z</time>
      </trkpt>
      <trkpt lat="47.07885" lon="-1.63123">
        <ele>-0.18</ele>
        <time>2020-06-20T11:03:08Z</time>
      </trkpt>
      <trkpt lat="47.07898" lon="-1.63122">
        <ele>0.4</ele>
        <time>2020-06-20T11:03:10Z</time>
      </trkpt>
      <trkpt lat="47.0791" lon="-1.63121">
        <ele>1.08</ele>
        <time>2020-06-20T11:03:13Z</time>
      </trkpt>
      <trkpt lat="47.07923" lon="-1.63121">
        <ele>1.36</ele>
        <time>2020-06-20T11:03:14Z</time>
      </trkpt>
      <trkpt lat="47.07934" lon="-1.6312">
        <ele>2.64</ele>
        <time>2020-06-20T11:03:17Z</time>
      </trkpt>
      <trkpt lat="47.07946" lon="-1.63119">
        <ele>3.95</ele>
        <time>2020-06-20T11:03:19Z</time>
      </trkpt>
      <trkpt lat="47.07955" lon="-1.63117">
        <ele>5.46</ele>
        <time>2020-06-20T11:03:21Z</time>
      </trkpt>
      <trkpt lat="47.07965" lon="-1.63115">
        <ele>7.14</ele>
        <time>2020-06-20T11:03:23Z</time>
      </trkpt>
      <trkpt lat="47.07975" lon="-1.63116">
        <ele>7.47</ele>
        <time>2020-06-20T11:03:25Z</time>
      </trkpt>
      <trkpt lat="47.07987" lon="-1.63116">
        <ele>6.64</ele>
        <time>2020-06-20T11:03:27Z</time>
      </trkpt>
      <trkpt lat="47.07998" lon="-1.63115">
        <ele>5.37</ele>
        <time>2020-06-20T11:03:29Z</time>
      </trkpt>
      <trkpt lat="47.08009" lon="-1.63113">
        <ele>4.94</ele>
        <time>2020-06-20T11:03:31Z</time>
      </trkpt>
      <trkpt lat="47.08021" lon="-1.63112">
        <ele>3.96</ele>
        <time>2020-06-20T11:03:33Z</time>
      </trkpt>
      <trkpt lat="47.08033" lon="-1.6311">
        <ele>4.33</ele>
        <time>2020-06-20T11:03:35Z</time>
      </trkpt>
      <trkpt lat="47.08045" lon="-1.63109">
        <ele>4.38</ele>
        <time>2020-06-20T11:03:37Z</time>
      </trkpt>
      <trkpt lat="47.08058" lon="-1.63107">
        <ele>5.06</ele>
        <time>2020-06-20T11:03:39Z</time>
      </trkpt>
      <trkpt lat="47.08071" lon="-1.63105">
        <ele>4.59</ele>
        <time>2020-06-20T11:03:41Z</time>
      </trkpt>
      <trkpt lat="47.08083" lon="-1.63105">
        <ele>4.55</ele>
        <time>2020-06-20T11:03:43Z</time>
      </trkpt>
      <trkpt lat="47.08094" lon="-1.63105">
        <ele>3.51</ele>
        <time>2020-06-20T11:03:45Z</time>
      </trkpt>
      <trkpt lat="47.08107" lon="-1.63103">
        <ele>2.68</ele>
        <time>2020-06-20T11:03:47Z</time>
      </trkpt>
      <trkpt lat="47.08118" lon="-1.63104">
        <ele>1.73</ele>
        <time>2020-06-20T11:03:49Z</time>
      </trkpt>
      <trkpt lat="47.0813" lon="-1.63104">
        <ele>2.16</ele>
        <time>2020-06-20T11:03:51Z</time>
      </trkpt>
      <trkpt lat="47.08143" lon="-1.63102">
        <ele>2.89</ele>
        <time>2020-06-20T11:03:53Z</time>
      </trkpt>
      <trkpt lat="47.08156" lon="-1.63101">
        <ele>2.27</ele>
        <time>2020-06-20T11:03:55Z</time>
      </trkpt>
      <trkpt lat="47.08167" lon="-1.631">
        <ele>2.02</ele>
        <time>2020-06-20T11:03:57Z</time>
      </trkpt>
      <trkpt lat="47.08182" lon="-1.631">
        <ele>1.21</ele>
        <time>2020-06-20T11:04:00Z</time>
      </trkpt>
      <trkpt lat="47.08194" lon="-1.63098">
        <ele>1.14</ele>
        <time>2020-06-20T11:04:02Z</time>
      </trkpt>
      <trkpt lat="47.08208" lon="-1.63095">
        <ele>0.19</ele>
        <time>2020-06-20T11:04:04Z</time>
      </trkpt>
      <trkpt lat="47.08221" lon="-1.63093">
        <ele>-0.34</ele>
        <time>2020-06-20T11:04:06Z</time>
      </trkpt>
      <trkpt lat="47.08232" lon="-1.63092">
        <ele>-1</ele>
        <time>2020-06-20T11:04:08Z</time>
      </trkpt>
      <trkpt lat="47.08244" lon="-1.6309">
        <ele>-2.06</ele>
        <time>2020-06-20T11:04:10Z</time>
      </trkpt>
      <trkpt lat="47.08255" lon="-1.63089">
        <ele>-2.41</ele>
        <time>2020-06-20T11:04:12Z</time>
      </trkpt>
      <trkpt lat="47.08269" lon="-1.63087">
        <ele>-1.13</ele>
        <time>2020-06-20T11:04:15Z</time>
      </trkpt>
      <trkpt lat="47.08282" lon="-1.63085">
        <ele>-0.23</ele>
        <time>2020-06-20T11:04:17Z</time>
      </trkpt>
      <trkpt lat="47.08293" lon="-1.63084">
        <ele>-0.27</ele>
        <time>2020-06-20T11:04:19Z</time>
      </trkpt>
      <trkpt lat="47.08305" lon="-1.63084">
        <ele>-0.08</ele>
        <time>2020-06-20T11:04:21Z</time>
      </trkpt>
      <trkpt lat="47.0832" lon="-1.63083">
        <ele>0.23</ele>
        <time>2020-06-20T11:04:23Z</time>
      </trkpt>
      <trkpt lat="47.08335" lon="-1.6308">
        <ele>0.92</ele>
        <time>2020-06-20T11:04:25Z</time>
      </trkpt>
      <trkpt lat="47.08348" lon="-1.63079">
        <ele>1.45</ele>
        <time>2020-06-20T11:04:27Z</time>
      </trkpt>
      <trkpt lat="47.08359" lon="-1.63078">
        <ele>1.91</ele>
        <time>2020-06-20T11:04:29Z</time>
      </trkpt>
      <trkpt lat="47.08371" lon="-1.63076">
        <ele>1.96</ele>
        <time>2020-06-20T11:04:31Z</time>
      </trkpt>
      <trkpt lat="47.08382" lon="-1.63073">
        <ele>2.64</ele>
        <time>2020-06-20T11:04:33Z</time>
      </trkpt>
      <trkpt lat="47.08394" lon="-1.63068">
        <ele>4.22</ele>
        <time>2020-06-20T11:04:35Z</time>
      </trkpt>
      <trkpt lat="47.08405" lon="-1.6306">
        <ele>5.62</ele>
        <time>2020-06-20T11:04:37Z</time>
      </trkpt>
      <trkpt lat="47.08415" lon="-1.6305">
        <ele>6.1</ele>
        <time>2020-06-20T11:04:39Z</time>
      </trkpt>
      <trkpt lat="47.08425" lon="-1.63039">
        <ele>6.75</ele>
        <time>2020-06-20T11:04:41Z</time>
      </trkpt>
      <trkpt lat="47.08434" lon="-1.63026">
        <ele>6.59</ele>
        <time>2020-06-20T11:04:43Z</time>
      </trkpt>
      <trkpt lat="47.08444" lon="-1.63012">
        <ele>6.91</ele>
        <time>2020-06-20T11:04:45Z</time>
      </trkpt>
      <trkpt lat="47.08452" lon="-1.62999">
        <ele>6.63</ele>
        <time>2020-06-20T11:04:47Z</time>
      </trkpt>
      <trkpt lat="47.0846" lon="-1.62988">
        <ele>7.02</ele>
        <time>2020-06-20T11:04:49Z</time>
      </trkpt>
      <trkpt lat="47.08468" lon="-1.62974">
        <ele>6.14</ele>
        <time>2020-06-20T11:04:51Z</time>
      </trkpt>
      <trkpt lat="47.08476" lon="-1.6296">
        <ele>5.28</ele>
        <time>2020-06-20T11:04:53Z</time>
      </trkpt>
      <trkpt lat="47.08483" lon="-1.62947">
        <ele>3.87</ele>
        <time>2020-06-20T11:04:55Z</time>
      </trkpt>
      <trkpt lat="47.08488" lon="-1.62937">
        <ele>2.69</ele>
        <time>2020-06-20T11:04:57Z</time>
      </trkpt>
      <trkpt lat="47.08494" lon="-1.62926">
        <ele>1.43</ele>
        <time>2020-06-20T11:04:59Z</time>
      </trkpt>
      <trkpt lat="47.08501" lon="-1.62914">
        <ele>-1.65</ele>
        <time>2020-06-20T11:05:01Z</time>
      </trkpt>
      <trkpt lat="47.08508" lon="-1.629">
        <ele>-4.27</ele>
        <time>2020-06-20T11:05:03Z</time>
      </trkpt>
      <trkpt lat="47.08518" lon="-1.62883">
        <ele>-6.03</ele>
        <time>2020-06-20T11:05:05Z</time>
      </trkpt>
      <trkpt lat="47.08527" lon="-1.6287">
        <ele>-7.08</ele>
        <time>2020-06-20T11:05:07Z</time>
      </trkpt>
      <trkpt lat="47.08537" lon="-1.62856">
        <ele>-4.09</ele>
        <time>2020-06-20T11:05:09Z</time>
      </trkpt>
      <trkpt lat="47.08545" lon="-1.62845">
        <ele>-1.96</ele>
        <time>2020-06-20T11:05:11Z</time>
      </trkpt>
      <trkpt lat="47.08554" lon="-1.62836">
        <ele>-0.36</ele>
        <time>2020-06-20T11:05:13Z</time>
      </trkpt>
      <trkpt lat="47.08563" lon="-1.62828">
        <ele>2.06</ele>
        <time>2020-06-20T11:05:15Z</time>
      </trkpt>
      <trkpt lat="47.08574" lon="-1.6282">
        <ele>3.31</ele>
        <time>2020-06-20T11:05:17Z</time>
      </trkpt>
      <trkpt lat="47.08585" lon="-1.62815">
        <ele>2.79</ele>
        <time>2020-06-20T11:05:19Z</time>
      </trkpt>
      <trkpt lat="47.08594" lon="-1.62815">
        <ele>0.53</ele>
        <time>2020-06-20T11:05:21Z</time>
      </trkpt>
      <trkpt lat="47.08608" lon="-1.62815">
        <ele>-0.78</ele>
        <time>2020-06-20T11:05:23Z</time>
      </trkpt>
      <trkpt lat="47.08617" lon="-1.62817">
        <ele>-1.28</ele>
        <time>2020-06-20T11:05:25Z</time>
      </trkpt>
      <trkpt lat="47.08627" lon="-1.6282">
        <ele>-1.03</ele>
        <time>2020-06-20T11:05:27Z</time>
      </trkpt>
      <trkpt lat="47.08639" lon="-1.62823">
        <ele>-0.78</ele>
        <time>2020-06-20T11:05:30Z</time>
      </trkpt>
      <trkpt lat="47.08648" lon="-1.62829">
        <ele>-0.21</ele>
        <time>2020-06-20T11:07:26Z</time>
      </trkpt>
      <trkpt lat="47.08664" lon="-1.62838">
        <ele>-0.25</ele>
        <time>2020-06-20T11:07:29Z</time>
      </trkpt>
      <trkpt lat="47.08675" lon="-1.62845">
        <ele>1.33</ele>
        <time>2020-06-20T11:07:32Z</time>
      </trkpt>
      <trkpt lat="47.0869" lon="-1.62848">
        <ele>3.29</ele>
        <time>2020-06-20T11:07:35Z</time>
      </trkpt>
      <trkpt lat="47.08705" lon="-1.6285">
        <ele>3.31</ele>
        <time>2020-06-20T11:07:38Z</time>
      </trkpt>
      <trkpt lat="47.08716" lon="-1.62853">
        <ele>3.04</ele>
        <time>2020-06-20T11:07:40Z</time>
      </trkpt>
      <trkpt lat="47.08726" lon="-1.62856">
        <ele>3.92</ele>
        <time>2020-06-20T11:07:42Z</time>
      </trkpt>
      <trkpt lat="47.08736" lon="-1.62858">
        <ele>4.25</ele>
        <time>2020-06-20T11:07:44Z</time>
      </trkpt>
      <trkpt lat="47.0875" lon="-1.62863">
        <ele>5.44</ele>
        <time>2020-06-20T11:07:46Z</time>
      </trkpt>
      <trkpt lat="47.08763" lon="-1.62866">
        <ele>5.64</ele>
        <time>2020-06-20T11:07:48Z</time>
      </trkpt>
      <trkpt lat="47.08777" lon="-1.6287">
        <ele>5.15</ele>
        <time>2020-06-20T11:07:50Z</time>
      </trkpt>
      <trkpt lat="47.08789" lon="-1.62872">
        <ele>4.94</ele>
        <time>2020-06-20T11:07:52Z</time>
      </trkpt>
      <trkpt lat="47.08803" lon="-1.62874">
        <ele>6.54</ele>
        <time>2020-06-20T11:07:54Z</time>
      </trkpt>
      <trkpt lat="47.08818" lon="-1.62876">
        <ele>9.09</ele>
        <time>2020-06-20T11:07:56Z</time>
      </trkpt>
      <trkpt lat="47.0883" lon="-1.62876">
        <ele>10.43</ele>
        <time>2020-06-20T11:07:58Z</time>
      </trkpt>
      <trkpt lat="47.08843" lon="-1.62881">
        <ele>10.47</ele>
        <time>2020-06-20T11:08:00Z</time>
      </trkpt>
      <trkpt lat="47.08854" lon="-1.62882">
        <ele>11.03</ele>
        <time>2020-06-20T11:08:02Z</time>
      </trkpt>
      <trkpt lat="47.08863" lon="-1.62885">
        <ele>11.78</ele>
        <time>2020-06-20T11:08:04Z</time>
      </trkpt>
      <trkpt lat="47.08876" lon="-1.62888">
        <ele>12.87</ele>
        <time>2020-06-20T11:08:06Z</time>
      </trkpt>
      <trkpt lat="47.08888" lon="-1.62891">
        <ele>11.69</ele>
        <time>2020-06-20T11:08:09Z</time>
      </trkpt>
      <trkpt lat="47.089" lon="-1.62894">
        <ele>10.26</ele>
        <time>2020-06-20T11:08:11Z</time>
      </trkpt>
      <trkpt lat="47.08913" lon="-1.62898">
        <ele>7.77</ele>
        <time>2020-06-20T11:08:13Z</time>
      </trkpt>
      <trkpt lat="47.08923" lon="-1.62902">
        <ele>5.66</ele>
        <time>2020-06-20T11:08:15Z</time>
      </trkpt>
      <trkpt lat="47.08934" lon="-1.62905">
        <ele>4.21</ele>
        <time>2020-06-20T11:08:17Z</time>
      </trkpt>
      <trkpt lat="47.08948" lon="-1.62908">
        <ele>2.15</ele>
        <time>2020-06-20T11:08:19Z</time>
      </trkpt>
      <trkpt lat="47.08961" lon="-1.62909">
        <ele>1.73</ele>
        <time>2020-06-20T11:08:21Z</time>
      </trkpt>
      <trkpt lat="47.08974" lon="-1.62913">
        <ele>1.88</ele>
        <time>2020-06-20T11:08:23Z</time>
      </trkpt>
      <trkpt lat="47.08986" lon="-1.62916">
        <ele>3.03</ele>
        <time>2020-06-20T11:08:25Z</time>
      </trkpt>
      <trkpt lat="47.08997" lon="-1.62919">
        <ele>3.15</ele>
        <time>2020-06-20T11:08:27Z</time>
      </trkpt>
      <trkpt lat="47.09008" lon="-1.6292">
        <ele>2.36</ele>
        <time>2020-06-20T11:08:29Z</time>
      </trkpt>
      <trkpt lat="47.09021" lon="-1.62923">
        <ele>1.14</ele>
        <time>2020-06-20T11:08:31Z</time>
      </trkpt>
      <trkpt lat="47.09033" lon="-1.62926">
        <ele>1.23</ele>
        <time>2020-06-20T11:08:33Z</time>
      </trkpt>
      <trkpt lat="47.09044" lon="-1.62929">
        <ele>-0.19</ele>
        <time>2020-06-20T11:08:35Z</time>
      </trkpt>
      <trkpt lat="47.09057" lon="-1.62931">
        <ele>-1.8</ele>
        <time>2020-06-20T11:08:37Z</time>
      </trkpt>
      <trkpt lat="47.09067" lon="-1.62933">
        <ele>-1.11</ele>
        <time>2020-06-20T11:08:39Z</time>
      </trkpt>
      <trkpt lat="47.09077" lon="-1.62935">
        <ele>-0.79</ele>
        <time>2020-06-20T11:08:41Z</time>
      </trkpt>
      <trkpt lat="47.09091" lon="-1.62937">
        <ele>-0.74</ele>
        <time>2020-06-20T11:08:43Z</time>
      </trkpt>
      <trkpt lat="47.09103" lon="-1.62941">
        <ele>0.03</ele>
        <time>2020-06-20T11:08:45Z</time>
      </trkpt>
      <trkpt lat="47.09113" lon="-1.62944">
        <ele>-0.23</ele>
        <time>2020-06-20T11:08:47Z</time>
      </trkpt>
      <trkpt lat="47.09124" lon="-1.62946">
        <ele>-0.06</ele>
        <time>2020-06-20T11:08:49Z</time>
      </trkpt>
      <trkpt lat="47.09136" lon="-1.62948">
        <ele>-0.05</ele>
        <time>2020-06-20T11:08:51Z</time>
      </trkpt>
      <trkpt lat="47.09149" lon="-1.6295">
        <ele>-1.04</ele>
        <time>2020-06-20T11:08:53Z</time>
      </trkpt>
      <trkpt lat="47.09159" lon="-1.62952">
        <ele>-2.15</ele>
        <time>2020-06-20T11:08:55Z</time>
      </trkpt>
      <trkpt lat="47.09171" lon="-1.62956">
        <ele>-2.8</ele>
        <time>2020-06-20T11:08:57Z</time>
      </trkpt>
      <trkpt lat="47.09182" lon="-1.62961">
        <ele>-2.66</ele>
        <time>2020-06-20T11:08:59Z</time>
      </trkpt>
      <trkpt lat="47.09193" lon="-1.62968">
        <ele>-5</ele>
        <time>2020-06-20T11:09:01Z</time>
      </trkpt>
      <trkpt lat="47.09203" lon="-1.62976">
        <ele>-7.63</ele>
        <time>2020-06-20T11:09:03Z</time>
      </trkpt>
      <trkpt lat="47.09214" lon="-1.62987">
        <ele>-7.4</ele>
        <time>2020-06-20T11:09:05Z</time>
      </trkpt>
      <trkpt lat="47.09222" lon="-1.62994">
        <ele>-7.3</ele>
        <time>2020-06-20T11:09:07Z</time>
      </trkpt>
      <trkpt lat="47.09235" lon="-1.63007">
        <ele>-4.87</ele>
        <time>2020-06-20T11:09:10Z</time>
      </trkpt>
      <trkpt lat="47.09246" lon="-1.63016">
        <ele>-5.39</ele>
        <time>2020-06-20T11:09:12Z</time>
      </trkpt>
      <trkpt lat="47.09257" lon="-1.63027">
        <ele>-5.26</ele>
        <time>2020-06-20T11:09:14Z</time>
      </trkpt>
      <trkpt lat="47.09266" lon="-1.63037">
        <ele>-4.34</ele>
        <time>2020-06-20T11:09:16Z</time>
      </trkpt>
      <trkpt lat="47.09275" lon="-1.63047">
        <ele>-4.09</ele>
        <time>2020-06-20T11:09:18Z</time>
      </trkpt>
      <trkpt lat="47.09287" lon="-1.63058">
        <ele>-3.91</ele>
        <time>2020-06-20T11:09:20Z</time>
      </trkpt>
      <trkpt lat="47.09296" lon="-1.63064">
        <ele>-4.12</ele>
        <time>2020-06-20T11:09:22Z</time>
      </trkpt>
      <trkpt lat="47.09307" lon="-1.63072">
        <ele>-3.24</ele>
        <time>2020-06-20T11:09:24Z</time>
      </trkpt>
      <trkpt lat="47.09317" lon="-1.63081">
        <ele>-2.2</ele>
        <time>2020-06-20T11:09:26Z</time>
      </trkpt>
      <trkpt lat="47.0933" lon="-1.6309">
        <ele>-1.55</ele>
        <time>2020-06-20T11:09:28Z</time>
      </trkpt>
      <trkpt lat="47.09338" lon="-1.63099">
        <ele>-0.42</ele>
        <time>2020-06-20T11:09:30Z</time>
      </trkpt>
      <trkpt lat="47.09347" lon="-1.63109">
        <ele>0.08</ele>
        <time>2020-06-20T11:09:32Z</time>
      </trkpt>
      <trkpt lat="47.09357" lon="-1.63121">
        <ele>-0.48</ele>
        <time>2020-06-20T11:09:34Z</time>
      </trkpt>
      <trkpt lat="47.09366" lon="-1.63131">
        <ele>-2.1</ele>
        <time>2020-06-20T11:09:36Z</time>
      </trkpt>
      <trkpt lat="47.09375" lon="-1.63141">
        <ele>-4.72</ele>
        <time>2020-06-20T11:09:38Z</time>
      </trkpt>
      <trkpt lat="47.09385" lon="-1.63153">
        <ele>-4.72</ele>
        <time>2020-06-20T11:09:40Z</time>
      </trkpt>
      <trkpt lat="47.09395" lon="-1.63165">
        <ele>-3.89</ele>
        <time>2020-06-20T11:09:42Z</time>
      </trkpt>
      <trkpt lat="47.09405" lon="-1.63177">
        <ele>-1.93</ele>
        <time>2020-06-20T11:09:44Z</time>
      </trkpt>
      <trkpt lat="47.09415" lon="-1.63192">
        <ele>-1.25</ele>
        <time>2020-06-20T11:09:46Z</time>
      </trkpt>
      <trkpt lat="47.09421" lon="-1.63203">
        <ele>-0.67</ele>
        <time>2020-06-20T11:09:48Z</time>
      </trkpt>
      <trkpt lat="47.0943" lon="-1.63215">
        <ele>-0.63</ele>
        <time>2020-06-20T11:09:50Z</time>
      </trkpt>
      <trkpt lat="47.09439" lon="-1.63227">
        <ele>-1.98</ele>
        <time>2020-06-20T11:09:52Z</time>
      </trkpt>
      <trkpt lat="47.09448" lon="-1.63238">
        <ele>-3.24</ele>
        <time>2020-06-20T11:09:54Z</time>
      </trkpt>
      <trkpt lat="47.09458" lon="-1.6325">
        <ele>-4.14</ele>
        <time>2020-06-20T11:09:56Z</time>
      </trkpt>
      <trkpt lat="47.09466" lon="-1.63264">
        <ele>-4.57</ele>
        <time>2020-06-20T11:09:58Z</time>
      </trkpt>
      <trkpt lat="47.09475" lon="-1.63277">
        <ele>-3.56</ele>
        <time>2020-06-20T11:10:00Z</time>
      </trkpt>
      <trkpt lat="47.09484" lon="-1.63289">
        <ele>-2.65</ele>
        <time>2020-06-20T11:10:02Z</time>
      </trkpt>
      <trkpt lat="47.09493" lon="-1.633">
        <ele>-3.62</ele>
        <time>2020-06-20T11:10:04Z</time>
      </trkpt>
      <trkpt lat="47.09502" lon="-1.63312">
        <ele>-4.21</ele>
        <time>2020-06-20T11:10:06Z</time>
      </trkpt>
      <trkpt lat="47.09511" lon="-1.63323">
        <ele>-4.54</ele>
        <time>2020-06-20T11:10:08Z</time>
      </trkpt>
      <trkpt lat="47.09519" lon="-1.63335">
        <ele>-4.69</ele>
        <time>2020-06-20T11:10:10Z</time>
      </trkpt>
      <trkpt lat="47.09527" lon="-1.63343">
        <ele>-4.18</ele>
        <time>2020-06-20T11:10:12Z</time>
      </trkpt>
      <trkpt lat="47.09537" lon="-1.63356">
        <ele>-3.67</ele>
        <time>2020-06-20T11:10:14Z</time>
      </trkpt>
      <trkpt lat="47.09545" lon="-1.63369">
        <ele>-3.04</ele>
        <time>2020-06-20T11:10:16Z</time>
      </trkpt>
      <trkpt lat="47.09553" lon="-1.63379">
        <ele>-1.4</ele>
        <time>2020-06-20T11:10:18Z</time>
      </trkpt>
      <trkpt lat="47.09562" lon="-1.63391">
        <ele>-1.54</ele>
        <time>2020-06-20T11:10:20Z</time>
      </trkpt>
      <trkpt lat="47.09571" lon="-1.63402">
        <ele>-2.15</ele>
        <time>2020-06-20T11:10:22Z</time>
      </trkpt>
      <trkpt lat="47.09579" lon="-1.63415">
        <ele>-1.18</ele>
        <time>2020-06-20T11:10:24Z</time>
      </trkpt>
      <trkpt lat="47.09587" lon="-1.63426">
        <ele>-0.77</ele>
        <time>2020-06-20T11:10:26Z</time>
      </trkpt>
      <trkpt lat="47.09596" lon="-1.63439">
        <ele>-0.89</ele>
        <time>2020-06-20T11:10:28Z</time>
      </trkpt>
      <trkpt lat="47.09605" lon="-1.63451">
        <ele>-1.29</ele>
        <time>2020-06-20T11:10:30Z</time>
      </trkpt>
      <trkpt lat="47.09614" lon="-1.63464">
        <ele>-0.88</ele>
        <time>2020-06-20T11:10:32Z</time>
      </trkpt>
      <trkpt lat="47.09623" lon="-1.63473">
        <ele>0.98</ele>
        <time>2020-06-20T11:10:34Z</time>
      </trkpt>
      <trkpt lat="47.09634" lon="-1.63478">
        <ele>2.2</ele>
        <time>2020-06-20T11:10:36Z</time>
      </trkpt>
      <trkpt lat="47.09646" lon="-1.63472">
        <ele>5.7</ele>
        <time>2020-06-20T11:10:39Z</time>
      </trkpt>
      <trkpt lat="47.09653" lon="-1.63463">
        <ele>7.43</ele>
        <time>2020-06-20T11:10:41Z</time>
      </trkpt>
      <trkpt lat="47.09657" lon="-1.6345">
        <ele>8.2</ele>
        <time>2020-06-20T11:10:43Z</time>
      </trkpt>
      <trkpt lat="47.09656" lon="-1.63433">
        <ele>8</ele>
        <time>2020-06-20T11:10:45Z</time>
      </trkpt>
      <trkpt lat="47.09655" lon="-1.63417">
        <ele>7.41</ele>
        <time>2020-06-20T11:10:47Z</time>
      </trkpt>
      <trkpt lat="47.09654" lon="-1.63402">
        <ele>6.73</ele>
        <time>2020-06-20T11:10:49Z</time>
      </trkpt>
      <trkpt lat="47.09652" lon="-1.63383">
        <ele>5.53</ele>
        <time>2020-06-20T11:10:51Z</time>
      </trkpt>
      <trkpt lat="47.09648" lon="-1.63366">
        <ele>3.42</ele>
        <time>2020-06-20T11:10:53Z</time>
      </trkpt>
      <trkpt lat="47.09641" lon="-1.6335">
        <ele>1.71</ele>
        <time>2020-06-20T11:10:55Z</time>
      </trkpt>
      <trkpt lat="47.09634" lon="-1.6334">
        <ele>0.45</ele>
        <time>2020-06-20T11:10:57Z</time>
      </trkpt>
      <trkpt lat="47.09625" lon="-1.63324">
        <ele>-1.12</ele>
        <time>2020-06-20T11:10:59Z</time>
      </trkpt>
      <trkpt lat="47.09619" lon="-1.63308">
        <ele>-1.2</ele>
        <time>2020-06-20T11:11:01Z</time>
      </trkpt>
      <trkpt lat="47.09613" lon="-1.63293">
        <ele>-1.53</ele>
        <time>2020-06-20T11:11:03Z</time>
      </trkpt>
      <trkpt lat="47.09608" lon="-1.63279">
        <ele>-2.12</ele>
        <time>2020-06-20T11:11:05Z</time>
      </trkpt>
      <trkpt lat="47.09601" lon="-1.63263">
        <ele>-2.51</ele>
        <time>2020-06-20T11:11:07Z</time>
      </trkpt>
      <trkpt lat="47.09595" lon="-1.63247">
        <ele>-2.87</ele>
        <time>2020-06-20T11:11:09Z</time>
      </trkpt>
      <trkpt lat="47.09589" lon="-1.63229">
        <ele>-2.83</ele>
        <time>2020-06-20T11:11:11Z</time>
      </trkpt>
      <trkpt lat="47.09583" lon="-1.63214">
        <ele>-2.09</ele>
        <time>2020-06-20T11:11:13Z</time>
      </trkpt>
      <trkpt lat="47.09577" lon="-1.63197">
        <ele>-2.37</ele>
        <time>2020-06-20T11:11:15Z</time>
      </trkpt>
      <trkpt lat="47.0957" lon="-1.63181">
        <ele>-2.51</ele>
        <time>2020-06-20T11:11:17Z</time>
      </trkpt>
      <trkpt lat="47.09564" lon="-1.63164">
        <ele>-1.99</ele>
        <time>2020-06-20T11:11:19Z</time>
      </trkpt>
      <trkpt lat="47.09557" lon="-1.63147">
        <ele>-2.25</ele>
        <time>2020-06-20T11:11:21Z</time>
      </trkpt>
      <trkpt lat="47.0955" lon="-1.6313">
        <ele>-1.77</ele>
        <time>2020-06-20T11:11:23Z</time>
      </trkpt>
      <trkpt lat="47.09544" lon="-1.63113">
        <ele>-1.5</ele>
        <time>2020-06-20T11:11:25Z</time>
      </trkpt>
      <trkpt lat="47.09537" lon="-1.63095">
        <ele>-1.19</ele>
        <time>2020-06-20T11:11:27Z</time>
      </trkpt>
      <trkpt lat="47.09531" lon="-1.63076">
        <ele>-1.1</ele>
        <time>2020-06-20T11:11:29Z</time>
      </trkpt>
      <trkpt lat="47.09525" lon="-1.63058">
        <ele>-0.8</ele>
        <time>2020-06-20T11:11:31Z</time>
      </trkpt>
      <trkpt lat="47.09519" lon="-1.6304">
        <ele>-0.36</ele>
        <time>2020-06-20T11:11:33Z</time>
      </trkpt>
      <trkpt lat="47.09513" lon="-1.63022">
        <ele>-0.81</ele>
        <time>2020-06-20T11:11:35Z</time>
      </trkpt>
      <trkpt lat="47.09506" lon="-1.63007">
        <ele>-0.97</ele>
        <time>2020-06-20T11:11:37Z</time>
      </trkpt>
      <trkpt lat="47.095" lon="-1.6299">
        <ele>-1.01</ele>
        <time>2020-06-20T11:11:39Z</time>
      </trkpt>
      <trkpt lat="47.09494" lon="-1.62972">
        <ele>-1.43</ele>
        <time>2020-06-20T11:11:41Z</time>
      </trkpt>
      <trkpt lat="47.09487" lon="-1.62954">
        <ele>-0.65</ele>
        <time>2020-06-20T11:11:43Z</time>
      </trkpt>
      <trkpt lat="47.09483" lon="-1.6294">
        <ele>-0.32</ele>
        <time>2020-06-20T11:11:45Z</time>
      </trkpt>
      <trkpt lat="47.09478" lon="-1.62924">
        <ele>-0.9</ele>
        <time>2020-06-20T11:11:47Z</time>
      </trkpt>
      <trkpt lat="47.09473" lon="-1.62907">
        <ele>-1.2</ele>
        <time>2020-06-20T11:11:49Z</time>
      </trkpt>
      <trkpt lat="47.09467" lon="-1.62889">
        <ele>-0.73</ele>
        <time>2020-06-20T11:11:51Z</time>
      </trkpt>
      <trkpt lat="47.09461" lon="-1.62873">
        <ele>-0.29</ele>
        <time>2020-06-20T11:11:53Z</time>
      </trkpt>
      <trkpt lat="47.09455" lon="-1.62859">
        <ele>0.04</ele>
        <time>2020-06-20T11:11:55Z</time>
      </trkpt>
      <trkpt lat="47.09448" lon="-1.62844">
        <ele>-0.67</ele>
        <time>2020-06-20T11:11:57Z</time>
      </trkpt>
      <trkpt lat="47.09441" lon="-1.62829">
        <ele>-0.92</ele>
        <time>2020-06-20T11:11:59Z</time>
      </trkpt>
      <trkpt lat="47.09435" lon="-1.62813">
        <ele>-0.56</ele>
        <time>2020-06-20T11:12:01Z</time>
      </trkpt>
      <trkpt lat="47.09429" lon="-1.62798">
        <ele>0.27</ele>
        <time>2020-06-20T11:12:03Z</time>
      </trkpt>
      <trkpt lat="47.09423" lon="-1.62782">
        <ele>0.67</ele>
        <time>2020-06-20T11:12:05Z</time>
      </trkpt>
      <trkpt lat="47.09416" lon="-1.62765">
        <ele>0.34</ele>
        <time>2020-06-20T11:12:07Z</time>
      </trkpt>
      <trkpt lat="47.0941" lon="-1.62749">
        <ele>-0.21</ele>
        <time>2020-06-20T11:12:09Z</time>
      </trkpt>
      <trkpt lat="47.09403" lon="-1.62732">
        <ele>-0.42</ele>
        <time>2020-06-20T11:12:11Z</time>
      </trkpt>
      <trkpt lat="47.09397" lon="-1.62717">
        <ele>-0.52</ele>
        <time>2020-06-20T11:12:13Z</time>
      </trkpt>
      <trkpt lat="47.09391" lon="-1.627">
        <ele>-0.67</ele>
        <time>2020-06-20T11:12:15Z</time>
      </trkpt>
      <trkpt lat="47.09387" lon="-1.62685">
        <ele>-0.17</ele>
        <time>2020-06-20T11:12:17Z</time>
      </trkpt>
      <trkpt lat="47.0938" lon="-1.62666">
        <ele>0.34</ele>
        <time>2020-06-20T11:12:19Z</time>
      </trkpt>
      <trkpt lat="47.09375" lon="-1.62651">
        <ele>0.79</ele>
        <time>2020-06-20T11:12:21Z</time>
      </trkpt>
      <trkpt lat="47.09369" lon="-1.62634">
        <ele>2.04</ele>
        <time>2020-06-20T11:12:23Z</time>
      </trkpt>
      <trkpt lat="47.09363" lon="-1.62617">
        <ele>3.1</ele>
        <time>2020-06-20T11:12:25Z</time>
      </trkpt>
      <trkpt lat="47.09357" lon="-1.626">
        <ele>2.76</ele>
        <time>2020-06-20T11:12:27Z</time>
      </trkpt>
      <trkpt lat="47.09351" lon="-1.62584">
        <ele>2.05</ele>
        <time>2020-06-20T11:12:29Z</time>
      </trkpt>
      <trkpt lat="47.09344" lon="-1.62566">
        <ele>0.84</ele>
        <time>2020-06-20T11:12:31Z</time>
      </trkpt>
      <trkpt lat="47.09338" lon="-1.62549">
        <ele>0.68</ele>
        <time>2020-06-20T11:12:33Z</time>
      </trkpt>
      <trkpt lat="47.09332" lon="-1.62532">
        <ele>0.52</ele>
        <time>2020-06-20T11:12:35Z</time>
      </trkpt>
      <trkpt lat="47.09325" lon="-1.62515">
        <ele>1.1</ele>
        <time>2020-06-20T11:12:37Z</time>
      </trkpt>
      <trkpt lat="47.09319" lon="-1.62497">
        <ele>1.28</ele>
        <time>2020-06-20T11:12:39Z</time>
      </trkpt>
      <trkpt lat="47.09312" lon="-1.62479">
        <ele>1.18</ele>
        <time>2020-06-20T11:12:41Z</time>
      </trkpt>
      <trkpt lat="47.09306" lon="-1.62462">
        <ele>1.51</ele>
        <time>2020-06-20T11:12:43Z</time>
      </trkpt>
      <trkpt lat="47.09301" lon="-1.62444">
        <ele>2.37</ele>
        <time>2020-06-20T11:12:45Z</time>
      </trkpt>
      <trkpt lat="47.09294" lon="-1.62422">
        <ele>2.53</ele>
        <time>2020-06-20T11:12:47Z</time>
      </trkpt>
      <trkpt lat="47.09288" lon="-1.62405">
        <ele>2.91</ele>
        <time>2020-06-20T11:12:49Z</time>
      </trkpt>
      <trkpt lat="47.09281" lon="-1.62386">
        <ele>2.92</ele>
        <time>2020-06-20T11:12:51Z</time>
      </trkpt>
      <trkpt lat="47.09275" lon="-1.6237">
        <ele>3.01</ele>
        <time>2020-06-20T11:12:53Z</time>
      </trkpt>
      <trkpt lat="47.09268" lon="-1.62352">
        <ele>2.38</ele>
        <time>2020-06-20T11:12:55Z</time>
      </trkpt>
      <trkpt lat="47.09262" lon="-1.62335">
        <ele>2.75</ele>
        <time>2020-06-20T11:12:57Z</time>
      </trkpt>
      <trkpt lat="47.09256" lon="-1.62317">
        <ele>3.29</ele>
        <time>2020-06-20T11:12:59Z</time>
      </trkpt>
      <trkpt lat="47.09249" lon="-1.62299">
        <ele>3.23</ele>
        <time>2020-06-20T11:13:01Z</time>
      </trkpt>
      <trkpt lat="47.09243" lon="-1.6228">
        <ele>3.01</ele>
        <time>2020-06-20T11:13:03Z</time>
      </trkpt>
      <trkpt lat="47.09235" lon="-1.62259">
        <ele>2.77</ele>
        <time>2020-06-20T11:13:05Z</time>
      </trkpt>
      <trkpt lat="47.09229" lon="-1.62242">
        <ele>3.71</ele>
        <time>2020-06-20T11:13:07Z</time>
      </trkpt>
      <trkpt lat="47.09223" lon="-1.62226">
        <ele>3.87</ele>
        <time>2020-06-20T11:13:09Z</time>
      </trkpt>
      <trkpt lat="47.09217" lon="-1.62208">
        <ele>3.57</ele>
        <time>2020-06-20T11:13:11Z</time>
      </trkpt>
      <trkpt lat="47.0921" lon="-1.62189">
        <ele>3.6</ele>
        <time>2020-06-20T11:13:13Z</time>
      </trkpt>
      <trkpt lat="47.09203" lon="-1.6217">
        <ele>2.78</ele>
        <time>2020-06-20T11:13:15Z</time>
      </trkpt>
      <trkpt lat="47.09197" lon="-1.62153">
        <ele>2.49</ele>
        <time>2020-06-20T11:13:17Z</time>
      </trkpt>
      <trkpt lat="47.0919" lon="-1.62134">
        <ele>2.59</ele>
        <time>2020-06-20T11:13:19Z</time>
      </trkpt>
      <trkpt lat="47.09184" lon="-1.62114">
        <ele>2.41</ele>
        <time>2020-06-20T11:13:21Z</time>
      </trkpt>
      <trkpt lat="47.09179" lon="-1.62098">
        <ele>2.74</ele>
        <time>2020-06-20T11:13:23Z</time>
      </trkpt>
      <trkpt lat="47.09173" lon="-1.62078">
        <ele>3.37</ele>
        <time>2020-06-20T11:13:25Z</time>
      </trkpt>
      <trkpt lat="47.09165" lon="-1.62061">
        <ele>3.21</ele>
        <time>2020-06-20T11:13:27Z</time>
      </trkpt>
      <trkpt lat="47.09159" lon="-1.62043">
        <ele>3.08</ele>
        <time>2020-06-20T11:13:29Z</time>
      </trkpt>
      <trkpt lat="47.09152" lon="-1.62025">
        <ele>2.83</ele>
        <time>2020-06-20T11:13:31Z</time>
      </trkpt>
      <trkpt lat="47.09145" lon="-1.62007">
        <ele>2.97</ele>
        <time>2020-06-20T11:13:33Z</time>
      </trkpt>
      <trkpt lat="47.09139" lon="-1.61988">
        <ele>2.88</ele>
        <time>2020-06-20T11:13:35Z</time>
      </trkpt>
      <trkpt lat="47.09132" lon="-1.61969">
        <ele>3.23</ele>
        <time>2020-06-20T11:13:37Z</time>
      </trkpt>
      <trkpt lat="47.09125" lon="-1.61952">
        <ele>3.11</ele>
        <time>2020-06-20T11:13:39Z</time>
      </trkpt>
      <trkpt lat="47.09119" lon="-1.61933">
        <ele>2.68</ele>
        <time>2020-06-20T11:13:41Z</time>
      </trkpt>
      <trkpt lat="47.09112" lon="-1.61915">
        <ele>2.92</ele>
        <time>2020-06-20T11:13:43Z</time>
      </trkpt>
      <trkpt lat="47.09105" lon="-1.61897">
        <ele>2.62</ele>
        <time>2020-06-20T11:13:45Z</time>
      </trkpt>
      <trkpt lat="47.09099" lon="-1.61879">
        <ele>2.36</ele>
        <time>2020-06-20T11:13:47Z</time>
      </trkpt>
      <trkpt lat="47.09092" lon="-1.61861">
        <ele>2.69</ele>
        <time>2020-06-20T11:13:49Z</time>
      </trkpt>
      <trkpt lat="47.09086" lon="-1.61844">
        <ele>2.2</ele>
        <time>2020-06-20T11:13:51Z</time>
      </trkpt>
      <trkpt lat="47.09079" lon="-1.61827">
        <ele>2.53</ele>
        <time>2020-06-20T11:13:53Z</time>
      </trkpt>
      <trkpt lat="47.09073" lon="-1.61807">
        <ele>2.18</ele>
        <time>2020-06-20T11:13:55Z</time>
      </trkpt>
      <trkpt lat="47.09066" lon="-1.61787">
        <ele>1.94</ele>
        <time>2020-06-20T11:13:57Z</time>
      </trkpt>
      <trkpt lat="47.09059" lon="-1.61768">
        <ele>0.63</ele>
        <time>2020-06-20T11:13:59Z</time>
      </trkpt>
      <trkpt lat="47.09053" lon="-1.6175">
        <ele>0.61</ele>
        <time>2020-06-20T11:14:01Z</time>
      </trkpt>
      <trkpt lat="47.09047" lon="-1.61732">
        <ele>0.95</ele>
        <time>2020-06-20T11:14:03Z</time>
      </trkpt>
      <trkpt lat="47.09041" lon="-1.61713">
        <ele>1.3</ele>
        <time>2020-06-20T11:14:05Z</time>
      </trkpt>
      <trkpt lat="47.09035" lon="-1.61696">
        <ele>1.58</ele>
        <time>2020-06-20T11:14:07Z</time>
      </trkpt>
      <trkpt lat="47.09029" lon="-1.61678">
        <ele>1.55</ele>
        <time>2020-06-20T11:14:09Z</time>
      </trkpt>
      <trkpt lat="47.09022" lon="-1.6166">
        <ele>1.39</ele>
        <time>2020-06-20T11:14:11Z</time>
      </trkpt>
      <trkpt lat="47.09016" lon="-1.61642">
        <ele>0.69</ele>
        <time>2020-06-20T11:14:13Z</time>
      </trkpt>
      <trkpt lat="47.09012" lon="-1.61624">
        <ele>0.19</ele>
        <time>2020-06-20T11:14:15Z</time>
      </trkpt>
      <trkpt lat="47.09006" lon="-1.61608">
        <ele>0.21</ele>
        <time>2020-06-20T11:14:17Z</time>
      </trkpt>
      <trkpt lat="47.09" lon="-1.61594">
        <ele>0.09</ele>
        <time>2020-06-20T11:14:19Z</time>
      </trkpt>
      <trkpt lat="47.08999" lon="-1.6158">
        <ele>-0.32</ele>
        <time>2020-06-20T11:14:21Z</time>
      </trkpt>
      <trkpt lat="47.09009" lon="-1.61575">
        <ele>-0.2</ele>
        <time>2020-06-20T11:14:23Z</time>
      </trkpt>
      <trkpt lat="47.09021" lon="-1.6157">
        <ele>0.25</ele>
        <time>2020-06-20T11:14:25Z</time>
      </trkpt>
      <trkpt lat="47.09034" lon="-1.61564">
        <ele>1.25</ele>
        <time>2020-06-20T11:14:27Z</time>
      </trkpt>
      <trkpt lat="47.09046" lon="-1.61557">
        <ele>2.07</ele>
        <time>2020-06-20T11:14:29Z</time>
      </trkpt>
      <trkpt lat="47.09056" lon="-1.6155">
        <ele>2.16</ele>
        <time>2020-06-20T11:14:31Z</time>
      </trkpt>
      <trkpt lat="47.09068" lon="-1.61544">
        <ele>1.69</ele>
        <time>2020-06-20T11:14:33Z</time>
      </trkpt>
      <trkpt lat="47.09079" lon="-1.61538">
        <ele>0.82</ele>
        <time>2020-06-20T11:14:35Z</time>
      </trkpt>
      <trkpt lat="47.0909" lon="-1.61533">
        <ele>1.82</ele>
        <time>2020-06-20T11:14:37Z</time>
      </trkpt>
      <trkpt lat="47.091" lon="-1.61527">
        <ele>1.99</ele>
        <time>2020-06-20T11:14:39Z</time>
      </trkpt>
      <trkpt lat="47.09111" lon="-1.6152">
        <ele>2.54</ele>
        <time>2020-06-20T11:14:41Z</time>
      </trkpt>
      <trkpt lat="47.09122" lon="-1.61514">
        <ele>3.15</ele>
        <time>2020-06-20T11:14:43Z</time>
      </trkpt>
      <trkpt lat="47.09133" lon="-1.61506">
        <ele>2.86</ele>
        <time>2020-06-20T11:14:45Z</time>
      </trkpt>
      <trkpt lat="47.09145" lon="-1.61499">
        <ele>2.46</ele>
        <time>2020-06-20T11:14:47Z</time>
      </trkpt>
      <trkpt lat="47.09155" lon="-1.61493">
        <ele>2.43</ele>
        <time>2020-06-20T11:14:49Z</time>
      </trkpt>
      <trkpt lat="47.09166" lon="-1.61487">
        <ele>2.55</ele>
        <time>2020-06-20T11:14:51Z</time>
      </trkpt>
      <trkpt lat="47.09175" lon="-1.61483">
        <ele>3.7</ele>
        <time>2020-06-20T11:14:53Z</time>
      </trkpt>
      <trkpt lat="47.09187" lon="-1.61477">
        <ele>5.54</ele>
        <time>2020-06-20T11:14:55Z</time>
      </trkpt>
      <trkpt lat="47.09199" lon="-1.61471">
        <ele>6.47</ele>
        <time>2020-06-20T11:14:57Z</time>
      </trkpt>
      <trkpt lat="47.0921" lon="-1.61465">
        <ele>7.08</ele>
        <time>2020-06-20T11:14:59Z</time>
      </trkpt>
      <trkpt lat="47.09221" lon="-1.61459">
        <ele>5.93</ele>
        <time>2020-06-20T11:15:01Z</time>
      </trkpt>
      <trkpt lat="47.09232" lon="-1.61452">
        <ele>5.22</ele>
        <time>2020-06-20T11:15:03Z</time>
      </trkpt>
      <trkpt lat="47.09242" lon="-1.61445">
        <ele>4.18</ele>
        <time>2020-06-20T11:15:05Z</time>
      </trkpt>
      <trkpt lat="47.09253" lon="-1.61439">
        <ele>3.26</ele>
        <time>2020-06-20T11:15:07Z</time>
      </trkpt>
      <trkpt lat="47.09267" lon="-1.61431">
        <ele>3.22</ele>
        <time>2020-06-20T11:15:09Z</time>
      </trkpt>
      <trkpt lat="47.09275" lon="-1.61426">
        <ele>4.12</ele>
        <time>2020-06-20T11:15:11Z</time>
      </trkpt>
      <trkpt lat="47.09284" lon="-1.61414">
        <ele>3.36</ele>
        <time>2020-06-20T11:15:14Z</time>
      </trkpt>
      <trkpt lat="47.0928" lon="-1.61393">
        <ele>3.2</ele>
        <time>2020-06-20T11:15:16Z</time>
      </trkpt>
      <trkpt lat="47.09276" lon="-1.61375">
        <ele>3.16</ele>
        <time>2020-06-20T11:15:18Z</time>
      </trkpt>
      <trkpt lat="47.09272" lon="-1.61358">
        <ele>3.29</ele>
        <time>2020-06-20T11:15:20Z</time>
      </trkpt>
      <trkpt lat="47.09269" lon="-1.61342">
        <ele>2.1</ele>
        <time>2020-06-20T11:15:22Z</time>
      </trkpt>
      <trkpt lat="47.09266" lon="-1.61326">
        <ele>2</ele>
        <time>2020-06-20T11:15:24Z</time>
      </trkpt>
      <trkpt lat="47.09263" lon="-1.61309">
        <ele>3.13</ele>
        <time>2020-06-20T11:15:26Z</time>
      </trkpt>
      <trkpt lat="47.0926" lon="-1.61289">
        <ele>2.96</ele>
        <time>2020-06-20T11:15:28Z</time>
      </trkpt>
      <trkpt lat="47.09257" lon="-1.61274">
        <ele>2.02</ele>
        <time>2020-06-20T11:15:30Z</time>
      </trkpt>
      <trkpt lat="47.09253" lon="-1.6126">
        <ele>1.41</ele>
        <time>2020-06-20T11:15:32Z</time>
      </trkpt>
      <trkpt lat="47.09248" lon="-1.61243">
        <ele>1.75</ele>
        <time>2020-06-20T11:15:34Z</time>
      </trkpt>
      <trkpt lat="47.09243" lon="-1.61224">
        <ele>2.12</ele>
        <time>2020-06-20T11:15:37Z</time>
      </trkpt>
      <trkpt lat="47.0924" lon="-1.61211">
        <ele>1.54</ele>
        <time>2020-06-20T11:15:39Z</time>
      </trkpt>
      <trkpt lat="47.09235" lon="-1.61195">
        <ele>1.45</ele>
        <time>2020-06-20T11:15:42Z</time>
      </trkpt>
      <trkpt lat="47.09235" lon="-1.61179">
        <ele>1.19</ele>
        <time>2020-06-20T11:16:22Z</time>
      </trkpt>
      <trkpt lat="47.09246" lon="-1.61183">
        <ele>2.26</ele>
        <time>2020-06-20T11:16:25Z</time>
      </trkpt>
      <trkpt lat="47.09256" lon="-1.61187">
        <ele>4.72</ele>
        <time>2020-06-20T11:16:27Z</time>
      </trkpt>
      <trkpt lat="47.09266" lon="-1.6119">
        <ele>7.89</ele>
        <time>2020-06-20T11:16:29Z</time>
      </trkpt>
      <trkpt lat="47.09277" lon="-1.61194">
        <ele>8.47</ele>
        <time>2020-06-20T11:16:31Z</time>
      </trkpt>
      <trkpt lat="47.09289" lon="-1.61198">
        <ele>9.03</ele>
        <time>2020-06-20T11:16:33Z</time>
      </trkpt>
      <trkpt lat="47.09302" lon="-1.61203">
        <ele>8.73</ele>
        <time>2020-06-20T11:16:35Z</time>
      </trkpt>
      <trkpt lat="47.09312" lon="-1.61207">
        <ele>8.65</ele>
        <time>2020-06-20T11:16:37Z</time>
      </trkpt>
      <trkpt lat="47.09323" lon="-1.6121">
        <ele>9.83</ele>
        <time>2020-06-20T11:16:39Z</time>
      </trkpt>
      <trkpt lat="47.09335" lon="-1.61213">
        <ele>10.34</ele>
        <time>2020-06-20T11:16:41Z</time>
      </trkpt>
      <trkpt lat="47.09347" lon="-1.61216">
        <ele>10.26</ele>
        <time>2020-06-20T11:16:43Z</time>
      </trkpt>
      <trkpt lat="47.0936" lon="-1.61219">
        <ele>8.81</ele>
        <time>2020-06-20T11:16:45Z</time>
      </trkpt>
      <trkpt lat="47.09373" lon="-1.61225">
        <ele>8.45</ele>
        <time>2020-06-20T11:16:47Z</time>
      </trkpt>
      <trkpt lat="47.09385" lon="-1.61231">
        <ele>8</ele>
        <time>2020-06-20T11:16:49Z</time>
      </trkpt>
      <trkpt lat="47.09397" lon="-1.61237">
        <ele>7.09</ele>
        <time>2020-06-20T11:16:51Z</time>
      </trkpt>
      <trkpt lat="47.09409" lon="-1.6124">
        <ele>6.6</ele>
        <time>2020-06-20T11:16:53Z</time>
      </trkpt>
      <trkpt lat="47.09422" lon="-1.61233">
        <ele>7</ele>
        <time>2020-06-20T11:16:55Z</time>
      </trkpt>
      <trkpt lat="47.09435" lon="-1.61221">
        <ele>8.71</ele>
        <time>2020-06-20T11:16:57Z</time>
      </trkpt>
      <trkpt lat="47.09448" lon="-1.61208">
        <ele>9.55</ele>
        <time>2020-06-20T11:16:59Z</time>
      </trkpt>
      <trkpt lat="47.09458" lon="-1.61195">
        <ele>8.98</ele>
        <time>2020-06-20T11:17:01Z</time>
      </trkpt>
      <trkpt lat="47.09468" lon="-1.61181">
        <ele>7.73</ele>
        <time>2020-06-20T11:17:03Z</time>
      </trkpt>
      <trkpt lat="47.09477" lon="-1.6117">
        <ele>6.47</ele>
        <time>2020-06-20T11:17:04Z</time>
      </trkpt>
      <trkpt lat="47.09487" lon="-1.61159">
        <ele>6.73</ele>
        <time>2020-06-20T11:17:06Z</time>
      </trkpt>
      <trkpt lat="47.095" lon="-1.61149">
        <ele>6.53</ele>
        <time>2020-06-20T11:17:08Z</time>
      </trkpt>
      <trkpt lat="47.09513" lon="-1.61142">
        <ele>5.35</ele>
        <time>2020-06-20T11:17:10Z</time>
      </trkpt>
      <trkpt lat="47.09525" lon="-1.61138">
        <ele>4.92</ele>
        <time>2020-06-20T11:17:12Z</time>
      </trkpt>
      <trkpt lat="47.09539" lon="-1.61135">
        <ele>5.29</ele>
        <time>2020-06-20T11:17:14Z</time>
      </trkpt>
      <trkpt lat="47.09552" lon="-1.61133">
        <ele>4.73</ele>
        <time>2020-06-20T11:17:16Z</time>
      </trkpt>
      <trkpt lat="47.09564" lon="-1.61132">
        <ele>3.72</ele>
        <time>2020-06-20T11:17:18Z</time>
      </trkpt>
      <trkpt lat="47.09578" lon="-1.61131">
        <ele>2.25</ele>
        <time>2020-06-20T11:17:20Z</time>
      </trkpt>
      <trkpt lat="47.09591" lon="-1.6113">
        <ele>1.15</ele>
        <time>2020-06-20T11:17:22Z</time>
      </trkpt>
      <trkpt lat="47.09605" lon="-1.61127">
        <ele>-0.28</ele>
        <time>2020-06-20T11:17:24Z</time>
      </trkpt>
      <trkpt lat="47.09618" lon="-1.61125">
        <ele>-0.46</ele>
        <time>2020-06-20T11:17:26Z</time>
      </trkpt>
      <trkpt lat="47.09631" lon="-1.61124">
        <ele>-1.23</ele>
        <time>2020-06-20T11:17:28Z</time>
      </trkpt>
      <trkpt lat="47.09645" lon="-1.61122">
        <ele>-2.38</ele>
        <time>2020-06-20T11:17:30Z</time>
      </trkpt>
      <trkpt lat="47.09657" lon="-1.61122">
        <ele>-3.14</ele>
        <time>2020-06-20T11:17:32Z</time>
      </trkpt>
      <trkpt lat="47.09669" lon="-1.61121">
        <ele>-3.51</ele>
        <time>2020-06-20T11:17:34Z</time>
      </trkpt>
      <trkpt lat="47.09685" lon="-1.6112">
        <ele>-2.57</ele>
        <time>2020-06-20T11:17:36Z</time>
      </trkpt>
      <trkpt lat="47.097" lon="-1.61118">
        <ele>-0.91</ele>
        <time>2020-06-20T11:17:38Z</time>
      </trkpt>
      <trkpt lat="47.09711" lon="-1.61115">
        <ele>-0.09</ele>
        <time>2020-06-20T11:17:40Z</time>
      </trkpt>
      <trkpt lat="47.09724" lon="-1.61114">
        <ele>-0.88</ele>
        <time>2020-06-20T11:17:42Z</time>
      </trkpt>
      <trkpt lat="47.09737" lon="-1.61112">
        <ele>-1.44</ele>
        <time>2020-06-20T11:17:44Z</time>
      </trkpt>
      <trkpt lat="47.09748" lon="-1.61111">
        <ele>-0.74</ele>
        <time>2020-06-20T11:17:46Z</time>
      </trkpt>
      <trkpt lat="47.09761" lon="-1.6111">
        <ele>-0.67</ele>
        <time>2020-06-20T11:17:48Z</time>
      </trkpt>
      <trkpt lat="47.09775" lon="-1.61109">
        <ele>-0.58</ele>
        <time>2020-06-20T11:17:50Z</time>
      </trkpt>
      <trkpt lat="47.09788" lon="-1.61105">
        <ele>-1.75</ele>
        <time>2020-06-20T11:17:52Z</time>
      </trkpt>
      <trkpt lat="47.098" lon="-1.611">
        <ele>-1.41</ele>
        <time>2020-06-20T11:17:54Z</time>
      </trkpt>
      <trkpt lat="47.09812" lon="-1.61094">
        <ele>-1.13</ele>
        <time>2020-06-20T11:17:56Z</time>
      </trkpt>
      <trkpt lat="47.09825" lon="-1.61085">
        <ele>-1.73</ele>
        <time>2020-06-20T11:17:58Z</time>
      </trkpt>
      <trkpt lat="47.09836" lon="-1.61076">
        <ele>-1.75</ele>
        <time>2020-06-20T11:18:00Z</time>
      </trkpt>
      <trkpt lat="47.09846" lon="-1.61065">
        <ele>-2.22</ele>
        <time>2020-06-20T11:18:02Z</time>
      </trkpt>
      <trkpt lat="47.09853" lon="-1.61053">
        <ele>-1.86</ele>
        <time>2020-06-20T11:18:04Z</time>
      </trkpt>
      <trkpt lat="47.09862" lon="-1.61039">
        <ele>-0.56</ele>
        <time>2020-06-20T11:18:06Z</time>
      </trkpt>
      <trkpt lat="47.09869" lon="-1.61025">
        <ele>0.9</ele>
        <time>2020-06-20T11:18:08Z</time>
      </trkpt>
      <trkpt lat="47.09877" lon="-1.6101">
        <ele>0.47</ele>
        <time>2020-06-20T11:18:10Z</time>
      </trkpt>
      <trkpt lat="47.09884" lon="-1.60992">
        <ele>1.38</ele>
        <time>2020-06-20T11:18:12Z</time>
      </trkpt>
      <trkpt lat="47.09891" lon="-1.60976">
        <ele>2.61</ele>
        <time>2020-06-20T11:18:14Z</time>
      </trkpt>
      <trkpt lat="47.09896" lon="-1.60962">
        <ele>3.52</ele>
        <time>2020-06-20T11:18:16Z</time>
      </trkpt>
      <trkpt lat="47.09902" lon="-1.60947">
        <ele>4.46</ele>
        <time>2020-06-20T11:18:18Z</time>
      </trkpt>
      <trkpt lat="47.09907" lon="-1.60934">
        <ele>4.63</ele>
        <time>2020-06-20T11:18:20Z</time>
      </trkpt>
      <trkpt lat="47.09912" lon="-1.60919">
        <ele>3.93</ele>
        <time>2020-06-20T11:18:22Z</time>
      </trkpt>
      <trkpt lat="47.09917" lon="-1.60905">
        <ele>2.4</ele>
        <time>2020-06-20T11:18:24Z</time>
      </trkpt>
      <trkpt lat="47.09924" lon="-1.6089">
        <ele>2.33</ele>
        <time>2020-06-20T11:18:26Z</time>
      </trkpt>
      <trkpt lat="47.0993" lon="-1.60873">
        <ele>2.7</ele>
        <time>2020-06-20T11:18:28Z</time>
      </trkpt>
      <trkpt lat="47.09935" lon="-1.60859">
        <ele>3.73</ele>
        <time>2020-06-20T11:18:30Z</time>
      </trkpt>
      <trkpt lat="47.09941" lon="-1.60843">
        <ele>5.36</ele>
        <time>2020-06-20T11:18:32Z</time>
      </trkpt>
      <trkpt lat="47.09946" lon="-1.60828">
        <ele>5.67</ele>
        <time>2020-06-20T11:18:34Z</time>
      </trkpt>
      <trkpt lat="47.09951" lon="-1.60812">
        <ele>5.71</ele>
        <time>2020-06-20T11:18:36Z</time>
      </trkpt>
      <trkpt lat="47.09955" lon="-1.60798">
        <ele>5.17</ele>
        <time>2020-06-20T11:18:38Z</time>
      </trkpt>
      <trkpt lat="47.0996" lon="-1.60782">
        <ele>6.43</ele>
        <time>2020-06-20T11:18:40Z</time>
      </trkpt>
      <trkpt lat="47.09965" lon="-1.60766">
        <ele>7.75</ele>
        <time>2020-06-20T11:18:42Z</time>
      </trkpt>
      <trkpt lat="47.09969" lon="-1.60749">
        <ele>7.13</ele>
        <time>2020-06-20T11:18:44Z</time>
      </trkpt>
      <trkpt lat="47.09974" lon="-1.60734">
        <ele>6.24</ele>
        <time>2020-06-20T11:18:46Z</time>
      </trkpt>
      <trkpt lat="47.09979" lon="-1.60718">
        <ele>5.23</ele>
        <time>2020-06-20T11:18:48Z</time>
      </trkpt>
      <trkpt lat="47.09984" lon="-1.60701">
        <ele>5.68</ele>
        <time>2020-06-20T11:18:50Z</time>
      </trkpt>
      <trkpt lat="47.0999" lon="-1.60684">
        <ele>4.82</ele>
        <time>2020-06-20T11:18:52Z</time>
      </trkpt>
      <trkpt lat="47.09994" lon="-1.60668">
        <ele>5.45</ele>
        <time>2020-06-20T11:18:54Z</time>
      </trkpt>
      <trkpt lat="47.09999" lon="-1.60653">
        <ele>4.23</ele>
        <time>2020-06-20T11:18:56Z</time>
      </trkpt>
      <trkpt lat="47.10004" lon="-1.60634">
        <ele>4.53</ele>
        <time>2020-06-20T11:18:58Z</time>
      </trkpt>
      <trkpt lat="47.10009" lon="-1.60617">
        <ele>4.22</ele>
        <time>2020-06-20T11:19:00Z</time>
      </trkpt>
      <trkpt lat="47.10014" lon="-1.60599">
        <ele>4.31</ele>
        <time>2020-06-20T11:19:02Z</time>
      </trkpt>
      <trkpt lat="47.10019" lon="-1.60583">
        <ele>3.66</ele>
        <time>2020-06-20T11:19:04Z</time>
      </trkpt>
      <trkpt lat="47.10024" lon="-1.60566">
        <ele>3.74</ele>
        <time>2020-06-20T11:19:06Z</time>
      </trkpt>
      <trkpt lat="47.10029" lon="-1.60549">
        <ele>3.71</ele>
        <time>2020-06-20T11:19:08Z</time>
      </trkpt>
      <trkpt lat="47.10035" lon="-1.6053">
        <ele>3.91</ele>
        <time>2020-06-20T11:19:10Z</time>
      </trkpt>
      <trkpt lat="47.10039" lon="-1.60512">
        <ele>3.99</ele>
        <time>2020-06-20T11:19:12Z</time>
      </trkpt>
      <trkpt lat="47.10044" lon="-1.60495">
        <ele>3.86</ele>
        <time>2020-06-20T11:19:14Z</time>
      </trkpt>
      <trkpt lat="47.10049" lon="-1.60478">
        <ele>3.44</ele>
        <time>2020-06-20T11:19:16Z</time>
      </trkpt>
      <trkpt lat="47.10053" lon="-1.60461">
        <ele>3.5</ele>
        <time>2020-06-20T11:19:18Z</time>
      </trkpt>
      <trkpt lat="47.10057" lon="-1.60441">
        <ele>4.2</ele>
        <time>2020-06-20T11:19:20Z</time>
      </trkpt>
      <trkpt lat="47.10059" lon="-1.60421">
        <ele>5.58</ele>
        <time>2020-06-20T11:19:22Z</time>
      </trkpt>
      <trkpt lat="47.10061" lon="-1.60401">
        <ele>5</ele>
        <time>2020-06-20T11:19:24Z</time>
      </trkpt>
      <trkpt lat="47.10063" lon="-1.60381">
        <ele>3.49</ele>
        <time>2020-06-20T11:19:26Z</time>
      </trkpt>
      <trkpt lat="47.10065" lon="-1.60361">
        <ele>3.32</ele>
        <time>2020-06-20T11:19:28Z</time>
      </trkpt>
      <trkpt lat="47.10066" lon="-1.6034">
        <ele>2.86</ele>
        <time>2020-06-20T11:19:30Z</time>
      </trkpt>
      <trkpt lat="47.10067" lon="-1.60322">
        <ele>2.05</ele>
        <time>2020-06-20T11:19:32Z</time>
      </trkpt>
      <trkpt lat="47.10069" lon="-1.60303">
        <ele>2.06</ele>
        <time>2020-06-20T11:19:34Z</time>
      </trkpt>
      <trkpt lat="47.1007" lon="-1.60285">
        <ele>1.45</ele>
        <time>2020-06-20T11:19:36Z</time>
      </trkpt>
      <trkpt lat="47.10072" lon="-1.60267">
        <ele>1.43</ele>
        <time>2020-06-20T11:19:38Z</time>
      </trkpt>
      <trkpt lat="47.10074" lon="-1.60248">
        <ele>2.04</ele>
        <time>2020-06-20T11:19:40Z</time>
      </trkpt>
      <trkpt lat="47.10075" lon="-1.60231">
        <ele>2.78</ele>
        <time>2020-06-20T11:19:42Z</time>
      </trkpt>
      <trkpt lat="47.10076" lon="-1.60213">
        <ele>3.68</ele>
        <time>2020-06-20T11:19:44Z</time>
      </trkpt>
      <trkpt lat="47.10077" lon="-1.60195">
        <ele>3.83</ele>
        <time>2020-06-20T11:19:46Z</time>
      </trkpt>
      <trkpt lat="47.10077" lon="-1.60175">
        <ele>2.94</ele>
        <time>2020-06-20T11:19:48Z</time>
      </trkpt>
      <trkpt lat="47.10073" lon="-1.60157">
        <ele>1.29</ele>
        <time>2020-06-20T11:19:50Z</time>
      </trkpt>
      <trkpt lat="47.10067" lon="-1.60138">
        <ele>0.3</ele>
        <time>2020-06-20T11:19:52Z</time>
      </trkpt>
      <trkpt lat="47.10071" lon="-1.60122">
        <ele>0.88</ele>
        <time>2020-06-20T11:19:54Z</time>
      </trkpt>
      <trkpt lat="47.10081" lon="-1.6011">
        <ele>2.03</ele>
        <time>2020-06-20T11:19:56Z</time>
      </trkpt>
      <trkpt lat="47.10093" lon="-1.60102">
        <ele>3.64</ele>
        <time>2020-06-20T11:19:58Z</time>
      </trkpt>
      <trkpt lat="47.10102" lon="-1.60094">
        <ele>4.03</ele>
        <time>2020-06-20T11:20:00Z</time>
      </trkpt>
      <trkpt lat="47.10113" lon="-1.60081">
        <ele>5.15</ele>
        <time>2020-06-20T11:20:02Z</time>
      </trkpt>
      <trkpt lat="47.1012" lon="-1.6007">
        <ele>6.18</ele>
        <time>2020-06-20T11:20:04Z</time>
      </trkpt>
      <trkpt lat="47.10129" lon="-1.60055">
        <ele>7.74</ele>
        <time>2020-06-20T11:20:06Z</time>
      </trkpt>
      <trkpt lat="47.10139" lon="-1.60041">
        <ele>8.65</ele>
        <time>2020-06-20T11:20:08Z</time>
      </trkpt>
      <trkpt lat="47.10147" lon="-1.60029">
        <ele>9.26</ele>
        <time>2020-06-20T11:20:10Z</time>
      </trkpt>
      <trkpt lat="47.10157" lon="-1.60015">
        <ele>9.93</ele>
        <time>2020-06-20T11:20:12Z</time>
      </trkpt>
      <trkpt lat="47.10166" lon="-1.6">
        <ele>8.98</ele>
        <time>2020-06-20T11:20:14Z</time>
      </trkpt>
      <trkpt lat="47.10175" lon="-1.59985">
        <ele>7.69</ele>
        <time>2020-06-20T11:20:16Z</time>
      </trkpt>
      <trkpt lat="47.10182" lon="-1.59974">
        <ele>7.9</ele>
        <time>2020-06-20T11:20:18Z</time>
      </trkpt>
      <trkpt lat="47.10191" lon="-1.5996">
        <ele>7.82</ele>
        <time>2020-06-20T11:20:20Z</time>
      </trkpt>
      <trkpt lat="47.10198" lon="-1.59947">
        <ele>8.33</ele>
        <time>2020-06-20T11:20:22Z</time>
      </trkpt>
      <trkpt lat="47.10207" lon="-1.59932">
        <ele>8.37</ele>
        <time>2020-06-20T11:20:24Z</time>
      </trkpt>
      <trkpt lat="47.10215" lon="-1.59919">
        <ele>8.3</ele>
        <time>2020-06-20T11:20:26Z</time>
      </trkpt>
      <trkpt lat="47.10222" lon="-1.59906">
        <ele>8.5</ele>
        <time>2020-06-20T11:20:28Z</time>
      </trkpt>
      <trkpt lat="47.1023" lon="-1.59892">
        <ele>7.16</ele>
        <time>2020-06-20T11:20:30Z</time>
      </trkpt>
      <trkpt lat="47.10238" lon="-1.59877">
        <ele>7.46</ele>
        <time>2020-06-20T11:20:32Z</time>
      </trkpt>
      <trkpt lat="47.10247" lon="-1.59864">
        <ele>8.13</ele>
        <time>2020-06-20T11:20:34Z</time>
      </trkpt>
      <trkpt lat="47.10255" lon="-1.59851">
        <ele>8.59</ele>
        <time>2020-06-20T11:20:36Z</time>
      </trkpt>
      <trkpt lat="47.10263" lon="-1.59835">
        <ele>9.13</ele>
        <time>2020-06-20T11:20:38Z</time>
      </trkpt>
      <trkpt lat="47.10269" lon="-1.59824">
        <ele>9.25</ele>
        <time>2020-06-20T11:20:40Z</time>
      </trkpt>
      <trkpt lat="47.10277" lon="-1.59812">
        <ele>9.14</ele>
        <time>2020-06-20T11:20:42Z</time>
      </trkpt>
      <trkpt lat="47.10286" lon="-1.59797">
        <ele>9.58</ele>
        <time>2020-06-20T11:20:44Z</time>
      </trkpt>
      <trkpt lat="47.10294" lon="-1.59784">
        <ele>9.83</ele>
        <time>2020-06-20T11:20:46Z</time>
      </trkpt>
      <trkpt lat="47.10301" lon="-1.59772">
        <ele>9.8</ele>
        <time>2020-06-20T11:20:48Z</time>
      </trkpt>
      <trkpt lat="47.1031" lon="-1.59758">
        <ele>10.73</ele>
        <time>2020-06-20T11:20:50Z</time>
      </trkpt>
      <trkpt lat="47.10317" lon="-1.59745">
        <ele>11.6</ele>
        <time>2020-06-20T11:20:52Z</time>
      </trkpt>
      <trkpt lat="47.10325" lon="-1.59731">
        <ele>13.02</ele>
        <time>2020-06-20T11:20:54Z</time>
      </trkpt>
      <trkpt lat="47.10332" lon="-1.5972">
        <ele>13.15</ele>
        <time>2020-06-20T11:20:56Z</time>
      </trkpt>
      <trkpt lat="47.1034" lon="-1.59705">
        <ele>14.05</ele>
        <time>2020-06-20T11:20:58Z</time>
      </trkpt>
      <trkpt lat="47.10347" lon="-1.59692">
        <ele>15.4</ele>
        <time>2020-06-20T11:21:00Z</time>
      </trkpt>
      <trkpt lat="47.10355" lon="-1.59678">
        <ele>14.56</ele>
        <time>2020-06-20T11:21:02Z</time>
      </trkpt>
      <trkpt lat="47.10363" lon="-1.59663">
        <ele>14.63</ele>
        <time>2020-06-20T11:21:05Z</time>
      </trkpt>
      <trkpt lat="47.10372" lon="-1.59648">
        <ele>14.5</ele>
        <time>2020-06-20T11:21:07Z</time>
      </trkpt>
      <trkpt lat="47.1038" lon="-1.59636">
        <ele>15.82</ele>
        <time>2020-06-20T11:21:09Z</time>
      </trkpt>
      <trkpt lat="47.10388" lon="-1.59622">
        <ele>15.9</ele>
        <time>2020-06-20T11:21:11Z</time>
      </trkpt>
      <trkpt lat="47.10397" lon="-1.59609">
        <ele>15.71</ele>
        <time>2020-06-20T11:21:13Z</time>
      </trkpt>
      <trkpt lat="47.10405" lon="-1.59595">
        <ele>14.36</ele>
        <time>2020-06-20T11:21:15Z</time>
      </trkpt>
      <trkpt lat="47.10414" lon="-1.5958">
        <ele>13.95</ele>
        <time>2020-06-20T11:21:17Z</time>
      </trkpt>
      <trkpt lat="47.10423" lon="-1.59567">
        <ele>13.36</ele>
        <time>2020-06-20T11:21:19Z</time>
      </trkpt>
      <trkpt lat="47.10431" lon="-1.59554">
        <ele>12.64</ele>
        <time>2020-06-20T11:21:21Z</time>
      </trkpt>
      <trkpt lat="47.10439" lon="-1.5954">
        <ele>12.99</ele>
        <time>2020-06-20T11:21:23Z</time>
      </trkpt>
      <trkpt lat="47.10448" lon="-1.59528">
        <ele>10.78</ele>
        <time>2020-06-20T11:21:25Z</time>
      </trkpt>
      <trkpt lat="47.10455" lon="-1.59514">
        <ele>9.19</ele>
        <time>2020-06-20T11:21:27Z</time>
      </trkpt>
      <trkpt lat="47.10463" lon="-1.595">
        <ele>9.69</ele>
        <time>2020-06-20T11:21:29Z</time>
      </trkpt>
      <trkpt lat="47.10472" lon="-1.59487">
        <ele>10.1</ele>
        <time>2020-06-20T11:21:31Z</time>
      </trkpt>
      <trkpt lat="47.10481" lon="-1.59472">
        <ele>9.83</ele>
        <time>2020-06-20T11:21:33Z</time>
      </trkpt>
      <trkpt lat="47.10489" lon="-1.59459">
        <ele>9.52</ele>
        <time>2020-06-20T11:21:35Z</time>
      </trkpt>
      <trkpt lat="47.10496" lon="-1.59446">
        <ele>8.98</ele>
        <time>2020-06-20T11:21:37Z</time>
      </trkpt>
      <trkpt lat="47.10504" lon="-1.59431">
        <ele>8.33</ele>
        <time>2020-06-20T11:21:39Z</time>
      </trkpt>
      <trkpt lat="47.10513" lon="-1.59419">
        <ele>7.85</ele>
        <time>2020-06-20T11:21:41Z</time>
      </trkpt>
      <trkpt lat="47.10519" lon="-1.59406">
        <ele>7.46</ele>
        <time>2020-06-20T11:21:43Z</time>
      </trkpt>
      <trkpt lat="47.10526" lon="-1.59395">
        <ele>6.07</ele>
        <time>2020-06-20T11:21:45Z</time>
      </trkpt>
      <trkpt lat="47.10534" lon="-1.59381">
        <ele>6.88</ele>
        <time>2020-06-20T11:21:47Z</time>
      </trkpt>
      <trkpt lat="47.10543" lon="-1.59368">
        <ele>7.02</ele>
        <time>2020-06-20T11:21:49Z</time>
      </trkpt>
      <trkpt lat="47.10551" lon="-1.59354">
        <ele>8.23</ele>
        <time>2020-06-20T11:21:51Z</time>
      </trkpt>
      <trkpt lat="47.10559" lon="-1.59341">
        <ele>9.03</ele>
        <time>2020-06-20T11:21:53Z</time>
      </trkpt>
      <trkpt lat="47.10566" lon="-1.59327">
        <ele>9.72</ele>
        <time>2020-06-20T11:21:55Z</time>
      </trkpt>
      <trkpt lat="47.10574" lon="-1.59314">
        <ele>9.24</ele>
        <time>2020-06-20T11:21:57Z</time>
      </trkpt>
      <trkpt lat="47.10581" lon="-1.59301">
        <ele>8.91</ele>
        <time>2020-06-20T11:21:59Z</time>
      </trkpt>
      <trkpt lat="47.10589" lon="-1.59286">
        <ele>9.5</ele>
        <time>2020-06-20T11:22:01Z</time>
      </trkpt>
      <trkpt lat="47.10597" lon="-1.59273">
        <ele>8.6</ele>
        <time>2020-06-20T11:22:03Z</time>
      </trkpt>
      <trkpt lat="47.10604" lon="-1.5926">
        <ele>7.9</ele>
        <time>2020-06-20T11:22:05Z</time>
      </trkpt>
      <trkpt lat="47.10612" lon="-1.59246">
        <ele>7.54</ele>
        <time>2020-06-20T11:22:07Z</time>
      </trkpt>
      <trkpt lat="47.10617" lon="-1.59234">
        <ele>7.39</ele>
        <time>2020-06-20T11:22:09Z</time>
      </trkpt>
      <trkpt lat="47.10625" lon="-1.59222">
        <ele>8.54</ele>
        <time>2020-06-20T11:22:11Z</time>
      </trkpt>
      <trkpt lat="47.10632" lon="-1.59211">
        <ele>10.9</ele>
        <time>2020-06-20T11:22:13Z</time>
      </trkpt>
      <trkpt lat="47.10637" lon="-1.59199">
        <ele>12.69</ele>
        <time>2020-06-20T11:22:15Z</time>
      </trkpt>
      <trkpt lat="47.10644" lon="-1.59184">
        <ele>14.35</ele>
        <time>2020-06-20T11:22:17Z</time>
      </trkpt>
      <trkpt lat="47.10651" lon="-1.5917">
        <ele>15.05</ele>
        <time>2020-06-20T11:22:19Z</time>
      </trkpt>
      <trkpt lat="47.10658" lon="-1.59154">
        <ele>15.22</ele>
        <time>2020-06-20T11:22:21Z</time>
      </trkpt>
      <trkpt lat="47.10664" lon="-1.59137">
        <ele>14.74</ele>
        <time>2020-06-20T11:22:23Z</time>
      </trkpt>
      <trkpt lat="47.1067" lon="-1.59122">
        <ele>14.52</ele>
        <time>2020-06-20T11:22:25Z</time>
      </trkpt>
      <trkpt lat="47.10676" lon="-1.59108">
        <ele>13.12</ele>
        <time>2020-06-20T11:22:27Z</time>
      </trkpt>
      <trkpt lat="47.10681" lon="-1.59094">
        <ele>13.25</ele>
        <time>2020-06-20T11:22:29Z</time>
      </trkpt>
      <trkpt lat="47.10685" lon="-1.59082">
        <ele>13.14</ele>
        <time>2020-06-20T11:22:31Z</time>
      </trkpt>
      <trkpt lat="47.10689" lon="-1.59067">
        <ele>12.93</ele>
        <time>2020-06-20T11:22:33Z</time>
      </trkpt>
      <trkpt lat="47.10696" lon="-1.5905">
        <ele>13.37</ele>
        <time>2020-06-20T11:22:35Z</time>
      </trkpt>
      <trkpt lat="47.10701" lon="-1.59032">
        <ele>13.43</ele>
        <time>2020-06-20T11:22:37Z</time>
      </trkpt>
      <trkpt lat="47.10708" lon="-1.59014">
        <ele>13.75</ele>
        <time>2020-06-20T11:22:40Z</time>
      </trkpt>
      <trkpt lat="47.10715" lon="-1.58996">
        <ele>13.94</ele>
        <time>2020-06-20T11:22:42Z</time>
      </trkpt>
      <trkpt lat="47.10722" lon="-1.58981">
        <ele>13.79</ele>
        <time>2020-06-20T11:22:44Z</time>
      </trkpt>
      <trkpt lat="47.10727" lon="-1.58968">
        <ele>14.42</ele>
        <time>2020-06-20T11:22:46Z</time>
      </trkpt>
      <trkpt lat="47.10734" lon="-1.5895">
        <ele>13.67</ele>
        <time>2020-06-20T11:22:48Z</time>
      </trkpt>
      <trkpt lat="47.1074" lon="-1.58934">
        <ele>13.25</ele>
        <time>2020-06-20T11:22:50Z</time>
      </trkpt>
      <trkpt lat="47.10746" lon="-1.5892">
        <ele>12.55</ele>
        <time>2020-06-20T11:22:52Z</time>
      </trkpt>
      <trkpt lat="47.10753" lon="-1.58907">
        <ele>12.41</ele>
        <time>2020-06-20T11:22:54Z</time>
      </trkpt>
      <trkpt lat="47.10761" lon="-1.58893">
        <ele>13.02</ele>
        <time>2020-06-20T11:22:56Z</time>
      </trkpt>
      <trkpt lat="47.1077" lon="-1.58878">
        <ele>13.96</ele>
        <time>2020-06-20T11:22:58Z</time>
      </trkpt>
      <trkpt lat="47.1078" lon="-1.58862">
        <ele>13.75</ele>
        <time>2020-06-20T11:23:00Z</time>
      </trkpt>
      <trkpt lat="47.10788" lon="-1.58849">
        <ele>12.61</ele>
        <time>2020-06-20T11:23:02Z</time>
      </trkpt>
      <trkpt lat="47.10797" lon="-1.58835">
        <ele>12.98</ele>
        <time>2020-06-20T11:23:04Z</time>
      </trkpt>
      <trkpt lat="47.10807" lon="-1.58821">
        <ele>11.76</ele>
        <time>2020-06-20T11:23:06Z</time>
      </trkpt>
      <trkpt lat="47.10817" lon="-1.58805">
        <ele>11.69</ele>
        <time>2020-06-20T11:23:08Z</time>
      </trkpt>
      <trkpt lat="47.10827" lon="-1.58791">
        <ele>11.77</ele>
        <time>2020-06-20T11:23:10Z</time>
      </trkpt>
      <trkpt lat="47.10838" lon="-1.58775">
        <ele>11.63</ele>
        <time>2020-06-20T11:23:12Z</time>
      </trkpt>
      <trkpt lat="47.10848" lon="-1.5876">
        <ele>11.18</ele>
        <time>2020-06-20T11:23:14Z</time>
      </trkpt>
      <trkpt lat="47.10858" lon="-1.58744">
        <ele>10.77</ele>
        <time>2020-06-20T11:23:16Z</time>
      </trkpt>
      <trkpt lat="47.10869" lon="-1.58728">
        <ele>9.91</ele>
        <time>2020-06-20T11:23:18Z</time>
      </trkpt>
      <trkpt lat="47.1088" lon="-1.58711">
        <ele>9.24</ele>
        <time>2020-06-20T11:23:20Z</time>
      </trkpt>
      <trkpt lat="47.10887" lon="-1.58702">
        <ele>9.4</ele>
        <time>2020-06-20T11:23:21Z</time>
      </trkpt>
      <trkpt lat="47.10897" lon="-1.58685">
        <ele>9.21</ele>
        <time>2020-06-20T11:23:23Z</time>
      </trkpt>
      <trkpt lat="47.10907" lon="-1.58669">
        <ele>9.62</ele>
        <time>2020-06-20T11:23:25Z</time>
      </trkpt>
      <trkpt lat="47.10918" lon="-1.58654">
        <ele>10.41</ele>
        <time>2020-06-20T11:23:27Z</time>
      </trkpt>
      <trkpt lat="47.10929" lon="-1.58636">
        <ele>11.9</ele>
        <time>2020-06-20T11:23:29Z</time>
      </trkpt>
      <trkpt lat="47.1094" lon="-1.58619">
        <ele>12.83</ele>
        <time>2020-06-20T11:23:31Z</time>
      </trkpt>
      <trkpt lat="47.1095" lon="-1.58603">
        <ele>13.83</ele>
        <time>2020-06-20T11:23:33Z</time>
      </trkpt>
      <trkpt lat="47.10961" lon="-1.58587">
        <ele>14.52</ele>
        <time>2020-06-20T11:23:35Z</time>
      </trkpt>
      <trkpt lat="47.10973" lon="-1.5857">
        <ele>14.67</ele>
        <time>2020-06-20T11:23:37Z</time>
      </trkpt>
      <trkpt lat="47.10983" lon="-1.58555">
        <ele>14.6</ele>
        <time>2020-06-20T11:23:39Z</time>
      </trkpt>
      <trkpt lat="47.10994" lon="-1.58538">
        <ele>15.33</ele>
        <time>2020-06-20T11:23:41Z</time>
      </trkpt>
      <trkpt lat="47.11" lon="-1.58528">
        <ele>15.52</ele>
        <time>2020-06-20T11:23:42Z</time>
      </trkpt>
      <trkpt lat="47.11012" lon="-1.5851">
        <ele>16.05</ele>
        <time>2020-06-20T11:23:44Z</time>
      </trkpt>
      <trkpt lat="47.11023" lon="-1.58494">
        <ele>14.71</ele>
        <time>2020-06-20T11:23:46Z</time>
      </trkpt>
      <trkpt lat="47.11034" lon="-1.58478">
        <ele>12.17</ele>
        <time>2020-06-20T11:23:48Z</time>
      </trkpt>
      <trkpt lat="47.11045" lon="-1.58463">
        <ele>10.42</ele>
        <time>2020-06-20T11:23:50Z</time>
      </trkpt>
      <trkpt lat="47.11055" lon="-1.58448">
        <ele>9.23</ele>
        <time>2020-06-20T11:23:52Z</time>
      </trkpt>
      <trkpt lat="47.11067" lon="-1.58431">
        <ele>8.41</ele>
        <time>2020-06-20T11:23:54Z</time>
      </trkpt>
      <trkpt lat="47.11077" lon="-1.58415">
        <ele>8.44</ele>
        <time>2020-06-20T11:23:56Z</time>
      </trkpt>
      <trkpt lat="47.11089" lon="-1.58397">
        <ele>7.73</ele>
        <time>2020-06-20T11:23:58Z</time>
      </trkpt>
      <trkpt lat="47.111" lon="-1.58381">
        <ele>6.89</ele>
        <time>2020-06-20T11:24:00Z</time>
      </trkpt>
      <trkpt lat="47.11112" lon="-1.58365">
        <ele>6.85</ele>
        <time>2020-06-20T11:24:02Z</time>
      </trkpt>
      <trkpt lat="47.1112" lon="-1.58351">
        <ele>6.8</ele>
        <time>2020-06-20T11:24:04Z</time>
      </trkpt>
      <trkpt lat="47.1113" lon="-1.58337">
        <ele>6.42</ele>
        <time>2020-06-20T11:24:06Z</time>
      </trkpt>
      <trkpt lat="47.11141" lon="-1.58321">
        <ele>6.21</ele>
        <time>2020-06-20T11:24:08Z</time>
      </trkpt>
      <trkpt lat="47.1115" lon="-1.58305">
        <ele>5.93</ele>
        <time>2020-06-20T11:24:10Z</time>
      </trkpt>
      <trkpt lat="47.11159" lon="-1.58292">
        <ele>5.14</ele>
        <time>2020-06-20T11:24:12Z</time>
      </trkpt>
      <trkpt lat="47.11169" lon="-1.58275">
        <ele>5.19</ele>
        <time>2020-06-20T11:24:14Z</time>
      </trkpt>
      <trkpt lat="47.11179" lon="-1.5826">
        <ele>5.5</ele>
        <time>2020-06-20T11:24:16Z</time>
      </trkpt>
      <trkpt lat="47.11188" lon="-1.58245">
        <ele>5.72</ele>
        <time>2020-06-20T11:24:18Z</time>
      </trkpt>
      <trkpt lat="47.11198" lon="-1.5823">
        <ele>6.08</ele>
        <time>2020-06-20T11:24:20Z</time>
      </trkpt>
      <trkpt lat="47.11208" lon="-1.58216">
        <ele>6.21</ele>
        <time>2020-06-20T11:24:22Z</time>
      </trkpt>
      <trkpt lat="47.11217" lon="-1.58204">
        <ele>6.58</ele>
        <time>2020-06-20T11:24:24Z</time>
      </trkpt>
      <trkpt lat="47.11228" lon="-1.58192">
        <ele>7.44</ele>
        <time>2020-06-20T11:24:26Z</time>
      </trkpt>
      <trkpt lat="47.11238" lon="-1.5818">
        <ele>7.18</ele>
        <time>2020-06-20T11:24:28Z</time>
      </trkpt>
      <trkpt lat="47.11249" lon="-1.58169">
        <ele>6.4</ele>
        <time>2020-06-20T11:24:30Z</time>
      </trkpt>
      <trkpt lat="47.11263" lon="-1.58156">
        <ele>5.41</ele>
        <time>2020-06-20T11:24:32Z</time>
      </trkpt>
      <trkpt lat="47.11275" lon="-1.58145">
        <ele>4.39</ele>
        <time>2020-06-20T11:24:34Z</time>
      </trkpt>
      <trkpt lat="47.11287" lon="-1.58135">
        <ele>3.76</ele>
        <time>2020-06-20T11:24:36Z</time>
      </trkpt>
      <trkpt lat="47.11299" lon="-1.58125">
        <ele>3.1</ele>
        <time>2020-06-20T11:24:38Z</time>
      </trkpt>
      <trkpt lat="47.11311" lon="-1.58117">
        <ele>2.16</ele>
        <time>2020-06-20T11:24:40Z</time>
      </trkpt>
      <trkpt lat="47.11323" lon="-1.5811">
        <ele>1.6</ele>
        <time>2020-06-20T11:24:42Z</time>
      </trkpt>
      <trkpt lat="47.11334" lon="-1.58103">
        <ele>1.45</ele>
        <time>2020-06-20T11:24:44Z</time>
      </trkpt>
      <trkpt lat="47.11348" lon="-1.58095">
        <ele>1.13</ele>
        <time>2020-06-20T11:24:46Z</time>
      </trkpt>
      <trkpt lat="47.11361" lon="-1.58086">
        <ele>1.34</ele>
        <time>2020-06-20T11:24:48Z</time>
      </trkpt>
      <trkpt lat="47.11372" lon="-1.58078">
        <ele>1.19</ele>
        <time>2020-06-20T11:24:50Z</time>
      </trkpt>
      <trkpt lat="47.11385" lon="-1.58067">
        <ele>0.51</ele>
        <time>2020-06-20T11:24:52Z</time>
      </trkpt>
      <trkpt lat="47.11397" lon="-1.5806">
        <ele>0.1</ele>
        <time>2020-06-20T11:24:54Z</time>
      </trkpt>
      <trkpt lat="47.11409" lon="-1.58054">
        <ele>-0.08</ele>
        <time>2020-06-20T11:24:56Z</time>
      </trkpt>
      <trkpt lat="47.11422" lon="-1.58048">
        <ele>1.03</ele>
        <time>2020-06-20T11:24:58Z</time>
      </trkpt>
      <trkpt lat="47.11433" lon="-1.58042">
        <ele>2.35</ele>
        <time>2020-06-20T11:25:00Z</time>
      </trkpt>
      <trkpt lat="47.11445" lon="-1.58036">
        <ele>4.1</ele>
        <time>2020-06-20T11:25:02Z</time>
      </trkpt>
      <trkpt lat="47.11459" lon="-1.5803">
        <ele>3.97</ele>
        <time>2020-06-20T11:25:04Z</time>
      </trkpt>
      <trkpt lat="47.1147" lon="-1.58026">
        <ele>3.14</ele>
        <time>2020-06-20T11:25:06Z</time>
      </trkpt>
      <trkpt lat="47.11482" lon="-1.58022">
        <ele>2.52</ele>
        <time>2020-06-20T11:25:08Z</time>
      </trkpt>
      <trkpt lat="47.11495" lon="-1.58019">
        <ele>2.34</ele>
        <time>2020-06-20T11:25:10Z</time>
      </trkpt>
      <trkpt lat="47.11508" lon="-1.58018">
        <ele>2.62</ele>
        <time>2020-06-20T11:25:12Z</time>
      </trkpt>
      <trkpt lat="47.1152" lon="-1.58019">
        <ele>2.91</ele>
        <time>2020-06-20T11:25:14Z</time>
      </trkpt>
      <trkpt lat="47.11534" lon="-1.58019">
        <ele>1.53</ele>
        <time>2020-06-20T11:25:16Z</time>
      </trkpt>
      <trkpt lat="47.11546" lon="-1.5802">
        <ele>0.73</ele>
        <time>2020-06-20T11:25:18Z</time>
      </trkpt>
      <trkpt lat="47.11558" lon="-1.58021">
        <ele>0.16</ele>
        <time>2020-06-20T11:25:20Z</time>
      </trkpt>
      <trkpt lat="47.11569" lon="-1.58022">
        <ele>-1.4</ele>
        <time>2020-06-20T11:25:22Z</time>
      </trkpt>
      <trkpt lat="47.11584" lon="-1.58023">
        <ele>-1.48</ele>
        <time>2020-06-20T11:25:24Z</time>
      </trkpt>
      <trkpt lat="47.11597" lon="-1.58024">
        <ele>-1.14</ele>
        <time>2020-06-20T11:25:26Z</time>
      </trkpt>
      <trkpt lat="47.11608" lon="-1.58027">
        <ele>-1.12</ele>
        <time>2020-06-20T11:25:28Z</time>
      </trkpt>
      <trkpt lat="47.1162" lon="-1.5803">
        <ele>-0.38</ele>
        <time>2020-06-20T11:25:30Z</time>
      </trkpt>
      <trkpt lat="47.1163" lon="-1.58029">
        <ele>-0.68</ele>
        <time>2020-06-20T11:25:32Z</time>
      </trkpt>
      <trkpt lat="47.1164" lon="-1.58027">
        <ele>-1.21</ele>
        <time>2020-06-20T11:25:34Z</time>
      </trkpt>
      <trkpt lat="47.11652" lon="-1.5803">
        <ele>-1.52</ele>
        <time>2020-06-20T11:25:36Z</time>
      </trkpt>
      <trkpt lat="47.11662" lon="-1.58031">
        <ele>-1.88</ele>
        <time>2020-06-20T11:25:38Z</time>
      </trkpt>
      <trkpt lat="47.11674" lon="-1.58032">
        <ele>-1.43</ele>
        <time>2020-06-20T11:25:40Z</time>
      </trkpt>
      <trkpt lat="47.11686" lon="-1.58032">
        <ele>-1.75</ele>
        <time>2020-06-20T11:25:42Z</time>
      </trkpt>
      <trkpt lat="47.11699" lon="-1.58033">
        <ele>-1.75</ele>
        <time>2020-06-20T11:25:44Z</time>
      </trkpt>
      <trkpt lat="47.11709" lon="-1.58033">
        <ele>-1.97</ele>
        <time>2020-06-20T11:25:46Z</time>
      </trkpt>
      <trkpt lat="47.11721" lon="-1.58033">
        <ele>-1.26</ele>
        <time>2020-06-20T11:25:48Z</time>
      </trkpt>
      <trkpt lat="47.11733" lon="-1.58034">
        <ele>-1.24</ele>
        <time>2020-06-20T11:25:50Z</time>
      </trkpt>
      <trkpt lat="47.11744" lon="-1.58036">
        <ele>0.34</ele>
        <time>2020-06-20T11:25:52Z</time>
      </trkpt>
      <trkpt lat="47.11754" lon="-1.58039">
        <ele>1.13</ele>
        <time>2020-06-20T11:25:54Z</time>
      </trkpt>
      <trkpt lat="47.11767" lon="-1.58042">
        <ele>1.19</ele>
        <time>2020-06-20T11:25:56Z</time>
      </trkpt>
      <trkpt lat="47.11778" lon="-1.58045">
        <ele>1.52</ele>
        <time>2020-06-20T11:25:58Z</time>
      </trkpt>
      <trkpt lat="47.11789" lon="-1.58048">
        <ele>1.92</ele>
        <time>2020-06-20T11:26:00Z</time>
      </trkpt>
      <trkpt lat="47.118" lon="-1.58051">
        <ele>1.73</ele>
        <time>2020-06-20T11:26:02Z</time>
      </trkpt>
      <trkpt lat="47.11812" lon="-1.58055">
        <ele>2.62</ele>
        <time>2020-06-20T11:26:04Z</time>
      </trkpt>
      <trkpt lat="47.11822" lon="-1.58059">
        <ele>3.58</ele>
        <time>2020-06-20T11:26:06Z</time>
      </trkpt>
      <trkpt lat="47.11832" lon="-1.58061">
        <ele>3.97</ele>
        <time>2020-06-20T11:26:08Z</time>
      </trkpt>
      <trkpt lat="47.11843" lon="-1.58063">
        <ele>4.18</ele>
        <time>2020-06-20T11:26:10Z</time>
      </trkpt>
      <trkpt lat="47.11853" lon="-1.58065">
        <ele>3.26</ele>
        <time>2020-06-20T11:26:12Z</time>
      </trkpt>
      <trkpt lat="47.11863" lon="-1.58067">
        <ele>3.22</ele>
        <time>2020-06-20T11:26:14Z</time>
      </trkpt>
      <trkpt lat="47.11875" lon="-1.5807">
        <ele>3.01</ele>
        <time>2020-06-20T11:26:16Z</time>
      </trkpt>
      <trkpt lat="47.11885" lon="-1.58072">
        <ele>2.78</ele>
        <time>2020-06-20T11:26:18Z</time>
      </trkpt>
      <trkpt lat="47.11895" lon="-1.58074">
        <ele>2.17</ele>
        <time>2020-06-20T11:26:20Z</time>
      </trkpt>
      <trkpt lat="47.11906" lon="-1.58076">
        <ele>2.31</ele>
        <time>2020-06-20T11:26:22Z</time>
      </trkpt>
      <trkpt lat="47.11918" lon="-1.58079">
        <ele>2.46</ele>
        <time>2020-06-20T11:26:24Z</time>
      </trkpt>
      <trkpt lat="47.11927" lon="-1.58082">
        <ele>3.9</ele>
        <time>2020-06-20T11:26:26Z</time>
      </trkpt>
      <trkpt lat="47.11938" lon="-1.58084">
        <ele>4.41</ele>
        <time>2020-06-20T11:26:28Z</time>
      </trkpt>
      <trkpt lat="47.11948" lon="-1.58087">
        <ele>4.45</ele>
        <time>2020-06-20T11:26:30Z</time>
      </trkpt>
      <trkpt lat="47.1196" lon="-1.58089">
        <ele>3.6</ele>
        <time>2020-06-20T11:26:32Z</time>
      </trkpt>
      <trkpt lat="47.11971" lon="-1.58091">
        <ele>4.48</ele>
        <time>2020-06-20T11:26:34Z</time>
      </trkpt>
      <trkpt lat="47.1198" lon="-1.58095">
        <ele>6.42</ele>
        <time>2020-06-20T11:26:36Z</time>
      </trkpt>
      <trkpt lat="47.11991" lon="-1.581">
        <ele>7.64</ele>
        <time>2020-06-20T11:26:38Z</time>
      </trkpt>
      <trkpt lat="47.12001" lon="-1.58103">
        <ele>9.03</ele>
        <time>2020-06-20T11:26:40Z</time>
      </trkpt>
      <trkpt lat="47.12013" lon="-1.58099">
        <ele>9.51</ele>
        <time>2020-06-20T11:26:42Z</time>
      </trkpt>
      <trkpt lat="47.12021" lon="-1.58106">
        <ele>9</ele>
        <time>2020-06-20T11:26:44Z</time>
      </trkpt>
      <trkpt lat="47.1203" lon="-1.58116">
        <ele>8.48</ele>
        <time>2020-06-20T11:26:46Z</time>
      </trkpt>
      <trkpt lat="47.1204" lon="-1.58124">
        <ele>7.6</ele>
        <time>2020-06-20T11:26:48Z</time>
      </trkpt>
      <trkpt lat="47.12051" lon="-1.5813">
        <ele>7.43</ele>
        <time>2020-06-20T11:26:50Z</time>
      </trkpt>
      <trkpt lat="47.12061" lon="-1.58137">
        <ele>7.91</ele>
        <time>2020-06-20T11:26:52Z</time>
      </trkpt>
      <trkpt lat="47.12071" lon="-1.58143">
        <ele>8.27</ele>
        <time>2020-06-20T11:26:54Z</time>
      </trkpt>
      <trkpt lat="47.12082" lon="-1.58149">
        <ele>9.11</ele>
        <time>2020-06-20T11:26:56Z</time>
      </trkpt>
      <trkpt lat="47.12093" lon="-1.58158">
        <ele>9.74</ele>
        <time>2020-06-20T11:26:58Z</time>
      </trkpt>
      <trkpt lat="47.12105" lon="-1.58166">
        <ele>10.21</ele>
        <time>2020-06-20T11:27:00Z</time>
      </trkpt>
      <trkpt lat="47.12117" lon="-1.58175">
        <ele>10.41</ele>
        <time>2020-06-20T11:27:02Z</time>
      </trkpt>
      <trkpt lat="47.12129" lon="-1.58187">
        <ele>7.58</ele>
        <time>2020-06-20T11:27:04Z</time>
      </trkpt>
      <trkpt lat="47.1214" lon="-1.58197">
        <ele>5.58</ele>
        <time>2020-06-20T11:27:06Z</time>
      </trkpt>
      <trkpt lat="47.12151" lon="-1.58208">
        <ele>5.02</ele>
        <time>2020-06-20T11:27:08Z</time>
      </trkpt>
      <trkpt lat="47.12161" lon="-1.58218">
        <ele>5.22</ele>
        <time>2020-06-20T11:27:10Z</time>
      </trkpt>
      <trkpt lat="47.12172" lon="-1.58229">
        <ele>4.42</ele>
        <time>2020-06-20T11:27:12Z</time>
      </trkpt>
      <trkpt lat="47.12182" lon="-1.58239">
        <ele>3.29</ele>
        <time>2020-06-20T11:27:14Z</time>
      </trkpt>
      <trkpt lat="47.12193" lon="-1.58249">
        <ele>2.82</ele>
        <time>2020-06-20T11:27:16Z</time>
      </trkpt>
      <trkpt lat="47.12204" lon="-1.58259">
        <ele>2.48</ele>
        <time>2020-06-20T11:27:18Z</time>
      </trkpt>
      <trkpt lat="47.12215" lon="-1.5827">
        <ele>2.61</ele>
        <time>2020-06-20T11:27:20Z</time>
      </trkpt>
      <trkpt lat="47.12226" lon="-1.58279">
        <ele>2.39</ele>
        <time>2020-06-20T11:27:22Z</time>
      </trkpt>
      <trkpt lat="47.12236" lon="-1.58289">
        <ele>2.42</ele>
        <time>2020-06-20T11:27:24Z</time>
      </trkpt>
      <trkpt lat="47.12247" lon="-1.583">
        <ele>1.8</ele>
        <time>2020-06-20T11:27:26Z</time>
      </trkpt>
      <trkpt lat="47.12257" lon="-1.58311">
        <ele>0.18</ele>
        <time>2020-06-20T11:27:28Z</time>
      </trkpt>
      <trkpt lat="47.12267" lon="-1.58321">
        <ele>-0.14</ele>
        <time>2020-06-20T11:27:30Z</time>
      </trkpt>
      <trkpt lat="47.12279" lon="-1.58332">
        <ele>0.95</ele>
        <time>2020-06-20T11:27:32Z</time>
      </trkpt>
      <trkpt lat="47.12289" lon="-1.58342">
        <ele>2.55</ele>
        <time>2020-06-20T11:27:34Z</time>
      </trkpt>
      <trkpt lat="47.12297" lon="-1.5836">
        <ele>6.28</ele>
        <time>2020-06-20T11:27:37Z</time>
      </trkpt>
      <trkpt lat="47.123" lon="-1.5838">
        <ele>7.02</ele>
        <time>2020-06-20T11:27:40Z</time>
      </trkpt>
      <trkpt lat="47.12304" lon="-1.58396">
        <ele>6.09</ele>
        <time>2020-06-20T11:27:42Z</time>
      </trkpt>
      <trkpt lat="47.12309" lon="-1.58413">
        <ele>4.79</ele>
        <time>2020-06-20T11:27:44Z</time>
      </trkpt>
      <trkpt lat="47.12315" lon="-1.58428">
        <ele>3.9</ele>
        <time>2020-06-20T11:27:46Z</time>
      </trkpt>
      <trkpt lat="47.12324" lon="-1.5844">
        <ele>3.32</ele>
        <time>2020-06-20T11:27:48Z</time>
      </trkpt>
      <trkpt lat="47.12328" lon="-1.58458">
        <ele>3.05</ele>
        <time>2020-06-20T11:27:52Z</time>
      </trkpt>
      <trkpt lat="47.12335" lon="-1.58472">
        <ele>2.65</ele>
        <time>2020-06-20T11:27:54Z</time>
      </trkpt>
      <trkpt lat="47.12339" lon="-1.58486">
        <ele>2.33</ele>
        <time>2020-06-20T11:27:56Z</time>
      </trkpt>
      <trkpt lat="47.12343" lon="-1.58503">
        <ele>1.82</ele>
        <time>2020-06-20T11:27:58Z</time>
      </trkpt>
      <trkpt lat="47.12346" lon="-1.58519">
        <ele>1.71</ele>
        <time>2020-06-20T11:28:00Z</time>
      </trkpt>
      <trkpt lat="47.12349" lon="-1.58532">
        <ele>1.72</ele>
        <time>2020-06-20T11:28:02Z</time>
      </trkpt>
      <trkpt lat="47.12353" lon="-1.58546">
        <ele>1.92</ele>
        <time>2020-06-20T11:28:04Z</time>
      </trkpt>
      <trkpt lat="47.12357" lon="-1.58563">
        <ele>0.47</ele>
        <time>2020-06-20T11:28:07Z</time>
      </trkpt>
      <trkpt lat="47.12363" lon="-1.58575">
        <ele>0.2</ele>
        <time>2020-06-20T11:28:10Z</time>
      </trkpt>
      <trkpt lat="47.12363" lon="-1.58589">
        <ele>0.14</ele>
        <time>2020-06-20T11:28:13Z</time>
      </trkpt>
      <trkpt lat="47.12366" lon="-1.58603">
        <ele>0.16</ele>
        <time>2020-06-20T11:28:16Z</time>
      </trkpt>
      <trkpt lat="47.12369" lon="-1.58617">
        <ele>0.26</ele>
        <time>2020-06-20T11:28:19Z</time>
      </trkpt>
      <trkpt lat="47.12373" lon="-1.58633">
        <ele>0.42</ele>
        <time>2020-06-20T11:28:25Z</time>
      </trkpt>
      <trkpt lat="47.12375" lon="-1.58648">
        <ele>0.71</ele>
        <time>2020-06-20T11:28:28Z</time>
      </trkpt>
      <trkpt lat="47.12376" lon="-1.58668">
        <ele>3.8</ele>
        <time>2020-06-20T11:28:30Z</time>
      </trkpt>
      <trkpt lat="47.12378" lon="-1.58689">
        <ele>5.67</ele>
        <time>2020-06-20T11:28:33Z</time>
      </trkpt>
      <trkpt lat="47.12382" lon="-1.58704">
        <ele>5.52</ele>
        <time>2020-06-20T11:28:35Z</time>
      </trkpt>
      <trkpt lat="47.12386" lon="-1.5872">
        <ele>5.02</ele>
        <time>2020-06-20T11:28:37Z</time>
      </trkpt>
      <trkpt lat="47.1239" lon="-1.58732">
        <ele>3.79</ele>
        <time>2020-06-20T11:28:39Z</time>
      </trkpt>
      <trkpt lat="47.12396" lon="-1.5875">
        <ele>3.19</ele>
        <time>2020-06-20T11:28:42Z</time>
      </trkpt>
      <trkpt lat="47.124" lon="-1.58763">
        <ele>4.16</ele>
        <time>2020-06-20T11:28:44Z</time>
      </trkpt>
      <trkpt lat="47.12404" lon="-1.58779">
        <ele>4.86</ele>
        <time>2020-06-20T11:28:46Z</time>
      </trkpt>
      <trkpt lat="47.12406" lon="-1.58796">
        <ele>3.94</ele>
        <time>2020-06-20T11:28:48Z</time>
      </trkpt>
      <trkpt lat="47.12409" lon="-1.58809">
        <ele>2.99</ele>
        <time>2020-06-20T11:28:50Z</time>
      </trkpt>
      <trkpt lat="47.12412" lon="-1.58829">
        <ele>3.25</ele>
        <time>2020-06-20T11:28:53Z</time>
      </trkpt>
      <trkpt lat="47.12414" lon="-1.58844">
        <ele>3.27</ele>
        <time>2020-06-20T11:28:55Z</time>
      </trkpt>
      <trkpt lat="47.12415" lon="-1.58864">
        <ele>3.4</ele>
        <time>2020-06-20T11:28:58Z</time>
      </trkpt>
      <trkpt lat="47.12415" lon="-1.58878">
        <ele>4.06</ele>
        <time>2020-06-20T11:29:00Z</time>
      </trkpt>
      <trkpt lat="47.12415" lon="-1.58894">
        <ele>4.5</ele>
        <time>2020-06-20T11:29:02Z</time>
      </trkpt>
      <trkpt lat="47.12416" lon="-1.5891">
        <ele>3.36</ele>
        <time>2020-06-20T11:29:04Z</time>
      </trkpt>
      <trkpt lat="47.12418" lon="-1.58925">
        <ele>2</ele>
        <time>2020-06-20T11:29:06Z</time>
      </trkpt>
      <trkpt lat="47.12419" lon="-1.5894">
        <ele>1.67</ele>
        <time>2020-06-20T11:29:08Z</time>
      </trkpt>
      <trkpt lat="47.12421" lon="-1.58958">
        <ele>1.99</ele>
        <time>2020-06-20T11:29:10Z</time>
      </trkpt>
      <trkpt lat="47.12422" lon="-1.58978">
        <ele>2.1</ele>
        <time>2020-06-20T11:29:12Z</time>
      </trkpt>
      <trkpt lat="47.12423" lon="-1.58998">
        <ele>2.09</ele>
        <time>2020-06-20T11:29:14Z</time>
      </trkpt>
      <trkpt lat="47.12424" lon="-1.59017">
        <ele>1.57</ele>
        <time>2020-06-20T11:29:16Z</time>
      </trkpt>
      <trkpt lat="47.12425" lon="-1.59036">
        <ele>0.51</ele>
        <time>2020-06-20T11:29:18Z</time>
      </trkpt>
      <trkpt lat="47.12426" lon="-1.59055">
        <ele>-0.72</ele>
        <time>2020-06-20T11:29:20Z</time>
      </trkpt>
      <trkpt lat="47.12427" lon="-1.59071">
        <ele>-2.61</ele>
        <time>2020-06-20T11:29:22Z</time>
      </trkpt>
      <trkpt lat="47.12428" lon="-1.59088">
        <ele>-3.34</ele>
        <time>2020-06-20T11:29:24Z</time>
      </trkpt>
      <trkpt lat="47.12428" lon="-1.5911">
        <ele>-3.94</ele>
        <time>2020-06-20T11:29:26Z</time>
      </trkpt>
      <trkpt lat="47.12428" lon="-1.59124">
        <ele>-2.6</ele>
        <time>2020-06-20T11:29:28Z</time>
      </trkpt>
      <trkpt lat="47.1243" lon="-1.5914">
        <ele>-1.23</ele>
        <time>2020-06-20T11:29:30Z</time>
      </trkpt>
      <trkpt lat="47.1243" lon="-1.59158">
        <ele>0.32</ele>
        <time>2020-06-20T11:29:32Z</time>
      </trkpt>
      <trkpt lat="47.12433" lon="-1.59176">
        <ele>-0.05</ele>
        <time>2020-06-20T11:29:34Z</time>
      </trkpt>
      <trkpt lat="47.12437" lon="-1.59194">
        <ele>-1.35</ele>
        <time>2020-06-20T11:29:36Z</time>
      </trkpt>
      <trkpt lat="47.12438" lon="-1.59209">
        <ele>-2.01</ele>
        <time>2020-06-20T11:29:38Z</time>
      </trkpt>
      <trkpt lat="47.12436" lon="-1.59227">
        <ele>-0.42</ele>
        <time>2020-06-20T11:29:40Z</time>
      </trkpt>
      <trkpt lat="47.12436" lon="-1.5924">
        <ele>-0.01</ele>
        <time>2020-06-20T11:29:42Z</time>
      </trkpt>
      <trkpt lat="47.12436" lon="-1.59259">
        <ele>0.41</ele>
        <time>2020-06-20T11:29:44Z</time>
      </trkpt>
      <trkpt lat="47.12436" lon="-1.59274">
        <ele>0.96</ele>
        <time>2020-06-20T11:29:46Z</time>
      </trkpt>
      <trkpt lat="47.12437" lon="-1.59289">
        <ele>1.02</ele>
        <time>2020-06-20T11:29:48Z</time>
      </trkpt>
      <trkpt lat="47.12438" lon="-1.59305">
        <ele>0.92</ele>
        <time>2020-06-20T11:29:50Z</time>
      </trkpt>
      <trkpt lat="47.12439" lon="-1.59324">
        <ele>1.26</ele>
        <time>2020-06-20T11:29:52Z</time>
      </trkpt>
      <trkpt lat="47.1244" lon="-1.59341">
        <ele>0.69</ele>
        <time>2020-06-20T11:29:54Z</time>
      </trkpt>
      <trkpt lat="47.12441" lon="-1.59359">
        <ele>-0.12</ele>
        <time>2020-06-20T11:29:56Z</time>
      </trkpt>
      <trkpt lat="47.12442" lon="-1.59373">
        <ele>-1.15</ele>
        <time>2020-06-20T11:29:58Z</time>
      </trkpt>
      <trkpt lat="47.12444" lon="-1.5939">
        <ele>-2.1</ele>
        <time>2020-06-20T11:30:00Z</time>
      </trkpt>
      <trkpt lat="47.12445" lon="-1.59403">
        <ele>-2.1</ele>
        <time>2020-06-20T11:30:02Z</time>
      </trkpt>
      <trkpt lat="47.12446" lon="-1.5942">
        <ele>-1.78</ele>
        <time>2020-06-20T11:30:04Z</time>
      </trkpt>
      <trkpt lat="47.12446" lon="-1.59437">
        <ele>-1.41</ele>
        <time>2020-06-20T11:30:06Z</time>
      </trkpt>
      <trkpt lat="47.12448" lon="-1.59454">
        <ele>-0.43</ele>
        <time>2020-06-20T11:30:08Z</time>
      </trkpt>
      <trkpt lat="47.1245" lon="-1.5947">
        <ele>-0.02</ele>
        <time>2020-06-20T11:30:10Z</time>
      </trkpt>
      <trkpt lat="47.12451" lon="-1.59487">
        <ele>0.02</ele>
        <time>2020-06-20T11:30:12Z</time>
      </trkpt>
      <trkpt lat="47.1245" lon="-1.59508">
        <ele>0.43</ele>
        <time>2020-06-20T11:30:15Z</time>
      </trkpt>
      <trkpt lat="47.12451" lon="-1.59523">
        <ele>1.61</ele>
        <time>2020-06-20T11:30:17Z</time>
      </trkpt>
      <trkpt lat="47.12452" lon="-1.59538">
        <ele>1.88</ele>
        <time>2020-06-20T11:30:19Z</time>
      </trkpt>
      <trkpt lat="47.12453" lon="-1.59561">
        <ele>1.27</ele>
        <time>2020-06-20T11:30:22Z</time>
      </trkpt>
      <trkpt lat="47.12453" lon="-1.59578">
        <ele>0.85</ele>
        <time>2020-06-20T11:30:24Z</time>
      </trkpt>
      <trkpt lat="47.12453" lon="-1.59598">
        <ele>1.79</ele>
        <time>2020-06-20T11:30:27Z</time>
      </trkpt>
      <trkpt lat="47.12454" lon="-1.59613">
        <ele>1.88</ele>
        <time>2020-06-20T11:30:29Z</time>
      </trkpt>
      <trkpt lat="47.12455" lon="-1.59629">
        <ele>1.62</ele>
        <time>2020-06-20T11:30:31Z</time>
      </trkpt>
      <trkpt lat="47.12456" lon="-1.59644">
        <ele>2.24</ele>
        <time>2020-06-20T11:30:33Z</time>
      </trkpt>
      <trkpt lat="47.12458" lon="-1.59661">
        <ele>1.03</ele>
        <time>2020-06-20T11:30:35Z</time>
      </trkpt>
      <trkpt lat="47.12459" lon="-1.59675">
        <ele>10.2</ele>
        <time>2020-06-20T11:30:37Z</time>
      </trkpt>
      <trkpt lat="47.1246" lon="-1.59691">
        <ele>-0.7</ele>
        <time>2020-06-20T11:30:39Z</time>
      </trkpt>
      <trkpt lat="47.1246" lon="-1.59704">
        <ele>-0.02</ele>
        <time>2020-06-20T11:30:41Z</time>
      </trkpt>
      <trkpt lat="47.12461" lon="-1.59721">
        <ele>-0.33</ele>
        <time>2020-06-20T11:30:44Z</time>
      </trkpt>
      <trkpt lat="47.12461" lon="-1.5974">
        <ele>0.06</ele>
        <time>2020-06-20T11:30:46Z</time>
      </trkpt>
      <trkpt lat="47.12461" lon="-1.59755">
        <ele>0.74</ele>
        <time>2020-06-20T11:30:48Z</time>
      </trkpt>
      <trkpt lat="47.12461" lon="-1.59769">
        <ele>1.36</ele>
        <time>2020-06-20T11:30:50Z</time>
      </trkpt>
      <trkpt lat="47.12462" lon="-1.59786">
        <ele>1.34</ele>
        <time>2020-06-20T11:30:52Z</time>
      </trkpt>
      <trkpt lat="47.12464" lon="-1.59802">
        <ele>1.18</ele>
        <time>2020-06-20T11:30:54Z</time>
      </trkpt>
      <trkpt lat="47.12465" lon="-1.59817">
        <ele>1.52</ele>
        <time>2020-06-20T11:30:56Z</time>
      </trkpt>
      <trkpt lat="47.12466" lon="-1.59833">
        <ele>1.4</ele>
        <time>2020-06-20T11:30:58Z</time>
      </trkpt>
      <trkpt lat="47.12467" lon="-1.5985">
        <ele>-0.15</ele>
        <time>2020-06-20T11:31:00Z</time>
      </trkpt>
      <trkpt lat="47.12468" lon="-1.59869">
        <ele>-1.25</ele>
        <time>2020-06-20T11:31:02Z</time>
      </trkpt>
      <trkpt lat="47.12468" lon="-1.59882">
        <ele>-2.74</ele>
        <time>2020-06-20T11:31:04Z</time>
      </trkpt>
      <trkpt lat="47.12469" lon="-1.59896">
        <ele>-2.83</ele>
        <time>2020-06-20T11:31:06Z</time>
      </trkpt>
      <trkpt lat="47.1247" lon="-1.5991">
        <ele>-2.56</ele>
        <time>2020-06-20T11:31:08Z</time>
      </trkpt>
      <trkpt lat="47.12472" lon="-1.59927">
        <ele>-1.37</ele>
        <time>2020-06-20T11:31:10Z</time>
      </trkpt>
      <trkpt lat="47.12474" lon="-1.59945">
        <ele>0.78</ele>
        <time>2020-06-20T11:31:12Z</time>
      </trkpt>
      <trkpt lat="47.12475" lon="-1.59962">
        <ele>2.23</ele>
        <time>2020-06-20T11:31:14Z</time>
      </trkpt>
      <trkpt lat="47.12475" lon="-1.59982">
        <ele>1.51</ele>
        <time>2020-06-20T11:31:16Z</time>
      </trkpt>
      <trkpt lat="47.12474" lon="-1.6">
        <ele>0.53</ele>
        <time>2020-06-20T11:31:18Z</time>
      </trkpt>
      <trkpt lat="47.12475" lon="-1.60017">
        <ele>0.02</ele>
        <time>2020-06-20T11:31:20Z</time>
      </trkpt>
      <trkpt lat="47.12476" lon="-1.60033">
        <ele>-0.83</ele>
        <time>2020-06-20T11:31:22Z</time>
      </trkpt>
      <trkpt lat="47.12477" lon="-1.6005">
        <ele>0.67</ele>
        <time>2020-06-20T11:31:24Z</time>
      </trkpt>
      <trkpt lat="47.12478" lon="-1.60067">
        <ele>1.45</ele>
        <time>2020-06-20T11:31:26Z</time>
      </trkpt>
      <trkpt lat="47.12478" lon="-1.60085">
        <ele>2.8</ele>
        <time>2020-06-20T11:31:28Z</time>
      </trkpt>
      <trkpt lat="47.12479" lon="-1.60105">
        <ele>3.43</ele>
        <time>2020-06-20T11:31:30Z</time>
      </trkpt>
      <trkpt lat="47.1248" lon="-1.60124">
        <ele>3.2</ele>
        <time>2020-06-20T11:31:32Z</time>
      </trkpt>
      <trkpt lat="47.12481" lon="-1.60143">
        <ele>2.56</ele>
        <time>2020-06-20T11:31:34Z</time>
      </trkpt>
      <trkpt lat="47.12482" lon="-1.60157">
        <ele>1.53</ele>
        <time>2020-06-20T11:31:36Z</time>
      </trkpt>
      <trkpt lat="47.12483" lon="-1.60175">
        <ele>1.81</ele>
        <time>2020-06-20T11:31:38Z</time>
      </trkpt>
      <trkpt lat="47.12484" lon="-1.60192">
        <ele>2.25</ele>
        <time>2020-06-20T11:31:40Z</time>
      </trkpt>
      <trkpt lat="47.12486" lon="-1.6021">
        <ele>1.77</ele>
        <time>2020-06-20T11:31:42Z</time>
      </trkpt>
      <trkpt lat="47.12489" lon="-1.60228">
        <ele>1.4</ele>
        <time>2020-06-20T11:31:44Z</time>
      </trkpt>
      <trkpt lat="47.12492" lon="-1.60246">
        <ele>1.58</ele>
        <time>2020-06-20T11:31:46Z</time>
      </trkpt>
      <trkpt lat="47.12496" lon="-1.60263">
        <ele>1.93</ele>
        <time>2020-06-20T11:31:48Z</time>
      </trkpt>
      <trkpt lat="47.12499" lon="-1.6028">
        <ele>2.91</ele>
        <time>2020-06-20T11:31:50Z</time>
      </trkpt>
      <trkpt lat="47.12503" lon="-1.60295">
        <ele>3.21</ele>
        <time>2020-06-20T11:31:52Z</time>
      </trkpt>
      <trkpt lat="47.12505" lon="-1.6031">
        <ele>3.1</ele>
        <time>2020-06-20T11:31:54Z</time>
      </trkpt>
      <trkpt lat="47.12508" lon="-1.60328">
        <ele>3</ele>
        <time>2020-06-20T11:31:56Z</time>
      </trkpt>
      <trkpt lat="47.12511" lon="-1.60342">
        <ele>2.02</ele>
        <time>2020-06-20T11:31:58Z</time>
      </trkpt>
      <trkpt lat="47.12513" lon="-1.60357">
        <ele>1.88</ele>
        <time>2020-06-20T11:32:00Z</time>
      </trkpt>
      <trkpt lat="47.12517" lon="-1.60372">
        <ele>1.62</ele>
        <time>2020-06-20T11:32:02Z</time>
      </trkpt>
      <trkpt lat="47.12521" lon="-1.60385">
        <ele>1.56</ele>
        <time>2020-06-20T11:32:04Z</time>
      </trkpt>
      <trkpt lat="47.12524" lon="-1.60398">
        <ele>1.44</ele>
        <time>2020-06-20T11:32:06Z</time>
      </trkpt>
      <trkpt lat="47.12527" lon="-1.60413">
        <ele>2.56</ele>
        <time>2020-06-20T11:32:08Z</time>
      </trkpt>
      <trkpt lat="47.12529" lon="-1.60427">
        <ele>3.47</ele>
        <time>2020-06-20T11:32:10Z</time>
      </trkpt>
      <trkpt lat="47.12533" lon="-1.60448">
        <ele>3.85</ele>
        <time>2020-06-20T11:32:13Z</time>
      </trkpt>
      <trkpt lat="47.12536" lon="-1.60462">
        <ele>4.14</ele>
        <time>2020-06-20T11:32:15Z</time>
      </trkpt>
      <trkpt lat="47.12539" lon="-1.60478">
        <ele>4.65</ele>
        <time>2020-06-20T11:32:17Z</time>
      </trkpt>
      <trkpt lat="47.12541" lon="-1.60492">
        <ele>5.04</ele>
        <time>2020-06-20T11:32:19Z</time>
      </trkpt>
      <trkpt lat="47.12542" lon="-1.60506">
        <ele>5.21</ele>
        <time>2020-06-20T11:32:21Z</time>
      </trkpt>
      <trkpt lat="47.12544" lon="-1.60521">
        <ele>5.59</ele>
        <time>2020-06-20T11:32:23Z</time>
      </trkpt>
      <trkpt lat="47.12545" lon="-1.60537">
        <ele>6.09</ele>
        <time>2020-06-20T11:32:25Z</time>
      </trkpt>
      <trkpt lat="47.12545" lon="-1.60551">
        <ele>5.79</ele>
        <time>2020-06-20T11:32:27Z</time>
      </trkpt>
      <trkpt lat="47.12544" lon="-1.60564">
        <ele>6.54</ele>
        <time>2020-06-20T11:32:29Z</time>
      </trkpt>
      <trkpt lat="47.12544" lon="-1.60578">
        <ele>6.06</ele>
        <time>2020-06-20T11:32:31Z</time>
      </trkpt>
      <trkpt lat="47.12544" lon="-1.60594">
        <ele>5.85</ele>
        <time>2020-06-20T11:32:33Z</time>
      </trkpt>
      <trkpt lat="47.12543" lon="-1.60609">
        <ele>6.05</ele>
        <time>2020-06-20T11:32:35Z</time>
      </trkpt>
      <trkpt lat="47.12543" lon="-1.60624">
        <ele>5.48</ele>
        <time>2020-06-20T11:32:37Z</time>
      </trkpt>
      <trkpt lat="47.12544" lon="-1.6064">
        <ele>4.52</ele>
        <time>2020-06-20T11:32:39Z</time>
      </trkpt>
      <trkpt lat="47.12545" lon="-1.60654">
        <ele>4.02</ele>
        <time>2020-06-20T11:32:41Z</time>
      </trkpt>
      <trkpt lat="47.12545" lon="-1.60675">
        <ele>3.64</ele>
        <time>2020-06-20T11:32:44Z</time>
      </trkpt>
      <trkpt lat="47.12545" lon="-1.60689">
        <ele>4.32</ele>
        <time>2020-06-20T11:32:46Z</time>
      </trkpt>
      <trkpt lat="47.12546" lon="-1.60704">
        <ele>5.83</ele>
        <time>2020-06-20T11:32:48Z</time>
      </trkpt>
      <trkpt lat="47.12547" lon="-1.6072">
        <ele>4.91</ele>
        <time>2020-06-20T11:32:50Z</time>
      </trkpt>
      <trkpt lat="47.12548" lon="-1.60736">
        <ele>3.03</ele>
        <time>2020-06-20T11:32:52Z</time>
      </trkpt>
      <trkpt lat="47.12547" lon="-1.60751">
        <ele>1.27</ele>
        <time>2020-06-20T11:32:54Z</time>
      </trkpt>
      <trkpt lat="47.12546" lon="-1.60766">
        <ele>2.01</ele>
        <time>2020-06-20T11:32:56Z</time>
      </trkpt>
      <trkpt lat="47.12545" lon="-1.60779">
        <ele>2.46</ele>
        <time>2020-06-20T11:32:58Z</time>
      </trkpt>
      <trkpt lat="47.12543" lon="-1.60798">
        <ele>4.19</ele>
        <time>2020-06-20T11:33:01Z</time>
      </trkpt>
      <trkpt lat="47.12541" lon="-1.60814">
        <ele>4.12</ele>
        <time>2020-06-20T11:33:03Z</time>
      </trkpt>
      <trkpt lat="47.1254" lon="-1.60828">
        <ele>3.49</ele>
        <time>2020-06-20T11:33:05Z</time>
      </trkpt>
      <trkpt lat="47.12542" lon="-1.60849">
        <ele>3.5</ele>
        <time>2020-06-20T11:33:08Z</time>
      </trkpt>
      <trkpt lat="47.12554" lon="-1.60845">
        <ele>4.2</ele>
        <time>2020-06-20T11:33:11Z</time>
      </trkpt>
      <trkpt lat="47.12564" lon="-1.60841">
        <ele>4.87</ele>
        <time>2020-06-20T11:33:13Z</time>
      </trkpt>
      <trkpt lat="47.12574" lon="-1.60837">
        <ele>4.21</ele>
        <time>2020-06-20T11:33:15Z</time>
      </trkpt>
      <trkpt lat="47.12586" lon="-1.60833">
        <ele>4.51</ele>
        <time>2020-06-20T11:33:17Z</time>
      </trkpt>
      <trkpt lat="47.126" lon="-1.60827">
        <ele>4.68</ele>
        <time>2020-06-20T11:33:20Z</time>
      </trkpt>
      <trkpt lat="47.12613" lon="-1.60821">
        <ele>7.89</ele>
        <time>2020-06-20T11:33:23Z</time>
      </trkpt>
      <trkpt lat="47.12624" lon="-1.60818">
        <ele>8.31</ele>
        <time>2020-06-20T11:33:25Z</time>
      </trkpt>
      <trkpt lat="47.12634" lon="-1.60815">
        <ele>8.43</ele>
        <time>2020-06-20T11:33:27Z</time>
      </trkpt>
      <trkpt lat="47.12645" lon="-1.60811">
        <ele>8.68</ele>
        <time>2020-06-20T11:33:29Z</time>
      </trkpt>
      <trkpt lat="47.12654" lon="-1.60808">
        <ele>7.9</ele>
        <time>2020-06-20T11:33:31Z</time>
      </trkpt>
      <trkpt lat="47.12665" lon="-1.60805">
        <ele>7.07</ele>
        <time>2020-06-20T11:33:33Z</time>
      </trkpt>
      <trkpt lat="47.12676" lon="-1.608">
        <ele>6.85</ele>
        <time>2020-06-20T11:33:35Z</time>
      </trkpt>
      <trkpt lat="47.12686" lon="-1.60798">
        <ele>5.75</ele>
        <time>2020-06-20T11:33:37Z</time>
      </trkpt>
      <trkpt lat="47.12697" lon="-1.60794">
        <ele>6.34</ele>
        <time>2020-06-20T11:33:39Z</time>
      </trkpt>
      <trkpt lat="47.12706" lon="-1.60791">
        <ele>7.62</ele>
        <time>2020-06-20T11:33:42Z</time>
      </trkpt>
      <trkpt lat="47.12719" lon="-1.60785">
        <ele>9.17</ele>
        <time>2020-06-20T11:33:45Z</time>
      </trkpt>
      <trkpt lat="47.1273" lon="-1.60783">
        <ele>8.92</ele>
        <time>2020-06-20T11:33:49Z</time>
      </trkpt>
      <trkpt lat="47.12724" lon="-1.60795">
        <ele>7.17</ele>
        <time>2020-06-20T11:35:23Z</time>
      </trkpt>
      <trkpt lat="47.12722" lon="-1.60812">
        <ele>7.38</ele>
        <time>2020-06-20T11:35:26Z</time>
      </trkpt>
      <trkpt lat="47.12718" lon="-1.60826">
        <ele>8.01</ele>
        <time>2020-06-20T11:35:28Z</time>
      </trkpt>
      <trkpt lat="47.12713" lon="-1.60842">
        <ele>7.08</ele>
        <time>2020-06-20T11:35:30Z</time>
      </trkpt>
      <trkpt lat="47.12708" lon="-1.60856">
        <ele>4.56</ele>
        <time>2020-06-20T11:35:32Z</time>
      </trkpt>
      <trkpt lat="47.12704" lon="-1.60869">
        <ele>3.4</ele>
        <time>2020-06-20T11:35:34Z</time>
      </trkpt>
      <trkpt lat="47.127" lon="-1.60885">
        <ele>2.85</ele>
        <time>2020-06-20T11:35:36Z</time>
      </trkpt>
      <trkpt lat="47.12696" lon="-1.60902">
        <ele>2.98</ele>
        <time>2020-06-20T11:35:38Z</time>
      </trkpt>
      <trkpt lat="47.12694" lon="-1.60916">
        <ele>3.77</ele>
        <time>2020-06-20T11:35:40Z</time>
      </trkpt>
      <trkpt lat="47.12693" lon="-1.60934">
        <ele>5.2</ele>
        <time>2020-06-20T11:35:42Z</time>
      </trkpt>
      <trkpt lat="47.12692" lon="-1.6095">
        <ele>7.7</ele>
        <time>2020-06-20T11:35:44Z</time>
      </trkpt>
      <trkpt lat="47.12691" lon="-1.60964">
        <ele>10.52</ele>
        <time>2020-06-20T11:35:46Z</time>
      </trkpt>
      <trkpt lat="47.1269" lon="-1.60981">
        <ele>11.25</ele>
        <time>2020-06-20T11:35:48Z</time>
      </trkpt>
      <trkpt lat="47.12689" lon="-1.60998">
        <ele>10.85</ele>
        <time>2020-06-20T11:35:50Z</time>
      </trkpt>
      <trkpt lat="47.12689" lon="-1.61013">
        <ele>10.5</ele>
        <time>2020-06-20T11:35:52Z</time>
      </trkpt>
      <trkpt lat="47.12689" lon="-1.6103">
        <ele>11.04</ele>
        <time>2020-06-20T11:35:54Z</time>
      </trkpt>
      <trkpt lat="47.12688" lon="-1.61048">
        <ele>10.9</ele>
        <time>2020-06-20T11:35:56Z</time>
      </trkpt>
      <trkpt lat="47.12687" lon="-1.61065">
        <ele>10.5</ele>
        <time>2020-06-20T11:35:58Z</time>
      </trkpt>
      <trkpt lat="47.12687" lon="-1.61082">
        <ele>10.53</ele>
        <time>2020-06-20T11:36:00Z</time>
      </trkpt>
      <trkpt lat="47.12686" lon="-1.61102">
        <ele>8.66</ele>
        <time>2020-06-20T11:36:02Z</time>
      </trkpt>
      <trkpt lat="47.12685" lon="-1.61115">
        <ele>8.75</ele>
        <time>2020-06-20T11:36:04Z</time>
      </trkpt>
      <trkpt lat="47.12683" lon="-1.6113">
        <ele>7.68</ele>
        <time>2020-06-20T11:36:06Z</time>
      </trkpt>
      <trkpt lat="47.12681" lon="-1.61146">
        <ele>7.61</ele>
        <time>2020-06-20T11:36:08Z</time>
      </trkpt>
      <trkpt lat="47.1268" lon="-1.6116">
        <ele>8.19</ele>
        <time>2020-06-20T11:36:10Z</time>
      </trkpt>
      <trkpt lat="47.12677" lon="-1.61177">
        <ele>7.21</ele>
        <time>2020-06-20T11:36:12Z</time>
      </trkpt>
      <trkpt lat="47.12674" lon="-1.61196">
        <ele>5.42</ele>
        <time>2020-06-20T11:36:14Z</time>
      </trkpt>
      <trkpt lat="47.12672" lon="-1.6121">
        <ele>4.27</ele>
        <time>2020-06-20T11:36:16Z</time>
      </trkpt>
      <trkpt lat="47.12669" lon="-1.61228">
        <ele>4.17</ele>
        <time>2020-06-20T11:36:18Z</time>
      </trkpt>
      <trkpt lat="47.12668" lon="-1.61247">
        <ele>3.83</ele>
        <time>2020-06-20T11:36:21Z</time>
      </trkpt>
      <trkpt lat="47.1267" lon="-1.61264">
        <ele>5.27</ele>
        <time>2020-06-20T11:36:23Z</time>
      </trkpt>
      <trkpt lat="47.12676" lon="-1.61284">
        <ele>9.44</ele>
        <time>2020-06-20T11:36:26Z</time>
      </trkpt>
      <trkpt lat="47.12682" lon="-1.613">
        <ele>11.38</ele>
        <time>2020-06-20T11:36:28Z</time>
      </trkpt>
      <trkpt lat="47.12686" lon="-1.61316">
        <ele>11.79</ele>
        <time>2020-06-20T11:36:30Z</time>
      </trkpt>
      <trkpt lat="47.1269" lon="-1.61331">
        <ele>12.13</ele>
        <time>2020-06-20T11:36:32Z</time>
      </trkpt>
      <trkpt lat="47.12695" lon="-1.61344">
        <ele>12.43</ele>
        <time>2020-06-20T11:36:34Z</time>
      </trkpt>
      <trkpt lat="47.12702" lon="-1.61357">
        <ele>12.77</ele>
        <time>2020-06-20T11:36:36Z</time>
      </trkpt>
      <trkpt lat="47.12708" lon="-1.61373">
        <ele>12.24</ele>
        <time>2020-06-20T11:36:38Z</time>
      </trkpt>
      <trkpt lat="47.12713" lon="-1.61386">
        <ele>12.36</ele>
        <time>2020-06-20T11:36:40Z</time>
      </trkpt>
      <trkpt lat="47.12719" lon="-1.61401">
        <ele>11.78</ele>
        <time>2020-06-20T11:36:42Z</time>
      </trkpt>
      <trkpt lat="47.12728" lon="-1.61416">
        <ele>11.19</ele>
        <time>2020-06-20T11:36:44Z</time>
      </trkpt>
      <trkpt lat="47.12732" lon="-1.61429">
        <ele>10.76</ele>
        <time>2020-06-20T11:36:46Z</time>
      </trkpt>
      <trkpt lat="47.12738" lon="-1.61444">
        <ele>10.46</ele>
        <time>2020-06-20T11:36:48Z</time>
      </trkpt>
      <trkpt lat="47.12744" lon="-1.61458">
        <ele>9.56</ele>
        <time>2020-06-20T11:36:50Z</time>
      </trkpt>
      <trkpt lat="47.1275" lon="-1.61471">
        <ele>10.07</ele>
        <time>2020-06-20T11:36:52Z</time>
      </trkpt>
      <trkpt lat="47.12756" lon="-1.61484">
        <ele>9.3</ele>
        <time>2020-06-20T11:36:54Z</time>
      </trkpt>
      <trkpt lat="47.12763" lon="-1.61501">
        <ele>8.99</ele>
        <time>2020-06-20T11:36:56Z</time>
      </trkpt>
      <trkpt lat="47.12768" lon="-1.61515">
        <ele>9.85</ele>
        <time>2020-06-20T11:36:58Z</time>
      </trkpt>
      <trkpt lat="47.12774" lon="-1.61533">
        <ele>9.76</ele>
        <time>2020-06-20T11:37:00Z</time>
      </trkpt>
      <trkpt lat="47.1278" lon="-1.61546">
        <ele>9.38</ele>
        <time>2020-06-20T11:37:02Z</time>
      </trkpt>
      <trkpt lat="47.12785" lon="-1.61561">
        <ele>9.88</ele>
        <time>2020-06-20T11:37:04Z</time>
      </trkpt>
      <trkpt lat="47.12789" lon="-1.61574">
        <ele>11.62</ele>
        <time>2020-06-20T11:37:06Z</time>
      </trkpt>
      <trkpt lat="47.12795" lon="-1.6159">
        <ele>11.49</ele>
        <time>2020-06-20T11:37:08Z</time>
      </trkpt>
      <trkpt lat="47.12801" lon="-1.61605">
        <ele>9.68</ele>
        <time>2020-06-20T11:37:10Z</time>
      </trkpt>
      <trkpt lat="47.12806" lon="-1.61618">
        <ele>9.28</ele>
        <time>2020-06-20T11:37:12Z</time>
      </trkpt>
      <trkpt lat="47.12812" lon="-1.61634">
        <ele>9.9</ele>
        <time>2020-06-20T11:37:15Z</time>
      </trkpt>
      <trkpt lat="47.12817" lon="-1.61646">
        <ele>10.24</ele>
        <time>2020-06-20T11:37:17Z</time>
      </trkpt>
      <trkpt lat="47.12821" lon="-1.6166">
        <ele>8.99</ele>
        <time>2020-06-20T11:37:22Z</time>
      </trkpt>
      <trkpt lat="47.12827" lon="-1.61676">
        <ele>7.69</ele>
        <time>2020-06-20T11:37:24Z</time>
      </trkpt>
      <trkpt lat="47.12833" lon="-1.61689">
        <ele>6.32</ele>
        <time>2020-06-20T11:37:26Z</time>
      </trkpt>
      <trkpt lat="47.12839" lon="-1.61704">
        <ele>5.51</ele>
        <time>2020-06-20T11:37:28Z</time>
      </trkpt>
      <trkpt lat="47.12846" lon="-1.61719">
        <ele>5.63</ele>
        <time>2020-06-20T11:37:30Z</time>
      </trkpt>
      <trkpt lat="47.12853" lon="-1.61734">
        <ele>5.91</ele>
        <time>2020-06-20T11:37:32Z</time>
      </trkpt>
      <trkpt lat="47.1286" lon="-1.61748">
        <ele>5.53</ele>
        <time>2020-06-20T11:37:34Z</time>
      </trkpt>
      <trkpt lat="47.12868" lon="-1.61765">
        <ele>5.04</ele>
        <time>2020-06-20T11:37:36Z</time>
      </trkpt>
      <trkpt lat="47.12874" lon="-1.6178">
        <ele>4.27</ele>
        <time>2020-06-20T11:37:38Z</time>
      </trkpt>
      <trkpt lat="47.12881" lon="-1.61795">
        <ele>4.38</ele>
        <time>2020-06-20T11:37:40Z</time>
      </trkpt>
      <trkpt lat="47.12887" lon="-1.61811">
        <ele>4.06</ele>
        <time>2020-06-20T11:37:42Z</time>
      </trkpt>
      <trkpt lat="47.12894" lon="-1.61828">
        <ele>2.4</ele>
        <time>2020-06-20T11:37:44Z</time>
      </trkpt>
      <trkpt lat="47.129" lon="-1.61845">
        <ele>2.67</ele>
        <time>2020-06-20T11:37:46Z</time>
      </trkpt>
      <trkpt lat="47.12905" lon="-1.61861">
        <ele>1.67</ele>
        <time>2020-06-20T11:37:48Z</time>
      </trkpt>
      <trkpt lat="47.12907" lon="-1.61879">
        <ele>1.2</ele>
        <time>2020-06-20T11:37:50Z</time>
      </trkpt>
      <trkpt lat="47.12911" lon="-1.61899">
        <ele>1.79</ele>
        <time>2020-06-20T11:37:52Z</time>
      </trkpt>
      <trkpt lat="47.12914" lon="-1.61917">
        <ele>2.64</ele>
        <time>2020-06-20T11:37:54Z</time>
      </trkpt>
      <trkpt lat="47.12917" lon="-1.61935">
        <ele>2.48</ele>
        <time>2020-06-20T11:37:56Z</time>
      </trkpt>
      <trkpt lat="47.1292" lon="-1.61952">
        <ele>2.31</ele>
        <time>2020-06-20T11:37:58Z</time>
      </trkpt>
      <trkpt lat="47.12922" lon="-1.61968">
        <ele>1.33</ele>
        <time>2020-06-20T11:38:00Z</time>
      </trkpt>
      <trkpt lat="47.12926" lon="-1.61984">
        <ele>1.5</ele>
        <time>2020-06-20T11:38:02Z</time>
      </trkpt>
      <trkpt lat="47.12931" lon="-1.62001">
        <ele>3.05</ele>
        <time>2020-06-20T11:38:04Z</time>
      </trkpt>
      <trkpt lat="47.12937" lon="-1.62016">
        <ele>5.73</ele>
        <time>2020-06-20T11:38:06Z</time>
      </trkpt>
      <trkpt lat="47.1294" lon="-1.62032">
        <ele>8.49</ele>
        <time>2020-06-20T11:38:08Z</time>
      </trkpt>
      <trkpt lat="47.12945" lon="-1.62045">
        <ele>9.2</ele>
        <time>2020-06-20T11:38:10Z</time>
      </trkpt>
      <trkpt lat="47.12953" lon="-1.62062">
        <ele>9.48</ele>
        <time>2020-06-20T11:38:12Z</time>
      </trkpt>
      <trkpt lat="47.12959" lon="-1.62077">
        <ele>9.22</ele>
        <time>2020-06-20T11:38:14Z</time>
      </trkpt>
      <trkpt lat="47.12965" lon="-1.6209">
        <ele>8.87</ele>
        <time>2020-06-20T11:38:16Z</time>
      </trkpt>
      <trkpt lat="47.12972" lon="-1.62105">
        <ele>8.83</ele>
        <time>2020-06-20T11:38:18Z</time>
      </trkpt>
      <trkpt lat="47.12979" lon="-1.62121">
        <ele>8.83</ele>
        <time>2020-06-20T11:38:21Z</time>
      </trkpt>
      <trkpt lat="47.12985" lon="-1.62133">
        <ele>8.74</ele>
        <time>2020-06-20T11:38:23Z</time>
      </trkpt>
      <trkpt lat="47.12995" lon="-1.62148">
        <ele>8.03</ele>
        <time>2020-06-20T11:38:25Z</time>
      </trkpt>
      <trkpt lat="47.13005" lon="-1.62163">
        <ele>7.95</ele>
        <time>2020-06-20T11:38:27Z</time>
      </trkpt>
      <trkpt lat="47.13012" lon="-1.62173">
        <ele>7.28</ele>
        <time>2020-06-20T11:38:29Z</time>
      </trkpt>
      <trkpt lat="47.13019" lon="-1.62186">
        <ele>6.9</ele>
        <time>2020-06-20T11:38:31Z</time>
      </trkpt>
      <trkpt lat="47.13026" lon="-1.62198">
        <ele>6.06</ele>
        <time>2020-06-20T11:38:33Z</time>
      </trkpt>
      <trkpt lat="47.13034" lon="-1.62211">
        <ele>6.43</ele>
        <time>2020-06-20T11:38:35Z</time>
      </trkpt>
      <trkpt lat="47.1304" lon="-1.62221">
        <ele>7.74</ele>
        <time>2020-06-20T11:38:37Z</time>
      </trkpt>
      <trkpt lat="47.13046" lon="-1.62231">
        <ele>9.34</ele>
        <time>2020-06-20T11:38:39Z</time>
      </trkpt>
      <trkpt lat="47.13054" lon="-1.62243">
        <ele>9.89</ele>
        <time>2020-06-20T11:38:41Z</time>
      </trkpt>
      <trkpt lat="47.13063" lon="-1.62257">
        <ele>8.74</ele>
        <time>2020-06-20T11:38:43Z</time>
      </trkpt>
      <trkpt lat="47.13071" lon="-1.6227">
        <ele>7.28</ele>
        <time>2020-06-20T11:38:45Z</time>
      </trkpt>
      <trkpt lat="47.13079" lon="-1.62281">
        <ele>7.47</ele>
        <time>2020-06-20T11:38:48Z</time>
      </trkpt>
      <trkpt lat="47.13088" lon="-1.62294">
        <ele>7.26</ele>
        <time>2020-06-20T11:38:50Z</time>
      </trkpt>
      <trkpt lat="47.13094" lon="-1.62305">
        <ele>6.27</ele>
        <time>2020-06-20T11:38:52Z</time>
      </trkpt>
      <trkpt lat="47.13105" lon="-1.62312">
        <ele>4.05</ele>
        <time>2020-06-20T11:38:54Z</time>
      </trkpt>
      <trkpt lat="47.13114" lon="-1.62297">
        <ele>3.61</ele>
        <time>2020-06-20T11:38:57Z</time>
      </trkpt>
      <trkpt lat="47.1312" lon="-1.62282">
        <ele>3.92</ele>
        <time>2020-06-20T11:38:59Z</time>
      </trkpt>
      <trkpt lat="47.13126" lon="-1.62268">
        <ele>4.1</ele>
        <time>2020-06-20T11:39:01Z</time>
      </trkpt>
      <trkpt lat="47.13131" lon="-1.62255">
        <ele>6.04</ele>
        <time>2020-06-20T11:39:03Z</time>
      </trkpt>
      <trkpt lat="47.13137" lon="-1.62242">
        <ele>7.23</ele>
        <time>2020-06-20T11:39:05Z</time>
      </trkpt>
      <trkpt lat="47.13144" lon="-1.62226">
        <ele>7.4</ele>
        <time>2020-06-20T11:39:07Z</time>
      </trkpt>
      <trkpt lat="47.1315" lon="-1.62214">
        <ele>7.95</ele>
        <time>2020-06-20T11:39:09Z</time>
      </trkpt>
      <trkpt lat="47.13158" lon="-1.62199">
        <ele>8.01</ele>
        <time>2020-06-20T11:39:11Z</time>
      </trkpt>
      <trkpt lat="47.13164" lon="-1.62187">
        <ele>9.28</ele>
        <time>2020-06-20T11:39:13Z</time>
      </trkpt>
      <trkpt lat="47.1317" lon="-1.62176">
        <ele>8.78</ele>
        <time>2020-06-20T11:39:15Z</time>
      </trkpt>
      <trkpt lat="47.13177" lon="-1.62161">
        <ele>9.22</ele>
        <time>2020-06-20T11:39:17Z</time>
      </trkpt>
      <trkpt lat="47.13183" lon="-1.62149">
        <ele>9.6</ele>
        <time>2020-06-20T11:39:19Z</time>
      </trkpt>
      <trkpt lat="47.13191" lon="-1.62136">
        <ele>10.36</ele>
        <time>2020-06-20T11:39:21Z</time>
      </trkpt>
      <trkpt lat="47.13198" lon="-1.62124">
        <ele>10.76</ele>
        <time>2020-06-20T11:39:23Z</time>
      </trkpt>
      <trkpt lat="47.13205" lon="-1.62111">
        <ele>11.67</ele>
        <time>2020-06-20T11:39:25Z</time>
      </trkpt>
      <trkpt lat="47.13214" lon="-1.62095">
        <ele>10.72</ele>
        <time>2020-06-20T11:39:28Z</time>
      </trkpt>
      <trkpt lat="47.13223" lon="-1.6208">
        <ele>10.02</ele>
        <time>2020-06-20T11:39:30Z</time>
      </trkpt>
      <trkpt lat="47.13231" lon="-1.62068">
        <ele>10.33</ele>
        <time>2020-06-20T11:39:32Z</time>
      </trkpt>
      <trkpt lat="47.13239" lon="-1.62056">
        <ele>11.73</ele>
        <time>2020-06-20T11:39:34Z</time>
      </trkpt>
      <trkpt lat="47.13247" lon="-1.62045">
        <ele>12.41</ele>
        <time>2020-06-20T11:39:36Z</time>
      </trkpt>
      <trkpt lat="47.13258" lon="-1.62031">
        <ele>13.03</ele>
        <time>2020-06-20T11:39:39Z</time>
      </trkpt>
      <trkpt lat="47.13267" lon="-1.62019">
        <ele>11.94</ele>
        <time>2020-06-20T11:39:41Z</time>
      </trkpt>
      <trkpt lat="47.13278" lon="-1.62009">
        <ele>13.18</ele>
        <time>2020-06-20T11:39:43Z</time>
      </trkpt>
      <trkpt lat="47.13289" lon="-1.62001">
        <ele>13</ele>
        <time>2020-06-20T11:39:45Z</time>
      </trkpt>
      <trkpt lat="47.13299" lon="-1.61993">
        <ele>12.9</ele>
        <time>2020-06-20T11:39:47Z</time>
      </trkpt>
      <trkpt lat="47.13308" lon="-1.61985">
        <ele>13.23</ele>
        <time>2020-06-20T11:39:49Z</time>
      </trkpt>
      <trkpt lat="47.13318" lon="-1.61977">
        <ele>13.69</ele>
        <time>2020-06-20T11:39:51Z</time>
      </trkpt>
      <trkpt lat="47.13329" lon="-1.6197">
        <ele>15.04</ele>
        <time>2020-06-20T11:39:53Z</time>
      </trkpt>
      <trkpt lat="47.13338" lon="-1.61964">
        <ele>16.81</ele>
        <time>2020-06-20T11:39:55Z</time>
      </trkpt>
      <trkpt lat="47.1335" lon="-1.61954">
        <ele>17.51</ele>
        <time>2020-06-20T11:39:57Z</time>
      </trkpt>
      <trkpt lat="47.13358" lon="-1.61947">
        <ele>15.58</ele>
        <time>2020-06-20T11:39:59Z</time>
      </trkpt>
      <trkpt lat="47.13367" lon="-1.61941">
        <ele>14.24</ele>
        <time>2020-06-20T11:40:01Z</time>
      </trkpt>
      <trkpt lat="47.13378" lon="-1.61933">
        <ele>13.8</ele>
        <time>2020-06-20T11:40:03Z</time>
      </trkpt>
      <trkpt lat="47.13387" lon="-1.61926">
        <ele>12.71</ele>
        <time>2020-06-20T11:40:05Z</time>
      </trkpt>
      <trkpt lat="47.13396" lon="-1.61918">
        <ele>13.16</ele>
        <time>2020-06-20T11:40:07Z</time>
      </trkpt>
      <trkpt lat="47.13407" lon="-1.6191">
        <ele>12.59</ele>
        <time>2020-06-20T11:40:09Z</time>
      </trkpt>
      <trkpt lat="47.13418" lon="-1.61902">
        <ele>11.22</ele>
        <time>2020-06-20T11:40:11Z</time>
      </trkpt>
      <trkpt lat="47.13429" lon="-1.61894">
        <ele>11.29</ele>
        <time>2020-06-20T11:40:13Z</time>
      </trkpt>
      <trkpt lat="47.13441" lon="-1.61883">
        <ele>10.56</ele>
        <time>2020-06-20T11:40:15Z</time>
      </trkpt>
      <trkpt lat="47.13453" lon="-1.61875">
        <ele>10.15</ele>
        <time>2020-06-20T11:40:18Z</time>
      </trkpt>
      <trkpt lat="47.13463" lon="-1.61868">
        <ele>9.88</ele>
        <time>2020-06-20T11:40:20Z</time>
      </trkpt>
      <trkpt lat="47.13473" lon="-1.61861">
        <ele>9.92</ele>
        <time>2020-06-20T11:40:22Z</time>
      </trkpt>
      <trkpt lat="47.13486" lon="-1.61852">
        <ele>8.79</ele>
        <time>2020-06-20T11:40:24Z</time>
      </trkpt>
      <trkpt lat="47.13496" lon="-1.61846">
        <ele>8.02</ele>
        <time>2020-06-20T11:40:26Z</time>
      </trkpt>
      <trkpt lat="47.1351" lon="-1.61839">
        <ele>7.11</ele>
        <time>2020-06-20T11:40:28Z</time>
      </trkpt>
      <trkpt lat="47.1352" lon="-1.61835">
        <ele>7.16</ele>
        <time>2020-06-20T11:40:30Z</time>
      </trkpt>
      <trkpt lat="47.13531" lon="-1.61829">
        <ele>6.84</ele>
        <time>2020-06-20T11:40:32Z</time>
      </trkpt>
      <trkpt lat="47.13541" lon="-1.61826">
        <ele>6.22</ele>
        <time>2020-06-20T11:40:34Z</time>
      </trkpt>
      <trkpt lat="47.13551" lon="-1.61822">
        <ele>7.32</ele>
        <time>2020-06-20T11:40:36Z</time>
      </trkpt>
      <trkpt lat="47.13562" lon="-1.61815">
        <ele>5.93</ele>
        <time>2020-06-20T11:40:39Z</time>
      </trkpt>
      <trkpt lat="47.13574" lon="-1.6181">
        <ele>6.62</ele>
        <time>2020-06-20T11:40:41Z</time>
      </trkpt>
      <trkpt lat="47.13588" lon="-1.61808">
        <ele>6.83</ele>
        <time>2020-06-20T11:40:43Z</time>
      </trkpt>
      <trkpt lat="47.13599" lon="-1.61802">
        <ele>7.05</ele>
        <time>2020-06-20T11:40:45Z</time>
      </trkpt>
      <trkpt lat="47.13611" lon="-1.61797">
        <ele>7.21</ele>
        <time>2020-06-20T11:40:47Z</time>
      </trkpt>
      <trkpt lat="47.13623" lon="-1.61791">
        <ele>7.53</ele>
        <time>2020-06-20T11:40:49Z</time>
      </trkpt>
      <trkpt lat="47.13633" lon="-1.61787">
        <ele>9.27</ele>
        <time>2020-06-20T11:40:51Z</time>
      </trkpt>
      <trkpt lat="47.13644" lon="-1.61783">
        <ele>9.2</ele>
        <time>2020-06-20T11:40:53Z</time>
      </trkpt>
      <trkpt lat="47.13656" lon="-1.61776">
        <ele>8.65</ele>
        <time>2020-06-20T11:40:55Z</time>
      </trkpt>
      <trkpt lat="47.13669" lon="-1.6177">
        <ele>8.9</ele>
        <time>2020-06-20T11:40:57Z</time>
      </trkpt>
      <trkpt lat="47.1368" lon="-1.61764">
        <ele>10.33</ele>
        <time>2020-06-20T11:40:59Z</time>
      </trkpt>
      <trkpt lat="47.1369" lon="-1.61758">
        <ele>11.71</ele>
        <time>2020-06-20T11:41:01Z</time>
      </trkpt>
      <trkpt lat="47.13701" lon="-1.6175">
        <ele>12.99</ele>
        <time>2020-06-20T11:41:03Z</time>
      </trkpt>
      <trkpt lat="47.13709" lon="-1.61742">
        <ele>13.94</ele>
        <time>2020-06-20T11:41:05Z</time>
      </trkpt>
      <trkpt lat="47.13719" lon="-1.61734">
        <ele>13.82</ele>
        <time>2020-06-20T11:41:07Z</time>
      </trkpt>
      <trkpt lat="47.13728" lon="-1.61728">
        <ele>13.42</ele>
        <time>2020-06-20T11:41:09Z</time>
      </trkpt>
      <trkpt lat="47.13736" lon="-1.61721">
        <ele>13.85</ele>
        <time>2020-06-20T11:41:11Z</time>
      </trkpt>
      <trkpt lat="47.13741" lon="-1.61737">
        <ele>12.56</ele>
        <time>2020-06-20T11:41:14Z</time>
      </trkpt>
      <trkpt lat="47.1374" lon="-1.61751">
        <ele>12.15</ele>
        <time>2020-06-20T11:41:16Z</time>
      </trkpt>
      <trkpt lat="47.13737" lon="-1.61768">
        <ele>12.64</ele>
        <time>2020-06-20T11:41:18Z</time>
      </trkpt>
      <trkpt lat="47.13733" lon="-1.61784">
        <ele>12.51</ele>
        <time>2020-06-20T11:41:20Z</time>
      </trkpt>
      <trkpt lat="47.13731" lon="-1.618">
        <ele>13.02</ele>
        <time>2020-06-20T11:41:22Z</time>
      </trkpt>
      <trkpt lat="47.13728" lon="-1.61819">
        <ele>12.41</ele>
        <time>2020-06-20T11:41:24Z</time>
      </trkpt>
      <trkpt lat="47.13726" lon="-1.61835">
        <ele>12.78</ele>
        <time>2020-06-20T11:41:26Z</time>
      </trkpt>
      <trkpt lat="47.13724" lon="-1.61852">
        <ele>14.56</ele>
        <time>2020-06-20T11:41:28Z</time>
      </trkpt>
      <trkpt lat="47.13724" lon="-1.61868">
        <ele>14.22</ele>
        <time>2020-06-20T11:41:30Z</time>
      </trkpt>
      <trkpt lat="47.13723" lon="-1.61886">
        <ele>14.48</ele>
        <time>2020-06-20T11:41:32Z</time>
      </trkpt>
      <trkpt lat="47.13722" lon="-1.61899">
        <ele>13.19</ele>
        <time>2020-06-20T11:41:34Z</time>
      </trkpt>
      <trkpt lat="47.13722" lon="-1.61913">
        <ele>13.77</ele>
        <time>2020-06-20T11:41:36Z</time>
      </trkpt>
      <trkpt lat="47.13722" lon="-1.61929">
        <ele>14.7</ele>
        <time>2020-06-20T11:41:38Z</time>
      </trkpt>
      <trkpt lat="47.13722" lon="-1.61944">
        <ele>15.71</ele>
        <time>2020-06-20T11:41:40Z</time>
      </trkpt>
      <trkpt lat="47.13723" lon="-1.6196">
        <ele>16.45</ele>
        <time>2020-06-20T11:41:42Z</time>
      </trkpt>
      <trkpt lat="47.13726" lon="-1.61976">
        <ele>16.42</ele>
        <time>2020-06-20T11:41:44Z</time>
      </trkpt>
      <trkpt lat="47.13728" lon="-1.61992">
        <ele>17.27</ele>
        <time>2020-06-20T11:41:46Z</time>
      </trkpt>
      <trkpt lat="47.1373" lon="-1.62007">
        <ele>16.52</ele>
        <time>2020-06-20T11:41:48Z</time>
      </trkpt>
      <trkpt lat="47.13733" lon="-1.62028">
        <ele>16.1</ele>
        <time>2020-06-20T11:41:50Z</time>
      </trkpt>
      <trkpt lat="47.13735" lon="-1.62044">
        <ele>15.69</ele>
        <time>2020-06-20T11:41:52Z</time>
      </trkpt>
      <trkpt lat="47.13736" lon="-1.62058">
        <ele>16.44</ele>
        <time>2020-06-20T11:41:54Z</time>
      </trkpt>
      <trkpt lat="47.13738" lon="-1.62076">
        <ele>15.54</ele>
        <time>2020-06-20T11:41:56Z</time>
      </trkpt>
      <trkpt lat="47.1374" lon="-1.6209">
        <ele>16</ele>
        <time>2020-06-20T11:41:58Z</time>
      </trkpt>
      <trkpt lat="47.13743" lon="-1.62112">
        <ele>16.95</ele>
        <time>2020-06-20T11:42:01Z</time>
      </trkpt>
      <trkpt lat="47.13744" lon="-1.62125">
        <ele>16.71</ele>
        <time>2020-06-20T11:42:03Z</time>
      </trkpt>
      <trkpt lat="47.13746" lon="-1.62142">
        <ele>16.36</ele>
        <time>2020-06-20T11:42:05Z</time>
      </trkpt>
      <trkpt lat="47.13748" lon="-1.62159">
        <ele>14.79</ele>
        <time>2020-06-20T11:42:07Z</time>
      </trkpt>
      <trkpt lat="47.13751" lon="-1.62179">
        <ele>15.02</ele>
        <time>2020-06-20T11:42:10Z</time>
      </trkpt>
      <trkpt lat="47.13753" lon="-1.62193">
        <ele>15.18</ele>
        <time>2020-06-20T11:42:12Z</time>
      </trkpt>
      <trkpt lat="47.13755" lon="-1.62208">
        <ele>14.92</ele>
        <time>2020-06-20T11:42:14Z</time>
      </trkpt>
      <trkpt lat="47.13757" lon="-1.62224">
        <ele>14.39</ele>
        <time>2020-06-20T11:42:16Z</time>
      </trkpt>
      <trkpt lat="47.13759" lon="-1.6224">
        <ele>14.09</ele>
        <time>2020-06-20T11:42:18Z</time>
      </trkpt>
      <trkpt lat="47.13762" lon="-1.62255">
        <ele>14.71</ele>
        <time>2020-06-20T11:42:20Z</time>
      </trkpt>
      <trkpt lat="47.13764" lon="-1.6227">
        <ele>14.94</ele>
        <time>2020-06-20T11:42:22Z</time>
      </trkpt>
      <trkpt lat="47.13765" lon="-1.62287">
        <ele>15.29</ele>
        <time>2020-06-20T11:42:24Z</time>
      </trkpt>
      <trkpt lat="47.13767" lon="-1.62305">
        <ele>15.91</ele>
        <time>2020-06-20T11:42:26Z</time>
      </trkpt>
      <trkpt lat="47.13767" lon="-1.62321">
        <ele>15.44</ele>
        <time>2020-06-20T11:42:28Z</time>
      </trkpt>
      <trkpt lat="47.13767" lon="-1.62336">
        <ele>13.72</ele>
        <time>2020-06-20T11:42:30Z</time>
      </trkpt>
      <trkpt lat="47.13766" lon="-1.62355">
        <ele>12.82</ele>
        <time>2020-06-20T11:42:32Z</time>
      </trkpt>
      <trkpt lat="47.13765" lon="-1.62373">
        <ele>13</ele>
        <time>2020-06-20T11:42:34Z</time>
      </trkpt>
      <trkpt lat="47.13764" lon="-1.6239">
        <ele>12.56</ele>
        <time>2020-06-20T11:42:36Z</time>
      </trkpt>
      <trkpt lat="47.13764" lon="-1.6241">
        <ele>15.03</ele>
        <time>2020-06-20T11:42:38Z</time>
      </trkpt>
      <trkpt lat="47.13763" lon="-1.62431">
        <ele>15.48</ele>
        <time>2020-06-20T11:42:40Z</time>
      </trkpt>
      <trkpt lat="47.13765" lon="-1.62451">
        <ele>14.73</ele>
        <time>2020-06-20T11:42:42Z</time>
      </trkpt>
      <trkpt lat="47.13767" lon="-1.62472">
        <ele>15.22</ele>
        <time>2020-06-20T11:42:44Z</time>
      </trkpt>
      <trkpt lat="47.13768" lon="-1.62491">
        <ele>15.49</ele>
        <time>2020-06-20T11:42:46Z</time>
      </trkpt>
      <trkpt lat="47.1377" lon="-1.62507">
        <ele>16.31</ele>
        <time>2020-06-20T11:42:48Z</time>
      </trkpt>
      <trkpt lat="47.13773" lon="-1.62529">
        <ele>14.84</ele>
        <time>2020-06-20T11:42:50Z</time>
      </trkpt>
      <trkpt lat="47.13775" lon="-1.62545">
        <ele>14.06</ele>
        <time>2020-06-20T11:42:52Z</time>
      </trkpt>
      <trkpt lat="47.13775" lon="-1.6256">
        <ele>13.34</ele>
        <time>2020-06-20T11:42:54Z</time>
      </trkpt>
      <trkpt lat="47.13777" lon="-1.62576">
        <ele>13.58</ele>
        <time>2020-06-20T11:42:56Z</time>
      </trkpt>
      <trkpt lat="47.13779" lon="-1.62593">
        <ele>12.8</ele>
        <time>2020-06-20T11:42:58Z</time>
      </trkpt>
      <trkpt lat="47.13779" lon="-1.62608">
        <ele>13.05</ele>
        <time>2020-06-20T11:43:00Z</time>
      </trkpt>
      <trkpt lat="47.1378" lon="-1.62622">
        <ele>13.84</ele>
        <time>2020-06-20T11:43:02Z</time>
      </trkpt>
      <trkpt lat="47.1378" lon="-1.62638">
        <ele>14.1</ele>
        <time>2020-06-20T11:43:04Z</time>
      </trkpt>
      <trkpt lat="47.13782" lon="-1.62654">
        <ele>14.51</ele>
        <time>2020-06-20T11:43:06Z</time>
      </trkpt>
      <trkpt lat="47.13782" lon="-1.62669">
        <ele>15.32</ele>
        <time>2020-06-20T11:43:08Z</time>
      </trkpt>
      <trkpt lat="47.13782" lon="-1.62688">
        <ele>15.43</ele>
        <time>2020-06-20T11:43:10Z</time>
      </trkpt>
      <trkpt lat="47.1378" lon="-1.62703">
        <ele>16.17</ele>
        <time>2020-06-20T11:43:12Z</time>
      </trkpt>
      <trkpt lat="47.13781" lon="-1.62717">
        <ele>16.86</ele>
        <time>2020-06-20T11:43:14Z</time>
      </trkpt>
      <trkpt lat="47.13781" lon="-1.62738">
        <ele>17.11</ele>
        <time>2020-06-20T11:43:17Z</time>
      </trkpt>
      <trkpt lat="47.13783" lon="-1.62752">
        <ele>17.27</ele>
        <time>2020-06-20T11:43:19Z</time>
      </trkpt>
      <trkpt lat="47.13785" lon="-1.62768">
        <ele>18.15</ele>
        <time>2020-06-20T11:43:21Z</time>
      </trkpt>
      <trkpt lat="47.13789" lon="-1.62785">
        <ele>17.95</ele>
        <time>2020-06-20T11:43:24Z</time>
      </trkpt>
      <trkpt lat="47.13794" lon="-1.62801">
        <ele>17.58</ele>
        <time>2020-06-20T11:43:26Z</time>
      </trkpt>
      <trkpt lat="47.13799" lon="-1.62816">
        <ele>15.86</ele>
        <time>2020-06-20T11:43:28Z</time>
      </trkpt>
      <trkpt lat="47.13806" lon="-1.62832">
        <ele>14.21</ele>
        <time>2020-06-20T11:43:31Z</time>
      </trkpt>
      <trkpt lat="47.13811" lon="-1.62846">
        <ele>15.05</ele>
        <time>2020-06-20T11:43:33Z</time>
      </trkpt>
      <trkpt lat="47.13817" lon="-1.62859">
        <ele>14.96</ele>
        <time>2020-06-20T11:43:35Z</time>
      </trkpt>
      <trkpt lat="47.13821" lon="-1.62871">
        <ele>14.95</ele>
        <time>2020-06-20T11:43:37Z</time>
      </trkpt>
      <trkpt lat="47.13827" lon="-1.62886">
        <ele>15.15</ele>
        <time>2020-06-20T11:43:40Z</time>
      </trkpt>
      <trkpt lat="47.13837" lon="-1.62884">
        <ele>15.09</ele>
        <time>2020-06-20T11:43:43Z</time>
      </trkpt>
      <trkpt lat="47.13848" lon="-1.62874">
        <ele>16.49</ele>
        <time>2020-06-20T11:43:46Z</time>
      </trkpt>
      <trkpt lat="47.13858" lon="-1.62863">
        <ele>16.67</ele>
        <time>2020-06-20T11:43:48Z</time>
      </trkpt>
      <trkpt lat="47.13867" lon="-1.62853">
        <ele>17.36</ele>
        <time>2020-06-20T11:43:50Z</time>
      </trkpt>
      <trkpt lat="47.13874" lon="-1.62845">
        <ele>17.95</ele>
        <time>2020-06-20T11:43:52Z</time>
      </trkpt>
      <trkpt lat="47.13884" lon="-1.62834">
        <ele>18.21</ele>
        <time>2020-06-20T11:43:54Z</time>
      </trkpt>
      <trkpt lat="47.13894" lon="-1.62824">
        <ele>17.53</ele>
        <time>2020-06-20T11:43:56Z</time>
      </trkpt>
      <trkpt lat="47.13903" lon="-1.62815">
        <ele>16.31</ele>
        <time>2020-06-20T11:43:58Z</time>
      </trkpt>
      <trkpt lat="47.13912" lon="-1.62805">
        <ele>15.99</ele>
        <time>2020-06-20T11:44:00Z</time>
      </trkpt>
      <trkpt lat="47.13922" lon="-1.62795">
        <ele>14.12</ele>
        <time>2020-06-20T11:44:02Z</time>
      </trkpt>
      <trkpt lat="47.13931" lon="-1.62787">
        <ele>13.54</ele>
        <time>2020-06-20T11:44:04Z</time>
      </trkpt>
      <trkpt lat="47.13941" lon="-1.62778">
        <ele>14.61</ele>
        <time>2020-06-20T11:44:06Z</time>
      </trkpt>
      <trkpt lat="47.13953" lon="-1.62768">
        <ele>15.24</ele>
        <time>2020-06-20T11:44:08Z</time>
      </trkpt>
      <trkpt lat="47.13963" lon="-1.6276">
        <ele>17.06</ele>
        <time>2020-06-20T11:44:10Z</time>
      </trkpt>
      <trkpt lat="47.13973" lon="-1.62752">
        <ele>17.71</ele>
        <time>2020-06-20T11:44:12Z</time>
      </trkpt>
      <trkpt lat="47.13983" lon="-1.62745">
        <ele>16.41</ele>
        <time>2020-06-20T11:44:14Z</time>
      </trkpt>
      <trkpt lat="47.13991" lon="-1.6274">
        <ele>14.64</ele>
        <time>2020-06-20T11:44:16Z</time>
      </trkpt>
      <trkpt lat="47.14003" lon="-1.6273">
        <ele>14.04</ele>
        <time>2020-06-20T11:44:18Z</time>
      </trkpt>
      <trkpt lat="47.14012" lon="-1.62726">
        <ele>13.93</ele>
        <time>2020-06-20T11:44:20Z</time>
      </trkpt>
      <trkpt lat="47.14025" lon="-1.62722">
        <ele>14.05</ele>
        <time>2020-06-20T11:44:22Z</time>
      </trkpt>
      <trkpt lat="47.14037" lon="-1.62722">
        <ele>13.59</ele>
        <time>2020-06-20T11:44:24Z</time>
      </trkpt>
      <trkpt lat="47.14051" lon="-1.62723">
        <ele>12.85</ele>
        <time>2020-06-20T11:44:26Z</time>
      </trkpt>
      <trkpt lat="47.14064" lon="-1.62723">
        <ele>13.03</ele>
        <time>2020-06-20T11:44:28Z</time>
      </trkpt>
      <trkpt lat="47.14077" lon="-1.62724">
        <ele>13.75</ele>
        <time>2020-06-20T11:44:30Z</time>
      </trkpt>
      <trkpt lat="47.14088" lon="-1.62725">
        <ele>13.12</ele>
        <time>2020-06-20T11:44:32Z</time>
      </trkpt>
      <trkpt lat="47.14097" lon="-1.62727">
        <ele>13.01</ele>
        <time>2020-06-20T11:44:34Z</time>
      </trkpt>
      <trkpt lat="47.14109" lon="-1.62726">
        <ele>13.58</ele>
        <time>2020-06-20T11:44:36Z</time>
      </trkpt>
      <trkpt lat="47.14121" lon="-1.62727">
        <ele>14.73</ele>
        <time>2020-06-20T11:44:38Z</time>
      </trkpt>
      <trkpt lat="47.14133" lon="-1.62726">
        <ele>15.6</ele>
        <time>2020-06-20T11:44:40Z</time>
      </trkpt>
      <trkpt lat="47.14145" lon="-1.62725">
        <ele>14.98</ele>
        <time>2020-06-20T11:44:42Z</time>
      </trkpt>
      <trkpt lat="47.14155" lon="-1.62722">
        <ele>15.97</ele>
        <time>2020-06-20T11:44:44Z</time>
      </trkpt>
      <trkpt lat="47.14167" lon="-1.62717">
        <ele>16.47</ele>
        <time>2020-06-20T11:44:46Z</time>
      </trkpt>
      <trkpt lat="47.14178" lon="-1.62712">
        <ele>17.31</ele>
        <time>2020-06-20T11:44:48Z</time>
      </trkpt>
      <trkpt lat="47.1419" lon="-1.62708">
        <ele>17.6</ele>
        <time>2020-06-20T11:44:50Z</time>
      </trkpt>
      <trkpt lat="47.14203" lon="-1.62702">
        <ele>17.58</ele>
        <time>2020-06-20T11:44:52Z</time>
      </trkpt>
      <trkpt lat="47.14213" lon="-1.62691">
        <ele>16.39</ele>
        <time>2020-06-20T11:44:54Z</time>
      </trkpt>
      <trkpt lat="47.14221" lon="-1.62673">
        <ele>15.13</ele>
        <time>2020-06-20T11:44:56Z</time>
      </trkpt>
      <trkpt lat="47.1422" lon="-1.62651">
        <ele>13.91</ele>
        <time>2020-06-20T11:44:58Z</time>
      </trkpt>
      <trkpt lat="47.14217" lon="-1.62633">
        <ele>12.69</ele>
        <time>2020-06-20T11:45:00Z</time>
      </trkpt>
      <trkpt lat="47.14216" lon="-1.62609">
        <ele>11.5</ele>
        <time>2020-06-20T11:45:02Z</time>
      </trkpt>
      <trkpt lat="47.14215" lon="-1.6259">
        <ele>10.33</ele>
        <time>2020-06-20T11:45:04Z</time>
      </trkpt>
      <trkpt lat="47.14214" lon="-1.62574">
        <ele>9.58</ele>
        <time>2020-06-20T11:45:06Z</time>
      </trkpt>
      <trkpt lat="47.14214" lon="-1.62557">
        <ele>9.12</ele>
        <time>2020-06-20T11:45:08Z</time>
      </trkpt>
      <trkpt lat="47.14215" lon="-1.62539">
        <ele>9.1</ele>
        <time>2020-06-20T11:45:10Z</time>
      </trkpt>
      <trkpt lat="47.14217" lon="-1.62519">
        <ele>7.97</ele>
        <time>2020-06-20T11:45:12Z</time>
      </trkpt>
      <trkpt lat="47.14219" lon="-1.62505">
        <ele>8.55</ele>
        <time>2020-06-20T11:45:14Z</time>
      </trkpt>
      <trkpt lat="47.14223" lon="-1.62485">
        <ele>9.94</ele>
        <time>2020-06-20T11:45:16Z</time>
      </trkpt>
      <trkpt lat="47.14227" lon="-1.62469">
        <ele>10.91</ele>
        <time>2020-06-20T11:45:18Z</time>
      </trkpt>
      <trkpt lat="47.14231" lon="-1.6245">
        <ele>11.34</ele>
        <time>2020-06-20T11:45:20Z</time>
      </trkpt>
      <trkpt lat="47.14234" lon="-1.62437">
        <ele>12.06</ele>
        <time>2020-06-20T11:45:22Z</time>
      </trkpt>
      <trkpt lat="47.14237" lon="-1.62422">
        <ele>12.81</ele>
        <time>2020-06-20T11:45:24Z</time>
      </trkpt>
      <trkpt lat="47.14239" lon="-1.62402">
        <ele>13.68</ele>
        <time>2020-06-20T11:45:27Z</time>
      </trkpt>
      <trkpt lat="47.14242" lon="-1.62384">
        <ele>13.67</ele>
        <time>2020-06-20T11:45:29Z</time>
      </trkpt>
      <trkpt lat="47.14244" lon="-1.62369">
        <ele>13.36</ele>
        <time>2020-06-20T11:45:31Z</time>
      </trkpt>
      <trkpt lat="47.14246" lon="-1.62355">
        <ele>12.52</ele>
        <time>2020-06-20T11:45:33Z</time>
      </trkpt>
      <trkpt lat="47.14247" lon="-1.62342">
        <ele>12.85</ele>
        <time>2020-06-20T11:45:35Z</time>
      </trkpt>
      <trkpt lat="47.1425" lon="-1.62326">
        <ele>13.1</ele>
        <time>2020-06-20T11:45:37Z</time>
      </trkpt>
      <trkpt lat="47.14253" lon="-1.62306">
        <ele>12.42</ele>
        <time>2020-06-20T11:45:40Z</time>
      </trkpt>
      <trkpt lat="47.14256" lon="-1.62289">
        <ele>12.56</ele>
        <time>2020-06-20T11:45:42Z</time>
      </trkpt>
      <trkpt lat="47.14259" lon="-1.62271">
        <ele>12.03</ele>
        <time>2020-06-20T11:45:45Z</time>
      </trkpt>
      <trkpt lat="47.14262" lon="-1.62256">
        <ele>12.29</ele>
        <time>2020-06-20T11:45:47Z</time>
      </trkpt>
      <trkpt lat="47.14265" lon="-1.62241">
        <ele>13.28</ele>
        <time>2020-06-20T11:45:49Z</time>
      </trkpt>
      <trkpt lat="47.14267" lon="-1.62223">
        <ele>13.1</ele>
        <time>2020-06-20T11:45:52Z</time>
      </trkpt>
      <trkpt lat="47.14272" lon="-1.62206">
        <ele>13.76</ele>
        <time>2020-06-20T11:45:54Z</time>
      </trkpt>
      <trkpt lat="47.1428" lon="-1.62197">
        <ele>14.39</ele>
        <time>2020-06-20T11:45:56Z</time>
      </trkpt>
      <trkpt lat="47.14289" lon="-1.62189">
        <ele>16.28</ele>
        <time>2020-06-20T11:45:58Z</time>
      </trkpt>
      <trkpt lat="47.14298" lon="-1.62181">
        <ele>18.59</ele>
        <time>2020-06-20T11:46:01Z</time>
      </trkpt>
      <trkpt lat="47.14309" lon="-1.62174">
        <ele>18.93</ele>
        <time>2020-06-20T11:46:03Z</time>
      </trkpt>
      <trkpt lat="47.14319" lon="-1.62168">
        <ele>19.88</ele>
        <time>2020-06-20T11:46:05Z</time>
      </trkpt>
      <trkpt lat="47.14328" lon="-1.62161">
        <ele>20.81</ele>
        <time>2020-06-20T11:46:07Z</time>
      </trkpt>
      <trkpt lat="47.14337" lon="-1.62154">
        <ele>19.96</ele>
        <time>2020-06-20T11:46:09Z</time>
      </trkpt>
      <trkpt lat="47.14348" lon="-1.62146">
        <ele>19.44</ele>
        <time>2020-06-20T11:46:11Z</time>
      </trkpt>
      <trkpt lat="47.14357" lon="-1.62139">
        <ele>19.42</ele>
        <time>2020-06-20T11:46:13Z</time>
      </trkpt>
      <trkpt lat="47.14371" lon="-1.62128">
        <ele>20.24</ele>
        <time>2020-06-20T11:46:16Z</time>
      </trkpt>
      <trkpt lat="47.14381" lon="-1.6212">
        <ele>20.85</ele>
        <time>2020-06-20T11:46:18Z</time>
      </trkpt>
      <trkpt lat="47.1439" lon="-1.62113">
        <ele>21.01</ele>
        <time>2020-06-20T11:46:20Z</time>
      </trkpt>
      <trkpt lat="47.14399" lon="-1.62105">
        <ele>20.58</ele>
        <time>2020-06-20T11:46:22Z</time>
      </trkpt>
      <trkpt lat="47.14408" lon="-1.62097">
        <ele>19.94</ele>
        <time>2020-06-20T11:46:24Z</time>
      </trkpt>
      <trkpt lat="47.14418" lon="-1.6209">
        <ele>19.34</ele>
        <time>2020-06-20T11:46:26Z</time>
      </trkpt>
      <trkpt lat="47.1443" lon="-1.62082">
        <ele>21.15</ele>
        <time>2020-06-20T11:46:28Z</time>
      </trkpt>
      <trkpt lat="47.14441" lon="-1.62073">
        <ele>22.7</ele>
        <time>2020-06-20T11:46:30Z</time>
      </trkpt>
      <trkpt lat="47.1445" lon="-1.62066">
        <ele>22.27</ele>
        <time>2020-06-20T11:46:32Z</time>
      </trkpt>
      <trkpt lat="47.14461" lon="-1.62058">
        <ele>22.7</ele>
        <time>2020-06-20T11:46:35Z</time>
      </trkpt>
      <trkpt lat="47.14472" lon="-1.6205">
        <ele>22.46</ele>
        <time>2020-06-20T11:46:37Z</time>
      </trkpt>
      <trkpt lat="47.14482" lon="-1.62043">
        <ele>21.81</ele>
        <time>2020-06-20T11:46:39Z</time>
      </trkpt>
      <trkpt lat="47.14491" lon="-1.62035">
        <ele>21.87</ele>
        <time>2020-06-20T11:46:41Z</time>
      </trkpt>
      <trkpt lat="47.14501" lon="-1.62027">
        <ele>21.21</ele>
        <time>2020-06-20T11:46:43Z</time>
      </trkpt>
      <trkpt lat="47.14514" lon="-1.62022">
        <ele>20.17</ele>
        <time>2020-06-20T11:46:45Z</time>
      </trkpt>
      <trkpt lat="47.14526" lon="-1.62026">
        <ele>19.05</ele>
        <time>2020-06-20T11:46:47Z</time>
      </trkpt>
      <trkpt lat="47.14536" lon="-1.62032">
        <ele>18.55</ele>
        <time>2020-06-20T11:46:49Z</time>
      </trkpt>
      <trkpt lat="47.14545" lon="-1.62038">
        <ele>18.21</ele>
        <time>2020-06-20T11:46:51Z</time>
      </trkpt>
      <trkpt lat="47.14554" lon="-1.62041">
        <ele>18.24</ele>
        <time>2020-06-20T11:46:53Z</time>
      </trkpt>
      <trkpt lat="47.14563" lon="-1.62044">
        <ele>16.99</ele>
        <time>2020-06-20T11:46:55Z</time>
      </trkpt>
      <trkpt lat="47.14575" lon="-1.62045">
        <ele>16.35</ele>
        <time>2020-06-20T11:46:57Z</time>
      </trkpt>
      <trkpt lat="47.14585" lon="-1.62044">
        <ele>17.15</ele>
        <time>2020-06-20T11:46:59Z</time>
      </trkpt>
      <trkpt lat="47.14594" lon="-1.62043">
        <ele>16.97</ele>
        <time>2020-06-20T11:47:01Z</time>
      </trkpt>
      <trkpt lat="47.14605" lon="-1.62042">
        <ele>16.67</ele>
        <time>2020-06-20T11:47:03Z</time>
      </trkpt>
      <trkpt lat="47.14617" lon="-1.6204">
        <ele>16.83</ele>
        <time>2020-06-20T11:47:05Z</time>
      </trkpt>
      <trkpt lat="47.1463" lon="-1.62038">
        <ele>17.21</ele>
        <time>2020-06-20T11:47:07Z</time>
      </trkpt>
      <trkpt lat="47.14641" lon="-1.62036">
        <ele>17.76</ele>
        <time>2020-06-20T11:47:09Z</time>
      </trkpt>
      <trkpt lat="47.14652" lon="-1.62035">
        <ele>18.05</ele>
        <time>2020-06-20T11:47:11Z</time>
      </trkpt>
      <trkpt lat="47.14664" lon="-1.62034">
        <ele>18.41</ele>
        <time>2020-06-20T11:47:13Z</time>
      </trkpt>
      <trkpt lat="47.14677" lon="-1.62033">
        <ele>17.77</ele>
        <time>2020-06-20T11:47:16Z</time>
      </trkpt>
      <trkpt lat="47.14688" lon="-1.62033">
        <ele>16.97</ele>
        <time>2020-06-20T11:47:18Z</time>
      </trkpt>
      <trkpt lat="47.14698" lon="-1.62032">
        <ele>15.98</ele>
        <time>2020-06-20T11:47:20Z</time>
      </trkpt>
      <trkpt lat="47.1471" lon="-1.6203">
        <ele>15.78</ele>
        <time>2020-06-20T11:47:22Z</time>
      </trkpt>
      <trkpt lat="47.1472" lon="-1.62026">
        <ele>16.29</ele>
        <time>2020-06-20T11:47:24Z</time>
      </trkpt>
      <trkpt lat="47.14732" lon="-1.62021">
        <ele>16.88</ele>
        <time>2020-06-20T11:47:26Z</time>
      </trkpt>
      <trkpt lat="47.14743" lon="-1.62016">
        <ele>16.97</ele>
        <time>2020-06-20T11:47:28Z</time>
      </trkpt>
      <trkpt lat="47.14754" lon="-1.62013">
        <ele>17.68</ele>
        <time>2020-06-20T11:47:30Z</time>
      </trkpt>
      <trkpt lat="47.14763" lon="-1.62013">
        <ele>17.63</ele>
        <time>2020-06-20T11:47:32Z</time>
      </trkpt>
      <trkpt lat="47.14778" lon="-1.62013">
        <ele>17.38</ele>
        <time>2020-06-20T11:47:34Z</time>
      </trkpt>
      <trkpt lat="47.14788" lon="-1.62013">
        <ele>16.46</ele>
        <time>2020-06-20T11:47:36Z</time>
      </trkpt>
      <trkpt lat="47.14798" lon="-1.62013">
        <ele>16.12</ele>
        <time>2020-06-20T11:47:38Z</time>
      </trkpt>
      <trkpt lat="47.14809" lon="-1.62012">
        <ele>15.85</ele>
        <time>2020-06-20T11:47:40Z</time>
      </trkpt>
      <trkpt lat="47.14822" lon="-1.62013">
        <ele>14.68</ele>
        <time>2020-06-20T11:47:42Z</time>
      </trkpt>
      <trkpt lat="47.14833" lon="-1.62011">
        <ele>15.27</ele>
        <time>2020-06-20T11:47:44Z</time>
      </trkpt>
      <trkpt lat="47.14845" lon="-1.62011">
        <ele>16.73</ele>
        <time>2020-06-20T11:47:46Z</time>
      </trkpt>
      <trkpt lat="47.14857" lon="-1.62012">
        <ele>18.02</ele>
        <time>2020-06-20T11:47:48Z</time>
      </trkpt>
      <trkpt lat="47.14867" lon="-1.62014">
        <ele>17.88</ele>
        <time>2020-06-20T11:47:50Z</time>
      </trkpt>
      <trkpt lat="47.14879" lon="-1.62018">
        <ele>17.83</ele>
        <time>2020-06-20T11:47:52Z</time>
      </trkpt>
      <trkpt lat="47.14892" lon="-1.62022">
        <ele>17.31</ele>
        <time>2020-06-20T11:47:54Z</time>
      </trkpt>
      <trkpt lat="47.14904" lon="-1.62027">
        <ele>17.57</ele>
        <time>2020-06-20T11:47:56Z</time>
      </trkpt>
      <trkpt lat="47.14913" lon="-1.62031">
        <ele>18.21</ele>
        <time>2020-06-20T11:47:58Z</time>
      </trkpt>
      <trkpt lat="47.14925" lon="-1.62035">
        <ele>17.37</ele>
        <time>2020-06-20T11:48:00Z</time>
      </trkpt>
      <trkpt lat="47.14935" lon="-1.62039">
        <ele>18.03</ele>
        <time>2020-06-20T11:48:02Z</time>
      </trkpt>
      <trkpt lat="47.14946" lon="-1.62042">
        <ele>18.13</ele>
        <time>2020-06-20T11:48:04Z</time>
      </trkpt>
      <trkpt lat="47.14958" lon="-1.62046">
        <ele>18.37</ele>
        <time>2020-06-20T11:48:06Z</time>
      </trkpt>
      <trkpt lat="47.14968" lon="-1.62051">
        <ele>18.78</ele>
        <time>2020-06-20T11:48:08Z</time>
      </trkpt>
      <trkpt lat="47.1498" lon="-1.62054">
        <ele>18.52</ele>
        <time>2020-06-20T11:48:10Z</time>
      </trkpt>
      <trkpt lat="47.14991" lon="-1.62057">
        <ele>17.15</ele>
        <time>2020-06-20T11:48:12Z</time>
      </trkpt>
      <trkpt lat="47.15004" lon="-1.62061">
        <ele>15.84</ele>
        <time>2020-06-20T11:48:14Z</time>
      </trkpt>
      <trkpt lat="47.15013" lon="-1.62065">
        <ele>15.59</ele>
        <time>2020-06-20T11:48:16Z</time>
      </trkpt>
      <trkpt lat="47.15021" lon="-1.62071">
        <ele>15.35</ele>
        <time>2020-06-20T11:48:18Z</time>
      </trkpt>
      <trkpt lat="47.15022" lon="-1.62086">
        <ele>15.88</ele>
        <time>2020-06-20T11:48:20Z</time>
      </trkpt>
      <trkpt lat="47.1502" lon="-1.62103">
        <ele>17.28</ele>
        <time>2020-06-20T11:48:22Z</time>
      </trkpt>
      <trkpt lat="47.15018" lon="-1.62122">
        <ele>19.37</ele>
        <time>2020-06-20T11:48:24Z</time>
      </trkpt>
      <trkpt lat="47.15014" lon="-1.62136">
        <ele>21.36</ele>
        <time>2020-06-20T11:48:26Z</time>
      </trkpt>
      <trkpt lat="47.15012" lon="-1.62154">
        <ele>23.02</ele>
        <time>2020-06-20T11:48:28Z</time>
      </trkpt>
      <trkpt lat="47.15009" lon="-1.62171">
        <ele>22.91</ele>
        <time>2020-06-20T11:48:30Z</time>
      </trkpt>
      <trkpt lat="47.15007" lon="-1.62188">
        <ele>22.58</ele>
        <time>2020-06-20T11:48:32Z</time>
      </trkpt>
      <trkpt lat="47.15005" lon="-1.62205">
        <ele>21.7</ele>
        <time>2020-06-20T11:48:34Z</time>
      </trkpt>
      <trkpt lat="47.15003" lon="-1.62224">
        <ele>21.25</ele>
        <time>2020-06-20T11:48:36Z</time>
      </trkpt>
      <trkpt lat="47.15001" lon="-1.6224">
        <ele>20.59</ele>
        <time>2020-06-20T11:48:38Z</time>
      </trkpt>
      <trkpt lat="47.14999" lon="-1.62257">
        <ele>20.01</ele>
        <time>2020-06-20T11:48:40Z</time>
      </trkpt>
      <trkpt lat="47.14997" lon="-1.6227">
        <ele>19.03</ele>
        <time>2020-06-20T11:48:42Z</time>
      </trkpt>
      <trkpt lat="47.14993" lon="-1.6229">
        <ele>18.82</ele>
        <time>2020-06-20T11:48:44Z</time>
      </trkpt>
      <trkpt lat="47.14989" lon="-1.62308">
        <ele>19.52</ele>
        <time>2020-06-20T11:48:46Z</time>
      </trkpt>
      <trkpt lat="47.14985" lon="-1.62325">
        <ele>19.38</ele>
        <time>2020-06-20T11:48:48Z</time>
      </trkpt>
      <trkpt lat="47.14982" lon="-1.6234">
        <ele>20.05</ele>
        <time>2020-06-20T11:48:50Z</time>
      </trkpt>
      <trkpt lat="47.14978" lon="-1.6236">
        <ele>19.55</ele>
        <time>2020-06-20T11:48:52Z</time>
      </trkpt>
      <trkpt lat="47.14977" lon="-1.62377">
        <ele>20.19</ele>
        <time>2020-06-20T11:48:54Z</time>
      </trkpt>
      <trkpt lat="47.14976" lon="-1.62396">
        <ele>21.06</ele>
        <time>2020-06-20T11:48:56Z</time>
      </trkpt>
      <trkpt lat="47.14974" lon="-1.62415">
        <ele>21.83</ele>
        <time>2020-06-20T11:48:58Z</time>
      </trkpt>
      <trkpt lat="47.14972" lon="-1.62433">
        <ele>21.87</ele>
        <time>2020-06-20T11:49:00Z</time>
      </trkpt>
      <trkpt lat="47.14969" lon="-1.62449">
        <ele>21.07</ele>
        <time>2020-06-20T11:49:02Z</time>
      </trkpt>
      <trkpt lat="47.14966" lon="-1.62466">
        <ele>19.69</ele>
        <time>2020-06-20T11:49:04Z</time>
      </trkpt>
      <trkpt lat="47.14962" lon="-1.62482">
        <ele>19.78</ele>
        <time>2020-06-20T11:49:06Z</time>
      </trkpt>
      <trkpt lat="47.1496" lon="-1.62499">
        <ele>20.2</ele>
        <time>2020-06-20T11:49:08Z</time>
      </trkpt>
      <trkpt lat="47.14958" lon="-1.62514">
        <ele>19.9</ele>
        <time>2020-06-20T11:49:10Z</time>
      </trkpt>
      <trkpt lat="47.14956" lon="-1.62533">
        <ele>20.47</ele>
        <time>2020-06-20T11:49:12Z</time>
      </trkpt>
      <trkpt lat="47.14953" lon="-1.62552">
        <ele>20.77</ele>
        <time>2020-06-20T11:49:14Z</time>
      </trkpt>
      <trkpt lat="47.14951" lon="-1.62573">
        <ele>19.68</ele>
        <time>2020-06-20T11:49:16Z</time>
      </trkpt>
      <trkpt lat="47.14949" lon="-1.62592">
        <ele>18.4</ele>
        <time>2020-06-20T11:49:18Z</time>
      </trkpt>
      <trkpt lat="47.14948" lon="-1.6261">
        <ele>16.21</ele>
        <time>2020-06-20T11:49:20Z</time>
      </trkpt>
      <trkpt lat="47.14946" lon="-1.62625">
        <ele>15.62</ele>
        <time>2020-06-20T11:49:22Z</time>
      </trkpt>
      <trkpt lat="47.14945" lon="-1.62644">
        <ele>14.47</ele>
        <time>2020-06-20T11:49:24Z</time>
      </trkpt>
      <trkpt lat="47.14942" lon="-1.62666">
        <ele>16.28</ele>
        <time>2020-06-20T11:49:27Z</time>
      </trkpt>
      <trkpt lat="47.14938" lon="-1.62683">
        <ele>17.88</ele>
        <time>2020-06-20T11:49:29Z</time>
      </trkpt>
      <trkpt lat="47.14937" lon="-1.62697">
        <ele>18.66</ele>
        <time>2020-06-20T11:49:31Z</time>
      </trkpt>
      <trkpt lat="47.14934" lon="-1.62711">
        <ele>20.2</ele>
        <time>2020-06-20T11:49:33Z</time>
      </trkpt>
      <trkpt lat="47.14932" lon="-1.62727">
        <ele>20.49</ele>
        <time>2020-06-20T11:49:35Z</time>
      </trkpt>
      <trkpt lat="47.1493" lon="-1.62743">
        <ele>20.17</ele>
        <time>2020-06-20T11:49:37Z</time>
      </trkpt>
      <trkpt lat="47.14927" lon="-1.62766">
        <ele>18.51</ele>
        <time>2020-06-20T11:49:40Z</time>
      </trkpt>
      <trkpt lat="47.14924" lon="-1.62785">
        <ele>17.48</ele>
        <time>2020-06-20T11:49:42Z</time>
      </trkpt>
      <trkpt lat="47.14922" lon="-1.62799">
        <ele>17.33</ele>
        <time>2020-06-20T11:49:44Z</time>
      </trkpt>
      <trkpt lat="47.1492" lon="-1.62818">
        <ele>16.88</ele>
        <time>2020-06-20T11:49:46Z</time>
      </trkpt>
      <trkpt lat="47.14918" lon="-1.62833">
        <ele>18.48</ele>
        <time>2020-06-20T11:49:48Z</time>
      </trkpt>
      <trkpt lat="47.14915" lon="-1.6285">
        <ele>17.87</ele>
        <time>2020-06-20T11:49:50Z</time>
      </trkpt>
      <trkpt lat="47.14913" lon="-1.62863">
        <ele>18.25</ele>
        <time>2020-06-20T11:49:52Z</time>
      </trkpt>
      <trkpt lat="47.14911" lon="-1.62877">
        <ele>19.07</ele>
        <time>2020-06-20T11:49:54Z</time>
      </trkpt>
      <trkpt lat="47.14909" lon="-1.62891">
        <ele>19.56</ele>
        <time>2020-06-20T11:49:56Z</time>
      </trkpt>
      <trkpt lat="47.14907" lon="-1.62905">
        <ele>21.07</ele>
        <time>2020-06-20T11:49:58Z</time>
      </trkpt>
      <trkpt lat="47.14905" lon="-1.62924">
        <ele>21.77</ele>
        <time>2020-06-20T11:50:00Z</time>
      </trkpt>
      <trkpt lat="47.14903" lon="-1.62941">
        <ele>22.31</ele>
        <time>2020-06-20T11:50:02Z</time>
      </trkpt>
      <trkpt lat="47.14902" lon="-1.62957">
        <ele>21.28</ele>
        <time>2020-06-20T11:50:04Z</time>
      </trkpt>
      <trkpt lat="47.149" lon="-1.62972">
        <ele>19.04</ele>
        <time>2020-06-20T11:50:06Z</time>
      </trkpt>
      <trkpt lat="47.14898" lon="-1.62991">
        <ele>18.08</ele>
        <time>2020-06-20T11:50:09Z</time>
      </trkpt>
      <trkpt lat="47.14896" lon="-1.63008">
        <ele>18.45</ele>
        <time>2020-06-20T11:50:11Z</time>
      </trkpt>
      <trkpt lat="47.14893" lon="-1.63023">
        <ele>19.04</ele>
        <time>2020-06-20T11:50:13Z</time>
      </trkpt>
      <trkpt lat="47.14892" lon="-1.63037">
        <ele>20.25</ele>
        <time>2020-06-20T11:50:15Z</time>
      </trkpt>
      <trkpt lat="47.14888" lon="-1.63055">
        <ele>21.01</ele>
        <time>2020-06-20T11:50:18Z</time>
      </trkpt>
      <trkpt lat="47.14885" lon="-1.63074">
        <ele>21.44</ele>
        <time>2020-06-20T11:50:20Z</time>
      </trkpt>
      <trkpt lat="47.14883" lon="-1.63088">
        <ele>18.36</ele>
        <time>2020-06-20T11:50:22Z</time>
      </trkpt>
      <trkpt lat="47.1488" lon="-1.63103">
        <ele>18.1</ele>
        <time>2020-06-20T11:50:24Z</time>
      </trkpt>
      <trkpt lat="47.14878" lon="-1.63117">
        <ele>19.59</ele>
        <time>2020-06-20T11:50:26Z</time>
      </trkpt>
      <trkpt lat="47.14876" lon="-1.63134">
        <ele>20.2</ele>
        <time>2020-06-20T11:50:28Z</time>
      </trkpt>
      <trkpt lat="47.14875" lon="-1.63148">
        <ele>20.41</ele>
        <time>2020-06-20T11:50:30Z</time>
      </trkpt>
      <trkpt lat="47.14873" lon="-1.63166">
        <ele>21.2</ele>
        <time>2020-06-20T11:50:32Z</time>
      </trkpt>
      <trkpt lat="47.14872" lon="-1.63182">
        <ele>22.45</ele>
        <time>2020-06-20T11:50:34Z</time>
      </trkpt>
      <trkpt lat="47.14871" lon="-1.63203">
        <ele>22.67</ele>
        <time>2020-06-20T11:50:37Z</time>
      </trkpt>
      <trkpt lat="47.14869" lon="-1.63222">
        <ele>22.03</ele>
        <time>2020-06-20T11:50:39Z</time>
      </trkpt>
      <trkpt lat="47.14869" lon="-1.63238">
        <ele>21.6</ele>
        <time>2020-06-20T11:50:41Z</time>
      </trkpt>
      <trkpt lat="47.14869" lon="-1.63252">
        <ele>22.74</ele>
        <time>2020-06-20T11:50:43Z</time>
      </trkpt>
      <trkpt lat="47.1487" lon="-1.63267">
        <ele>22.47</ele>
        <time>2020-06-20T11:50:45Z</time>
      </trkpt>
      <trkpt lat="47.1487" lon="-1.63283">
        <ele>22.37</ele>
        <time>2020-06-20T11:50:47Z</time>
      </trkpt>
      <trkpt lat="47.1487" lon="-1.63305">
        <ele>21.75</ele>
        <time>2020-06-20T11:50:50Z</time>
      </trkpt>
      <trkpt lat="47.14869" lon="-1.63321">
        <ele>22.29</ele>
        <time>2020-06-20T11:50:52Z</time>
      </trkpt>
      <trkpt lat="47.14869" lon="-1.63338">
        <ele>22.18</ele>
        <time>2020-06-20T11:50:54Z</time>
      </trkpt>
      <trkpt lat="47.14869" lon="-1.63354">
        <ele>24.07</ele>
        <time>2020-06-20T11:50:56Z</time>
      </trkpt>
      <trkpt lat="47.1487" lon="-1.6337">
        <ele>24.65</ele>
        <time>2020-06-20T11:50:58Z</time>
      </trkpt>
      <trkpt lat="47.1487" lon="-1.63389">
        <ele>25.86</ele>
        <time>2020-06-20T11:51:00Z</time>
      </trkpt>
      <trkpt lat="47.1487" lon="-1.63407">
        <ele>26.62</ele>
        <time>2020-06-20T11:51:02Z</time>
      </trkpt>
      <trkpt lat="47.1487" lon="-1.63423">
        <ele>28.52</ele>
        <time>2020-06-20T11:51:04Z</time>
      </trkpt>
      <trkpt lat="47.1487" lon="-1.63437">
        <ele>28.84</ele>
        <time>2020-06-20T11:51:06Z</time>
      </trkpt>
      <trkpt lat="47.1487" lon="-1.63454">
        <ele>29.07</ele>
        <time>2020-06-20T11:51:08Z</time>
      </trkpt>
      <trkpt lat="47.1487" lon="-1.63472">
        <ele>29.07</ele>
        <time>2020-06-20T11:51:10Z</time>
      </trkpt>
      <trkpt lat="47.14869" lon="-1.63494">
        <ele>28.63</ele>
        <time>2020-06-20T11:51:12Z</time>
      </trkpt>
      <trkpt lat="47.14869" lon="-1.63514">
        <ele>26.34</ele>
        <time>2020-06-20T11:51:15Z</time>
      </trkpt>
      <trkpt lat="47.14869" lon="-1.63529">
        <ele>26.07</ele>
        <time>2020-06-20T11:51:17Z</time>
      </trkpt>
      <trkpt lat="47.14869" lon="-1.63544">
        <ele>26.17</ele>
        <time>2020-06-20T11:51:19Z</time>
      </trkpt>
      <trkpt lat="47.14869" lon="-1.6356">
        <ele>27.06</ele>
        <time>2020-06-20T11:51:21Z</time>
      </trkpt>
      <trkpt lat="47.14871" lon="-1.63578">
        <ele>26.37</ele>
        <time>2020-06-20T11:51:24Z</time>
      </trkpt>
      <trkpt lat="47.1487" lon="-1.63594">
        <ele>26.62</ele>
        <time>2020-06-20T11:51:26Z</time>
      </trkpt>
      <trkpt lat="47.14871" lon="-1.63618">
        <ele>27.43</ele>
        <time>2020-06-20T11:51:28Z</time>
      </trkpt>
      <trkpt lat="47.1487" lon="-1.63632">
        <ele>26.98</ele>
        <time>2020-06-20T11:51:30Z</time>
      </trkpt>
      <trkpt lat="47.1487" lon="-1.63648">
        <ele>25.68</ele>
        <time>2020-06-20T11:51:32Z</time>
      </trkpt>
      <trkpt lat="47.1487" lon="-1.63668">
        <ele>24.1</ele>
        <time>2020-06-20T11:51:34Z</time>
      </trkpt>
      <trkpt lat="47.1487" lon="-1.63685">
        <ele>22.59</ele>
        <time>2020-06-20T11:51:36Z</time>
      </trkpt>
      <trkpt lat="47.1487" lon="-1.63699">
        <ele>22.29</ele>
        <time>2020-06-20T11:51:38Z</time>
      </trkpt>
      <trkpt lat="47.1487" lon="-1.63717">
        <ele>22.09</ele>
        <time>2020-06-20T11:51:40Z</time>
      </trkpt>
      <trkpt lat="47.1487" lon="-1.63735">
        <ele>22.23</ele>
        <time>2020-06-20T11:51:42Z</time>
      </trkpt>
      <trkpt lat="47.1487" lon="-1.6375">
        <ele>21.42</ele>
        <time>2020-06-20T11:51:44Z</time>
      </trkpt>
      <trkpt lat="47.1487" lon="-1.63764">
        <ele>19.63</ele>
        <time>2020-06-20T11:51:46Z</time>
      </trkpt>
      <trkpt lat="47.1487" lon="-1.63784">
        <ele>20.25</ele>
        <time>2020-06-20T11:51:49Z</time>
      </trkpt>
      <trkpt lat="47.1487" lon="-1.638">
        <ele>22</ele>
        <time>2020-06-20T11:51:51Z</time>
      </trkpt>
      <trkpt lat="47.14869" lon="-1.63816">
        <ele>24.84</ele>
        <time>2020-06-20T11:51:53Z</time>
      </trkpt>
      <trkpt lat="47.14869" lon="-1.63833">
        <ele>25.42</ele>
        <time>2020-06-20T11:51:55Z</time>
      </trkpt>
      <trkpt lat="47.14868" lon="-1.63847">
        <ele>25.4</ele>
        <time>2020-06-20T11:51:57Z</time>
      </trkpt>
      <trkpt lat="47.14867" lon="-1.63866">
        <ele>24.36</ele>
        <time>2020-06-20T11:51:59Z</time>
      </trkpt>
      <trkpt lat="47.14865" lon="-1.63884">
        <ele>23.01</ele>
        <time>2020-06-20T11:52:01Z</time>
      </trkpt>
      <trkpt lat="47.14862" lon="-1.63899">
        <ele>21.11</ele>
        <time>2020-06-20T11:52:03Z</time>
      </trkpt>
      <trkpt lat="47.14858" lon="-1.63919">
        <ele>21.37</ele>
        <time>2020-06-20T11:52:06Z</time>
      </trkpt>
      <trkpt lat="47.14854" lon="-1.63937">
        <ele>21.34</ele>
        <time>2020-06-20T11:52:09Z</time>
      </trkpt>
      <trkpt lat="47.14852" lon="-1.63951">
        <ele>20.71</ele>
        <time>2020-06-20T11:52:11Z</time>
      </trkpt>
      <trkpt lat="47.14854" lon="-1.63971">
        <ele>22.56</ele>
        <time>2020-06-20T11:52:13Z</time>
      </trkpt>
      <trkpt lat="47.1486" lon="-1.63986">
        <ele>24.07</ele>
        <time>2020-06-20T11:52:15Z</time>
      </trkpt>
      <trkpt lat="47.14868" lon="-1.63998">
        <ele>23.97</ele>
        <time>2020-06-20T11:52:17Z</time>
      </trkpt>
      <trkpt lat="47.14878" lon="-1.64014">
        <ele>23.52</ele>
        <time>2020-06-20T11:52:20Z</time>
      </trkpt>
      <trkpt lat="47.14888" lon="-1.64024">
        <ele>22.64</ele>
        <time>2020-06-20T11:52:22Z</time>
      </trkpt>
      <trkpt lat="47.14898" lon="-1.64025">
        <ele>21.4</ele>
        <time>2020-06-20T11:52:24Z</time>
      </trkpt>
      <trkpt lat="47.14907" lon="-1.64018">
        <ele>20.57</ele>
        <time>2020-06-20T11:52:26Z</time>
      </trkpt>
      <trkpt lat="47.14915" lon="-1.64006">
        <ele>20.71</ele>
        <time>2020-06-20T11:52:28Z</time>
      </trkpt>
      <trkpt lat="47.14923" lon="-1.63991">
        <ele>20.93</ele>
        <time>2020-06-20T11:52:30Z</time>
      </trkpt>
      <trkpt lat="47.14931" lon="-1.63977">
        <ele>21.49</ele>
        <time>2020-06-20T11:52:32Z</time>
      </trkpt>
      <trkpt lat="47.1494" lon="-1.63964">
        <ele>21.43</ele>
        <time>2020-06-20T11:52:34Z</time>
      </trkpt>
      <trkpt lat="47.14948" lon="-1.63951">
        <ele>21.49</ele>
        <time>2020-06-20T11:52:36Z</time>
      </trkpt>
      <trkpt lat="47.14956" lon="-1.63938">
        <ele>22.17</ele>
        <time>2020-06-20T11:52:38Z</time>
      </trkpt>
      <trkpt lat="47.14964" lon="-1.63923">
        <ele>22.49</ele>
        <time>2020-06-20T11:52:40Z</time>
      </trkpt>
      <trkpt lat="47.14972" lon="-1.63911">
        <ele>24.16</ele>
        <time>2020-06-20T11:52:42Z</time>
      </trkpt>
      <trkpt lat="47.14979" lon="-1.63898">
        <ele>25.96</ele>
        <time>2020-06-20T11:52:44Z</time>
      </trkpt>
      <trkpt lat="47.14988" lon="-1.63885">
        <ele>26.88</ele>
        <time>2020-06-20T11:52:46Z</time>
      </trkpt>
      <trkpt lat="47.14998" lon="-1.63872">
        <ele>26.68</ele>
        <time>2020-06-20T11:52:48Z</time>
      </trkpt>
      <trkpt lat="47.15007" lon="-1.6386">
        <ele>27.22</ele>
        <time>2020-06-20T11:52:50Z</time>
      </trkpt>
      <trkpt lat="47.15016" lon="-1.63848">
        <ele>27.01</ele>
        <time>2020-06-20T11:52:52Z</time>
      </trkpt>
      <trkpt lat="47.15025" lon="-1.63836">
        <ele>26.18</ele>
        <time>2020-06-20T11:52:54Z</time>
      </trkpt>
      <trkpt lat="47.15035" lon="-1.63822">
        <ele>25.06</ele>
        <time>2020-06-20T11:52:56Z</time>
      </trkpt>
      <trkpt lat="47.15046" lon="-1.63807">
        <ele>24.5</ele>
        <time>2020-06-20T11:52:58Z</time>
      </trkpt>
      <trkpt lat="47.15057" lon="-1.63792">
        <ele>24.88</ele>
        <time>2020-06-20T11:53:00Z</time>
      </trkpt>
      <trkpt lat="47.15067" lon="-1.63781">
        <ele>24.38</ele>
        <time>2020-06-20T11:53:02Z</time>
      </trkpt>
      <trkpt lat="47.15077" lon="-1.63769">
        <ele>23.99</ele>
        <time>2020-06-20T11:53:04Z</time>
      </trkpt>
      <trkpt lat="47.15087" lon="-1.63757">
        <ele>24.33</ele>
        <time>2020-06-20T11:53:06Z</time>
      </trkpt>
      <trkpt lat="47.15097" lon="-1.63745">
        <ele>24.17</ele>
        <time>2020-06-20T11:53:08Z</time>
      </trkpt>
      <trkpt lat="47.15109" lon="-1.63732">
        <ele>24.02</ele>
        <time>2020-06-20T11:53:10Z</time>
      </trkpt>
      <trkpt lat="47.15121" lon="-1.63719">
        <ele>23.72</ele>
        <time>2020-06-20T11:53:12Z</time>
      </trkpt>
      <trkpt lat="47.15131" lon="-1.63709">
        <ele>23.79</ele>
        <time>2020-06-20T11:53:14Z</time>
      </trkpt>
      <trkpt lat="47.15141" lon="-1.63699">
        <ele>24.48</ele>
        <time>2020-06-20T11:53:16Z</time>
      </trkpt>
      <trkpt lat="47.15153" lon="-1.63686">
        <ele>25.14</ele>
        <time>2020-06-20T11:53:18Z</time>
      </trkpt>
      <trkpt lat="47.15165" lon="-1.63675">
        <ele>24.95</ele>
        <time>2020-06-20T11:53:20Z</time>
      </trkpt>
      <trkpt lat="47.15175" lon="-1.63665">
        <ele>25.31</ele>
        <time>2020-06-20T11:53:22Z</time>
      </trkpt>
      <trkpt lat="47.15186" lon="-1.63655">
        <ele>26.39</ele>
        <time>2020-06-20T11:53:24Z</time>
      </trkpt>
      <trkpt lat="47.15198" lon="-1.63644">
        <ele>26.91</ele>
        <time>2020-06-20T11:53:26Z</time>
      </trkpt>
      <trkpt lat="47.15208" lon="-1.63637">
        <ele>26.6</ele>
        <time>2020-06-20T11:53:28Z</time>
      </trkpt>
      <trkpt lat="47.15218" lon="-1.63628">
        <ele>27.18</ele>
        <time>2020-06-20T11:53:30Z</time>
      </trkpt>
      <trkpt lat="47.15228" lon="-1.63619">
        <ele>28.01</ele>
        <time>2020-06-20T11:53:32Z</time>
      </trkpt>
      <trkpt lat="47.15239" lon="-1.6361">
        <ele>27.27</ele>
        <time>2020-06-20T11:53:34Z</time>
      </trkpt>
      <trkpt lat="47.15251" lon="-1.63599">
        <ele>26.63</ele>
        <time>2020-06-20T11:53:36Z</time>
      </trkpt>
      <trkpt lat="47.15262" lon="-1.63587">
        <ele>27.77</ele>
        <time>2020-06-20T11:53:38Z</time>
      </trkpt>
      <trkpt lat="47.15273" lon="-1.63577">
        <ele>28.89</ele>
        <time>2020-06-20T11:53:40Z</time>
      </trkpt>
      <trkpt lat="47.15283" lon="-1.63568">
        <ele>29.65</ele>
        <time>2020-06-20T11:53:42Z</time>
      </trkpt>
      <trkpt lat="47.15295" lon="-1.63557">
        <ele>28.94</ele>
        <time>2020-06-20T11:53:44Z</time>
      </trkpt>
      <trkpt lat="47.15305" lon="-1.63548">
        <ele>28.42</ele>
        <time>2020-06-20T11:53:46Z</time>
      </trkpt>
      <trkpt lat="47.15314" lon="-1.63539">
        <ele>28.77</ele>
        <time>2020-06-20T11:53:48Z</time>
      </trkpt>
      <trkpt lat="47.15327" lon="-1.63527">
        <ele>28.56</ele>
        <time>2020-06-20T11:53:50Z</time>
      </trkpt>
      <trkpt lat="47.15338" lon="-1.63518">
        <ele>27.32</ele>
        <time>2020-06-20T11:53:52Z</time>
      </trkpt>
      <trkpt lat="47.15348" lon="-1.63508">
        <ele>26.65</ele>
        <time>2020-06-20T11:53:54Z</time>
      </trkpt>
      <trkpt lat="47.15359" lon="-1.63499">
        <ele>25.68</ele>
        <time>2020-06-20T11:53:56Z</time>
      </trkpt>
      <trkpt lat="47.15369" lon="-1.63491">
        <ele>24.95</ele>
        <time>2020-06-20T11:53:58Z</time>
      </trkpt>
      <trkpt lat="47.1538" lon="-1.63481">
        <ele>25.08</ele>
        <time>2020-06-20T11:54:00Z</time>
      </trkpt>
      <trkpt lat="47.15392" lon="-1.63469">
        <ele>24.57</ele>
        <time>2020-06-20T11:54:02Z</time>
      </trkpt>
      <trkpt lat="47.15403" lon="-1.6346">
        <ele>24.22</ele>
        <time>2020-06-20T11:54:04Z</time>
      </trkpt>
      <trkpt lat="47.15413" lon="-1.63452">
        <ele>24.24</ele>
        <time>2020-06-20T11:54:06Z</time>
      </trkpt>
      <trkpt lat="47.15425" lon="-1.63441">
        <ele>25.37</ele>
        <time>2020-06-20T11:54:08Z</time>
      </trkpt>
      <trkpt lat="47.15435" lon="-1.6343">
        <ele>26.16</ele>
        <time>2020-06-20T11:54:10Z</time>
      </trkpt>
      <trkpt lat="47.15448" lon="-1.63419">
        <ele>25.04</ele>
        <time>2020-06-20T11:54:12Z</time>
      </trkpt>
      <trkpt lat="47.15458" lon="-1.63408">
        <ele>24.77</ele>
        <time>2020-06-20T11:54:14Z</time>
      </trkpt>
      <trkpt lat="47.15471" lon="-1.63398">
        <ele>24.8</ele>
        <time>2020-06-20T11:54:16Z</time>
      </trkpt>
      <trkpt lat="47.15485" lon="-1.63389">
        <ele>23.74</ele>
        <time>2020-06-20T11:54:18Z</time>
      </trkpt>
      <trkpt lat="47.15497" lon="-1.6338">
        <ele>23.25</ele>
        <time>2020-06-20T11:54:20Z</time>
      </trkpt>
      <trkpt lat="47.1551" lon="-1.6337">
        <ele>23.24</ele>
        <time>2020-06-20T11:54:22Z</time>
      </trkpt>
      <trkpt lat="47.15522" lon="-1.63359">
        <ele>23.41</ele>
        <time>2020-06-20T11:54:24Z</time>
      </trkpt>
      <trkpt lat="47.15534" lon="-1.63349">
        <ele>23.76</ele>
        <time>2020-06-20T11:54:26Z</time>
      </trkpt>
      <trkpt lat="47.15547" lon="-1.63338">
        <ele>23.49</ele>
        <time>2020-06-20T11:54:28Z</time>
      </trkpt>
      <trkpt lat="47.15559" lon="-1.63327">
        <ele>22.82</ele>
        <time>2020-06-20T11:54:30Z</time>
      </trkpt>
      <trkpt lat="47.15572" lon="-1.63315">
        <ele>21.46</ele>
        <time>2020-06-20T11:54:32Z</time>
      </trkpt>
      <trkpt lat="47.15585" lon="-1.63304">
        <ele>19.45</ele>
        <time>2020-06-20T11:54:34Z</time>
      </trkpt>
      <trkpt lat="47.15599" lon="-1.63291">
        <ele>19.52</ele>
        <time>2020-06-20T11:54:36Z</time>
      </trkpt>
      <trkpt lat="47.1561" lon="-1.63279">
        <ele>19.65</ele>
        <time>2020-06-20T11:54:38Z</time>
      </trkpt>
      <trkpt lat="47.15625" lon="-1.63268">
        <ele>19.62</ele>
        <time>2020-06-20T11:54:40Z</time>
      </trkpt>
      <trkpt lat="47.15636" lon="-1.63258">
        <ele>20.8</ele>
        <time>2020-06-20T11:54:42Z</time>
      </trkpt>
      <trkpt lat="47.15649" lon="-1.63247">
        <ele>20.58</ele>
        <time>2020-06-20T11:54:44Z</time>
      </trkpt>
      <trkpt lat="47.15661" lon="-1.63236">
        <ele>20.83</ele>
        <time>2020-06-20T11:54:46Z</time>
      </trkpt>
      <trkpt lat="47.15673" lon="-1.63226">
        <ele>22.04</ele>
        <time>2020-06-20T11:54:48Z</time>
      </trkpt>
      <trkpt lat="47.15684" lon="-1.63216">
        <ele>21.23</ele>
        <time>2020-06-20T11:54:50Z</time>
      </trkpt>
      <trkpt lat="47.15697" lon="-1.63205">
        <ele>21.54</ele>
        <time>2020-06-20T11:54:52Z</time>
      </trkpt>
      <trkpt lat="47.15709" lon="-1.63194">
        <ele>21.47</ele>
        <time>2020-06-20T11:54:54Z</time>
      </trkpt>
      <trkpt lat="47.1572" lon="-1.63184">
        <ele>21.4</ele>
        <time>2020-06-20T11:54:56Z</time>
      </trkpt>
      <trkpt lat="47.1573" lon="-1.63175">
        <ele>21.55</ele>
        <time>2020-06-20T11:54:58Z</time>
      </trkpt>
      <trkpt lat="47.15739" lon="-1.63164">
        <ele>21.25</ele>
        <time>2020-06-20T11:55:00Z</time>
      </trkpt>
      <trkpt lat="47.15751" lon="-1.63152">
        <ele>20.08</ele>
        <time>2020-06-20T11:55:02Z</time>
      </trkpt>
      <trkpt lat="47.15762" lon="-1.63145">
        <ele>20.4</ele>
        <time>2020-06-20T11:55:04Z</time>
      </trkpt>
      <trkpt lat="47.15774" lon="-1.63138">
        <ele>19.91</ele>
        <time>2020-06-20T11:55:06Z</time>
      </trkpt>
      <trkpt lat="47.15785" lon="-1.63127">
        <ele>19.64</ele>
        <time>2020-06-20T11:55:08Z</time>
      </trkpt>
      <trkpt lat="47.15797" lon="-1.63117">
        <ele>19.26</ele>
        <time>2020-06-20T11:55:10Z</time>
      </trkpt>
      <trkpt lat="47.15811" lon="-1.63105">
        <ele>18.1</ele>
        <time>2020-06-20T11:55:12Z</time>
      </trkpt>
      <trkpt lat="47.15822" lon="-1.63094">
        <ele>17.22</ele>
        <time>2020-06-20T11:55:14Z</time>
      </trkpt>
      <trkpt lat="47.15834" lon="-1.63083">
        <ele>16.69</ele>
        <time>2020-06-20T11:55:16Z</time>
      </trkpt>
      <trkpt lat="47.15845" lon="-1.63073">
        <ele>15.73</ele>
        <time>2020-06-20T11:55:18Z</time>
      </trkpt>
      <trkpt lat="47.15854" lon="-1.63066">
        <ele>15.35</ele>
        <time>2020-06-20T11:55:19Z</time>
      </trkpt>
      <trkpt lat="47.15868" lon="-1.63053">
        <ele>15.63</ele>
        <time>2020-06-20T11:55:21Z</time>
      </trkpt>
      <trkpt lat="47.15881" lon="-1.63041">
        <ele>15.32</ele>
        <time>2020-06-20T11:55:23Z</time>
      </trkpt>
      <trkpt lat="47.15896" lon="-1.63027">
        <ele>14.6</ele>
        <time>2020-06-20T11:55:25Z</time>
      </trkpt>
      <trkpt lat="47.15907" lon="-1.63017">
        <ele>13.72</ele>
        <time>2020-06-20T11:55:27Z</time>
      </trkpt>
      <trkpt lat="47.15919" lon="-1.63007">
        <ele>13.9</ele>
        <time>2020-06-20T11:55:29Z</time>
      </trkpt>
      <trkpt lat="47.1593" lon="-1.62997">
        <ele>14.12</ele>
        <time>2020-06-20T11:55:31Z</time>
      </trkpt>
      <trkpt lat="47.15941" lon="-1.62988">
        <ele>13.96</ele>
        <time>2020-06-20T11:55:33Z</time>
      </trkpt>
      <trkpt lat="47.15953" lon="-1.62979">
        <ele>13.33</ele>
        <time>2020-06-20T11:55:35Z</time>
      </trkpt>
      <trkpt lat="47.15963" lon="-1.6297">
        <ele>13.66</ele>
        <time>2020-06-20T11:55:37Z</time>
      </trkpt>
      <trkpt lat="47.15972" lon="-1.62963">
        <ele>13.53</ele>
        <time>2020-06-20T11:55:39Z</time>
      </trkpt>
      <trkpt lat="47.15983" lon="-1.62951">
        <ele>15.77</ele>
        <time>2020-06-20T11:55:42Z</time>
      </trkpt>
      <trkpt lat="47.15992" lon="-1.62943">
        <ele>17.02</ele>
        <time>2020-06-20T11:55:44Z</time>
      </trkpt>
      <trkpt lat="47.16001" lon="-1.62935">
        <ele>17.5</ele>
        <time>2020-06-20T11:55:46Z</time>
      </trkpt>
      <trkpt lat="47.1601" lon="-1.62926">
        <ele>19.27</ele>
        <time>2020-06-20T11:55:48Z</time>
      </trkpt>
      <trkpt lat="47.16018" lon="-1.62919">
        <ele>20.35</ele>
        <time>2020-06-20T11:55:50Z</time>
      </trkpt>
      <trkpt lat="47.16026" lon="-1.6291">
        <ele>19.76</ele>
        <time>2020-06-20T11:55:52Z</time>
      </trkpt>
      <trkpt lat="47.16036" lon="-1.62901">
        <ele>19.28</ele>
        <time>2020-06-20T11:55:54Z</time>
      </trkpt>
      <trkpt lat="47.16046" lon="-1.62891">
        <ele>18.7</ele>
        <time>2020-06-20T11:55:56Z</time>
      </trkpt>
      <trkpt lat="47.16056" lon="-1.62883">
        <ele>19.16</ele>
        <time>2020-06-20T11:55:58Z</time>
      </trkpt>
      <trkpt lat="47.16067" lon="-1.62874">
        <ele>18.78</ele>
        <time>2020-06-20T11:56:00Z</time>
      </trkpt>
      <trkpt lat="47.16077" lon="-1.62865">
        <ele>19.27</ele>
        <time>2020-06-20T11:56:02Z</time>
      </trkpt>
      <trkpt lat="47.16087" lon="-1.62856">
        <ele>19.47</ele>
        <time>2020-06-20T11:56:04Z</time>
      </trkpt>
      <trkpt lat="47.16095" lon="-1.62849">
        <ele>19.84</ele>
        <time>2020-06-20T11:56:06Z</time>
      </trkpt>
      <trkpt lat="47.16103" lon="-1.62843">
        <ele>21.16</ele>
        <time>2020-06-20T11:56:08Z</time>
      </trkpt>
      <trkpt lat="47.16115" lon="-1.62833">
        <ele>22.19</ele>
        <time>2020-06-20T11:56:10Z</time>
      </trkpt>
      <trkpt lat="47.16126" lon="-1.62824">
        <ele>23.54</ele>
        <time>2020-06-20T11:56:12Z</time>
      </trkpt>
      <trkpt lat="47.16139" lon="-1.62813">
        <ele>24.9</ele>
        <time>2020-06-20T11:56:14Z</time>
      </trkpt>
      <trkpt lat="47.16149" lon="-1.62804">
        <ele>25.19</ele>
        <time>2020-06-20T11:56:16Z</time>
      </trkpt>
      <trkpt lat="47.16159" lon="-1.62795">
        <ele>24.24</ele>
        <time>2020-06-20T11:56:18Z</time>
      </trkpt>
      <trkpt lat="47.1617" lon="-1.62785">
        <ele>23.98</ele>
        <time>2020-06-20T11:56:20Z</time>
      </trkpt>
      <trkpt lat="47.16179" lon="-1.62776">
        <ele>24.07</ele>
        <time>2020-06-20T11:56:22Z</time>
      </trkpt>
      <trkpt lat="47.16189" lon="-1.62768">
        <ele>23.84</ele>
        <time>2020-06-20T11:56:24Z</time>
      </trkpt>
      <trkpt lat="47.16198" lon="-1.62759">
        <ele>23.88</ele>
        <time>2020-06-20T11:56:26Z</time>
      </trkpt>
      <trkpt lat="47.16209" lon="-1.6275">
        <ele>24.44</ele>
        <time>2020-06-20T11:56:28Z</time>
      </trkpt>
      <trkpt lat="47.16218" lon="-1.62743">
        <ele>24.29</ele>
        <time>2020-06-20T11:56:30Z</time>
      </trkpt>
      <trkpt lat="47.16229" lon="-1.62733">
        <ele>24.81</ele>
        <time>2020-06-20T11:56:32Z</time>
      </trkpt>
      <trkpt lat="47.16237" lon="-1.62727">
        <ele>25.86</ele>
        <time>2020-06-20T11:56:34Z</time>
      </trkpt>
      <trkpt lat="47.16246" lon="-1.62721">
        <ele>25.7</ele>
        <time>2020-06-20T11:56:36Z</time>
      </trkpt>
      <trkpt lat="47.16258" lon="-1.62711">
        <ele>25.04</ele>
        <time>2020-06-20T11:56:38Z</time>
      </trkpt>
      <trkpt lat="47.16266" lon="-1.62705">
        <ele>24.33</ele>
        <time>2020-06-20T11:56:40Z</time>
      </trkpt>
      <trkpt lat="47.16276" lon="-1.62695">
        <ele>25.74</ele>
        <time>2020-06-20T11:56:42Z</time>
      </trkpt>
      <trkpt lat="47.1628" lon="-1.6268">
        <ele>25.89</ele>
        <time>2020-06-20T11:56:44Z</time>
      </trkpt>
      <trkpt lat="47.16279" lon="-1.62666">
        <ele>25.66</ele>
        <time>2020-06-20T11:56:46Z</time>
      </trkpt>
      <trkpt lat="47.16279" lon="-1.62648">
        <ele>25.05</ele>
        <time>2020-06-20T11:56:48Z</time>
      </trkpt>
      <trkpt lat="47.16281" lon="-1.62631">
        <ele>23.92</ele>
        <time>2020-06-20T11:56:50Z</time>
      </trkpt>
      <trkpt lat="47.16285" lon="-1.62611">
        <ele>23.65</ele>
        <time>2020-06-20T11:56:53Z</time>
      </trkpt>
      <trkpt lat="47.16289" lon="-1.62597">
        <ele>23.99</ele>
        <time>2020-06-20T11:56:55Z</time>
      </trkpt>
      <trkpt lat="47.16294" lon="-1.62586">
        <ele>24.5</ele>
        <time>2020-06-20T11:56:57Z</time>
      </trkpt>
      <trkpt lat="47.16302" lon="-1.62578">
        <ele>24.69</ele>
        <time>2020-06-20T11:56:59Z</time>
      </trkpt>
      <trkpt lat="47.16313" lon="-1.62572">
        <ele>24.19</ele>
        <time>2020-06-20T11:57:01Z</time>
      </trkpt>
      <trkpt lat="47.16326" lon="-1.62569">
        <ele>23.46</ele>
        <time>2020-06-20T11:57:03Z</time>
      </trkpt>
      <trkpt lat="47.16336" lon="-1.62573">
        <ele>23.1</ele>
        <time>2020-06-20T11:57:05Z</time>
      </trkpt>
      <trkpt lat="47.16345" lon="-1.62578">
        <ele>23.09</ele>
        <time>2020-06-20T11:57:07Z</time>
      </trkpt>
      <trkpt lat="47.16356" lon="-1.62583">
        <ele>23.43</ele>
        <time>2020-06-20T11:57:09Z</time>
      </trkpt>
      <trkpt lat="47.16369" lon="-1.62584">
        <ele>23.23</ele>
        <time>2020-06-20T11:57:12Z</time>
      </trkpt>
      <trkpt lat="47.16382" lon="-1.62585">
        <ele>21.76</ele>
        <time>2020-06-20T11:57:14Z</time>
      </trkpt>
      <trkpt lat="47.16392" lon="-1.62581">
        <ele>21.68</ele>
        <time>2020-06-20T11:57:16Z</time>
      </trkpt>
      <trkpt lat="47.16401" lon="-1.62573">
        <ele>22.1</ele>
        <time>2020-06-20T11:57:18Z</time>
      </trkpt>
      <trkpt lat="47.16413" lon="-1.62563">
        <ele>23.07</ele>
        <time>2020-06-20T11:57:20Z</time>
      </trkpt>
      <trkpt lat="47.16422" lon="-1.62555">
        <ele>24.31</ele>
        <time>2020-06-20T11:57:22Z</time>
      </trkpt>
      <trkpt lat="47.16431" lon="-1.62545">
        <ele>25.21</ele>
        <time>2020-06-20T11:57:24Z</time>
      </trkpt>
      <trkpt lat="47.16443" lon="-1.6254">
        <ele>26.13</ele>
        <time>2020-06-20T11:57:26Z</time>
      </trkpt>
      <trkpt lat="47.16454" lon="-1.62541">
        <ele>27.2</ele>
        <time>2020-06-20T11:57:28Z</time>
      </trkpt>
      <trkpt lat="47.16464" lon="-1.62544">
        <ele>27.63</ele>
        <time>2020-06-20T11:57:30Z</time>
      </trkpt>
      <trkpt lat="47.16475" lon="-1.62548">
        <ele>27.62</ele>
        <time>2020-06-20T11:57:32Z</time>
      </trkpt>
      <trkpt lat="47.16488" lon="-1.62552">
        <ele>26.07</ele>
        <time>2020-06-20T11:57:34Z</time>
      </trkpt>
      <trkpt lat="47.16498" lon="-1.62557">
        <ele>24.17</ele>
        <time>2020-06-20T11:57:36Z</time>
      </trkpt>
      <trkpt lat="47.1651" lon="-1.6256">
        <ele>24.28</ele>
        <time>2020-06-20T11:57:38Z</time>
      </trkpt>
      <trkpt lat="47.16523" lon="-1.62564">
        <ele>24.09</ele>
        <time>2020-06-20T11:57:40Z</time>
      </trkpt>
      <trkpt lat="47.16533" lon="-1.62567">
        <ele>22.37</ele>
        <time>2020-06-20T11:57:42Z</time>
      </trkpt>
      <trkpt lat="47.16543" lon="-1.62561">
        <ele>23.42</ele>
        <time>2020-06-20T11:57:44Z</time>
      </trkpt>
      <trkpt lat="47.16554" lon="-1.62551">
        <ele>24.81</ele>
        <time>2020-06-20T11:57:46Z</time>
      </trkpt>
      <trkpt lat="47.16562" lon="-1.62539">
        <ele>25.09</ele>
        <time>2020-06-20T11:57:48Z</time>
      </trkpt>
      <trkpt lat="47.1657" lon="-1.62524">
        <ele>25.08</ele>
        <time>2020-06-20T11:57:50Z</time>
      </trkpt>
      <trkpt lat="47.16581" lon="-1.62506">
        <ele>23.99</ele>
        <time>2020-06-20T11:57:52Z</time>
      </trkpt>
      <trkpt lat="47.16588" lon="-1.62487">
        <ele>23.46</ele>
        <time>2020-06-20T11:57:54Z</time>
      </trkpt>
      <trkpt lat="47.16593" lon="-1.6247">
        <ele>23.32</ele>
        <time>2020-06-20T11:57:56Z</time>
      </trkpt>
      <trkpt lat="47.166" lon="-1.62452">
        <ele>23.73</ele>
        <time>2020-06-20T11:57:58Z</time>
      </trkpt>
      <trkpt lat="47.16607" lon="-1.62435">
        <ele>22.55</ele>
        <time>2020-06-20T11:58:00Z</time>
      </trkpt>
      <trkpt lat="47.16614" lon="-1.62419">
        <ele>22.25</ele>
        <time>2020-06-20T11:58:02Z</time>
      </trkpt>
      <trkpt lat="47.16623" lon="-1.62402">
        <ele>22.93</ele>
        <time>2020-06-20T11:58:04Z</time>
      </trkpt>
      <trkpt lat="47.1663" lon="-1.62389">
        <ele>23.8</ele>
        <time>2020-06-20T11:58:06Z</time>
      </trkpt>
      <trkpt lat="47.16639" lon="-1.62377">
        <ele>24.3</ele>
        <time>2020-06-20T11:58:08Z</time>
      </trkpt>
      <trkpt lat="47.16651" lon="-1.62367">
        <ele>24.15</ele>
        <time>2020-06-20T11:58:10Z</time>
      </trkpt>
      <trkpt lat="47.16663" lon="-1.6236">
        <ele>23.75</ele>
        <time>2020-06-20T11:58:13Z</time>
      </trkpt>
      <trkpt lat="47.16678" lon="-1.62358">
        <ele>21.91</ele>
        <time>2020-06-20T11:58:14Z</time>
      </trkpt>
      <trkpt lat="47.16691" lon="-1.62362">
        <ele>19.27</ele>
        <time>2020-06-20T11:58:17Z</time>
      </trkpt>
      <trkpt lat="47.16704" lon="-1.62375">
        <ele>17.34</ele>
        <time>2020-06-20T11:58:19Z</time>
      </trkpt>
      <trkpt lat="47.16714" lon="-1.62393">
        <ele>17.07</ele>
        <time>2020-06-20T11:58:21Z</time>
      </trkpt>
      <trkpt lat="47.16723" lon="-1.62408">
        <ele>16.87</ele>
        <time>2020-06-20T11:58:23Z</time>
      </trkpt>
      <trkpt lat="47.1673" lon="-1.62425">
        <ele>14.9</ele>
        <time>2020-06-20T11:58:26Z</time>
      </trkpt>
      <trkpt lat="47.16725" lon="-1.62443">
        <ele>14.56</ele>
        <time>2020-06-20T11:58:28Z</time>
      </trkpt>
      <trkpt lat="47.1672" lon="-1.62459">
        <ele>15.55</ele>
        <time>2020-06-20T11:58:30Z</time>
      </trkpt>
      <trkpt lat="47.16717" lon="-1.62474">
        <ele>16.96</ele>
        <time>2020-06-20T11:58:32Z</time>
      </trkpt>
      <trkpt lat="47.16713" lon="-1.6249">
        <ele>17.63</ele>
        <time>2020-06-20T11:58:34Z</time>
      </trkpt>
      <trkpt lat="47.16718" lon="-1.62501">
        <ele>17.26</ele>
        <time>2020-06-20T11:58:36Z</time>
      </trkpt>
      <trkpt lat="47.16731" lon="-1.62507">
        <ele>15.91</ele>
        <time>2020-06-20T11:58:38Z</time>
      </trkpt>
      <trkpt lat="47.16743" lon="-1.6251">
        <ele>15.55</ele>
        <time>2020-06-20T11:58:40Z</time>
      </trkpt>
      <trkpt lat="47.16755" lon="-1.62514">
        <ele>15.78</ele>
        <time>2020-06-20T11:58:42Z</time>
      </trkpt>
      <trkpt lat="47.16765" lon="-1.62519">
        <ele>16.37</ele>
        <time>2020-06-20T11:58:44Z</time>
      </trkpt>
      <trkpt lat="47.16777" lon="-1.62527">
        <ele>16.61</ele>
        <time>2020-06-20T11:58:46Z</time>
      </trkpt>
      <trkpt lat="47.16786" lon="-1.62533">
        <ele>16.41</ele>
        <time>2020-06-20T11:58:48Z</time>
      </trkpt>
      <trkpt lat="47.16795" lon="-1.6254">
        <ele>16.7</ele>
        <time>2020-06-20T11:58:50Z</time>
      </trkpt>
      <trkpt lat="47.16808" lon="-1.62548">
        <ele>16.31</ele>
        <time>2020-06-20T11:58:52Z</time>
      </trkpt>
      <trkpt lat="47.16818" lon="-1.62556">
        <ele>16.75</ele>
        <time>2020-06-20T11:58:54Z</time>
      </trkpt>
      <trkpt lat="47.16828" lon="-1.62568">
        <ele>17.19</ele>
        <time>2020-06-20T11:58:57Z</time>
      </trkpt>
      <trkpt lat="47.16832" lon="-1.62581">
        <ele>17.67</ele>
        <time>2020-06-20T11:58:59Z</time>
      </trkpt>
      <trkpt lat="47.16826" lon="-1.62595">
        <ele>18.27</ele>
        <time>2020-06-20T11:59:01Z</time>
      </trkpt>
      <trkpt lat="47.16818" lon="-1.62609">
        <ele>17.08</ele>
        <time>2020-06-20T11:59:03Z</time>
      </trkpt>
      <trkpt lat="47.16811" lon="-1.6262">
        <ele>15.53</ele>
        <time>2020-06-20T11:59:05Z</time>
      </trkpt>
      <trkpt lat="47.16805" lon="-1.62633">
        <ele>15.03</ele>
        <time>2020-06-20T11:59:07Z</time>
      </trkpt>
      <trkpt lat="47.16797" lon="-1.62644">
        <ele>13.85</ele>
        <time>2020-06-20T11:59:09Z</time>
      </trkpt>
      <trkpt lat="47.1679" lon="-1.62656">
        <ele>13.74</ele>
        <time>2020-06-20T11:59:12Z</time>
      </trkpt>
      <trkpt lat="47.16783" lon="-1.62666">
        <ele>13.45</ele>
        <time>2020-06-20T11:59:15Z</time>
      </trkpt>
      <trkpt lat="47.16776" lon="-1.62657">
        <ele>15.01</ele>
        <time>2020-06-20T11:59:29Z</time>
      </trkpt>
    </trkseg>
  </trk>
</gpx>